<?xml version='1.0' encoding='UTF-8'?><gpx version="1.1" creator="JPX - https://github.com/jenetics/jpx" xmlns="http://www.topografix.com/GPX/1/1"><trk><trkseg><trkpt lat="35.975312665067264" lon="-107.03189950395645"><ele>2091.0</ele><time>2026-05-03T14:52:05Z</time></trkpt><trkpt lat="35.97539020831162" lon="-107.03194868817921"><ele>2091.0</ele><time>2026-05-03T14:52:07Z</time></trkpt><trkpt lat="35.97544928978283" lon="-107.03198618091197"><ele>2091.0</ele><time>2026-05-03T14:52:08Z</time></trkpt><trkpt lat="35.97553409334256" lon="-107.03208214963867"><ele>2091.0</ele><time>2026-05-03T14:52:10Z</time></trkpt><trkpt lat="35.975580995538905" lon="-107.032141330549"><ele>2091.0</ele><time>2026-05-03T14:52:11Z</time></trkpt><trkpt lat="35.97562809683568" lon="-107.03219811246676"><ele>2091.0</ele><time>2026-05-03T14:52:12Z</time></trkpt><trkpt lat="35.97567195391345" lon="-107.03225706646853"><ele>2091.0</ele><time>2026-05-03T14:52:13Z</time></trkpt><trkpt lat="35.97571217885462" lon="-107.03233633569117"><ele>2091.0</ele><time>2026-05-03T14:52:14Z</time></trkpt><trkpt lat="35.97575679692655" lon="-107.03242999102036"><ele>2091.0</ele><time>2026-05-03T14:52:15Z</time></trkpt><trkpt lat="35.97579446109376" lon="-107.03252165909596"><ele>2091.0</ele><time>2026-05-03T14:52:16Z</time></trkpt><trkpt lat="35.975790257875474" lon="-107.03262009269595"><ele>2091.0</ele><time>2026-05-03T14:52:17Z</time></trkpt><trkpt lat="35.97577043641191" lon="-107.03272846643634"><ele>2091.0</ele><time>2026-05-03T14:52:18Z</time></trkpt><trkpt lat="35.975752836299684" lon="-107.03283317564934"><ele>2090.6666666666665</ele><time>2026-05-03T14:52:19Z</time></trkpt><trkpt lat="35.97573916818452" lon="-107.03293480247292"><ele>2090.3333333333335</ele><time>2026-05-03T14:52:20Z</time></trkpt><trkpt lat="35.975719597436054" lon="-107.0330317237983"><ele>2090.0</ele><time>2026-05-03T14:52:21Z</time></trkpt><trkpt lat="35.975700084576424" lon="-107.03312343386843"><ele>2089.666666666667</ele><time>2026-05-03T14:52:22Z</time></trkpt><trkpt lat="35.97567820113365" lon="-107.03323259692698"><ele>2089.3333333333335</ele><time>2026-05-03T14:52:23Z</time></trkpt><trkpt lat="35.97565187992716" lon="-107.03333495180222"><ele>2089.0</ele><time>2026-05-03T14:52:24Z</time></trkpt><trkpt lat="35.97563219962191" lon="-107.03342774476833"><ele>2089.0</ele><time>2026-05-03T14:52:25Z</time></trkpt><trkpt lat="35.9756179692192" lon="-107.03354403068285"><ele>2089.0</ele><time>2026-05-03T14:52:26Z</time></trkpt><trkpt lat="35.975591859114374" lon="-107.0336979785398"><ele>2089.0</ele><time>2026-05-03T14:52:27Z</time></trkpt><trkpt lat="35.97555770656592" lon="-107.03383754122227"><ele>2089.0</ele><time>2026-05-03T14:52:28Z</time></trkpt><trkpt lat="35.97553449638884" lon="-107.03394098216066"><ele>2089.0</ele><time>2026-05-03T14:52:29Z</time></trkpt><trkpt lat="35.9755260606306" lon="-107.03404001705447"><ele>2088.6</ele><time>2026-05-03T14:52:30Z</time></trkpt><trkpt lat="35.975519898789514" lon="-107.03414721203141"><ele>2088.2</ele><time>2026-05-03T14:52:31Z</time></trkpt><trkpt lat="35.9755058719514" lon="-107.03426360747885"><ele>2087.7999999999997</ele><time>2026-05-03T14:52:32Z</time></trkpt><trkpt lat="35.97548014598405" lon="-107.03435934108734"><ele>2087.4</ele><time>2026-05-03T14:52:33Z</time></trkpt><trkpt lat="35.97543775098581" lon="-107.03442906944527"><ele>2087.0</ele><time>2026-05-03T14:52:34Z</time></trkpt><trkpt lat="35.97535211957296" lon="-107.03452528826574"><ele>2087.0</ele><time>2026-05-03T14:52:36Z</time></trkpt><trkpt lat="35.97530096629898" lon="-107.03458576954783"><ele>2087.0</ele><time>2026-05-03T14:52:37Z</time></trkpt><trkpt lat="35.975263528495894" lon="-107.03465056202808"><ele>2087.0</ele><time>2026-05-03T14:52:38Z</time></trkpt><trkpt lat="35.97522140078813" lon="-107.03481675725615"><ele>2087.0</ele><time>2026-05-03T14:52:40Z</time></trkpt><trkpt lat="35.97518687509969" lon="-107.03490455690158"><ele>2087.0</ele><time>2026-05-03T14:52:41Z</time></trkpt><trkpt lat="35.975149107627615" lon="-107.03499314532513"><ele>2087.0</ele><time>2026-05-03T14:52:42Z</time></trkpt><trkpt lat="35.975106048487945" lon="-107.03509922688384"><ele>2086.7999999999997</ele><time>2026-05-03T14:52:43Z</time></trkpt><trkpt lat="35.9750645060986" lon="-107.03521490135398"><ele>2086.6</ele><time>2026-05-03T14:52:44Z</time></trkpt><trkpt lat="35.97501873422201" lon="-107.0353420101128"><ele>2086.3999999999996</ele><time>2026-05-03T14:52:45Z</time></trkpt><trkpt lat="35.97499891118214" lon="-107.03542584519444"><ele>2086.2</ele><time>2026-05-03T14:52:46Z</time></trkpt><trkpt lat="35.974973135899674" lon="-107.03551177981662"><ele>2086.0</ele><time>2026-05-03T14:52:47Z</time></trkpt><trkpt lat="35.974937169299075" lon="-107.03561586746567"><ele>2086.0</ele><time>2026-05-03T14:52:49Z</time></trkpt><trkpt lat="35.974893509560204" lon="-107.03574917699795"><ele>2086.0</ele><time>2026-05-03T14:52:51Z</time></trkpt><trkpt lat="35.9748918240875" lon="-107.03590272751379"><ele>2086.0</ele><time>2026-05-03T14:52:53Z</time></trkpt><trkpt lat="35.97482080574375" lon="-107.03604662286031"><ele>2086.0</ele><time>2026-05-03T14:52:55Z</time></trkpt><trkpt lat="35.97478045967271" lon="-107.03612632996538"><ele>2085.6</ele><time>2026-05-03T14:52:56Z</time></trkpt><trkpt lat="35.974756566260986" lon="-107.03623386790498"><ele>2085.2</ele><time>2026-05-03T14:52:57Z</time></trkpt><trkpt lat="35.97475170271371" lon="-107.03635784173443"><ele>2084.8</ele><time>2026-05-03T14:52:58Z</time></trkpt><trkpt lat="35.97476597673677" lon="-107.03648672767186"><ele>2084.4</ele><time>2026-05-03T14:52:59Z</time></trkpt><trkpt lat="35.974802986913744" lon="-107.03658513953296"><ele>2084.0</ele><time>2026-05-03T14:53:00Z</time></trkpt><trkpt lat="35.9748271922789" lon="-107.03667573907119"><ele>2084.0</ele><time>2026-05-03T14:53:01Z</time></trkpt><trkpt lat="35.97484097518655" lon="-107.03678800402541"><ele>2084.0</ele><time>2026-05-03T14:53:03Z</time></trkpt><trkpt lat="35.97482755684921" lon="-107.03691115389414"><ele>2084.0</ele><time>2026-05-03T14:53:05Z</time></trkpt><trkpt lat="35.974854096932056" lon="-107.03698561377871"><ele>2084.0</ele><time>2026-05-03T14:53:06Z</time></trkpt><trkpt lat="35.974905521773586" lon="-107.03705531671062"><ele>2084.0</ele><time>2026-05-03T14:53:07Z</time></trkpt><trkpt lat="35.97497511220303" lon="-107.03712150911957"><ele>2084.0</ele><time>2026-05-03T14:53:08Z</time></trkpt><trkpt lat="35.975052772154456" lon="-107.03716413030375"><ele>2084.0</ele><time>2026-05-03T14:53:09Z</time></trkpt><trkpt lat="35.97511430119578" lon="-107.0372085186457"><ele>2084.0</ele><time>2026-05-03T14:53:10Z</time></trkpt><trkpt lat="35.975171586444674" lon="-107.03725566121506"><ele>2084.0</ele><time>2026-05-03T14:53:11Z</time></trkpt><trkpt lat="35.975220874299126" lon="-107.03731071013468"><ele>2084.0</ele><time>2026-05-03T14:53:12Z</time></trkpt><trkpt lat="35.975241510089575" lon="-107.03738624875814"><ele>2084.0</ele><time>2026-05-03T14:53:15Z</time></trkpt><trkpt lat="35.97529018854533" lon="-107.03746227364995"><ele>2084.0</ele><time>2026-05-03T14:53:19Z</time></trkpt><trkpt lat="35.97535180188442" lon="-107.03748149214292"><ele>2084.0</ele><time>2026-05-03T14:53:21Z</time></trkpt><trkpt lat="35.975438355625556" lon="-107.03746728534749"><ele>2083.833333333333</ele><time>2026-05-03T14:53:24Z</time></trkpt><trkpt lat="35.9754698239992" lon="-107.0375346694497"><ele>2083.6666666666665</ele><time>2026-05-03T14:53:27Z</time></trkpt><trkpt lat="35.975476424190866" lon="-107.03762143641643"><ele>2083.5</ele><time>2026-05-03T14:53:29Z</time></trkpt><trkpt lat="35.97543493690174" lon="-107.03771255759338"><ele>2083.3333333333335</ele><time>2026-05-03T14:53:32Z</time></trkpt><trkpt lat="35.97544320987718" lon="-107.03780273812316"><ele>2083.166666666667</ele><time>2026-05-03T14:53:35Z</time></trkpt><trkpt lat="35.97544147712071" lon="-107.03792043609722"><ele>2083.0</ele><time>2026-05-03T14:53:37Z</time></trkpt><trkpt lat="35.97535753537479" lon="-107.03802267131599"><ele>2083.0</ele><time>2026-05-03T14:53:39Z</time></trkpt><trkpt lat="35.97530624543969" lon="-107.03807421042818"><ele>2083.0</ele><time>2026-05-03T14:53:40Z</time></trkpt><trkpt lat="35.97524942445795" lon="-107.03815454625456"><ele>2083.0</ele><time>2026-05-03T14:53:41Z</time></trkpt><trkpt lat="35.975186210932115" lon="-107.03825633307378"><ele>2083.0</ele><time>2026-05-03T14:53:42Z</time></trkpt><trkpt lat="35.97510511930203" lon="-107.03837014080098"><ele>2083.0</ele><time>2026-05-03T14:53:43Z</time></trkpt><trkpt lat="35.97502648426828" lon="-107.03850381721158"><ele>2083.0</ele><time>2026-05-03T14:53:44Z</time></trkpt><trkpt lat="35.97494322646403" lon="-107.03866058834747"><ele>2083.0</ele><time>2026-05-03T14:53:45Z</time></trkpt><trkpt lat="35.97486776821355" lon="-107.0387967199833"><ele>2083.0</ele><time>2026-05-03T14:53:46Z</time></trkpt><trkpt lat="35.974804596450184" lon="-107.03891135660858"><ele>2083.0</ele><time>2026-05-03T14:53:47Z</time></trkpt><trkpt lat="35.974751910181375" lon="-107.03900312058708"><ele>2083.0</ele><time>2026-05-03T14:53:48Z</time></trkpt><trkpt lat="35.97470689024393" lon="-107.03909222499739"><ele>2083.0</ele><time>2026-05-03T14:53:49Z</time></trkpt><trkpt lat="35.97466728392007" lon="-107.03917857268715"><ele>2083.0</ele><time>2026-05-03T14:53:50Z</time></trkpt><trkpt lat="35.974625810359704" lon="-107.03925791391434"><ele>2083.0</ele><time>2026-05-03T14:53:51Z</time></trkpt><trkpt lat="35.97458465120938" lon="-107.03933465169999"><ele>2083.0</ele><time>2026-05-03T14:53:52Z</time></trkpt><trkpt lat="35.97453660475675" lon="-107.03941438783049"><ele>2083.0</ele><time>2026-05-03T14:53:53Z</time></trkpt><trkpt lat="35.974494081819515" lon="-107.03949532474392"><ele>2082.8333333333335</ele><time>2026-05-03T14:53:54Z</time></trkpt><trkpt lat="35.974446724664126" lon="-107.0395594350947"><ele>2082.666666666667</ele><time>2026-05-03T14:53:55Z</time></trkpt><trkpt lat="35.97438093864945" lon="-107.0396093737841"><ele>2082.5</ele><time>2026-05-03T14:53:57Z</time></trkpt><trkpt lat="35.97439122742633" lon="-107.0397029876515"><ele>2082.3333333333335</ele><time>2026-05-03T14:54:00Z</time></trkpt><trkpt lat="35.97442514834922" lon="-107.03978762806746"><ele>2082.1666666666665</ele><time>2026-05-03T14:54:02Z</time></trkpt><trkpt lat="35.97450210797644" lon="-107.03990536045492"><ele>2082.0</ele><time>2026-05-03T14:54:04Z</time></trkpt><trkpt lat="35.97453762722399" lon="-107.03997998776444"><ele>2082.0</ele><time>2026-05-03T14:54:05Z</time></trkpt><trkpt lat="35.97456109067831" lon="-107.0400537595687"><ele>2082.0</ele><time>2026-05-03T14:54:06Z</time></trkpt><trkpt lat="35.97459966415021" lon="-107.04013602947106"><ele>2082.0</ele><time>2026-05-03T14:54:08Z</time></trkpt><trkpt lat="35.974630182232666" lon="-107.04003535475529"><ele>2082.0</ele><time>2026-05-03T14:54:10Z</time></trkpt><trkpt lat="35.97459514976758" lon="-107.0399639151529"><ele>2082.0</ele><time>2026-05-03T14:54:11Z</time></trkpt><trkpt lat="35.9745378584858" lon="-107.03990237885691"><ele>2082.0</ele><time>2026-05-03T14:54:12Z</time></trkpt><trkpt lat="35.97447514943059" lon="-107.03983213808498"><ele>2081.5</ele><time>2026-05-03T14:54:13Z</time></trkpt><trkpt lat="35.97442547334385" lon="-107.03976725165478"><ele>2081.0</ele><time>2026-05-03T14:54:14Z</time></trkpt><trkpt lat="35.97435991635419" lon="-107.03965527447029"><ele>2080.5</ele><time>2026-05-03T14:54:16Z</time></trkpt><trkpt lat="35.97430785354208" lon="-107.03959425289499"><ele>2080.0</ele><time>2026-05-03T14:54:18Z</time></trkpt><trkpt lat="35.97426784487131" lon="-107.03952512919783"><ele>2079.5</ele><time>2026-05-03T14:54:21Z</time></trkpt><trkpt lat="35.97435606409195" lon="-107.03946818642275"><ele>2079.0</ele><time>2026-05-03T14:54:24Z</time></trkpt><trkpt lat="35.974432033309625" lon="-107.0394907438503"><ele>2079.0</ele><time>2026-05-03T14:54:25Z</time></trkpt><trkpt lat="35.974514383404234" lon="-107.03949021480206"><ele>2079.0</ele><time>2026-05-03T14:54:26Z</time></trkpt><trkpt lat="35.97457525637525" lon="-107.03943759439426"><ele>2079.0</ele><time>2026-05-03T14:54:27Z</time></trkpt><trkpt lat="35.974611392919215" lon="-107.03932759960826"><ele>2079.0</ele><time>2026-05-03T14:54:28Z</time></trkpt><trkpt lat="35.974670110748455" lon="-107.03919824066013"><ele>2079.0</ele><time>2026-05-03T14:54:29Z</time></trkpt><trkpt lat="35.97471325279181" lon="-107.03910484215491"><ele>2079.6666666666665</ele><time>2026-05-03T14:54:30Z</time></trkpt><trkpt lat="35.974735956109384" lon="-107.03903196356342"><ele>2080.3333333333335</ele><time>2026-05-03T14:54:31Z</time></trkpt><trkpt lat="35.97475721009781" lon="-107.03895822969443"><ele>2081.0</ele><time>2026-05-03T14:54:32Z</time></trkpt><trkpt lat="35.97478647474459" lon="-107.03886744436227"><ele>2081.666666666667</ele><time>2026-05-03T14:54:33Z</time></trkpt><trkpt lat="35.974834021703614" lon="-107.03876219224705"><ele>2082.3333333333335</ele><time>2026-05-03T14:54:34Z</time></trkpt><trkpt lat="35.97489357333243" lon="-107.03865305571999"><ele>2083.0</ele><time>2026-05-03T14:54:35Z</time></trkpt><trkpt lat="35.97495133472438" lon="-107.03854686343887"><ele>2083.0</ele><time>2026-05-03T14:54:36Z</time></trkpt><trkpt lat="35.97500602521012" lon="-107.03843653435801"><ele>2083.0</ele><time>2026-05-03T14:54:37Z</time></trkpt><trkpt lat="35.97505902347294" lon="-107.03832936639508"><ele>2083.0</ele><time>2026-05-03T14:54:38Z</time></trkpt><trkpt lat="35.97510913588253" lon="-107.03823387553317"><ele>2083.0</ele><time>2026-05-03T14:54:39Z</time></trkpt><trkpt lat="35.975156615977845" lon="-107.03814635493904"><ele>2083.0</ele><time>2026-05-03T14:54:40Z</time></trkpt><trkpt lat="35.975197713973934" lon="-107.03806396074691"><ele>2083.0</ele><time>2026-05-03T14:54:41Z</time></trkpt><trkpt lat="35.97522941491599" lon="-107.03798873789631"><ele>2083.0</ele><time>2026-05-03T14:54:42Z</time></trkpt><trkpt lat="35.97527491919869" lon="-107.03789159656218"><ele>2083.0</ele><time>2026-05-03T14:54:44Z</time></trkpt><trkpt lat="35.97535875061314" lon="-107.03786717478846"><ele>2083.0</ele><time>2026-05-03T14:54:47Z</time></trkpt><trkpt lat="35.97543289561459" lon="-107.03793671994138"><ele>2083.0</ele><time>2026-05-03T14:54:49Z</time></trkpt><trkpt lat="35.97547793854147" lon="-107.03799206257763"><ele>2083.0</ele><time>2026-05-03T14:54:50Z</time></trkpt><trkpt lat="35.97552550335451" lon="-107.03806073406265"><ele>2083.0</ele><time>2026-05-03T14:54:52Z</time></trkpt><trkpt lat="35.975578183042735" lon="-107.03815168671345"><ele>2083.0</ele><time>2026-05-03T14:54:54Z</time></trkpt><trkpt lat="35.975663359870474" lon="-107.03818672682358"><ele>2083.0</ele><time>2026-05-03T14:54:56Z</time></trkpt><trkpt lat="35.97574987956641" lon="-107.03818042986894"><ele>2083.0</ele><time>2026-05-03T14:54:58Z</time></trkpt><trkpt lat="35.97581852797048" lon="-107.03817274634241"><ele>2083.0</ele><time>2026-05-03T14:55:01Z</time></trkpt><trkpt lat="35.97587872828875" lon="-107.03814359975911"><ele>2083.0</ele><time>2026-05-03T14:55:05Z</time></trkpt><trkpt lat="35.9757228154767" lon="-107.03822182140017"><ele>2082.75</ele><time>2026-05-03T15:05:09Z</time></trkpt><trkpt lat="35.975639869591234" lon="-107.03832286694293"><ele>2082.5</ele><time>2026-05-03T15:05:10Z</time></trkpt><trkpt lat="35.97554496110735" lon="-107.03843505891264"><ele>2082.25</ele><time>2026-05-03T15:05:11Z</time></trkpt><trkpt lat="35.975423466733815" lon="-107.03856586931747"><ele>2082.0</ele><time>2026-05-03T15:05:12Z</time></trkpt><trkpt lat="35.975289865840125" lon="-107.03870364302922"><ele>2082.0</ele><time>2026-05-03T15:05:13Z</time></trkpt><trkpt lat="35.97520683208036" lon="-107.03881346991182"><ele>2082.0</ele><time>2026-05-03T15:05:14Z</time></trkpt><trkpt lat="35.97511901918636" lon="-107.03893806695946"><ele>2082.0</ele><time>2026-05-03T15:05:15Z</time></trkpt><trkpt lat="35.9750013278386" lon="-107.03905651621318"><ele>2082.0</ele><time>2026-05-03T15:05:16Z</time></trkpt><trkpt lat="35.97489493877543" lon="-107.03915384851857"><ele>2081.25</ele><time>2026-05-03T15:05:17Z</time></trkpt><trkpt lat="35.974791053624166" lon="-107.03927601265333"><ele>2080.5</ele><time>2026-05-03T15:05:18Z</time></trkpt><trkpt lat="35.97467514696244" lon="-107.03940278838154"><ele>2079.75</ele><time>2026-05-03T15:05:19Z</time></trkpt><trkpt lat="35.9745974777295" lon="-107.03950351448053"><ele>2079.0</ele><time>2026-05-03T15:05:20Z</time></trkpt><trkpt lat="35.974530728844606" lon="-107.03957334332067"><ele>2079.0</ele><time>2026-05-03T15:05:21Z</time></trkpt><trkpt lat="35.97448084937547" lon="-107.0396314700038"><ele>2079.0</ele><time>2026-05-03T15:05:22Z</time></trkpt><trkpt lat="35.974441546045206" lon="-107.03972495646613"><ele>2079.0</ele><time>2026-05-03T15:05:25Z</time></trkpt><trkpt lat="35.97448289723737" lon="-107.03985737299273"><ele>2079.0</ele><time>2026-05-03T15:05:27Z</time></trkpt><trkpt lat="35.97454085223041" lon="-107.03993872418228"><ele>2079.0</ele><time>2026-05-03T15:05:28Z</time></trkpt><trkpt lat="35.9746142014838" lon="-107.04004986063455"><ele>2079.5</ele><time>2026-05-03T15:05:29Z</time></trkpt><trkpt lat="35.974667514156174" lon="-107.04015980977894"><ele>2080.0</ele><time>2026-05-03T15:05:30Z</time></trkpt><trkpt lat="35.974694151323874" lon="-107.04024399119055"><ele>2080.5</ele><time>2026-05-03T15:05:31Z</time></trkpt><trkpt lat="35.97471064925701" lon="-107.04032850042672"><ele>2081.0</ele><time>2026-05-03T15:05:32Z</time></trkpt><trkpt lat="35.97475364120554" lon="-107.04042894908842"><ele>2081.5</ele><time>2026-05-03T15:05:33Z</time></trkpt><trkpt lat="35.97481152179084" lon="-107.04049806978922"><ele>2082.0</ele><time>2026-05-03T15:05:34Z</time></trkpt><trkpt lat="35.97486601758292" lon="-107.04053882415637"><ele>2082.0</ele><time>2026-05-03T15:05:35Z</time></trkpt><trkpt lat="35.97493249959539" lon="-107.04059525495659"><ele>2082.0</ele><time>2026-05-03T15:05:36Z</time></trkpt><trkpt lat="35.974994022943335" lon="-107.04068658386421"><ele>2082.0</ele><time>2026-05-03T15:05:38Z</time></trkpt><trkpt lat="35.97502667204443" lon="-107.04075535095002"><ele>2082.0</ele><time>2026-05-03T15:05:39Z</time></trkpt><trkpt lat="35.975092132756075" lon="-107.04082541532806"><ele>2082.0</ele><time>2026-05-03T15:05:40Z</time></trkpt><trkpt lat="35.975166377659924" lon="-107.04091536988929"><ele>2082.0</ele><time>2026-05-03T15:05:41Z</time></trkpt><trkpt lat="35.97525590673209" lon="-107.04103513623271"><ele>2082.0</ele><time>2026-05-03T15:05:42Z</time></trkpt><trkpt lat="35.97533900913584" lon="-107.04114169213614"><ele>2082.0</ele><time>2026-05-03T15:05:43Z</time></trkpt><trkpt lat="35.975410131066624" lon="-107.0412685317945"><ele>2082.0</ele><time>2026-05-03T15:05:44Z</time></trkpt><trkpt lat="35.97550099172791" lon="-107.04142326158947"><ele>2082.0</ele><time>2026-05-03T15:05:45Z</time></trkpt><trkpt lat="35.975582366458774" lon="-107.04159298358344"><ele>2081.3333333333335</ele><time>2026-05-03T15:05:46Z</time></trkpt><trkpt lat="35.9756608605364" lon="-107.04178660451518"><ele>2080.666666666667</ele><time>2026-05-03T15:05:47Z</time></trkpt><trkpt lat="35.97572745080823" lon="-107.04197374583471"><ele>2080.0</ele><time>2026-05-03T15:05:48Z</time></trkpt><trkpt lat="35.97577863283078" lon="-107.04211697672457"><ele>2080.0</ele><time>2026-05-03T15:05:49Z</time></trkpt><trkpt lat="35.97581109232296" lon="-107.04222211819754"><ele>2080.0</ele><time>2026-05-03T15:05:50Z</time></trkpt><trkpt lat="35.97584859828325" lon="-107.04232618616706"><ele>2080.0</ele><time>2026-05-03T15:05:52Z</time></trkpt><trkpt lat="35.975894011827876" lon="-107.0423934157434"><ele>2080.0</ele><time>2026-05-03T15:06:05Z</time></trkpt><trkpt lat="35.9759446524978" lon="-107.0423469974418"><ele>2080.0</ele><time>2026-05-03T15:06:08Z</time></trkpt><trkpt lat="35.976033160154564" lon="-107.04226499838566"><ele>2080.0</ele><time>2026-05-03T15:06:10Z</time></trkpt><trkpt lat="35.97609962416033" lon="-107.04231329906825"><ele>2080.0</ele><time>2026-05-03T15:06:19Z</time></trkpt><trkpt lat="35.976052806266935" lon="-107.04222817642997"><ele>2080.0</ele><time>2026-05-03T15:06:23Z</time></trkpt><trkpt lat="35.975967979816176" lon="-107.04225988841651"><ele>2080.0</ele><time>2026-05-03T15:06:24Z</time></trkpt><trkpt lat="35.97583996740001" lon="-107.04230043504603"><ele>2080.0</ele><time>2026-05-03T15:06:25Z</time></trkpt><trkpt lat="35.97577300755765" lon="-107.04233034270048"><ele>2080.0</ele><time>2026-05-03T15:06:26Z</time></trkpt><trkpt lat="35.97577761310622" lon="-107.04240919286451"><ele>2080.0</ele><time>2026-05-03T15:06:29Z</time></trkpt><trkpt lat="35.97582283810515" lon="-107.04251011071263"><ele>2080.4</ele><time>2026-05-03T15:06:31Z</time></trkpt><trkpt lat="35.97587545221792" lon="-107.04257883893192"><ele>2080.8</ele><time>2026-05-03T15:06:32Z</time></trkpt><trkpt lat="35.97594856708489" lon="-107.04264938702819"><ele>2081.2</ele><time>2026-05-03T15:06:33Z</time></trkpt><trkpt lat="35.97602683829959" lon="-107.04275069958231"><ele>2081.6</ele><time>2026-05-03T15:06:34Z</time></trkpt><trkpt lat="35.97609361090143" lon="-107.04286404867452"><ele>2082.0</ele><time>2026-05-03T15:06:35Z</time></trkpt><trkpt lat="35.97613469539684" lon="-107.04295209515594"><ele>2082.0</ele><time>2026-05-03T15:06:36Z</time></trkpt><trkpt lat="35.97620967481643" lon="-107.04303969453453"><ele>2082.0</ele><time>2026-05-03T15:06:37Z</time></trkpt><trkpt lat="35.97632670598195" lon="-107.04315055034552"><ele>2082.0</ele><time>2026-05-03T15:06:38Z</time></trkpt><trkpt lat="35.97645892619497" lon="-107.04327580252117"><ele>2082.0</ele><time>2026-05-03T15:06:39Z</time></trkpt><trkpt lat="35.97660363472383" lon="-107.0434129161765"><ele>2082.5</ele><time>2026-05-03T15:06:40Z</time></trkpt><trkpt lat="35.97673572597879" lon="-107.04355012269016"><ele>2083.0</ele><time>2026-05-03T15:06:41Z</time></trkpt><trkpt lat="35.976835374103906" lon="-107.04366008920854"><ele>2083.5</ele><time>2026-05-03T15:06:42Z</time></trkpt><trkpt lat="35.976936564755604" lon="-107.04376589115489"><ele>2084.0</ele><time>2026-05-03T15:06:43Z</time></trkpt><trkpt lat="35.97704526869659" lon="-107.04389649726131"><ele>2084.0</ele><time>2026-05-03T15:06:44Z</time></trkpt><trkpt lat="35.9771339601957" lon="-107.04401302580156"><ele>2084.0</ele><time>2026-05-03T15:06:45Z</time></trkpt><trkpt lat="35.97723158798075" lon="-107.04413538085123"><ele>2084.0</ele><time>2026-05-03T15:06:46Z</time></trkpt><trkpt lat="35.97727467086785" lon="-107.04425262419839"><ele>2084.0</ele><time>2026-05-03T15:06:47Z</time></trkpt><trkpt lat="35.97728626987206" lon="-107.0443562252568"><ele>2084.0</ele><time>2026-05-03T15:06:48Z</time></trkpt><trkpt lat="35.97727647962325" lon="-107.04444391296958"><ele>2084.0</ele><time>2026-05-03T15:06:49Z</time></trkpt><trkpt lat="35.977288411662144" lon="-107.04455480809509"><ele>2084.0</ele><time>2026-05-03T15:06:50Z</time></trkpt><trkpt lat="35.977292133032805" lon="-107.04465937635156"><ele>2084.0</ele><time>2026-05-03T15:06:51Z</time></trkpt><trkpt lat="35.977314895507426" lon="-107.0447456199179"><ele>2084.0</ele><time>2026-05-03T15:06:52Z</time></trkpt><trkpt lat="35.97736404127156" lon="-107.04484726358773"><ele>2084.0</ele><time>2026-05-03T15:06:53Z</time></trkpt><trkpt lat="35.97744700300174" lon="-107.04499293303496"><ele>2084.0</ele><time>2026-05-03T15:06:54Z</time></trkpt><trkpt lat="35.97751707840355" lon="-107.04515297140982"><ele>2084.0</ele><time>2026-05-03T15:06:55Z</time></trkpt><trkpt lat="35.97754542110837" lon="-107.04528726302576"><ele>2084.0</ele><time>2026-05-03T15:06:56Z</time></trkpt><trkpt lat="35.977556674693204" lon="-107.04537014853"><ele>2084.0</ele><time>2026-05-03T15:06:57Z</time></trkpt><trkpt lat="35.977549670669184" lon="-107.04545126204623"><ele>2084.0</ele><time>2026-05-03T15:06:58Z</time></trkpt><trkpt lat="35.97752178085027" lon="-107.04552660032614"><ele>2084.0</ele><time>2026-05-03T15:06:59Z</time></trkpt><trkpt lat="35.97747412516436" lon="-107.0456295029477"><ele>2084.0</ele><time>2026-05-03T15:07:01Z</time></trkpt><trkpt lat="35.977415023087445" lon="-107.04559950692993"><ele>2084.0</ele><time>2026-05-03T15:07:04Z</time></trkpt><trkpt lat="35.977495480781" lon="-107.04559242133928"><ele>2084.0</ele><time>2026-05-03T15:07:06Z</time></trkpt><trkpt lat="35.97754324042161" lon="-107.04566664645843"><ele>2084.0</ele><time>2026-05-03T15:07:08Z</time></trkpt><trkpt lat="35.97761618481554" lon="-107.04568493488838"><ele>2084.0</ele><time>2026-05-03T15:07:12Z</time></trkpt><trkpt lat="35.97755024521197" lon="-107.04568228954868"><ele>2084.0</ele><time>2026-05-03T15:07:19Z</time></trkpt><trkpt lat="35.97748631520124" lon="-107.04571061345062"><ele>2084.0</ele><time>2026-05-03T15:07:33Z</time></trkpt><trkpt lat="35.97750798167362" lon="-107.04582475071159"><ele>2084.0</ele><time>2026-05-03T15:07:36Z</time></trkpt><trkpt lat="35.977589044931186" lon="-107.04593923603161"><ele>2084.0</ele><time>2026-05-03T15:07:37Z</time></trkpt><trkpt lat="35.97770013341544" lon="-107.04606043248596"><ele>2084.0</ele><time>2026-05-03T15:07:38Z</time></trkpt><trkpt lat="35.97750298876045" lon="-107.0458719744069"><ele>2085.0</ele><time>2026-05-03T15:07:39Z</time></trkpt><trkpt lat="35.97762623704567" lon="-107.0460142369753"><ele>2086.0</ele><time>2026-05-03T15:07:41Z</time></trkpt><trkpt lat="35.97770293841515" lon="-107.04613755284888"><ele>2087.0</ele><time>2026-05-03T15:07:42Z</time></trkpt><trkpt lat="35.97776990685824" lon="-107.04627753214298"><ele>2088.0</ele><time>2026-05-03T15:07:43Z</time></trkpt><trkpt lat="35.97784172028074" lon="-107.04642027364176"><ele>2088.0</ele><time>2026-05-03T15:07:44Z</time></trkpt><trkpt lat="35.977897513208575" lon="-107.04653329474732"><ele>2088.0</ele><time>2026-05-03T15:07:45Z</time></trkpt><trkpt lat="35.97796988145314" lon="-107.04666750509593"><ele>2088.0</ele><time>2026-05-03T15:07:46Z</time></trkpt><trkpt lat="35.978042264713494" lon="-107.04681087718254"><ele>2088.0</ele><time>2026-05-03T15:07:47Z</time></trkpt><trkpt lat="35.97821852898018" lon="-107.04717538166497"><ele>2088.0</ele><time>2026-05-03T15:07:48Z</time></trkpt><trkpt lat="35.97833660918719" lon="-107.04738141535276"><ele>2088.0</ele><time>2026-05-03T15:07:49Z</time></trkpt><trkpt lat="35.97841846124753" lon="-107.04751860737528"><ele>2088.0</ele><time>2026-05-03T15:07:50Z</time></trkpt><trkpt lat="35.978504303078715" lon="-107.04764566607295"><ele>2087.5</ele><time>2026-05-03T15:07:51Z</time></trkpt><trkpt lat="35.97859771048835" lon="-107.0477574735653"><ele>2087.0</ele><time>2026-05-03T15:07:52Z</time></trkpt><trkpt lat="35.97870079560615" lon="-107.04784848438369"><ele>2086.5</ele><time>2026-05-03T15:07:53Z</time></trkpt><trkpt lat="35.97880036403305" lon="-107.04792556892674"><ele>2086.0</ele><time>2026-05-03T15:07:54Z</time></trkpt><trkpt lat="35.97892101643173" lon="-107.04795709030525"><ele>2086.0</ele><time>2026-05-03T15:07:55Z</time></trkpt><trkpt lat="35.97904920999448" lon="-107.04798300325145"><ele>2086.0</ele><time>2026-05-03T15:07:56Z</time></trkpt><trkpt lat="35.97922073995795" lon="-107.04789777064818"><ele>2086.0</ele><time>2026-05-03T15:07:57Z</time></trkpt><trkpt lat="35.97952044543395" lon="-107.04762381122127"><ele>2086.666666666667</ele><time>2026-05-03T15:07:58Z</time></trkpt><trkpt lat="35.979661407837796" lon="-107.04751148296704"><ele>2087.3333333333335</ele><time>2026-05-03T15:07:59Z</time></trkpt><trkpt lat="35.97981193090887" lon="-107.04739556487273"><ele>2088.0</ele><time>2026-05-03T15:08:00Z</time></trkpt><trkpt lat="35.97997525017449" lon="-107.04728519240435"><ele>2088.6666666666665</ele><time>2026-05-03T15:08:01Z</time></trkpt><trkpt lat="35.98015244423418" lon="-107.04716957823067"><ele>2089.333333333333</ele><time>2026-05-03T15:08:02Z</time></trkpt><trkpt lat="35.98034778185197" lon="-107.04704825491845"><ele>2090.0</ele><time>2026-05-03T15:08:03Z</time></trkpt><trkpt lat="35.98054596111709" lon="-107.04694436307335"><ele>2090.0</ele><time>2026-05-03T15:08:04Z</time></trkpt><trkpt lat="35.9807613757563" lon="-107.04684141880097"><ele>2090.0</ele><time>2026-05-03T15:08:05Z</time></trkpt><trkpt lat="35.98098122067323" lon="-107.04675628356671"><ele>2089.333333333333</ele><time>2026-05-03T15:08:06Z</time></trkpt><trkpt lat="35.98118932859231" lon="-107.04673154240497"><ele>2088.6666666666665</ele><time>2026-05-03T15:08:07Z</time></trkpt><trkpt lat="35.98138908378097" lon="-107.0467392439062"><ele>2088.0</ele><time>2026-05-03T15:08:08Z</time></trkpt><trkpt lat="35.98161908094302" lon="-107.04675947792829"><ele>2088.0</ele><time>2026-05-03T15:08:09Z</time></trkpt><trkpt lat="35.98185982769313" lon="-107.04679132350658"><ele>2088.0</ele><time>2026-05-03T15:08:10Z</time></trkpt><trkpt lat="35.98209445048988" lon="-107.04684083062591"><ele>2088.0</ele><time>2026-05-03T15:08:11Z</time></trkpt><trkpt lat="35.98232183520369" lon="-107.04691729884166"><ele>2088.0</ele><time>2026-05-03T15:08:12Z</time></trkpt><trkpt lat="35.982538101406625" lon="-107.04702081931082"><ele>2088.5</ele><time>2026-05-03T15:08:13Z</time></trkpt><trkpt lat="35.98270094997013" lon="-107.04710675878538"><ele>2089.0</ele><time>2026-05-03T15:08:14Z</time></trkpt><trkpt lat="35.98281111907891" lon="-107.04718457743998"><ele>2089.5</ele><time>2026-05-03T15:08:15Z</time></trkpt><trkpt lat="35.98289937805026" lon="-107.04727433271877"><ele>2090.0</ele><time>2026-05-03T15:08:16Z</time></trkpt><trkpt lat="35.98297147135209" lon="-107.04736543414234"><ele>2090.0</ele><time>2026-05-03T15:08:17Z</time></trkpt><trkpt lat="35.983039587629" lon="-107.0474506387066"><ele>2090.0</ele><time>2026-05-03T15:08:18Z</time></trkpt><trkpt lat="35.983132477914545" lon="-107.04754619081909"><ele>2090.0</ele><time>2026-05-03T15:08:19Z</time></trkpt><trkpt lat="35.98319818091351" lon="-107.04765495339502"><ele>2090.0</ele><time>2026-05-03T15:08:20Z</time></trkpt><trkpt lat="35.98324923308828" lon="-107.04776359370415"><ele>2090.0</ele><time>2026-05-03T15:08:21Z</time></trkpt><trkpt lat="35.983324263071914" lon="-107.04787655114707"><ele>2090.0</ele><time>2026-05-03T15:08:23Z</time></trkpt><trkpt lat="35.98339181773846" lon="-107.04798587204507"><ele>2090.0</ele><time>2026-05-03T15:08:24Z</time></trkpt><trkpt lat="35.98343759999899" lon="-107.04806783727503"><ele>2090.0</ele><time>2026-05-03T15:08:25Z</time></trkpt><trkpt lat="35.983495539165375" lon="-107.04814919924782"><ele>2090.0</ele><time>2026-05-03T15:08:26Z</time></trkpt><trkpt lat="35.98357021863364" lon="-107.04826428672492"><ele>2090.0</ele><time>2026-05-03T15:08:27Z</time></trkpt><trkpt lat="35.983635516891724" lon="-107.04835627288064"><ele>2089.833333333333</ele><time>2026-05-03T15:08:28Z</time></trkpt><trkpt lat="35.98368789587701" lon="-107.04842445459316"><ele>2089.6666666666665</ele><time>2026-05-03T15:08:29Z</time></trkpt><trkpt lat="35.98375204059721" lon="-107.04850536526509"><ele>2089.5</ele><time>2026-05-03T15:08:30Z</time></trkpt><trkpt lat="35.98382226095206" lon="-107.04859643531104"><ele>2089.3333333333335</ele><time>2026-05-03T15:08:31Z</time></trkpt><trkpt lat="35.983870249944516" lon="-107.04868385845165"><ele>2089.166666666667</ele><time>2026-05-03T15:08:32Z</time></trkpt><trkpt lat="35.98393225349634" lon="-107.04876827195656"><ele>2089.0</ele><time>2026-05-03T15:08:33Z</time></trkpt><trkpt lat="35.984004484246064" lon="-107.0488690617698"><ele>2089.0</ele><time>2026-05-03T15:08:34Z</time></trkpt><trkpt lat="35.98406885491793" lon="-107.04898140048027"><ele>2089.0</ele><time>2026-05-03T15:08:35Z</time></trkpt><trkpt lat="35.98414917182072" lon="-107.04911611854217"><ele>2089.0</ele><time>2026-05-03T15:08:36Z</time></trkpt><trkpt lat="35.98423876428033" lon="-107.04924568391152"><ele>2089.0</ele><time>2026-05-03T15:08:37Z</time></trkpt><trkpt lat="35.984340384524714" lon="-107.04938583422192"><ele>2090.0</ele><time>2026-05-03T15:08:38Z</time></trkpt><trkpt lat="35.98442866901188" lon="-107.04950456949942"><ele>2091.0</ele><time>2026-05-03T15:08:39Z</time></trkpt><trkpt lat="35.984506740839784" lon="-107.04963754892972"><ele>2092.0</ele><time>2026-05-03T15:08:40Z</time></trkpt><trkpt lat="35.98458351752551" lon="-107.04977087806533"><ele>2093.0</ele><time>2026-05-03T15:08:41Z</time></trkpt><trkpt lat="35.984670844738126" lon="-107.04991964053762"><ele>2093.5</ele><time>2026-05-03T15:08:42Z</time></trkpt><trkpt lat="35.98473717529379" lon="-107.05006244179384"><ele>2094.0</ele><time>2026-05-03T15:08:43Z</time></trkpt><trkpt lat="35.98481574676642" lon="-107.05020087884128"><ele>2094.5</ele><time>2026-05-03T15:08:44Z</time></trkpt><trkpt lat="35.98489381264031" lon="-107.05032618930625"><ele>2095.0</ele><time>2026-05-03T15:08:45Z</time></trkpt><trkpt lat="35.984983414688294" lon="-107.05046319263423"><ele>2094.25</ele><time>2026-05-03T15:08:46Z</time></trkpt><trkpt lat="35.985071074400736" lon="-107.05059114817739"><ele>2093.5</ele><time>2026-05-03T15:08:47Z</time></trkpt><trkpt lat="35.98515373818466" lon="-107.05071865530537"><ele>2092.75</ele><time>2026-05-03T15:08:48Z</time></trkpt><trkpt lat="35.985241522997164" lon="-107.05088121484455"><ele>2092.0</ele><time>2026-05-03T15:08:49Z</time></trkpt><trkpt lat="35.985319640084036" lon="-107.05103497512063"><ele>2092.0</ele><time>2026-05-03T15:08:50Z</time></trkpt><trkpt lat="35.98537734208452" lon="-107.0511884202553"><ele>2092.0</ele><time>2026-05-03T15:08:51Z</time></trkpt><trkpt lat="35.985398456058014" lon="-107.05133307958579"><ele>2092.0</ele><time>2026-05-03T15:08:52Z</time></trkpt><trkpt lat="35.985375294067985" lon="-107.05150564188381"><ele>2092.0</ele><time>2026-05-03T15:08:53Z</time></trkpt><trkpt lat="35.98536505724653" lon="-107.05168199615738"><ele>2092.0</ele><time>2026-05-03T15:08:54Z</time></trkpt><trkpt lat="35.985348125684844" lon="-107.05186955113719"><ele>2092.0</ele><time>2026-05-03T15:08:55Z</time></trkpt><trkpt lat="35.98531718125265" lon="-107.05206466664731"><ele>2092.0</ele><time>2026-05-03T15:08:56Z</time></trkpt><trkpt lat="35.98528603294859" lon="-107.05223287877106"><ele>2092.0</ele><time>2026-05-03T15:08:57Z</time></trkpt><trkpt lat="35.9852693214621" lon="-107.05239442549957"><ele>2092.0</ele><time>2026-05-03T15:08:58Z</time></trkpt><trkpt lat="35.98526748825824" lon="-107.05256995155915"><ele>2092.0</ele><time>2026-05-03T15:08:59Z</time></trkpt><trkpt lat="35.98530211404355" lon="-107.05272284942356"><ele>2092.0</ele><time>2026-05-03T15:09:00Z</time></trkpt><trkpt lat="35.985347435000044" lon="-107.05283595506212"><ele>2092.4</ele><time>2026-05-03T15:09:01Z</time></trkpt><trkpt lat="35.985411113587595" lon="-107.05288807002628"><ele>2092.7999999999997</ele><time>2026-05-03T15:09:03Z</time></trkpt><trkpt lat="35.98547469496937" lon="-107.05288635369065"><ele>2093.2</ele><time>2026-05-03T15:09:04Z</time></trkpt><trkpt lat="35.98557409556058" lon="-107.05285633095717"><ele>2093.6</ele><time>2026-05-03T15:09:05Z</time></trkpt><trkpt lat="35.9857028200409" lon="-107.0527658014751"><ele>2094.0</ele><time>2026-05-03T15:09:06Z</time></trkpt><trkpt lat="35.985842103881424" lon="-107.05267614238693"><ele>2094.0</ele><time>2026-05-03T15:09:07Z</time></trkpt><trkpt lat="35.98597219656412" lon="-107.05257882773627"><ele>2094.0</ele><time>2026-05-03T15:09:08Z</time></trkpt><trkpt lat="35.98607047068137" lon="-107.05250390118285"><ele>2094.0</ele><time>2026-05-03T15:09:09Z</time></trkpt><trkpt lat="35.98615117779946" lon="-107.05245847814263"><ele>2094.0</ele><time>2026-05-03T15:09:10Z</time></trkpt><trkpt lat="35.986238791595504" lon="-107.05242090486225"><ele>2094.0</ele><time>2026-05-03T15:09:11Z</time></trkpt><trkpt lat="35.986361936025595" lon="-107.05236119846137"><ele>2094.0</ele><time>2026-05-03T15:09:12Z</time></trkpt><trkpt lat="35.986510887726055" lon="-107.05226188498717"><ele>2094.0</ele><time>2026-05-03T15:09:13Z</time></trkpt><trkpt lat="35.98667320731713" lon="-107.05217733274034"><ele>2094.0</ele><time>2026-05-03T15:09:14Z</time></trkpt><trkpt lat="35.98683567843987" lon="-107.05212330905393"><ele>2093.6666666666665</ele><time>2026-05-03T15:09:15Z</time></trkpt><trkpt lat="35.98702700558203" lon="-107.05205281568223"><ele>2093.333333333333</ele><time>2026-05-03T15:09:16Z</time></trkpt><trkpt lat="35.987193435722695" lon="-107.05198699043274"><ele>2093.0</ele><time>2026-05-03T15:09:17Z</time></trkpt><trkpt lat="35.98737241653516" lon="-107.05193017013173"><ele>2093.25</ele><time>2026-05-03T15:09:18Z</time></trkpt><trkpt lat="35.987516028196936" lon="-107.05188129138021"><ele>2093.5</ele><time>2026-05-03T15:09:19Z</time></trkpt><trkpt lat="35.987647750077365" lon="-107.05183967507111"><ele>2093.75</ele><time>2026-05-03T15:09:20Z</time></trkpt><trkpt lat="35.98778479297121" lon="-107.05180935787959"><ele>2094.0</ele><time>2026-05-03T15:09:21Z</time></trkpt><trkpt lat="35.98792326849996" lon="-107.0517998376607"><ele>2094.0</ele><time>2026-05-03T15:09:22Z</time></trkpt><trkpt lat="35.98807432349904" lon="-107.05181015458025"><ele>2094.0</ele><time>2026-05-03T15:09:23Z</time></trkpt><trkpt lat="35.988221739733234" lon="-107.05186675406767"><ele>2094.0</ele><time>2026-05-03T15:09:24Z</time></trkpt><trkpt lat="35.98835202045933" lon="-107.05195670199215"><ele>2094.0</ele><time>2026-05-03T15:09:25Z</time></trkpt><trkpt lat="35.98840917196434" lon="-107.05208668226638"><ele>2094.0</ele><time>2026-05-03T15:09:26Z</time></trkpt><trkpt lat="35.988485340332076" lon="-107.05223333479854"><ele>2094.0</ele><time>2026-05-03T15:09:27Z</time></trkpt><trkpt lat="35.98855923605129" lon="-107.05236664317894"><ele>2094.0</ele><time>2026-05-03T15:09:28Z</time></trkpt><trkpt lat="35.988654160284256" lon="-107.05245676460443"><ele>2094.0</ele><time>2026-05-03T15:09:29Z</time></trkpt><trkpt lat="35.98876531900656" lon="-107.05254672323255"><ele>2094.0</ele><time>2026-05-03T15:09:30Z</time></trkpt><trkpt lat="35.98886775694418" lon="-107.05265402928323"><ele>2094.0</ele><time>2026-05-03T15:09:31Z</time></trkpt><trkpt lat="35.988941652886204" lon="-107.05278202959273"><ele>2094.0</ele><time>2026-05-03T15:09:32Z</time></trkpt><trkpt lat="35.98899797017421" lon="-107.05293856861266"><ele>2094.0</ele><time>2026-05-03T15:09:33Z</time></trkpt><trkpt lat="35.989047732024304" lon="-107.05306017629697"><ele>2094.0</ele><time>2026-05-03T15:09:34Z</time></trkpt><trkpt lat="35.9890913376434" lon="-107.05316091761189"><ele>2094.0</ele><time>2026-05-03T15:09:35Z</time></trkpt><trkpt lat="35.98914495860928" lon="-107.05325263383514"><ele>2094.0</ele><time>2026-05-03T15:09:36Z</time></trkpt><trkpt lat="35.989201201393655" lon="-107.05334076148205"><ele>2094.0</ele><time>2026-05-03T15:09:37Z</time></trkpt><trkpt lat="35.98924336438939" lon="-107.05348147562233"><ele>2094.4</ele><time>2026-05-03T15:09:38Z</time></trkpt><trkpt lat="35.98928950094185" lon="-107.05360094813106"><ele>2094.8</ele><time>2026-05-03T15:09:39Z</time></trkpt><trkpt lat="35.989321924638816" lon="-107.05370289765673"><ele>2095.2</ele><time>2026-05-03T15:09:40Z</time></trkpt><trkpt lat="35.989357683549336" lon="-107.05380932777952"><ele>2095.6</ele><time>2026-05-03T15:09:41.001Z</time></trkpt><trkpt lat="35.989395009185586" lon="-107.0539245266925"><ele>2096.0</ele><time>2026-05-03T15:09:42.001Z</time></trkpt><trkpt lat="35.989422920547746" lon="-107.05402742570838"><ele>2096.0</ele><time>2026-05-03T15:09:43.001Z</time></trkpt><trkpt lat="35.98943635092902" lon="-107.05411154380897"><ele>2096.0</ele><time>2026-05-03T15:09:44.001Z</time></trkpt><trkpt lat="35.98946524446792" lon="-107.05423111468565"><ele>2096.0</ele><time>2026-05-03T15:09:46.001Z</time></trkpt><trkpt lat="35.9894940565897" lon="-107.05442782857818"><ele>2096.0</ele><time>2026-05-03T15:09:48.001Z</time></trkpt><trkpt lat="35.989531000137646" lon="-107.05455055614314"><ele>2096.0</ele><time>2026-05-03T15:09:49.001Z</time></trkpt><trkpt lat="35.98956553378158" lon="-107.05468831081679"><ele>2096.2</ele><time>2026-05-03T15:09:50.001Z</time></trkpt><trkpt lat="35.98959677500741" lon="-107.05482491960213"><ele>2096.3999999999996</ele><time>2026-05-03T15:09:51.001Z</time></trkpt><trkpt lat="35.989613251143865" lon="-107.05491909446935"><ele>2096.6</ele><time>2026-05-03T15:09:52.001Z</time></trkpt><trkpt lat="35.98963635002641" lon="-107.05502332318414"><ele>2096.7999999999997</ele><time>2026-05-03T15:09:53.001Z</time></trkpt><trkpt lat="35.98968011054763" lon="-107.0551678553535"><ele>2097.0</ele><time>2026-05-03T15:09:54.001Z</time></trkpt><trkpt lat="35.98972479763017" lon="-107.0552929831144"><ele>2097.7999999999997</ele><time>2026-05-03T15:09:55.001Z</time></trkpt><trkpt lat="35.989758117387034" lon="-107.0553713160058"><ele>2098.6</ele><time>2026-05-03T15:09:56.001Z</time></trkpt><trkpt lat="35.98979822538482" lon="-107.055470052845"><ele>2099.3999999999996</ele><time>2026-05-03T15:09:57.001Z</time></trkpt><trkpt lat="35.989833971671686" lon="-107.05559278304229"><ele>2100.2</ele><time>2026-05-03T15:09:58.001Z</time></trkpt><trkpt lat="35.98982604395472" lon="-107.05570815591068"><ele>2101.0</ele><time>2026-05-03T15:09:59.001Z</time></trkpt><trkpt lat="35.98979367762348" lon="-107.05584150324523"><ele>2101.5</ele><time>2026-05-03T15:10:00.001Z</time></trkpt><trkpt lat="35.98975710972117" lon="-107.05594516163396"><ele>2102.0</ele><time>2026-05-03T15:10:01.001Z</time></trkpt><trkpt lat="35.98972469673223" lon="-107.05602380624846"><ele>2102.5</ele><time>2026-05-03T15:10:03.001Z</time></trkpt><trkpt lat="35.98965567208614" lon="-107.05614835545283"><ele>2103.0</ele><time>2026-05-03T15:10:05.001Z</time></trkpt><trkpt lat="35.989596976096855" lon="-107.05620129860188"><ele>2103.5</ele><time>2026-05-03T15:10:06.001Z</time></trkpt><trkpt lat="35.989535233603" lon="-107.05624123572628"><ele>2104.0</ele><time>2026-05-03T15:10:07.001Z</time></trkpt><trkpt lat="35.989472662302894" lon="-107.05626431482241"><ele>2104.0</ele><time>2026-05-03T15:10:08.001Z</time></trkpt><trkpt lat="35.98939552215881" lon="-107.05629419525897"><ele>2104.0</ele><time>2026-05-03T15:10:09.001Z</time></trkpt><trkpt lat="35.98930756690919" lon="-107.05633341932496"><ele>2104.0</ele><time>2026-05-03T15:10:10Z</time></trkpt><trkpt lat="35.98922479538331" lon="-107.05637460639721"><ele>2104.0</ele><time>2026-05-03T15:10:11Z</time></trkpt><trkpt lat="35.989140995197815" lon="-107.05638949307551"><ele>2104.0</ele><time>2026-05-03T15:10:12Z</time></trkpt><trkpt lat="35.989062635688924" lon="-107.05640349505973"><ele>2104.0</ele><time>2026-05-03T15:10:13Z</time></trkpt><trkpt lat="35.988973392485505" lon="-107.05649674715346"><ele>2105.6</ele><time>2026-05-03T15:10:15Z</time></trkpt><trkpt lat="35.98890928167573" lon="-107.05657222422707"><ele>2107.2</ele><time>2026-05-03T15:10:16Z</time></trkpt><trkpt lat="35.988788033458526" lon="-107.05659410901667"><ele>2108.7999999999997</ele><time>2026-05-03T15:10:18Z</time></trkpt><trkpt lat="35.98871736170948" lon="-107.05663593073942"><ele>2110.4</ele><time>2026-05-03T15:10:19Z</time></trkpt><trkpt lat="35.98863821515169" lon="-107.05668993619108"><ele>2112.0</ele><time>2026-05-03T15:10:20Z</time></trkpt><trkpt lat="35.988562587712536" lon="-107.05676489648145"><ele>2112.0</ele><time>2026-05-03T15:10:21Z</time></trkpt><trkpt lat="35.9884650561443" lon="-107.05688795649856"><ele>2112.0</ele><time>2026-05-03T15:10:22Z</time></trkpt><trkpt lat="35.98836488256926" lon="-107.05698625552598"><ele>2112.0</ele><time>2026-05-03T15:10:22.999Z</time></trkpt><trkpt lat="35.98828179422393" lon="-107.05705827672553"><ele>2112.0</ele><time>2026-05-03T15:10:23.999Z</time></trkpt><trkpt lat="35.988189004512336" lon="-107.0571378173977"><ele>2112.6</ele><time>2026-05-03T15:10:24.999Z</time></trkpt><trkpt lat="35.98812487747248" lon="-107.05719358047256"><ele>2113.2</ele><time>2026-05-03T15:10:25.999Z</time></trkpt><trkpt lat="35.98804907591713" lon="-107.05725619694611"><ele>2113.8</ele><time>2026-05-03T15:10:26.999Z</time></trkpt><trkpt lat="35.9879792677268" lon="-107.05724839256156"><ele>2114.4</ele><time>2026-05-03T15:10:27.999Z</time></trkpt><trkpt lat="35.98787297332475" lon="-107.0572412392284"><ele>2115.0</ele><time>2026-05-03T15:10:28.999Z</time></trkpt><trkpt lat="35.987731278786676" lon="-107.05727241032784"><ele>2115.0</ele><time>2026-05-03T15:10:29.999Z</time></trkpt><trkpt lat="35.987601542506674" lon="-107.05732237451106"><ele>2115.0</ele><time>2026-05-03T15:10:30.999Z</time></trkpt><trkpt lat="35.987477166687114" lon="-107.05737175330499"><ele>2115.0</ele><time>2026-05-03T15:10:31.999Z</time></trkpt><trkpt lat="35.98737254141955" lon="-107.057429266399"><ele>2115.0</ele><time>2026-05-03T15:10:32.999Z</time></trkpt><trkpt lat="35.987278926087086" lon="-107.05750691359441"><ele>2116.5</ele><time>2026-05-03T15:10:33.999Z</time></trkpt><trkpt lat="35.98719626498707" lon="-107.05762613598098"><ele>2118.0</ele><time>2026-05-03T15:10:34.999Z</time></trkpt><trkpt lat="35.98711066081833" lon="-107.05779871808038"><ele>2119.5</ele><time>2026-05-03T15:10:35.999Z</time></trkpt><trkpt lat="35.98703171509907" lon="-107.05795049205757"><ele>2121.0</ele><time>2026-05-03T15:10:36.999Z</time></trkpt><trkpt lat="35.98697424538444" lon="-107.05805502484128"><ele>2121.0</ele><time>2026-05-03T15:10:37.999Z</time></trkpt><trkpt lat="35.986890905190094" lon="-107.05818932740173"><ele>2121.0</ele><time>2026-05-03T15:10:38.999Z</time></trkpt><trkpt lat="35.98680526294178" lon="-107.05831835156305"><ele>2121.0</ele><time>2026-05-03T15:10:39.999Z</time></trkpt><trkpt lat="35.986717339206066" lon="-107.05842841588264"><ele>2121.0</ele><time>2026-05-03T15:10:40.999Z</time></trkpt><trkpt lat="35.986620556257755" lon="-107.0585160799017"><ele>2122.0</ele><time>2026-05-03T15:10:41.999Z</time></trkpt><trkpt lat="35.98650129777884" lon="-107.05859940360574"><ele>2123.0</ele><time>2026-05-03T15:10:42.999Z</time></trkpt><trkpt lat="35.986370037803546" lon="-107.05869845094055"><ele>2124.0</ele><time>2026-05-03T15:10:43.999Z</time></trkpt><trkpt lat="35.98624624048423" lon="-107.05881544376884"><ele>2125.0</ele><time>2026-05-03T15:10:44.999Z</time></trkpt><trkpt lat="35.98616078220624" lon="-107.0589229366901"><ele>2125.0</ele><time>2026-05-03T15:10:45.999Z</time></trkpt><trkpt lat="35.98608569267695" lon="-107.05901808408643"><ele>2125.0</ele><time>2026-05-03T15:10:46.999Z</time></trkpt><trkpt lat="35.985954797772564" lon="-107.05905695795025"><ele>2125.0</ele><time>2026-05-03T15:10:47.999Z</time></trkpt><trkpt lat="35.98579165726958" lon="-107.05909676409641"><ele>2125.0</ele><time>2026-05-03T15:10:48.999Z</time></trkpt><trkpt lat="35.98564341417724" lon="-107.05914759376253"><ele>2125.4</ele><time>2026-05-03T15:10:49.999Z</time></trkpt><trkpt lat="35.985563400946376" lon="-107.05920795687845"><ele>2125.8</ele><time>2026-05-03T15:10:50.999Z</time></trkpt><trkpt lat="35.98549744711999" lon="-107.05929916018893"><ele>2126.2</ele><time>2026-05-03T15:10:51.999Z</time></trkpt><trkpt lat="35.98540989392546" lon="-107.05939327930199"><ele>2126.6</ele><time>2026-05-03T15:10:52.999Z</time></trkpt><trkpt lat="35.98531423096181" lon="-107.05942469912809"><ele>2127.0</ele><time>2026-05-03T15:10:53.999Z</time></trkpt><trkpt lat="35.98518507183356" lon="-107.0594529531088"><ele>2127.0</ele><time>2026-05-03T15:10:54.999Z</time></trkpt><trkpt lat="35.98507245111158" lon="-107.05952874820919"><ele>2127.0</ele><time>2026-05-03T15:10:55.999Z</time></trkpt><trkpt lat="35.984980077404195" lon="-107.05962419350166"><ele>2127.0</ele><time>2026-05-03T15:10:56.999Z</time></trkpt><trkpt lat="35.98490478166295" lon="-107.0596840739063"><ele>2127.0</ele><time>2026-05-03T15:10:57.999Z</time></trkpt><trkpt lat="35.984787378511825" lon="-107.05970599072894"><ele>2127.6</ele><time>2026-05-03T15:10:58.999Z</time></trkpt><trkpt lat="35.98466729170787" lon="-107.05971199935622"><ele>2128.2</ele><time>2026-05-03T15:10:59.999Z</time></trkpt><trkpt lat="35.98458417013179" lon="-107.05972584258107"><ele>2128.8</ele><time>2026-05-03T15:11:00.999Z</time></trkpt><trkpt lat="35.9845034224125" lon="-107.05975631201379"><ele>2129.4</ele><time>2026-05-03T15:11:01.999Z</time></trkpt><trkpt lat="35.98443226121267" lon="-107.05983378675687"><ele>2130.0</ele><time>2026-05-03T15:11:02.999Z</time></trkpt><trkpt lat="35.984383673288605" lon="-107.06004167059699"><ele>2130.0</ele><time>2026-05-03T15:11:03.999Z</time></trkpt><trkpt lat="35.98434804915102" lon="-107.06022203760669"><ele>2130.0</ele><time>2026-05-03T15:11:04.999Z</time></trkpt><trkpt lat="35.98435360640686" lon="-107.06038896483143"><ele>2130.0</ele><time>2026-05-03T15:11:05.999Z</time></trkpt><trkpt lat="35.98439791076145" lon="-107.06052703459633"><ele>2130.0</ele><time>2026-05-03T15:11:06.999Z</time></trkpt><trkpt lat="35.98438996488356" lon="-107.06073097456664"><ele>2129.3333333333335</ele><time>2026-05-03T15:11:07.999Z</time></trkpt><trkpt lat="35.98439626916339" lon="-107.0609702979123"><ele>2128.666666666667</ele><time>2026-05-03T15:11:08.999Z</time></trkpt><trkpt lat="35.98440787721639" lon="-107.06118326354446"><ele>2128.0</ele><time>2026-05-03T15:11:09.999Z</time></trkpt><trkpt lat="35.984413592489815" lon="-107.0613723244231"><ele>2128.0</ele><time>2026-05-03T15:11:10.999Z</time></trkpt><trkpt lat="35.98443361853326" lon="-107.06154137348611"><ele>2128.0</ele><time>2026-05-03T15:11:11.999Z</time></trkpt><trkpt lat="35.98444237306437" lon="-107.06173585406455"><ele>2128.0</ele><time>2026-05-03T15:11:12.999Z</time></trkpt><trkpt lat="35.984441414771496" lon="-107.06193174991026"><ele>2127.3333333333335</ele><time>2026-05-03T15:11:13.999Z</time></trkpt><trkpt lat="35.98445434276762" lon="-107.06212093448814"><ele>2126.6666666666665</ele><time>2026-05-03T15:11:14.999Z</time></trkpt><trkpt lat="35.9844602472769" lon="-107.06232754728774"><ele>2126.0</ele><time>2026-05-03T15:11:15.999Z</time></trkpt><trkpt lat="35.98445574212107" lon="-107.06252263155224"><ele>2125.25</ele><time>2026-05-03T15:11:16.999Z</time></trkpt><trkpt lat="35.98445259195918" lon="-107.06269110285145"><ele>2124.5</ele><time>2026-05-03T15:11:17.999Z</time></trkpt><trkpt lat="35.984464649252224" lon="-107.06284418783143"><ele>2123.75</ele><time>2026-05-03T15:11:18.999Z</time></trkpt><trkpt lat="35.98447850988125" lon="-107.06299696172158"><ele>2123.0</ele><time>2026-05-03T15:11:19.999Z</time></trkpt><trkpt lat="35.98448783817373" lon="-107.06314314805522"><ele>2123.0</ele><time>2026-05-03T15:11:20.999Z</time></trkpt><trkpt lat="35.98450247339714" lon="-107.06326064551715"><ele>2123.0</ele><time>2026-05-03T15:11:21.999Z</time></trkpt><trkpt lat="35.984512615041595" lon="-107.06340360781874"><ele>2123.0</ele><time>2026-05-03T15:11:22.999Z</time></trkpt><trkpt lat="35.984514223769594" lon="-107.06362287200096"><ele>2123.0</ele><time>2026-05-03T15:11:23.999Z</time></trkpt><trkpt lat="35.98450760457215" lon="-107.06386673950377"><ele>2123.333333333333</ele><time>2026-05-03T15:11:24.999Z</time></trkpt><trkpt lat="35.98451906570921" lon="-107.06411690094218"><ele>2123.6666666666665</ele><time>2026-05-03T15:11:25.999Z</time></trkpt><trkpt lat="35.98453082540481" lon="-107.06432256755164"><ele>2124.0</ele><time>2026-05-03T15:11:26.999Z</time></trkpt><trkpt lat="35.984546545841376" lon="-107.06452080828093"><ele>2124.0</ele><time>2026-05-03T15:11:27.999Z</time></trkpt><trkpt lat="35.98455529734547" lon="-107.06471433381779"><ele>2124.0</ele><time>2026-05-03T15:11:28.999Z</time></trkpt><trkpt lat="35.98456105906089" lon="-107.06490124871712"><ele>2124.0</ele><time>2026-05-03T15:11:29.999Z</time></trkpt><trkpt lat="35.98457231043123" lon="-107.06509502621913"><ele>2123.6666666666665</ele><time>2026-05-03T15:11:30.999Z</time></trkpt><trkpt lat="35.984582434405816" lon="-107.06527996868493"><ele>2123.333333333333</ele><time>2026-05-03T15:11:31.999Z</time></trkpt><trkpt lat="35.984582530680214" lon="-107.06545952235552"><ele>2123.0</ele><time>2026-05-03T15:11:32.999Z</time></trkpt><trkpt lat="35.98457915331099" lon="-107.0656612531421"><ele>2123.333333333333</ele><time>2026-05-03T15:11:33.999Z</time></trkpt><trkpt lat="35.98459483656196" lon="-107.06588137277343"><ele>2123.6666666666665</ele><time>2026-05-03T15:11:34.999Z</time></trkpt><trkpt lat="35.984613707604" lon="-107.06611390227539"><ele>2124.0</ele><time>2026-05-03T15:11:35.999Z</time></trkpt><trkpt lat="35.9846204180356" lon="-107.06631817880633"><ele>2124.0</ele><time>2026-05-03T15:11:36.999Z</time></trkpt><trkpt lat="35.984627639014406" lon="-107.06649731645996"><ele>2124.0</ele><time>2026-05-03T15:11:37.999Z</time></trkpt><trkpt lat="35.98462219301092" lon="-107.06667237270797"><ele>2124.0</ele><time>2026-05-03T15:11:38.999Z</time></trkpt><trkpt lat="35.984644474014196" lon="-107.06680255406235"><ele>2124.0</ele><time>2026-05-03T15:11:39.999Z</time></trkpt><trkpt lat="35.98466235150261" lon="-107.06690397717712"><ele>2124.5</ele><time>2026-05-03T15:11:40.999Z</time></trkpt><trkpt lat="35.984683134284474" lon="-107.06703344490967"><ele>2125.0</ele><time>2026-05-03T15:11:41.999Z</time></trkpt><trkpt lat="35.98467668849841" lon="-107.06718134932169"><ele>2125.5</ele><time>2026-05-03T15:11:42.999Z</time></trkpt><trkpt lat="35.98466719443782" lon="-107.0673417028662"><ele>2126.0</ele><time>2026-05-03T15:11:43.999Z</time></trkpt><trkpt lat="35.98466325254621" lon="-107.06751119632158"><ele>2126.25</ele><time>2026-05-03T15:11:44.999Z</time></trkpt><trkpt lat="35.98465036853958" lon="-107.06765674877691"><ele>2126.5</ele><time>2026-05-03T15:11:45.999Z</time></trkpt><trkpt lat="35.98466719104437" lon="-107.06779432304413"><ele>2126.75</ele><time>2026-05-03T15:11:47Z</time></trkpt><trkpt lat="35.98469129320665" lon="-107.06793120374621"><ele>2127.0</ele><time>2026-05-03T15:11:48Z</time></trkpt><trkpt lat="35.98471416948858" lon="-107.0680662046694"><ele>2127.0</ele><time>2026-05-03T15:11:49Z</time></trkpt><trkpt lat="35.984706858661674" lon="-107.06819399308989"><ele>2127.0</ele><time>2026-05-03T15:11:50Z</time></trkpt><trkpt lat="35.98471542639386" lon="-107.06830754931154"><ele>2127.0</ele><time>2026-05-03T15:11:51Z</time></trkpt><trkpt lat="35.9847147613679" lon="-107.06843569794465"><ele>2127.0</ele><time>2026-05-03T15:11:52Z</time></trkpt><trkpt lat="35.984714644990106" lon="-107.0685619177851"><ele>2127.0</ele><time>2026-05-03T15:11:53Z</time></trkpt><trkpt lat="35.98472519655256" lon="-107.06865810755492"><ele>2127.4</ele><time>2026-05-03T15:11:54Z</time></trkpt><trkpt lat="35.98479237773163" lon="-107.06872896247192"><ele>2127.7999999999997</ele><time>2026-05-03T15:11:56Z</time></trkpt><trkpt lat="35.98488478527892" lon="-107.06875864528493"><ele>2128.2</ele><time>2026-05-03T15:11:57Z</time></trkpt><trkpt lat="35.9849885229617" lon="-107.06879239829381"><ele>2128.6</ele><time>2026-05-03T15:11:58Z</time></trkpt><trkpt lat="35.985105342357464" lon="-107.06880810396936"><ele>2129.0</ele><time>2026-05-03T15:11:59Z</time></trkpt><trkpt lat="35.98519632072006" lon="-107.06883941275005"><ele>2129.1666666666665</ele><time>2026-05-03T15:12:00Z</time></trkpt><trkpt lat="35.98527258226392" lon="-107.06888360090213"><ele>2129.333333333333</ele><time>2026-05-03T15:12:01Z</time></trkpt><trkpt lat="35.98531267197064" lon="-107.06895524764089"><ele>2129.5</ele><time>2026-05-03T15:12:02Z</time></trkpt><trkpt lat="35.98533784056097" lon="-107.0690464234993"><ele>2129.6666666666665</ele><time>2026-05-03T15:12:03Z</time></trkpt><trkpt lat="35.985365195523094" lon="-107.06918285641264"><ele>2129.8333333333335</ele><time>2026-05-03T15:12:05Z</time></trkpt><trkpt lat="35.98541802478851" lon="-107.06927117992056"><ele>2130.0</ele><time>2026-05-03T15:12:06Z</time></trkpt><trkpt lat="35.98548578594019" lon="-107.0693322788677"><ele>2130.4</ele><time>2026-05-03T15:12:07Z</time></trkpt><trkpt lat="35.98553725857219" lon="-107.06939836705763"><ele>2130.8</ele><time>2026-05-03T15:12:08Z</time></trkpt><trkpt lat="35.9855348800997" lon="-107.06949645824707"><ele>2131.2</ele><time>2026-05-03T15:12:09Z</time></trkpt><trkpt lat="35.98554355296765" lon="-107.06960160972586"><ele>2131.6</ele><time>2026-05-03T15:12:10Z</time></trkpt><trkpt lat="35.98566008607924" lon="-107.06968095257241"><ele>2132.0</ele><time>2026-05-03T15:12:12Z</time></trkpt><trkpt lat="35.985761727974044" lon="-107.0696998607298"><ele>2131.333333333333</ele><time>2026-05-03T15:12:13Z</time></trkpt><trkpt lat="35.98586595149999" lon="-107.06975214209045"><ele>2130.6666666666665</ele><time>2026-05-03T15:12:14Z</time></trkpt><trkpt lat="35.98593881328578" lon="-107.06982104048825"><ele>2130.0</ele><time>2026-05-03T15:12:15Z</time></trkpt><trkpt lat="35.9859979556926" lon="-107.06985713818507"><ele>2129.3333333333335</ele><time>2026-05-03T15:12:16Z</time></trkpt><trkpt lat="35.98608048581885" lon="-107.06989189266784"><ele>2128.666666666667</ele><time>2026-05-03T15:12:17Z</time></trkpt><trkpt lat="35.98614069302462" lon="-107.0699458266121"><ele>2128.0</ele><time>2026-05-03T15:12:18Z</time></trkpt><trkpt lat="35.98614416041764" lon="-107.07003904378219"><ele>2128.0</ele><time>2026-05-03T15:12:19Z</time></trkpt><trkpt lat="35.986127948579046" lon="-107.07013759659628"><ele>2128.0</ele><time>2026-05-03T15:12:20Z</time></trkpt><trkpt lat="35.986123132590606" lon="-107.0702581128478"><ele>2128.0</ele><time>2026-05-03T15:12:21Z</time></trkpt><trkpt lat="35.986148351429875" lon="-107.07035859014243"><ele>2128.0</ele><time>2026-05-03T15:12:22Z</time></trkpt><trkpt lat="35.986218956875945" lon="-107.07040633074631"><ele>2128.0</ele><time>2026-05-03T15:12:23Z</time></trkpt><trkpt lat="35.98636919017056" lon="-107.07043333843411"><ele>2128.0</ele><time>2026-05-03T15:12:24Z</time></trkpt><trkpt lat="35.986519747156535" lon="-107.07044810270628"><ele>2128.0</ele><time>2026-05-03T15:12:25Z</time></trkpt><trkpt lat="35.98660873054993" lon="-107.07047171921973"><ele>2128.0</ele><time>2026-05-03T15:12:26Z</time></trkpt><trkpt lat="35.98669784584227" lon="-107.07049588849776"><ele>2128.0</ele><time>2026-05-03T15:12:27Z</time></trkpt><trkpt lat="35.98680308605409" lon="-107.0705019661664"><ele>2128.0</ele><time>2026-05-03T15:12:28Z</time></trkpt><trkpt lat="35.986900737568284" lon="-107.07051653566984"><ele>2127.2000000000003</ele><time>2026-05-03T15:12:29Z</time></trkpt><trkpt lat="35.98698475521574" lon="-107.07061613828925"><ele>2126.4</ele><time>2026-05-03T15:12:31Z</time></trkpt><trkpt lat="35.98703582103891" lon="-107.07067109563386"><ele>2125.6000000000004</ele><time>2026-05-03T15:12:32Z</time></trkpt><trkpt lat="35.98710868764416" lon="-107.07061085582205"><ele>2124.8</ele><time>2026-05-03T15:12:33Z</time></trkpt><trkpt lat="35.987174357064156" lon="-107.07050639121739"><ele>2124.0</ele><time>2026-05-03T15:12:34Z</time></trkpt><trkpt lat="35.98723907441031" lon="-107.07045106233107"><ele>2124.0</ele><time>2026-05-03T15:12:35Z</time></trkpt><trkpt lat="35.987333208032275" lon="-107.07056164537927"><ele>2124.0</ele><time>2026-05-03T15:12:37Z</time></trkpt><trkpt lat="35.98742734873839" lon="-107.070652428244"><ele>2124.0</ele><time>2026-05-03T15:12:38Z</time></trkpt><trkpt lat="35.98750656519732" lon="-107.07070409074193"><ele>2124.0</ele><time>2026-05-03T15:12:39Z</time></trkpt><trkpt lat="35.98758271991433" lon="-107.07071195970063"><ele>2124.0</ele><time>2026-05-03T15:12:41Z</time></trkpt><trkpt lat="35.98764636829271" lon="-107.07067326595087"><ele>2123.2</ele><time>2026-05-03T15:12:42Z</time></trkpt><trkpt lat="35.987713820096616" lon="-107.07059616961055"><ele>2122.4</ele><time>2026-05-03T15:12:43Z</time></trkpt><trkpt lat="35.987793854988226" lon="-107.0705487007224"><ele>2121.6</ele><time>2026-05-03T15:12:44Z</time></trkpt><trkpt lat="35.987887886263266" lon="-107.0705634650884"><ele>2120.8</ele><time>2026-05-03T15:12:45Z</time></trkpt><trkpt lat="35.987962369601064" lon="-107.07059190640778"><ele>2120.0</ele><time>2026-05-03T15:12:46Z</time></trkpt><trkpt lat="35.988062887839774" lon="-107.07068072054385"><ele>2120.8</ele><time>2026-05-03T15:12:48Z</time></trkpt><trkpt lat="35.988105086199205" lon="-107.07081249710946"><ele>2121.6</ele><time>2026-05-03T15:12:49Z</time></trkpt><trkpt lat="35.98814851365834" lon="-107.07093001394296"><ele>2122.4</ele><time>2026-05-03T15:12:50Z</time></trkpt><trkpt lat="35.988220747284444" lon="-107.07099768528288"><ele>2123.2</ele><time>2026-05-03T15:12:51Z</time></trkpt><trkpt lat="35.98821818381016" lon="-107.07113084304348"><ele>2124.0</ele><time>2026-05-03T15:12:53Z</time></trkpt><trkpt lat="35.98817144361132" lon="-107.07123688702217"><ele>2124.0</ele><time>2026-05-03T15:12:54Z</time></trkpt><trkpt lat="35.98811592921984" lon="-107.07133972637286"><ele>2124.0</ele><time>2026-05-03T15:12:55Z</time></trkpt><trkpt lat="35.988109627410154" lon="-107.07144312811738"><ele>2124.0</ele><time>2026-05-03T15:12:56.999Z</time></trkpt><trkpt lat="35.98807958089225" lon="-107.0715295659907"><ele>2124.0</ele><time>2026-05-03T15:12:57.999Z</time></trkpt><trkpt lat="35.98803915358129" lon="-107.07162124236338"><ele>2124.0</ele><time>2026-05-03T15:12:58.999Z</time></trkpt><trkpt lat="35.988008255826394" lon="-107.07173263306636"><ele>2124.0</ele><time>2026-05-03T15:13:00.999Z</time></trkpt><trkpt lat="35.98808785285191" lon="-107.07183855545036"><ele>2123.75</ele><time>2026-05-03T15:13:02.999Z</time></trkpt><trkpt lat="35.98819651881349" lon="-107.07189494663336"><ele>2123.5</ele><time>2026-05-03T15:13:03.999Z</time></trkpt><trkpt lat="35.98834866883279" lon="-107.07195474714993"><ele>2123.25</ele><time>2026-05-03T15:13:04.999Z</time></trkpt><trkpt lat="35.98848363664957" lon="-107.072034852104"><ele>2123.0</ele><time>2026-05-03T15:13:05.999Z</time></trkpt><trkpt lat="35.98859968349125" lon="-107.0721073757622"><ele>2123.0</ele><time>2026-05-03T15:13:06.999Z</time></trkpt><trkpt lat="35.988719937428066" lon="-107.07217252323356"><ele>2123.0</ele><time>2026-05-03T15:13:07.999Z</time></trkpt><trkpt lat="35.988871887887136" lon="-107.07224020526067"><ele>2123.0</ele><time>2026-05-03T15:13:08.999Z</time></trkpt><trkpt lat="35.98900357690022" lon="-107.07229998698278"><ele>2123.0</ele><time>2026-05-03T15:13:09.999Z</time></trkpt><trkpt lat="35.989083985062805" lon="-107.07239250079624"><ele>2123.25</ele><time>2026-05-03T15:13:10.999Z</time></trkpt><trkpt lat="35.98920445285794" lon="-107.0725048279742"><ele>2123.5</ele><time>2026-05-03T15:13:11.999Z</time></trkpt><trkpt lat="35.989329327186276" lon="-107.07256913703158"><ele>2123.75</ele><time>2026-05-03T15:13:12.999Z</time></trkpt><trkpt lat="35.98944512090008" lon="-107.07260690909007"><ele>2124.0</ele><time>2026-05-03T15:13:13.999Z</time></trkpt><trkpt lat="35.989553042201585" lon="-107.07265010180517"><ele>2124.0</ele><time>2026-05-03T15:13:14.999Z</time></trkpt><trkpt lat="35.98965091564484" lon="-107.07269735687494"><ele>2124.0</ele><time>2026-05-03T15:13:15.999Z</time></trkpt><trkpt lat="35.98979426492533" lon="-107.07278061565155"><ele>2124.0</ele><time>2026-05-03T15:13:16.999Z</time></trkpt><trkpt lat="35.989952210624125" lon="-107.07286645496536"><ele>2124.0</ele><time>2026-05-03T15:13:17.999Z</time></trkpt><trkpt lat="35.990097595690344" lon="-107.07293946551852"><ele>2124.3333333333335</ele><time>2026-05-03T15:13:18.999Z</time></trkpt><trkpt lat="35.990237024712016" lon="-107.07303111680945"><ele>2124.666666666667</ele><time>2026-05-03T15:13:19.999Z</time></trkpt><trkpt lat="35.99037448741295" lon="-107.07313568779868"><ele>2125.0</ele><time>2026-05-03T15:13:20.999Z</time></trkpt><trkpt lat="35.99050609844122" lon="-107.07322083055239"><ele>2126.0</ele><time>2026-05-03T15:13:21.999Z</time></trkpt><trkpt lat="35.99062871359319" lon="-107.07329016178413"><ele>2127.0</ele><time>2026-05-03T15:13:22.999Z</time></trkpt><trkpt lat="35.99075739070276" lon="-107.07335658971157"><ele>2128.0</ele><time>2026-05-03T15:13:23.999Z</time></trkpt><trkpt lat="35.99083945320364" lon="-107.07341562087011"><ele>2129.0</ele><time>2026-05-03T15:13:24.999Z</time></trkpt><trkpt lat="35.990938379291244" lon="-107.07347956223126"><ele>2131.6666666666665</ele><time>2026-05-03T15:13:25.999Z</time></trkpt><trkpt lat="35.99108819970479" lon="-107.07353283646854"><ele>2134.3333333333335</ele><time>2026-05-03T15:13:26.999Z</time></trkpt><trkpt lat="35.9912593915785" lon="-107.0736168681717"><ele>2137.0</ele><time>2026-05-03T15:13:27.999Z</time></trkpt><trkpt lat="35.991417185523396" lon="-107.07369652261177"><ele>2137.0</ele><time>2026-05-03T15:13:28.999Z</time></trkpt><trkpt lat="35.99153774300805" lon="-107.07378440722509"><ele>2137.0</ele><time>2026-05-03T15:13:29.999Z</time></trkpt><trkpt lat="35.99161940710995" lon="-107.07387406064767"><ele>2137.0</ele><time>2026-05-03T15:13:30.999Z</time></trkpt><trkpt lat="35.991668538195256" lon="-107.07397717929068"><ele>2137.0</ele><time>2026-05-03T15:13:31.999Z</time></trkpt><trkpt lat="35.99169425366451" lon="-107.07413505284022"><ele>2136.0</ele><time>2026-05-03T15:13:32.999Z</time></trkpt><trkpt lat="35.99170333287982" lon="-107.07432613645807"><ele>2135.0</ele><time>2026-05-03T15:13:33.999Z</time></trkpt><trkpt lat="35.991734966689705" lon="-107.07453155087384"><ele>2134.0</ele><time>2026-05-03T15:13:34.999Z</time></trkpt><trkpt lat="35.99179004756506" lon="-107.07470100801022"><ele>2134.0</ele><time>2026-05-03T15:13:35.999Z</time></trkpt><trkpt lat="35.99188994816244" lon="-107.07489833946171"><ele>2134.0</ele><time>2026-05-03T15:13:36.999Z</time></trkpt><trkpt lat="35.991972936363375" lon="-107.07507279632046"><ele>2134.0</ele><time>2026-05-03T15:13:37.999Z</time></trkpt><trkpt lat="35.99208566316306" lon="-107.07520621639424"><ele>2132.666666666667</ele><time>2026-05-03T15:13:38.999Z</time></trkpt><trkpt lat="35.992231737370766" lon="-107.0753494507133"><ele>2131.3333333333335</ele><time>2026-05-03T15:13:39.999Z</time></trkpt><trkpt lat="35.992390846425714" lon="-107.07552197012544"><ele>2130.0</ele><time>2026-05-03T15:13:40.999Z</time></trkpt><trkpt lat="35.992521648346795" lon="-107.0756834098015"><ele>2128.8</ele><time>2026-05-03T15:13:41.999Z</time></trkpt><trkpt lat="35.9926101589206" lon="-107.07579110722385"><ele>2127.6</ele><time>2026-05-03T15:13:42.999Z</time></trkpt><trkpt lat="35.99267374944371" lon="-107.07586582236421"><ele>2126.4</ele><time>2026-05-03T15:13:43.999Z</time></trkpt><trkpt lat="35.9927256429888" lon="-107.07593604370676"><ele>2125.2</ele><time>2026-05-03T15:13:44.999Z</time></trkpt><trkpt lat="35.99277902534953" lon="-107.07602311885753"><ele>2124.0</ele><time>2026-05-03T15:13:46.999Z</time></trkpt><trkpt lat="35.99269868012687" lon="-107.07607637510297"><ele>2124.0</ele><time>2026-05-03T15:13:49.999Z</time></trkpt><trkpt lat="35.99263231596475" lon="-107.07603168290335"><ele>2124.0</ele><time>2026-05-03T15:13:50.999Z</time></trkpt><trkpt lat="35.9925391798635" lon="-107.07591288855626"><ele>2124.0</ele><time>2026-05-03T15:13:52Z</time></trkpt><trkpt lat="35.99243424392977" lon="-107.0757889110921"><ele>2124.0</ele><time>2026-05-03T15:13:53Z</time></trkpt><trkpt lat="35.99230587552441" lon="-107.07565179253113"><ele>2125.5</ele><time>2026-05-03T15:13:54Z</time></trkpt><trkpt lat="35.99217991514869" lon="-107.07550210378403"><ele>2127.0</ele><time>2026-05-03T15:13:55Z</time></trkpt><trkpt lat="35.99206872914841" lon="-107.07539053600642"><ele>2128.5</ele><time>2026-05-03T15:13:56Z</time></trkpt><trkpt lat="35.9919879482024" lon="-107.07528871301892"><ele>2130.0</ele><time>2026-05-03T15:13:57Z</time></trkpt><trkpt lat="35.99191029603787" lon="-107.07517236779817"><ele>2130.0</ele><time>2026-05-03T15:13:58Z</time></trkpt><trkpt lat="35.991838736348434" lon="-107.07507600914313"><ele>2130.0</ele><time>2026-05-03T15:13:59Z</time></trkpt><trkpt lat="35.991776131490134" lon="-107.07501534367678"><ele>2130.0</ele><time>2026-05-03T15:14:00Z</time></trkpt><trkpt lat="35.991623112687" lon="-107.07499700816221"><ele>2130.0</ele><time>2026-05-03T15:14:01.999Z</time></trkpt><trkpt lat="35.991543486354225" lon="-107.07498652392566"><ele>2130.0</ele><time>2026-05-03T15:14:02.999Z</time></trkpt><trkpt lat="35.99148630298295" lon="-107.07491426190781"><ele>2131.0</ele><time>2026-05-03T15:14:03.999Z</time></trkpt><trkpt lat="35.99142959184157" lon="-107.07486016409959"><ele>2132.0</ele><time>2026-05-03T15:14:04.999Z</time></trkpt><trkpt lat="35.991326094827066" lon="-107.07479197078356"><ele>2133.0</ele><time>2026-05-03T15:14:06.999Z</time></trkpt><trkpt lat="35.991219549658375" lon="-107.07474040995689"><ele>2134.0</ele><time>2026-05-03T15:14:09Z</time></trkpt><trkpt lat="35.99114988077113" lon="-107.07482320911085"><ele>2135.0</ele><time>2026-05-03T15:14:11Z</time></trkpt><trkpt lat="35.99118243248646" lon="-107.07493935192475"><ele>2135.0</ele><time>2026-05-03T15:14:12Z</time></trkpt><trkpt lat="35.99116917796497" lon="-107.07506420194525"><ele>2135.0</ele><time>2026-05-03T15:14:13Z</time></trkpt><trkpt lat="35.991111754859496" lon="-107.07518057386623"><ele>2135.0</ele><time>2026-05-03T15:14:14Z</time></trkpt><trkpt lat="35.991035766711164" lon="-107.07528851067062"><ele>2135.0</ele><time>2026-05-03T15:14:15Z</time></trkpt><trkpt lat="35.990938706633415" lon="-107.07537178334348"><ele>2135.0</ele><time>2026-05-03T15:14:16Z</time></trkpt><trkpt lat="35.99084894445556" lon="-107.07541890663833"><ele>2135.4</ele><time>2026-05-03T15:14:17Z</time></trkpt><trkpt lat="35.99073159347437" lon="-107.07548307507734"><ele>2135.8</ele><time>2026-05-03T15:14:18Z</time></trkpt><trkpt lat="35.9906239731504" lon="-107.07553129872501"><ele>2136.2</ele><time>2026-05-03T15:14:19Z</time></trkpt><trkpt lat="35.99051041296703" lon="-107.07555778396414"><ele>2136.6</ele><time>2026-05-03T15:14:20Z</time></trkpt><trkpt lat="35.990451483666334" lon="-107.07562249460386"><ele>2137.0</ele><time>2026-05-03T15:14:21Z</time></trkpt><trkpt lat="35.99040815069204" lon="-107.0757211936284"><ele>2138.7999999999997</ele><time>2026-05-03T15:14:22Z</time></trkpt><trkpt lat="35.99034978649613" lon="-107.07581091495094"><ele>2140.6</ele><time>2026-05-03T15:14:23Z</time></trkpt><trkpt lat="35.990284428054515" lon="-107.07588957835843"><ele>2142.3999999999996</ele><time>2026-05-03T15:14:24Z</time></trkpt><trkpt lat="35.99022040090388" lon="-107.07598414732708"><ele>2144.2</ele><time>2026-05-03T15:14:25Z</time></trkpt><trkpt lat="35.990153538412926" lon="-107.07608795544644"><ele>2146.0</ele><time>2026-05-03T15:14:26Z</time></trkpt><trkpt lat="35.99009695847775" lon="-107.07619746123261"><ele>2146.0</ele><time>2026-05-03T15:14:27Z</time></trkpt><trkpt lat="35.99003687856052" lon="-107.07629498691348"><ele>2146.0</ele><time>2026-05-03T15:14:28Z</time></trkpt><trkpt lat="35.989988238803235" lon="-107.0764111320133"><ele>2146.0</ele><time>2026-05-03T15:14:29Z</time></trkpt><trkpt lat="35.989961756851095" lon="-107.07652865510568"><ele>2146.0</ele><time>2026-05-03T15:14:30Z</time></trkpt><trkpt lat="35.989914822156095" lon="-107.07663174200128"><ele>2146.0</ele><time>2026-05-03T15:14:31Z</time></trkpt><trkpt lat="35.989826564990615" lon="-107.07669130289159"><ele>2147.2</ele><time>2026-05-03T15:14:32Z</time></trkpt><trkpt lat="35.9897339726641" lon="-107.07674392506655"><ele>2148.3999999999996</ele><time>2026-05-03T15:14:33Z</time></trkpt><trkpt lat="35.989646093812176" lon="-107.07679945346761"><ele>2149.6</ele><time>2026-05-03T15:14:34Z</time></trkpt><trkpt lat="35.98958342224526" lon="-107.07687694477055"><ele>2150.7999999999997</ele><time>2026-05-03T15:14:35Z</time></trkpt><trkpt lat="35.989545929104985" lon="-107.07696515403532"><ele>2152.0</ele><time>2026-05-03T15:14:36Z</time></trkpt><trkpt lat="35.98947090509743" lon="-107.07711046637785"><ele>2152.0</ele><time>2026-05-03T15:14:38Z</time></trkpt><trkpt lat="35.98935345743985" lon="-107.07711293179108"><ele>2152.0</ele><time>2026-05-03T15:14:40Z</time></trkpt><trkpt lat="35.98926936783499" lon="-107.0771023451266"><ele>2152.0</ele><time>2026-05-03T15:14:41Z</time></trkpt><trkpt lat="35.98919156470659" lon="-107.07711662342449"><ele>2152.0</ele><time>2026-05-03T15:14:42Z</time></trkpt><trkpt lat="35.98911091912786" lon="-107.07715550970039"><ele>2152.0</ele><time>2026-05-03T15:14:43Z</time></trkpt><trkpt lat="35.989042317040976" lon="-107.07718380078555"><ele>2152.0</ele><time>2026-05-03T15:14:44Z</time></trkpt><trkpt lat="35.98897965374081" lon="-107.07715392121686"><ele>2152.0</ele><time>2026-05-03T15:14:45Z</time></trkpt><trkpt lat="35.988921223867784" lon="-107.07708426375994"><ele>2152.0</ele><time>2026-05-03T15:14:46Z</time></trkpt><trkpt lat="35.98886258227886" lon="-107.07703705939028"><ele>2152.0</ele><time>2026-05-03T15:14:47Z</time></trkpt><trkpt lat="35.98874533299329" lon="-107.07695961933983"><ele>2152.0</ele><time>2026-05-03T15:14:49Z</time></trkpt><trkpt lat="35.98862797379271" lon="-107.07698277547371"><ele>2152.0</ele><time>2026-05-03T15:14:51Z</time></trkpt><trkpt lat="35.988558958071586" lon="-107.07697515905778"><ele>2152.0</ele><time>2026-05-03T15:14:52Z</time></trkpt><trkpt lat="35.98847691926081" lon="-107.07691777400922"><ele>2152.0</ele><time>2026-05-03T15:14:53Z</time></trkpt><trkpt lat="35.98840206423683" lon="-107.07686621841648"><ele>2152.0</ele><time>2026-05-03T15:14:54Z</time></trkpt><trkpt lat="35.988320747130096" lon="-107.07682239150098"><ele>2152.0</ele><time>2026-05-03T15:14:55Z</time></trkpt><trkpt lat="35.98822173874193" lon="-107.07675717044442"><ele>2152.0</ele><time>2026-05-03T15:14:56Z</time></trkpt><trkpt lat="35.98812279221042" lon="-107.07666242953505"><ele>2151.3333333333335</ele><time>2026-05-03T15:14:57Z</time></trkpt><trkpt lat="35.98800877968777" lon="-107.07657707350457"><ele>2150.6666666666665</ele><time>2026-05-03T15:14:58Z</time></trkpt><trkpt lat="35.98785935431265" lon="-107.0765006187306"><ele>2150.0</ele><time>2026-05-03T15:14:59Z</time></trkpt><trkpt lat="35.98769774647854" lon="-107.07643205728223"><ele>2150.0</ele><time>2026-05-03T15:15:00Z</time></trkpt><trkpt lat="35.98757079938186" lon="-107.0763579352214"><ele>2150.0</ele><time>2026-05-03T15:15:01Z</time></trkpt><trkpt lat="35.98748108876938" lon="-107.07627254343647"><ele>2150.0</ele><time>2026-05-03T15:15:02Z</time></trkpt><trkpt lat="35.98738829818047" lon="-107.07620734536735"><ele>2150.0</ele><time>2026-05-03T15:15:03Z</time></trkpt><trkpt lat="35.987307778978305" lon="-107.07614586519489"><ele>2152.6</ele><time>2026-05-03T15:15:04Z</time></trkpt><trkpt lat="35.987262163664404" lon="-107.07606596950234"><ele>2155.2</ele><time>2026-05-03T15:15:05Z</time></trkpt><trkpt lat="35.987245666712596" lon="-107.07598981656196"><ele>2157.8</ele><time>2026-05-03T15:15:06Z</time></trkpt><trkpt lat="35.98710242590868" lon="-107.07590229660126"><ele>2160.4</ele><time>2026-05-03T15:15:08Z</time></trkpt><trkpt lat="35.986965633409625" lon="-107.07586721249551"><ele>2163.0</ele><time>2026-05-03T15:15:09Z</time></trkpt><trkpt lat="35.986863152296124" lon="-107.07579337115028"><ele>2162.5</ele><time>2026-05-03T15:15:10Z</time></trkpt><trkpt lat="35.98677130366873" lon="-107.07572858860502"><ele>2162.0</ele><time>2026-05-03T15:15:11Z</time></trkpt><trkpt lat="35.98667741077193" lon="-107.07567389966772"><ele>2161.5</ele><time>2026-05-03T15:15:12Z</time></trkpt><trkpt lat="35.98655614657417" lon="-107.07560185615421"><ele>2161.0</ele><time>2026-05-03T15:15:12.999Z</time></trkpt><trkpt lat="35.986418879494806" lon="-107.07551931595236"><ele>2161.0</ele><time>2026-05-03T15:15:13.999Z</time></trkpt><trkpt lat="35.98628526149604" lon="-107.07544751694243"><ele>2161.0</ele><time>2026-05-03T15:15:14.999Z</time></trkpt><trkpt lat="35.986161945330444" lon="-107.0753821872879"><ele>2161.0</ele><time>2026-05-03T15:15:15.999Z</time></trkpt><trkpt lat="35.98603657724197" lon="-107.07528307943733"><ele>2161.0</ele><time>2026-05-03T15:15:16.999Z</time></trkpt><trkpt lat="35.985911978279795" lon="-107.07519917514504"><ele>2160.75</ele><time>2026-05-03T15:15:17.999Z</time></trkpt><trkpt lat="35.98581138865721" lon="-107.07512450665463"><ele>2160.5</ele><time>2026-05-03T15:15:18.999Z</time></trkpt><trkpt lat="35.98572957213901" lon="-107.07507867400726"><ele>2160.25</ele><time>2026-05-03T15:15:19.999Z</time></trkpt><trkpt lat="35.98561317324442" lon="-107.07502152002972"><ele>2160.0</ele><time>2026-05-03T15:15:20.999Z</time></trkpt><trkpt lat="35.9855025116907" lon="-107.07497164903708"><ele>2160.0</ele><time>2026-05-03T15:15:21.999Z</time></trkpt><trkpt lat="35.985406947847004" lon="-107.07494704301462"><ele>2160.0</ele><time>2026-05-03T15:15:22.999Z</time></trkpt><trkpt lat="35.985303084256785" lon="-107.07495624868909"><ele>2160.0</ele><time>2026-05-03T15:15:23.999Z</time></trkpt><trkpt lat="35.985189100008434" lon="-107.07499160448155"><ele>2160.0</ele><time>2026-05-03T15:15:24.999Z</time></trkpt><trkpt lat="35.98506711259478" lon="-107.07497705332287"><ele>2160.0</ele><time>2026-05-03T15:15:25.999Z</time></trkpt><trkpt lat="35.98499963983182" lon="-107.07494324921865"><ele>2160.0</ele><time>2026-05-03T15:15:26.999Z</time></trkpt><trkpt lat="35.98501667698952" lon="-107.07512259180241"><ele>2160.0</ele><time>2026-05-03T15:15:28.999Z</time></trkpt><trkpt lat="35.9850565414886" lon="-107.07529486768951"><ele>2160.0</ele><time>2026-05-03T15:15:29.999Z</time></trkpt><trkpt lat="35.98510260490554" lon="-107.07549098596353"><ele>2160.0</ele><time>2026-05-03T15:15:30.999Z</time></trkpt><trkpt lat="35.98511103971408" lon="-107.07564969031878"><ele>2160.0</ele><time>2026-05-03T15:15:31.999Z</time></trkpt><trkpt lat="35.985139139157646" lon="-107.07578981299999"><ele>2160.0</ele><time>2026-05-03T15:15:32.999Z</time></trkpt><trkpt lat="35.98515933792963" lon="-107.0759627347308"><ele>2160.0</ele><time>2026-05-03T15:15:33.999Z</time></trkpt><trkpt lat="35.985177711691364" lon="-107.07616236269692"><ele>2159.75</ele><time>2026-05-03T15:15:34.999Z</time></trkpt><trkpt lat="35.98517204988968" lon="-107.07630965454759"><ele>2159.5</ele><time>2026-05-03T15:15:35.999Z</time></trkpt><trkpt lat="35.98515681451699" lon="-107.07646791966489"><ele>2159.25</ele><time>2026-05-03T15:15:36.999Z</time></trkpt><trkpt lat="35.98516337003035" lon="-107.0766124782427"><ele>2159.0</ele><time>2026-05-03T15:15:37.999Z</time></trkpt><trkpt lat="35.985181682710106" lon="-107.07674996197373"><ele>2158.25</ele><time>2026-05-03T15:15:38.999Z</time></trkpt><trkpt lat="35.98519680863236" lon="-107.07690313989868"><ele>2157.5</ele><time>2026-05-03T15:15:39.999Z</time></trkpt><trkpt lat="35.985217498001184" lon="-107.07706919079591"><ele>2156.75</ele><time>2026-05-03T15:15:40.999Z</time></trkpt><trkpt lat="35.9852271213364" lon="-107.077240214958"><ele>2156.0</ele><time>2026-05-03T15:15:41.999Z</time></trkpt><trkpt lat="35.9852387875481" lon="-107.07744966580013"><ele>2156.0</ele><time>2026-05-03T15:15:42.999Z</time></trkpt><trkpt lat="35.98525285744732" lon="-107.07765991027992"><ele>2156.0</ele><time>2026-05-03T15:15:43.999Z</time></trkpt><trkpt lat="35.985266143540706" lon="-107.07784237455098"><ele>2156.0</ele><time>2026-05-03T15:15:44.999Z</time></trkpt><trkpt lat="35.98527750599843" lon="-107.07801645832276"><ele>2156.0</ele><time>2026-05-03T15:15:45.999Z</time></trkpt><trkpt lat="35.98528703964665" lon="-107.07818489118056"><ele>2156.0</ele><time>2026-05-03T15:15:46.999Z</time></trkpt><trkpt lat="35.985300226071644" lon="-107.0783685732605"><ele>2156.0</ele><time>2026-05-03T15:15:47.999Z</time></trkpt><trkpt lat="35.98532076995958" lon="-107.07854759530426"><ele>2156.0</ele><time>2026-05-03T15:15:48.999Z</time></trkpt><trkpt lat="35.98532156885264" lon="-107.07871081281256"><ele>2156.333333333333</ele><time>2026-05-03T15:15:49.999Z</time></trkpt><trkpt lat="35.98532358636012" lon="-107.07889026746372"><ele>2156.6666666666665</ele><time>2026-05-03T15:15:50.999Z</time></trkpt><trkpt lat="35.98533279778358" lon="-107.07908821739863"><ele>2157.0</ele><time>2026-05-03T15:15:51.999Z</time></trkpt><trkpt lat="35.985340436706274" lon="-107.07926955074292"><ele>2156.5</ele><time>2026-05-03T15:15:52.999Z</time></trkpt><trkpt lat="35.98535580643341" lon="-107.0794494281569"><ele>2156.0</ele><time>2026-05-03T15:15:53.999Z</time></trkpt><trkpt lat="35.98536719260825" lon="-107.07964906612499"><ele>2155.5</ele><time>2026-05-03T15:15:54.999Z</time></trkpt><trkpt lat="35.98537584914029" lon="-107.07978579813333"><ele>2155.0</ele><time>2026-05-03T15:15:55.999Z</time></trkpt><trkpt lat="35.98537812374912" lon="-107.07989996799706"><ele>2155.0</ele><time>2026-05-03T15:15:56.999Z</time></trkpt><trkpt lat="35.98537664391083" lon="-107.08000760146545"><ele>2155.0</ele><time>2026-05-03T15:15:58Z</time></trkpt><trkpt lat="35.985392724220475" lon="-107.08010800161853"><ele>2155.0</ele><time>2026-05-03T15:15:59Z</time></trkpt><trkpt lat="35.98542520378326" lon="-107.08017749929212"><ele>2155.0</ele><time>2026-05-03T15:16:00Z</time></trkpt><trkpt lat="35.98550859126625" lon="-107.08019742473135"><ele>2155.0</ele><time>2026-05-03T15:16:01Z</time></trkpt><trkpt lat="35.985597966616034" lon="-107.08019298045602"><ele>2155.0</ele><time>2026-05-03T15:16:02Z</time></trkpt><trkpt lat="35.98571749885475" lon="-107.08017503025894"><ele>2156.25</ele><time>2026-05-03T15:16:03Z</time></trkpt><trkpt lat="35.985862017130636" lon="-107.08016943940852"><ele>2157.5</ele><time>2026-05-03T15:16:04Z</time></trkpt><trkpt lat="35.98599375235435" lon="-107.08016929897187"><ele>2158.75</ele><time>2026-05-03T15:16:05Z</time></trkpt><trkpt lat="35.98609463250813" lon="-107.08016834693015"><ele>2160.0</ele><time>2026-05-03T15:16:06Z</time></trkpt><trkpt lat="35.986169843942115" lon="-107.08018599137881"><ele>2160.0</ele><time>2026-05-03T15:16:07Z</time></trkpt><trkpt lat="35.986257886471286" lon="-107.08022506639844"><ele>2160.0</ele><time>2026-05-03T15:16:08Z</time></trkpt><trkpt lat="35.986379965659644" lon="-107.08028169906797"><ele>2160.0</ele><time>2026-05-03T15:16:09Z</time></trkpt><trkpt lat="35.98649629944775" lon="-107.08031087636638"><ele>2160.0</ele><time>2026-05-03T15:16:10Z</time></trkpt><trkpt lat="35.98662245483268" lon="-107.08033575511575"><ele>2160.0</ele><time>2026-05-03T15:16:11Z</time></trkpt><trkpt lat="35.98674544809845" lon="-107.08040452252493"><ele>2160.0</ele><time>2026-05-03T15:16:12Z</time></trkpt><trkpt lat="35.98684222530911" lon="-107.08044988506633"><ele>2160.0</ele><time>2026-05-03T15:16:13Z</time></trkpt><trkpt lat="35.98690812426844" lon="-107.0804337230035"><ele>2160.0</ele><time>2026-05-03T15:16:14Z</time></trkpt><trkpt lat="35.987005317140174" lon="-107.08052522666635"><ele>2160.0</ele><time>2026-05-03T15:16:16Z</time></trkpt><trkpt lat="35.98701941081749" lon="-107.08067891870854"><ele>2159.4</ele><time>2026-05-03T15:16:17Z</time></trkpt><trkpt lat="35.98708241969512" lon="-107.08081410530566"><ele>2158.8</ele><time>2026-05-03T15:16:18Z</time></trkpt><trkpt lat="35.98717100671314" lon="-107.08089689923715"><ele>2158.2</ele><time>2026-05-03T15:16:19Z</time></trkpt><trkpt lat="35.987229370163845" lon="-107.0809576854978"><ele>2157.6</ele><time>2026-05-03T15:16:20Z</time></trkpt><trkpt lat="35.98729449285625" lon="-107.08106154820038"><ele>2157.0</ele><time>2026-05-03T15:16:21Z</time></trkpt><trkpt lat="35.98734349152604" lon="-107.08116505529499"><ele>2157.0</ele><time>2026-05-03T15:16:22Z</time></trkpt><trkpt lat="35.98735100092306" lon="-107.08128306502745"><ele>2157.0</ele><time>2026-05-03T15:16:24Z</time></trkpt><trkpt lat="35.9873131490961" lon="-107.0813688121985"><ele>2157.0</ele><time>2026-05-03T15:16:25Z</time></trkpt><trkpt lat="35.987285205275775" lon="-107.08146229022505"><ele>2157.0</ele><time>2026-05-03T15:16:26Z</time></trkpt><trkpt lat="35.98725275282889" lon="-107.08160429969878"><ele>2157.0</ele><time>2026-05-03T15:16:27Z</time></trkpt><trkpt lat="35.98723547260681" lon="-107.0817509996715"><ele>2156.7999999999997</ele><time>2026-05-03T15:16:28Z</time></trkpt><trkpt lat="35.987224575516606" lon="-107.08188184886572"><ele>2156.6</ele><time>2026-05-03T15:16:29Z</time></trkpt><trkpt lat="35.98720896081028" lon="-107.08200001164461"><ele>2156.3999999999996</ele><time>2026-05-03T15:16:30Z</time></trkpt><trkpt lat="35.98718843959932" lon="-107.08211154928692"><ele>2156.2</ele><time>2026-05-03T15:16:31Z</time></trkpt><trkpt lat="35.98720229303271" lon="-107.08222196173521"><ele>2156.0</ele><time>2026-05-03T15:16:32Z</time></trkpt><trkpt lat="35.98722898567888" lon="-107.08230311781796"><ele>2156.0</ele><time>2026-05-03T15:16:33Z</time></trkpt><trkpt lat="35.98725525562267" lon="-107.08237495848519"><ele>2156.0</ele><time>2026-05-03T15:16:34Z</time></trkpt><trkpt lat="35.9873586746587" lon="-107.0824359268866"><ele>2156.0</ele><time>2026-05-03T15:16:36Z</time></trkpt><trkpt lat="35.98742314413847" lon="-107.08255764355496"><ele>2156.0</ele><time>2026-05-03T15:16:38Z</time></trkpt><trkpt lat="35.987448915556556" lon="-107.0826597349445"><ele>2156.0</ele><time>2026-05-03T15:16:39Z</time></trkpt><trkpt lat="35.98748010471641" lon="-107.08275015675278"><ele>2154.6666666666665</ele><time>2026-05-03T15:16:40Z</time></trkpt><trkpt lat="35.98751172577452" lon="-107.08283597442637"><ele>2153.333333333333</ele><time>2026-05-03T15:16:41Z</time></trkpt><trkpt lat="35.98754231409389" lon="-107.08296828334707"><ele>2152.0</ele><time>2026-05-03T15:16:43Z</time></trkpt><trkpt lat="35.98756214100131" lon="-107.08307538402116"><ele>2150.6666666666665</ele><time>2026-05-03T15:16:45Z</time></trkpt><trkpt lat="35.98763366891509" lon="-107.08306633349989"><ele>2149.3333333333335</ele><time>2026-05-03T15:16:46Z</time></trkpt><trkpt lat="35.98769565149095" lon="-107.08305266900003"><ele>2148.0</ele><time>2026-05-03T15:16:47Z</time></trkpt><trkpt lat="35.98776287677065" lon="-107.0830481387801"><ele>2148.0</ele><time>2026-05-03T15:16:48Z</time></trkpt><trkpt lat="35.98779842342461" lon="-107.08313459906456"><ele>2148.0</ele><time>2026-05-03T15:16:50Z</time></trkpt><trkpt lat="35.98780070482926" lon="-107.083239187019"><ele>2148.0</ele><time>2026-05-03T15:16:51Z</time></trkpt><trkpt lat="35.98786634620855" lon="-107.08334289966214"><ele>2148.0</ele><time>2026-05-03T15:16:53Z</time></trkpt><trkpt lat="35.98793340895198" lon="-107.08345310425442"><ele>2148.0</ele><time>2026-05-03T15:16:55Z</time></trkpt><trkpt lat="35.98798477826528" lon="-107.08340074772889"><ele>2148.0</ele><time>2026-05-03T15:16:57Z</time></trkpt><trkpt lat="35.98805977647122" lon="-107.0833866083516"><ele>2146.0</ele><time>2026-05-03T15:17:00Z</time></trkpt><trkpt lat="35.988397799908846" lon="-107.08346721639055"><ele>2144.0</ele><time>2026-05-03T15:17:03Z</time></trkpt><trkpt lat="35.98845739142781" lon="-107.08358773236056"><ele>2144.0</ele><time>2026-05-03T15:17:05Z</time></trkpt><trkpt lat="35.988507486518" lon="-107.08369062809673"><ele>2144.0</ele><time>2026-05-03T15:17:07Z</time></trkpt><trkpt lat="35.98857393384413" lon="-107.08372794532414"><ele>2144.0</ele><time>2026-05-03T15:17:09Z</time></trkpt><trkpt lat="35.988687267503366" lon="-107.08373398608236"><ele>2144.0</ele><time>2026-05-03T15:17:11Z</time></trkpt><trkpt lat="35.98875048527129" lon="-107.08375887465192"><ele>2144.0</ele><time>2026-05-03T15:17:12Z</time></trkpt><trkpt lat="35.98880823014088" lon="-107.08380500626367"><ele>2144.0</ele><time>2026-05-03T15:17:13Z</time></trkpt><trkpt lat="35.988874030519256" lon="-107.08385649218627"><ele>2144.0</ele><time>2026-05-03T15:17:14Z</time></trkpt><trkpt lat="35.98893831654195" lon="-107.08388381146324"><ele>2144.0</ele><time>2026-05-03T15:17:15Z</time></trkpt><trkpt lat="35.988996384512774" lon="-107.08392771425846"><ele>2144.0</ele><time>2026-05-03T15:17:16Z</time></trkpt><trkpt lat="35.98905038638732" lon="-107.0839829687826"><ele>2144.0</ele><time>2026-05-03T15:17:17Z</time></trkpt><trkpt lat="35.98903170104769" lon="-107.08410189122428"><ele>2144.0</ele><time>2026-05-03T15:17:18Z</time></trkpt><trkpt lat="35.98905935171876" lon="-107.08425442536904"><ele>2144.0</ele><time>2026-05-03T15:17:20Z</time></trkpt><trkpt lat="35.989118096580455" lon="-107.08432024591545"><ele>2144.1666666666665</ele><time>2026-05-03T15:17:21Z</time></trkpt><trkpt lat="35.98917696334505" lon="-107.08438924432721"><ele>2144.333333333333</ele><time>2026-05-03T15:17:22Z</time></trkpt><trkpt lat="35.989194539185355" lon="-107.08448303614313"><ele>2144.5</ele><time>2026-05-03T15:17:23Z</time></trkpt><trkpt lat="35.98922156565984" lon="-107.0845873903419"><ele>2144.6666666666665</ele><time>2026-05-03T15:17:24Z</time></trkpt><trkpt lat="35.98927559451971" lon="-107.08465944713355"><ele>2144.8333333333335</ele><time>2026-05-03T15:17:25Z</time></trkpt><trkpt lat="35.98932801153334" lon="-107.08473708843835"><ele>2145.0</ele><time>2026-05-03T15:17:26Z</time></trkpt><trkpt lat="35.98936199976019" lon="-107.08484483707103"><ele>2145.0</ele><time>2026-05-03T15:17:28Z</time></trkpt><trkpt lat="35.98930754696256" lon="-107.08492058375735"><ele>2145.0</ele><time>2026-05-03T15:17:29Z</time></trkpt><trkpt lat="35.98924065738213" lon="-107.08501592980859"><ele>2145.0</ele><time>2026-05-03T15:17:29.999Z</time></trkpt><trkpt lat="35.98919105628648" lon="-107.08511648676249"><ele>2145.0</ele><time>2026-05-03T15:17:30.999Z</time></trkpt><trkpt lat="35.98915538138003" lon="-107.08522638689026"><ele>2145.0</ele><time>2026-05-03T15:17:31.999Z</time></trkpt><trkpt lat="35.98909429164096" lon="-107.08530018474586"><ele>2145.0</ele><time>2026-05-03T15:17:33.999Z</time></trkpt><trkpt lat="35.989062137504504" lon="-107.08539702526981"><ele>2145.0</ele><time>2026-05-03T15:17:35.999Z</time></trkpt><trkpt lat="35.98903993980979" lon="-107.08547157037478"><ele>2145.0</ele><time>2026-05-03T15:17:36.999Z</time></trkpt><trkpt lat="35.98907156054195" lon="-107.08558096501392"><ele>2145.0</ele><time>2026-05-03T15:17:37.999Z</time></trkpt><trkpt lat="35.98902311468105" lon="-107.08564558763378"><ele>2145.0</ele><time>2026-05-03T15:17:38.999Z</time></trkpt><trkpt lat="35.98895197539103" lon="-107.08572357588154"><ele>2145.0</ele><time>2026-05-03T15:17:39.999Z</time></trkpt><trkpt lat="35.98886701039668" lon="-107.0858082145958"><ele>2145.4</ele><time>2026-05-03T15:17:40.999Z</time></trkpt><trkpt lat="35.98878227967804" lon="-107.08588986370508"><ele>2145.8</ele><time>2026-05-03T15:17:41.999Z</time></trkpt><trkpt lat="35.988699922671834" lon="-107.08596122403581"><ele>2146.2</ele><time>2026-05-03T15:17:42.999Z</time></trkpt><trkpt lat="35.988608325709855" lon="-107.08604252975937"><ele>2146.6</ele><time>2026-05-03T15:17:43.999Z</time></trkpt><trkpt lat="35.98852972540672" lon="-107.08612076026024"><ele>2147.0</ele><time>2026-05-03T15:17:44.999Z</time></trkpt><trkpt lat="35.98846845100558" lon="-107.08619670175729"><ele>2147.0</ele><time>2026-05-03T15:17:45.999Z</time></trkpt><trkpt lat="35.98843487384316" lon="-107.08628488516297"><ele>2147.0</ele><time>2026-05-03T15:17:46.999Z</time></trkpt><trkpt lat="35.988394707793965" lon="-107.08637225911927"><ele>2147.0</ele><time>2026-05-03T15:17:47.999Z</time></trkpt><trkpt lat="35.98835620596944" lon="-107.08644587145774"><ele>2147.0</ele><time>2026-05-03T15:17:48.999Z</time></trkpt><trkpt lat="35.98832084568385" lon="-107.08651612986777"><ele>2147.0</ele><time>2026-05-03T15:17:49.999Z</time></trkpt><trkpt lat="35.98824736598754" lon="-107.08662709447455"><ele>2147.0</ele><time>2026-05-03T15:17:51.999Z</time></trkpt><trkpt lat="35.98817959214954" lon="-107.08668163068128"><ele>2146.6</ele><time>2026-05-03T15:17:53.999Z</time></trkpt><trkpt lat="35.98815877389048" lon="-107.08675540409173"><ele>2146.2</ele><time>2026-05-03T15:17:55.999Z</time></trkpt><trkpt lat="35.98830826326287" lon="-107.08675797124732"><ele>2145.8</ele><time>2026-05-03T15:17:56.999Z</time></trkpt><trkpt lat="35.988345797016386" lon="-107.08684964021587"><ele>2145.4</ele><time>2026-05-03T15:17:58.999Z</time></trkpt><trkpt lat="35.98830706764575" lon="-107.08693030794068"><ele>2145.0</ele><time>2026-05-03T15:17:59.999Z</time></trkpt><trkpt lat="35.98826880102752" lon="-107.08703358263605"><ele>2145.8333333333335</ele><time>2026-05-03T15:18:00.999Z</time></trkpt><trkpt lat="35.98824979023674" lon="-107.08712594760694"><ele>2146.6666666666665</ele><time>2026-05-03T15:18:01.999Z</time></trkpt><trkpt lat="35.98821868702159" lon="-107.0872065470139"><ele>2147.5</ele><time>2026-05-03T15:18:02.999Z</time></trkpt><trkpt lat="35.988195515552974" lon="-107.0872789533902"><ele>2148.333333333333</ele><time>2026-05-03T15:18:05Z</time></trkpt><trkpt lat="35.98827287087648" lon="-107.08734818747782"><ele>2149.1666666666665</ele><time>2026-05-03T15:18:07Z</time></trkpt><trkpt lat="35.988250786313785" lon="-107.08747950833316"><ele>2150.0</ele><time>2026-05-03T15:18:08Z</time></trkpt><trkpt lat="35.98823487773986" lon="-107.08761678486701"><ele>2150.0000000000005</ele><time>2026-05-03T15:18:10Z</time></trkpt><trkpt lat="35.9882027658384" lon="-107.08770114365359"><ele>2150.0</ele><time>2026-05-03T15:18:11Z</time></trkpt><trkpt lat="35.98818671357411" lon="-107.08779226320605"><ele>2150.0</ele><time>2026-05-03T15:18:12Z</time></trkpt><trkpt lat="35.98817198121233" lon="-107.08788255906745"><ele>2150.0</ele><time>2026-05-03T15:18:13Z</time></trkpt><trkpt lat="35.9881787575807" lon="-107.08796358115289"><ele>2150.0</ele><time>2026-05-03T15:18:14Z</time></trkpt><trkpt lat="35.988168979738816" lon="-107.0880481198268"><ele>2150.0000000000005</ele><time>2026-05-03T15:18:15Z</time></trkpt><trkpt lat="35.98817062583621" lon="-107.08814019487798"><ele>2150.0</ele><time>2026-05-03T15:18:16Z</time></trkpt><trkpt lat="35.98820309880573" lon="-107.08823635202657"><ele>2149.8</ele><time>2026-05-03T15:18:17Z</time></trkpt><trkpt lat="35.98820296717145" lon="-107.08836532078963"><ele>2149.6</ele><time>2026-05-03T15:18:19Z</time></trkpt><trkpt lat="35.988154897709556" lon="-107.08849217656757"><ele>2149.4</ele><time>2026-05-03T15:18:20Z</time></trkpt><trkpt lat="35.988155407942514" lon="-107.08860427966275"><ele>2149.2</ele><time>2026-05-03T15:18:21Z</time></trkpt><trkpt lat="35.98816764053068" lon="-107.08869352313664"><ele>2149.0</ele><time>2026-05-03T15:18:22Z</time></trkpt><trkpt lat="35.98808553526525" lon="-107.08885051535704"><ele>2149.0</ele><time>2026-05-03T15:18:24Z</time></trkpt><trkpt lat="35.988038098949815" lon="-107.0889393091553"><ele>2149.0</ele><time>2026-05-03T15:18:25Z</time></trkpt><trkpt lat="35.98795122967929" lon="-107.08905757955895"><ele>2149.0</ele><time>2026-05-03T15:18:27Z</time></trkpt><trkpt lat="35.98788122559032" lon="-107.08910574496834"><ele>2149.0</ele><time>2026-05-03T15:18:28Z</time></trkpt><trkpt lat="35.987912211105225" lon="-107.08923834980003"><ele>2149.0</ele><time>2026-05-03T15:18:30Z</time></trkpt><trkpt lat="35.98793762986574" lon="-107.0893431945664"><ele>2148.4</ele><time>2026-05-03T15:18:31Z</time></trkpt><trkpt lat="35.98793217406181" lon="-107.08944595896288"><ele>2147.8</ele><time>2026-05-03T15:18:32Z</time></trkpt><trkpt lat="35.987948444596775" lon="-107.08955874585195"><ele>2147.2</ele><time>2026-05-03T15:18:34Z</time></trkpt><trkpt lat="35.988026298302664" lon="-107.08951478007812"><ele>2146.6</ele><time>2026-05-03T15:18:36Z</time></trkpt><trkpt lat="35.98813366635004" lon="-107.08948977750165"><ele>2146.0</ele><time>2026-05-03T15:18:37Z</time></trkpt><trkpt lat="35.988268183022456" lon="-107.08940451162695"><ele>2145.25</ele><time>2026-05-03T15:18:38Z</time></trkpt><trkpt lat="35.98841169888093" lon="-107.08931747223684"><ele>2144.5</ele><time>2026-05-03T15:18:39Z</time></trkpt><trkpt lat="35.9885206096655" lon="-107.08925294970818"><ele>2143.75</ele><time>2026-05-03T15:18:40Z</time></trkpt><trkpt lat="35.98865259034593" lon="-107.08917908612288"><ele>2143.0</ele><time>2026-05-03T15:18:41Z</time></trkpt><trkpt lat="35.988804090553835" lon="-107.0890913535919"><ele>2143.0</ele><time>2026-05-03T15:18:42Z</time></trkpt><trkpt lat="35.988965374241765" lon="-107.08900005894475"><ele>2143.0</ele><time>2026-05-03T15:18:43Z</time></trkpt><trkpt lat="35.989156389673404" lon="-107.0888958616068"><ele>2143.0</ele><time>2026-05-03T15:18:44Z</time></trkpt><trkpt lat="35.98930492397703" lon="-107.08881485971342"><ele>2141.0</ele><time>2026-05-03T15:18:45Z</time></trkpt><trkpt lat="35.989472281878484" lon="-107.08871614857776"><ele>2139.0</ele><time>2026-05-03T15:18:46Z</time></trkpt><trkpt lat="35.98961120434621" lon="-107.0886366567065"><ele>2137.0</ele><time>2026-05-03T15:18:47Z</time></trkpt><trkpt lat="35.98973647317714" lon="-107.08856129160269"><ele>2137.0</ele><time>2026-05-03T15:18:48Z</time></trkpt><trkpt lat="35.98988288191755" lon="-107.0884740051287"><ele>2137.0</ele><time>2026-05-03T15:18:49Z</time></trkpt><trkpt lat="35.99006283849276" lon="-107.08836250116433"><ele>2137.0</ele><time>2026-05-03T15:18:50Z</time></trkpt><trkpt lat="35.99024332860251" lon="-107.0882496975789"><ele>2138.3333333333335</ele><time>2026-05-03T15:18:51Z</time></trkpt><trkpt lat="35.99040318570792" lon="-107.08815305036163"><ele>2139.6666666666665</ele><time>2026-05-03T15:18:52Z</time></trkpt><trkpt lat="35.99054724243374" lon="-107.08807063803441"><ele>2141.0</ele><time>2026-05-03T15:18:53Z</time></trkpt><trkpt lat="35.99067103774302" lon="-107.08799689777328"><ele>2141.0</ele><time>2026-05-03T15:18:54Z</time></trkpt><trkpt lat="35.99077474501768" lon="-107.08793756229602"><ele>2141.0</ele><time>2026-05-03T15:18:55Z</time></trkpt><trkpt lat="35.99083452458972" lon="-107.08784575443872"><ele>2141.0</ele><time>2026-05-03T15:18:56Z</time></trkpt><trkpt lat="35.990912147755274" lon="-107.08779042116953"><ele>2141.0</ele><time>2026-05-03T15:18:57Z</time></trkpt><trkpt lat="35.990992248218575" lon="-107.08773332126192"><ele>2141.0</ele><time>2026-05-03T15:18:58Z</time></trkpt><trkpt lat="35.9910561814668" lon="-107.08769178234031"><ele>2141.5</ele><time>2026-05-03T15:18:59Z</time></trkpt><trkpt lat="35.991126297303225" lon="-107.08765356922498"><ele>2142.0</ele><time>2026-05-03T15:19:00Z</time></trkpt><trkpt lat="35.991443461358365" lon="-107.08810668448835"><ele>2142.0</ele><time>2026-05-03T15:19:01Z</time></trkpt><trkpt lat="35.99153290190616" lon="-107.08820953885268"><ele>2142.0</ele><time>2026-05-03T15:19:02Z</time></trkpt><trkpt lat="35.99157704168818" lon="-107.08830161797978"><ele>2142.0</ele><time>2026-05-03T15:19:03Z</time></trkpt><trkpt lat="35.99157109400911" lon="-107.08838246845531"><ele>2142.0</ele><time>2026-05-03T15:19:04Z</time></trkpt><trkpt lat="35.99152926190127" lon="-107.08850477224323"><ele>2142.0</ele><time>2026-05-03T15:19:05Z</time></trkpt><trkpt lat="35.991489538774964" lon="-107.08862963629463"><ele>2141.5</ele><time>2026-05-03T15:19:06Z</time></trkpt><trkpt lat="35.99146794494745" lon="-107.08878651528579"><ele>2141.0</ele><time>2026-05-03T15:19:07Z</time></trkpt><trkpt lat="35.99144669763417" lon="-107.08896443337528"><ele>2140.5</ele><time>2026-05-03T15:19:08Z</time></trkpt><trkpt lat="35.99142292163458" lon="-107.08913435863401"><ele>2140.0</ele><time>2026-05-03T15:19:09Z</time></trkpt><trkpt lat="35.991412587063984" lon="-107.0893069345592"><ele>2141.0</ele><time>2026-05-03T15:19:10Z</time></trkpt><trkpt lat="35.99138626038139" lon="-107.08947465279576"><ele>2142.0</ele><time>2026-05-03T15:19:11Z</time></trkpt><trkpt lat="35.9913873525823" lon="-107.0896186118527"><ele>2143.0</ele><time>2026-05-03T15:19:12Z</time></trkpt><trkpt lat="35.991394470977454" lon="-107.08980934969232"><ele>2144.0</ele><time>2026-05-03T15:19:13Z</time></trkpt><trkpt lat="35.99136982959631" lon="-107.09001612853992"><ele>2145.6666666666665</ele><time>2026-05-03T15:19:14Z</time></trkpt><trkpt lat="35.991334626884644" lon="-107.09021902729002"><ele>2147.3333333333335</ele><time>2026-05-03T15:19:15Z</time></trkpt><trkpt lat="35.9913370377069" lon="-107.09040669776324"><ele>2149.0</ele><time>2026-05-03T15:19:16Z</time></trkpt><trkpt lat="35.99136363599332" lon="-107.09061019563549"><ele>2148.4</ele><time>2026-05-03T15:19:17Z</time></trkpt><trkpt lat="35.991387921820426" lon="-107.09078074596479"><ele>2147.8</ele><time>2026-05-03T15:19:18Z</time></trkpt><trkpt lat="35.991376578279436" lon="-107.09089671727664"><ele>2147.2</ele><time>2026-05-03T15:19:19Z</time></trkpt><trkpt lat="35.99136648148916" lon="-107.09099694677563"><ele>2146.6</ele><time>2026-05-03T15:19:20Z</time></trkpt><trkpt lat="35.99138780554199" lon="-107.09109382157237"><ele>2146.0</ele><time>2026-05-03T15:19:21Z</time></trkpt><trkpt lat="35.99146442955631" lon="-107.09118350145968"><ele>2146.0</ele><time>2026-05-03T15:19:22Z</time></trkpt><trkpt lat="35.991551436153564" lon="-107.09126231073145"><ele>2146.0</ele><time>2026-05-03T15:19:23Z</time></trkpt><trkpt lat="35.99159253058254" lon="-107.09132301950187"><ele>2146.0</ele><time>2026-05-03T15:19:24Z</time></trkpt><trkpt lat="35.99163392231246" lon="-107.09140432190065"><ele>2146.0</ele><time>2026-05-03T15:19:26Z</time></trkpt><trkpt lat="35.99154179902177" lon="-107.09148151333244"><ele>2146.0</ele><time>2026-05-03T15:19:28Z</time></trkpt><trkpt lat="35.99145609793281" lon="-107.09151406260126"><ele>2146.0</ele><time>2026-05-03T15:19:29Z</time></trkpt><trkpt lat="35.99137013550967" lon="-107.09158335102258"><ele>2146.0</ele><time>2026-05-03T15:19:31Z</time></trkpt><trkpt lat="35.99146526437633" lon="-107.09184133176457"><ele>2146.0</ele><time>2026-05-03T15:19:33Z</time></trkpt><trkpt lat="35.99150339416001" lon="-107.09195822782098"><ele>2146.0</ele><time>2026-05-03T15:19:35Z</time></trkpt><trkpt lat="35.99154183706497" lon="-107.09204890536701"><ele>2146.25</ele><time>2026-05-03T15:19:36Z</time></trkpt><trkpt lat="35.99157604835831" lon="-107.0921521915247"><ele>2146.5</ele><time>2026-05-03T15:19:37Z</time></trkpt><trkpt lat="35.991651986951226" lon="-107.09227704284118"><ele>2146.75</ele><time>2026-05-03T15:19:38Z</time></trkpt><trkpt lat="35.99179319363958" lon="-107.09236828717437"><ele>2147.0</ele><time>2026-05-03T15:19:39Z</time></trkpt><trkpt lat="35.99187889878683" lon="-107.09246585193937"><ele>2147.75</ele><time>2026-05-03T15:19:40Z</time></trkpt><trkpt lat="35.991950655098876" lon="-107.09257058099156"><ele>2148.5</ele><time>2026-05-03T15:19:41Z</time></trkpt><trkpt lat="35.9920318543468" lon="-107.09268608347428"><ele>2149.25</ele><time>2026-05-03T15:19:42Z</time></trkpt><trkpt lat="35.992124860132336" lon="-107.09279436148766"><ele>2150.0</ele><time>2026-05-03T15:19:43Z</time></trkpt><trkpt lat="35.992217676378345" lon="-107.09289222395792"><ele>2150.0</ele><time>2026-05-03T15:19:44Z</time></trkpt><trkpt lat="35.992324812771585" lon="-107.09295325507594"><ele>2150.0</ele><time>2026-05-03T15:19:45Z</time></trkpt><trkpt lat="35.99246091201338" lon="-107.09298687437123"><ele>2150.0</ele><time>2026-05-03T15:19:46Z</time></trkpt><trkpt lat="35.99258696391819" lon="-107.09304683632963"><ele>2150.0</ele><time>2026-05-03T15:19:47Z</time></trkpt><trkpt lat="35.99269805525363" lon="-107.0931101839417"><ele>2150.6</ele><time>2026-05-03T15:19:48Z</time></trkpt><trkpt lat="35.99279273105527" lon="-107.09314283133756"><ele>2151.2</ele><time>2026-05-03T15:19:49Z</time></trkpt><trkpt lat="35.99288847453234" lon="-107.0931378546278"><ele>2151.8</ele><time>2026-05-03T15:19:50Z</time></trkpt><trkpt lat="35.992982462909254" lon="-107.0931344382201"><ele>2152.4</ele><time>2026-05-03T15:19:51Z</time></trkpt><trkpt lat="35.99307781921311" lon="-107.09312377743345"><ele>2153.0</ele><time>2026-05-03T15:19:52Z</time></trkpt><trkpt lat="35.993174332943504" lon="-107.09304285086954"><ele>2153.0</ele><time>2026-05-03T15:19:53Z</time></trkpt><trkpt lat="35.993283047308935" lon="-107.09299603255857"><ele>2153.0</ele><time>2026-05-03T15:19:54Z</time></trkpt><trkpt lat="35.993371378097216" lon="-107.09294717844746"><ele>2153.0</ele><time>2026-05-03T15:19:55Z</time></trkpt><trkpt lat="35.993477985935165" lon="-107.09287161847783"><ele>2153.0</ele><time>2026-05-03T15:19:56Z</time></trkpt><trkpt lat="35.99357642392323" lon="-107.09280290432285"><ele>2153.0</ele><time>2026-05-03T15:19:57Z</time></trkpt><trkpt lat="35.993662383253984" lon="-107.09273574030205"><ele>2153.833333333333</ele><time>2026-05-03T15:19:58Z</time></trkpt><trkpt lat="35.9937284817101" lon="-107.09268760086869"><ele>2154.6666666666665</ele><time>2026-05-03T15:19:59Z</time></trkpt><trkpt lat="35.993793168680185" lon="-107.09266749158499"><ele>2155.5</ele><time>2026-05-03T15:20:00Z</time></trkpt><trkpt lat="35.99385985378586" lon="-107.09272270598244"><ele>2156.3333333333335</ele><time>2026-05-03T15:20:02Z</time></trkpt><trkpt lat="35.99385180760936" lon="-107.09280599364261"><ele>2157.166666666667</ele><time>2026-05-03T15:20:02.999Z</time></trkpt><trkpt lat="35.99383956111802" lon="-107.09293565579257"><ele>2158.0</ele><time>2026-05-03T15:20:03.999Z</time></trkpt><trkpt lat="35.99384424960269" lon="-107.0930489981235"><ele>2158.0</ele><time>2026-05-03T15:20:04.999Z</time></trkpt><trkpt lat="35.99388210268853" lon="-107.09312984440797"><ele>2158.0</ele><time>2026-05-03T15:20:05.999Z</time></trkpt><trkpt lat="35.993936838740304" lon="-107.09316858073348"><ele>2158.0</ele><time>2026-05-03T15:20:07.999Z</time></trkpt><trkpt lat="35.994034942094395" lon="-107.09313769384343"><ele>2158.0</ele><time>2026-05-03T15:20:10Z</time></trkpt><trkpt lat="35.9941597494703" lon="-107.09310541337626"><ele>2158.0</ele><time>2026-05-03T15:20:12Z</time></trkpt><trkpt lat="35.99425562072386" lon="-107.09311304327191"><ele>2157.6</ele><time>2026-05-03T15:20:13Z</time></trkpt><trkpt lat="35.99434775375317" lon="-107.09304049930256"><ele>2157.2000000000003</ele><time>2026-05-03T15:20:14Z</time></trkpt><trkpt lat="35.99443055336917" lon="-107.09298444768184"><ele>2156.8</ele><time>2026-05-03T15:20:15Z</time></trkpt><trkpt lat="35.994493376654965" lon="-107.09293740102137"><ele>2156.4</ele><time>2026-05-03T15:20:16Z</time></trkpt><trkpt lat="35.99458811088646" lon="-107.09291924489924"><ele>2156.0</ele><time>2026-05-03T15:20:17Z</time></trkpt><trkpt lat="35.994678787222526" lon="-107.09291653235243"><ele>2156.0</ele><time>2026-05-03T15:20:18Z</time></trkpt><trkpt lat="35.99475343313525" lon="-107.09289077089606"><ele>2156.0</ele><time>2026-05-03T15:20:19Z</time></trkpt><trkpt lat="35.99483358588188" lon="-107.09282057227384"><ele>2156.0</ele><time>2026-05-03T15:20:20Z</time></trkpt><trkpt lat="35.99489929274455" lon="-107.09270332984721"><ele>2156.0</ele><time>2026-05-03T15:20:21Z</time></trkpt><trkpt lat="35.994921172591845" lon="-107.0925850545343"><ele>2156.0</ele><time>2026-05-03T15:20:22Z</time></trkpt><trkpt lat="35.994949555465176" lon="-107.09247852959442"><ele>2156.0</ele><time>2026-05-03T15:20:23Z</time></trkpt><trkpt lat="35.99501066940893" lon="-107.0924088025998"><ele>2156.0</ele><time>2026-05-03T15:20:24Z</time></trkpt><trkpt lat="35.995100522498824" lon="-107.092371664684"><ele>2156.0</ele><time>2026-05-03T15:20:25Z</time></trkpt><trkpt lat="35.99518256463981" lon="-107.09232791362774"><ele>2156.0</ele><time>2026-05-03T15:20:26Z</time></trkpt><trkpt lat="35.99519652726296" lon="-107.0922452821395"><ele>2156.0</ele><time>2026-05-03T15:20:28Z</time></trkpt><trkpt lat="35.99517935449035" lon="-107.09205912027947"><ele>2156.0</ele><time>2026-05-03T15:20:30Z</time></trkpt><trkpt lat="35.995167351609034" lon="-107.09193226355082"><ele>2156.0</ele><time>2026-05-03T15:20:31Z</time></trkpt><trkpt lat="35.995190148508144" lon="-107.09183498226955"><ele>2156.0</ele><time>2026-05-03T15:20:32Z</time></trkpt><trkpt lat="35.99523502084802" lon="-107.09172033134075"><ele>2156.0</ele><time>2026-05-03T15:20:33Z</time></trkpt><trkpt lat="35.99526919622848" lon="-107.09160888361829"><ele>2156.0</ele><time>2026-05-03T15:20:34Z</time></trkpt><trkpt lat="35.99529658735017" lon="-107.09148160123775"><ele>2156.6666666666665</ele><time>2026-05-03T15:20:36Z</time></trkpt><trkpt lat="35.99529028813058" lon="-107.091383623263"><ele>2157.333333333333</ele><time>2026-05-03T15:20:37Z</time></trkpt><trkpt lat="35.99523395890645" lon="-107.09129839301323"><ele>2158.0</ele><time>2026-05-03T15:20:38Z</time></trkpt><trkpt lat="35.99515756133529" lon="-107.09120292964245"><ele>2158.6666666666665</ele><time>2026-05-03T15:20:39Z</time></trkpt><trkpt lat="35.9951201144967" lon="-107.09111579877674"><ele>2159.3333333333335</ele><time>2026-05-03T15:20:40Z</time></trkpt><trkpt lat="35.99504962417323" lon="-107.09109035344065"><ele>2160.0</ele><time>2026-05-03T15:20:42Z</time></trkpt><trkpt lat="35.99502832514482" lon="-107.09098594480523"><ele>2160.0</ele><time>2026-05-03T15:20:45Z</time></trkpt><trkpt lat="35.99505817068001" lon="-107.09090415012274"><ele>2160.0</ele><time>2026-05-03T15:20:47Z</time></trkpt><trkpt lat="35.99506139139103" lon="-107.0908146750264"><ele>2160.0</ele><time>2026-05-03T15:20:49Z</time></trkpt><trkpt lat="35.9950299600695" lon="-107.0907405142088"><ele>2160.0</ele><time>2026-05-03T15:20:51Z</time></trkpt><trkpt lat="35.99499309701671" lon="-107.09064501637899"><ele>2160.0</ele><time>2026-05-03T15:20:53Z</time></trkpt><trkpt lat="35.99491763774602" lon="-107.09030879578445"><ele>2161.0</ele><time>2026-05-03T15:20:56Z</time></trkpt><trkpt lat="35.99489906884814" lon="-107.09020882276943"><ele>2162.0</ele><time>2026-05-03T15:20:57Z</time></trkpt><trkpt lat="35.994881195928414" lon="-107.09010237313531"><ele>2163.0</ele><time>2026-05-03T15:20:58Z</time></trkpt><trkpt lat="35.99486784888441" lon="-107.08998927021511"><ele>2164.0</ele><time>2026-05-03T15:20:59Z</time></trkpt><trkpt lat="35.994851083213504" lon="-107.08987893797851"><ele>2165.0</ele><time>2026-05-03T15:21:00Z</time></trkpt><trkpt lat="35.99482671197254" lon="-107.089784091317"><ele>2166.0</ele><time>2026-05-03T15:21:01Z</time></trkpt><trkpt lat="35.99478858674932" lon="-107.08970827201402"><ele>2166.4</ele><time>2026-05-03T15:21:02Z</time></trkpt><trkpt lat="35.99470080466664" lon="-107.08964726243939"><ele>2166.8</ele><time>2026-05-03T15:21:04Z</time></trkpt><trkpt lat="35.99462130334211" lon="-107.0897132062452"><ele>2167.2000000000003</ele><time>2026-05-03T15:21:05Z</time></trkpt><trkpt lat="35.99450246465514" lon="-107.08967840222516"><ele>2167.6</ele><time>2026-05-03T15:21:07Z</time></trkpt><trkpt lat="35.994430793353125" lon="-107.08964339703465"><ele>2168.0</ele><time>2026-05-03T15:21:08Z</time></trkpt><trkpt lat="35.99434463854375" lon="-107.0896125643998"><ele>2168.0</ele><time>2026-05-03T15:21:09Z</time></trkpt><trkpt lat="35.99428669355377" lon="-107.08958186605506"><ele>2168.0</ele><time>2026-05-03T15:21:10Z</time></trkpt><trkpt lat="35.994215444282815" lon="-107.08958612314927"><ele>2168.0</ele><time>2026-05-03T15:21:11Z</time></trkpt><trkpt lat="35.99414538967484" lon="-107.08961119947693"><ele>2168.0</ele><time>2026-05-03T15:21:12Z</time></trkpt><trkpt lat="35.99407580552189" lon="-107.08964556674118"><ele>2168.0</ele><time>2026-05-03T15:21:14Z</time></trkpt><trkpt lat="35.994068330609835" lon="-107.08954864745856"><ele>2168.0</ele><time>2026-05-03T15:21:15Z</time></trkpt><trkpt lat="35.994066590839594" lon="-107.08946078477727"><ele>2168.0</ele><time>2026-05-03T15:21:16Z</time></trkpt><trkpt lat="35.99409500157495" lon="-107.08936571816544"><ele>2168.6</ele><time>2026-05-03T15:21:17Z</time></trkpt><trkpt lat="35.99406585203444" lon="-107.08927793646302"><ele>2169.2000000000003</ele><time>2026-05-03T15:21:19Z</time></trkpt><trkpt lat="35.99395796982606" lon="-107.08925319177953"><ele>2169.8</ele><time>2026-05-03T15:21:21Z</time></trkpt><trkpt lat="35.99396938577774" lon="-107.08908476589338"><ele>2170.4</ele><time>2026-05-03T15:21:23Z</time></trkpt><trkpt lat="35.99398719573108" lon="-107.08898808490187"><ele>2171.0</ele><time>2026-05-03T15:21:24Z</time></trkpt><trkpt lat="35.993993018393425" lon="-107.08888198369579"><ele>2171.0</ele><time>2026-05-03T15:21:26Z</time></trkpt><trkpt lat="35.99407021633151" lon="-107.08879701162017"><ele>2171.0</ele><time>2026-05-03T15:21:28Z</time></trkpt><trkpt lat="35.99407693510399" lon="-107.08870218835948"><ele>2171.0</ele><time>2026-05-03T15:21:30Z</time></trkpt><trkpt lat="35.994122571182174" lon="-107.08864573419055"><ele>2171.0</ele><time>2026-05-03T15:21:31Z</time></trkpt><trkpt lat="35.99420485088609" lon="-107.08859902223634"><ele>2171.0</ele><time>2026-05-03T15:21:32Z</time></trkpt><trkpt lat="35.994316700774654" lon="-107.08853800695954"><ele>2170.6666666666665</ele><time>2026-05-03T15:21:34Z</time></trkpt><trkpt lat="35.99437498273487" lon="-107.08847571436938"><ele>2170.333333333333</ele><time>2026-05-03T15:21:35Z</time></trkpt><trkpt lat="35.99445660118041" lon="-107.08837752106538"><ele>2170.0</ele><time>2026-05-03T15:21:37Z</time></trkpt><trkpt lat="35.99452647558592" lon="-107.0883800872732"><ele>2169.6666666666665</ele><time>2026-05-03T15:21:38Z</time></trkpt><trkpt lat="35.9946210000037" lon="-107.08838988449726"><ele>2169.3333333333335</ele><time>2026-05-03T15:21:39Z</time></trkpt><trkpt lat="35.99470860277265" lon="-107.08840457225826"><ele>2169.0</ele><time>2026-05-03T15:21:40Z</time></trkpt><trkpt lat="35.99478817249651" lon="-107.08839531744972"><ele>2169.0</ele><time>2026-05-03T15:21:41Z</time></trkpt><trkpt lat="35.99485299867234" lon="-107.08838570110127"><ele>2169.0</ele><time>2026-05-03T15:21:42Z</time></trkpt><trkpt lat="35.994934386472636" lon="-107.08841807791065"><ele>2169.0</ele><time>2026-05-03T15:21:44Z</time></trkpt><trkpt lat="35.99501040548128" lon="-107.08835029540667"><ele>2169.0</ele><time>2026-05-03T15:21:46Z</time></trkpt><trkpt lat="35.995088652924466" lon="-107.08831553981636"><ele>2169.0</ele><time>2026-05-03T15:21:47Z</time></trkpt><trkpt lat="35.99515526249715" lon="-107.08829681602077"><ele>2169.0</ele><time>2026-05-03T15:21:48Z</time></trkpt><trkpt lat="35.99520513115102" lon="-107.08822500366013"><ele>2168.6666666666665</ele><time>2026-05-03T15:21:49Z</time></trkpt><trkpt lat="35.995239113177504" lon="-107.08813648155392"><ele>2168.3333333333335</ele><time>2026-05-03T15:21:50Z</time></trkpt><trkpt lat="35.9952668991382" lon="-107.0880612084773"><ele>2168.0</ele><time>2026-05-03T15:21:51Z</time></trkpt><trkpt lat="35.995283332566174" lon="-107.08796201233889"><ele>2167.666666666667</ele><time>2026-05-03T15:21:52Z</time></trkpt><trkpt lat="35.99528587981223" lon="-107.08782749918501"><ele>2167.3333333333335</ele><time>2026-05-03T15:21:53Z</time></trkpt><trkpt lat="35.99529867559531" lon="-107.08769922439694"><ele>2167.0</ele><time>2026-05-03T15:21:54Z</time></trkpt><trkpt lat="35.99531071049433" lon="-107.08758552092914"><ele>2167.0</ele><time>2026-05-03T15:21:55Z</time></trkpt><trkpt lat="35.99530916748164" lon="-107.08747918433521"><ele>2167.0</ele><time>2026-05-03T15:21:56Z</time></trkpt><trkpt lat="35.99531139688327" lon="-107.08739622697574"><ele>2167.0</ele><time>2026-05-03T15:21:57Z</time></trkpt><trkpt lat="35.99531567486671" lon="-107.08729522655402"><ele>2167.0</ele><time>2026-05-03T15:21:58Z</time></trkpt><trkpt lat="35.995317697736795" lon="-107.08720372285451"><ele>2167.0</ele><time>2026-05-03T15:21:59Z</time></trkpt><trkpt lat="35.995339317674954" lon="-107.0870914591844"><ele>2167.0</ele><time>2026-05-03T15:22:01Z</time></trkpt><trkpt lat="35.99528953202994" lon="-107.08700998772788"><ele>2167.0</ele><time>2026-05-03T15:22:03Z</time></trkpt><trkpt lat="35.99531392444775" lon="-107.08689309600594"><ele>2167.0</ele><time>2026-05-03T15:22:05Z</time></trkpt><trkpt lat="35.99543987927827" lon="-107.0866904042463"><ele>2167.0</ele><time>2026-05-03T15:22:06Z</time></trkpt><trkpt lat="35.99544669896857" lon="-107.08659008280243"><ele>2167.0</ele><time>2026-05-03T15:22:07Z</time></trkpt><trkpt lat="35.99544456581155" lon="-107.0865028948334"><ele>2167.2</ele><time>2026-05-03T15:22:08Z</time></trkpt><trkpt lat="35.99543722016537" lon="-107.0863607110715"><ele>2167.3999999999996</ele><time>2026-05-03T15:22:10Z</time></trkpt><trkpt lat="35.995451813278805" lon="-107.08625818079791"><ele>2167.6000000000004</ele><time>2026-05-03T15:22:12Z</time></trkpt><trkpt lat="35.9955026380344" lon="-107.08615524319627"><ele>2167.8</ele><time>2026-05-03T15:22:14Z</time></trkpt><trkpt lat="35.99553840340584" lon="-107.08605232234011"><ele>2168.0</ele><time>2026-05-03T15:22:16Z</time></trkpt><trkpt lat="35.99557441248379" lon="-107.08591186426816"><ele>2168.0</ele><time>2026-05-03T15:22:18Z</time></trkpt><trkpt lat="35.99560321546807" lon="-107.08583168320956"><ele>2168.0</ele><time>2026-05-03T15:22:19Z</time></trkpt><trkpt lat="35.99563185176114" lon="-107.08574641506262"><ele>2168.0</ele><time>2026-05-03T15:22:20Z</time></trkpt><trkpt lat="35.99567103547678" lon="-107.0856354565291"><ele>2168.0</ele><time>2026-05-03T15:22:21Z</time></trkpt><trkpt lat="35.99571198661719" lon="-107.08554671622656"><ele>2168.0</ele><time>2026-05-03T15:22:22Z</time></trkpt><trkpt lat="35.9957535702055" lon="-107.08546039411256"><ele>2168.0</ele><time>2026-05-03T15:22:23Z</time></trkpt><trkpt lat="35.99579600217231" lon="-107.08538497448735"><ele>2166.333333333333</ele><time>2026-05-03T15:22:24Z</time></trkpt><trkpt lat="35.995848837546625" lon="-107.08529781528688"><ele>2164.6666666666665</ele><time>2026-05-03T15:22:27Z</time></trkpt><trkpt lat="35.99594109357289" lon="-107.0852218410042"><ele>2163.0</ele><time>2026-05-03T15:22:29Z</time></trkpt><trkpt lat="35.99603326400997" lon="-107.08518398650286"><ele>2161.3333333333335</ele><time>2026-05-03T15:22:31Z</time></trkpt><trkpt lat="35.996061949897076" lon="-107.08510754823227"><ele>2159.666666666667</ele><time>2026-05-03T15:22:33Z</time></trkpt><trkpt lat="35.996107914791935" lon="-107.0850528126364"><ele>2158.0</ele><time>2026-05-03T15:22:35Z</time></trkpt><trkpt lat="35.99619886769967" lon="-107.08501456319091"><ele>2158.0</ele><time>2026-05-03T15:22:37Z</time></trkpt><trkpt lat="35.9962750066285" lon="-107.08502446809449"><ele>2158.0</ele><time>2026-05-03T15:22:39Z</time></trkpt><trkpt lat="35.99631946676456" lon="-107.08492368805085"><ele>2158.0</ele><time>2026-05-03T15:22:42Z</time></trkpt><trkpt lat="35.996423371528174" lon="-107.0848397951198"><ele>2158.0</ele><time>2026-05-03T15:22:43Z</time></trkpt><trkpt lat="35.99646893458953" lon="-107.08473501248622"><ele>2158.0</ele><time>2026-05-03T15:22:45Z</time></trkpt><trkpt lat="35.99654710517539" lon="-107.08470665820103"><ele>2158.0</ele><time>2026-05-03T15:22:47Z</time></trkpt><trkpt lat="35.99661954355403" lon="-107.08472718041874"><ele>2158.0</ele><time>2026-05-03T15:22:50Z</time></trkpt><trkpt lat="35.99664126353028" lon="-107.08481485943072"><ele>2158.0</ele><time>2026-05-03T15:22:52Z</time></trkpt><trkpt lat="35.996658871185005" lon="-107.08500239472369"><ele>2158.0</ele><time>2026-05-03T15:22:54Z</time></trkpt><trkpt lat="35.99666783833267" lon="-107.08511381490847"><ele>2158.0</ele><time>2026-05-03T15:22:55Z</time></trkpt><trkpt lat="35.99669109397921" lon="-107.08521454247037"><ele>2157.25</ele><time>2026-05-03T15:22:56Z</time></trkpt><trkpt lat="35.99671123683491" lon="-107.08532676389105"><ele>2156.5</ele><time>2026-05-03T15:22:57Z</time></trkpt><trkpt lat="35.99674298376312" lon="-107.08541365499605"><ele>2155.75</ele><time>2026-05-03T15:22:58Z</time></trkpt><trkpt lat="35.99687897630542" lon="-107.08559823504277"><ele>2155.0</ele><time>2026-05-03T15:22:59Z</time></trkpt><trkpt lat="35.99689879664828" lon="-107.08572247411708"><ele>2158.75</ele><time>2026-05-03T15:23:00Z</time></trkpt><trkpt lat="35.996896517085425" lon="-107.08584717229263"><ele>2162.5</ele><time>2026-05-03T15:23:01Z</time></trkpt><trkpt lat="35.9968705153931" lon="-107.08598207882015"><ele>2166.25</ele><time>2026-05-03T15:23:02Z</time></trkpt><trkpt lat="35.99684512352223" lon="-107.08611953711967"><ele>2170.0</ele><time>2026-05-03T15:23:03Z</time></trkpt><trkpt lat="35.99682224059356" lon="-107.08628235057793"><ele>2170.0</ele><time>2026-05-03T15:23:04Z</time></trkpt><trkpt lat="35.99681931019079" lon="-107.08642982616361"><ele>2170.0</ele><time>2026-05-03T15:23:05Z</time></trkpt><trkpt lat="35.99684232617419" lon="-107.08650705519622"><ele>2170.0</ele><time>2026-05-03T15:23:06Z</time></trkpt><trkpt lat="35.99689863588971" lon="-107.08655383214268"><ele>2170.0</ele><time>2026-05-03T15:23:09Z</time></trkpt><trkpt lat="35.996856510509566" lon="-107.08664899250007"><ele>2170.0</ele><time>2026-05-03T15:23:11Z</time></trkpt><trkpt lat="35.99685218612222" lon="-107.08677307803507"><ele>2170.0</ele><time>2026-05-03T15:23:14Z</time></trkpt><trkpt lat="35.99690697995516" lon="-107.08684943080468"><ele>2171.6</ele><time>2026-05-03T15:23:15Z</time></trkpt><trkpt lat="35.99697957675541" lon="-107.08694336216011"><ele>2173.2</ele><time>2026-05-03T15:23:16Z</time></trkpt><trkpt lat="35.99702341061543" lon="-107.0870373175607"><ele>2174.8</ele><time>2026-05-03T15:23:17Z</time></trkpt><trkpt lat="35.99704091568297" lon="-107.08717001081853"><ele>2176.4</ele><time>2026-05-03T15:23:19Z</time></trkpt><trkpt lat="35.997084625338935" lon="-107.08726085117978"><ele>2178.0</ele><time>2026-05-03T15:23:21Z</time></trkpt><trkpt lat="35.99705392331927" lon="-107.08738396841163"><ele>2179.6666666666665</ele><time>2026-05-03T15:23:23Z</time></trkpt><trkpt lat="35.997108921867266" lon="-107.08750391758213"><ele>2181.333333333333</ele><time>2026-05-03T15:23:25Z</time></trkpt><trkpt lat="35.997124666835404" lon="-107.08758344710856"><ele>2183.0</ele><time>2026-05-03T15:23:27Z</time></trkpt><trkpt lat="35.997259502761004" lon="-107.08796733139609"><ele>2183.0</ele><time>2026-05-03T15:23:31Z</time></trkpt><trkpt lat="35.99730028780016" lon="-107.08811515151685"><ele>2183.0</ele><time>2026-05-03T15:23:33Z</time></trkpt><trkpt lat="35.99732349644998" lon="-107.08820833580381"><ele>2183.0</ele><time>2026-05-03T15:23:34Z</time></trkpt><trkpt lat="35.99734269634028" lon="-107.08830839508741"><ele>2183.0</ele><time>2026-05-03T15:23:35Z</time></trkpt><trkpt lat="35.99734665019486" lon="-107.08840967895964"><ele>2183.0</ele><time>2026-05-03T15:23:36Z</time></trkpt><trkpt lat="35.99735170661948" lon="-107.08850515712828"><ele>2183.0</ele><time>2026-05-03T15:23:37Z</time></trkpt><trkpt lat="35.99734286198236" lon="-107.08862699022255"><ele>2180.75</ele><time>2026-05-03T15:23:38Z</time></trkpt><trkpt lat="35.997320938887654" lon="-107.08878773331168"><ele>2178.5</ele><time>2026-05-03T15:23:39Z</time></trkpt><trkpt lat="35.997309551245465" lon="-107.08894447616629"><ele>2176.25</ele><time>2026-05-03T15:23:40Z</time></trkpt><trkpt lat="35.99728064351526" lon="-107.08909308576033"><ele>2174.0</ele><time>2026-05-03T15:23:41Z</time></trkpt><trkpt lat="35.99727556036907" lon="-107.0892199160711"><ele>2172.25</ele><time>2026-05-03T15:23:42Z</time></trkpt><trkpt lat="35.99727308918485" lon="-107.08935032052325"><ele>2170.5</ele><time>2026-05-03T15:23:43Z</time></trkpt><trkpt lat="35.99725627911035" lon="-107.08950376609809"><ele>2168.75</ele><time>2026-05-03T15:23:44Z</time></trkpt><trkpt lat="35.997241867832706" lon="-107.0896382620714"><ele>2167.0</ele><time>2026-05-03T15:23:45Z</time></trkpt><trkpt lat="35.99721212854652" lon="-107.08978524722686"><ele>2166.5</ele><time>2026-05-03T15:23:46Z</time></trkpt><trkpt lat="35.99718554065287" lon="-107.08994118332495"><ele>2166.0</ele><time>2026-05-03T15:23:47Z</time></trkpt><trkpt lat="35.997182724690404" lon="-107.0900955232775"><ele>2165.5</ele><time>2026-05-03T15:23:48Z</time></trkpt><trkpt lat="35.99718766889778" lon="-107.09025710306531"><ele>2165.0</ele><time>2026-05-03T15:23:49Z</time></trkpt><trkpt lat="35.997304527347936" lon="-107.09049982729181"><ele>2165.0</ele><time>2026-05-03T15:23:50Z</time></trkpt><trkpt lat="35.99735961748254" lon="-107.09065429096673"><ele>2165.0</ele><time>2026-05-03T15:23:51Z</time></trkpt><trkpt lat="35.997378239720085" lon="-107.09076272525589"><ele>2165.0</ele><time>2026-05-03T15:23:52Z</time></trkpt><trkpt lat="35.99742139634268" lon="-107.09084092754604"><ele>2165.0</ele><time>2026-05-03T15:23:53Z</time></trkpt><trkpt lat="35.99750856351726" lon="-107.090904272315"><ele>2165.0</ele><time>2026-05-03T15:23:54Z</time></trkpt><trkpt lat="35.99760710753757" lon="-107.09096453309296"><ele>2164.4</ele><time>2026-05-03T15:23:55Z</time></trkpt><trkpt lat="35.997680428452504" lon="-107.09100067933836"><ele>2163.8</ele><time>2026-05-03T15:23:56Z</time></trkpt><trkpt lat="35.99769017879718" lon="-107.0911341549173"><ele>2163.2</ele><time>2026-05-03T15:23:58Z</time></trkpt><trkpt lat="35.99763717709161" lon="-107.09121243845668"><ele>2162.6</ele><time>2026-05-03T15:23:59Z</time></trkpt><trkpt lat="35.99755891096417" lon="-107.09128145422322"><ele>2162.0</ele><time>2026-05-03T15:24:00Z</time></trkpt><trkpt lat="35.997454514773096" lon="-107.09138147117753"><ele>2161.75</ele><time>2026-05-03T15:24:01Z</time></trkpt><trkpt lat="35.99736004202458" lon="-107.09150264839371"><ele>2161.5</ele><time>2026-05-03T15:24:02Z</time></trkpt><trkpt lat="35.99728347621963" lon="-107.09160721899596"><ele>2161.25</ele><time>2026-05-03T15:24:03Z</time></trkpt><trkpt lat="35.99724278558183" lon="-107.09173258044719"><ele>2161.0</ele><time>2026-05-03T15:24:04Z</time></trkpt><trkpt lat="35.99721548454717" lon="-107.09184981395894"><ele>2160.4</ele><time>2026-05-03T15:24:05Z</time></trkpt><trkpt lat="35.99711296522927" lon="-107.0918812622583"><ele>2159.8</ele><time>2026-05-03T15:24:07Z</time></trkpt><trkpt lat="35.99700825738809" lon="-107.09186239822182"><ele>2159.2000000000003</ele><time>2026-05-03T15:24:08Z</time></trkpt><trkpt lat="35.99693002876291" lon="-107.09181383722273"><ele>2158.6</ele><time>2026-05-03T15:24:09Z</time></trkpt><trkpt lat="35.996878326185445" lon="-107.09172308039426"><ele>2158.0</ele><time>2026-05-03T15:24:10Z</time></trkpt><trkpt lat="35.99681439447748" lon="-107.09161095987956"><ele>2158.0</ele><time>2026-05-03T15:24:11Z</time></trkpt><trkpt lat="35.99674674029483" lon="-107.09156133085742"><ele>2158.0</ele><time>2026-05-03T15:24:12Z</time></trkpt><trkpt lat="35.99661039645334" lon="-107.0916196524024"><ele>2158.0</ele><time>2026-05-03T15:24:14Z</time></trkpt><trkpt lat="35.99651387078975" lon="-107.09165033350884"><ele>2158.0</ele><time>2026-05-03T15:24:15Z</time></trkpt><trkpt lat="35.99640570076689" lon="-107.09159500916977"><ele>2158.0</ele><time>2026-05-03T15:24:16Z</time></trkpt><trkpt lat="35.99630900186896" lon="-107.09156941736568"><ele>2157.75</ele><time>2026-05-03T15:24:17Z</time></trkpt><trkpt lat="35.99621761850596" lon="-107.09168808652637"><ele>2157.5</ele><time>2026-05-03T15:24:19Z</time></trkpt><trkpt lat="35.996132594437526" lon="-107.09180822096454"><ele>2157.25</ele><time>2026-05-03T15:24:20Z</time></trkpt><trkpt lat="35.996065058566906" lon="-107.09192155534885"><ele>2157.0</ele><time>2026-05-03T15:24:21Z</time></trkpt><trkpt lat="35.99599156135404" lon="-107.09199562694297"><ele>2157.0</ele><time>2026-05-03T15:24:22Z</time></trkpt><trkpt lat="35.99595167408871" lon="-107.09211140078871"><ele>2157.0</ele><time>2026-05-03T15:24:24Z</time></trkpt><trkpt lat="35.995950408772494" lon="-107.0922044820296"><ele>2157.0</ele><time>2026-05-03T15:24:25Z</time></trkpt><trkpt lat="35.99592949273335" lon="-107.09236037435693"><ele>2157.0</ele><time>2026-05-03T15:24:26Z</time></trkpt><trkpt lat="35.995913025209596" lon="-107.09250604446352"><ele>2157.0</ele><time>2026-05-03T15:24:27Z</time></trkpt><trkpt lat="35.99590546387917" lon="-107.09264577760015"><ele>2156.6</ele><time>2026-05-03T15:24:28Z</time></trkpt><trkpt lat="35.995948378989034" lon="-107.09276662968055"><ele>2156.2</ele><time>2026-05-03T15:24:29Z</time></trkpt><trkpt lat="35.99597020165747" lon="-107.09287599128616"><ele>2155.8</ele><time>2026-05-03T15:24:30Z</time></trkpt><trkpt lat="35.995875012003495" lon="-107.09295979614957"><ele>2155.4</ele><time>2026-05-03T15:24:32Z</time></trkpt><trkpt lat="35.99580762468631" lon="-107.09304515872759"><ele>2155.0</ele><time>2026-05-03T15:24:33Z</time></trkpt><trkpt lat="35.99580024391878" lon="-107.09317877850326"><ele>2154.2</ele><time>2026-05-03T15:24:34Z</time></trkpt><trkpt lat="35.99577664101286" lon="-107.09330976164124"><ele>2153.4</ele><time>2026-05-03T15:24:35Z</time></trkpt><trkpt lat="35.995729848457245" lon="-107.0934265488505"><ele>2152.6</ele><time>2026-05-03T15:24:36Z</time></trkpt><trkpt lat="35.99565723262845" lon="-107.09349770936016"><ele>2151.8</ele><time>2026-05-03T15:24:37Z</time></trkpt><trkpt lat="35.995564595292315" lon="-107.09358503180094"><ele>2151.0</ele><time>2026-05-03T15:24:38Z</time></trkpt><trkpt lat="35.995482090327634" lon="-107.09369318187133"><ele>2151.0</ele><time>2026-05-03T15:24:39Z</time></trkpt><trkpt lat="35.99545862616623" lon="-107.09382869625213"><ele>2151.0</ele><time>2026-05-03T15:24:40Z</time></trkpt><trkpt lat="35.99541197111457" lon="-107.09398626235145"><ele>2151.0</ele><time>2026-05-03T15:24:41Z</time></trkpt><trkpt lat="35.99529233287202" lon="-107.09412141529681"><ele>2151.0</ele><time>2026-05-03T15:24:42Z</time></trkpt><trkpt lat="35.995206811121975" lon="-107.09422101528794"><ele>2150.5</ele><time>2026-05-03T15:24:43Z</time></trkpt><trkpt lat="35.995136056987945" lon="-107.0943283334995"><ele>2150.0</ele><time>2026-05-03T15:24:44Z</time></trkpt><trkpt lat="35.99509143541942" lon="-107.09447011092432"><ele>2149.5</ele><time>2026-05-03T15:24:45Z</time></trkpt><trkpt lat="35.9949945935474" lon="-107.09463459117175"><ele>2149.0</ele><time>2026-05-03T15:24:46Z</time></trkpt><trkpt lat="35.99490729533627" lon="-107.09473214005725"><ele>2148.75</ele><time>2026-05-03T15:24:47Z</time></trkpt><trkpt lat="35.99485374506409" lon="-107.09482525493232"><ele>2148.5</ele><time>2026-05-03T15:24:48Z</time></trkpt><trkpt lat="35.99482082351793" lon="-107.09495540252257"><ele>2148.25</ele><time>2026-05-03T15:24:49Z</time></trkpt><trkpt lat="35.99480678520449" lon="-107.09514265620665"><ele>2148.0</ele><time>2026-05-03T15:24:50Z</time></trkpt><trkpt lat="35.99482007867663" lon="-107.09529500102656"><ele>2148.0</ele><time>2026-05-03T15:24:51Z</time></trkpt><trkpt lat="35.99481033221784" lon="-107.09544896982423"><ele>2148.0</ele><time>2026-05-03T15:24:52Z</time></trkpt><trkpt lat="35.994806483390406" lon="-107.09555274968217"><ele>2148.0</ele><time>2026-05-03T15:24:53Z</time></trkpt><trkpt lat="35.99480229303853" lon="-107.09564090891989"><ele>2148.0</ele><time>2026-05-03T15:24:54Z</time></trkpt><trkpt lat="35.99479280695148" lon="-107.09576294443617"><ele>2148.0</ele><time>2026-05-03T15:24:55Z</time></trkpt><trkpt lat="35.99478112818886" lon="-107.09588241082413"><ele>2148.0</ele><time>2026-05-03T15:24:56Z</time></trkpt><trkpt lat="35.994816813762874" lon="-107.09601971361559"><ele>2148.0</ele><time>2026-05-03T15:24:57Z</time></trkpt><trkpt lat="35.99486487313449" lon="-107.0961831938162"><ele>2148.0</ele><time>2026-05-03T15:24:58Z</time></trkpt><trkpt lat="35.99488588924503" lon="-107.09631663641781"><ele>2148.0</ele><time>2026-05-03T15:24:59Z</time></trkpt><trkpt lat="35.994878450363466" lon="-107.09643237977794"><ele>2148.0</ele><time>2026-05-03T15:25:00Z</time></trkpt><trkpt lat="35.994825782460794" lon="-107.09654996775807"><ele>2148.0</ele><time>2026-05-03T15:25:01Z</time></trkpt><trkpt lat="35.99476057035198" lon="-107.09663799999515"><ele>2148.0</ele><time>2026-05-03T15:25:02Z</time></trkpt><trkpt lat="35.994684269850865" lon="-107.09666254168373"><ele>2148.0</ele><time>2026-05-03T15:25:03Z</time></trkpt><trkpt lat="35.99455318346375" lon="-107.09666434476355"><ele>2148.0</ele><time>2026-05-03T15:25:04Z</time></trkpt><trkpt lat="35.99441899294011" lon="-107.09668469158352"><ele>2147.0</ele><time>2026-05-03T15:25:05Z</time></trkpt><trkpt lat="35.99428108068188" lon="-107.09673813393037"><ele>2146.0</ele><time>2026-05-03T15:25:06Z</time></trkpt><trkpt lat="35.99416260472514" lon="-107.09678833546931"><ele>2145.0</ele><time>2026-05-03T15:25:07Z</time></trkpt><trkpt lat="35.994051028316925" lon="-107.09683444382915"><ele>2144.0</ele><time>2026-05-03T15:25:08Z</time></trkpt><trkpt lat="35.99394951690097" lon="-107.09691165741091"><ele>2144.0</ele><time>2026-05-03T15:25:09Z</time></trkpt><trkpt lat="35.99382840694264" lon="-107.09700334058388"><ele>2144.0</ele><time>2026-05-03T15:25:10Z</time></trkpt><trkpt lat="35.99372037547355" lon="-107.0970533663464"><ele>2144.0</ele><time>2026-05-03T15:25:11Z</time></trkpt><trkpt lat="35.99363662597927" lon="-107.09712259350472"><ele>2144.0</ele><time>2026-05-03T15:25:12Z</time></trkpt><trkpt lat="35.9935809166721" lon="-107.09720865529438"><ele>2144.0</ele><time>2026-05-03T15:25:13Z</time></trkpt><trkpt lat="35.9936030057847" lon="-107.09739920659568"><ele>2143.25</ele><time>2026-05-03T15:25:15Z</time></trkpt><trkpt lat="35.99362407967482" lon="-107.09753659451212"><ele>2142.5</ele><time>2026-05-03T15:25:16Z</time></trkpt><trkpt lat="35.99359727788958" lon="-107.09767148820558"><ele>2141.75</ele><time>2026-05-03T15:25:17Z</time></trkpt><trkpt lat="35.993546595184014" lon="-107.09780956606001"><ele>2141.0</ele><time>2026-05-03T15:25:18Z</time></trkpt><trkpt lat="35.993466219058256" lon="-107.09795276166189"><ele>2141.0</ele><time>2026-05-03T15:25:19Z</time></trkpt><trkpt lat="35.99337186724693" lon="-107.09807758963886"><ele>2141.0</ele><time>2026-05-03T15:25:20Z</time></trkpt><trkpt lat="35.993237557812925" lon="-107.09820213261236"><ele>2141.0</ele><time>2026-05-03T15:25:21Z</time></trkpt><trkpt lat="35.99313076565709" lon="-107.09833742813709"><ele>2140.6</ele><time>2026-05-03T15:25:22Z</time></trkpt><trkpt lat="35.99305196338908" lon="-107.09842040856195"><ele>2140.2</ele><time>2026-05-03T15:25:23Z</time></trkpt><trkpt lat="35.99299953611649" lon="-107.09849109733553"><ele>2139.8</ele><time>2026-05-03T15:25:24Z</time></trkpt><trkpt lat="35.99293740300322" lon="-107.09859657641265"><ele>2139.4</ele><time>2026-05-03T15:25:25Z</time></trkpt><trkpt lat="35.99288339845488" lon="-107.09871086477958"><ele>2139.0</ele><time>2026-05-03T15:25:26Z</time></trkpt><trkpt lat="35.99284138183349" lon="-107.09882261582067"><ele>2139.0</ele><time>2026-05-03T15:25:27Z</time></trkpt><trkpt lat="35.99280864357731" lon="-107.09896800056327"><ele>2139.0</ele><time>2026-05-03T15:25:28Z</time></trkpt><trkpt lat="35.99281367687692" lon="-107.09909618971173"><ele>2139.0</ele><time>2026-05-03T15:25:29Z</time></trkpt><trkpt lat="35.9928115026984" lon="-107.0992315176848"><ele>2139.0</ele><time>2026-05-03T15:25:30Z</time></trkpt><trkpt lat="35.99278037046118" lon="-107.09937290122141"><ele>2138.5</ele><time>2026-05-03T15:25:31Z</time></trkpt><trkpt lat="35.992717711676015" lon="-107.09953008646147"><ele>2138.0</ele><time>2026-05-03T15:25:32Z</time></trkpt><trkpt lat="35.9926643411854" lon="-107.09968461645238"><ele>2137.5</ele><time>2026-05-03T15:25:33Z</time></trkpt><trkpt lat="35.99258923716747" lon="-107.09985668092166"><ele>2137.0</ele><time>2026-05-03T15:25:34Z</time></trkpt><trkpt lat="35.99251731178619" lon="-107.10001155170308"><ele>2136.5</ele><time>2026-05-03T15:25:35Z</time></trkpt><trkpt lat="35.99245108827452" lon="-107.10012133115929"><ele>2136.0</ele><time>2026-05-03T15:25:36Z</time></trkpt><trkpt lat="35.99236364241287" lon="-107.10022750667856"><ele>2135.5</ele><time>2026-05-03T15:25:37Z</time></trkpt><trkpt lat="35.9922717865313" lon="-107.10029785728089"><ele>2135.0</ele><time>2026-05-03T15:25:38Z</time></trkpt><trkpt lat="35.99214737287267" lon="-107.10032345802065"><ele>2135.0</ele><time>2026-05-03T15:25:39Z</time></trkpt><trkpt lat="35.99201823478093" lon="-107.10031418809046"><ele>2135.0</ele><time>2026-05-03T15:25:40Z</time></trkpt><trkpt lat="35.99189211805931" lon="-107.10027646876277"><ele>2135.0</ele><time>2026-05-03T15:25:41Z</time></trkpt><trkpt lat="35.99175662262959" lon="-107.1002268230182"><ele>2135.0</ele><time>2026-05-03T15:25:42Z</time></trkpt><trkpt lat="35.99160482242123" lon="-107.1002158967785"><ele>2133.75</ele><time>2026-05-03T15:25:43Z</time></trkpt><trkpt lat="35.99146046304887" lon="-107.10022445901612"><ele>2132.5</ele><time>2026-05-03T15:25:44Z</time></trkpt><trkpt lat="35.991344671147914" lon="-107.10020911190655"><ele>2131.25</ele><time>2026-05-03T15:25:45Z</time></trkpt><trkpt lat="35.99123852167241" lon="-107.10015975556175"><ele>2130.0</ele><time>2026-05-03T15:25:46Z</time></trkpt><trkpt lat="35.99112545208516" lon="-107.10009256709897"><ele>2130.0</ele><time>2026-05-03T15:25:47Z</time></trkpt><trkpt lat="35.9910054716477" lon="-107.10003811447115"><ele>2130.0</ele><time>2026-05-03T15:25:48Z</time></trkpt><trkpt lat="35.990887353325675" lon="-107.10003853411581"><ele>2130.0</ele><time>2026-05-03T15:25:49Z</time></trkpt><trkpt lat="35.990744606271015" lon="-107.10006399959471"><ele>2130.0</ele><time>2026-05-03T15:25:50Z</time></trkpt><trkpt lat="35.99059545350398" lon="-107.10008815926236"><ele>2129.6666666666665</ele><time>2026-05-03T15:25:51Z</time></trkpt><trkpt lat="35.99044764291321" lon="-107.10010549416262"><ele>2129.333333333333</ele><time>2026-05-03T15:25:52Z</time></trkpt><trkpt lat="35.99029147697681" lon="-107.10010155966349"><ele>2129.0</ele><time>2026-05-03T15:25:53Z</time></trkpt><trkpt lat="35.99013425578574" lon="-107.10009324882868"><ele>2128.6666666666665</ele><time>2026-05-03T15:25:54Z</time></trkpt><trkpt lat="35.98997067712047" lon="-107.10008545704368"><ele>2128.3333333333335</ele><time>2026-05-03T15:25:55Z</time></trkpt><trkpt lat="35.98980585922041" lon="-107.10008130495835"><ele>2128.0</ele><time>2026-05-03T15:25:56Z</time></trkpt><trkpt lat="35.98965020957374" lon="-107.10007662700677"><ele>2128.0</ele><time>2026-05-03T15:25:57Z</time></trkpt><trkpt lat="35.98951444374612" lon="-107.10009444702239"><ele>2128.0</ele><time>2026-05-03T15:25:58Z</time></trkpt><trkpt lat="35.98936475178342" lon="-107.10010465188161"><ele>2128.0</ele><time>2026-05-03T15:25:59Z</time></trkpt><trkpt lat="35.98921275931955" lon="-107.10011785886243"><ele>2128.0</ele><time>2026-05-03T15:26:00Z</time></trkpt><trkpt lat="35.989073484525015" lon="-107.10012348141895"><ele>2127.666666666667</ele><time>2026-05-03T15:26:01Z</time></trkpt><trkpt lat="35.98892212906132" lon="-107.10012036404532"><ele>2127.3333333333335</ele><time>2026-05-03T15:26:02Z</time></trkpt><trkpt lat="35.98873230597622" lon="-107.10009336786986"><ele>2127.0</ele><time>2026-05-03T15:26:03Z</time></trkpt><trkpt lat="35.98854551763049" lon="-107.10002948614301"><ele>2127.0</ele><time>2026-05-03T15:26:04Z</time></trkpt><trkpt lat="35.98836590940396" lon="-107.09997933902474"><ele>2127.0</ele><time>2026-05-03T15:26:05Z</time></trkpt><trkpt lat="35.9882124323622" lon="-107.09998644914474"><ele>2127.0</ele><time>2026-05-03T15:26:06Z</time></trkpt><trkpt lat="35.98803981844173" lon="-107.10000318977643"><ele>2126.5</ele><time>2026-05-03T15:26:07Z</time></trkpt><trkpt lat="35.98787570821068" lon="-107.09999852064807"><ele>2126.0</ele><time>2026-05-03T15:26:08Z</time></trkpt><trkpt lat="35.98776969279881" lon="-107.10000209404205"><ele>2125.5</ele><time>2026-05-03T15:26:09Z</time></trkpt><trkpt lat="35.98768746829508" lon="-107.10003503712684"><ele>2125.0</ele><time>2026-05-03T15:26:10Z</time></trkpt><trkpt lat="35.9876132938893" lon="-107.10011364174203"><ele>2125.0</ele><time>2026-05-03T15:26:11Z</time></trkpt><trkpt lat="35.98752477373236" lon="-107.10018858597181"><ele>2125.0</ele><time>2026-05-03T15:26:12Z</time></trkpt><trkpt lat="35.987426732361456" lon="-107.10025034488993"><ele>2125.0</ele><time>2026-05-03T15:26:13Z</time></trkpt><trkpt lat="35.98732269194743" lon="-107.10029646650491"><ele>2125.0</ele><time>2026-05-03T15:26:14Z</time></trkpt><trkpt lat="35.98724227479636" lon="-107.10035134996592"><ele>2125.0</ele><time>2026-05-03T15:26:15Z</time></trkpt><trkpt lat="35.98717145386742" lon="-107.10040739982126"><ele>2125.2</ele><time>2026-05-03T15:26:16Z</time></trkpt><trkpt lat="35.98710905616869" lon="-107.10045886907196"><ele>2125.4</ele><time>2026-05-03T15:26:17Z</time></trkpt><trkpt lat="35.98701522529546" lon="-107.10052212319592"><ele>2125.6</ele><time>2026-05-03T15:26:19Z</time></trkpt><trkpt lat="35.98692285815476" lon="-107.10059119008952"><ele>2125.8</ele><time>2026-05-03T15:26:21Z</time></trkpt><trkpt lat="35.98681833650091" lon="-107.1006303244372"><ele>2126.0</ele><time>2026-05-03T15:26:22Z</time></trkpt><trkpt lat="35.98674232828437" lon="-107.10066085219425"><ele>2126.0</ele><time>2026-05-03T15:26:23Z</time></trkpt><trkpt lat="35.9866567626783" lon="-107.10069638591818"><ele>2126.0</ele><time>2026-05-03T15:26:24Z</time></trkpt><trkpt lat="35.98656511496123" lon="-107.10072752553242"><ele>2126.0</ele><time>2026-05-03T15:26:25Z</time></trkpt><trkpt lat="35.98648639742289" lon="-107.10074925115134"><ele>2126.0</ele><time>2026-05-03T15:26:26Z</time></trkpt><trkpt lat="35.98642257141941" lon="-107.10077423762137"><ele>2126.0</ele><time>2026-05-03T15:26:27Z</time></trkpt><trkpt lat="35.98635200217989" lon="-107.10078340128425"><ele>2126.0</ele><time>2026-05-03T15:26:28Z</time></trkpt><trkpt lat="35.98628641798203" lon="-107.10077902612693"><ele>2125.6666666666665</ele><time>2026-05-03T15:26:29Z</time></trkpt><trkpt lat="35.986175173940715" lon="-107.10078673784659"><ele>2125.333333333333</ele><time>2026-05-03T15:26:31Z</time></trkpt><trkpt lat="35.98610488474216" lon="-107.1007801346871"><ele>2125.0</ele><time>2026-05-03T15:26:32Z</time></trkpt><trkpt lat="35.98602375874258" lon="-107.10077197790409"><ele>2124.6666666666665</ele><time>2026-05-03T15:26:33Z</time></trkpt><trkpt lat="35.98593372823139" lon="-107.10077299261764"><ele>2124.3333333333335</ele><time>2026-05-03T15:26:34Z</time></trkpt><trkpt lat="35.98584226636162" lon="-107.10078047572519"><ele>2124.0</ele><time>2026-05-03T15:26:35Z</time></trkpt><trkpt lat="35.9857466725991" lon="-107.10076604162145"><ele>2123.8333333333335</ele><time>2026-05-03T15:26:36Z</time></trkpt><trkpt lat="35.98565118151736" lon="-107.10074873508404"><ele>2123.6666666666665</ele><time>2026-05-03T15:26:37Z</time></trkpt><trkpt lat="35.98558481517457" lon="-107.10077286235713"><ele>2123.5</ele><time>2026-05-03T15:26:38Z</time></trkpt><trkpt lat="35.98552022234398" lon="-107.10085400342501"><ele>2123.333333333333</ele><time>2026-05-03T15:26:39Z</time></trkpt><trkpt lat="35.98545128473956" lon="-107.10094066369298"><ele>2123.1666666666665</ele><time>2026-05-03T15:26:40Z</time></trkpt><trkpt lat="35.98537152836106" lon="-107.10098792231128"><ele>2123.0</ele><time>2026-05-03T15:26:41Z</time></trkpt><trkpt lat="35.98530564464863" lon="-107.1010059049126"><ele>2123.0</ele><time>2026-05-03T15:26:43Z</time></trkpt><trkpt lat="35.985239812923105" lon="-107.10110859716458"><ele>2123.0</ele><time>2026-05-03T15:26:44Z</time></trkpt><trkpt lat="35.985142612671176" lon="-107.10118303929308"><ele>2123.0</ele><time>2026-05-03T15:26:45Z</time></trkpt><trkpt lat="35.98506437251253" lon="-107.10127402186761"><ele>2123.0</ele><time>2026-05-03T15:26:46Z</time></trkpt><trkpt lat="35.98499197216688" lon="-107.10136612663621"><ele>2123.0</ele><time>2026-05-03T15:26:47Z</time></trkpt><trkpt lat="35.984912548688676" lon="-107.10144142000543"><ele>2122.8</ele><time>2026-05-03T15:26:48Z</time></trkpt><trkpt lat="35.98486003021146" lon="-107.10151441003701"><ele>2122.6000000000004</ele><time>2026-05-03T15:26:49Z</time></trkpt><trkpt lat="35.984806052126636" lon="-107.10162867209152"><ele>2122.3999999999996</ele><time>2026-05-03T15:26:50Z</time></trkpt><trkpt lat="35.98472117547802" lon="-107.10171712836085"><ele>2122.2</ele><time>2026-05-03T15:26:51Z</time></trkpt><trkpt lat="35.984611309443814" lon="-107.10181515518407"><ele>2122.0</ele><time>2026-05-03T15:26:52Z</time></trkpt><trkpt lat="35.984531338293294" lon="-107.10190862033727"><ele>2122.0</ele><time>2026-05-03T15:26:53Z</time></trkpt><trkpt lat="35.98450478622017" lon="-107.10199573525455"><ele>2122.0</ele><time>2026-05-03T15:26:54Z</time></trkpt><trkpt lat="35.98447120524235" lon="-107.10208555473801"><ele>2122.0</ele><time>2026-05-03T15:26:55Z</time></trkpt><trkpt lat="35.98442315494887" lon="-107.10216598863167"><ele>2122.0</ele><time>2026-05-03T15:26:56Z</time></trkpt><trkpt lat="35.98436264253183" lon="-107.10223940627296"><ele>2122.0</ele><time>2026-05-03T15:26:57Z</time></trkpt><trkpt lat="35.98431125167688" lon="-107.102315323"><ele>2122.0</ele><time>2026-05-03T15:26:58Z</time></trkpt><trkpt lat="35.98426416612153" lon="-107.10239889655725"><ele>2122.0</ele><time>2026-05-03T15:27:00Z</time></trkpt><trkpt lat="35.9843436080179" lon="-107.10245189154098"><ele>2122.0</ele><time>2026-05-03T15:27:02Z</time></trkpt><trkpt lat="35.98443696055069" lon="-107.10249454653078"><ele>2122.0</ele><time>2026-05-03T15:27:03Z</time></trkpt><trkpt lat="35.984547681595174" lon="-107.10256940262622"><ele>2122.0</ele><time>2026-05-03T15:27:04Z</time></trkpt><trkpt lat="35.98468317959696" lon="-107.10265871620184"><ele>2122.0</ele><time>2026-05-03T15:27:05Z</time></trkpt><trkpt lat="35.98480137743308" lon="-107.1027442372204"><ele>2122.0</ele><time>2026-05-03T15:27:06Z</time></trkpt><trkpt lat="35.984871509359174" lon="-107.10281879470898"><ele>2122.0</ele><time>2026-05-03T15:27:07Z</time></trkpt><trkpt lat="35.98491003671827" lon="-107.10288345398567"><ele>2122.0</ele><time>2026-05-03T15:27:08Z</time></trkpt><trkpt lat="35.9849122667" lon="-107.10299055007202"><ele>2122.0</ele><time>2026-05-03T15:27:09Z</time></trkpt><trkpt lat="35.98491166323656" lon="-107.10309883464805"><ele>2122.0</ele><time>2026-05-03T15:27:10Z</time></trkpt><trkpt lat="35.98490602049925" lon="-107.10320415792476"><ele>2122.0</ele><time>2026-05-03T15:27:11Z</time></trkpt><trkpt lat="35.98495831097171" lon="-107.10327923955977"><ele>2122.0</ele><time>2026-05-03T15:27:13Z</time></trkpt><trkpt lat="35.98500951240915" lon="-107.10334383804674"><ele>2122.0</ele><time>2026-05-03T15:27:14Z</time></trkpt><trkpt lat="35.985075782496125" lon="-107.10335169369567"><ele>2122.0</ele><time>2026-05-03T15:27:15Z</time></trkpt><trkpt lat="35.98517390106732" lon="-107.10331202984291"><ele>2122.0</ele><time>2026-05-03T15:27:16Z</time></trkpt><trkpt lat="35.985285766182145" lon="-107.1032786493678"><ele>2121.8333333333335</ele><time>2026-05-03T15:27:17Z</time></trkpt><trkpt lat="35.985379590034185" lon="-107.10325396183605"><ele>2121.666666666667</ele><time>2026-05-03T15:27:18Z</time></trkpt><trkpt lat="35.98545116013174" lon="-107.10325955094372"><ele>2121.5</ele><time>2026-05-03T15:27:19Z</time></trkpt><trkpt lat="35.985545225440966" lon="-107.10329169453182"><ele>2121.3333333333335</ele><time>2026-05-03T15:27:20Z</time></trkpt><trkpt lat="35.98564503587682" lon="-107.10331286581716"><ele>2121.1666666666665</ele><time>2026-05-03T15:27:21Z</time></trkpt><trkpt lat="35.98571693940457" lon="-107.10328753808808"><ele>2121.0</ele><time>2026-05-03T15:27:22Z</time></trkpt><trkpt lat="35.985812589910545" lon="-107.10321981493941"><ele>2121.2</ele><time>2026-05-03T15:27:23Z</time></trkpt><trkpt lat="35.98592209859312" lon="-107.10312621599635"><ele>2121.3999999999996</ele><time>2026-05-03T15:27:24Z</time></trkpt><trkpt lat="35.98604912355021" lon="-107.10308848214832"><ele>2121.6</ele><time>2026-05-03T15:27:25Z</time></trkpt><trkpt lat="35.98615245536829" lon="-107.10307700450534"><ele>2121.7999999999997</ele><time>2026-05-03T15:27:26Z</time></trkpt><trkpt lat="35.98621316674706" lon="-107.10302536263983"><ele>2122.0</ele><time>2026-05-03T15:27:27Z</time></trkpt><trkpt lat="35.98625118896713" lon="-107.10295400652855"><ele>2122.0</ele><time>2026-05-03T15:27:28Z</time></trkpt><trkpt lat="35.986291790844206" lon="-107.10285583128956"><ele>2122.0</ele><time>2026-05-03T15:27:29Z</time></trkpt><trkpt lat="35.98632322134115" lon="-107.10275521641233"><ele>2122.0</ele><time>2026-05-03T15:27:30Z</time></trkpt><trkpt lat="35.986316185636035" lon="-107.10265771824872"><ele>2122.0</ele><time>2026-05-03T15:27:31Z</time></trkpt><trkpt lat="35.986353742219016" lon="-107.10257454784602"><ele>2122.0</ele><time>2026-05-03T15:27:32Z</time></trkpt><trkpt lat="35.9864449040637" lon="-107.10251595846731"><ele>2122.0</ele><time>2026-05-03T15:27:33Z</time></trkpt><trkpt lat="35.98653571021199" lon="-107.10245456704868"><ele>2122.2</ele><time>2026-05-03T15:27:34Z</time></trkpt><trkpt lat="35.986604187492524" lon="-107.10235248392873"><ele>2122.3999999999996</ele><time>2026-05-03T15:27:35Z</time></trkpt><trkpt lat="35.986669818344524" lon="-107.10228028839342"><ele>2122.6000000000004</ele><time>2026-05-03T15:27:36Z</time></trkpt><trkpt lat="35.98675428167932" lon="-107.10222284971404"><ele>2122.8</ele><time>2026-05-03T15:27:37Z</time></trkpt><trkpt lat="35.98686345244746" lon="-107.102179523862"><ele>2123.0</ele><time>2026-05-03T15:27:38Z</time></trkpt><trkpt lat="35.98696982631348" lon="-107.10214392272297"><ele>2123.0</ele><time>2026-05-03T15:27:39Z</time></trkpt><trkpt lat="35.987069961474134" lon="-107.1020906022626"><ele>2123.0</ele><time>2026-05-03T15:27:40Z</time></trkpt><trkpt lat="35.987154032108585" lon="-107.10200454327384"><ele>2123.0</ele><time>2026-05-03T15:27:41Z</time></trkpt><trkpt lat="35.98724839927404" lon="-107.10189132438423"><ele>2123.0</ele><time>2026-05-03T15:27:42Z</time></trkpt><trkpt lat="35.987374753574585" lon="-107.10179923031504"><ele>2123.0</ele><time>2026-05-03T15:27:43Z</time></trkpt><trkpt lat="35.987510266007625" lon="-107.10176441148235"><ele>2123.0</ele><time>2026-05-03T15:27:44Z</time></trkpt><trkpt lat="35.987627157166436" lon="-107.10175954360903"><ele>2123.0</ele><time>2026-05-03T15:27:45Z</time></trkpt><trkpt lat="35.9877168665204" lon="-107.10177933579403"><ele>2123.0</ele><time>2026-05-03T15:27:46Z</time></trkpt><trkpt lat="35.98781596988819" lon="-107.10177467936889"><ele>2123.0</ele><time>2026-05-03T15:27:47Z</time></trkpt><trkpt lat="35.98790554743915" lon="-107.10176227534376"><ele>2123.2000000000003</ele><time>2026-05-03T15:27:48Z</time></trkpt><trkpt lat="35.9880035957598" lon="-107.10179215664995"><ele>2123.4</ele><time>2026-05-03T15:27:49Z</time></trkpt><trkpt lat="35.988101740334635" lon="-107.10184175894578"><ele>2123.6000000000004</ele><time>2026-05-03T15:27:50Z</time></trkpt><trkpt lat="35.988197080006564" lon="-107.10188814466774"><ele>2123.8</ele><time>2026-05-03T15:27:51Z</time></trkpt><trkpt lat="35.98831123721864" lon="-107.10191335893987"><ele>2124.0</ele><time>2026-05-03T15:27:52Z</time></trkpt><trkpt lat="35.98843861803796" lon="-107.10190663056706"><ele>2124.6</ele><time>2026-05-03T15:27:53Z</time></trkpt><trkpt lat="35.98856056155281" lon="-107.1019183415913"><ele>2125.2</ele><time>2026-05-03T15:27:54Z</time></trkpt><trkpt lat="35.988663142481045" lon="-107.10196642680808"><ele>2125.7999999999997</ele><time>2026-05-03T15:27:55Z</time></trkpt><trkpt lat="35.98874464115437" lon="-107.10204684499584"><ele>2126.4</ele><time>2026-05-03T15:27:56Z</time></trkpt><trkpt lat="35.98881218588191" lon="-107.10214947436148"><ele>2127.0</ele><time>2026-05-03T15:27:57Z</time></trkpt><trkpt lat="35.988860499306405" lon="-107.10220414233504"><ele>2127.0</ele><time>2026-05-03T15:27:58Z</time></trkpt><trkpt lat="35.98899733629914" lon="-107.1021575239325"><ele>2127.0</ele><time>2026-05-03T15:28:00Z</time></trkpt><trkpt lat="35.98907602629631" lon="-107.10211780597274"><ele>2127.0</ele><time>2026-05-03T15:28:01Z</time></trkpt><trkpt lat="35.98915504565742" lon="-107.10205833381626"><ele>2127.0</ele><time>2026-05-03T15:28:02Z</time></trkpt><trkpt lat="35.989216214844205" lon="-107.10200181709696"><ele>2127.0</ele><time>2026-05-03T15:28:03Z</time></trkpt><trkpt lat="35.9892798727694" lon="-107.10198686632886"><ele>2127.0</ele><time>2026-05-03T15:28:04Z</time></trkpt><trkpt lat="35.989368136509334" lon="-107.10204218643491"><ele>2127.0</ele><time>2026-05-03T15:28:05Z</time></trkpt><trkpt lat="35.9894525411475" lon="-107.1021678695243"><ele>2127.0</ele><time>2026-05-03T15:28:06Z</time></trkpt><trkpt lat="35.98950295394776" lon="-107.10227502800599"><ele>2127.0</ele><time>2026-05-03T15:28:07Z</time></trkpt><trkpt lat="35.98955248487998" lon="-107.10236331994678"><ele>2127.0</ele><time>2026-05-03T15:28:08Z</time></trkpt><trkpt lat="35.98958699683168" lon="-107.10248001316292"><ele>2126.7999999999997</ele><time>2026-05-03T15:28:10Z</time></trkpt><trkpt lat="35.989691523519475" lon="-107.10256752185377"><ele>2126.6</ele><time>2026-05-03T15:28:12Z</time></trkpt><trkpt lat="35.98980014096009" lon="-107.10256775387204"><ele>2126.3999999999996</ele><time>2026-05-03T15:28:14Z</time></trkpt><trkpt lat="35.98989754501554" lon="-107.10256220570643"><ele>2126.2</ele><time>2026-05-03T15:28:16Z</time></trkpt><trkpt lat="35.98996797850899" lon="-107.10253678162624"><ele>2126.0</ele><time>2026-05-03T15:28:17Z</time></trkpt><trkpt lat="35.990061443288724" lon="-107.10251487242775"><ele>2126.6</ele><time>2026-05-03T15:28:18Z</time></trkpt><trkpt lat="35.99013774453265" lon="-107.10254605625698"><ele>2127.2</ele><time>2026-05-03T15:28:19Z</time></trkpt><trkpt lat="35.99021631531001" lon="-107.10261706111689"><ele>2127.8</ele><time>2026-05-03T15:28:20Z</time></trkpt><trkpt lat="35.99029306092732" lon="-107.1026908013586"><ele>2128.4</ele><time>2026-05-03T15:28:21Z</time></trkpt><trkpt lat="35.99038341761565" lon="-107.10274914636673"><ele>2129.0</ele><time>2026-05-03T15:28:22Z</time></trkpt><trkpt lat="35.99048683619609" lon="-107.10281140693203"><ele>2129.0</ele><time>2026-05-03T15:28:23Z</time></trkpt><trkpt lat="35.99059365771463" lon="-107.10286586484561"><ele>2129.0</ele><time>2026-05-03T15:28:24Z</time></trkpt><trkpt lat="35.99070590452103" lon="-107.10293153026817"><ele>2129.0</ele><time>2026-05-03T15:28:25Z</time></trkpt><trkpt lat="35.99080978715045" lon="-107.10297182989268"><ele>2129.0</ele><time>2026-05-03T15:28:26Z</time></trkpt><trkpt lat="35.99094391885664" lon="-107.10298778731428"><ele>2129.5</ele><time>2026-05-03T15:28:27Z</time></trkpt><trkpt lat="35.991078148922846" lon="-107.10298196781596"><ele>2130.0</ele><time>2026-05-03T15:28:28Z</time></trkpt><trkpt lat="35.99123847812106" lon="-107.10301794658496"><ele>2130.5</ele><time>2026-05-03T15:28:29Z</time></trkpt><trkpt lat="35.991379673669286" lon="-107.1030844510455"><ele>2131.0</ele><time>2026-05-03T15:28:30Z</time></trkpt><trkpt lat="35.991478914513294" lon="-107.10316690717792"><ele>2130.8</ele><time>2026-05-03T15:28:31Z</time></trkpt><trkpt lat="35.99156607158198" lon="-107.10326845975601"><ele>2130.6</ele><time>2026-05-03T15:28:32Z</time></trkpt><trkpt lat="35.991629059162484" lon="-107.10336923830545"><ele>2130.4</ele><time>2026-05-03T15:28:33Z</time></trkpt><trkpt lat="35.99173496851096" lon="-107.10341639037152"><ele>2130.2</ele><time>2026-05-03T15:28:35Z</time></trkpt><trkpt lat="35.991826328112516" lon="-107.10337874445548"><ele>2130.0</ele><time>2026-05-03T15:28:36Z</time></trkpt><trkpt lat="35.99191648091207" lon="-107.10331037039708"><ele>2130.5</ele><time>2026-05-03T15:28:37Z</time></trkpt><trkpt lat="35.99199583617942" lon="-107.10322999438421"><ele>2131.0</ele><time>2026-05-03T15:28:38Z</time></trkpt><trkpt lat="35.9920789733801" lon="-107.1031895625845"><ele>2131.5</ele><time>2026-05-03T15:28:39Z</time></trkpt><trkpt lat="35.99220415227618" lon="-107.1031704002935"><ele>2132.0</ele><time>2026-05-03T15:28:40Z</time></trkpt><trkpt lat="35.992337214024545" lon="-107.10318216864921"><ele>2132.0</ele><time>2026-05-03T15:28:41Z</time></trkpt><trkpt lat="35.9924670105418" lon="-107.10323087574541"><ele>2132.0</ele><time>2026-05-03T15:28:42Z</time></trkpt><trkpt lat="35.992606692108154" lon="-107.10327672267046"><ele>2132.0</ele><time>2026-05-03T15:28:43Z</time></trkpt><trkpt lat="35.992760631559804" lon="-107.10327798980961"><ele>2132.0</ele><time>2026-05-03T15:28:44Z</time></trkpt><trkpt lat="35.992894478442985" lon="-107.1032715049843"><ele>2132.0</ele><time>2026-05-03T15:28:45Z</time></trkpt><trkpt lat="35.99298675089474" lon="-107.10325413600178"><ele>2132.0</ele><time>2026-05-03T15:28:46Z</time></trkpt><trkpt lat="35.99307620728806" lon="-107.1032419184786"><ele>2132.0</ele><time>2026-05-03T15:28:47Z</time></trkpt><trkpt lat="35.993166445361794" lon="-107.10325540431911"><ele>2132.0</ele><time>2026-05-03T15:28:48Z</time></trkpt><trkpt lat="35.9932721417416" lon="-107.10328021460643"><ele>2132.0</ele><time>2026-05-03T15:28:49Z</time></trkpt><trkpt lat="35.99325977934107" lon="-107.10335672510499"><ele>2132.0</ele><time>2026-05-03T15:28:51Z</time></trkpt><trkpt lat="35.99321145196658" lon="-107.10340975819096"><ele>2132.0</ele><time>2026-05-03T15:28:52Z</time></trkpt><trkpt lat="35.99316403624398" lon="-107.10355681847855"><ele>2132.0</ele><time>2026-05-03T15:28:54Z</time></trkpt><trkpt lat="35.99317684118559" lon="-107.1036558870209"><ele>2132.0</ele><time>2026-05-03T15:28:55Z</time></trkpt><trkpt lat="35.99321738510621" lon="-107.1037658115445"><ele>2132.0</ele><time>2026-05-03T15:28:56Z</time></trkpt><trkpt lat="35.993235190497764" lon="-107.10386845293223"><ele>2132.0</ele><time>2026-05-03T15:28:57Z</time></trkpt><trkpt lat="35.9932031124476" lon="-107.10399411068155"><ele>2132.0</ele><time>2026-05-03T15:28:59Z</time></trkpt><trkpt lat="35.993271244713554" lon="-107.1040493092991"><ele>2132.0</ele><time>2026-05-03T15:29:00Z</time></trkpt><trkpt lat="35.99337486707006" lon="-107.10411933063227"><ele>2132.0</ele><time>2026-05-03T15:29:01Z</time></trkpt><trkpt lat="35.99348997184334" lon="-107.10417672719136"><ele>2132.0</ele><time>2026-05-03T15:29:02Z</time></trkpt><trkpt lat="35.99361515787481" lon="-107.10424614051841"><ele>2132.6666666666665</ele><time>2026-05-03T15:29:03Z</time></trkpt><trkpt lat="35.993748419239346" lon="-107.10432413603912"><ele>2133.3333333333335</ele><time>2026-05-03T15:29:04Z</time></trkpt><trkpt lat="35.9938860516154" lon="-107.1044394406174"><ele>2134.0</ele><time>2026-05-03T15:29:05Z</time></trkpt><trkpt lat="35.994008039369255" lon="-107.10454601097994"><ele>2134.0</ele><time>2026-05-03T15:29:06Z</time></trkpt><trkpt lat="35.994108112107995" lon="-107.10464157833977"><ele>2134.0</ele><time>2026-05-03T15:29:07Z</time></trkpt><trkpt lat="35.994233532498455" lon="-107.10473367909397"><ele>2134.0</ele><time>2026-05-03T15:29:08Z</time></trkpt><trkpt lat="35.99438980715472" lon="-107.10482841105312"><ele>2134.0</ele><time>2026-05-03T15:29:09Z</time></trkpt><trkpt lat="35.99451129932224" lon="-107.10489391750558"><ele>2134.25</ele><time>2026-05-03T15:29:10Z</time></trkpt><trkpt lat="35.99462596965903" lon="-107.10490958067633"><ele>2134.5</ele><time>2026-05-03T15:29:11Z</time></trkpt><trkpt lat="35.99477689069519" lon="-107.10491484903244"><ele>2134.75</ele><time>2026-05-03T15:29:12Z</time></trkpt><trkpt lat="35.99491413574715" lon="-107.10492167031268"><ele>2135.0</ele><time>2026-05-03T15:29:13Z</time></trkpt><trkpt lat="35.99503192559057" lon="-107.1049183280777"><ele>2136.0</ele><time>2026-05-03T15:29:14Z</time></trkpt><trkpt lat="35.995147874088744" lon="-107.10492652510715"><ele>2137.0</ele><time>2026-05-03T15:29:15Z</time></trkpt><trkpt lat="35.99526501256493" lon="-107.10496657016931"><ele>2138.0</ele><time>2026-05-03T15:29:16Z</time></trkpt><trkpt lat="35.995341968447605" lon="-107.10505130114868"><ele>2139.0</ele><time>2026-05-03T15:29:17Z</time></trkpt><trkpt lat="35.99542374973947" lon="-107.10516944665082"><ele>2139.0</ele><time>2026-05-03T15:29:18Z</time></trkpt><trkpt lat="35.995476261078345" lon="-107.10527979836912"><ele>2139.0</ele><time>2026-05-03T15:29:19Z</time></trkpt><trkpt lat="35.99548597855929" lon="-107.10537744487566"><ele>2139.0</ele><time>2026-05-03T15:29:20Z</time></trkpt><trkpt lat="35.995490317095076" lon="-107.10548939629949"><ele>2139.0</ele><time>2026-05-03T15:29:21Z</time></trkpt><trkpt lat="35.99551010440825" lon="-107.10558552320886"><ele>2139.0</ele><time>2026-05-03T15:29:22Z</time></trkpt><trkpt lat="35.99556874719192" lon="-107.1057203259414"><ele>2139.25</ele><time>2026-05-03T15:29:24Z</time></trkpt><trkpt lat="35.995639448448465" lon="-107.10583228248802"><ele>2139.5</ele><time>2026-05-03T15:29:25Z</time></trkpt><trkpt lat="35.99574777350054" lon="-107.10595338537323"><ele>2139.75</ele><time>2026-05-03T15:29:26Z</time></trkpt><trkpt lat="35.995875394828424" lon="-107.10608862958775"><ele>2140.0</ele><time>2026-05-03T15:29:27Z</time></trkpt><trkpt lat="35.9959902710352" lon="-107.1062181212953"><ele>2140.5</ele><time>2026-05-03T15:29:28Z</time></trkpt><trkpt lat="35.996084620183694" lon="-107.10633590983319"><ele>2141.0</ele><time>2026-05-03T15:29:29Z</time></trkpt><trkpt lat="35.996182262378" lon="-107.1064544260447"><ele>2141.5</ele><time>2026-05-03T15:29:30Z</time></trkpt><trkpt lat="35.99627166530999" lon="-107.10659667525933"><ele>2142.0</ele><time>2026-05-03T15:29:31Z</time></trkpt><trkpt lat="35.996330844156724" lon="-107.10673852250146"><ele>2142.25</ele><time>2026-05-03T15:29:32Z</time></trkpt><trkpt lat="35.99639821658334" lon="-107.1068939278583"><ele>2142.5</ele><time>2026-05-03T15:29:33Z</time></trkpt><trkpt lat="35.99644135438215" lon="-107.10704998612289"><ele>2142.75</ele><time>2026-05-03T15:29:34Z</time></trkpt><trkpt lat="35.99649479448283" lon="-107.10719309915457"><ele>2143.0</ele><time>2026-05-03T15:29:35Z</time></trkpt><trkpt lat="35.99654210816367" lon="-107.1072946117762"><ele>2143.0</ele><time>2026-05-03T15:29:36Z</time></trkpt><trkpt lat="35.99662755141941" lon="-107.10738068967233"><ele>2143.0</ele><time>2026-05-03T15:29:37Z</time></trkpt><trkpt lat="35.99673209145213" lon="-107.10747756998158"><ele>2143.0</ele><time>2026-05-03T15:29:38Z</time></trkpt><trkpt lat="35.99679631500571" lon="-107.1075241840856"><ele>2143.0</ele><time>2026-05-03T15:29:39Z</time></trkpt><trkpt lat="35.99687213577779" lon="-107.1075167580763"><ele>2143.0</ele><time>2026-05-03T15:29:40Z</time></trkpt><trkpt lat="35.997018888868006" lon="-107.10747323424425"><ele>2144.0</ele><time>2026-05-03T15:29:41Z</time></trkpt><trkpt lat="35.9971666788192" lon="-107.10743150020988"><ele>2145.0</ele><time>2026-05-03T15:29:42Z</time></trkpt><trkpt lat="35.997321645509814" lon="-107.10740141453192"><ele>2146.0</ele><time>2026-05-03T15:29:43Z</time></trkpt><trkpt lat="35.99748309304561" lon="-107.10737418997807"><ele>2147.666666666667</ele><time>2026-05-03T15:29:44Z</time></trkpt><trkpt lat="35.997656637094224" lon="-107.107331574059"><ele>2149.3333333333335</ele><time>2026-05-03T15:29:45Z</time></trkpt><trkpt lat="35.99782450805394" lon="-107.10727492591994"><ele>2151.0</ele><time>2026-05-03T15:29:46Z</time></trkpt><trkpt lat="35.99799081009994" lon="-107.10718705096008"><ele>2151.0</ele><time>2026-05-03T15:29:47Z</time></trkpt><trkpt lat="35.99812037199245" lon="-107.1070873465835"><ele>2151.0</ele><time>2026-05-03T15:29:48Z</time></trkpt><trkpt lat="35.9982619074985" lon="-107.10692883878482"><ele>2151.0</ele><time>2026-05-03T15:29:49Z</time></trkpt><trkpt lat="35.99841073674643" lon="-107.10674925051961"><ele>2150.3333333333335</ele><time>2026-05-03T15:29:50Z</time></trkpt><trkpt lat="35.998581052719096" lon="-107.10661173903293"><ele>2149.666666666667</ele><time>2026-05-03T15:29:51Z</time></trkpt><trkpt lat="35.99874226046107" lon="-107.10646413246258"><ele>2149.0</ele><time>2026-05-03T15:29:52Z</time></trkpt><trkpt lat="35.998886541031176" lon="-107.10633784578067"><ele>2149.0</ele><time>2026-05-03T15:29:53Z</time></trkpt><trkpt lat="35.999061444931705" lon="-107.10619806395286"><ele>2149.0</ele><time>2026-05-03T15:29:54Z</time></trkpt><trkpt lat="35.999257923363" lon="-107.10606491005457"><ele>2149.0</ele><time>2026-05-03T15:29:55Z</time></trkpt><trkpt lat="35.99946056292696" lon="-107.10595234562462"><ele>2149.0</ele><time>2026-05-03T15:29:56Z</time></trkpt><trkpt lat="35.99961449200954" lon="-107.10585315428716"><ele>2149.0</ele><time>2026-05-03T15:29:57Z</time></trkpt><trkpt lat="35.99972095937124" lon="-107.10576640084822"><ele>2149.0</ele><time>2026-05-03T15:29:58Z</time></trkpt><trkpt lat="35.99984402710215" lon="-107.1057165000042"><ele>2149.0</ele><time>2026-05-03T15:29:59Z</time></trkpt><trkpt lat="35.99998911305008" lon="-107.10569056325707"><ele>2149.0</ele><time>2026-05-03T15:30:00Z</time></trkpt><trkpt lat="36.0001364487635" lon="-107.10570316345941"><ele>2149.0</ele><time>2026-05-03T15:30:01Z</time></trkpt><trkpt lat="36.000284617388026" lon="-107.10572681691141"><ele>2149.0</ele><time>2026-05-03T15:30:02Z</time></trkpt><trkpt lat="36.000431864207656" lon="-107.10575328762381"><ele>2149.0</ele><time>2026-05-03T15:30:03Z</time></trkpt><trkpt lat="36.000566464914286" lon="-107.10579085108706"><ele>2149.75</ele><time>2026-05-03T15:30:04Z</time></trkpt><trkpt lat="36.000691691917986" lon="-107.10583205130891"><ele>2150.5</ele><time>2026-05-03T15:30:05Z</time></trkpt><trkpt lat="36.00083803895151" lon="-107.10584243049095"><ele>2151.25</ele><time>2026-05-03T15:30:06Z</time></trkpt><trkpt lat="36.00100327672645" lon="-107.1058721782397"><ele>2152.0</ele><time>2026-05-03T15:30:07Z</time></trkpt><trkpt lat="36.001166437452575" lon="-107.105907351558"><ele>2152.0</ele><time>2026-05-03T15:30:08Z</time></trkpt><trkpt lat="36.00133552932329" lon="-107.10591302560505"><ele>2152.0</ele><time>2026-05-03T15:30:09Z</time></trkpt><trkpt lat="36.00150290602786" lon="-107.10589646402795"><ele>2152.0</ele><time>2026-05-03T15:30:10Z</time></trkpt><trkpt lat="36.00166970520146" lon="-107.10584242618314"><ele>2152.666666666667</ele><time>2026-05-03T15:30:11Z</time></trkpt><trkpt lat="36.00180668091367" lon="-107.10576294803838"><ele>2153.3333333333335</ele><time>2026-05-03T15:30:12Z</time></trkpt><trkpt lat="36.00191718353909" lon="-107.10563516001207"><ele>2154.0</ele><time>2026-05-03T15:30:13Z</time></trkpt><trkpt lat="36.002040626088835" lon="-107.10550120950927"><ele>2154.0</ele><time>2026-05-03T15:30:14Z</time></trkpt><trkpt lat="36.002137527556236" lon="-107.10543504758456"><ele>2154.0</ele><time>2026-05-03T15:30:15Z</time></trkpt><trkpt lat="36.002248058546506" lon="-107.10547219114045"><ele>2154.0</ele><time>2026-05-03T15:30:16Z</time></trkpt><trkpt lat="36.00240245445529" lon="-107.10551354978068"><ele>2154.0</ele><time>2026-05-03T15:30:17Z</time></trkpt><trkpt lat="36.0025741116196" lon="-107.10550509247746"><ele>2154.0</ele><time>2026-05-03T15:30:18Z</time></trkpt><trkpt lat="36.00273253542276" lon="-107.10544520364782"><ele>2154.0</ele><time>2026-05-03T15:30:19Z</time></trkpt><trkpt lat="36.002890570463606" lon="-107.10536087885492"><ele>2154.0</ele><time>2026-05-03T15:30:20Z</time></trkpt><trkpt lat="36.00304285111972" lon="-107.10532961090092"><ele>2154.0</ele><time>2026-05-03T15:30:21Z</time></trkpt><trkpt lat="36.003158844306675" lon="-107.10528100771785"><ele>2154.0</ele><time>2026-05-03T15:30:22Z</time></trkpt><trkpt lat="36.00327409890671" lon="-107.10525697514738"><ele>2154.0</ele><time>2026-05-03T15:30:23Z</time></trkpt><trkpt lat="36.00339615262113" lon="-107.10523028866712"><ele>2154.0</ele><time>2026-05-03T15:30:24Z</time></trkpt><trkpt lat="36.003545929835106" lon="-107.10516461134898"><ele>2155.0</ele><time>2026-05-03T15:30:25Z</time></trkpt><trkpt lat="36.00371084361846" lon="-107.10510381513423"><ele>2156.0</ele><time>2026-05-03T15:30:26Z</time></trkpt><trkpt lat="36.00389581748941" lon="-107.10503479701582"><ele>2157.0</ele><time>2026-05-03T15:30:27Z</time></trkpt><trkpt lat="36.004097002191536" lon="-107.10495622475824"><ele>2157.3333333333335</ele><time>2026-05-03T15:30:28Z</time></trkpt><trkpt lat="36.00430880369704" lon="-107.10487007133028"><ele>2157.666666666667</ele><time>2026-05-03T15:30:29Z</time></trkpt><trkpt lat="36.00452486197665" lon="-107.10478663023704"><ele>2158.0</ele><time>2026-05-03T15:30:30Z</time></trkpt><trkpt lat="36.00470252396013" lon="-107.10470571937462"><ele>2158.0</ele><time>2026-05-03T15:30:31Z</time></trkpt><trkpt lat="36.00487715834263" lon="-107.10464250703531"><ele>2158.0</ele><time>2026-05-03T15:30:32Z</time></trkpt><trkpt lat="36.00503902122119" lon="-107.10457870538878"><ele>2158.0</ele><time>2026-05-03T15:30:33Z</time></trkpt><trkpt lat="36.00516699134548" lon="-107.10452956739358"><ele>2158.75</ele><time>2026-05-03T15:30:34Z</time></trkpt><trkpt lat="36.00529115640443" lon="-107.1044873904736"><ele>2159.5</ele><time>2026-05-03T15:30:35Z</time></trkpt><trkpt lat="36.005396441232584" lon="-107.10444482318283"><ele>2160.25</ele><time>2026-05-03T15:30:36Z</time></trkpt><trkpt lat="36.00550234255131" lon="-107.10440368405985"><ele>2161.0</ele><time>2026-05-03T15:30:37Z</time></trkpt><trkpt lat="36.00561827514629" lon="-107.10438440577475"><ele>2161.0</ele><time>2026-05-03T15:30:38Z</time></trkpt><trkpt lat="36.00576694233634" lon="-107.10436419566648"><ele>2161.0</ele><time>2026-05-03T15:30:39Z</time></trkpt><trkpt lat="36.005920452694234" lon="-107.10433709866794"><ele>2161.0</ele><time>2026-05-03T15:30:40Z</time></trkpt><trkpt lat="36.00601807749715" lon="-107.10432362844837"><ele>2161.0</ele><time>2026-05-03T15:30:41Z</time></trkpt><trkpt lat="36.006118492343376" lon="-107.10427250722582"><ele>2161.3333333333335</ele><time>2026-05-03T15:30:43Z</time></trkpt><trkpt lat="36.006195062239485" lon="-107.10426545330478"><ele>2161.666666666667</ele><time>2026-05-03T15:30:44Z</time></trkpt><trkpt lat="36.00630569240376" lon="-107.10425865129302"><ele>2162.0</ele><time>2026-05-03T15:30:45Z</time></trkpt><trkpt lat="36.00641230591779" lon="-107.10427248886229"><ele>2162.3333333333335</ele><time>2026-05-03T15:30:46Z</time></trkpt><trkpt lat="36.006469748244484" lon="-107.1042331822258"><ele>2162.6666666666665</ele><time>2026-05-03T15:30:47Z</time></trkpt><trkpt lat="36.0065249797397" lon="-107.10415862591714"><ele>2163.0</ele><time>2026-05-03T15:30:48Z</time></trkpt><trkpt lat="36.00659415812195" lon="-107.10407107373419"><ele>2163.8333333333335</ele><time>2026-05-03T15:30:49Z</time></trkpt><trkpt lat="36.00666524801395" lon="-107.10402265891139"><ele>2164.6666666666665</ele><time>2026-05-03T15:30:50Z</time></trkpt><trkpt lat="36.00673223981132" lon="-107.1040075098764"><ele>2165.5</ele><time>2026-05-03T15:30:51Z</time></trkpt><trkpt lat="36.00681152713877" lon="-107.10401415306312"><ele>2166.333333333333</ele><time>2026-05-03T15:30:52Z</time></trkpt><trkpt lat="36.00688790646474" lon="-107.10401717760915"><ele>2167.1666666666665</ele><time>2026-05-03T15:30:53Z</time></trkpt><trkpt lat="36.00698569382838" lon="-107.10398915852161"><ele>2168.0</ele><time>2026-05-03T15:30:54Z</time></trkpt><trkpt lat="36.00709637770172" lon="-107.10395683181838"><ele>2168.0</ele><time>2026-05-03T15:30:55Z</time></trkpt><trkpt lat="36.0071799251172" lon="-107.10392927299607"><ele>2168.0</ele><time>2026-05-03T15:30:56Z</time></trkpt><trkpt lat="36.007297406301596" lon="-107.10395581052427"><ele>2168.0</ele><time>2026-05-03T15:30:58Z</time></trkpt><trkpt lat="36.00739851420837" lon="-107.10397398916456"><ele>2168.0</ele><time>2026-05-03T15:31:00Z</time></trkpt><trkpt lat="36.00747298557546" lon="-107.10386836744057"><ele>2168.0</ele><time>2026-05-03T15:31:02Z</time></trkpt><trkpt lat="36.00753148753055" lon="-107.10379412603162"><ele>2168.1666666666665</ele><time>2026-05-03T15:31:03Z</time></trkpt><trkpt lat="36.007603026476225" lon="-107.10372040668145"><ele>2168.333333333333</ele><time>2026-05-03T15:31:04Z</time></trkpt><trkpt lat="36.007667140237466" lon="-107.10366931825384"><ele>2168.5</ele><time>2026-05-03T15:31:05Z</time></trkpt><trkpt lat="36.007733242561706" lon="-107.10361340915291"><ele>2168.6666666666665</ele><time>2026-05-03T15:31:06Z</time></trkpt><trkpt lat="36.00777037052303" lon="-107.10353218978689"><ele>2168.8333333333335</ele><time>2026-05-03T15:31:08Z</time></trkpt><trkpt lat="36.007853564809196" lon="-107.10355607837059"><ele>2169.0</ele><time>2026-05-03T15:31:09Z</time></trkpt><trkpt lat="36.00794833321669" lon="-107.10357960128135"><ele>2169.0</ele><time>2026-05-03T15:31:10Z</time></trkpt><trkpt lat="36.00802649152485" lon="-107.10358540929565"><ele>2169.0</ele><time>2026-05-03T15:31:11Z</time></trkpt><trkpt lat="36.00810648982562" lon="-107.10356992407878"><ele>2169.0</ele><time>2026-05-03T15:31:12Z</time></trkpt><trkpt lat="36.00817875144107" lon="-107.1034913487166"><ele>2169.0</ele><time>2026-05-03T15:31:13Z</time></trkpt><trkpt lat="36.00826495322866" lon="-107.1034198704052"><ele>2169.0</ele><time>2026-05-03T15:31:14Z</time></trkpt><trkpt lat="36.008345531760845" lon="-107.10337136006832"><ele>2169.0</ele><time>2026-05-03T15:31:15Z</time></trkpt><trkpt lat="36.00839999188776" lon="-107.1033209159596"><ele>2169.6666666666665</ele><time>2026-05-03T15:31:16Z</time></trkpt><trkpt lat="36.008467955602484" lon="-107.10333470885524"><ele>2170.3333333333335</ele><time>2026-05-03T15:31:18Z</time></trkpt><trkpt lat="36.008566819401445" lon="-107.10332579064624"><ele>2171.0</ele><time>2026-05-03T15:31:20Z</time></trkpt><trkpt lat="36.00864733122829" lon="-107.10324027464407"><ele>2171.666666666667</ele><time>2026-05-03T15:31:21Z</time></trkpt><trkpt lat="36.00870610412927" lon="-107.10318583335268"><ele>2172.3333333333335</ele><time>2026-05-03T15:31:22Z</time></trkpt><trkpt lat="36.0087657851252" lon="-107.1031355074673"><ele>2173.0</ele><time>2026-05-03T15:31:23Z</time></trkpt><trkpt lat="36.00885420264678" lon="-107.10319522190333"><ele>2173.0</ele><time>2026-05-03T15:31:25Z</time></trkpt><trkpt lat="36.00890101714594" lon="-107.10327260231328"><ele>2173.0</ele><time>2026-05-03T15:31:28Z</time></trkpt><trkpt lat="36.008967147695" lon="-107.1032368941829"><ele>2173.0</ele><time>2026-05-03T15:31:30Z</time></trkpt><trkpt lat="36.00899832534605" lon="-107.10316198726353"><ele>2173.0</ele><time>2026-05-03T15:31:32Z</time></trkpt><trkpt lat="36.009181864494444" lon="-107.10306465853076"><ele>2173.0</ele><time>2026-05-03T15:31:35Z</time></trkpt><trkpt lat="36.0092496065257" lon="-107.10298960821443"><ele>2173.8</ele><time>2026-05-03T15:31:37Z</time></trkpt><trkpt lat="36.0092965669648" lon="-107.10292733473382"><ele>2174.6000000000004</ele><time>2026-05-03T15:31:39Z</time></trkpt><trkpt lat="36.00935350404407" lon="-107.1028712559533"><ele>2175.3999999999996</ele><time>2026-05-03T15:31:41Z</time></trkpt><trkpt lat="36.00945861616383" lon="-107.10285559533699"><ele>2176.2</ele><time>2026-05-03T15:31:43Z</time></trkpt><trkpt lat="36.009559906380886" lon="-107.10283681374091"><ele>2177.0</ele><time>2026-05-03T15:31:45Z</time></trkpt><trkpt lat="36.00964097518221" lon="-107.1027084071824"><ele>2177.0</ele><time>2026-05-03T15:31:47Z</time></trkpt><trkpt lat="36.00966580133003" lon="-107.10262788627476"><ele>2177.0</ele><time>2026-05-03T15:31:48Z</time></trkpt><trkpt lat="36.00972791422268" lon="-107.10250661380142"><ele>2177.0</ele><time>2026-05-03T15:31:50Z</time></trkpt><trkpt lat="36.009979322596" lon="-107.1024516869214"><ele>2177.0</ele><time>2026-05-03T15:31:52Z</time></trkpt><trkpt lat="36.010065297525585" lon="-107.10250164793162"><ele>2177.0</ele><time>2026-05-03T15:31:53Z</time></trkpt><trkpt lat="36.010177774478464" lon="-107.1024505270007"><ele>2177.0</ele><time>2026-05-03T15:31:55Z</time></trkpt><trkpt lat="36.010258715239594" lon="-107.10237821287187"><ele>2177.0</ele><time>2026-05-03T15:31:56Z</time></trkpt><trkpt lat="36.01027195951278" lon="-107.10228371692362"><ele>2177.0</ele><time>2026-05-03T15:31:57Z</time></trkpt><trkpt lat="36.01028538197512" lon="-107.10220040561501"><ele>2177.0</ele><time>2026-05-03T15:31:58Z</time></trkpt><trkpt lat="36.010426526312855" lon="-107.1021322859731"><ele>2177.333333333333</ele><time>2026-05-03T15:32:00Z</time></trkpt><trkpt lat="36.01047858749504" lon="-107.10206603133254"><ele>2177.6666666666665</ele><time>2026-05-03T15:32:01Z</time></trkpt><trkpt lat="36.01053777630741" lon="-107.1019814955885"><ele>2178.0</ele><time>2026-05-03T15:32:02Z</time></trkpt><trkpt lat="36.01060136283195" lon="-107.10192426516555"><ele>2178.3333333333335</ele><time>2026-05-03T15:32:03Z</time></trkpt><trkpt lat="36.01065837450238" lon="-107.10187934004675"><ele>2178.666666666667</ele><time>2026-05-03T15:32:04Z</time></trkpt><trkpt lat="36.01073745141689" lon="-107.10183610057759"><ele>2179.0</ele><time>2026-05-03T15:32:05Z</time></trkpt><trkpt lat="36.01082407386439" lon="-107.10178683400375"><ele>2179.3333333333335</ele><time>2026-05-03T15:32:06Z</time></trkpt><trkpt lat="36.010908256597325" lon="-107.10177505061223"><ele>2179.666666666667</ele><time>2026-05-03T15:32:07Z</time></trkpt><trkpt lat="36.01101253434132" lon="-107.1017728863228"><ele>2180.0</ele><time>2026-05-03T15:32:08Z</time></trkpt><trkpt lat="36.011101951201496" lon="-107.10176023007863"><ele>2180.3333333333335</ele><time>2026-05-03T15:32:09Z</time></trkpt><trkpt lat="36.01118103911178" lon="-107.101747630721"><ele>2180.6666666666665</ele><time>2026-05-03T15:32:10Z</time></trkpt><trkpt lat="36.01123283422208" lon="-107.10179876825305"><ele>2181.0</ele><time>2026-05-03T15:32:11Z</time></trkpt><trkpt lat="36.01122655933585" lon="-107.10192297470462"><ele>2181.0</ele><time>2026-05-03T15:32:13Z</time></trkpt><trkpt lat="36.011209996156005" lon="-107.10200571172545"><ele>2181.0</ele><time>2026-05-03T15:32:14Z</time></trkpt><trkpt lat="36.01117941892453" lon="-107.10212608437662"><ele>2181.0</ele><time>2026-05-03T15:32:18Z</time></trkpt><trkpt lat="36.01122304132432" lon="-107.10219645724388"><ele>2181.0</ele><time>2026-05-03T15:32:20Z</time></trkpt><trkpt lat="36.011273518814264" lon="-107.10228717681616"><ele>2181.0</ele><time>2026-05-03T15:32:22Z</time></trkpt><trkpt lat="36.0112701316428" lon="-107.1023674092179"><ele>2181.0</ele><time>2026-05-03T15:32:23Z</time></trkpt><trkpt lat="36.011332774608505" lon="-107.10241657933963"><ele>2181.0</ele><time>2026-05-03T15:32:25Z</time></trkpt><trkpt lat="36.01140604755385" lon="-107.1023883968016"><ele>2181.0</ele><time>2026-05-03T15:32:26Z</time></trkpt><trkpt lat="36.0114972381567" lon="-107.1023874810237"><ele>2181.0</ele><time>2026-05-03T15:32:27Z</time></trkpt><trkpt lat="36.011571778755304" lon="-107.10239726151657"><ele>2181.0</ele><time>2026-05-03T15:32:28Z</time></trkpt><trkpt lat="36.01165165611602" lon="-107.10243312571849"><ele>2181.0</ele><time>2026-05-03T15:32:29Z</time></trkpt><trkpt lat="36.01172395703507" lon="-107.102432028592"><ele>2181.0</ele><time>2026-05-03T15:32:30Z</time></trkpt><trkpt lat="36.01180449848313" lon="-107.10245530269898"><ele>2181.4</ele><time>2026-05-03T15:32:31Z</time></trkpt><trkpt lat="36.011872495714115" lon="-107.10243490617987"><ele>2181.8</ele><time>2026-05-03T15:32:32Z</time></trkpt><trkpt lat="36.01194301285633" lon="-107.10239672052157"><ele>2182.2000000000003</ele><time>2026-05-03T15:32:33Z</time></trkpt><trkpt lat="36.012054410905264" lon="-107.10234114295963"><ele>2182.6</ele><time>2026-05-03T15:32:34Z</time></trkpt><trkpt lat="36.012153135410024" lon="-107.10230509154319"><ele>2183.0</ele><time>2026-05-03T15:32:35Z</time></trkpt><trkpt lat="36.01226099683896" lon="-107.10226364148365"><ele>2183.0</ele><time>2026-05-03T15:32:36Z</time></trkpt><trkpt lat="36.01235049594772" lon="-107.10223296783809"><ele>2183.0</ele><time>2026-05-03T15:32:37Z</time></trkpt><trkpt lat="36.012467694457726" lon="-107.10217519328607"><ele>2183.0</ele><time>2026-05-03T15:32:38Z</time></trkpt><trkpt lat="36.01257373762711" lon="-107.10212489603582"><ele>2183.0</ele><time>2026-05-03T15:32:39Z</time></trkpt><trkpt lat="36.01268730540889" lon="-107.10207501002046"><ele>2183.6666666666665</ele><time>2026-05-03T15:32:40Z</time></trkpt><trkpt lat="36.01280770059144" lon="-107.10202182163776"><ele>2184.3333333333335</ele><time>2026-05-03T15:32:41Z</time></trkpt><trkpt lat="36.01293661833145" lon="-107.10199936379448"><ele>2185.0</ele><time>2026-05-03T15:32:42Z</time></trkpt><trkpt lat="36.013127999987056" lon="-107.10197607550215"><ele>2185.0</ele><time>2026-05-03T15:32:43Z</time></trkpt><trkpt lat="36.01322352896154" lon="-107.10195408127484"><ele>2185.0</ele><time>2026-05-03T15:32:44Z</time></trkpt><trkpt lat="36.01331826886164" lon="-107.10189941664322"><ele>2185.0</ele><time>2026-05-03T15:32:45Z</time></trkpt><trkpt lat="36.01345013983165" lon="-107.10187876853621"><ele>2185.0</ele><time>2026-05-03T15:32:46Z</time></trkpt><trkpt lat="36.013566467466795" lon="-107.10187872914238"><ele>2186.5</ele><time>2026-05-03T15:32:47Z</time></trkpt><trkpt lat="36.01367631766645" lon="-107.10190463346778"><ele>2188.0</ele><time>2026-05-03T15:32:48Z</time></trkpt><trkpt lat="36.013811960410884" lon="-107.1019031829074"><ele>2189.5</ele><time>2026-05-03T15:32:49Z</time></trkpt><trkpt lat="36.013955618766914" lon="-107.10186840255001"><ele>2191.0</ele><time>2026-05-03T15:32:50Z</time></trkpt><trkpt lat="36.014080447369594" lon="-107.10186651042669"><ele>2191.8</ele><time>2026-05-03T15:32:51Z</time></trkpt><trkpt lat="36.01418313600234" lon="-107.10186480064498"><ele>2192.6</ele><time>2026-05-03T15:32:52Z</time></trkpt><trkpt lat="36.01428826361165" lon="-107.10184400361473"><ele>2193.4</ele><time>2026-05-03T15:32:53Z</time></trkpt><trkpt lat="36.014390966503925" lon="-107.10179437079047"><ele>2194.2</ele><time>2026-05-03T15:32:54Z</time></trkpt><trkpt lat="36.014464717537024" lon="-107.10176194742766"><ele>2195.0</ele><time>2026-05-03T15:32:55Z</time></trkpt><trkpt lat="36.01454984101687" lon="-107.10167745253608"><ele>2195.0</ele><time>2026-05-03T15:32:56Z</time></trkpt><trkpt lat="36.014644373194606" lon="-107.10161218503939"><ele>2195.0</ele><time>2026-05-03T15:32:57Z</time></trkpt><trkpt lat="36.01469589367631" lon="-107.10156626458881"><ele>2195.0</ele><time>2026-05-03T15:32:58Z</time></trkpt><trkpt lat="36.014746188842494" lon="-107.10145694236337"><ele>2195.0</ele><time>2026-05-03T15:32:59Z</time></trkpt><trkpt lat="36.014813243896015" lon="-107.10137560818845"><ele>2195.0</ele><time>2026-05-03T15:33:00Z</time></trkpt><trkpt lat="36.01487042059783" lon="-107.10131823033053"><ele>2195.0</ele><time>2026-05-03T15:33:01Z</time></trkpt><trkpt lat="36.01493869470261" lon="-107.10127659198663"><ele>2196.2</ele><time>2026-05-03T15:33:02Z</time></trkpt><trkpt lat="36.01503291808524" lon="-107.10120673926946"><ele>2197.4</ele><time>2026-05-03T15:33:03Z</time></trkpt><trkpt lat="36.015113864964015" lon="-107.10111086694332"><ele>2198.6</ele><time>2026-05-03T15:33:04Z</time></trkpt><trkpt lat="36.015189860491645" lon="-107.10103286976357"><ele>2199.8</ele><time>2026-05-03T15:33:05Z</time></trkpt><trkpt lat="36.015273812770694" lon="-107.10095503331566"><ele>2201.0</ele><time>2026-05-03T15:33:06Z</time></trkpt><trkpt lat="36.015354642821535" lon="-107.10092117890296"><ele>2201.0</ele><time>2026-05-03T15:33:07Z</time></trkpt><trkpt lat="36.0154287187758" lon="-107.10087493399443"><ele>2201.0</ele><time>2026-05-03T15:33:08Z</time></trkpt><trkpt lat="36.015541365496794" lon="-107.10083768569983"><ele>2201.0</ele><time>2026-05-03T15:33:09Z</time></trkpt><trkpt lat="36.01566884757198" lon="-107.10077901897267"><ele>2201.0</ele><time>2026-05-03T15:33:10Z</time></trkpt><trkpt lat="36.01578023798379" lon="-107.10070058721044"><ele>2202.75</ele><time>2026-05-03T15:33:11Z</time></trkpt><trkpt lat="36.015876352545575" lon="-107.10062002952675"><ele>2204.5</ele><time>2026-05-03T15:33:12Z</time></trkpt><trkpt lat="36.01596929084153" lon="-107.10054049229672"><ele>2206.25</ele><time>2026-05-03T15:33:13Z</time></trkpt><trkpt lat="36.01607050682968" lon="-107.10049193808985"><ele>2208.0</ele><time>2026-05-03T15:33:14Z</time></trkpt><trkpt lat="36.01618674172692" lon="-107.10042474365814"><ele>2208.0</ele><time>2026-05-03T15:33:15Z</time></trkpt><trkpt lat="36.016285158151966" lon="-107.10033836057389"><ele>2208.0</ele><time>2026-05-03T15:33:16Z</time></trkpt><trkpt lat="36.016362824480595" lon="-107.1002654420645"><ele>2208.0</ele><time>2026-05-03T15:33:17Z</time></trkpt><trkpt lat="36.016392352133245" lon="-107.10016683365093"><ele>2208.0</ele><time>2026-05-03T15:33:18Z</time></trkpt><trkpt lat="36.016426266309644" lon="-107.10008746607753"><ele>2208.0</ele><time>2026-05-03T15:33:19Z</time></trkpt><trkpt lat="36.016483735399156" lon="-107.10001557576645"><ele>2208.0</ele><time>2026-05-03T15:33:20Z</time></trkpt><trkpt lat="36.016573375127436" lon="-107.09996515425931"><ele>2208.0</ele><time>2026-05-03T15:33:21Z</time></trkpt><trkpt lat="36.01667020724353" lon="-107.09991856516557"><ele>2208.0</ele><time>2026-05-03T15:33:22Z</time></trkpt><trkpt lat="36.01673702632409" lon="-107.09988330336303"><ele>2208.0</ele><time>2026-05-03T15:33:23Z</time></trkpt><trkpt lat="36.016854271454164" lon="-107.09980800049912"><ele>2208.0</ele><time>2026-05-03T15:33:25Z</time></trkpt><trkpt lat="36.01691858751414" lon="-107.09981873775816"><ele>2208.3333333333335</ele><time>2026-05-03T15:33:26Z</time></trkpt><trkpt lat="36.01700820945204" lon="-107.09985372733317"><ele>2208.6666666666665</ele><time>2026-05-03T15:33:28Z</time></trkpt><trkpt lat="36.01709632671958" lon="-107.09980417886487"><ele>2209.0</ele><time>2026-05-03T15:33:30Z</time></trkpt><trkpt lat="36.01715087505453" lon="-107.09973386887931"><ele>2209.333333333333</ele><time>2026-05-03T15:33:31Z</time></trkpt><trkpt lat="36.01720748759928" lon="-107.09964393176257"><ele>2209.6666666666665</ele><time>2026-05-03T15:33:32Z</time></trkpt><trkpt lat="36.01725982850746" lon="-107.0995590120012"><ele>2210.0</ele><time>2026-05-03T15:33:33Z</time></trkpt><trkpt lat="36.01728676365748" lon="-107.09946185120609"><ele>2210.0</ele><time>2026-05-03T15:33:35Z</time></trkpt><trkpt lat="36.01735005246428" lon="-107.09944926648414"><ele>2210.0</ele><time>2026-05-03T15:33:38Z</time></trkpt><trkpt lat="36.01753340589144" lon="-107.09938285887587"><ele>2210.0</ele><time>2026-05-03T15:33:39Z</time></trkpt><trkpt lat="36.01765831429261" lon="-107.0993634717272"><ele>2210.0</ele><time>2026-05-03T15:33:41Z</time></trkpt><trkpt lat="36.01776699838269" lon="-107.09933557601587"><ele>2210.0</ele><time>2026-05-03T15:33:43Z</time></trkpt><trkpt lat="36.01786417479631" lon="-107.09927177110954"><ele>2210.0</ele><time>2026-05-03T15:33:45Z</time></trkpt><trkpt lat="36.01795108668626" lon="-107.09916681676103"><ele>2210.0</ele><time>2026-05-03T15:33:47Z</time></trkpt><trkpt lat="36.01800797337922" lon="-107.09906195905427"><ele>2210.0</ele><time>2026-05-03T15:33:49Z</time></trkpt><trkpt lat="36.018108505048765" lon="-107.09899189743253"><ele>2210.0</ele><time>2026-05-03T15:33:51Z</time></trkpt><trkpt lat="36.01821374973159" lon="-107.09900375929246"><ele>2211.0</ele><time>2026-05-03T15:33:53Z</time></trkpt><trkpt lat="36.01832221868595" lon="-107.09905638729416"><ele>2212.0</ele><time>2026-05-03T15:33:55Z</time></trkpt><trkpt lat="36.01840099519722" lon="-107.09908779108544"><ele>2213.0</ele><time>2026-05-03T15:33:56Z</time></trkpt><trkpt lat="36.01845876517058" lon="-107.09904539913569"><ele>2214.0</ele><time>2026-05-03T15:33:58Z</time></trkpt><trkpt lat="36.01846052562329" lon="-107.09894604322514"><ele>2215.0</ele><time>2026-05-03T15:33:59Z</time></trkpt><trkpt lat="36.01847474781063" lon="-107.09885654804404"><ele>2216.0</ele><time>2026-05-03T15:34:02Z</time></trkpt><trkpt lat="36.018645403219466" lon="-107.09877479364737"><ele>2216.4</ele><time>2026-05-03T15:34:04Z</time></trkpt><trkpt lat="36.01867594175493" lon="-107.09868716636299"><ele>2216.8</ele><time>2026-05-03T15:34:05Z</time></trkpt><trkpt lat="36.018712977765986" lon="-107.09860283946044"><ele>2217.2000000000003</ele><time>2026-05-03T15:34:06Z</time></trkpt><trkpt lat="36.018769238416006" lon="-107.0984991719829"><ele>2217.6</ele><time>2026-05-03T15:34:08Z</time></trkpt><trkpt lat="36.0187788390041" lon="-107.09835789043689"><ele>2218.0</ele><time>2026-05-03T15:34:10Z</time></trkpt><trkpt lat="36.018784868566556" lon="-107.09825715728043"><ele>2218.2000000000003</ele><time>2026-05-03T15:34:12Z</time></trkpt><trkpt lat="36.01875756675131" lon="-107.09817213366685"><ele>2218.4</ele><time>2026-05-03T15:34:14Z</time></trkpt><trkpt lat="36.018801536099836" lon="-107.09811140081106"><ele>2218.6000000000004</ele><time>2026-05-03T15:34:16Z</time></trkpt><trkpt lat="36.01887759449129" lon="-107.09803784160621"><ele>2218.8</ele><time>2026-05-03T15:34:18Z</time></trkpt><trkpt lat="36.018959106553254" lon="-107.09796585783381"><ele>2219.0</ele><time>2026-05-03T15:34:20Z</time></trkpt><trkpt lat="36.01907579992942" lon="-107.09787939354356"><ele>2221.4</ele><time>2026-05-03T15:34:22Z</time></trkpt><trkpt lat="36.01915879149276" lon="-107.09779419942922"><ele>2223.8</ele><time>2026-05-03T15:34:23Z</time></trkpt><trkpt lat="36.019238176802965" lon="-107.09773536142747"><ele>2226.2</ele><time>2026-05-03T15:34:24Z</time></trkpt><trkpt lat="36.01932532565108" lon="-107.09766013681349"><ele>2228.6</ele><time>2026-05-03T15:34:25Z</time></trkpt><trkpt lat="36.01939767041719" lon="-107.09757949763173"><ele>2231.0</ele><time>2026-05-03T15:34:26Z</time></trkpt><trkpt lat="36.019461098523486" lon="-107.09751328482426"><ele>2231.0</ele><time>2026-05-03T15:34:27Z</time></trkpt><trkpt lat="36.019575093558686" lon="-107.09752367216853"><ele>2231.0</ele><time>2026-05-03T15:34:28Z</time></trkpt><trkpt lat="36.01968304314828" lon="-107.09749823579362"><ele>2231.0</ele><time>2026-05-03T15:34:29Z</time></trkpt><trkpt lat="36.01978017887697" lon="-107.09747181525067"><ele>2231.0</ele><time>2026-05-03T15:34:30Z</time></trkpt><trkpt lat="36.01987109021074" lon="-107.0974222661732"><ele>2231.0</ele><time>2026-05-03T15:34:31Z</time></trkpt><trkpt lat="36.01996728064128" lon="-107.09733774916788"><ele>2235.0</ele><time>2026-05-03T15:34:32Z</time></trkpt><trkpt lat="36.020071546676554" lon="-107.09727629024961"><ele>2239.0</ele><time>2026-05-03T15:34:33Z</time></trkpt><trkpt lat="36.02017705893325" lon="-107.09717624991188"><ele>2243.0</ele><time>2026-05-03T15:34:34Z</time></trkpt><trkpt lat="36.0202747612692" lon="-107.09710291887757"><ele>2247.0</ele><time>2026-05-03T15:34:35Z</time></trkpt><trkpt lat="36.020353085440625" lon="-107.09703110629515"><ele>2247.0</ele><time>2026-05-03T15:34:36Z</time></trkpt><trkpt lat="36.020425703645145" lon="-107.09696155688899"><ele>2247.0</ele><time>2026-05-03T15:34:37Z</time></trkpt><trkpt lat="36.020505823203266" lon="-107.09690392898612"><ele>2247.0</ele><time>2026-05-03T15:34:38Z</time></trkpt><trkpt lat="36.02060129523913" lon="-107.09687046925978"><ele>2247.0</ele><time>2026-05-03T15:34:39Z</time></trkpt><trkpt lat="36.02070793490866" lon="-107.09681857921971"><ele>2247.0</ele><time>2026-05-03T15:34:40Z</time></trkpt><trkpt lat="36.02080099336674" lon="-107.09672313660974"><ele>2246.25</ele><time>2026-05-03T15:34:41Z</time></trkpt><trkpt lat="36.02091127313704" lon="-107.09663989444743"><ele>2245.5</ele><time>2026-05-03T15:34:42Z</time></trkpt><trkpt lat="36.02102561091669" lon="-107.09658701928615"><ele>2244.75</ele><time>2026-05-03T15:34:43Z</time></trkpt><trkpt lat="36.021091648146644" lon="-107.09654955119566"><ele>2244.0</ele><time>2026-05-03T15:34:44Z</time></trkpt><trkpt lat="36.021223616235176" lon="-107.09662132262883"><ele>2244.0</ele><time>2026-05-03T15:34:46Z</time></trkpt><trkpt lat="36.021287256964214" lon="-107.09668881703881"><ele>2244.0</ele><time>2026-05-03T15:34:47Z</time></trkpt><trkpt lat="36.02135661557741" lon="-107.09674486486192"><ele>2244.0</ele><time>2026-05-03T15:34:48Z</time></trkpt><trkpt lat="36.02144064944818" lon="-107.09680917582031"><ele>2244.0</ele><time>2026-05-03T15:34:49Z</time></trkpt><trkpt lat="36.02152331669461" lon="-107.09685191498532"><ele>2244.0</ele><time>2026-05-03T15:34:50Z</time></trkpt><trkpt lat="36.0215844045183" lon="-107.09692840274602"><ele>2244.0</ele><time>2026-05-03T15:34:51Z</time></trkpt><trkpt lat="36.021648559921424" lon="-107.0970125258083"><ele>2243.6</ele><time>2026-05-03T15:34:52Z</time></trkpt><trkpt lat="36.02174167115772" lon="-107.09706436180224"><ele>2243.2</ele><time>2026-05-03T15:34:53Z</time></trkpt><trkpt lat="36.02180415160636" lon="-107.09713937653973"><ele>2242.7999999999997</ele><time>2026-05-03T15:34:54Z</time></trkpt><trkpt lat="36.02188928839622" lon="-107.09719466447956"><ele>2242.4</ele><time>2026-05-03T15:34:55Z</time></trkpt><trkpt lat="36.02198504157521" lon="-107.09723937855361"><ele>2242.0</ele><time>2026-05-03T15:34:56Z</time></trkpt><trkpt lat="36.02206100017865" lon="-107.0972800023522"><ele>2242.0</ele><time>2026-05-03T15:34:57Z</time></trkpt><trkpt lat="36.02213555110604" lon="-107.09728008893288"><ele>2242.0</ele><time>2026-05-03T15:34:58Z</time></trkpt><trkpt lat="36.022268176456585" lon="-107.0972411356728"><ele>2242.0</ele><time>2026-05-03T15:34:59Z</time></trkpt><trkpt lat="36.02239178221859" lon="-107.09717515180701"><ele>2242.0</ele><time>2026-05-03T15:35:00Z</time></trkpt><trkpt lat="36.022516431797776" lon="-107.09709160868964"><ele>2239.666666666667</ele><time>2026-05-03T15:35:01Z</time></trkpt><trkpt lat="36.02267407222761" lon="-107.09703750557404"><ele>2237.3333333333335</ele><time>2026-05-03T15:35:02Z</time></trkpt><trkpt lat="36.02284749681899" lon="-107.09698810986305"><ele>2235.0</ele><time>2026-05-03T15:35:03Z</time></trkpt><trkpt lat="36.023040041523466" lon="-107.0969285170226"><ele>2235.0</ele><time>2026-05-03T15:35:04Z</time></trkpt><trkpt lat="36.023233234256274" lon="-107.0968991747113"><ele>2235.0</ele><time>2026-05-03T15:35:05Z</time></trkpt><trkpt lat="36.02339722309991" lon="-107.09684788834976"><ele>2235.0</ele><time>2026-05-03T15:35:06Z</time></trkpt><trkpt lat="36.02356192659494" lon="-107.09678055970564"><ele>2232.6666666666665</ele><time>2026-05-03T15:35:07Z</time></trkpt><trkpt lat="36.02373910045489" lon="-107.09670726134087"><ele>2230.333333333333</ele><time>2026-05-03T15:35:08Z</time></trkpt><trkpt lat="36.02390867275042" lon="-107.09665872000598"><ele>2228.0</ele><time>2026-05-03T15:35:09Z</time></trkpt><trkpt lat="36.0240509964693" lon="-107.09661592783118"><ele>2226.75</ele><time>2026-05-03T15:35:10Z</time></trkpt><trkpt lat="36.02416795012242" lon="-107.09657836460771"><ele>2225.5</ele><time>2026-05-03T15:35:11Z</time></trkpt><trkpt lat="36.02426829995766" lon="-107.09656330157293"><ele>2224.25</ele><time>2026-05-03T15:35:12Z</time></trkpt><trkpt lat="36.02434556043163" lon="-107.09658812015745"><ele>2223.0</ele><time>2026-05-03T15:35:13Z</time></trkpt><trkpt lat="36.02441421841972" lon="-107.09675262859548"><ele>2223.0</ele><time>2026-05-03T15:35:15Z</time></trkpt><trkpt lat="36.02440707348255" lon="-107.0968804853593"><ele>2223.0</ele><time>2026-05-03T15:35:16Z</time></trkpt><trkpt lat="36.02439294150269" lon="-107.09701469379313"><ele>2223.0</ele><time>2026-05-03T15:35:17Z</time></trkpt><trkpt lat="36.02440978308042" lon="-107.0971138753221"><ele>2223.0</ele><time>2026-05-03T15:35:18Z</time></trkpt><trkpt lat="36.02447254557342" lon="-107.09726184693237"><ele>2223.0</ele><time>2026-05-03T15:35:19Z</time></trkpt><trkpt lat="36.024561090848266" lon="-107.09739345200774"><ele>2223.2000000000003</ele><time>2026-05-03T15:35:20Z</time></trkpt><trkpt lat="36.02463924975324" lon="-107.0975058135225"><ele>2223.4</ele><time>2026-05-03T15:35:21Z</time></trkpt><trkpt lat="36.02472040707711" lon="-107.09755935227469"><ele>2223.6000000000004</ele><time>2026-05-03T15:35:22Z</time></trkpt><trkpt lat="36.024812345882054" lon="-107.09755463096455"><ele>2223.8</ele><time>2026-05-03T15:35:23Z</time></trkpt><trkpt lat="36.024940584121794" lon="-107.09756588898934"><ele>2224.0</ele><time>2026-05-03T15:35:24Z</time></trkpt><trkpt lat="36.02508659187948" lon="-107.09756565017864"><ele>2223.5</ele><time>2026-05-03T15:35:25Z</time></trkpt><trkpt lat="36.02520149852883" lon="-107.09760178944151"><ele>2223.0</ele><time>2026-05-03T15:35:26Z</time></trkpt><trkpt lat="36.02531410673585" lon="-107.09766834401007"><ele>2222.5</ele><time>2026-05-03T15:35:27Z</time></trkpt><trkpt lat="36.02545623273798" lon="-107.09775826020575"><ele>2222.0</ele><time>2026-05-03T15:35:28Z</time></trkpt><trkpt lat="36.02557218104513" lon="-107.09785455179723"><ele>2222.0</ele><time>2026-05-03T15:35:29Z</time></trkpt><trkpt lat="36.02563387877637" lon="-107.0979202695777"><ele>2222.0</ele><time>2026-05-03T15:35:30Z</time></trkpt><trkpt lat="36.02573649537189" lon="-107.0979405474429"><ele>2222.0</ele><time>2026-05-03T15:35:31Z</time></trkpt><trkpt lat="36.02586389986799" lon="-107.09792533376728"><ele>2222.0</ele><time>2026-05-03T15:35:32Z</time></trkpt><trkpt lat="36.02598389344294" lon="-107.09789543954673"><ele>2222.0</ele><time>2026-05-03T15:35:33Z</time></trkpt><trkpt lat="36.026132122854264" lon="-107.09783294960326"><ele>2222.333333333333</ele><time>2026-05-03T15:35:34Z</time></trkpt><trkpt lat="36.02623932197155" lon="-107.09775285259308"><ele>2222.6666666666665</ele><time>2026-05-03T15:35:35Z</time></trkpt><trkpt lat="36.02640701652376" lon="-107.0977374978694"><ele>2223.0</ele><time>2026-05-03T15:35:36Z</time></trkpt><trkpt lat="36.02657295804021" lon="-107.09771640455642"><ele>2222.6666666666665</ele><time>2026-05-03T15:35:37Z</time></trkpt><trkpt lat="36.026751459111615" lon="-107.09774179963883"><ele>2222.333333333333</ele><time>2026-05-03T15:35:38Z</time></trkpt><trkpt lat="36.026960563242234" lon="-107.09779580084871"><ele>2222.0</ele><time>2026-05-03T15:35:39Z</time></trkpt><trkpt lat="36.02715368652168" lon="-107.0978206780286"><ele>2222.0</ele><time>2026-05-03T15:35:40Z</time></trkpt><trkpt lat="36.0273229177605" lon="-107.09785408345789"><ele>2222.0</ele><time>2026-05-03T15:35:41Z</time></trkpt><trkpt lat="36.027461423441046" lon="-107.09788427755804"><ele>2222.0</ele><time>2026-05-03T15:35:42Z</time></trkpt><trkpt lat="36.02761323364721" lon="-107.09790633017865"><ele>2221.5</ele><time>2026-05-03T15:35:43Z</time></trkpt><trkpt lat="36.02775891381406" lon="-107.09794943929043"><ele>2221.0</ele><time>2026-05-03T15:35:44Z</time></trkpt><trkpt lat="36.027863319481675" lon="-107.09805583743952"><ele>2220.5</ele><time>2026-05-03T15:35:45Z</time></trkpt><trkpt lat="36.02795407808554" lon="-107.098164233013"><ele>2220.0</ele><time>2026-05-03T15:35:46Z</time></trkpt><trkpt lat="36.028054631571585" lon="-107.09823560673377"><ele>2220.5</ele><time>2026-05-03T15:35:47Z</time></trkpt><trkpt lat="36.028171244992976" lon="-107.09830678734222"><ele>2221.0</ele><time>2026-05-03T15:35:48Z</time></trkpt><trkpt lat="36.02830030788385" lon="-107.09841668802906"><ele>2221.5</ele><time>2026-05-03T15:35:49Z</time></trkpt><trkpt lat="36.028408985154954" lon="-107.09856612631856"><ele>2222.0</ele><time>2026-05-03T15:35:50Z</time></trkpt><trkpt lat="36.02851745300692" lon="-107.09865716218975"><ele>2223.0</ele><time>2026-05-03T15:35:51Z</time></trkpt><trkpt lat="36.0286632799818" lon="-107.09873088501513"><ele>2224.0</ele><time>2026-05-03T15:35:52Z</time></trkpt><trkpt lat="36.02880132838095" lon="-107.09883867081616"><ele>2225.0</ele><time>2026-05-03T15:35:53Z</time></trkpt><trkpt lat="36.02892655412186" lon="-107.09896242266686"><ele>2225.0</ele><time>2026-05-03T15:35:54Z</time></trkpt><trkpt lat="36.02906405687938" lon="-107.09908380519904"><ele>2225.0</ele><time>2026-05-03T15:35:55Z</time></trkpt><trkpt lat="36.02918047633991" lon="-107.09916225157872"><ele>2225.0</ele><time>2026-05-03T15:35:56Z</time></trkpt><trkpt lat="36.02928803370022" lon="-107.09918284841274"><ele>2225.0</ele><time>2026-05-03T15:35:57Z</time></trkpt><trkpt lat="36.02944811135282" lon="-107.09920280056389"><ele>2225.0</ele><time>2026-05-03T15:35:58Z</time></trkpt><trkpt lat="36.02961520109062" lon="-107.09925870904135"><ele>2225.0</ele><time>2026-05-03T15:35:59Z</time></trkpt><trkpt lat="36.02977541504628" lon="-107.09929601628522"><ele>2225.0</ele><time>2026-05-03T15:36:00Z</time></trkpt><trkpt lat="36.02994353206516" lon="-107.09933509425181"><ele>2225.6666666666665</ele><time>2026-05-03T15:36:01Z</time></trkpt><trkpt lat="36.030119618251156" lon="-107.09938626860135"><ele>2226.3333333333335</ele><time>2026-05-03T15:36:02Z</time></trkpt><trkpt lat="36.03027492820676" lon="-107.09942388926568"><ele>2227.0</ele><time>2026-05-03T15:36:03Z</time></trkpt><trkpt lat="36.030402194265314" lon="-107.09941631484992"><ele>2227.0</ele><time>2026-05-03T15:36:04Z</time></trkpt><trkpt lat="36.03053116030707" lon="-107.0994124232921"><ele>2227.0</ele><time>2026-05-03T15:36:05Z</time></trkpt><trkpt lat="36.03066051123568" lon="-107.0993774257385"><ele>2227.0</ele><time>2026-05-03T15:36:06Z</time></trkpt><trkpt lat="36.030744148946084" lon="-107.09937143587723"><ele>2227.0</ele><time>2026-05-03T15:36:07Z</time></trkpt><trkpt lat="36.03083370203996" lon="-107.09944401333888"><ele>2226.3333333333335</ele><time>2026-05-03T15:36:08Z</time></trkpt><trkpt lat="36.030959283505645" lon="-107.09949930737925"><ele>2225.6666666666665</ele><time>2026-05-03T15:36:09Z</time></trkpt><trkpt lat="36.03110753318781" lon="-107.09949738633344"><ele>2225.0</ele><time>2026-05-03T15:36:10Z</time></trkpt><trkpt lat="36.03127925113171" lon="-107.09949788204884"><ele>2225.0</ele><time>2026-05-03T15:36:11Z</time></trkpt><trkpt lat="36.031483040811736" lon="-107.0995007655688"><ele>2225.0</ele><time>2026-05-03T15:36:12Z</time></trkpt><trkpt lat="36.031634214730225" lon="-107.09948697607375"><ele>2225.0</ele><time>2026-05-03T15:36:13Z</time></trkpt><trkpt lat="36.03176149967264" lon="-107.0994682399551"><ele>2224.5</ele><time>2026-05-03T15:36:14Z</time></trkpt><trkpt lat="36.03190349462191" lon="-107.09946673678697"><ele>2224.0</ele><time>2026-05-03T15:36:15Z</time></trkpt><trkpt lat="36.03206007841399" lon="-107.0994663957405"><ele>2223.5</ele><time>2026-05-03T15:36:16Z</time></trkpt><trkpt lat="36.03220178220917" lon="-107.09945924958184"><ele>2223.0</ele><time>2026-05-03T15:36:17Z</time></trkpt><trkpt lat="36.03235903420612" lon="-107.09947688423725"><ele>2222.6666666666665</ele><time>2026-05-03T15:36:18Z</time></trkpt><trkpt lat="36.03252924750741" lon="-107.09950522328512"><ele>2222.333333333333</ele><time>2026-05-03T15:36:19Z</time></trkpt><trkpt lat="36.03269036456428" lon="-107.09950818457143"><ele>2222.0</ele><time>2026-05-03T15:36:20Z</time></trkpt><trkpt lat="36.03284525081751" lon="-107.0995011186216"><ele>2222.0</ele><time>2026-05-03T15:36:21Z</time></trkpt><trkpt lat="36.03299603584985" lon="-107.09948613254967"><ele>2222.0</ele><time>2026-05-03T15:36:22Z</time></trkpt><trkpt lat="36.03315532487966" lon="-107.09945787548453"><ele>2222.0</ele><time>2026-05-03T15:36:23Z</time></trkpt><trkpt lat="36.03328341967229" lon="-107.0994520696287"><ele>2222.0</ele><time>2026-05-03T15:36:24Z</time></trkpt><trkpt lat="36.033383289061426" lon="-107.09939364483016"><ele>2221.7999999999997</ele><time>2026-05-03T15:36:25Z</time></trkpt><trkpt lat="36.03346777188107" lon="-107.09936777221692"><ele>2221.6</ele><time>2026-05-03T15:36:26Z</time></trkpt><trkpt lat="36.03354219519631" lon="-107.09937118788315"><ele>2221.3999999999996</ele><time>2026-05-03T15:36:27Z</time></trkpt><trkpt lat="36.03363639585307" lon="-107.09944183572375"><ele>2221.2</ele><time>2026-05-03T15:36:28Z</time></trkpt><trkpt lat="36.033743575436425" lon="-107.09949358250226"><ele>2221.0</ele><time>2026-05-03T15:36:29Z</time></trkpt><trkpt lat="36.03389582084667" lon="-107.09947724548712"><ele>2221.0</ele><time>2026-05-03T15:36:30Z</time></trkpt><trkpt lat="36.03404472782693" lon="-107.09945727561993"><ele>2221.0</ele><time>2026-05-03T15:36:31Z</time></trkpt><trkpt lat="36.034176739079236" lon="-107.09945872739287"><ele>2221.0</ele><time>2026-05-03T15:36:32Z</time></trkpt><trkpt lat="36.03430789176852" lon="-107.09948008585488"><ele>2221.0</ele><time>2026-05-03T15:36:33Z</time></trkpt><trkpt lat="36.034418795151275" lon="-107.09946328196379"><ele>2220.4</ele><time>2026-05-03T15:36:34Z</time></trkpt><trkpt lat="36.034514057955164" lon="-107.0994119604572"><ele>2219.8</ele><time>2026-05-03T15:36:35Z</time></trkpt><trkpt lat="36.03457406893809" lon="-107.09932204179626"><ele>2219.2000000000003</ele><time>2026-05-03T15:36:36Z</time></trkpt><trkpt lat="36.03461897199392" lon="-107.0992137237222"><ele>2218.6</ele><time>2026-05-03T15:36:37Z</time></trkpt><trkpt lat="36.034676343746014" lon="-107.09911833767364"><ele>2218.0</ele><time>2026-05-03T15:36:38Z</time></trkpt><trkpt lat="36.0347601707475" lon="-107.09909569601693"><ele>2218.0</ele><time>2026-05-03T15:36:39Z</time></trkpt><trkpt lat="36.03487002578474" lon="-107.0991523431041"><ele>2218.0</ele><time>2026-05-03T15:36:40Z</time></trkpt><trkpt lat="36.03498387089965" lon="-107.09921784722356"><ele>2218.0</ele><time>2026-05-03T15:36:41Z</time></trkpt><trkpt lat="36.03509205664135" lon="-107.0992778657343"><ele>2218.0</ele><time>2026-05-03T15:36:42Z</time></trkpt><trkpt lat="36.035194650045995" lon="-107.0993237475319"><ele>2217.8</ele><time>2026-05-03T15:36:43Z</time></trkpt><trkpt lat="36.03529040755946" lon="-107.09929784966165"><ele>2217.6000000000004</ele><time>2026-05-03T15:36:44Z</time></trkpt><trkpt lat="36.03542713862345" lon="-107.0992890317786"><ele>2217.3999999999996</ele><time>2026-05-03T15:36:45Z</time></trkpt><trkpt lat="36.035513088122286" lon="-107.09931504973133"><ele>2217.2</ele><time>2026-05-03T15:36:46Z</time></trkpt><trkpt lat="36.03562553556382" lon="-107.09928463902449"><ele>2217.0</ele><time>2026-05-03T15:36:47Z</time></trkpt><trkpt lat="36.03572437394388" lon="-107.09921278610516"><ele>2217.0</ele><time>2026-05-03T15:36:48Z</time></trkpt><trkpt lat="36.03578705205532" lon="-107.0990944933132"><ele>2217.0</ele><time>2026-05-03T15:36:49Z</time></trkpt><trkpt lat="36.035830586760305" lon="-107.09889870308977"><ele>2217.0</ele><time>2026-05-03T15:36:50Z</time></trkpt><trkpt lat="36.03585633493418" lon="-107.09871871057578"><ele>2217.0</ele><time>2026-05-03T15:36:51Z</time></trkpt><trkpt lat="36.03585418588248" lon="-107.09857604349511"><ele>2216.75</ele><time>2026-05-03T15:36:52Z</time></trkpt><trkpt lat="36.035838494769024" lon="-107.09845402576502"><ele>2216.5</ele><time>2026-05-03T15:36:53Z</time></trkpt><trkpt lat="36.03580055419823" lon="-107.09826130721687"><ele>2216.25</ele><time>2026-05-03T15:36:54Z</time></trkpt><trkpt lat="36.035791744383786" lon="-107.09806786168285"><ele>2216.0</ele><time>2026-05-03T15:36:55Z</time></trkpt><trkpt lat="36.035815600273494" lon="-107.09789453462591"><ele>2216.0</ele><time>2026-05-03T15:36:56Z</time></trkpt><trkpt lat="36.03584948912248" lon="-107.09777490285157"><ele>2216.0</ele><time>2026-05-03T15:36:57Z</time></trkpt><trkpt lat="36.035867843990566" lon="-107.0976162093344"><ele>2216.0</ele><time>2026-05-03T15:36:58Z</time></trkpt><trkpt lat="36.03587707989426" lon="-107.09747468127009"><ele>2216.0</ele><time>2026-05-03T15:36:59Z</time></trkpt><trkpt lat="36.03586507871791" lon="-107.09732847512917"><ele>2215.25</ele><time>2026-05-03T15:37:00Z</time></trkpt><trkpt lat="36.03585500815464" lon="-107.09720056942544"><ele>2214.5</ele><time>2026-05-03T15:37:01Z</time></trkpt><trkpt lat="36.035845977875724" lon="-107.09706589583827"><ele>2213.75</ele><time>2026-05-03T15:37:02Z</time></trkpt><trkpt lat="36.03584424841174" lon="-107.0969166494805"><ele>2213.0</ele><time>2026-05-03T15:37:03Z</time></trkpt><trkpt lat="36.03585605000687" lon="-107.09673945170555"><ele>2213.0</ele><time>2026-05-03T15:37:04Z</time></trkpt><trkpt lat="36.03586982439824" lon="-107.09661450329936"><ele>2213.0</ele><time>2026-05-03T15:37:05Z</time></trkpt><trkpt lat="36.03588369122792" lon="-107.0964788695175"><ele>2213.0</ele><time>2026-05-03T15:37:06Z</time></trkpt><trkpt lat="36.03591718853943" lon="-107.09632476436511"><ele>2213.0</ele><time>2026-05-03T15:37:07Z</time></trkpt><trkpt lat="36.03594704187025" lon="-107.09618305412572"><ele>2212.833333333333</ele><time>2026-05-03T15:37:08Z</time></trkpt><trkpt lat="36.035948786050035" lon="-107.09608290869664"><ele>2212.6666666666665</ele><time>2026-05-03T15:37:09Z</time></trkpt><trkpt lat="36.03595900839673" lon="-107.09598892102018"><ele>2212.5</ele><time>2026-05-03T15:37:10Z</time></trkpt><trkpt lat="36.035971626317554" lon="-107.09590438049838"><ele>2212.3333333333335</ele><time>2026-05-03T15:37:11Z</time></trkpt><trkpt lat="36.0359843636552" lon="-107.09577382208887"><ele>2212.166666666667</ele><time>2026-05-03T15:37:12Z</time></trkpt><trkpt lat="36.0359546846341" lon="-107.09564433580772"><ele>2212.0</ele><time>2026-05-03T15:37:13Z</time></trkpt><trkpt lat="36.03593208044599" lon="-107.09550198092818"><ele>2210.75</ele><time>2026-05-03T15:37:14Z</time></trkpt><trkpt lat="36.0359313471052" lon="-107.09535182828813"><ele>2209.5</ele><time>2026-05-03T15:37:15Z</time></trkpt><trkpt lat="36.035919300239286" lon="-107.09519576664438"><ele>2208.25</ele><time>2026-05-03T15:37:16Z</time></trkpt><trkpt lat="36.03590596901133" lon="-107.09506851348303"><ele>2207.0</ele><time>2026-05-03T15:37:17Z</time></trkpt><trkpt lat="36.035910853567884" lon="-107.09494222670311"><ele>2206.7999999999997</ele><time>2026-05-03T15:37:18Z</time></trkpt><trkpt lat="36.03589153346798" lon="-107.09479601741762"><ele>2206.6</ele><time>2026-05-03T15:37:19Z</time></trkpt><trkpt lat="36.03587467422718" lon="-107.09465387535234"><ele>2206.3999999999996</ele><time>2026-05-03T15:37:20Z</time></trkpt><trkpt lat="36.03585460001031" lon="-107.09450732877069"><ele>2206.2</ele><time>2026-05-03T15:37:21Z</time></trkpt><trkpt lat="36.03583507132203" lon="-107.09439717865004"><ele>2206.0</ele><time>2026-05-03T15:37:22Z</time></trkpt><trkpt lat="36.03582519277741" lon="-107.094300683458"><ele>2206.0</ele><time>2026-05-03T15:37:23Z</time></trkpt><trkpt lat="36.03584335902281" lon="-107.09419330483023"><ele>2206.0</ele><time>2026-05-03T15:37:24Z</time></trkpt><trkpt lat="36.03587477649011" lon="-107.09409232402929"><ele>2206.0</ele><time>2026-05-03T15:37:25Z</time></trkpt><trkpt lat="36.03591584767701" lon="-107.09399322487367"><ele>2206.0</ele><time>2026-05-03T15:37:26Z</time></trkpt><trkpt lat="36.035949977316534" lon="-107.09392080699952"><ele>2206.0</ele><time>2026-05-03T15:37:27Z</time></trkpt><trkpt lat="36.035904877883304" lon="-107.09374295405918"><ele>2207.0</ele><time>2026-05-03T15:37:29Z</time></trkpt><trkpt lat="36.03584042005342" lon="-107.0936377430013"><ele>2208.0</ele><time>2026-05-03T15:37:30Z</time></trkpt><trkpt lat="36.03577595941926" lon="-107.09358274561502"><ele>2209.0</ele><time>2026-05-03T15:37:31Z</time></trkpt><trkpt lat="36.035693091092725" lon="-107.09354466447326"><ele>2210.0</ele><time>2026-05-03T15:37:32Z</time></trkpt><trkpt lat="36.03561812654324" lon="-107.093434087356"><ele>2211.0</ele><time>2026-05-03T15:37:33Z</time></trkpt><trkpt lat="36.035595629658054" lon="-107.09332182018781"><ele>2211.2</ele><time>2026-05-03T15:37:34Z</time></trkpt><trkpt lat="36.03556847859722" lon="-107.09322523282346"><ele>2211.3999999999996</ele><time>2026-05-03T15:37:35Z</time></trkpt><trkpt lat="36.03557360398763" lon="-107.09309733892233"><ele>2211.6</ele><time>2026-05-03T15:37:36Z</time></trkpt><trkpt lat="36.03560497586695" lon="-107.09295961947356"><ele>2211.7999999999997</ele><time>2026-05-03T15:37:37Z</time></trkpt><trkpt lat="36.035642513783" lon="-107.09282594080136"><ele>2212.0</ele><time>2026-05-03T15:37:38Z</time></trkpt><trkpt lat="36.03554672614366" lon="-107.0926768975464"><ele>2212.0</ele><time>2026-05-03T15:37:40Z</time></trkpt><trkpt lat="36.03551540143546" lon="-107.09255067611788"><ele>2212.0</ele><time>2026-05-03T15:37:41Z</time></trkpt><trkpt lat="36.03554992605754" lon="-107.09244015879325"><ele>2212.0</ele><time>2026-05-03T15:37:42Z</time></trkpt><trkpt lat="36.03557625572322" lon="-107.09231395875406"><ele>2212.0</ele><time>2026-05-03T15:37:43Z</time></trkpt><trkpt lat="36.035588481775896" lon="-107.0922009049892"><ele>2212.0</ele><time>2026-05-03T15:37:44Z</time></trkpt><trkpt lat="36.035604189851504" lon="-107.09204336869931"><ele>2211.6</ele><time>2026-05-03T15:37:45Z</time></trkpt><trkpt lat="36.035607842323834" lon="-107.09189675684014"><ele>2211.2</ele><time>2026-05-03T15:37:46Z</time></trkpt><trkpt lat="36.03561889034115" lon="-107.09176817993195"><ele>2210.8</ele><time>2026-05-03T15:37:47Z</time></trkpt><trkpt lat="36.03566747908016" lon="-107.09165126182234"><ele>2210.4</ele><time>2026-05-03T15:37:48Z</time></trkpt><trkpt lat="36.035716030816424" lon="-107.09157170522401"><ele>2210.0</ele><time>2026-05-03T15:37:49Z</time></trkpt><trkpt lat="36.035648299625954" lon="-107.09146386727681"><ele>2209.75</ele><time>2026-05-03T15:37:51Z</time></trkpt><trkpt lat="36.03552393945349" lon="-107.09141748403476"><ele>2209.5</ele><time>2026-05-03T15:37:52Z</time></trkpt><trkpt lat="36.0354028432477" lon="-107.09136400709072"><ele>2209.25</ele><time>2026-05-03T15:37:53Z</time></trkpt><trkpt lat="36.035332715777045" lon="-107.09128127855078"><ele>2209.0</ele><time>2026-05-03T15:37:54Z</time></trkpt><trkpt lat="36.03522410866797" lon="-107.09123759492338"><ele>2209.0</ele><time>2026-05-03T15:37:55Z</time></trkpt><trkpt lat="36.03511736622747" lon="-107.09119332560422"><ele>2209.0</ele><time>2026-05-03T15:37:56Z</time></trkpt><trkpt lat="36.03504047134187" lon="-107.09114492348874"><ele>2209.0</ele><time>2026-05-03T15:37:57Z</time></trkpt><trkpt lat="36.03497580518665" lon="-107.09107420608417"><ele>2209.0</ele><time>2026-05-03T15:37:58Z</time></trkpt><trkpt lat="36.034892626596296" lon="-107.09100334603986"><ele>2209.0</ele><time>2026-05-03T15:37:59Z</time></trkpt><trkpt lat="36.03479288586283" lon="-107.09093976252622"><ele>2207.6</ele><time>2026-05-03T15:38:00Z</time></trkpt><trkpt lat="36.034707393120954" lon="-107.0908587487579"><ele>2206.2</ele><time>2026-05-03T15:38:01Z</time></trkpt><trkpt lat="36.03464822892588" lon="-107.09082980346108"><ele>2204.7999999999997</ele><time>2026-05-03T15:38:02Z</time></trkpt><trkpt lat="36.03454993187107" lon="-107.0907800581987"><ele>2203.4</ele><time>2026-05-03T15:38:03Z</time></trkpt><trkpt lat="36.03449977006723" lon="-107.09068781594529"><ele>2202.0</ele><time>2026-05-03T15:38:04Z</time></trkpt><trkpt lat="36.03446085033617" lon="-107.09058265104635"><ele>2201.1666666666665</ele><time>2026-05-03T15:38:05Z</time></trkpt><trkpt lat="36.03444919113659" lon="-107.0904971962674"><ele>2200.3333333333335</ele><time>2026-05-03T15:38:06Z</time></trkpt><trkpt lat="36.0344667038051" lon="-107.09039682363728"><ele>2199.5</ele><time>2026-05-03T15:38:07Z</time></trkpt><trkpt lat="36.03452603490771" lon="-107.09031070409092"><ele>2198.666666666667</ele><time>2026-05-03T15:38:08Z</time></trkpt><trkpt lat="36.03459591397022" lon="-107.09023633450023"><ele>2197.8333333333335</ele><time>2026-05-03T15:38:09Z</time></trkpt><trkpt lat="36.034681210889424" lon="-107.09017986777671"><ele>2197.0</ele><time>2026-05-03T15:38:10Z</time></trkpt><trkpt lat="36.03478307737013" lon="-107.09008722128972"><ele>2197.0</ele><time>2026-05-03T15:38:11Z</time></trkpt><trkpt lat="36.034878504878144" lon="-107.08999253433053"><ele>2197.0</ele><time>2026-05-03T15:38:12Z</time></trkpt><trkpt lat="36.03495328776495" lon="-107.08991592485843"><ele>2197.0</ele><time>2026-05-03T15:38:13Z</time></trkpt><trkpt lat="36.03503785764952" lon="-107.0898422033212"><ele>2197.0</ele><time>2026-05-03T15:38:14Z</time></trkpt><trkpt lat="36.0351275445546" lon="-107.0897736460769"><ele>2197.0</ele><time>2026-05-03T15:38:15Z</time></trkpt><trkpt lat="36.035201019916684" lon="-107.089690686237"><ele>2197.75</ele><time>2026-05-03T15:38:16Z</time></trkpt><trkpt lat="36.035260347561305" lon="-107.08957918774908"><ele>2198.5</ele><time>2026-05-03T15:38:17Z</time></trkpt><trkpt lat="36.03528654358262" lon="-107.089428423114"><ele>2199.25</ele><time>2026-05-03T15:38:18Z</time></trkpt><trkpt lat="36.03532186679214" lon="-107.08924517998804"><ele>2200.0</ele><time>2026-05-03T15:38:19Z</time></trkpt><trkpt lat="36.03535965243256" lon="-107.08911082441887"><ele>2199.75</ele><time>2026-05-03T15:38:20Z</time></trkpt><trkpt lat="36.035366188926744" lon="-107.08899523833888"><ele>2199.5</ele><time>2026-05-03T15:38:21Z</time></trkpt><trkpt lat="36.03533896154874" lon="-107.08885010264093"><ele>2199.25</ele><time>2026-05-03T15:38:22Z</time></trkpt><trkpt lat="36.0353089594721" lon="-107.08867569851323"><ele>2199.0</ele><time>2026-05-03T15:38:23Z</time></trkpt><trkpt lat="36.03527863749204" lon="-107.08851045115313"><ele>2199.0</ele><time>2026-05-03T15:38:24Z</time></trkpt><trkpt lat="36.035255512988584" lon="-107.08830901670724"><ele>2199.0</ele><time>2026-05-03T15:38:25Z</time></trkpt><trkpt lat="36.03524324572179" lon="-107.08811895997694"><ele>2199.0</ele><time>2026-05-03T15:38:26Z</time></trkpt><trkpt lat="36.03519086865733" lon="-107.0878941749494"><ele>2198.5</ele><time>2026-05-03T15:38:27Z</time></trkpt><trkpt lat="36.0351533108872" lon="-107.08768445292289"><ele>2198.0</ele><time>2026-05-03T15:38:28Z</time></trkpt><trkpt lat="36.03511331339861" lon="-107.08752007075171"><ele>2197.5</ele><time>2026-05-03T15:38:29Z</time></trkpt><trkpt lat="36.03509944187399" lon="-107.08739113493213"><ele>2197.0</ele><time>2026-05-03T15:38:30Z</time></trkpt><trkpt lat="36.03510169766043" lon="-107.087258231254"><ele>2196.6</ele><time>2026-05-03T15:38:31Z</time></trkpt><trkpt lat="36.03513373750965" lon="-107.08712843925949"><ele>2196.2</ele><time>2026-05-03T15:38:32Z</time></trkpt><trkpt lat="36.035129587029466" lon="-107.08700948346163"><ele>2195.8</ele><time>2026-05-03T15:38:33Z</time></trkpt><trkpt lat="36.03509301831445" lon="-107.08687289185421"><ele>2195.4</ele><time>2026-05-03T15:38:34Z</time></trkpt><trkpt lat="36.03507267433074" lon="-107.08672440319097"><ele>2195.0</ele><time>2026-05-03T15:38:35Z</time></trkpt><trkpt lat="36.035097519506145" lon="-107.08658370462106"><ele>2194.75</ele><time>2026-05-03T15:38:36Z</time></trkpt><trkpt lat="36.035122139082375" lon="-107.08641852931726"><ele>2194.5</ele><time>2026-05-03T15:38:37Z</time></trkpt><trkpt lat="36.035130038821755" lon="-107.08623771825475"><ele>2194.25</ele><time>2026-05-03T15:38:38Z</time></trkpt><trkpt lat="36.035141019288666" lon="-107.08606830805559"><ele>2194.0</ele><time>2026-05-03T15:38:39Z</time></trkpt><trkpt lat="36.035150604429234" lon="-107.08588898157997"><ele>2193.5</ele><time>2026-05-03T15:38:40Z</time></trkpt><trkpt lat="36.03514909624348" lon="-107.08572963904996"><ele>2193.0</ele><time>2026-05-03T15:38:41Z</time></trkpt><trkpt lat="36.03513885599223" lon="-107.08554659658152"><ele>2192.5</ele><time>2026-05-03T15:38:42Z</time></trkpt><trkpt lat="36.03514203138073" lon="-107.0853700766356"><ele>2192.0</ele><time>2026-05-03T15:38:43Z</time></trkpt><trkpt lat="36.03515290690504" lon="-107.0851847916467"><ele>2192.0</ele><time>2026-05-03T15:38:44Z</time></trkpt><trkpt lat="36.03516741435533" lon="-107.08499836256945"><ele>2192.0</ele><time>2026-05-03T15:38:45Z</time></trkpt><trkpt lat="36.03518328607619" lon="-107.0848440775095"><ele>2192.0</ele><time>2026-05-03T15:38:46Z</time></trkpt><trkpt lat="36.03519631493073" lon="-107.08469511902462"><ele>2192.0</ele><time>2026-05-03T15:38:47Z</time></trkpt><trkpt lat="36.03520036347518" lon="-107.08454785338633"><ele>2190.75</ele><time>2026-05-03T15:38:48Z</time></trkpt><trkpt lat="36.035201940261686" lon="-107.08440663941006"><ele>2189.5</ele><time>2026-05-03T15:38:49Z</time></trkpt><trkpt lat="36.03519769539732" lon="-107.08425856553608"><ele>2188.25</ele><time>2026-05-03T15:38:50Z</time></trkpt><trkpt lat="36.03519907653927" lon="-107.08409164785621"><ele>2187.0</ele><time>2026-05-03T15:38:51Z</time></trkpt><trkpt lat="36.0351932281265" lon="-107.08390069342727"><ele>2186.0</ele><time>2026-05-03T15:38:52Z</time></trkpt><trkpt lat="36.035195921794866" lon="-107.08374633763535"><ele>2185.0</ele><time>2026-05-03T15:38:53Z</time></trkpt><trkpt lat="36.03520140367203" lon="-107.08361433030696"><ele>2184.0</ele><time>2026-05-03T15:38:54Z</time></trkpt><trkpt lat="36.03520561853373" lon="-107.08347485072052"><ele>2183.0</ele><time>2026-05-03T15:38:55Z</time></trkpt><trkpt lat="36.03520434365302" lon="-107.08332234368768"><ele>2181.75</ele><time>2026-05-03T15:38:56Z</time></trkpt><trkpt lat="36.03519727231918" lon="-107.08315177430342"><ele>2180.5</ele><time>2026-05-03T15:38:57Z</time></trkpt><trkpt lat="36.0351668503986" lon="-107.08296588330339"><ele>2179.25</ele><time>2026-05-03T15:38:58Z</time></trkpt><trkpt lat="36.03515033180165" lon="-107.08282040765708"><ele>2178.0</ele><time>2026-05-03T15:38:59Z</time></trkpt><trkpt lat="36.035150771287974" lon="-107.08271115242627"><ele>2178.0</ele><time>2026-05-03T15:39:00Z</time></trkpt><trkpt lat="36.03514847302812" lon="-107.08261476341107"><ele>2178.0</ele><time>2026-05-03T15:39:01Z</time></trkpt><trkpt lat="36.035154363302794" lon="-107.08253355786331"><ele>2178.0</ele><time>2026-05-03T15:39:02Z</time></trkpt><trkpt lat="36.03512129724205" lon="-107.08243471813384"><ele>2178.0</ele><time>2026-05-03T15:39:04Z</time></trkpt><trkpt lat="36.034996781850616" lon="-107.08245669710227"><ele>2178.0</ele><time>2026-05-03T15:39:06Z</time></trkpt><trkpt lat="36.034887297867" lon="-107.08247154880948"><ele>2177.25</ele><time>2026-05-03T15:39:07Z</time></trkpt><trkpt lat="36.03475800161492" lon="-107.08243627905048"><ele>2176.5</ele><time>2026-05-03T15:39:08Z</time></trkpt><trkpt lat="36.03464236158229" lon="-107.08243547801531"><ele>2175.75</ele><time>2026-05-03T15:39:09Z</time></trkpt><trkpt lat="36.034527763712134" lon="-107.08244090235871"><ele>2175.0</ele><time>2026-05-03T15:39:10Z</time></trkpt><trkpt lat="36.03441657479756" lon="-107.08242327520634"><ele>2175.0</ele><time>2026-05-03T15:39:11Z</time></trkpt><trkpt lat="36.03434607965353" lon="-107.08242432862019"><ele>2175.0</ele><time>2026-05-03T15:39:12Z</time></trkpt><trkpt lat="36.03430431625849" lon="-107.08252231107771"><ele>2175.0</ele><time>2026-05-03T15:39:14Z</time></trkpt><trkpt lat="36.034214902904246" lon="-107.0825801738129"><ele>2175.0</ele><time>2026-05-03T15:39:15Z</time></trkpt><trkpt lat="36.03407001361974" lon="-107.08257709952552"><ele>2175.0</ele><time>2026-05-03T15:39:16Z</time></trkpt><trkpt lat="36.03394371440351" lon="-107.08253412608971"><ele>2174.5</ele><time>2026-05-03T15:39:17Z</time></trkpt><trkpt lat="36.033804454609125" lon="-107.08251591957887"><ele>2174.0</ele><time>2026-05-03T15:39:18Z</time></trkpt><trkpt lat="36.03367013018735" lon="-107.0824787694526"><ele>2173.5</ele><time>2026-05-03T15:39:19Z</time></trkpt><trkpt lat="36.033540190798604" lon="-107.08244864393792"><ele>2173.0</ele><time>2026-05-03T15:39:20Z</time></trkpt><trkpt lat="36.03342529801294" lon="-107.08244217044054"><ele>2171.666666666667</ele><time>2026-05-03T15:39:21Z</time></trkpt><trkpt lat="36.03328257239455" lon="-107.08246059654887"><ele>2170.3333333333335</ele><time>2026-05-03T15:39:22Z</time></trkpt><trkpt lat="36.03310872515378" lon="-107.08249990979064"><ele>2169.0</ele><time>2026-05-03T15:39:23Z</time></trkpt><trkpt lat="36.03292657117086" lon="-107.08251515526533"><ele>2169.0</ele><time>2026-05-03T15:39:24Z</time></trkpt><trkpt lat="36.03277317998297" lon="-107.08249429570218"><ele>2169.0</ele><time>2026-05-03T15:39:25Z</time></trkpt><trkpt lat="36.032613511137896" lon="-107.08251108542505"><ele>2169.0</ele><time>2026-05-03T15:39:26Z</time></trkpt><trkpt lat="36.032478458177785" lon="-107.08254856428367"><ele>2168.25</ele><time>2026-05-03T15:39:27Z</time></trkpt><trkpt lat="36.03236952456175" lon="-107.08254368975558"><ele>2167.5</ele><time>2026-05-03T15:39:28Z</time></trkpt><trkpt lat="36.03223816836597" lon="-107.08251999430908"><ele>2166.75</ele><time>2026-05-03T15:39:29Z</time></trkpt><trkpt lat="36.032100015539726" lon="-107.0824640343156"><ele>2166.0</ele><time>2026-05-03T15:39:30Z</time></trkpt><trkpt lat="36.031980681207976" lon="-107.0824160893586"><ele>2165.75</ele><time>2026-05-03T15:39:31Z</time></trkpt><trkpt lat="36.03187756346467" lon="-107.08239029058703"><ele>2165.5</ele><time>2026-05-03T15:39:32Z</time></trkpt><trkpt lat="36.03175523076127" lon="-107.08238332801503"><ele>2165.25</ele><time>2026-05-03T15:39:33Z</time></trkpt><trkpt lat="36.03163263514376" lon="-107.08235254024389"><ele>2165.0</ele><time>2026-05-03T15:39:34Z</time></trkpt><trkpt lat="36.03151713504339" lon="-107.08232599088556"><ele>2165.5</ele><time>2026-05-03T15:39:35Z</time></trkpt><trkpt lat="36.031376415762644" lon="-107.08232156392575"><ele>2166.0</ele><time>2026-05-03T15:39:36Z</time></trkpt><trkpt lat="36.03124389875133" lon="-107.0823037089751"><ele>2166.5</ele><time>2026-05-03T15:39:37Z</time></trkpt><trkpt lat="36.031120174292035" lon="-107.08228431134233"><ele>2167.0</ele><time>2026-05-03T15:39:38Z</time></trkpt><trkpt lat="36.03099817723034" lon="-107.08224717491845"><ele>2167.0</ele><time>2026-05-03T15:39:39Z</time></trkpt><trkpt lat="36.03088560076951" lon="-107.0822524758992"><ele>2167.0</ele><time>2026-05-03T15:39:40Z</time></trkpt><trkpt lat="36.03076224951468" lon="-107.08227208396679"><ele>2167.0</ele><time>2026-05-03T15:39:41Z</time></trkpt><trkpt lat="36.03063879914608" lon="-107.08227568773829"><ele>2167.0</ele><time>2026-05-03T15:39:42Z</time></trkpt><trkpt lat="36.03055279459465" lon="-107.08222153350032"><ele>2167.0</ele><time>2026-05-03T15:39:43Z</time></trkpt><trkpt lat="36.03049541595106" lon="-107.08211382941444"><ele>2167.0</ele><time>2026-05-03T15:39:44Z</time></trkpt><trkpt lat="36.03048479435198" lon="-107.08200373510408"><ele>2167.0</ele><time>2026-05-03T15:39:45Z</time></trkpt><trkpt lat="36.03045752851178" lon="-107.08192076974044"><ele>2167.0</ele><time>2026-05-03T15:39:46Z</time></trkpt><trkpt lat="36.030293473838526" lon="-107.08195949912528"><ele>2167.0</ele><time>2026-05-03T15:39:48Z</time></trkpt><trkpt lat="36.030223939475434" lon="-107.08193649031813"><ele>2167.0</ele><time>2026-05-03T15:39:49Z</time></trkpt><trkpt lat="36.03012345716615" lon="-107.08191643010424"><ele>2167.0</ele><time>2026-05-03T15:39:51Z</time></trkpt><trkpt lat="36.03006111739258" lon="-107.0818964299107"><ele>2167.0</ele><time>2026-05-03T15:39:52Z</time></trkpt><trkpt lat="36.02999591162694" lon="-107.08188877406171"><ele>2167.0</ele><time>2026-05-03T15:39:53Z</time></trkpt><trkpt lat="36.02987088090237" lon="-107.081891914494"><ele>2167.0</ele><time>2026-05-03T15:39:54Z</time></trkpt><trkpt lat="36.02971107764357" lon="-107.08188681516204"><ele>2168.0</ele><time>2026-05-03T15:39:55Z</time></trkpt><trkpt lat="36.02955431441879" lon="-107.08190784278074"><ele>2169.0</ele><time>2026-05-03T15:39:56Z</time></trkpt><trkpt lat="36.02937474321856" lon="-107.0819173584394"><ele>2170.0</ele><time>2026-05-03T15:39:57Z</time></trkpt><trkpt lat="36.029190068190815" lon="-107.08190701499953"><ele>2170.0</ele><time>2026-05-03T15:39:58Z</time></trkpt><trkpt lat="36.028999852168035" lon="-107.08189910685634"><ele>2170.0</ele><time>2026-05-03T15:39:59Z</time></trkpt><trkpt lat="36.02884419739683" lon="-107.08187370307279"><ele>2170.0</ele><time>2026-05-03T15:40:00Z</time></trkpt><trkpt lat="36.02869525461903" lon="-107.08182785672444"><ele>2170.0</ele><time>2026-05-03T15:40:01Z</time></trkpt><trkpt lat="36.02852626678907" lon="-107.08177975510364"><ele>2170.0</ele><time>2026-05-03T15:40:02Z</time></trkpt><trkpt lat="36.028355754780925" lon="-107.081752343214"><ele>2170.0</ele><time>2026-05-03T15:40:03Z</time></trkpt><trkpt lat="36.0281723461455" lon="-107.08175640535073"><ele>2170.5</ele><time>2026-05-03T15:40:04Z</time></trkpt><trkpt lat="36.02800637072336" lon="-107.08175160938008"><ele>2171.0</ele><time>2026-05-03T15:40:05Z</time></trkpt><trkpt lat="36.02788638699116" lon="-107.08171446978216"><ele>2171.5</ele><time>2026-05-03T15:40:06Z</time></trkpt><trkpt lat="36.02780466170813" lon="-107.08164867272103"><ele>2172.0</ele><time>2026-05-03T15:40:07Z</time></trkpt><trkpt lat="36.02770658492226" lon="-107.08155868746444"><ele>2172.0</ele><time>2026-05-03T15:40:08Z</time></trkpt><trkpt lat="36.02760371915269" lon="-107.08148278816635"><ele>2172.0</ele><time>2026-05-03T15:40:09Z</time></trkpt><trkpt lat="36.027487225191514" lon="-107.08137614241618"><ele>2172.0</ele><time>2026-05-03T15:40:10Z</time></trkpt><trkpt lat="36.02734474745561" lon="-107.08127240448904"><ele>2172.0</ele><time>2026-05-03T15:40:11Z</time></trkpt><trkpt lat="36.02718608405406" lon="-107.08118955608148"><ele>2172.0</ele><time>2026-05-03T15:40:12Z</time></trkpt><trkpt lat="36.02701774393577" lon="-107.08112007347525"><ele>2172.0</ele><time>2026-05-03T15:40:13Z</time></trkpt><trkpt lat="36.02687157302299" lon="-107.08106763996099"><ele>2172.0</ele><time>2026-05-03T15:40:14Z</time></trkpt><trkpt lat="36.02671087649715" lon="-107.08104962462257"><ele>2171.75</ele><time>2026-05-03T15:40:15Z</time></trkpt><trkpt lat="36.026589102563534" lon="-107.08102687461498"><ele>2171.5</ele><time>2026-05-03T15:40:16Z</time></trkpt><trkpt lat="36.0264852103163" lon="-107.08100501231662"><ele>2171.25</ele><time>2026-05-03T15:40:17Z</time></trkpt><trkpt lat="36.02636586554577" lon="-107.08095500362998"><ele>2171.0</ele><time>2026-05-03T15:40:18Z</time></trkpt><trkpt lat="36.02623493970787" lon="-107.08091042036148"><ele>2171.0</ele><time>2026-05-03T15:40:19Z</time></trkpt><trkpt lat="36.02609481616677" lon="-107.08089030469148"><ele>2171.0</ele><time>2026-05-03T15:40:20Z</time></trkpt><trkpt lat="36.025961151939555" lon="-107.08090874195103"><ele>2171.0</ele><time>2026-05-03T15:40:21Z</time></trkpt><trkpt lat="36.02583990739331" lon="-107.0809176655264"><ele>2171.0</ele><time>2026-05-03T15:40:22Z</time></trkpt><trkpt lat="36.02573275293643" lon="-107.08088682395673"><ele>2170.0</ele><time>2026-05-03T15:40:23Z</time></trkpt><trkpt lat="36.02559610531131" lon="-107.08086911432831"><ele>2169.0</ele><time>2026-05-03T15:40:24Z</time></trkpt><trkpt lat="36.02543618469175" lon="-107.08087820909759"><ele>2168.0</ele><time>2026-05-03T15:40:25Z</time></trkpt><trkpt lat="36.02526017135521" lon="-107.08086679352202"><ele>2168.0</ele><time>2026-05-03T15:40:26Z</time></trkpt><trkpt lat="36.025063709372034" lon="-107.08083575453354"><ele>2168.0</ele><time>2026-05-03T15:40:27Z</time></trkpt><trkpt lat="36.02489468573132" lon="-107.08081773030236"><ele>2168.0</ele><time>2026-05-03T15:40:28Z</time></trkpt><trkpt lat="36.02477807690486" lon="-107.08076329087314"><ele>2168.75</ele><time>2026-05-03T15:40:29Z</time></trkpt><trkpt lat="36.02466330512098" lon="-107.08072584724054"><ele>2169.5</ele><time>2026-05-03T15:40:30Z</time></trkpt><trkpt lat="36.02451804842026" lon="-107.08072137024777"><ele>2170.25</ele><time>2026-05-03T15:40:31Z</time></trkpt><trkpt lat="36.02433902607175" lon="-107.08070995706248"><ele>2171.0</ele><time>2026-05-03T15:40:32Z</time></trkpt><trkpt lat="36.024161111568695" lon="-107.08070367397085"><ele>2169.0</ele><time>2026-05-03T15:40:33Z</time></trkpt><trkpt lat="36.02401635091783" lon="-107.08068703806735"><ele>2167.0</ele><time>2026-05-03T15:40:34Z</time></trkpt><trkpt lat="36.02388434893695" lon="-107.08068808654919"><ele>2165.0</ele><time>2026-05-03T15:40:35Z</time></trkpt><trkpt lat="36.023748340928236" lon="-107.08064875874526"><ele>2163.0</ele><time>2026-05-03T15:40:36Z</time></trkpt><trkpt lat="36.023618715426345" lon="-107.08060240328278"><ele>2163.0</ele><time>2026-05-03T15:40:37Z</time></trkpt><trkpt lat="36.023486677265794" lon="-107.08058883065515"><ele>2163.0</ele><time>2026-05-03T15:40:38Z</time></trkpt><trkpt lat="36.02333363273291" lon="-107.08060804935634"><ele>2163.0</ele><time>2026-05-03T15:40:39Z</time></trkpt><trkpt lat="36.023185207147215" lon="-107.08069565325148"><ele>2161.5</ele><time>2026-05-03T15:40:40Z</time></trkpt><trkpt lat="36.023053046480335" lon="-107.08080026454476"><ele>2160.0</ele><time>2026-05-03T15:40:41Z</time></trkpt><trkpt lat="36.02290961340198" lon="-107.08084492711795"><ele>2158.5</ele><time>2026-05-03T15:40:42Z</time></trkpt><trkpt lat="36.02277493485811" lon="-107.08085550442544"><ele>2157.0</ele><time>2026-05-03T15:40:43Z</time></trkpt><trkpt lat="36.02266102819036" lon="-107.08090561372113"><ele>2157.0</ele><time>2026-05-03T15:40:44Z</time></trkpt><trkpt lat="36.02252025918484" lon="-107.08096795368394"><ele>2157.0</ele><time>2026-05-03T15:40:45Z</time></trkpt><trkpt lat="36.02234851339519" lon="-107.08100421619817"><ele>2157.0</ele><time>2026-05-03T15:40:46Z</time></trkpt><trkpt lat="36.022202132957986" lon="-107.08101759225656"><ele>2156.75</ele><time>2026-05-03T15:40:47Z</time></trkpt><trkpt lat="36.02210310850136" lon="-107.08108429592185"><ele>2156.5</ele><time>2026-05-03T15:40:48Z</time></trkpt><trkpt lat="36.021968511525564" lon="-107.08112513828463"><ele>2156.25</ele><time>2026-05-03T15:40:49Z</time></trkpt><trkpt lat="36.02185071880507" lon="-107.08109550834355"><ele>2156.0</ele><time>2026-05-03T15:40:50Z</time></trkpt><trkpt lat="36.02175454411957" lon="-107.0810143970371"><ele>2156.25</ele><time>2026-05-03T15:40:51Z</time></trkpt><trkpt lat="36.02161596697486" lon="-107.08095740199192"><ele>2156.5</ele><time>2026-05-03T15:40:52Z</time></trkpt><trkpt lat="36.02146119620846" lon="-107.0809369907021"><ele>2156.75</ele><time>2026-05-03T15:40:53Z</time></trkpt><trkpt lat="36.02132715832357" lon="-107.08095500978843"><ele>2157.0</ele><time>2026-05-03T15:40:54Z</time></trkpt><trkpt lat="36.02118142896988" lon="-107.08101562243553"><ele>2157.0</ele><time>2026-05-03T15:40:55Z</time></trkpt><trkpt lat="36.02100445746419" lon="-107.0810692223307"><ele>2157.0</ele><time>2026-05-03T15:40:56Z</time></trkpt><trkpt lat="36.02082827155153" lon="-107.08112351983252"><ele>2157.0</ele><time>2026-05-03T15:40:57Z</time></trkpt><trkpt lat="36.02068510398202" lon="-107.08116638052498"><ele>2157.6666666666665</ele><time>2026-05-03T15:40:58Z</time></trkpt><trkpt lat="36.02053985907251" lon="-107.08119356349641"><ele>2158.333333333333</ele><time>2026-05-03T15:40:59Z</time></trkpt><trkpt lat="36.02036247093059" lon="-107.08124707136064"><ele>2159.0</ele><time>2026-05-03T15:41:00Z</time></trkpt><trkpt lat="36.020181560903026" lon="-107.08130436072533"><ele>2159.0</ele><time>2026-05-03T15:41:01Z</time></trkpt><trkpt lat="36.0200181395566" lon="-107.08136982722924"><ele>2159.0</ele><time>2026-05-03T15:41:02Z</time></trkpt><trkpt lat="36.01986520330717" lon="-107.08141995543035"><ele>2159.0</ele><time>2026-05-03T15:41:03Z</time></trkpt><trkpt lat="36.01969005142541" lon="-107.08146979784462"><ele>2158.6666666666665</ele><time>2026-05-03T15:41:04Z</time></trkpt><trkpt lat="36.019522735177226" lon="-107.08152950701671"><ele>2158.3333333333335</ele><time>2026-05-03T15:41:05Z</time></trkpt><trkpt lat="36.01937978409591" lon="-107.0815685228849"><ele>2158.0</ele><time>2026-05-03T15:41:06Z</time></trkpt><trkpt lat="36.01924087305696" lon="-107.0815683811675"><ele>2158.666666666667</ele><time>2026-05-03T15:41:07Z</time></trkpt><trkpt lat="36.01908758835733" lon="-107.08153194007171"><ele>2159.3333333333335</ele><time>2026-05-03T15:41:08Z</time></trkpt><trkpt lat="36.018911601887716" lon="-107.081531912573"><ele>2160.0</ele><time>2026-05-03T15:41:09Z</time></trkpt><trkpt lat="36.018761012645555" lon="-107.08154533589261"><ele>2160.0</ele><time>2026-05-03T15:41:10Z</time></trkpt><trkpt lat="36.01862758180969" lon="-107.0815730262932"><ele>2160.0</ele><time>2026-05-03T15:41:11Z</time></trkpt><trkpt lat="36.01846483466873" lon="-107.0815812142821"><ele>2160.0</ele><time>2026-05-03T15:41:12Z</time></trkpt><trkpt lat="36.018283434993876" lon="-107.08160539107915"><ele>2161.0</ele><time>2026-05-03T15:41:13Z</time></trkpt><trkpt lat="36.01812506420374" lon="-107.08160324550936"><ele>2162.0</ele><time>2026-05-03T15:41:14Z</time></trkpt><trkpt lat="36.018013319649114" lon="-107.08159432749142"><ele>2163.0</ele><time>2026-05-03T15:41:15Z</time></trkpt><trkpt lat="36.017937409732426" lon="-107.08157745573246"><ele>2164.0</ele><time>2026-05-03T15:41:16Z</time></trkpt><trkpt lat="36.01786625782383" lon="-107.0814402182427"><ele>2164.25</ele><time>2026-05-03T15:41:18Z</time></trkpt><trkpt lat="36.01785673445834" lon="-107.08130876242724"><ele>2164.5</ele><time>2026-05-03T15:41:19Z</time></trkpt><trkpt lat="36.017888872210904" lon="-107.08116608937911"><ele>2164.75</ele><time>2026-05-03T15:41:20Z</time></trkpt><trkpt lat="36.01795608277004" lon="-107.08098981107184"><ele>2165.0</ele><time>2026-05-03T15:41:21Z</time></trkpt><trkpt lat="36.01801333853969" lon="-107.08085539995122"><ele>2166.25</ele><time>2026-05-03T15:41:22Z</time></trkpt><trkpt lat="36.01804495622038" lon="-107.08071166561203"><ele>2167.5</ele><time>2026-05-03T15:41:23Z</time></trkpt><trkpt lat="36.01807383534211" lon="-107.08054323178298"><ele>2168.75</ele><time>2026-05-03T15:41:24Z</time></trkpt><trkpt lat="36.01810327735177" lon="-107.08037605597812"><ele>2170.0</ele><time>2026-05-03T15:41:25Z</time></trkpt><trkpt lat="36.01813985356185" lon="-107.08020163109994"><ele>2170.0</ele><time>2026-05-03T15:41:26Z</time></trkpt><trkpt lat="36.01815816168035" lon="-107.08006891461356"><ele>2170.0</ele><time>2026-05-03T15:41:27Z</time></trkpt><trkpt lat="36.01819060341691" lon="-107.07994720411934"><ele>2170.0</ele><time>2026-05-03T15:41:28Z</time></trkpt><trkpt lat="36.01821365073641" lon="-107.07981913664372"><ele>2170.0</ele><time>2026-05-03T15:41:29Z</time></trkpt><trkpt lat="36.018208837515964" lon="-107.07971552382027"><ele>2170.0</ele><time>2026-05-03T15:41:30Z</time></trkpt><trkpt lat="36.01811302704455" lon="-107.07973820873256"><ele>2170.2</ele><time>2026-05-03T15:41:32Z</time></trkpt><trkpt lat="36.01803581182408" lon="-107.07967171334725"><ele>2170.4</ele><time>2026-05-03T15:41:33Z</time></trkpt><trkpt lat="36.01792444158658" lon="-107.07963977817761"><ele>2170.6</ele><time>2026-05-03T15:41:34Z</time></trkpt><trkpt lat="36.017829992093354" lon="-107.0795753596843"><ele>2170.8</ele><time>2026-05-03T15:41:35Z</time></trkpt><trkpt lat="36.017716887779706" lon="-107.07953810907023"><ele>2171.0</ele><time>2026-05-03T15:41:36Z</time></trkpt><trkpt lat="36.017586018955534" lon="-107.07949874851421"><ele>2171.0</ele><time>2026-05-03T15:41:37Z</time></trkpt><trkpt lat="36.017492558652215" lon="-107.07946120243089"><ele>2171.0</ele><time>2026-05-03T15:41:38Z</time></trkpt><trkpt lat="36.017414055272965" lon="-107.07940983914449"><ele>2171.0</ele><time>2026-05-03T15:41:39Z</time></trkpt><trkpt lat="36.01733567531355" lon="-107.079371177178"><ele>2171.0</ele><time>2026-05-03T15:41:40Z</time></trkpt><trkpt lat="36.017273034276386" lon="-107.07935825353252"><ele>2171.0</ele><time>2026-05-03T15:41:41Z</time></trkpt><trkpt lat="36.01718407818541" lon="-107.0792127524221"><ele>2172.6</ele><time>2026-05-03T15:41:43Z</time></trkpt><trkpt lat="36.017108848689006" lon="-107.0791029855605"><ele>2174.2</ele><time>2026-05-03T15:41:44Z</time></trkpt><trkpt lat="36.017035095669065" lon="-107.07903714134558"><ele>2175.8</ele><time>2026-05-03T15:41:45Z</time></trkpt><trkpt lat="36.01694926704819" lon="-107.07904605272512"><ele>2177.4</ele><time>2026-05-03T15:41:46Z</time></trkpt><trkpt lat="36.016863346556484" lon="-107.07906219052774"><ele>2179.0</ele><time>2026-05-03T15:41:47Z</time></trkpt><trkpt lat="36.01681051115005" lon="-107.07912468992714"><ele>2179.0</ele><time>2026-05-03T15:41:48Z</time></trkpt><trkpt lat="36.01679074824459" lon="-107.07924780057594"><ele>2179.0</ele><time>2026-05-03T15:41:49Z</time></trkpt><trkpt lat="36.01671105227134" lon="-107.07935724501581"><ele>2179.0</ele><time>2026-05-03T15:41:50Z</time></trkpt><trkpt lat="36.0166088028659" lon="-107.07938922633102"><ele>2179.0</ele><time>2026-05-03T15:41:51Z</time></trkpt><trkpt lat="36.016499196194424" lon="-107.07939350200438"><ele>2179.0</ele><time>2026-05-03T15:41:52Z</time></trkpt><trkpt lat="36.016414980783374" lon="-107.07939042918056"><ele>2180.0</ele><time>2026-05-03T15:41:53Z</time></trkpt><trkpt lat="36.01631357952576" lon="-107.07943660028029"><ele>2181.0</ele><time>2026-05-03T15:41:54Z</time></trkpt><trkpt lat="36.016201446730065" lon="-107.07948165340022"><ele>2182.0</ele><time>2026-05-03T15:41:55Z</time></trkpt><trkpt lat="36.01607501261349" lon="-107.07951662088496"><ele>2183.0</ele><time>2026-05-03T15:41:56Z</time></trkpt><trkpt lat="36.015992053280236" lon="-107.07953969374684"><ele>2184.0</ele><time>2026-05-03T15:41:57Z</time></trkpt><trkpt lat="36.01587854813168" lon="-107.07961209082356"><ele>2183.25</ele><time>2026-05-03T15:41:58Z</time></trkpt><trkpt lat="36.015750711149835" lon="-107.07963597838774"><ele>2182.5</ele><time>2026-05-03T15:41:59Z</time></trkpt><trkpt lat="36.015606362454484" lon="-107.07959727657958"><ele>2181.75</ele><time>2026-05-03T15:42:00Z</time></trkpt><trkpt lat="36.01551153794401" lon="-107.0795431992853"><ele>2181.0</ele><time>2026-05-03T15:42:01Z</time></trkpt><trkpt lat="36.01541395091691" lon="-107.0793579251874"><ele>2181.0</ele><time>2026-05-03T15:42:03Z</time></trkpt><trkpt lat="36.01539257425618" lon="-107.07919409671159"><ele>2181.0</ele><time>2026-05-03T15:42:04Z</time></trkpt><trkpt lat="36.01534818650952" lon="-107.07903543429437"><ele>2181.0</ele><time>2026-05-03T15:42:05Z</time></trkpt><trkpt lat="36.0152947035661" lon="-107.078926490829"><ele>2181.0</ele><time>2026-05-03T15:42:06Z</time></trkpt><trkpt lat="36.01525599693397" lon="-107.07882774300391"><ele>2182.1666666666665</ele><time>2026-05-03T15:42:07Z</time></trkpt><trkpt lat="36.01528968149271" lon="-107.07875785774516"><ele>2183.3333333333335</ele><time>2026-05-03T15:42:08Z</time></trkpt><trkpt lat="36.015356080923894" lon="-107.07863160573368"><ele>2184.5</ele><time>2026-05-03T15:42:09Z</time></trkpt><trkpt lat="36.015376595937504" lon="-107.07849320626255"><ele>2185.666666666667</ele><time>2026-05-03T15:42:10Z</time></trkpt><trkpt lat="36.015374394403295" lon="-107.07840153935851"><ele>2186.8333333333335</ele><time>2026-05-03T15:42:11Z</time></trkpt><trkpt lat="36.01540069661071" lon="-107.07833025328527"><ele>2188.0</ele><time>2026-05-03T15:42:12Z</time></trkpt><trkpt lat="36.015447026171195" lon="-107.07820542074512"><ele>2189.2000000000003</ele><time>2026-05-03T15:42:13Z</time></trkpt><trkpt lat="36.01549563253798" lon="-107.07807535220617"><ele>2190.4</ele><time>2026-05-03T15:42:14Z</time></trkpt><trkpt lat="36.0154771889508" lon="-107.0779626887778"><ele>2191.6000000000004</ele><time>2026-05-03T15:42:15Z</time></trkpt><trkpt lat="36.01540986256097" lon="-107.07785340825865"><ele>2192.8</ele><time>2026-05-03T15:42:16Z</time></trkpt><trkpt lat="36.01538434283275" lon="-107.07776182791429"><ele>2194.0</ele><time>2026-05-03T15:42:17Z</time></trkpt><trkpt lat="36.01542742473295" lon="-107.07770111124394"><ele>2194.0</ele><time>2026-05-03T15:42:18Z</time></trkpt><trkpt lat="36.01550130462075" lon="-107.07759510001625"><ele>2194.0</ele><time>2026-05-03T15:42:19Z</time></trkpt><trkpt lat="36.01559717918916" lon="-107.0775136568108"><ele>2194.0</ele><time>2026-05-03T15:42:20Z</time></trkpt><trkpt lat="36.01567232542551" lon="-107.07751550839608"><ele>2194.0</ele><time>2026-05-03T15:42:21Z</time></trkpt><trkpt lat="36.01573667414243" lon="-107.07756204172021"><ele>2194.0</ele><time>2026-05-03T15:42:22Z</time></trkpt><trkpt lat="36.015849465838485" lon="-107.07752947032502"><ele>2195.25</ele><time>2026-05-03T15:42:24Z</time></trkpt><trkpt lat="36.01588986552312" lon="-107.07741065094332"><ele>2196.5</ele><time>2026-05-03T15:42:25Z</time></trkpt><trkpt lat="36.01598039910576" lon="-107.0773191306914"><ele>2197.75</ele><time>2026-05-03T15:42:26Z</time></trkpt><trkpt lat="36.01605852983958" lon="-107.07719684610228"><ele>2199.0</ele><time>2026-05-03T15:42:27Z</time></trkpt><trkpt lat="36.01610366281883" lon="-107.07706683220549"><ele>2199.0</ele><time>2026-05-03T15:42:28Z</time></trkpt><trkpt lat="36.01616078071615" lon="-107.07694395515183"><ele>2199.0</ele><time>2026-05-03T15:42:29Z</time></trkpt><trkpt lat="36.01620116743253" lon="-107.07685861102904"><ele>2199.0</ele><time>2026-05-03T15:42:30Z</time></trkpt><trkpt lat="36.01609796468016" lon="-107.07676538653506"><ele>2199.0</ele><time>2026-05-03T15:42:32Z</time></trkpt><trkpt lat="36.01598748281398" lon="-107.07669446514633"><ele>2199.0</ele><time>2026-05-03T15:42:33Z</time></trkpt><trkpt lat="36.0158671213071" lon="-107.07659770678583"><ele>2199.0</ele><time>2026-05-03T15:42:34Z</time></trkpt><trkpt lat="36.01574225716401" lon="-107.07651852021662"><ele>2199.0</ele><time>2026-05-03T15:42:35Z</time></trkpt><trkpt lat="36.01560470708436" lon="-107.07643244604255"><ele>2199.0</ele><time>2026-05-03T15:42:36Z</time></trkpt><trkpt lat="36.01549588110929" lon="-107.0763828405885"><ele>2199.0</ele><time>2026-05-03T15:42:37Z</time></trkpt><trkpt lat="36.015364643994474" lon="-107.07633079554019"><ele>2199.0</ele><time>2026-05-03T15:42:38Z</time></trkpt><trkpt lat="36.01522259796172" lon="-107.07629398500579"><ele>2199.0</ele><time>2026-05-03T15:42:39Z</time></trkpt><trkpt lat="36.015058426113555" lon="-107.07625381244404"><ele>2199.0</ele><time>2026-05-03T15:42:40Z</time></trkpt><trkpt lat="36.0149121960017" lon="-107.07620434253406"><ele>2199.0</ele><time>2026-05-03T15:42:41Z</time></trkpt><trkpt lat="36.014837230988064" lon="-107.0761826765624"><ele>2199.0</ele><time>2026-05-03T15:42:42Z</time></trkpt><trkpt lat="36.01478258698578" lon="-107.07611262958653"><ele>2199.0</ele><time>2026-05-03T15:42:43Z</time></trkpt><trkpt lat="36.01471851815773" lon="-107.07598041575328"><ele>2199.0</ele><time>2026-05-03T15:42:44Z</time></trkpt><trkpt lat="36.014671602419746" lon="-107.07584716628823"><ele>2199.0</ele><time>2026-05-03T15:42:45Z</time></trkpt><trkpt lat="36.01463118654149" lon="-107.07575417629972"><ele>2198.5</ele><time>2026-05-03T15:42:46Z</time></trkpt><trkpt lat="36.01473116686925" lon="-107.0756252808952"><ele>2198.0</ele><time>2026-05-03T15:42:48Z</time></trkpt><trkpt lat="36.01482850636932" lon="-107.07551919613942"><ele>2197.5</ele><time>2026-05-03T15:42:49Z</time></trkpt><trkpt lat="36.01491602804042" lon="-107.0753833156998"><ele>2197.0</ele><time>2026-05-03T15:42:50Z</time></trkpt><trkpt lat="36.01498286241914" lon="-107.0752651958594"><ele>2196.75</ele><time>2026-05-03T15:42:51Z</time></trkpt><trkpt lat="36.015062552226674" lon="-107.075154871075"><ele>2196.5</ele><time>2026-05-03T15:42:52Z</time></trkpt><trkpt lat="36.015160629028045" lon="-107.07503648350239"><ele>2196.25</ele><time>2026-05-03T15:42:53Z</time></trkpt><trkpt lat="36.01526171130357" lon="-107.07489329036217"><ele>2196.0</ele><time>2026-05-03T15:42:54Z</time></trkpt><trkpt lat="36.01536515668273" lon="-107.07472539512365"><ele>2195.5</ele><time>2026-05-03T15:42:55Z</time></trkpt><trkpt lat="36.01546553842628" lon="-107.07460344456317"><ele>2195.0</ele><time>2026-05-03T15:42:56Z</time></trkpt><trkpt lat="36.0155455748018" lon="-107.0744865089461"><ele>2194.5</ele><time>2026-05-03T15:42:57Z</time></trkpt><trkpt lat="36.0156255825288" lon="-107.07434591156644"><ele>2194.0</ele><time>2026-05-03T15:42:58Z</time></trkpt><trkpt lat="36.01572869285721" lon="-107.07420877961682"><ele>2194.0</ele><time>2026-05-03T15:42:59Z</time></trkpt><trkpt lat="36.01583774170542" lon="-107.07406777593884"><ele>2194.0</ele><time>2026-05-03T15:43:00Z</time></trkpt><trkpt lat="36.01595026702439" lon="-107.07389810665317"><ele>2194.0</ele><time>2026-05-03T15:43:01Z</time></trkpt><trkpt lat="36.01607026905652" lon="-107.07371802182747"><ele>2194.0</ele><time>2026-05-03T15:43:02Z</time></trkpt><trkpt lat="36.01621130939289" lon="-107.07353550082372"><ele>2194.0</ele><time>2026-05-03T15:43:03Z</time></trkpt><trkpt lat="36.016312161985695" lon="-107.07340069159255"><ele>2194.0</ele><time>2026-05-03T15:43:04Z</time></trkpt><trkpt lat="36.01641093625687" lon="-107.07322298536778"><ele>2195.0</ele><time>2026-05-03T15:43:05Z</time></trkpt><trkpt lat="36.016508032754885" lon="-107.07305812132576"><ele>2196.0</ele><time>2026-05-03T15:43:06Z</time></trkpt><trkpt lat="36.01662836029242" lon="-107.07288985657333"><ele>2197.0</ele><time>2026-05-03T15:43:07Z</time></trkpt><trkpt lat="36.01671768476613" lon="-107.07274077450718"><ele>2195.3333333333335</ele><time>2026-05-03T15:43:08Z</time></trkpt><trkpt lat="36.01679875202041" lon="-107.07260260110665"><ele>2193.6666666666665</ele><time>2026-05-03T15:43:09Z</time></trkpt><trkpt lat="36.0168936033313" lon="-107.07245613103568"><ele>2192.0</ele><time>2026-05-03T15:43:10Z</time></trkpt><trkpt lat="36.01700409868542" lon="-107.07230169419"><ele>2192.0</ele><time>2026-05-03T15:43:11Z</time></trkpt><trkpt lat="36.017099168320556" lon="-107.07217892182014"><ele>2192.0</ele><time>2026-05-03T15:43:12Z</time></trkpt><trkpt lat="36.01717888319595" lon="-107.07207774498143"><ele>2192.0</ele><time>2026-05-03T15:43:13Z</time></trkpt><trkpt lat="36.017250458750155" lon="-107.07196846066255"><ele>2192.0</ele><time>2026-05-03T15:43:14Z</time></trkpt><trkpt lat="36.01732739972077" lon="-107.07183958286026"><ele>2192.0</ele><time>2026-05-03T15:43:15Z</time></trkpt><trkpt lat="36.01742348054234" lon="-107.0716989512784"><ele>2192.0</ele><time>2026-05-03T15:43:16Z</time></trkpt><trkpt lat="36.01751375993038" lon="-107.07155500491957"><ele>2192.0</ele><time>2026-05-03T15:43:17Z</time></trkpt><trkpt lat="36.01761205407173" lon="-107.07141136886987"><ele>2192.0</ele><time>2026-05-03T15:43:18Z</time></trkpt><trkpt lat="36.01768666044792" lon="-107.07127957394475"><ele>2190.25</ele><time>2026-05-03T15:43:19Z</time></trkpt><trkpt lat="36.01774412087523" lon="-107.07118701722177"><ele>2188.5</ele><time>2026-05-03T15:43:20Z</time></trkpt><trkpt lat="36.01783756715719" lon="-107.07105612206846"><ele>2186.75</ele><time>2026-05-03T15:43:22Z</time></trkpt><trkpt lat="36.01789205490547" lon="-107.07095466714084"><ele>2185.0</ele><time>2026-05-03T15:43:23Z</time></trkpt><trkpt lat="36.01798244084835" lon="-107.0708291279178"><ele>2184.25</ele><time>2026-05-03T15:43:24Z</time></trkpt><trkpt lat="36.01808239592658" lon="-107.07069820663705"><ele>2183.5</ele><time>2026-05-03T15:43:25Z</time></trkpt><trkpt lat="36.0181668008543" lon="-107.07056118068073"><ele>2182.75</ele><time>2026-05-03T15:43:26Z</time></trkpt><trkpt lat="36.01826344360532" lon="-107.07041596000671"><ele>2182.0</ele><time>2026-05-03T15:43:27Z</time></trkpt><trkpt lat="36.018333953341674" lon="-107.070300489885"><ele>2181.7999999999997</ele><time>2026-05-03T15:43:28Z</time></trkpt><trkpt lat="36.018417202738476" lon="-107.0701773186174"><ele>2181.6</ele><time>2026-05-03T15:43:29Z</time></trkpt><trkpt lat="36.01849910786104" lon="-107.07005885648432"><ele>2181.3999999999996</ele><time>2026-05-03T15:43:30Z</time></trkpt><trkpt lat="36.01856466762654" lon="-107.06996262913782"><ele>2181.2</ele><time>2026-05-03T15:43:31Z</time></trkpt><trkpt lat="36.01862769176198" lon="-107.06988639600142"><ele>2181.0</ele><time>2026-05-03T15:43:32Z</time></trkpt><trkpt lat="36.01870344987536" lon="-107.0697723651518"><ele>2180.2</ele><time>2026-05-03T15:43:33Z</time></trkpt><trkpt lat="36.01877856537361" lon="-107.06967603371142"><ele>2179.3999999999996</ele><time>2026-05-03T15:43:34Z</time></trkpt><trkpt lat="36.01885328907588" lon="-107.06957545585871"><ele>2178.6</ele><time>2026-05-03T15:43:35Z</time></trkpt><trkpt lat="36.01892534839546" lon="-107.06947755352267"><ele>2177.7999999999997</ele><time>2026-05-03T15:43:36Z</time></trkpt><trkpt lat="36.01897076685972" lon="-107.0694112605682"><ele>2177.0</ele><time>2026-05-03T15:43:37Z</time></trkpt><trkpt lat="36.01902278700085" lon="-107.06935091600396"><ele>2177.0</ele><time>2026-05-03T15:43:38Z</time></trkpt><trkpt lat="36.019090644926784" lon="-107.06931910649676"><ele>2177.0</ele><time>2026-05-03T15:43:39Z</time></trkpt><trkpt lat="36.01917674525839" lon="-107.0693348410705"><ele>2177.0</ele><time>2026-05-03T15:43:40Z</time></trkpt><trkpt lat="36.01929822794688" lon="-107.06937371181387"><ele>2177.0</ele><time>2026-05-03T15:43:41Z</time></trkpt><trkpt lat="36.01942076186172" lon="-107.06940631578136"><ele>2177.0</ele><time>2026-05-03T15:43:42Z</time></trkpt><trkpt lat="36.019539654805634" lon="-107.06945082809723"><ele>2176.6</ele><time>2026-05-03T15:43:43Z</time></trkpt><trkpt lat="36.01963714670558" lon="-107.06950017833589"><ele>2176.2</ele><time>2026-05-03T15:43:44Z</time></trkpt><trkpt lat="36.01975495787397" lon="-107.06953869082069"><ele>2175.8</ele><time>2026-05-03T15:43:45Z</time></trkpt><trkpt lat="36.019845424773074" lon="-107.06957687405092"><ele>2175.4</ele><time>2026-05-03T15:43:46Z</time></trkpt><trkpt lat="36.01994654081418" lon="-107.06964021681796"><ele>2175.0</ele><time>2026-05-03T15:43:47Z</time></trkpt><trkpt lat="36.02004778923505" lon="-107.06972072551623"><ele>2174.25</ele><time>2026-05-03T15:43:48Z</time></trkpt><trkpt lat="36.02012676107454" lon="-107.06977457359228"><ele>2173.5</ele><time>2026-05-03T15:43:49Z</time></trkpt><trkpt lat="36.02014321724308" lon="-107.0699093675835"><ele>2172.75</ele><time>2026-05-03T15:43:51Z</time></trkpt><trkpt lat="36.02011404311268" lon="-107.07006941016498"><ele>2172.0</ele><time>2026-05-03T15:43:52Z</time></trkpt><trkpt lat="36.02010288099145" lon="-107.07023841562922"><ele>2171.7999999999997</ele><time>2026-05-03T15:43:53Z</time></trkpt><trkpt lat="36.02009962925198" lon="-107.07041794238263"><ele>2171.6</ele><time>2026-05-03T15:43:54Z</time></trkpt><trkpt lat="36.02005546788878" lon="-107.07054041959779"><ele>2171.3999999999996</ele><time>2026-05-03T15:43:55Z</time></trkpt><trkpt lat="36.0200131278201" lon="-107.07063810232756"><ele>2171.2</ele><time>2026-05-03T15:43:56Z</time></trkpt><trkpt lat="36.019969029075405" lon="-107.0707239654136"><ele>2171.0</ele><time>2026-05-03T15:43:57Z</time></trkpt><trkpt lat="36.019893632425" lon="-107.07079891495432"><ele>2171.6</ele><time>2026-05-03T15:43:58Z</time></trkpt><trkpt lat="36.019798990280734" lon="-107.07088508449034"><ele>2172.2</ele><time>2026-05-03T15:43:59Z</time></trkpt><trkpt lat="36.01975608892919" lon="-107.07097591686059"><ele>2172.8</ele><time>2026-05-03T15:44:00Z</time></trkpt><trkpt lat="36.019724761726636" lon="-107.07107720296212"><ele>2173.4</ele><time>2026-05-03T15:44:01Z</time></trkpt><trkpt lat="36.01969301502534" lon="-107.0711922940937"><ele>2174.0</ele><time>2026-05-03T15:44:02Z</time></trkpt><trkpt lat="36.01964107939825" lon="-107.071283141022"><ele>2174.0</ele><time>2026-05-03T15:44:03Z</time></trkpt><trkpt lat="36.01955198025631" lon="-107.07138657444119"><ele>2174.0</ele><time>2026-05-03T15:44:04Z</time></trkpt><trkpt lat="36.019490298522754" lon="-107.07148201413526"><ele>2174.0</ele><time>2026-05-03T15:44:05Z</time></trkpt><trkpt lat="36.01948702819261" lon="-107.07157103026658"><ele>2174.0</ele><time>2026-05-03T15:44:06Z</time></trkpt><trkpt lat="36.019532507775736" lon="-107.07165794830158"><ele>2174.0</ele><time>2026-05-03T15:44:07Z</time></trkpt><trkpt lat="36.019602849850685" lon="-107.0717933004777"><ele>2173.75</ele><time>2026-05-03T15:44:08Z</time></trkpt><trkpt lat="36.019680016724415" lon="-107.07194070847251"><ele>2173.5</ele><time>2026-05-03T15:44:09Z</time></trkpt><trkpt lat="36.019685546803515" lon="-107.07203439835855"><ele>2173.25</ele><time>2026-05-03T15:44:10Z</time></trkpt><trkpt lat="36.01961282676612" lon="-107.07221331656248"><ele>2173.0</ele><time>2026-05-03T15:44:11Z</time></trkpt><trkpt lat="36.0195406896306" lon="-107.07233953342056"><ele>2172.25</ele><time>2026-05-03T15:44:12Z</time></trkpt><trkpt lat="36.019460287496514" lon="-107.07246611696364"><ele>2171.5</ele><time>2026-05-03T15:44:13Z</time></trkpt><trkpt lat="36.019353131201896" lon="-107.07258003215371"><ele>2170.75</ele><time>2026-05-03T15:44:14Z</time></trkpt><trkpt lat="36.01925644245589" lon="-107.07272276152439"><ele>2170.0</ele><time>2026-05-03T15:44:15Z</time></trkpt><trkpt lat="36.01920022861138" lon="-107.07290096628026"><ele>2170.0</ele><time>2026-05-03T15:44:16Z</time></trkpt><trkpt lat="36.019152508617076" lon="-107.07308305712786"><ele>2170.0</ele><time>2026-05-03T15:44:17Z</time></trkpt><trkpt lat="36.01912521959511" lon="-107.07326238652522"><ele>2170.0</ele><time>2026-05-03T15:44:18Z</time></trkpt><trkpt lat="36.019104921438235" lon="-107.07343517163518"><ele>2170.0</ele><time>2026-05-03T15:44:19Z</time></trkpt><trkpt lat="36.01907250936362" lon="-107.07360048909518"><ele>2171.0</ele><time>2026-05-03T15:44:20Z</time></trkpt><trkpt lat="36.01905168384998" lon="-107.0737345792452"><ele>2172.0</ele><time>2026-05-03T15:44:21Z</time></trkpt><trkpt lat="36.01901659088037" lon="-107.07385183030713"><ele>2173.0</ele><time>2026-05-03T15:44:22Z</time></trkpt><trkpt lat="36.01894491274956" lon="-107.07398561522398"><ele>2174.0</ele><time>2026-05-03T15:44:23Z</time></trkpt><trkpt lat="36.01889869436243" lon="-107.07407291922698"><ele>2175.0</ele><time>2026-05-03T15:44:24Z</time></trkpt><trkpt lat="36.01892194183504" lon="-107.07426050133299"><ele>2175.0</ele><time>2026-05-03T15:44:26Z</time></trkpt><trkpt lat="36.01892708218911" lon="-107.07443219548658"><ele>2175.0</ele><time>2026-05-03T15:44:27Z</time></trkpt><trkpt lat="36.018966491940034" lon="-107.0745684189434"><ele>2175.0</ele><time>2026-05-03T15:44:28Z</time></trkpt><trkpt lat="36.01898056135591" lon="-107.07468886398469"><ele>2175.0</ele><time>2026-05-03T15:44:29Z</time></trkpt><trkpt lat="36.01903415161329" lon="-107.07477066981097"><ele>2175.0</ele><time>2026-05-03T15:44:30Z</time></trkpt><trkpt lat="36.01915662876453" lon="-107.07480980470979"><ele>2172.2</ele><time>2026-05-03T15:44:31Z</time></trkpt><trkpt lat="36.0192538436773" lon="-107.07485621068332"><ele>2169.4</ele><time>2026-05-03T15:44:32Z</time></trkpt><trkpt lat="36.019325582590234" lon="-107.07494414452208"><ele>2166.6</ele><time>2026-05-03T15:44:33Z</time></trkpt><trkpt lat="36.0193988223974" lon="-107.07506752443271"><ele>2163.8</ele><time>2026-05-03T15:44:34Z</time></trkpt><trkpt lat="36.019495834446786" lon="-107.0751163170938"><ele>2161.0</ele><time>2026-05-03T15:44:35Z</time></trkpt><trkpt lat="36.01963716357158" lon="-107.07519511529189"><ele>2160.0</ele><time>2026-05-03T15:44:36Z</time></trkpt><trkpt lat="36.01973233855348" lon="-107.07530647178353"><ele>2159.0</ele><time>2026-05-03T15:44:37Z</time></trkpt><trkpt lat="36.019815740584114" lon="-107.07539966780244"><ele>2158.0</ele><time>2026-05-03T15:44:38Z</time></trkpt><trkpt lat="36.01990289222493" lon="-107.0754849791175"><ele>2157.0</ele><time>2026-05-03T15:44:39Z</time></trkpt><trkpt lat="36.0200060718447" lon="-107.07553425107663"><ele>2154.6666666666665</ele><time>2026-05-03T15:44:40Z</time></trkpt><trkpt lat="36.020147433642535" lon="-107.07556096550181"><ele>2152.333333333333</ele><time>2026-05-03T15:44:41Z</time></trkpt><trkpt lat="36.020315547535574" lon="-107.07558119791074"><ele>2150.0</ele><time>2026-05-03T15:44:42Z</time></trkpt><trkpt lat="36.02048466850882" lon="-107.0755996767175"><ele>2150.0</ele><time>2026-05-03T15:44:43Z</time></trkpt><trkpt lat="36.02065129275163" lon="-107.0756346193505"><ele>2150.0</ele><time>2026-05-03T15:44:44Z</time></trkpt><trkpt lat="36.02082484273536" lon="-107.07568289061182"><ele>2150.0</ele><time>2026-05-03T15:44:45Z</time></trkpt><trkpt lat="36.021035794955075" lon="-107.07573852122114"><ele>2150.6666666666665</ele><time>2026-05-03T15:44:46Z</time></trkpt><trkpt lat="36.021241440004616" lon="-107.07579568960287"><ele>2151.3333333333335</ele><time>2026-05-03T15:44:47Z</time></trkpt><trkpt lat="36.02139570977767" lon="-107.07583130402874"><ele>2152.0</ele><time>2026-05-03T15:44:48Z</time></trkpt><trkpt lat="36.021525178823254" lon="-107.07587374097633"><ele>2152.0</ele><time>2026-05-03T15:44:49Z</time></trkpt><trkpt lat="36.021634587850976" lon="-107.07591094208597"><ele>2152.0</ele><time>2026-05-03T15:44:50Z</time></trkpt><trkpt lat="36.0217358985363" lon="-107.07594302324027"><ele>2152.0</ele><time>2026-05-03T15:44:51Z</time></trkpt><trkpt lat="36.02183937810029" lon="-107.07598188225745"><ele>2152.0</ele><time>2026-05-03T15:44:52Z</time></trkpt><trkpt lat="36.02193463744461" lon="-107.07599139578024"><ele>2152.0</ele><time>2026-05-03T15:44:53Z</time></trkpt><trkpt lat="36.02198841839684" lon="-107.07594667889998"><ele>2153.5</ele><time>2026-05-03T15:44:54Z</time></trkpt><trkpt lat="36.02202498627664" lon="-107.07573473526038"><ele>2155.0</ele><time>2026-05-03T15:44:56Z</time></trkpt><trkpt lat="36.022044799693006" lon="-107.07559208884831"><ele>2156.5</ele><time>2026-05-03T15:44:57Z</time></trkpt><trkpt lat="36.022057176996945" lon="-107.0754536688896"><ele>2158.0</ele><time>2026-05-03T15:44:58Z</time></trkpt><trkpt lat="36.022081859103075" lon="-107.07534454472069"><ele>2158.0</ele><time>2026-05-03T15:44:59Z</time></trkpt><trkpt lat="36.022109589977276" lon="-107.07527463667817"><ele>2158.0</ele><time>2026-05-03T15:45:00Z</time></trkpt><trkpt lat="36.0221426872149" lon="-107.0751272043244"><ele>2158.0</ele><time>2026-05-03T15:45:02Z</time></trkpt><trkpt lat="36.0221276819081" lon="-107.07499768588404"><ele>2158.0</ele><time>2026-05-03T15:45:03Z</time></trkpt><trkpt lat="36.022113678132996" lon="-107.07484934457686"><ele>2158.0</ele><time>2026-05-03T15:45:04Z</time></trkpt><trkpt lat="36.022114862727534" lon="-107.07470256197314"><ele>2158.25</ele><time>2026-05-03T15:45:05Z</time></trkpt><trkpt lat="36.02209329416564" lon="-107.07456834853342"><ele>2158.5</ele><time>2026-05-03T15:45:06Z</time></trkpt><trkpt lat="36.02206031624039" lon="-107.0744445144899"><ele>2158.75</ele><time>2026-05-03T15:45:07Z</time></trkpt><trkpt lat="36.02203562363518" lon="-107.07428520805426"><ele>2159.0</ele><time>2026-05-03T15:45:08Z</time></trkpt><trkpt lat="36.02204777149308" lon="-107.07413804300529"><ele>2157.8</ele><time>2026-05-03T15:45:09Z</time></trkpt><trkpt lat="36.02206911555738" lon="-107.073973399229"><ele>2156.6000000000004</ele><time>2026-05-03T15:45:10Z</time></trkpt><trkpt lat="36.02209968427696" lon="-107.07383396071484"><ele>2155.4</ele><time>2026-05-03T15:45:11Z</time></trkpt><trkpt lat="36.022135258865326" lon="-107.07372372697299"><ele>2154.2000000000003</ele><time>2026-05-03T15:45:12Z</time></trkpt><trkpt lat="36.02218841856913" lon="-107.07363571713651"><ele>2153.0</ele><time>2026-05-03T15:45:13Z</time></trkpt><trkpt lat="36.02228622443558" lon="-107.07355018556864"><ele>2153.0</ele><time>2026-05-03T15:45:14Z</time></trkpt><trkpt lat="36.02241081159095" lon="-107.07346070060201"><ele>2153.0</ele><time>2026-05-03T15:45:15Z</time></trkpt><trkpt lat="36.0224991185063" lon="-107.07335537052852"><ele>2153.0</ele><time>2026-05-03T15:45:16Z</time></trkpt><trkpt lat="36.022593841976416" lon="-107.07327886609589"><ele>2153.0</ele><time>2026-05-03T15:45:17Z</time></trkpt><trkpt lat="36.02271413160227" lon="-107.07324133469061"><ele>2153.6</ele><time>2026-05-03T15:45:18Z</time></trkpt><trkpt lat="36.02284608653505" lon="-107.07323932681221"><ele>2154.2000000000003</ele><time>2026-05-03T15:45:19Z</time></trkpt><trkpt lat="36.022947182684504" lon="-107.07326216069889"><ele>2154.8</ele><time>2026-05-03T15:45:20Z</time></trkpt><trkpt lat="36.02301920581728" lon="-107.07330538900847"><ele>2155.4</ele><time>2026-05-03T15:45:21Z</time></trkpt><trkpt lat="36.02310764169388" lon="-107.07334994558502"><ele>2156.0</ele><time>2026-05-03T15:45:22Z</time></trkpt><trkpt lat="36.02322099195463" lon="-107.0734117571775"><ele>2157.4</ele><time>2026-05-03T15:45:23Z</time></trkpt><trkpt lat="36.02332899023272" lon="-107.07346210887441"><ele>2158.8</ele><time>2026-05-03T15:45:24Z</time></trkpt><trkpt lat="36.02341935117873" lon="-107.07347023393203"><ele>2160.2000000000003</ele><time>2026-05-03T15:45:25Z</time></trkpt><trkpt lat="36.02351278519955" lon="-107.07348569549735"><ele>2161.6</ele><time>2026-05-03T15:45:26Z</time></trkpt><trkpt lat="36.02361183861734" lon="-107.07348588588043"><ele>2163.0</ele><time>2026-05-03T15:45:27Z</time></trkpt><trkpt lat="36.02369139559089" lon="-107.07342333842851"><ele>2163.0</ele><time>2026-05-03T15:45:28Z</time></trkpt><trkpt lat="36.023764011846254" lon="-107.07327810793005"><ele>2163.0</ele><time>2026-05-03T15:45:29Z</time></trkpt><trkpt lat="36.02385855279094" lon="-107.07317614731588"><ele>2163.0</ele><time>2026-05-03T15:45:30Z</time></trkpt><trkpt lat="36.02393648590992" lon="-107.07314730707024"><ele>2163.0</ele><time>2026-05-03T15:45:31Z</time></trkpt><trkpt lat="36.02399913805112" lon="-107.07306613739011"><ele>2163.0</ele><time>2026-05-03T15:45:32Z</time></trkpt><trkpt lat="36.02405193098701" lon="-107.072961458119"><ele>2163.2000000000003</ele><time>2026-05-03T15:45:33Z</time></trkpt><trkpt lat="36.02407810585775" lon="-107.07282426978804"><ele>2163.4</ele><time>2026-05-03T15:45:34Z</time></trkpt><trkpt lat="36.024101754322444" lon="-107.07271033420749"><ele>2163.6000000000004</ele><time>2026-05-03T15:45:35Z</time></trkpt><trkpt lat="36.024140124686156" lon="-107.07258761217075"><ele>2163.8</ele><time>2026-05-03T15:45:36Z</time></trkpt><trkpt lat="36.02418180199357" lon="-107.07244960435143"><ele>2164.0</ele><time>2026-05-03T15:45:37Z</time></trkpt><trkpt lat="36.0242193505694" lon="-107.0723009225337"><ele>2162.5</ele><time>2026-05-03T15:45:38Z</time></trkpt><trkpt lat="36.02426952552429" lon="-107.07212473827192"><ele>2161.0</ele><time>2026-05-03T15:45:39Z</time></trkpt><trkpt lat="36.02432298918185" lon="-107.07197323292691"><ele>2159.5</ele><time>2026-05-03T15:45:40Z</time></trkpt><trkpt lat="36.02437121414861" lon="-107.07183530951238"><ele>2158.0</ele><time>2026-05-03T15:45:41Z</time></trkpt><trkpt lat="36.024419190721574" lon="-107.07171305944874"><ele>2157.4</ele><time>2026-05-03T15:45:42Z</time></trkpt><trkpt lat="36.02447486055899" lon="-107.07157490339844"><ele>2156.8</ele><time>2026-05-03T15:45:43Z</time></trkpt><trkpt lat="36.024503702941" lon="-107.07144602127806"><ele>2156.2</ele><time>2026-05-03T15:45:44Z</time></trkpt><trkpt lat="36.02452751849424" lon="-107.0713698956427"><ele>2155.6</ele><time>2026-05-03T15:45:45Z</time></trkpt><trkpt lat="36.02458238936365" lon="-107.07129271853229"><ele>2155.0</ele><time>2026-05-03T15:45:46Z</time></trkpt><trkpt lat="36.02465814078273" lon="-107.07121015789936"><ele>2155.0</ele><time>2026-05-03T15:45:47Z</time></trkpt><trkpt lat="36.02475279580787" lon="-107.0710902548068"><ele>2155.0</ele><time>2026-05-03T15:45:48Z</time></trkpt><trkpt lat="36.02482072059709" lon="-107.07092084499511"><ele>2155.0</ele><time>2026-05-03T15:45:49Z</time></trkpt><trkpt lat="36.02488575730327" lon="-107.07076430557653"><ele>2155.0</ele><time>2026-05-03T15:45:50Z</time></trkpt><trkpt lat="36.02495225665405" lon="-107.0706045703506"><ele>2156.0</ele><time>2026-05-03T15:45:51Z</time></trkpt><trkpt lat="36.02501334876401" lon="-107.07044034779146"><ele>2157.0</ele><time>2026-05-03T15:45:52Z</time></trkpt><trkpt lat="36.025071035562796" lon="-107.07030068562355"><ele>2158.0</ele><time>2026-05-03T15:45:53Z</time></trkpt><trkpt lat="36.02514896839779" lon="-107.07017088051798"><ele>2159.0</ele><time>2026-05-03T15:45:54Z</time></trkpt><trkpt lat="36.02523201243535" lon="-107.07001416452114"><ele>2156.5</ele><time>2026-05-03T15:45:55Z</time></trkpt><trkpt lat="36.02529985574105" lon="-107.06986121693619"><ele>2154.0</ele><time>2026-05-03T15:45:56Z</time></trkpt><trkpt lat="36.025351234455925" lon="-107.06974334603802"><ele>2151.5</ele><time>2026-05-03T15:45:57Z</time></trkpt><trkpt lat="36.02542457872925" lon="-107.06963868825446"><ele>2149.0</ele><time>2026-05-03T15:45:58Z</time></trkpt><trkpt lat="36.025521419147815" lon="-107.0695188172408"><ele>2149.0</ele><time>2026-05-03T15:45:59Z</time></trkpt><trkpt lat="36.02561106926725" lon="-107.06940560937714"><ele>2149.0</ele><time>2026-05-03T15:46:00Z</time></trkpt><trkpt lat="36.025647657041915" lon="-107.06932032713722"><ele>2149.0</ele><time>2026-05-03T15:46:01Z</time></trkpt><trkpt lat="36.02571015492555" lon="-107.0692246098735"><ele>2149.0</ele><time>2026-05-03T15:46:03Z</time></trkpt><trkpt lat="36.02575700171267" lon="-107.06915204112228"><ele>2149.0</ele><time>2026-05-03T15:46:04Z</time></trkpt><trkpt lat="36.02584572222487" lon="-107.06907255852408"><ele>2151.0</ele><time>2026-05-03T15:46:05Z</time></trkpt><trkpt lat="36.02595066552029" lon="-107.06900203637335"><ele>2153.0</ele><time>2026-05-03T15:46:06Z</time></trkpt><trkpt lat="36.026043924993004" lon="-107.06891147950225"><ele>2155.0</ele><time>2026-05-03T15:46:07Z</time></trkpt><trkpt lat="36.02611954164796" lon="-107.06881026964388"><ele>2157.0</ele><time>2026-05-03T15:46:08Z</time></trkpt><trkpt lat="36.026179363302276" lon="-107.06869607662114"><ele>2157.0</ele><time>2026-05-03T15:46:09Z</time></trkpt><trkpt lat="36.02621153755777" lon="-107.06857668881298"><ele>2157.0</ele><time>2026-05-03T15:46:10Z</time></trkpt><trkpt lat="36.02622213607484" lon="-107.06846037485677"><ele>2157.0</ele><time>2026-05-03T15:46:11Z</time></trkpt><trkpt lat="36.02620627788475" lon="-107.06836883862476"><ele>2157.0</ele><time>2026-05-03T15:46:12Z</time></trkpt><trkpt lat="36.02620372689124" lon="-107.0682258843534"><ele>2157.0</ele><time>2026-05-03T15:46:13Z</time></trkpt><trkpt lat="36.02619269010401" lon="-107.06808647990994"><ele>2157.7999999999997</ele><time>2026-05-03T15:46:14Z</time></trkpt><trkpt lat="36.0261999677631" lon="-107.0679645591487"><ele>2158.6</ele><time>2026-05-03T15:46:15Z</time></trkpt><trkpt lat="36.026141480385114" lon="-107.06783327626658"><ele>2159.3999999999996</ele><time>2026-05-03T15:46:17Z</time></trkpt><trkpt lat="36.02608405869143" lon="-107.06776305054444"><ele>2160.2</ele><time>2026-05-03T15:46:18Z</time></trkpt><trkpt lat="36.02600726620421" lon="-107.06768356639891"><ele>2161.0</ele><time>2026-05-03T15:46:19Z</time></trkpt><trkpt lat="36.0259286981706" lon="-107.06759915738962"><ele>2161.0</ele><time>2026-05-03T15:46:20Z</time></trkpt><trkpt lat="36.025862755836535" lon="-107.0674897436269"><ele>2161.0</ele><time>2026-05-03T15:46:21Z</time></trkpt><trkpt lat="36.025822496843396" lon="-107.06733018324438"><ele>2161.0</ele><time>2026-05-03T15:46:22Z</time></trkpt><trkpt lat="36.025771429618636" lon="-107.06714825891073"><ele>2161.0</ele><time>2026-05-03T15:46:23Z</time></trkpt><trkpt lat="36.02572732434676" lon="-107.06701892330908"><ele>2160.4</ele><time>2026-05-03T15:46:24Z</time></trkpt><trkpt lat="36.02570757204475" lon="-107.06689877697866"><ele>2159.8</ele><time>2026-05-03T15:46:25Z</time></trkpt><trkpt lat="36.02568525820449" lon="-107.06677808801109"><ele>2159.2000000000003</ele><time>2026-05-03T15:46:26Z</time></trkpt><trkpt lat="36.02565110140339" lon="-107.06667541903877"><ele>2158.6</ele><time>2026-05-03T15:46:27Z</time></trkpt><trkpt lat="36.02559398004471" lon="-107.06659813426722"><ele>2158.0</ele><time>2026-05-03T15:46:28Z</time></trkpt><trkpt lat="36.02556862912426" lon="-107.0664977396757"><ele>2157.75</ele><time>2026-05-03T15:46:29Z</time></trkpt><trkpt lat="36.025523298073615" lon="-107.06637606677147"><ele>2157.5</ele><time>2026-05-03T15:46:30Z</time></trkpt><trkpt lat="36.025475110642844" lon="-107.06626605997619"><ele>2157.25</ele><time>2026-05-03T15:46:31Z</time></trkpt><trkpt lat="36.02544880567344" lon="-107.06612382308818"><ele>2157.0</ele><time>2026-05-03T15:46:32Z</time></trkpt><trkpt lat="36.02546709370396" lon="-107.06596436732977"><ele>2157.0</ele><time>2026-05-03T15:46:33Z</time></trkpt><trkpt lat="36.0255128725856" lon="-107.06581717344582"><ele>2157.0</ele><time>2026-05-03T15:46:34Z</time></trkpt><trkpt lat="36.025536451583285" lon="-107.06567488141923"><ele>2157.0</ele><time>2026-05-03T15:46:35Z</time></trkpt><trkpt lat="36.02554166097112" lon="-107.06555622574272"><ele>2157.0</ele><time>2026-05-03T15:46:36Z</time></trkpt><trkpt lat="36.025549347768106" lon="-107.06542854284557"><ele>2157.0</ele><time>2026-05-03T15:46:37Z</time></trkpt><trkpt lat="36.02555475397223" lon="-107.06531643787255"><ele>2155.2</ele><time>2026-05-03T15:46:38Z</time></trkpt><trkpt lat="36.02557108585834" lon="-107.06520174458417"><ele>2153.3999999999996</ele><time>2026-05-03T15:46:39Z</time></trkpt><trkpt lat="36.02559178796241" lon="-107.06508897664919"><ele>2151.6000000000004</ele><time>2026-05-03T15:46:40Z</time></trkpt><trkpt lat="36.02563278699304" lon="-107.06497182036783"><ele>2149.8</ele><time>2026-05-03T15:46:41Z</time></trkpt><trkpt lat="36.02568322645919" lon="-107.06483940334618"><ele>2148.0</ele><time>2026-05-03T15:46:42Z</time></trkpt><trkpt lat="36.02572292061675" lon="-107.06471418606112"><ele>2149.2000000000003</ele><time>2026-05-03T15:46:43Z</time></trkpt><trkpt lat="36.02577700653242" lon="-107.06459061008653"><ele>2150.4</ele><time>2026-05-03T15:46:45Z</time></trkpt><trkpt lat="36.02583208104092" lon="-107.0645366730701"><ele>2151.6000000000004</ele><time>2026-05-03T15:46:46Z</time></trkpt><trkpt lat="36.025936829946446" lon="-107.06450544054005"><ele>2152.8</ele><time>2026-05-03T15:46:47Z</time></trkpt><trkpt lat="36.02603658512255" lon="-107.06444777061567"><ele>2154.0</ele><time>2026-05-03T15:46:48Z</time></trkpt><trkpt lat="36.02610839772822" lon="-107.06435494595821"><ele>2154.0</ele><time>2026-05-03T15:46:49Z</time></trkpt><trkpt lat="36.026199332707805" lon="-107.06427331799024"><ele>2154.0</ele><time>2026-05-03T15:46:50Z</time></trkpt><trkpt lat="36.02629473090183" lon="-107.06418551671362"><ele>2154.0</ele><time>2026-05-03T15:46:51Z</time></trkpt><trkpt lat="36.026368275449315" lon="-107.06411875269332"><ele>2154.0</ele><time>2026-05-03T15:46:52Z</time></trkpt><trkpt lat="36.02643338427282" lon="-107.06404637354348"><ele>2154.0</ele><time>2026-05-03T15:46:53Z</time></trkpt><trkpt lat="36.02652867790451" lon="-107.0639980645675"><ele>2155.6</ele><time>2026-05-03T15:46:54Z</time></trkpt><trkpt lat="36.02665404685701" lon="-107.06399228725762"><ele>2157.2</ele><time>2026-05-03T15:46:55Z</time></trkpt><trkpt lat="36.02677885501379" lon="-107.06400202573427"><ele>2158.7999999999997</ele><time>2026-05-03T15:46:56Z</time></trkpt><trkpt lat="36.02686083143409" lon="-107.06400764985085"><ele>2160.4</ele><time>2026-05-03T15:46:57Z</time></trkpt><trkpt lat="36.02692741389703" lon="-107.06400301864558"><ele>2162.0</ele><time>2026-05-03T15:46:58Z</time></trkpt><trkpt lat="36.0269930992213" lon="-107.06403131471001"><ele>2162.0</ele><time>2026-05-03T15:46:59Z</time></trkpt><trkpt lat="36.027062664061845" lon="-107.06407724943617"><ele>2162.0</ele><time>2026-05-03T15:47:00Z</time></trkpt><trkpt lat="36.027126265199136" lon="-107.0641352333742"><ele>2162.0</ele><time>2026-05-03T15:47:01Z</time></trkpt><trkpt lat="36.027208005153064" lon="-107.0641586862354"><ele>2162.0</ele><time>2026-05-03T15:47:02Z</time></trkpt><trkpt lat="36.027300530496504" lon="-107.0641317462557"><ele>2162.0</ele><time>2026-05-03T15:47:03Z</time></trkpt><trkpt lat="36.027373101564486" lon="-107.06413968429752"><ele>2162.0</ele><time>2026-05-03T15:47:04Z</time></trkpt><trkpt lat="36.0274921870358" lon="-107.06426424429527"><ele>2164.25</ele><time>2026-05-03T15:47:06Z</time></trkpt><trkpt lat="36.027545298968995" lon="-107.06434002781526"><ele>2166.5</ele><time>2026-05-03T15:47:07Z</time></trkpt><trkpt lat="36.027564768202375" lon="-107.06452324793624"><ele>2168.75</ele><time>2026-05-03T15:47:09Z</time></trkpt><trkpt lat="36.02758464248032" lon="-107.06464362379964"><ele>2171.0</ele><time>2026-05-03T15:47:10Z</time></trkpt><trkpt lat="36.027682574138915" lon="-107.06476383328481"><ele>2171.0</ele><time>2026-05-03T15:47:12Z</time></trkpt><trkpt lat="36.02777730759595" lon="-107.06478862057898"><ele>2171.0</ele><time>2026-05-03T15:47:13Z</time></trkpt><trkpt lat="36.027863924206976" lon="-107.06482019540347"><ele>2171.0</ele><time>2026-05-03T15:47:14Z</time></trkpt><trkpt lat="36.02794339322065" lon="-107.06485844834835"><ele>2171.0</ele><time>2026-05-03T15:47:15Z</time></trkpt><trkpt lat="36.028014792670895" lon="-107.06488498492648"><ele>2171.0</ele><time>2026-05-03T15:47:16Z</time></trkpt><trkpt lat="36.02808971330774" lon="-107.06490106931983"><ele>2171.0</ele><time>2026-05-03T15:47:17Z</time></trkpt><trkpt lat="36.02816030047448" lon="-107.06490374335715"><ele>2171.0</ele><time>2026-05-03T15:47:18Z</time></trkpt><trkpt lat="36.028271171726814" lon="-107.0648594864604"><ele>2171.0</ele><time>2026-05-03T15:47:20Z</time></trkpt><trkpt lat="36.0282771826657" lon="-107.06470961001557"><ele>2171.0</ele><time>2026-05-03T15:47:21Z</time></trkpt><trkpt lat="36.0282293108423" lon="-107.06455112109502"><ele>2171.0</ele><time>2026-05-03T15:47:22Z</time></trkpt><trkpt lat="36.02813500373154" lon="-107.06440377373941"><ele>2171.0</ele><time>2026-05-03T15:47:23Z</time></trkpt><trkpt lat="36.028067554377984" lon="-107.06428547733928"><ele>2171.0</ele><time>2026-05-03T15:47:24Z</time></trkpt><trkpt lat="36.02805193201844" lon="-107.06418058531649"><ele>2171.0</ele><time>2026-05-03T15:47:25Z</time></trkpt><trkpt lat="36.0280082393409" lon="-107.06411554264727"><ele>2171.0</ele><time>2026-05-03T15:47:26Z</time></trkpt><trkpt lat="36.02795307089567" lon="-107.06397389786098"><ele>2171.0</ele><time>2026-05-03T15:47:28Z</time></trkpt><trkpt lat="36.02795328648122" lon="-107.06387431347544"><ele>2169.6</ele><time>2026-05-03T15:47:29Z</time></trkpt><trkpt lat="36.027967590461444" lon="-107.0637504956438"><ele>2168.2</ele><time>2026-05-03T15:47:30Z</time></trkpt><trkpt lat="36.02797641063741" lon="-107.06366414867551"><ele>2166.8</ele><time>2026-05-03T15:47:31Z</time></trkpt><trkpt lat="36.02800254937301" lon="-107.06354415995027"><ele>2165.4</ele><time>2026-05-03T15:47:33Z</time></trkpt><trkpt lat="36.02801960163058" lon="-107.06341807481527"><ele>2164.0</ele><time>2026-05-03T15:47:34Z</time></trkpt><trkpt lat="36.028027907091975" lon="-107.06328826276798"><ele>2163.5</ele><time>2026-05-03T15:47:35Z</time></trkpt><trkpt lat="36.02807528356612" lon="-107.06319056274299"><ele>2163.0</ele><time>2026-05-03T15:47:36Z</time></trkpt><trkpt lat="36.02816507829627" lon="-107.06305662820077"><ele>2162.5</ele><time>2026-05-03T15:47:37Z</time></trkpt><trkpt lat="36.02826283555489" lon="-107.0629388184293"><ele>2162.0</ele><time>2026-05-03T15:47:37.999Z</time></trkpt><trkpt lat="36.02836187035829" lon="-107.06281030139789"><ele>2162.0</ele><time>2026-05-03T15:47:39Z</time></trkpt><trkpt lat="36.02845085819881" lon="-107.06266944433851"><ele>2162.0</ele><time>2026-05-03T15:47:39.999Z</time></trkpt><trkpt lat="36.02851797220422" lon="-107.06256077960387"><ele>2162.0</ele><time>2026-05-03T15:47:40.999Z</time></trkpt><trkpt lat="36.028575984762284" lon="-107.06246425983218"><ele>2162.0</ele><time>2026-05-03T15:47:41.999Z</time></trkpt><trkpt lat="36.028646465426206" lon="-107.06238072974445"><ele>2160.2</ele><time>2026-05-03T15:47:42.999Z</time></trkpt><trkpt lat="36.02875914875032" lon="-107.06234082559065"><ele>2158.3999999999996</ele><time>2026-05-03T15:47:43.999Z</time></trkpt><trkpt lat="36.02886984351921" lon="-107.06233665168845"><ele>2156.6000000000004</ele><time>2026-05-03T15:47:44.999Z</time></trkpt><trkpt lat="36.02896873053544" lon="-107.06231247770809"><ele>2154.8</ele><time>2026-05-03T15:47:45.999Z</time></trkpt><trkpt lat="36.02905683356105" lon="-107.06227618621111"><ele>2153.0</ele><time>2026-05-03T15:47:46.999Z</time></trkpt><trkpt lat="36.029135987888694" lon="-107.06225594019149"><ele>2152.2000000000003</ele><time>2026-05-03T15:47:47.999Z</time></trkpt><trkpt lat="36.02923176709647" lon="-107.06224072549502"><ele>2151.4</ele><time>2026-05-03T15:47:48.999Z</time></trkpt><trkpt lat="36.02930798429252" lon="-107.06222673296348"><ele>2150.6000000000004</ele><time>2026-05-03T15:47:49.999Z</time></trkpt><trkpt lat="36.02937576442718" lon="-107.06217840745668"><ele>2149.8</ele><time>2026-05-03T15:47:50.999Z</time></trkpt><trkpt lat="36.02945191838948" lon="-107.06208167986175"><ele>2149.0</ele><time>2026-05-03T15:47:52.999Z</time></trkpt><trkpt lat="36.02955042327608" lon="-107.06223526545594"><ele>2149.0</ele><time>2026-05-03T15:47:54.999Z</time></trkpt><trkpt lat="36.029607565126746" lon="-107.06227637795136"><ele>2149.0</ele><time>2026-05-03T15:47:55.999Z</time></trkpt><trkpt lat="36.029694394374886" lon="-107.06227178456619"><ele>2149.0</ele><time>2026-05-03T15:47:56.999Z</time></trkpt><trkpt lat="36.02979482223806" lon="-107.06227393183366"><ele>2149.0</ele><time>2026-05-03T15:47:57.999Z</time></trkpt><trkpt lat="36.029884266665384" lon="-107.06229286588434"><ele>2149.0</ele><time>2026-05-03T15:47:58.999Z</time></trkpt><trkpt lat="36.03000071981705" lon="-107.06233226563499"><ele>2148.3333333333335</ele><time>2026-05-03T15:48:00.999Z</time></trkpt><trkpt lat="36.03003530028395" lon="-107.06239800855707"><ele>2147.666666666667</ele><time>2026-05-03T15:48:01.999Z</time></trkpt><trkpt lat="36.03012047567853" lon="-107.06250926331435"><ele>2147.0</ele><time>2026-05-03T15:48:03.999Z</time></trkpt><trkpt lat="36.030207677066294" lon="-107.06257511865171"><ele>2146.3333333333335</ele><time>2026-05-03T15:48:04.999Z</time></trkpt><trkpt lat="36.03028710732348" lon="-107.06262071016086"><ele>2145.6666666666665</ele><time>2026-05-03T15:48:05.999Z</time></trkpt><trkpt lat="36.03035525137727" lon="-107.06261490166743"><ele>2145.0</ele><time>2026-05-03T15:48:06.999Z</time></trkpt><trkpt lat="36.03043906718716" lon="-107.06260212382011"><ele>2145.0</ele><time>2026-05-03T15:48:08.999Z</time></trkpt><trkpt lat="36.03047850924502" lon="-107.06254087709618"><ele>2145.0</ele><time>2026-05-03T15:48:09.999Z</time></trkpt><trkpt lat="36.030526670347065" lon="-107.06246602700435"><ele>2145.0</ele><time>2026-05-03T15:48:10.999Z</time></trkpt><trkpt lat="36.03050725174611" lon="-107.06236450021768"><ele>2145.0</ele><time>2026-05-03T15:48:12.999Z</time></trkpt><trkpt lat="36.03045664536753" lon="-107.0622355341761"><ele>2145.0</ele><time>2026-05-03T15:48:13.999Z</time></trkpt><trkpt lat="36.03041253530117" lon="-107.0621033425743"><ele>2145.0</ele><time>2026-05-03T15:48:14.999Z</time></trkpt><trkpt lat="36.030386002088676" lon="-107.06202319629597"><ele>2145.0</ele><time>2026-05-03T15:48:15.999Z</time></trkpt><trkpt lat="36.030338029018374" lon="-107.06194440374726"><ele>2145.0</ele><time>2026-05-03T15:48:16.999Z</time></trkpt><trkpt lat="36.03031512115392" lon="-107.06185505935866"><ele>2145.0</ele><time>2026-05-03T15:48:17.999Z</time></trkpt><trkpt lat="36.03030669104272" lon="-107.06175090732734"><ele>2145.0</ele><time>2026-05-03T15:48:18.999Z</time></trkpt><trkpt lat="36.030325513215125" lon="-107.06164017380098"><ele>2145.0</ele><time>2026-05-03T15:48:19.999Z</time></trkpt><trkpt lat="36.03034493599833" lon="-107.06153372762675"><ele>2142.75</ele><time>2026-05-03T15:48:20.999Z</time></trkpt><trkpt lat="36.03037009367598" lon="-107.06141655136202"><ele>2140.5</ele><time>2026-05-03T15:48:21.999Z</time></trkpt><trkpt lat="36.03033974256038" lon="-107.06124264913724"><ele>2138.25</ele><time>2026-05-03T15:48:22.999Z</time></trkpt><trkpt lat="36.030295084326724" lon="-107.06108710083551"><ele>2136.0</ele><time>2026-05-03T15:48:23.999Z</time></trkpt><trkpt lat="36.03024714274966" lon="-107.06097551834293"><ele>2136.0</ele><time>2026-05-03T15:48:24.999Z</time></trkpt><trkpt lat="36.03015140850782" lon="-107.06089186572757"><ele>2136.0</ele><time>2026-05-03T15:48:25.999Z</time></trkpt><trkpt lat="36.030058021738746" lon="-107.0607882238523"><ele>2136.0</ele><time>2026-05-03T15:48:26.999Z</time></trkpt><trkpt lat="36.02998211037167" lon="-107.06067154667137"><ele>2136.0</ele><time>2026-05-03T15:48:27.999Z</time></trkpt><trkpt lat="36.02994040337469" lon="-107.06050839247843"><ele>2135.4</ele><time>2026-05-03T15:48:28.999Z</time></trkpt><trkpt lat="36.02990914485892" lon="-107.06036081027942"><ele>2134.8</ele><time>2026-05-03T15:48:29.999Z</time></trkpt><trkpt lat="36.029856857726045" lon="-107.06028220707921"><ele>2134.2000000000003</ele><time>2026-05-03T15:48:30.999Z</time></trkpt><trkpt lat="36.02976859964488" lon="-107.0602163764666"><ele>2133.6</ele><time>2026-05-03T15:48:31.999Z</time></trkpt><trkpt lat="36.02967276314734" lon="-107.0601182519299"><ele>2133.0</ele><time>2026-05-03T15:48:32.999Z</time></trkpt><trkpt lat="36.02954414262444" lon="-107.06004298960487"><ele>2133.0</ele><time>2026-05-03T15:48:33.999Z</time></trkpt><trkpt lat="36.02939372307047" lon="-107.0599612445681"><ele>2133.0</ele><time>2026-05-03T15:48:34.999Z</time></trkpt><trkpt lat="36.02925739404877" lon="-107.05986750192817"><ele>2133.0</ele><time>2026-05-03T15:48:35.999Z</time></trkpt><trkpt lat="36.0291515155881" lon="-107.05981616235425"><ele>2133.0</ele><time>2026-05-03T15:48:36.999Z</time></trkpt><trkpt lat="36.029029152822" lon="-107.05975715712847"><ele>2132.25</ele><time>2026-05-03T15:48:37.999Z</time></trkpt><trkpt lat="36.028921729400956" lon="-107.05966369216705"><ele>2131.5</ele><time>2026-05-03T15:48:38.999Z</time></trkpt><trkpt lat="36.02881953036623" lon="-107.0595338489059"><ele>2130.75</ele><time>2026-05-03T15:48:39.999Z</time></trkpt><trkpt lat="36.02873272307781" lon="-107.05940247280833"><ele>2130.0</ele><time>2026-05-03T15:48:40.999Z</time></trkpt><trkpt lat="36.0286730419761" lon="-107.05929858999878"><ele>2130.0</ele><time>2026-05-03T15:48:41.999Z</time></trkpt><trkpt lat="36.0286306835018" lon="-107.0592191835268"><ele>2130.0</ele><time>2026-05-03T15:48:42.999Z</time></trkpt><trkpt lat="36.02859814909802" lon="-107.05914507966253"><ele>2130.0</ele><time>2026-05-03T15:48:43.999Z</time></trkpt><trkpt lat="36.02857976344953" lon="-107.05906026343911"><ele>2130.0</ele><time>2026-05-03T15:48:44.999Z</time></trkpt><trkpt lat="36.02857487855174" lon="-107.05895628391934"><ele>2130.0</ele><time>2026-05-03T15:48:45.999Z</time></trkpt><trkpt lat="36.02859651082996" lon="-107.05885396638969"><ele>2130.0</ele><time>2026-05-03T15:48:46.999Z</time></trkpt><trkpt lat="36.028652937851774" lon="-107.05873656478751"><ele>2129.8</ele><time>2026-05-03T15:48:47.999Z</time></trkpt><trkpt lat="36.02875534132109" lon="-107.05863855052199"><ele>2129.6</ele><time>2026-05-03T15:48:48.999Z</time></trkpt><trkpt lat="36.02882575116946" lon="-107.05858518488108"><ele>2129.4</ele><time>2026-05-03T15:48:49.999Z</time></trkpt><trkpt lat="36.02890782048014" lon="-107.0585078569873"><ele>2129.2</ele><time>2026-05-03T15:48:51.999Z</time></trkpt><trkpt lat="36.02903530149815" lon="-107.05847902858065"><ele>2129.0</ele><time>2026-05-03T15:48:53.999Z</time></trkpt><trkpt lat="36.02912218590045" lon="-107.05855390902396"><ele>2129.0</ele><time>2026-05-03T15:48:54.999Z</time></trkpt><trkpt lat="36.029188630832095" lon="-107.0586776040048"><ele>2129.0</ele><time>2026-05-03T15:48:55.999Z</time></trkpt><trkpt lat="36.029236746190726" lon="-107.05883189555315"><ele>2129.0</ele><time>2026-05-03T15:48:56.999Z</time></trkpt><trkpt lat="36.02931111664074" lon="-107.05896369734417"><ele>2129.0</ele><time>2026-05-03T15:48:57.999Z</time></trkpt><trkpt lat="36.02943449486593" lon="-107.05908753695225"><ele>2129.333333333333</ele><time>2026-05-03T15:48:58.999Z</time></trkpt><trkpt lat="36.02960037909023" lon="-107.05914565586906"><ele>2129.6666666666665</ele><time>2026-05-03T15:48:59.999Z</time></trkpt><trkpt lat="36.02976035628966" lon="-107.05921988650842"><ele>2130.0</ele><time>2026-05-03T15:49:00.999Z</time></trkpt><trkpt lat="36.029898033239185" lon="-107.05925763301936"><ele>2130.1666666666665</ele><time>2026-05-03T15:49:01.999Z</time></trkpt><trkpt lat="36.02999227725514" lon="-107.05929517357558"><ele>2130.3333333333335</ele><time>2026-05-03T15:49:02.999Z</time></trkpt><trkpt lat="36.03005716066672" lon="-107.05934461685712"><ele>2130.5</ele><time>2026-05-03T15:49:03.999Z</time></trkpt><trkpt lat="36.030112553862715" lon="-107.05938619051327"><ele>2130.666666666667</ele><time>2026-05-03T15:49:04.999Z</time></trkpt><trkpt lat="36.03022979056367" lon="-107.05934473774401"><ele>2130.8333333333335</ele><time>2026-05-03T15:49:06.999Z</time></trkpt><trkpt lat="36.030287945108746" lon="-107.05929330912787"><ele>2131.0</ele><time>2026-05-03T15:49:07.999Z</time></trkpt><trkpt lat="36.03033608526932" lon="-107.059164272066"><ele>2131.0</ele><time>2026-05-03T15:49:08.999Z</time></trkpt><trkpt lat="36.03039896801388" lon="-107.05902762768773"><ele>2131.0</ele><time>2026-05-03T15:49:09.999Z</time></trkpt><trkpt lat="36.03045067015484" lon="-107.058958370383"><ele>2131.0</ele><time>2026-05-03T15:49:10.999Z</time></trkpt><trkpt lat="36.03052822182634" lon="-107.05885362685382"><ele>2131.0</ele><time>2026-05-03T15:49:12.999Z</time></trkpt><trkpt lat="36.0306783184426" lon="-107.05891097673135"><ele>2131.0</ele><time>2026-05-03T15:49:14.999Z</time></trkpt><trkpt lat="36.030739083783864" lon="-107.05898903421821"><ele>2131.0</ele><time>2026-05-03T15:49:15.999Z</time></trkpt><trkpt lat="36.03074820161332" lon="-107.05907539657026"><ele>2131.0</ele><time>2026-05-03T15:49:16.999Z</time></trkpt><trkpt lat="36.030753078142425" lon="-107.05916110934334"><ele>2131.0</ele><time>2026-05-03T15:49:17.999Z</time></trkpt><trkpt lat="36.03076257623823" lon="-107.0592417779143"><ele>2131.0</ele><time>2026-05-03T15:49:18.999Z</time></trkpt><trkpt lat="36.03076507747414" lon="-107.05934694714115"><ele>2131.0</ele><time>2026-05-03T15:49:19.999Z</time></trkpt><trkpt lat="36.03075358752608" lon="-107.05945461770744"><ele>2131.0</ele><time>2026-05-03T15:49:20.999Z</time></trkpt><trkpt lat="36.03071390135483" lon="-107.05953133169741"><ele>2131.0</ele><time>2026-05-03T15:49:21.999Z</time></trkpt><trkpt lat="36.0307893392438" lon="-107.05963558169137"><ele>2131.0</ele><time>2026-05-03T15:49:24.999Z</time></trkpt><trkpt lat="36.03085439554327" lon="-107.05965989103481"><ele>2131.0</ele><time>2026-05-03T15:49:25.999Z</time></trkpt><trkpt lat="36.030944388603096" lon="-107.05966197218787"><ele>2131.0</ele><time>2026-05-03T15:49:26.999Z</time></trkpt><trkpt lat="36.031052094355566" lon="-107.0596211038968"><ele>2131.0</ele><time>2026-05-03T15:49:27.999Z</time></trkpt><trkpt lat="36.031169496131945" lon="-107.05957013941222"><ele>2131.0</ele><time>2026-05-03T15:49:28.999Z</time></trkpt><trkpt lat="36.03127889688586" lon="-107.05951220519182"><ele>2131.0</ele><time>2026-05-03T15:49:30Z</time></trkpt><trkpt lat="36.03140334759573" lon="-107.05944316542214"><ele>2131.0</ele><time>2026-05-03T15:49:31Z</time></trkpt><trkpt lat="36.03154612938061" lon="-107.05936883117224"><ele>2131.0</ele><time>2026-05-03T15:49:32Z</time></trkpt><trkpt lat="36.0316100904145" lon="-107.05933256061162"><ele>2131.0</ele><time>2026-05-03T15:49:33Z</time></trkpt><trkpt lat="36.03168125186647" lon="-107.0591824645636"><ele>2131.0</ele><time>2026-05-03T15:49:35Z</time></trkpt><trkpt lat="36.031737554756056" lon="-107.05907800935069"><ele>2131.0</ele><time>2026-05-03T15:49:36Z</time></trkpt><trkpt lat="36.03178619079153" lon="-107.05901553270986"><ele>2131.0</ele><time>2026-05-03T15:49:37Z</time></trkpt><trkpt lat="36.03185730934501" lon="-107.05903941120127"><ele>2131.2</ele><time>2026-05-03T15:49:38Z</time></trkpt><trkpt lat="36.03196587137738" lon="-107.05905907379005"><ele>2131.3999999999996</ele><time>2026-05-03T15:49:39Z</time></trkpt><trkpt lat="36.0320583218134" lon="-107.05905123554602"><ele>2131.6</ele><time>2026-05-03T15:49:40Z</time></trkpt><trkpt lat="36.032161940551944" lon="-107.0590311362442"><ele>2131.7999999999997</ele><time>2026-05-03T15:49:42Z</time></trkpt><trkpt lat="36.03224252401601" lon="-107.05902176145648"><ele>2132.0</ele><time>2026-05-03T15:49:43Z</time></trkpt><trkpt lat="36.03231944319399" lon="-107.0590939969391"><ele>2131.75</ele><time>2026-05-03T15:49:44Z</time></trkpt><trkpt lat="36.032413715998004" lon="-107.05920875004553"><ele>2131.5</ele><time>2026-05-03T15:49:45Z</time></trkpt><trkpt lat="36.03252750940036" lon="-107.0593198202246"><ele>2131.25</ele><time>2026-05-03T15:49:46Z</time></trkpt><trkpt lat="36.03267219810575" lon="-107.05938162320489"><ele>2131.0</ele><time>2026-05-03T15:49:47Z</time></trkpt><trkpt lat="36.03279905006238" lon="-107.05944799654728"><ele>2131.3333333333335</ele><time>2026-05-03T15:49:48Z</time></trkpt><trkpt lat="36.03289830249485" lon="-107.05951055176129"><ele>2131.666666666667</ele><time>2026-05-03T15:49:49Z</time></trkpt><trkpt lat="36.032972536831494" lon="-107.0595733164238"><ele>2132.0</ele><time>2026-05-03T15:49:50Z</time></trkpt><trkpt lat="36.033021341053455" lon="-107.05962265264269"><ele>2132.3333333333335</ele><time>2026-05-03T15:49:51Z</time></trkpt><trkpt lat="36.03311483885652" lon="-107.05960245201099"><ele>2132.6666666666665</ele><time>2026-05-03T15:49:53Z</time></trkpt><trkpt lat="36.0331777596341" lon="-107.05953275698634"><ele>2133.0</ele><time>2026-05-03T15:49:54Z</time></trkpt><trkpt lat="36.03322832616885" lon="-107.05945506695674"><ele>2133.0</ele><time>2026-05-03T15:49:55Z</time></trkpt><trkpt lat="36.033303636161406" lon="-107.05937874855593"><ele>2133.0</ele><time>2026-05-03T15:49:56Z</time></trkpt><trkpt lat="36.03342058390976" lon="-107.05931682753983"><ele>2133.0</ele><time>2026-05-03T15:49:57Z</time></trkpt><trkpt lat="36.03354349524736" lon="-107.0592648242627"><ele>2133.0</ele><time>2026-05-03T15:49:58Z</time></trkpt><trkpt lat="36.0336563530889" lon="-107.05920086163725"><ele>2132.8</ele><time>2026-05-03T15:49:59Z</time></trkpt><trkpt lat="36.03373875049594" lon="-107.05917052425106"><ele>2132.6000000000004</ele><time>2026-05-03T15:50:00Z</time></trkpt><trkpt lat="36.03383434023896" lon="-107.0591877385722"><ele>2132.3999999999996</ele><time>2026-05-03T15:50:01Z</time></trkpt><trkpt lat="36.033920955028854" lon="-107.05922301891317"><ele>2132.2</ele><time>2026-05-03T15:50:02Z</time></trkpt><trkpt lat="36.03401366025091" lon="-107.05924990522915"><ele>2132.0</ele><time>2026-05-03T15:50:03Z</time></trkpt><trkpt lat="36.03411774069665" lon="-107.05930408307051"><ele>2132.4</ele><time>2026-05-03T15:50:04Z</time></trkpt><trkpt lat="36.03419805648664" lon="-107.05933310207989"><ele>2132.7999999999997</ele><time>2026-05-03T15:50:05Z</time></trkpt><trkpt lat="36.03426511775642" lon="-107.05939385292632"><ele>2133.2</ele><time>2026-05-03T15:50:06Z</time></trkpt><trkpt lat="36.034322877890226" lon="-107.05948568180919"><ele>2133.6</ele><time>2026-05-03T15:50:07Z</time></trkpt><trkpt lat="36.03438511084077" lon="-107.0596445937373"><ele>2134.0</ele><time>2026-05-03T15:50:08Z</time></trkpt><trkpt lat="36.03442079920238" lon="-107.0597719746286"><ele>2134.0</ele><time>2026-05-03T15:50:09Z</time></trkpt><trkpt lat="36.03445132667255" lon="-107.05991782798459"><ele>2134.0</ele><time>2026-05-03T15:50:10Z</time></trkpt><trkpt lat="36.03446958135342" lon="-107.0600360111526"><ele>2134.0</ele><time>2026-05-03T15:50:11Z</time></trkpt><trkpt lat="36.03449665757846" lon="-107.06014611737038"><ele>2134.0</ele><time>2026-05-03T15:50:12Z</time></trkpt><trkpt lat="36.03458139381278" lon="-107.06025884250681"><ele>2134.0</ele><time>2026-05-03T15:50:12.999Z</time></trkpt><trkpt lat="36.03469017829201" lon="-107.06036829296161"><ele>2133.8333333333335</ele><time>2026-05-03T15:50:13.999Z</time></trkpt><trkpt lat="36.034774013593115" lon="-107.06046294793984"><ele>2133.666666666667</ele><time>2026-05-03T15:50:14.999Z</time></trkpt><trkpt lat="36.034835799558394" lon="-107.06053194499486"><ele>2133.5</ele><time>2026-05-03T15:50:15.999Z</time></trkpt><trkpt lat="36.03488377454063" lon="-107.06059153715987"><ele>2133.3333333333335</ele><time>2026-05-03T15:50:16.999Z</time></trkpt><trkpt lat="36.03492532634745" lon="-107.06066564146552"><ele>2133.1666666666665</ele><time>2026-05-03T15:50:17.999Z</time></trkpt><trkpt lat="36.035005289016354" lon="-107.06069121345801"><ele>2133.0</ele><time>2026-05-03T15:50:18.999Z</time></trkpt><trkpt lat="36.035127382374185" lon="-107.06065277144272"><ele>2133.0</ele><time>2026-05-03T15:50:19.999Z</time></trkpt><trkpt lat="36.03527907731358" lon="-107.06058821789141"><ele>2133.0</ele><time>2026-05-03T15:50:20.999Z</time></trkpt><trkpt lat="36.03541166632283" lon="-107.06050848631165"><ele>2133.0</ele><time>2026-05-03T15:50:21.999Z</time></trkpt><trkpt lat="36.035541114121195" lon="-107.0604197643555"><ele>2133.0</ele><time>2026-05-03T15:50:22.999Z</time></trkpt><trkpt lat="36.035669378288425" lon="-107.06035830562736"><ele>2133.0</ele><time>2026-05-03T15:50:23.999Z</time></trkpt><trkpt lat="36.03574073348689" lon="-107.06031734432901"><ele>2133.0</ele><time>2026-05-03T15:50:24.999Z</time></trkpt><trkpt lat="36.035822859745025" lon="-107.06028878991609"><ele>2133.0</ele><time>2026-05-03T15:50:25.999Z</time></trkpt><trkpt lat="36.035920999200336" lon="-107.06027944287231"><ele>2133.0</ele><time>2026-05-03T15:50:26.999Z</time></trkpt><trkpt lat="36.035999686296634" lon="-107.06025472976752"><ele>2133.2000000000003</ele><time>2026-05-03T15:50:27.999Z</time></trkpt><trkpt lat="36.036055450247964" lon="-107.06018319683464"><ele>2133.4</ele><time>2026-05-03T15:50:28.999Z</time></trkpt><trkpt lat="36.036125103329226" lon="-107.06008681391606"><ele>2133.6000000000004</ele><time>2026-05-03T15:50:29.999Z</time></trkpt><trkpt lat="36.03622516184382" lon="-107.05999088057328"><ele>2133.8</ele><time>2026-05-03T15:50:31.999Z</time></trkpt><trkpt lat="36.036337659427346" lon="-107.0599576733469"><ele>2134.0</ele><time>2026-05-03T15:50:33.999Z</time></trkpt><trkpt lat="36.03648003042031" lon="-107.06004714105553"><ele>2134.0</ele><time>2026-05-03T15:50:35.999Z</time></trkpt><trkpt lat="36.03653551297227" lon="-107.06013691047374"><ele>2134.0</ele><time>2026-05-03T15:50:36.999Z</time></trkpt><trkpt lat="36.036608501630354" lon="-107.06023237007646"><ele>2134.0</ele><time>2026-05-03T15:50:37.999Z</time></trkpt><trkpt lat="36.03668115248456" lon="-107.0602874169039"><ele>2134.0</ele><time>2026-05-03T15:50:38.999Z</time></trkpt><trkpt lat="36.03675597258814" lon="-107.06034138278605"><ele>2134.0</ele><time>2026-05-03T15:50:39.999Z</time></trkpt><trkpt lat="36.03683075050657" lon="-107.06040024736961"><ele>2134.4</ele><time>2026-05-03T15:50:40.999Z</time></trkpt><trkpt lat="36.03691373275481" lon="-107.06045899589941"><ele>2134.8</ele><time>2026-05-03T15:50:41.999Z</time></trkpt><trkpt lat="36.036997199231564" lon="-107.06047898466448"><ele>2135.2</ele><time>2026-05-03T15:50:42.999Z</time></trkpt><trkpt lat="36.03710201909984" lon="-107.06051227116741"><ele>2135.6</ele><time>2026-05-03T15:50:43.999Z</time></trkpt><trkpt lat="36.03722588933942" lon="-107.06048085316006"><ele>2136.0</ele><time>2026-05-03T15:50:44.999Z</time></trkpt><trkpt lat="36.03731497286323" lon="-107.06043270937327"><ele>2136.0</ele><time>2026-05-03T15:50:45.999Z</time></trkpt><trkpt lat="36.03733109300734" lon="-107.06031906384337"><ele>2136.0</ele><time>2026-05-03T15:50:46.999Z</time></trkpt><trkpt lat="36.0373784642925" lon="-107.0602210920212"><ele>2136.0</ele><time>2026-05-03T15:50:47.999Z</time></trkpt><trkpt lat="36.03742776975531" lon="-107.06015410176012"><ele>2136.0</ele><time>2026-05-03T15:50:48.999Z</time></trkpt><trkpt lat="36.03748166925455" lon="-107.0601034582288"><ele>2136.0</ele><time>2026-05-03T15:50:49.999Z</time></trkpt><trkpt lat="36.03754630107405" lon="-107.0600467650527"><ele>2136.0</ele><time>2026-05-03T15:50:50.999Z</time></trkpt><trkpt lat="36.037615708340134" lon="-107.059997720142"><ele>2135.75</ele><time>2026-05-03T15:50:51.999Z</time></trkpt><trkpt lat="36.03776334908481" lon="-107.0600030797447"><ele>2135.5</ele><time>2026-05-03T15:50:53.999Z</time></trkpt><trkpt lat="36.03784846379297" lon="-107.06004479385568"><ele>2135.25</ele><time>2026-05-03T15:50:54.999Z</time></trkpt><trkpt lat="36.03793720430756" lon="-107.06011157558123"><ele>2135.0</ele><time>2026-05-03T15:50:55.999Z</time></trkpt><trkpt lat="36.0380335059614" lon="-107.06017349191133"><ele>2135.0</ele><time>2026-05-03T15:50:56.999Z</time></trkpt><trkpt lat="36.03815071009116" lon="-107.06023395346263"><ele>2135.0</ele><time>2026-05-03T15:50:57.999Z</time></trkpt><trkpt lat="36.038277399425226" lon="-107.06028739955202"><ele>2135.0</ele><time>2026-05-03T15:50:58.999Z</time></trkpt><trkpt lat="36.03842082306758" lon="-107.06035949162163"><ele>2135.0</ele><time>2026-05-03T15:50:59.999Z</time></trkpt><trkpt lat="36.038565500194494" lon="-107.06043530954264"><ele>2135.25</ele><time>2026-05-03T15:51:00.999Z</time></trkpt><trkpt lat="36.038692182869994" lon="-107.06047555582414"><ele>2135.5</ele><time>2026-05-03T15:51:01.999Z</time></trkpt><trkpt lat="36.03880853637364" lon="-107.06047277889037"><ele>2135.75</ele><time>2026-05-03T15:51:02.999Z</time></trkpt><trkpt lat="36.03891466957289" lon="-107.06043143983096"><ele>2136.0</ele><time>2026-05-03T15:51:03.999Z</time></trkpt><trkpt lat="36.039012230598686" lon="-107.06034751657488"><ele>2136.0</ele><time>2026-05-03T15:51:04.999Z</time></trkpt><trkpt lat="36.03908911315206" lon="-107.06029281145169"><ele>2136.0</ele><time>2026-05-03T15:51:05.999Z</time></trkpt><trkpt lat="36.039189778740806" lon="-107.06035398168503"><ele>2136.0</ele><time>2026-05-03T15:51:07.999Z</time></trkpt><trkpt lat="36.03924919865621" lon="-107.06042441086228"><ele>2136.0</ele><time>2026-05-03T15:51:08.999Z</time></trkpt><trkpt lat="36.03929569201463" lon="-107.06053211681748"><ele>2136.0</ele><time>2026-05-03T15:51:09.999Z</time></trkpt><trkpt lat="36.03932262356277" lon="-107.06068758111907"><ele>2136.4</ele><time>2026-05-03T15:51:10.999Z</time></trkpt><trkpt lat="36.039372843276915" lon="-107.06081983700007"><ele>2136.8</ele><time>2026-05-03T15:51:11.999Z</time></trkpt><trkpt lat="36.039434382807976" lon="-107.06097699435132"><ele>2137.2000000000003</ele><time>2026-05-03T15:51:12.999Z</time></trkpt><trkpt lat="36.03948958506295" lon="-107.06106415674341"><ele>2137.6</ele><time>2026-05-03T15:51:13.999Z</time></trkpt><trkpt lat="36.039547179714795" lon="-107.0611095023929"><ele>2138.0</ele><time>2026-05-03T15:51:14.999Z</time></trkpt><trkpt lat="36.0396236009457" lon="-107.06114671314663"><ele>2138.0</ele><time>2026-05-03T15:51:15.999Z</time></trkpt><trkpt lat="36.03970460064684" lon="-107.06122260218946"><ele>2138.0</ele><time>2026-05-03T15:51:16.999Z</time></trkpt><trkpt lat="36.03979153042794" lon="-107.06126071187276"><ele>2138.0</ele><time>2026-05-03T15:51:17.999Z</time></trkpt><trkpt lat="36.039883336227795" lon="-107.06126984659832"><ele>2138.0</ele><time>2026-05-03T15:51:18.999Z</time></trkpt><trkpt lat="36.03997040516661" lon="-107.06129394673076"><ele>2138.0</ele><time>2026-05-03T15:51:19.999Z</time></trkpt><trkpt lat="36.04003943565672" lon="-107.06136316847011"><ele>2138.0</ele><time>2026-05-03T15:51:21.999Z</time></trkpt><trkpt lat="36.039982530378055" lon="-107.06151751439644"><ele>2138.0</ele><time>2026-05-03T15:51:23.999Z</time></trkpt><trkpt lat="36.039943605725085" lon="-107.06158743732267"><ele>2138.0</ele><time>2026-05-03T15:51:24.999Z</time></trkpt><trkpt lat="36.03994757303136" lon="-107.06173400491981"><ele>2138.0</ele><time>2026-05-03T15:51:25.999Z</time></trkpt><trkpt lat="36.03994614049399" lon="-107.06189220945112"><ele>2138.1666666666665</ele><time>2026-05-03T15:51:26.999Z</time></trkpt><trkpt lat="36.03994485068981" lon="-107.06204625172508"><ele>2138.333333333333</ele><time>2026-05-03T15:51:27.999Z</time></trkpt><trkpt lat="36.03995378584975" lon="-107.06216866950311"><ele>2138.5</ele><time>2026-05-03T15:51:28.999Z</time></trkpt><trkpt lat="36.03996854860011" lon="-107.06226649261161"><ele>2138.6666666666665</ele><time>2026-05-03T15:51:29.999Z</time></trkpt><trkpt lat="36.03997258237651" lon="-107.06235936541646"><ele>2138.8333333333335</ele><time>2026-05-03T15:51:31.999Z</time></trkpt><trkpt lat="36.03992635041334" lon="-107.06241552290246"><ele>2139.0</ele><time>2026-05-03T15:51:33.999Z</time></trkpt><trkpt lat="36.03995116296768" lon="-107.06230090586772"><ele>2139.0</ele><time>2026-05-03T15:51:41Z</time></trkpt><trkpt lat="36.03994427831462" lon="-107.06218577018895"><ele>2139.0</ele><time>2026-05-03T15:51:43Z</time></trkpt><trkpt lat="36.03993790469153" lon="-107.06209505873731"><ele>2139.0</ele><time>2026-05-03T15:51:44Z</time></trkpt><trkpt lat="36.03993292118311" lon="-107.06200692173363"><ele>2139.0</ele><time>2026-05-03T15:51:45Z</time></trkpt><trkpt lat="36.03993893602909" lon="-107.06191179412919"><ele>2139.0</ele><time>2026-05-03T15:51:46Z</time></trkpt><trkpt lat="36.03993867723364" lon="-107.06181839663718"><ele>2139.0</ele><time>2026-05-03T15:51:47Z</time></trkpt><trkpt lat="36.03998298278789" lon="-107.06175931542485"><ele>2138.6</ele><time>2026-05-03T15:51:50Z</time></trkpt><trkpt lat="36.04006864676262" lon="-107.06179938310419"><ele>2138.2</ele><time>2026-05-03T15:51:58Z</time></trkpt><trkpt lat="36.04005875582829" lon="-107.06189790850188"><ele>2137.7999999999997</ele><time>2026-05-03T15:51:59Z</time></trkpt><trkpt lat="36.04003979321389" lon="-107.06203402372859"><ele>2137.4</ele><time>2026-05-03T15:52:00Z</time></trkpt><trkpt lat="36.04004108571671" lon="-107.06215933940032"><ele>2137.0</ele><time>2026-05-03T15:52:01Z</time></trkpt><trkpt lat="36.04006075987318" lon="-107.06228665395422"><ele>2137.0</ele><time>2026-05-03T15:52:02Z</time></trkpt><trkpt lat="36.0401004937414" lon="-107.06239602499184"><ele>2137.0</ele><time>2026-05-03T15:52:03Z</time></trkpt><trkpt lat="36.04015676146609" lon="-107.06245623294926"><ele>2137.0</ele><time>2026-05-03T15:52:04Z</time></trkpt><trkpt lat="36.04022004017774" lon="-107.06248881874649"><ele>2137.0</ele><time>2026-05-03T15:52:05Z</time></trkpt><trkpt lat="36.040262504790604" lon="-107.06257571592879"><ele>2137.0</ele><time>2026-05-03T15:52:06Z</time></trkpt><trkpt lat="36.04026320899662" lon="-107.06270430681167"><ele>2137.0</ele><time>2026-05-03T15:52:07Z</time></trkpt><trkpt lat="36.04025571106832" lon="-107.06284559965856"><ele>2137.4</ele><time>2026-05-03T15:52:08Z</time></trkpt><trkpt lat="36.040311563157054" lon="-107.062963668912"><ele>2137.7999999999997</ele><time>2026-05-03T15:52:09Z</time></trkpt><trkpt lat="36.0403868523187" lon="-107.06305020306775"><ele>2138.2</ele><time>2026-05-03T15:52:10Z</time></trkpt><trkpt lat="36.0404918623935" lon="-107.0631603840164"><ele>2138.6</ele><time>2026-05-03T15:52:11Z</time></trkpt><trkpt lat="36.040560012115236" lon="-107.0632386496762"><ele>2139.0</ele><time>2026-05-03T15:52:12Z</time></trkpt><trkpt lat="36.040629083649364" lon="-107.06332556548782"><ele>2139.25</ele><time>2026-05-03T15:52:13Z</time></trkpt><trkpt lat="36.04072227562176" lon="-107.06344636627294"><ele>2139.5</ele><time>2026-05-03T15:52:14Z</time></trkpt><trkpt lat="36.04082774742791" lon="-107.06355502861292"><ele>2139.75</ele><time>2026-05-03T15:52:15Z</time></trkpt><trkpt lat="36.04091307644667" lon="-107.06366327572367"><ele>2140.0</ele><time>2026-05-03T15:52:16Z</time></trkpt><trkpt lat="36.04099535451669" lon="-107.06376072409147"><ele>2140.2</ele><time>2026-05-03T15:52:17Z</time></trkpt><trkpt lat="36.0410716563726" lon="-107.06384622489193"><ele>2140.4</ele><time>2026-05-03T15:52:18Z</time></trkpt><trkpt lat="36.04113630598027" lon="-107.06389826340116"><ele>2140.6</ele><time>2026-05-03T15:52:19Z</time></trkpt><trkpt lat="36.04123813521344" lon="-107.06390990779249"><ele>2140.8</ele><time>2026-05-03T15:52:20Z</time></trkpt><trkpt lat="36.041377366395174" lon="-107.06389930657794"><ele>2141.0</ele><time>2026-05-03T15:52:21Z</time></trkpt><trkpt lat="36.041510862555" lon="-107.06387214192142"><ele>2141.0</ele><time>2026-05-03T15:52:22Z</time></trkpt><trkpt lat="36.04161318856281" lon="-107.06385939940479"><ele>2141.0</ele><time>2026-05-03T15:52:23Z</time></trkpt><trkpt lat="36.041696423642165" lon="-107.06385185945449"><ele>2141.0</ele><time>2026-05-03T15:52:24Z</time></trkpt><trkpt lat="36.04181185602301" lon="-107.06383869180873"><ele>2141.0</ele><time>2026-05-03T15:52:25Z</time></trkpt><trkpt lat="36.04193912392453" lon="-107.06385225391891"><ele>2141.0</ele><time>2026-05-03T15:52:26Z</time></trkpt><trkpt lat="36.042098933942924" lon="-107.0638527466768"><ele>2141.0</ele><time>2026-05-03T15:52:27Z</time></trkpt><trkpt lat="36.04227454225772" lon="-107.06383690421285"><ele>2141.0</ele><time>2026-05-03T15:52:28Z</time></trkpt><trkpt lat="36.042474508026615" lon="-107.06382362942617"><ele>2141.0</ele><time>2026-05-03T15:52:29Z</time></trkpt><trkpt lat="36.04268973509074" lon="-107.06382260155601"><ele>2142.333333333333</ele><time>2026-05-03T15:52:30Z</time></trkpt><trkpt lat="36.04288527979937" lon="-107.06382994314114"><ele>2143.6666666666665</ele><time>2026-05-03T15:52:31Z</time></trkpt><trkpt lat="36.04307638624449" lon="-107.0638453206558"><ele>2145.0</ele><time>2026-05-03T15:52:32Z</time></trkpt><trkpt lat="36.043247706937244" lon="-107.06383871105831"><ele>2145.75</ele><time>2026-05-03T15:52:33Z</time></trkpt><trkpt lat="36.04339384201059" lon="-107.06382838798697"><ele>2146.5</ele><time>2026-05-03T15:52:34Z</time></trkpt><trkpt lat="36.04352638112931" lon="-107.06382786582087"><ele>2147.25</ele><time>2026-05-03T15:52:35Z</time></trkpt><trkpt lat="36.04368697489197" lon="-107.06384021608858"><ele>2148.0</ele><time>2026-05-03T15:52:35.999Z</time></trkpt><trkpt lat="36.04385798818914" lon="-107.06384128930446"><ele>2148.0</ele><time>2026-05-03T15:52:36.999Z</time></trkpt><trkpt lat="36.04400283652183" lon="-107.06383682861527"><ele>2148.0</ele><time>2026-05-03T15:52:37.999Z</time></trkpt><trkpt lat="36.04413768793516" lon="-107.06384624360078"><ele>2148.0</ele><time>2026-05-03T15:52:38.999Z</time></trkpt><trkpt lat="36.04427993577382" lon="-107.06385939110686"><ele>2148.0</ele><time>2026-05-03T15:52:39.999Z</time></trkpt><trkpt lat="36.044405442139535" lon="-107.0638701230111"><ele>2149.5</ele><time>2026-05-03T15:52:40.999Z</time></trkpt><trkpt lat="36.04453019731514" lon="-107.06387454849329"><ele>2151.0</ele><time>2026-05-03T15:52:41.999Z</time></trkpt><trkpt lat="36.04464644400267" lon="-107.06387060704336"><ele>2152.5</ele><time>2026-05-03T15:52:42.999Z</time></trkpt><trkpt lat="36.04478101846338" lon="-107.06385632209364"><ele>2154.0</ele><time>2026-05-03T15:52:43.999Z</time></trkpt><trkpt lat="36.04493087938096" lon="-107.06385668572574"><ele>2154.6666666666665</ele><time>2026-05-03T15:52:44.999Z</time></trkpt><trkpt lat="36.0451058416512" lon="-107.06388884366743"><ele>2155.333333333333</ele><time>2026-05-03T15:52:45.999Z</time></trkpt><trkpt lat="36.045271895998916" lon="-107.06392373025801"><ele>2156.0</ele><time>2026-05-03T15:52:46.999Z</time></trkpt><trkpt lat="36.045409758218675" lon="-107.06391308403289"><ele>2156.0</ele><time>2026-05-03T15:52:47.999Z</time></trkpt><trkpt lat="36.04550779026167" lon="-107.06389603446496"><ele>2156.0</ele><time>2026-05-03T15:52:48.999Z</time></trkpt><trkpt lat="36.04558331389003" lon="-107.06387336844784"><ele>2156.0</ele><time>2026-05-03T15:52:49.999Z</time></trkpt><trkpt lat="36.04567705051509" lon="-107.06388548048108"><ele>2156.0</ele><time>2026-05-03T15:52:50.999Z</time></trkpt><trkpt lat="36.04579211968837" lon="-107.06389825181006"><ele>2156.0</ele><time>2026-05-03T15:52:51.999Z</time></trkpt><trkpt lat="36.04590491853262" lon="-107.06386045186214"><ele>2156.6666666666665</ele><time>2026-05-03T15:52:52.999Z</time></trkpt><trkpt lat="36.04604213403546" lon="-107.06384532371995"><ele>2157.3333333333335</ele><time>2026-05-03T15:52:53.999Z</time></trkpt><trkpt lat="36.0462033724612" lon="-107.06383469360179"><ele>2158.0</ele><time>2026-05-03T15:52:54.999Z</time></trkpt><trkpt lat="36.04635819991286" lon="-107.06382773794046"><ele>2158.0</ele><time>2026-05-03T15:52:55.999Z</time></trkpt><trkpt lat="36.0464813315172" lon="-107.06383228855667"><ele>2158.0</ele><time>2026-05-03T15:52:56.999Z</time></trkpt><trkpt lat="36.04655854206368" lon="-107.06385157780281"><ele>2158.0</ele><time>2026-05-03T15:52:57.999Z</time></trkpt><trkpt lat="36.04665211494957" lon="-107.06385284526887"><ele>2158.0</ele><time>2026-05-03T15:52:58.999Z</time></trkpt><trkpt lat="36.04673632247511" lon="-107.06381991291167"><ele>2158.0</ele><time>2026-05-03T15:52:59.999Z</time></trkpt><trkpt lat="36.04683396339723" lon="-107.0637370554563"><ele>2158.4</ele><time>2026-05-03T15:53:00.999Z</time></trkpt><trkpt lat="36.04693178475347" lon="-107.06363108727696"><ele>2158.8</ele><time>2026-05-03T15:53:01.999Z</time></trkpt><trkpt lat="36.047010235818426" lon="-107.06353681822588"><ele>2159.2</ele><time>2026-05-03T15:53:02.999Z</time></trkpt><trkpt lat="36.047065558961314" lon="-107.0634752431368"><ele>2159.6</ele><time>2026-05-03T15:53:03.999Z</time></trkpt><trkpt lat="36.047133593000176" lon="-107.06342609724692"><ele>2160.0</ele><time>2026-05-03T15:53:04.999Z</time></trkpt><trkpt lat="36.04721104126829" lon="-107.06339703777516"><ele>2160.0</ele><time>2026-05-03T15:53:05.999Z</time></trkpt><trkpt lat="36.04729773025778" lon="-107.06333449455161"><ele>2160.0</ele><time>2026-05-03T15:53:06.999Z</time></trkpt><trkpt lat="36.0473665967643" lon="-107.06325386588216"><ele>2160.0</ele><time>2026-05-03T15:53:07.999Z</time></trkpt><trkpt lat="36.047456217028035" lon="-107.06319787248306"><ele>2160.0</ele><time>2026-05-03T15:53:08.999Z</time></trkpt><trkpt lat="36.04753685292732" lon="-107.06314313307223"><ele>2160.0</ele><time>2026-05-03T15:53:09.999Z</time></trkpt><trkpt lat="36.04760892873422" lon="-107.06308161371925"><ele>2161.0</ele><time>2026-05-03T15:53:10.999Z</time></trkpt><trkpt lat="36.04768410253437" lon="-107.0630192477893"><ele>2162.0</ele><time>2026-05-03T15:53:11.999Z</time></trkpt><trkpt lat="36.04776233501856" lon="-107.06292670297319"><ele>2163.0</ele><time>2026-05-03T15:53:12.999Z</time></trkpt><trkpt lat="36.04781021680056" lon="-107.06283858749514"><ele>2164.0</ele><time>2026-05-03T15:53:13.999Z</time></trkpt><trkpt lat="36.0478977214354" lon="-107.06275549101373"><ele>2165.0</ele><time>2026-05-03T15:53:15.999Z</time></trkpt><trkpt lat="36.04799876167313" lon="-107.0627377530462"><ele>2165.0</ele><time>2026-05-03T15:53:16.999Z</time></trkpt><trkpt lat="36.04806958052518" lon="-107.06268826759161"><ele>2165.0</ele><time>2026-05-03T15:53:17.999Z</time></trkpt><trkpt lat="36.048149422981815" lon="-107.06254958534579"><ele>2165.0</ele><time>2026-05-03T15:53:19.999Z</time></trkpt><trkpt lat="36.048207686786895" lon="-107.0624539821371"><ele>2165.0</ele><time>2026-05-03T15:53:20.999Z</time></trkpt><trkpt lat="36.048289473665534" lon="-107.06237286070693"><ele>2165.0</ele><time>2026-05-03T15:53:21.999Z</time></trkpt><trkpt lat="36.04837255840856" lon="-107.06230731678872"><ele>2165.333333333333</ele><time>2026-05-03T15:53:22.999Z</time></trkpt><trkpt lat="36.048433111269055" lon="-107.0622429074219"><ele>2165.6666666666665</ele><time>2026-05-03T15:53:23.999Z</time></trkpt><trkpt lat="36.048500144274264" lon="-107.06218839169645"><ele>2166.0</ele><time>2026-05-03T15:53:24.999Z</time></trkpt><trkpt lat="36.04856183527543" lon="-107.06211169728576"><ele>2166.3333333333335</ele><time>2026-05-03T15:53:25.999Z</time></trkpt><trkpt lat="36.04861998608702" lon="-107.0620318142093"><ele>2166.666666666667</ele><time>2026-05-03T15:53:26.999Z</time></trkpt><trkpt lat="36.048692515251794" lon="-107.06198059275137"><ele>2167.0</ele><time>2026-05-03T15:53:27.999Z</time></trkpt><trkpt lat="36.04877066064273" lon="-107.06191594211367"><ele>2167.0</ele><time>2026-05-03T15:53:28.999Z</time></trkpt><trkpt lat="36.048852227412524" lon="-107.06184391899252"><ele>2167.0</ele><time>2026-05-03T15:53:29.999Z</time></trkpt><trkpt lat="36.04892761344118" lon="-107.06179750968838"><ele>2167.0</ele><time>2026-05-03T15:53:30.999Z</time></trkpt><trkpt lat="36.04900881542951" lon="-107.0617827917132"><ele>2167.0</ele><time>2026-05-03T15:53:31.999Z</time></trkpt><trkpt lat="36.04909500281795" lon="-107.06179031011118"><ele>2167.0</ele><time>2026-05-03T15:53:32.999Z</time></trkpt><trkpt lat="36.04915429085074" lon="-107.06175570906794"><ele>2167.0</ele><time>2026-05-03T15:53:33.999Z</time></trkpt><trkpt lat="36.04922828279943" lon="-107.0616597198238"><ele>2167.5</ele><time>2026-05-03T15:53:34.999Z</time></trkpt><trkpt lat="36.049317679375896" lon="-107.06154155355573"><ele>2168.0</ele><time>2026-05-03T15:53:35.999Z</time></trkpt><trkpt lat="36.04941422199856" lon="-107.06147634068611"><ele>2168.5</ele><time>2026-05-03T15:53:36.999Z</time></trkpt><trkpt lat="36.049503049996346" lon="-107.06139000269486"><ele>2169.0</ele><time>2026-05-03T15:53:37.999Z</time></trkpt><trkpt lat="36.049540835879526" lon="-107.06127014106694"><ele>2169.0</ele><time>2026-05-03T15:53:38.999Z</time></trkpt><trkpt lat="36.04957704211088" lon="-107.06112790587211"><ele>2169.0</ele><time>2026-05-03T15:53:39.999Z</time></trkpt><trkpt lat="36.04965602756242" lon="-107.06106262412722"><ele>2169.0</ele><time>2026-05-03T15:53:40.999Z</time></trkpt><trkpt lat="36.049714740577585" lon="-107.06096600388095"><ele>2169.0</ele><time>2026-05-03T15:53:43Z</time></trkpt><trkpt lat="36.04970427680927" lon="-107.0608793138268"><ele>2169.0</ele><time>2026-05-03T15:53:44Z</time></trkpt><trkpt lat="36.049673907986765" lon="-107.06076557786977"><ele>2170.0</ele><time>2026-05-03T15:53:45Z</time></trkpt><trkpt lat="36.04967881370267" lon="-107.06068501582513"><ele>2171.0</ele><time>2026-05-03T15:53:46Z</time></trkpt><trkpt lat="36.04970656851211" lon="-107.06059068696116"><ele>2172.0</ele><time>2026-05-03T15:53:47Z</time></trkpt><trkpt lat="36.04971970162187" lon="-107.06047726131881"><ele>2173.0</ele><time>2026-05-03T15:53:48Z</time></trkpt><trkpt lat="36.049736673930234" lon="-107.06037512861012"><ele>2174.0</ele><time>2026-05-03T15:53:49Z</time></trkpt><trkpt lat="36.04984736568163" lon="-107.06026133086868"><ele>2174.0</ele><time>2026-05-03T15:53:51Z</time></trkpt><trkpt lat="36.0499160746547" lon="-107.06022691228335"><ele>2174.0</ele><time>2026-05-03T15:53:52Z</time></trkpt><trkpt lat="36.04995472976128" lon="-107.0601562199663"><ele>2174.0</ele><time>2026-05-03T15:53:53Z</time></trkpt><trkpt lat="36.04996661937347" lon="-107.06005727445351"><ele>2174.0</ele><time>2026-05-03T15:53:54Z</time></trkpt><trkpt lat="36.050068918229144" lon="-107.06005138567627"><ele>2174.0</ele><time>2026-05-03T15:53:56Z</time></trkpt><trkpt lat="36.050134666502736" lon="-107.05989077647521"><ele>2174.4</ele><time>2026-05-03T15:53:58Z</time></trkpt><trkpt lat="36.05016830918647" lon="-107.05972711581829"><ele>2174.8</ele><time>2026-05-03T15:53:59Z</time></trkpt><trkpt lat="36.050220035511025" lon="-107.05960644318519"><ele>2175.2</ele><time>2026-05-03T15:54:00Z</time></trkpt><trkpt lat="36.05029724539219" lon="-107.05955096853623"><ele>2175.6</ele><time>2026-05-03T15:54:01Z</time></trkpt><trkpt lat="36.05037398691204" lon="-107.05949820738256"><ele>2176.0</ele><time>2026-05-03T15:54:02Z</time></trkpt><trkpt lat="36.050421438924374" lon="-107.05943815640946"><ele>2176.0</ele><time>2026-05-03T15:54:03Z</time></trkpt><trkpt lat="36.05047532764681" lon="-107.05931994551224"><ele>2176.0</ele><time>2026-05-03T15:54:04Z</time></trkpt><trkpt lat="36.05055982294275" lon="-107.05920625988995"><ele>2176.0</ele><time>2026-05-03T15:54:05Z</time></trkpt><trkpt lat="36.05063739041894" lon="-107.05910893655091"><ele>2176.0</ele><time>2026-05-03T15:54:06Z</time></trkpt><trkpt lat="36.05070679247488" lon="-107.05898858198377"><ele>2177.0</ele><time>2026-05-03T15:54:07Z</time></trkpt><trkpt lat="36.05074183464504" lon="-107.05881646180973"><ele>2178.0</ele><time>2026-05-03T15:54:08Z</time></trkpt><trkpt lat="36.05077728351861" lon="-107.0586534143224"><ele>2179.0</ele><time>2026-05-03T15:54:09Z</time></trkpt><trkpt lat="36.05082192359713" lon="-107.05855093362447"><ele>2180.0</ele><time>2026-05-03T15:54:10Z</time></trkpt><trkpt lat="36.05088834621783" lon="-107.05846084821394"><ele>2180.5</ele><time>2026-05-03T15:54:11Z</time></trkpt><trkpt lat="36.050962605369975" lon="-107.05839173444637"><ele>2181.0</ele><time>2026-05-03T15:54:12Z</time></trkpt><trkpt lat="36.05106205682744" lon="-107.05829989407322"><ele>2181.5</ele><time>2026-05-03T15:54:13Z</time></trkpt><trkpt lat="36.05115477667883" lon="-107.05819824617785"><ele>2182.0</ele><time>2026-05-03T15:54:14Z</time></trkpt><trkpt lat="36.05123455808086" lon="-107.05809442822797"><ele>2182.7999999999997</ele><time>2026-05-03T15:54:15Z</time></trkpt><trkpt lat="36.05130965972942" lon="-107.0579864080967"><ele>2183.6</ele><time>2026-05-03T15:54:16Z</time></trkpt><trkpt lat="36.05137844886339" lon="-107.05788760618698"><ele>2184.3999999999996</ele><time>2026-05-03T15:54:17Z</time></trkpt><trkpt lat="36.05145240646655" lon="-107.05777686931307"><ele>2185.2</ele><time>2026-05-03T15:54:18Z</time></trkpt><trkpt lat="36.05151465528517" lon="-107.0576700219605"><ele>2186.0</ele><time>2026-05-03T15:54:19Z</time></trkpt><trkpt lat="36.05155653783983" lon="-107.05754708494763"><ele>2187.2</ele><time>2026-05-03T15:54:20Z</time></trkpt><trkpt lat="36.051584868821344" lon="-107.05742158204103"><ele>2188.3999999999996</ele><time>2026-05-03T15:54:21Z</time></trkpt><trkpt lat="36.05160343599786" lon="-107.05729524401397"><ele>2189.6</ele><time>2026-05-03T15:54:22Z</time></trkpt><trkpt lat="36.05160111266102" lon="-107.05721269900263"><ele>2190.7999999999997</ele><time>2026-05-03T15:54:23Z</time></trkpt><trkpt lat="36.05155266326118" lon="-107.05711398101991"><ele>2192.0</ele><time>2026-05-03T15:54:24Z</time></trkpt><trkpt lat="36.051478579158335" lon="-107.05701552749404"><ele>2192.0</ele><time>2026-05-03T15:54:25Z</time></trkpt><trkpt lat="36.05141206557052" lon="-107.0569329607605"><ele>2192.0</ele><time>2026-05-03T15:54:26Z</time></trkpt><trkpt lat="36.051462319330696" lon="-107.05683902916927"><ele>2192.0</ele><time>2026-05-03T15:54:29Z</time></trkpt><trkpt lat="36.05155171032458" lon="-107.05683650637991"><ele>2192.0</ele><time>2026-05-03T15:54:30Z</time></trkpt><trkpt lat="36.05165411937485" lon="-107.05683519316221"><ele>2192.0</ele><time>2026-05-03T15:54:31Z</time></trkpt><trkpt lat="36.05175444965056" lon="-107.05677854289362"><ele>2192.0</ele><time>2026-05-03T15:54:32Z</time></trkpt><trkpt lat="36.051821851809244" lon="-107.05671945105776"><ele>2192.0</ele><time>2026-05-03T15:54:33Z</time></trkpt><trkpt lat="36.05188074046594" lon="-107.05668011244379"><ele>2192.0</ele><time>2026-05-03T15:54:34Z</time></trkpt><trkpt lat="36.05192882806784" lon="-107.05659984223797"><ele>2192.0</ele><time>2026-05-03T15:54:35Z</time></trkpt><trkpt lat="36.05196682337967" lon="-107.05647742171261"><ele>2192.0</ele><time>2026-05-03T15:54:36Z</time></trkpt><trkpt lat="36.05194886145552" lon="-107.05636793130508"><ele>2192.0</ele><time>2026-05-03T15:54:37Z</time></trkpt><trkpt lat="36.051914317934745" lon="-107.0562240578108"><ele>2193.25</ele><time>2026-05-03T15:54:38Z</time></trkpt><trkpt lat="36.051913329657594" lon="-107.05608875118455"><ele>2194.5</ele><time>2026-05-03T15:54:39Z</time></trkpt><trkpt lat="36.05197204965768" lon="-107.05598967388494"><ele>2195.75</ele><time>2026-05-03T15:54:40Z</time></trkpt><trkpt lat="36.05205194003047" lon="-107.05584452781402"><ele>2197.0</ele><time>2026-05-03T15:54:41Z</time></trkpt><trkpt lat="36.052123805748984" lon="-107.0557558352013"><ele>2198.4</ele><time>2026-05-03T15:54:42Z</time></trkpt><trkpt lat="36.05220916162191" lon="-107.05569023604701"><ele>2199.7999999999997</ele><time>2026-05-03T15:54:43Z</time></trkpt><trkpt lat="36.052278148304026" lon="-107.05561795720565"><ele>2201.2</ele><time>2026-05-03T15:54:44Z</time></trkpt><trkpt lat="36.05226170188316" lon="-107.05549909676648"><ele>2202.6</ele><time>2026-05-03T15:54:45Z</time></trkpt><trkpt lat="36.052204540458085" lon="-107.0553724917952"><ele>2204.0</ele><time>2026-05-03T15:54:46Z</time></trkpt><trkpt lat="36.052169153237315" lon="-107.05522941462205"><ele>2204.0</ele><time>2026-05-03T15:54:47Z</time></trkpt><trkpt lat="36.05205216789728" lon="-107.05519463144755"><ele>2204.0</ele><time>2026-05-03T15:54:49Z</time></trkpt><trkpt lat="36.05194354246912" lon="-107.05521246599086"><ele>2204.0</ele><time>2026-05-03T15:54:50Z</time></trkpt><trkpt lat="36.051886404529824" lon="-107.0551754570797"><ele>2204.0</ele><time>2026-05-03T15:54:51Z</time></trkpt><trkpt lat="36.05189054469702" lon="-107.05508129864339"><ele>2204.0</ele><time>2026-05-03T15:54:52Z</time></trkpt><trkpt lat="36.05190752040227" lon="-107.05496845107028"><ele>2205.2</ele><time>2026-05-03T15:54:53Z</time></trkpt><trkpt lat="36.05190877962416" lon="-107.05487853576136"><ele>2206.4</ele><time>2026-05-03T15:54:54Z</time></trkpt><trkpt lat="36.05193898635248" lon="-107.05479082841119"><ele>2207.6</ele><time>2026-05-03T15:54:55Z</time></trkpt><trkpt lat="36.052035237165434" lon="-107.05471854798618"><ele>2208.8</ele><time>2026-05-03T15:54:56Z</time></trkpt><trkpt lat="36.05213035577612" lon="-107.05460375946947"><ele>2210.0</ele><time>2026-05-03T15:54:57Z</time></trkpt><trkpt lat="36.05217796839263" lon="-107.0544666217224"><ele>2210.0</ele><time>2026-05-03T15:54:58Z</time></trkpt><trkpt lat="36.05224499499256" lon="-107.05433413466847"><ele>2210.0</ele><time>2026-05-03T15:54:59Z</time></trkpt><trkpt lat="36.05231128321167" lon="-107.05422889345054"><ele>2210.0</ele><time>2026-05-03T15:55:00Z</time></trkpt><trkpt lat="36.05236862839157" lon="-107.05416660721538"><ele>2210.0</ele><time>2026-05-03T15:55:01Z</time></trkpt><trkpt lat="36.05246242871803" lon="-107.05409835535704"><ele>2210.0</ele><time>2026-05-03T15:55:02Z</time></trkpt><trkpt lat="36.052549697855525" lon="-107.05403114689447"><ele>2210.833333333333</ele><time>2026-05-03T15:55:03Z</time></trkpt><trkpt lat="36.05259567182224" lon="-107.05395481633997"><ele>2211.6666666666665</ele><time>2026-05-03T15:55:04Z</time></trkpt><trkpt lat="36.052645220268985" lon="-107.05383402974284"><ele>2212.5</ele><time>2026-05-03T15:55:05Z</time></trkpt><trkpt lat="36.05269552865692" lon="-107.05378425279346"><ele>2213.3333333333335</ele><time>2026-05-03T15:55:06Z</time></trkpt><trkpt lat="36.05273953770569" lon="-107.05372252717052"><ele>2214.166666666667</ele><time>2026-05-03T15:55:07Z</time></trkpt><trkpt lat="36.052726406619" lon="-107.05363192784895"><ele>2215.0</ele><time>2026-05-03T15:55:07.999Z</time></trkpt><trkpt lat="36.05274376587971" lon="-107.05348680315706"><ele>2215.0</ele><time>2026-05-03T15:55:08.999Z</time></trkpt><trkpt lat="36.05279449327622" lon="-107.05338771493017"><ele>2215.0</ele><time>2026-05-03T15:55:09.999Z</time></trkpt><trkpt lat="36.05281506749638" lon="-107.05330294938797"><ele>2215.0</ele><time>2026-05-03T15:55:10.999Z</time></trkpt><trkpt lat="36.05282799601055" lon="-107.05321349183698"><ele>2215.0</ele><time>2026-05-03T15:55:11.999Z</time></trkpt><trkpt lat="36.05287077822706" lon="-107.05314775745386"><ele>2215.0</ele><time>2026-05-03T15:55:12.999Z</time></trkpt><trkpt lat="36.052908476799736" lon="-107.05304265048512"><ele>2215.0</ele><time>2026-05-03T15:55:13.999Z</time></trkpt><trkpt lat="36.05291785453362" lon="-107.05292578287029"><ele>2216.0</ele><time>2026-05-03T15:55:14.999Z</time></trkpt><trkpt lat="36.05291707662866" lon="-107.05283282156775"><ele>2217.0</ele><time>2026-05-03T15:55:15.999Z</time></trkpt><trkpt lat="36.0529092141611" lon="-107.0527031792424"><ele>2218.0</ele><time>2026-05-03T15:55:16.999Z</time></trkpt><trkpt lat="36.05292713379847" lon="-107.0525844048682"><ele>2219.0</ele><time>2026-05-03T15:55:17.999Z</time></trkpt><trkpt lat="36.05292129644243" lon="-107.05248685383076"><ele>2220.0</ele><time>2026-05-03T15:55:18.999Z</time></trkpt><trkpt lat="36.05286953049443" lon="-107.05240089266468"><ele>2221.0</ele><time>2026-05-03T15:55:19.999Z</time></trkpt><trkpt lat="36.052819584443014" lon="-107.05229504357293"><ele>2221.75</ele><time>2026-05-03T15:55:20.999Z</time></trkpt><trkpt lat="36.05278676931764" lon="-107.05220394411042"><ele>2222.5</ele><time>2026-05-03T15:55:21.999Z</time></trkpt><trkpt lat="36.05270957180426" lon="-107.05202822439502"><ele>2223.25</ele><time>2026-05-03T15:55:23.999Z</time></trkpt><trkpt lat="36.05264258072094" lon="-107.05191649745075"><ele>2224.0</ele><time>2026-05-03T15:55:24.999Z</time></trkpt><trkpt lat="36.052580872289916" lon="-107.05180829287856"><ele>2224.0</ele><time>2026-05-03T15:55:25.999Z</time></trkpt><trkpt lat="36.05249877102544" lon="-107.05170004243928"><ele>2224.0</ele><time>2026-05-03T15:55:26.999Z</time></trkpt><trkpt lat="36.05235865766468" lon="-107.05165701797426"><ele>2224.0</ele><time>2026-05-03T15:55:28.999Z</time></trkpt><trkpt lat="36.05222224704095" lon="-107.05170281965934"><ele>2224.0</ele><time>2026-05-03T15:55:29.999Z</time></trkpt><trkpt lat="36.05210992410251" lon="-107.05180184426995"><ele>2222.3333333333335</ele><time>2026-05-03T15:55:30.999Z</time></trkpt><trkpt lat="36.05202751995863" lon="-107.05184209282562"><ele>2220.666666666667</ele><time>2026-05-03T15:55:31.999Z</time></trkpt><trkpt lat="36.051927554955334" lon="-107.05180639391843"><ele>2219.0</ele><time>2026-05-03T15:55:33.999Z</time></trkpt><trkpt lat="36.05186715117794" lon="-107.05177325358291"><ele>2217.3333333333335</ele><time>2026-05-03T15:55:34.999Z</time></trkpt><trkpt lat="36.05181512565524" lon="-107.05171730155686"><ele>2215.6666666666665</ele><time>2026-05-03T15:55:35.999Z</time></trkpt><trkpt lat="36.05175271620589" lon="-107.05169600236859"><ele>2214.0</ele><time>2026-05-03T15:55:36.999Z</time></trkpt><trkpt lat="36.05163110550433" lon="-107.05171342140439"><ele>2213.5</ele><time>2026-05-03T15:55:37.999Z</time></trkpt><trkpt lat="36.05148331583986" lon="-107.0517146371337"><ele>2213.0</ele><time>2026-05-03T15:55:38.999Z</time></trkpt><trkpt lat="36.0513603997758" lon="-107.05167117204009"><ele>2212.5</ele><time>2026-05-03T15:55:39.999Z</time></trkpt><trkpt lat="36.051266232190095" lon="-107.05160319867927"><ele>2212.0</ele><time>2026-05-03T15:55:40.999Z</time></trkpt><trkpt lat="36.05118349114518" lon="-107.05146152913153"><ele>2211.5</ele><time>2026-05-03T15:55:41.999Z</time></trkpt><trkpt lat="36.05109061236683" lon="-107.05130450500442"><ele>2211.0</ele><time>2026-05-03T15:55:42.999Z</time></trkpt><trkpt lat="36.05099478823892" lon="-107.05116142394837"><ele>2210.5</ele><time>2026-05-03T15:55:43.999Z</time></trkpt><trkpt lat="36.050921383668964" lon="-107.05107659755011"><ele>2210.0</ele><time>2026-05-03T15:55:44.999Z</time></trkpt><trkpt lat="36.050867168435865" lon="-107.05100269661695"><ele>2210.0</ele><time>2026-05-03T15:55:45.999Z</time></trkpt><trkpt lat="36.050828523920416" lon="-107.05088781250693"><ele>2210.0</ele><time>2026-05-03T15:55:46.999Z</time></trkpt><trkpt lat="36.050817960450644" lon="-107.0507665975416"><ele>2210.0</ele><time>2026-05-03T15:55:48Z</time></trkpt><trkpt lat="36.05087294149961" lon="-107.05064492328124"><ele>2210.0</ele><time>2026-05-03T15:55:49Z</time></trkpt><trkpt lat="36.05096108092171" lon="-107.05053035172864"><ele>2210.0</ele><time>2026-05-03T15:55:50Z</time></trkpt><trkpt lat="36.05106189993973" lon="-107.05042946948292"><ele>2210.0</ele><time>2026-05-03T15:55:51Z</time></trkpt><trkpt lat="36.05120429350859" lon="-107.0503522680993"><ele>2210.0</ele><time>2026-05-03T15:55:52Z</time></trkpt><trkpt lat="36.051365174733284" lon="-107.05030288913261"><ele>2210.0</ele><time>2026-05-03T15:55:53Z</time></trkpt><trkpt lat="36.0515536233393" lon="-107.05026756983062"><ele>2211.25</ele><time>2026-05-03T15:55:54Z</time></trkpt><trkpt lat="36.051733719035106" lon="-107.0502141148751"><ele>2212.5</ele><time>2026-05-03T15:55:55Z</time></trkpt><trkpt lat="36.051848102225385" lon="-107.05017962838637"><ele>2213.75</ele><time>2026-05-03T15:55:56Z</time></trkpt><trkpt lat="36.05197944045822" lon="-107.05019344029301"><ele>2215.0</ele><time>2026-05-03T15:55:57Z</time></trkpt><trkpt lat="36.05211897646887" lon="-107.05022644812337"><ele>2215.0</ele><time>2026-05-03T15:55:58Z</time></trkpt><trkpt lat="36.0522187472203" lon="-107.05028198360036"><ele>2215.0</ele><time>2026-05-03T15:55:59Z</time></trkpt><trkpt lat="36.05235596088654" lon="-107.050371434672"><ele>2215.0</ele><time>2026-05-03T15:56:00Z</time></trkpt><trkpt lat="36.052459119323935" lon="-107.05035812996267"><ele>2215.0</ele><time>2026-05-03T15:56:01Z</time></trkpt><trkpt lat="36.052543969650124" lon="-107.05024592308476"><ele>2216.0</ele><time>2026-05-03T15:56:02Z</time></trkpt><trkpt lat="36.05267283723166" lon="-107.05019608478577"><ele>2217.0</ele><time>2026-05-03T15:56:03Z</time></trkpt><trkpt lat="36.05282827638568" lon="-107.0502036521569"><ele>2218.0</ele><time>2026-05-03T15:56:04Z</time></trkpt><trkpt lat="36.05297582981412" lon="-107.05021091290672"><ele>2219.0</ele><time>2026-05-03T15:56:05Z</time></trkpt><trkpt lat="36.053099927630505" lon="-107.05024985826847"><ele>2219.0</ele><time>2026-05-03T15:56:06Z</time></trkpt><trkpt lat="36.05320785347644" lon="-107.05024573443363"><ele>2219.0</ele><time>2026-05-03T15:56:07Z</time></trkpt><trkpt lat="36.05332677111175" lon="-107.05023616745362"><ele>2219.0</ele><time>2026-05-03T15:56:08Z</time></trkpt><trkpt lat="36.05343867922745" lon="-107.05030491090507"><ele>2219.0</ele><time>2026-05-03T15:56:09Z</time></trkpt><trkpt lat="36.05355836762729" lon="-107.0504455297561"><ele>2220.5</ele><time>2026-05-03T15:56:10Z</time></trkpt><trkpt lat="36.053686167750065" lon="-107.05054902570271"><ele>2222.0</ele><time>2026-05-03T15:56:11Z</time></trkpt><trkpt lat="36.053807027944536" lon="-107.0505701368597"><ele>2223.5</ele><time>2026-05-03T15:56:12Z</time></trkpt><trkpt lat="36.05392651833344" lon="-107.05057702304205"><ele>2225.0</ele><time>2026-05-03T15:56:13Z</time></trkpt><trkpt lat="36.05404651767346" lon="-107.05061063717187"><ele>2226.5</ele><time>2026-05-03T15:56:14Z</time></trkpt><trkpt lat="36.054151762508795" lon="-107.0507038994001"><ele>2228.0</ele><time>2026-05-03T15:56:15Z</time></trkpt><trkpt lat="36.05425091821812" lon="-107.05081383810597"><ele>2229.5</ele><time>2026-05-03T15:56:16Z</time></trkpt><trkpt lat="36.05434310247444" lon="-107.05091502699166"><ele>2231.0</ele><time>2026-05-03T15:56:17Z</time></trkpt><trkpt lat="36.05441303774595" lon="-107.05100641023978"><ele>2231.0</ele><time>2026-05-03T15:56:18Z</time></trkpt><trkpt lat="36.05447622893636" lon="-107.0511157460121"><ele>2231.0</ele><time>2026-05-03T15:56:19Z</time></trkpt><trkpt lat="36.0545514604869" lon="-107.05121866936415"><ele>2231.0</ele><time>2026-05-03T15:56:20Z</time></trkpt><trkpt lat="36.05459833855954" lon="-107.05130443496351"><ele>2231.0</ele><time>2026-05-03T15:56:22Z</time></trkpt><trkpt lat="36.05461803484517" lon="-107.05142149277349"><ele>2231.0</ele><time>2026-05-03T15:56:32Z</time></trkpt><trkpt lat="36.054701246450136" lon="-107.05151457735658"><ele>2231.0</ele><time>2026-05-03T15:56:35Z</time></trkpt><trkpt lat="36.054814024228214" lon="-107.05153097049948"><ele>2231.0</ele><time>2026-05-03T15:56:37Z</time></trkpt><trkpt lat="36.0548815390293" lon="-107.05151911354281"><ele>2231.0</ele><time>2026-05-03T15:56:38Z</time></trkpt><trkpt lat="36.05498446365458" lon="-107.05151496191868"><ele>2231.0</ele><time>2026-05-03T15:56:39Z</time></trkpt><trkpt lat="36.05508395226787" lon="-107.05146042345518"><ele>2231.0</ele><time>2026-05-03T15:56:40Z</time></trkpt><trkpt lat="36.05520559464301" lon="-107.05141309470493"><ele>2231.8</ele><time>2026-05-03T15:56:41Z</time></trkpt><trkpt lat="36.0553205289238" lon="-107.05143990942406"><ele>2232.6</ele><time>2026-05-03T15:56:42Z</time></trkpt><trkpt lat="36.05541660613425" lon="-107.05145283878332"><ele>2233.4</ele><time>2026-05-03T15:56:43Z</time></trkpt><trkpt lat="36.05552412303963" lon="-107.05144769394147"><ele>2234.2</ele><time>2026-05-03T15:56:44Z</time></trkpt><trkpt lat="36.05563007291172" lon="-107.05141823006731"><ele>2235.0</ele><time>2026-05-03T15:56:45Z</time></trkpt><trkpt lat="36.055725666787446" lon="-107.0513955835582"><ele>2235.6666666666665</ele><time>2026-05-03T15:56:46Z</time></trkpt><trkpt lat="36.05580681066714" lon="-107.0513585699399"><ele>2236.3333333333335</ele><time>2026-05-03T15:56:47Z</time></trkpt><trkpt lat="36.05588113111653" lon="-107.05130582127649"><ele>2237.0</ele><time>2026-05-03T15:56:48Z</time></trkpt><trkpt lat="36.0559542941245" lon="-107.05124834009135"><ele>2237.666666666667</ele><time>2026-05-03T15:56:49Z</time></trkpt><trkpt lat="36.056022299309625" lon="-107.05119785433837"><ele>2238.3333333333335</ele><time>2026-05-03T15:56:50Z</time></trkpt><trkpt lat="36.05608960223546" lon="-107.05111612142943"><ele>2239.0</ele><time>2026-05-03T15:56:51Z</time></trkpt><trkpt lat="36.056163760705104" lon="-107.05102019768574"><ele>2239.0</ele><time>2026-05-03T15:56:52Z</time></trkpt><trkpt lat="36.05624434813765" lon="-107.05087648419075"><ele>2239.0</ele><time>2026-05-03T15:56:53Z</time></trkpt><trkpt lat="36.05636162711101" lon="-107.05045571887197"><ele>2239.0</ele><time>2026-05-03T15:56:54Z</time></trkpt><trkpt lat="36.056468361985" lon="-107.05034183382448"><ele>2239.0</ele><time>2026-05-03T15:56:55Z</time></trkpt><trkpt lat="36.05655603289668" lon="-107.05022733288469"><ele>2239.0</ele><time>2026-05-03T15:56:56Z</time></trkpt><trkpt lat="36.05661798673734" lon="-107.05014163348984"><ele>2239.0</ele><time>2026-05-03T15:56:57Z</time></trkpt><trkpt lat="36.05667973220226" lon="-107.05005278954991"><ele>2238.4</ele><time>2026-05-03T15:56:58Z</time></trkpt><trkpt lat="36.05672196332383" lon="-107.04993665455297"><ele>2237.8</ele><time>2026-05-03T15:56:59Z</time></trkpt><trkpt lat="36.056763057381715" lon="-107.04982396600761"><ele>2237.2</ele><time>2026-05-03T15:57:00Z</time></trkpt><trkpt lat="36.05677126338943" lon="-107.04971019099905"><ele>2236.6</ele><time>2026-05-03T15:57:01Z</time></trkpt><trkpt lat="36.0567358170331" lon="-107.04956938723566"><ele>2236.0</ele><time>2026-05-03T15:57:02Z</time></trkpt><trkpt lat="36.05673508375147" lon="-107.04942700371815"><ele>2236.0</ele><time>2026-05-03T15:57:03Z</time></trkpt><trkpt lat="36.056720325142855" lon="-107.04914294750148"><ele>2236.0</ele><time>2026-05-03T15:57:04Z</time></trkpt><trkpt lat="36.056817643563654" lon="-107.04901573868972"><ele>2236.0</ele><time>2026-05-03T15:57:05Z</time></trkpt><trkpt lat="36.056852007602565" lon="-107.04888541516398"><ele>2235.5</ele><time>2026-05-03T15:57:06Z</time></trkpt><trkpt lat="36.05684813867662" lon="-107.04873583228712"><ele>2235.0</ele><time>2026-05-03T15:57:07Z</time></trkpt><trkpt lat="36.05685193112807" lon="-107.04855651403301"><ele>2234.5</ele><time>2026-05-03T15:57:08Z</time></trkpt><trkpt lat="36.056850806360615" lon="-107.04839762340046"><ele>2234.0</ele><time>2026-05-03T15:57:09Z</time></trkpt><trkpt lat="36.056863299283364" lon="-107.04824797474785"><ele>2233.0</ele><time>2026-05-03T15:57:10Z</time></trkpt><trkpt lat="36.0568816209633" lon="-107.0481062331234"><ele>2232.0</ele><time>2026-05-03T15:57:11Z</time></trkpt><trkpt lat="36.056884186214646" lon="-107.0479612360951"><ele>2231.0</ele><time>2026-05-03T15:57:12Z</time></trkpt><trkpt lat="36.05688483156357" lon="-107.04781264927927"><ele>2230.0</ele><time>2026-05-03T15:57:13Z</time></trkpt><trkpt lat="36.056919670475295" lon="-107.04769503165393"><ele>2230.0</ele><time>2026-05-03T15:57:14Z</time></trkpt><trkpt lat="36.0569539487533" lon="-107.04760236954333"><ele>2230.0</ele><time>2026-05-03T15:57:15Z</time></trkpt><trkpt lat="36.05696496433047" lon="-107.04750144970235"><ele>2230.0</ele><time>2026-05-03T15:57:16Z</time></trkpt><trkpt lat="36.05695596394463" lon="-107.04736491541796"><ele>2230.0</ele><time>2026-05-03T15:57:17Z</time></trkpt><trkpt lat="36.05694844830909" lon="-107.04723265032194"><ele>2230.0</ele><time>2026-05-03T15:57:18Z</time></trkpt><trkpt lat="36.05692448101945" lon="-107.04709369988039"><ele>2228.75</ele><time>2026-05-03T15:57:19Z</time></trkpt><trkpt lat="36.05689965090429" lon="-107.0469271737512"><ele>2227.5</ele><time>2026-05-03T15:57:20Z</time></trkpt><trkpt lat="36.056884723040405" lon="-107.04674646294056"><ele>2226.25</ele><time>2026-05-03T15:57:21Z</time></trkpt><trkpt lat="36.056873786143385" lon="-107.04656052747305"><ele>2225.0</ele><time>2026-05-03T15:57:22Z</time></trkpt><trkpt lat="36.05687084258462" lon="-107.04639046201054"><ele>2225.0</ele><time>2026-05-03T15:57:23Z</time></trkpt><trkpt lat="36.05687119839297" lon="-107.04626209872767"><ele>2225.0</ele><time>2026-05-03T15:57:24Z</time></trkpt><trkpt lat="36.05687865918282" lon="-107.04616988418634"><ele>2225.0</ele><time>2026-05-03T15:57:25Z</time></trkpt><trkpt lat="36.056931924169525" lon="-107.04604931492382"><ele>2225.0</ele><time>2026-05-03T15:57:27Z</time></trkpt><trkpt lat="36.056864283948656" lon="-107.04598865734059"><ele>2225.0</ele><time>2026-05-03T15:57:30Z</time></trkpt><trkpt lat="36.05677465556276" lon="-107.04601443018002"><ele>2225.0</ele><time>2026-05-03T15:57:31Z</time></trkpt><trkpt lat="36.056694690945555" lon="-107.04603816643107"><ele>2225.0</ele><time>2026-05-03T15:57:32Z</time></trkpt><trkpt lat="36.05659508159453" lon="-107.04605132771624"><ele>2225.0</ele><time>2026-05-03T15:57:33Z</time></trkpt><trkpt lat="36.0564751356085" lon="-107.04607287258553"><ele>2225.0</ele><time>2026-05-03T15:57:34Z</time></trkpt><trkpt lat="36.05636951544597" lon="-107.04608777063358"><ele>2225.0</ele><time>2026-05-03T15:57:35Z</time></trkpt><trkpt lat="36.05626517921494" lon="-107.04609009305396"><ele>2226.5</ele><time>2026-05-03T15:57:36Z</time></trkpt><trkpt lat="36.056162771806676" lon="-107.04608880326533"><ele>2228.0</ele><time>2026-05-03T15:57:36.999Z</time></trkpt><trkpt lat="36.056074904330444" lon="-107.04609613589062"><ele>2229.5</ele><time>2026-05-03T15:57:37.999Z</time></trkpt><trkpt lat="36.05599363722425" lon="-107.04608883825811"><ele>2231.0</ele><time>2026-05-03T15:57:38.999Z</time></trkpt><trkpt lat="36.05594308870524" lon="-107.04603070119248"><ele>2232.5</ele><time>2026-05-03T15:57:39.999Z</time></trkpt><trkpt lat="36.055906598020954" lon="-107.04594404930972"><ele>2234.0</ele><time>2026-05-03T15:57:40.999Z</time></trkpt><trkpt lat="36.05588571135652" lon="-107.04577982158672"><ele>2234.0</ele><time>2026-05-03T15:57:42.999Z</time></trkpt><trkpt lat="36.05584326187589" lon="-107.04571886218024"><ele>2234.0</ele><time>2026-05-03T15:57:43.999Z</time></trkpt><trkpt lat="36.05574826324505" lon="-107.04575477194096"><ele>2234.0</ele><time>2026-05-03T15:57:45.999Z</time></trkpt><trkpt lat="36.055661428256116" lon="-107.04575177669948"><ele>2234.0</ele><time>2026-05-03T15:57:46.999Z</time></trkpt><trkpt lat="36.05560947784581" lon="-107.04567922473103"><ele>2234.0</ele><time>2026-05-03T15:57:47.999Z</time></trkpt><trkpt lat="36.05553635662969" lon="-107.04561613477125"><ele>2234.0</ele><time>2026-05-03T15:57:48.999Z</time></trkpt><trkpt lat="36.05547673139972" lon="-107.04556652800696"><ele>2235.2</ele><time>2026-05-03T15:57:49.999Z</time></trkpt><trkpt lat="36.055417046012614" lon="-107.04546949601158"><ele>2236.4</ele><time>2026-05-03T15:57:50.999Z</time></trkpt><trkpt lat="36.05534130519336" lon="-107.045368322357"><ele>2237.6</ele><time>2026-05-03T15:57:51.999Z</time></trkpt><trkpt lat="36.055254593280495" lon="-107.04530305170204"><ele>2238.8</ele><time>2026-05-03T15:57:52.999Z</time></trkpt><trkpt lat="36.055151073783435" lon="-107.0452757051497"><ele>2240.0</ele><time>2026-05-03T15:57:54Z</time></trkpt><trkpt lat="36.055050075811586" lon="-107.04526252602652"><ele>2239.25</ele><time>2026-05-03T15:57:55Z</time></trkpt><trkpt lat="36.05495175895928" lon="-107.04521708624736"><ele>2238.5</ele><time>2026-05-03T15:57:56Z</time></trkpt><trkpt lat="36.054887407068556" lon="-107.04505503146619"><ele>2237.75</ele><time>2026-05-03T15:57:58Z</time></trkpt><trkpt lat="36.05488945443271" lon="-107.04491730227404"><ele>2237.0</ele><time>2026-05-03T15:57:59Z</time></trkpt><trkpt lat="36.05492743873161" lon="-107.0448185688401"><ele>2237.4</ele><time>2026-05-03T15:58:00Z</time></trkpt><trkpt lat="36.054987971848035" lon="-107.04478194154503"><ele>2237.7999999999997</ele><time>2026-05-03T15:58:01Z</time></trkpt><trkpt lat="36.05515109217781" lon="-107.04471935583413"><ele>2238.2</ele><time>2026-05-03T15:58:05Z</time></trkpt><trkpt lat="36.05520492550973" lon="-107.0446650221038"><ele>2238.6</ele><time>2026-05-03T15:58:06Z</time></trkpt><trkpt lat="36.0552533420312" lon="-107.04457207566624"><ele>2239.0</ele><time>2026-05-03T15:58:07Z</time></trkpt><trkpt lat="36.05530931546284" lon="-107.04448330943146"><ele>2239.0</ele><time>2026-05-03T15:58:08Z</time></trkpt><trkpt lat="36.05532362078775" lon="-107.04440516038672"><ele>2239.0</ele><time>2026-05-03T15:58:09Z</time></trkpt><trkpt lat="36.05522071731054" lon="-107.0443158192513"><ele>2239.0</ele><time>2026-05-03T15:58:12Z</time></trkpt><trkpt lat="36.05513998889277" lon="-107.04420946263828"><ele>2239.0</ele><time>2026-05-03T15:58:13Z</time></trkpt><trkpt lat="36.055077327308055" lon="-107.04412632874214"><ele>2239.0</ele><time>2026-05-03T15:58:14Z</time></trkpt><trkpt lat="36.05504545011588" lon="-107.04403191637296"><ele>2237.6</ele><time>2026-05-03T15:58:15Z</time></trkpt><trkpt lat="36.05499248861945" lon="-107.04392042346882"><ele>2236.2</ele><time>2026-05-03T15:58:16Z</time></trkpt><trkpt lat="36.0549266289683" lon="-107.04384394960732"><ele>2234.7999999999997</ele><time>2026-05-03T15:58:17Z</time></trkpt><trkpt lat="36.054853501783164" lon="-107.0437557350914"><ele>2233.4</ele><time>2026-05-03T15:58:18Z</time></trkpt><trkpt lat="36.05478888617366" lon="-107.04365598662936"><ele>2232.0</ele><time>2026-05-03T15:58:19Z</time></trkpt><trkpt lat="36.0547228152318" lon="-107.0435421975784"><ele>2231.5</ele><time>2026-05-03T15:58:20Z</time></trkpt><trkpt lat="36.05467200444284" lon="-107.0434459525367"><ele>2231.0</ele><time>2026-05-03T15:58:21Z</time></trkpt><trkpt lat="36.054661221338115" lon="-107.0433465605439"><ele>2230.5</ele><time>2026-05-03T15:58:22Z</time></trkpt><trkpt lat="36.05465931873114" lon="-107.04326729837577"><ele>2230.0</ele><time>2026-05-03T15:58:23Z</time></trkpt><trkpt lat="36.05464716676097" lon="-107.04316837700513"><ele>2229.5</ele><time>2026-05-03T15:58:25Z</time></trkpt><trkpt lat="36.05464159488792" lon="-107.04308811105886"><ele>2229.0</ele><time>2026-05-03T15:58:26Z</time></trkpt><trkpt lat="36.054658700171295" lon="-107.04297799509821"><ele>2228.4</ele><time>2026-05-03T15:58:27Z</time></trkpt><trkpt lat="36.05462563339682" lon="-107.04287479625101"><ele>2227.8</ele><time>2026-05-03T15:58:28Z</time></trkpt><trkpt lat="36.05455772305144" lon="-107.04277577948272"><ele>2227.2</ele><time>2026-05-03T15:58:29Z</time></trkpt><trkpt lat="36.05448589577312" lon="-107.04268984764501"><ele>2226.6</ele><time>2026-05-03T15:58:30Z</time></trkpt><trkpt lat="36.0544488076892" lon="-107.04257440059206"><ele>2226.0</ele><time>2026-05-03T15:58:31Z</time></trkpt><trkpt lat="36.05439643565679" lon="-107.04244720651492"><ele>2224.8</ele><time>2026-05-03T15:58:32Z</time></trkpt><trkpt lat="36.05434360255611" lon="-107.042333190662"><ele>2223.6</ele><time>2026-05-03T15:58:33Z</time></trkpt><trkpt lat="36.05429207497071" lon="-107.04223560359034"><ele>2222.4</ele><time>2026-05-03T15:58:34Z</time></trkpt><trkpt lat="36.05423102183231" lon="-107.04217588306264"><ele>2221.2</ele><time>2026-05-03T15:58:35Z</time></trkpt><trkpt lat="36.05416233437314" lon="-107.04212679568612"><ele>2220.0</ele><time>2026-05-03T15:58:36Z</time></trkpt><trkpt lat="36.05409390162829" lon="-107.04204612095516"><ele>2219.4</ele><time>2026-05-03T15:58:38Z</time></trkpt><trkpt lat="36.05410553240419" lon="-107.04194291969947"><ele>2218.8</ele><time>2026-05-03T15:58:39Z</time></trkpt><trkpt lat="36.054074624291566" lon="-107.04179247911424"><ele>2218.2</ele><time>2026-05-03T15:58:40Z</time></trkpt><trkpt lat="36.054013962472034" lon="-107.04167873948003"><ele>2217.6</ele><time>2026-05-03T15:58:41Z</time></trkpt><trkpt lat="36.05396110153639" lon="-107.04159826136764"><ele>2217.0</ele><time>2026-05-03T15:58:42Z</time></trkpt><trkpt lat="36.053914714716186" lon="-107.04150998855437"><ele>2216.6</ele><time>2026-05-03T15:58:43Z</time></trkpt><trkpt lat="36.05388258882481" lon="-107.0413964116468"><ele>2216.2</ele><time>2026-05-03T15:58:44Z</time></trkpt><trkpt lat="36.053852530555886" lon="-107.04127293978435"><ele>2215.8</ele><time>2026-05-03T15:58:45Z</time></trkpt><trkpt lat="36.05381502595393" lon="-107.04115681585323"><ele>2215.4</ele><time>2026-05-03T15:58:46Z</time></trkpt><trkpt lat="36.05374516042796" lon="-107.04107933128397"><ele>2215.0</ele><time>2026-05-03T15:58:47Z</time></trkpt><trkpt lat="36.05363474519133" lon="-107.04102698555013"><ele>2215.0</ele><time>2026-05-03T15:58:48Z</time></trkpt><trkpt lat="36.05351853079971" lon="-107.04096240332095"><ele>2215.0</ele><time>2026-05-03T15:58:49Z</time></trkpt><trkpt lat="36.053405414715655" lon="-107.04089101411068"><ele>2215.0</ele><time>2026-05-03T15:58:50Z</time></trkpt><trkpt lat="36.05333393769986" lon="-107.04080256554782"><ele>2215.0</ele><time>2026-05-03T15:58:51Z</time></trkpt><trkpt lat="36.05328158837961" lon="-107.04074411877806"><ele>2215.0</ele><time>2026-05-03T15:58:52Z</time></trkpt><trkpt lat="36.05322042417601" lon="-107.04072318501025"><ele>2213.8</ele><time>2026-05-03T15:58:53Z</time></trkpt><trkpt lat="36.053147512879804" lon="-107.04070560687373"><ele>2212.6</ele><time>2026-05-03T15:58:54Z</time></trkpt><trkpt lat="36.05302625949304" lon="-107.040731201168"><ele>2211.4</ele><time>2026-05-03T15:58:56Z</time></trkpt><trkpt lat="36.052938088487984" lon="-107.0407731520808"><ele>2210.2</ele><time>2026-05-03T15:58:57Z</time></trkpt><trkpt lat="36.052821097460594" lon="-107.04076464492822"><ele>2209.0</ele><time>2026-05-03T15:58:59Z</time></trkpt><trkpt lat="36.052792221006996" lon="-107.04059805709045"><ele>2209.0</ele><time>2026-05-03T15:59:02Z</time></trkpt><trkpt lat="36.052756800611824" lon="-107.04050526405082"><ele>2209.0</ele><time>2026-05-03T15:59:03Z</time></trkpt><trkpt lat="36.05277140071948" lon="-107.0404201800284"><ele>2209.0</ele><time>2026-05-03T15:59:04Z</time></trkpt><trkpt lat="36.0528165535363" lon="-107.04034648738825"><ele>2209.0</ele><time>2026-05-03T15:59:05Z</time></trkpt><trkpt lat="36.0528811855003" lon="-107.04021356249035"><ele>2209.0</ele><time>2026-05-03T15:59:06Z</time></trkpt><trkpt lat="36.05288830697847" lon="-107.04011649228443"><ele>2209.0</ele><time>2026-05-03T15:59:07Z</time></trkpt><trkpt lat="36.05283886418077" lon="-107.0399935629734"><ele>2207.8333333333335</ele><time>2026-05-03T15:59:09Z</time></trkpt><trkpt lat="36.052818683011566" lon="-107.03987387288049"><ele>2206.666666666667</ele><time>2026-05-03T15:59:11Z</time></trkpt><trkpt lat="36.05286706730603" lon="-107.03979037976318"><ele>2205.5</ele><time>2026-05-03T15:59:12Z</time></trkpt><trkpt lat="36.052922126843335" lon="-107.03970121922154"><ele>2204.3333333333335</ele><time>2026-05-03T15:59:13Z</time></trkpt><trkpt lat="36.05297899579099" lon="-107.03961263415174"><ele>2203.1666666666665</ele><time>2026-05-03T15:59:14Z</time></trkpt><trkpt lat="36.05303054450098" lon="-107.0395427657794"><ele>2202.0</ele><time>2026-05-03T15:59:15Z</time></trkpt><trkpt lat="36.05312494140513" lon="-107.03945147235689"><ele>2202.0</ele><time>2026-05-03T15:59:17Z</time></trkpt><trkpt lat="36.0531859383591" lon="-107.03941668988915"><ele>2202.0</ele><time>2026-05-03T15:59:18Z</time></trkpt><trkpt lat="36.05328386649856" lon="-107.03934064566194"><ele>2202.0</ele><time>2026-05-03T15:59:19Z</time></trkpt><trkpt lat="36.05336192471089" lon="-107.03926250534253"><ele>2202.0</ele><time>2026-05-03T15:59:21Z</time></trkpt><trkpt lat="36.05342623935174" lon="-107.03917831658501"><ele>2202.0</ele><time>2026-05-03T15:59:23Z</time></trkpt><trkpt lat="36.05347168131112" lon="-107.03903589659954"><ele>2201.0</ele><time>2026-05-03T15:59:25Z</time></trkpt><trkpt lat="36.05353130383427" lon="-107.03895175697404"><ele>2200.0</ele><time>2026-05-03T15:59:26Z</time></trkpt><trkpt lat="36.05354378815323" lon="-107.03882447202409"><ele>2199.0</ele><time>2026-05-03T15:59:28Z</time></trkpt><trkpt lat="36.05349941770939" lon="-107.03873925206483"><ele>2198.0</ele><time>2026-05-03T15:59:29Z</time></trkpt><trkpt lat="36.05346383539592" lon="-107.03858031772276"><ele>2197.0</ele><time>2026-05-03T15:59:30Z</time></trkpt><trkpt lat="36.05344100633552" lon="-107.0384322434579"><ele>2197.0</ele><time>2026-05-03T15:59:31Z</time></trkpt><trkpt lat="36.05338718047931" lon="-107.0383766628722"><ele>2197.0</ele><time>2026-05-03T15:59:32Z</time></trkpt><trkpt lat="36.0532881214057" lon="-107.03833190642982"><ele>2197.0</ele><time>2026-05-03T15:59:33Z</time></trkpt><trkpt lat="36.053157060339956" lon="-107.03827406506915"><ele>2197.0</ele><time>2026-05-03T15:59:34Z</time></trkpt><trkpt lat="36.05301759529505" lon="-107.0381599556971"><ele>2195.0</ele><time>2026-05-03T15:59:35Z</time></trkpt><trkpt lat="36.052869855547826" lon="-107.03808052642783"><ele>2193.0</ele><time>2026-05-03T15:59:36Z</time></trkpt><trkpt lat="36.05276693358513" lon="-107.0379988023935"><ele>2191.0</ele><time>2026-05-03T15:59:37Z</time></trkpt><trkpt lat="36.05266373632462" lon="-107.03792943813856"><ele>2189.0</ele><time>2026-05-03T15:59:38Z</time></trkpt><trkpt lat="36.05258900677551" lon="-107.03790270434642"><ele>2189.0</ele><time>2026-05-03T15:59:39Z</time></trkpt><trkpt lat="36.05250137468156" lon="-107.03788365334944"><ele>2189.0</ele><time>2026-05-03T15:59:40Z</time></trkpt><trkpt lat="36.0523845497755" lon="-107.03785594403953"><ele>2189.0</ele><time>2026-05-03T15:59:41Z</time></trkpt><trkpt lat="36.05225159195368" lon="-107.03781618524505"><ele>2189.0</ele><time>2026-05-03T15:59:42Z</time></trkpt><trkpt lat="36.0520863646826" lon="-107.03774106435337"><ele>2189.333333333333</ele><time>2026-05-03T15:59:43Z</time></trkpt><trkpt lat="36.051910741336854" lon="-107.03767868082628"><ele>2189.6666666666665</ele><time>2026-05-03T15:59:44Z</time></trkpt><trkpt lat="36.051728702616586" lon="-107.03762108552209"><ele>2190.0</ele><time>2026-05-03T15:59:45Z</time></trkpt><trkpt lat="36.05156384345058" lon="-107.03756132027883"><ele>2190.25</ele><time>2026-05-03T15:59:46Z</time></trkpt><trkpt lat="36.05140870831684" lon="-107.03751562063235"><ele>2190.5</ele><time>2026-05-03T15:59:47Z</time></trkpt><trkpt lat="36.05127441877029" lon="-107.03746674517011"><ele>2190.75</ele><time>2026-05-03T15:59:47.999Z</time></trkpt><trkpt lat="36.05115842789588" lon="-107.03741941805644"><ele>2191.0</ele><time>2026-05-03T15:59:48.999Z</time></trkpt><trkpt lat="36.05108738521564" lon="-107.03736371592295"><ele>2191.0</ele><time>2026-05-03T15:59:49.999Z</time></trkpt><trkpt lat="36.05101832277985" lon="-107.03728785774712"><ele>2191.0</ele><time>2026-05-03T15:59:50.999Z</time></trkpt><trkpt lat="36.05091473408337" lon="-107.0371740950329"><ele>2191.0</ele><time>2026-05-03T15:59:51.999Z</time></trkpt><trkpt lat="36.05081338145808" lon="-107.03706566176767"><ele>2191.0</ele><time>2026-05-03T15:59:52.999Z</time></trkpt><trkpt lat="36.05068585210459" lon="-107.03698659996066"><ele>2191.0</ele><time>2026-05-03T15:59:53.999Z</time></trkpt><trkpt lat="36.050554141231046" lon="-107.03691541492195"><ele>2191.0</ele><time>2026-05-03T15:59:54.999Z</time></trkpt><trkpt lat="36.050429255578074" lon="-107.03687671639946"><ele>2191.0</ele><time>2026-05-03T15:59:55.999Z</time></trkpt><trkpt lat="36.05030326965922" lon="-107.03683483120976"><ele>2191.0</ele><time>2026-05-03T15:59:56.999Z</time></trkpt><trkpt lat="36.050169428776044" lon="-107.036777276904"><ele>2191.0</ele><time>2026-05-03T15:59:57.999Z</time></trkpt><trkpt lat="36.0500297951659" lon="-107.03672930808959"><ele>2191.0</ele><time>2026-05-03T15:59:58.999Z</time></trkpt><trkpt lat="36.049922631876576" lon="-107.0366911020143"><ele>2191.0</ele><time>2026-05-03T16:00:00Z</time></trkpt><trkpt lat="36.049814839479836" lon="-107.03667213825362"><ele>2191.0</ele><time>2026-05-03T16:00:01Z</time></trkpt><trkpt lat="36.049712018545705" lon="-107.03664728336811"><ele>2190.8</ele><time>2026-05-03T16:00:02Z</time></trkpt><trkpt lat="36.04960630899185" lon="-107.03663254009338"><ele>2190.6</ele><time>2026-05-03T16:00:03Z</time></trkpt><trkpt lat="36.04949755213646" lon="-107.03665798090753"><ele>2190.4</ele><time>2026-05-03T16:00:04Z</time></trkpt><trkpt lat="36.04940820276421" lon="-107.03665209527493"><ele>2190.2</ele><time>2026-05-03T16:00:05Z</time></trkpt><trkpt lat="36.04935798844189" lon="-107.03659152275733"><ele>2190.0</ele><time>2026-05-03T16:00:06Z</time></trkpt><trkpt lat="36.04926495823206" lon="-107.03652674319562"><ele>2188.3333333333335</ele><time>2026-05-03T16:00:08Z</time></trkpt><trkpt lat="36.04909723794" lon="-107.03650911949828"><ele>2186.666666666667</ele><time>2026-05-03T16:00:10Z</time></trkpt><trkpt lat="36.04894856927043" lon="-107.03648178193878"><ele>2185.0</ele><time>2026-05-03T16:00:11Z</time></trkpt><trkpt lat="36.04880335776439" lon="-107.03644036759248"><ele>2185.0</ele><time>2026-05-03T16:00:12Z</time></trkpt><trkpt lat="36.04871179805619" lon="-107.03635158832635"><ele>2185.0</ele><time>2026-05-03T16:00:13Z</time></trkpt><trkpt lat="36.048591105841425" lon="-107.03630467906594"><ele>2185.0</ele><time>2026-05-03T16:00:14Z</time></trkpt><trkpt lat="36.048480043373324" lon="-107.03628463774807"><ele>2185.0</ele><time>2026-05-03T16:00:15Z</time></trkpt><trkpt lat="36.04835728196348" lon="-107.03624461315513"><ele>2185.75</ele><time>2026-05-03T16:00:16Z</time></trkpt><trkpt lat="36.048222228276124" lon="-107.03621973851443"><ele>2186.5</ele><time>2026-05-03T16:00:17Z</time></trkpt><trkpt lat="36.0481129901447" lon="-107.03621639018762"><ele>2187.25</ele><time>2026-05-03T16:00:18Z</time></trkpt><trkpt lat="36.04800050226077" lon="-107.03616713919834"><ele>2188.0</ele><time>2026-05-03T16:00:19Z</time></trkpt><trkpt lat="36.04789246159684" lon="-107.03608430858648"><ele>2188.0</ele><time>2026-05-03T16:00:20Z</time></trkpt><trkpt lat="36.04777588828284" lon="-107.03601670486516"><ele>2188.0</ele><time>2026-05-03T16:00:21Z</time></trkpt><trkpt lat="36.04764308127833" lon="-107.03597611367891"><ele>2188.0</ele><time>2026-05-03T16:00:22Z</time></trkpt><trkpt lat="36.047504161005" lon="-107.03594438271784"><ele>2188.0</ele><time>2026-05-03T16:00:23Z</time></trkpt><trkpt lat="36.04736271613118" lon="-107.0359181427208"><ele>2188.0</ele><time>2026-05-03T16:00:24Z</time></trkpt><trkpt lat="36.04722344114114" lon="-107.03588906025213"><ele>2188.0</ele><time>2026-05-03T16:00:25Z</time></trkpt><trkpt lat="36.04710100716005" lon="-107.03584102321598"><ele>2188.0</ele><time>2026-05-03T16:00:26Z</time></trkpt><trkpt lat="36.04699355229925" lon="-107.03582385742864"><ele>2188.0</ele><time>2026-05-03T16:00:27Z</time></trkpt><trkpt lat="36.046860034835134" lon="-107.03580666880929"><ele>2187.2000000000003</ele><time>2026-05-03T16:00:28Z</time></trkpt><trkpt lat="36.0467414609228" lon="-107.03579102340414"><ele>2186.4</ele><time>2026-05-03T16:00:29Z</time></trkpt><trkpt lat="36.046656333202804" lon="-107.0357772164738"><ele>2185.6000000000004</ele><time>2026-05-03T16:00:30Z</time></trkpt><trkpt lat="36.04656932904905" lon="-107.03572529848593"><ele>2184.8</ele><time>2026-05-03T16:00:31Z</time></trkpt><trkpt lat="36.04644956154137" lon="-107.03565255814266"><ele>2184.0</ele><time>2026-05-03T16:00:32Z</time></trkpt><trkpt lat="36.04633106018192" lon="-107.03560338124643"><ele>2184.0</ele><time>2026-05-03T16:00:33Z</time></trkpt><trkpt lat="36.046220000468026" lon="-107.03556507699906"><ele>2184.0</ele><time>2026-05-03T16:00:34Z</time></trkpt><trkpt lat="36.046092269293695" lon="-107.03553439100547"><ele>2184.0</ele><time>2026-05-03T16:00:35Z</time></trkpt><trkpt lat="36.045953310364354" lon="-107.03549409363775"><ele>2184.0</ele><time>2026-05-03T16:00:36Z</time></trkpt><trkpt lat="36.04582010199922" lon="-107.03543491522508"><ele>2185.0</ele><time>2026-05-03T16:00:37Z</time></trkpt><trkpt lat="36.045722941953805" lon="-107.03540145317716"><ele>2186.0</ele><time>2026-05-03T16:00:38Z</time></trkpt><trkpt lat="36.045633742691386" lon="-107.03537478933038"><ele>2187.0</ele><time>2026-05-03T16:00:39Z</time></trkpt><trkpt lat="36.045561411440104" lon="-107.03537937508881"><ele>2188.0</ele><time>2026-05-03T16:00:40Z</time></trkpt><trkpt lat="36.045451761829284" lon="-107.03542039948165"><ele>2189.0</ele><time>2026-05-03T16:00:41Z</time></trkpt><trkpt lat="36.04534600838174" lon="-107.03546491735268"><ele>2189.0</ele><time>2026-05-03T16:00:42Z</time></trkpt><trkpt lat="36.04525233550025" lon="-107.03548081989562"><ele>2189.0</ele><time>2026-05-03T16:00:43Z</time></trkpt><trkpt lat="36.04513966689682" lon="-107.0354408069802"><ele>2189.0</ele><time>2026-05-03T16:00:44Z</time></trkpt><trkpt lat="36.04501667624574" lon="-107.03542488815822"><ele>2189.0</ele><time>2026-05-03T16:00:45Z</time></trkpt><trkpt lat="36.044911181940016" lon="-107.0354517585241"><ele>2189.0</ele><time>2026-05-03T16:00:46Z</time></trkpt><trkpt lat="36.04478901877001" lon="-107.0354664023335"><ele>2188.5</ele><time>2026-05-03T16:00:47Z</time></trkpt><trkpt lat="36.04467276499175" lon="-107.03543017029969"><ele>2188.0</ele><time>2026-05-03T16:00:48Z</time></trkpt><trkpt lat="36.044524884252915" lon="-107.03537631758633"><ele>2187.5</ele><time>2026-05-03T16:00:49Z</time></trkpt><trkpt lat="36.0444098509446" lon="-107.03539002422329"><ele>2187.0</ele><time>2026-05-03T16:00:50Z</time></trkpt><trkpt lat="36.04429946510216" lon="-107.0354081545412"><ele>2187.0</ele><time>2026-05-03T16:00:51Z</time></trkpt><trkpt lat="36.04418741874368" lon="-107.03536850690622"><ele>2187.0</ele><time>2026-05-03T16:00:52Z</time></trkpt><trkpt lat="36.04406686406493" lon="-107.035284549372"><ele>2187.0</ele><time>2026-05-03T16:00:53Z</time></trkpt><trkpt lat="36.043946702659504" lon="-107.03526786952081"><ele>2187.0</ele><time>2026-05-03T16:00:54Z</time></trkpt><trkpt lat="36.04382434677097" lon="-107.03526897692053"><ele>2186.75</ele><time>2026-05-03T16:00:55Z</time></trkpt><trkpt lat="36.04370046839102" lon="-107.03525459571522"><ele>2186.5</ele><time>2026-05-03T16:00:56Z</time></trkpt><trkpt lat="36.04356535481376" lon="-107.03522262891623"><ele>2186.25</ele><time>2026-05-03T16:00:57Z</time></trkpt><trkpt lat="36.04342938453892" lon="-107.03519399034839"><ele>2186.0</ele><time>2026-05-03T16:00:58Z</time></trkpt><trkpt lat="36.043282249758384" lon="-107.03515828232143"><ele>2186.5</ele><time>2026-05-03T16:00:59Z</time></trkpt><trkpt lat="36.04312855229052" lon="-107.03513165836401"><ele>2187.0</ele><time>2026-05-03T16:01:00Z</time></trkpt><trkpt lat="36.04299139628322" lon="-107.03509893490528"><ele>2187.5</ele><time>2026-05-03T16:01:01Z</time></trkpt><trkpt lat="36.04286100871385" lon="-107.03507411921152"><ele>2188.0</ele><time>2026-05-03T16:01:02Z</time></trkpt><trkpt lat="36.04273243391999" lon="-107.03503808692231"><ele>2188.0</ele><time>2026-05-03T16:01:03Z</time></trkpt><trkpt lat="36.0426298024237" lon="-107.035003053542"><ele>2188.0</ele><time>2026-05-03T16:01:04Z</time></trkpt><trkpt lat="36.04253814550103" lon="-107.03497228261989"><ele>2188.0</ele><time>2026-05-03T16:01:05Z</time></trkpt><trkpt lat="36.04246608863828" lon="-107.0349522005192"><ele>2188.0</ele><time>2026-05-03T16:01:06Z</time></trkpt><trkpt lat="36.04239285110748" lon="-107.03496576859565"><ele>2188.0</ele><time>2026-05-03T16:01:07Z</time></trkpt><trkpt lat="36.04229841290341" lon="-107.03501886387662"><ele>2189.0</ele><time>2026-05-03T16:01:08Z</time></trkpt><trkpt lat="36.04220903961426" lon="-107.03508042949204"><ele>2190.0</ele><time>2026-05-03T16:01:09Z</time></trkpt><trkpt lat="36.042083851838285" lon="-107.03497763587482"><ele>2191.0</ele><time>2026-05-03T16:01:11Z</time></trkpt><trkpt lat="36.04202435241357" lon="-107.03485261118341"><ele>2192.0</ele><time>2026-05-03T16:01:12Z</time></trkpt><trkpt lat="36.041935476076" lon="-107.0348285985254"><ele>2190.0</ele><time>2026-05-03T16:01:13Z</time></trkpt><trkpt lat="36.04179945594987" lon="-107.03481940015568"><ele>2188.0</ele><time>2026-05-03T16:01:14Z</time></trkpt><trkpt lat="36.04165582162298" lon="-107.03480057305714"><ele>2186.0</ele><time>2026-05-03T16:01:15Z</time></trkpt><trkpt lat="36.04154594541703" lon="-107.0347686852917"><ele>2184.0</ele><time>2026-05-03T16:01:16Z</time></trkpt><trkpt lat="36.041461387581684" lon="-107.03472722111808"><ele>2184.0</ele><time>2026-05-03T16:01:17Z</time></trkpt><trkpt lat="36.04134607021898" lon="-107.03470114796308"><ele>2184.0</ele><time>2026-05-03T16:01:18Z</time></trkpt><trkpt lat="36.04122287610473" lon="-107.0346566094925"><ele>2184.0</ele><time>2026-05-03T16:01:19Z</time></trkpt><trkpt lat="36.0411344428289" lon="-107.03462247592927"><ele>2184.0</ele><time>2026-05-03T16:01:20Z</time></trkpt><trkpt lat="36.04105124892901" lon="-107.03455735108956"><ele>2184.0</ele><time>2026-05-03T16:01:21Z</time></trkpt><trkpt lat="36.04097956017789" lon="-107.03446962333211"><ele>2184.0</ele><time>2026-05-03T16:01:22Z</time></trkpt><trkpt lat="36.04090490318183" lon="-107.03435188623207"><ele>2184.0</ele><time>2026-05-03T16:01:23Z</time></trkpt><trkpt lat="36.04081779199887" lon="-107.03429860575004"><ele>2184.0</ele><time>2026-05-03T16:01:24Z</time></trkpt><trkpt lat="36.04072157674811" lon="-107.03425345124289"><ele>2184.0</ele><time>2026-05-03T16:01:25Z</time></trkpt><trkpt lat="36.04060730154206" lon="-107.0342010778697"><ele>2184.0</ele><time>2026-05-03T16:01:26Z</time></trkpt><trkpt lat="36.04050255701833" lon="-107.03413937140327"><ele>2183.0</ele><time>2026-05-03T16:01:27Z</time></trkpt><trkpt lat="36.040449722811864" lon="-107.03408018238301"><ele>2182.0</ele><time>2026-05-03T16:01:28Z</time></trkpt><trkpt lat="36.0403569421709" lon="-107.03412469980762"><ele>2181.0</ele><time>2026-05-03T16:01:30Z</time></trkpt><trkpt lat="36.04023331913681" lon="-107.03412816412938"><ele>2180.0</ele><time>2026-05-03T16:01:31Z</time></trkpt><trkpt lat="36.040124030147396" lon="-107.03411478757008"><ele>2179.0</ele><time>2026-05-03T16:01:32Z</time></trkpt><trkpt lat="36.040017748016105" lon="-107.03410081145736"><ele>2178.75</ele><time>2026-05-03T16:01:33Z</time></trkpt><trkpt lat="36.03991195093068" lon="-107.03408741443465"><ele>2178.5</ele><time>2026-05-03T16:01:34Z</time></trkpt><trkpt lat="36.039803161145635" lon="-107.03407930119037"><ele>2178.25</ele><time>2026-05-03T16:01:35Z</time></trkpt><trkpt lat="36.03967249851944" lon="-107.0340613777869"><ele>2178.0</ele><time>2026-05-03T16:01:36Z</time></trkpt><trkpt lat="36.03955320530681" lon="-107.03403864292035"><ele>2178.0</ele><time>2026-05-03T16:01:37Z</time></trkpt><trkpt lat="36.039430789119734" lon="-107.03404253232236"><ele>2178.0</ele><time>2026-05-03T16:01:38Z</time></trkpt><trkpt lat="36.03931149127733" lon="-107.03402168876013"><ele>2178.0</ele><time>2026-05-03T16:01:39Z</time></trkpt><trkpt lat="36.03918464449762" lon="-107.03400576499489"><ele>2178.0</ele><time>2026-05-03T16:01:40Z</time></trkpt><trkpt lat="36.03906410032262" lon="-107.03402201603326"><ele>2178.5</ele><time>2026-05-03T16:01:41Z</time></trkpt><trkpt lat="36.03892980112122" lon="-107.03401462288102"><ele>2179.0</ele><time>2026-05-03T16:01:42Z</time></trkpt><trkpt lat="36.0388137503524" lon="-107.03399101610354"><ele>2179.5</ele><time>2026-05-03T16:01:43Z</time></trkpt><trkpt lat="36.03870277732786" lon="-107.03398578787794"><ele>2180.0</ele><time>2026-05-03T16:01:44Z</time></trkpt><trkpt lat="36.0386192878512" lon="-107.03395266283003"><ele>2180.0</ele><time>2026-05-03T16:01:45Z</time></trkpt><trkpt lat="36.03854479884363" lon="-107.03387091979688"><ele>2180.0</ele><time>2026-05-03T16:01:46Z</time></trkpt><trkpt lat="36.03845678557877" lon="-107.03376329189571"><ele>2180.0</ele><time>2026-05-03T16:01:47Z</time></trkpt><trkpt lat="36.03835842457936" lon="-107.03367786528662"><ele>2180.0</ele><time>2026-05-03T16:01:48Z</time></trkpt><trkpt lat="36.038245749673806" lon="-107.0335984163027"><ele>2179.6</ele><time>2026-05-03T16:01:49Z</time></trkpt><trkpt lat="36.03814658069623" lon="-107.0335316343021"><ele>2179.2</ele><time>2026-05-03T16:01:50Z</time></trkpt><trkpt lat="36.03806589314521" lon="-107.03346786606352"><ele>2178.8</ele><time>2026-05-03T16:01:51Z</time></trkpt><trkpt lat="36.037978831257504" lon="-107.03342613309613"><ele>2178.4</ele><time>2026-05-03T16:01:52Z</time></trkpt><trkpt lat="36.03786333738101" lon="-107.03339232199664"><ele>2178.0</ele><time>2026-05-03T16:01:53Z</time></trkpt><trkpt lat="36.03773179175659" lon="-107.03333344996624"><ele>2178.0</ele><time>2026-05-03T16:01:54Z</time></trkpt><trkpt lat="36.037615283554516" lon="-107.03327043119872"><ele>2178.0</ele><time>2026-05-03T16:01:55Z</time></trkpt><trkpt lat="36.037479425313265" lon="-107.03323580122242"><ele>2178.0</ele><time>2026-05-03T16:01:56Z</time></trkpt><trkpt lat="36.03730080509306" lon="-107.03321190930636"><ele>2178.0</ele><time>2026-05-03T16:01:57Z</time></trkpt><trkpt lat="36.037129635361154" lon="-107.03318990803217"><ele>2178.0</ele><time>2026-05-03T16:01:58Z</time></trkpt><trkpt lat="36.036974220504234" lon="-107.03311733595282"><ele>2178.0</ele><time>2026-05-03T16:01:59Z</time></trkpt><trkpt lat="36.03679075493666" lon="-107.03303203322665"><ele>2178.0</ele><time>2026-05-03T16:02:00Z</time></trkpt><trkpt lat="36.03665443930772" lon="-107.03299175817249"><ele>2178.25</ele><time>2026-05-03T16:02:01Z</time></trkpt><trkpt lat="36.03653423584664" lon="-107.03296389664646"><ele>2178.5</ele><time>2026-05-03T16:02:02Z</time></trkpt><trkpt lat="36.036415522365495" lon="-107.03297753327841"><ele>2178.75</ele><time>2026-05-03T16:02:03Z</time></trkpt><trkpt lat="36.036271765080045" lon="-107.03300948436043"><ele>2179.0</ele><time>2026-05-03T16:02:04Z</time></trkpt><trkpt lat="36.03611161835793" lon="-107.03307054128734"><ele>2179.0</ele><time>2026-05-03T16:02:05Z</time></trkpt><trkpt lat="36.03593029114003" lon="-107.03314899199083"><ele>2179.0</ele><time>2026-05-03T16:02:06Z</time></trkpt><trkpt lat="36.03582871550604" lon="-107.03320559370043"><ele>2179.0</ele><time>2026-05-03T16:02:07Z</time></trkpt><trkpt lat="36.035738575886775" lon="-107.0332677086327"><ele>2179.0</ele><time>2026-05-03T16:02:08Z</time></trkpt><trkpt lat="36.03566861882361" lon="-107.03330504381623"><ele>2179.6</ele><time>2026-05-03T16:02:10Z</time></trkpt><trkpt lat="36.03560413141021" lon="-107.03324930134151"><ele>2180.2</ele><time>2026-05-03T16:02:11Z</time></trkpt><trkpt lat="36.035526277089915" lon="-107.03318770032098"><ele>2180.7999999999997</ele><time>2026-05-03T16:02:12Z</time></trkpt><trkpt lat="36.03540383502877" lon="-107.03309256118658"><ele>2181.4</ele><time>2026-05-03T16:02:13Z</time></trkpt><trkpt lat="36.03533081776736" lon="-107.03299449012601"><ele>2182.0</ele><time>2026-05-03T16:02:14Z</time></trkpt><trkpt lat="36.03523310036952" lon="-107.0329391139916"><ele>2182.0</ele><time>2026-05-03T16:02:15Z</time></trkpt><trkpt lat="36.03510278436556" lon="-107.03288148638369"><ele>2182.0</ele><time>2026-05-03T16:02:16Z</time></trkpt><trkpt lat="36.03492260709806" lon="-107.03280827945083"><ele>2182.0</ele><time>2026-05-03T16:02:17Z</time></trkpt><trkpt lat="36.034755863254865" lon="-107.03271848855593"><ele>2183.0</ele><time>2026-05-03T16:02:18Z</time></trkpt><trkpt lat="36.034571648176325" lon="-107.03263351101965"><ele>2184.0</ele><time>2026-05-03T16:02:19Z</time></trkpt><trkpt lat="36.03442164337916" lon="-107.03258260512173"><ele>2185.0</ele><time>2026-05-03T16:02:20Z</time></trkpt><trkpt lat="36.034299606603554" lon="-107.03255133219089"><ele>2185.0</ele><time>2026-05-03T16:02:21Z</time></trkpt><trkpt lat="36.034167201660836" lon="-107.03248232993518"><ele>2185.0</ele><time>2026-05-03T16:02:22Z</time></trkpt><trkpt lat="36.0340184437202" lon="-107.03239068849706"><ele>2185.0</ele><time>2026-05-03T16:02:23Z</time></trkpt><trkpt lat="36.03387384178007" lon="-107.03227999214377"><ele>2183.0</ele><time>2026-05-03T16:02:24Z</time></trkpt><trkpt lat="36.03372611042097" lon="-107.03218549931513"><ele>2181.0</ele><time>2026-05-03T16:02:25Z</time></trkpt><trkpt lat="36.03359142400588" lon="-107.03207970374181"><ele>2179.0</ele><time>2026-05-03T16:02:26Z</time></trkpt><trkpt lat="36.033478287837745" lon="-107.03196107789009"><ele>2179.0</ele><time>2026-05-03T16:02:27Z</time></trkpt><trkpt lat="36.03339062319598" lon="-107.03190579284383"><ele>2179.0</ele><time>2026-05-03T16:02:28Z</time></trkpt><trkpt lat="36.03329235113206" lon="-107.03189700156088"><ele>2179.0</ele><time>2026-05-03T16:02:29Z</time></trkpt><trkpt lat="36.033231770028145" lon="-107.03197785866291"><ele>2179.0</ele><time>2026-05-03T16:02:30Z</time></trkpt><trkpt lat="36.033180924415845" lon="-107.03206120867156"><ele>2179.0</ele><time>2026-05-03T16:02:31Z</time></trkpt><trkpt lat="36.033098745647735" lon="-107.03216398622986"><ele>2179.2</ele><time>2026-05-03T16:02:33Z</time></trkpt><trkpt lat="36.03302142076068" lon="-107.03225951217631"><ele>2179.4</ele><time>2026-05-03T16:02:34Z</time></trkpt><trkpt lat="36.03291005793679" lon="-107.03227717047115"><ele>2179.6</ele><time>2026-05-03T16:02:35Z</time></trkpt><trkpt lat="36.032799407344235" lon="-107.03227982519672"><ele>2179.8</ele><time>2026-05-03T16:02:36Z</time></trkpt><trkpt lat="36.032710732255325" lon="-107.03231682133284"><ele>2180.0</ele><time>2026-05-03T16:02:37Z</time></trkpt><trkpt lat="36.03260092852689" lon="-107.03238807666483"><ele>2180.0</ele><time>2026-05-03T16:02:38Z</time></trkpt><trkpt lat="36.03250051951727" lon="-107.03243728048714"><ele>2180.0</ele><time>2026-05-03T16:02:39Z</time></trkpt><trkpt lat="36.03239215597802" lon="-107.03238013655073"><ele>2180.0</ele><time>2026-05-03T16:02:40Z</time></trkpt><trkpt lat="36.032268106291504" lon="-107.03236219508003"><ele>2180.0</ele><time>2026-05-03T16:02:41Z</time></trkpt><trkpt lat="36.032157770878236" lon="-107.03244034146849"><ele>2182.5</ele><time>2026-05-03T16:02:42Z</time></trkpt><trkpt lat="36.032004964189404" lon="-107.03249285896906"><ele>2185.0</ele><time>2026-05-03T16:02:43Z</time></trkpt><trkpt lat="36.03185223788042" lon="-107.03254416501272"><ele>2187.5</ele><time>2026-05-03T16:02:44Z</time></trkpt><trkpt lat="36.03173491509933" lon="-107.03258346733978"><ele>2190.0</ele><time>2026-05-03T16:02:45Z</time></trkpt><trkpt lat="36.03164750034903" lon="-107.03260028974798"><ele>2191.6666666666665</ele><time>2026-05-03T16:02:46Z</time></trkpt><trkpt lat="36.03157649718561" lon="-107.03260195993309"><ele>2193.3333333333335</ele><time>2026-05-03T16:02:47Z</time></trkpt><trkpt lat="36.031490157262674" lon="-107.03260946993065"><ele>2195.0</ele><time>2026-05-03T16:02:48Z</time></trkpt><trkpt lat="36.03141167696016" lon="-107.03259552573086"><ele>2196.666666666667</ele><time>2026-05-03T16:02:49Z</time></trkpt><trkpt lat="36.0313980260671" lon="-107.03251078067476"><ele>2198.3333333333335</ele><time>2026-05-03T16:02:50Z</time></trkpt><trkpt lat="36.031433582079124" lon="-107.03240067777574"><ele>2200.0</ele><time>2026-05-03T16:02:51Z</time></trkpt><trkpt lat="36.03149605652439" lon="-107.03231429959902"><ele>2198.5</ele><time>2026-05-03T16:02:52Z</time></trkpt><trkpt lat="36.03154438334218" lon="-107.03218998978627"><ele>2197.0</ele><time>2026-05-03T16:02:53Z</time></trkpt><trkpt lat="36.03158700202138" lon="-107.03204866226196"><ele>2195.5</ele><time>2026-05-03T16:02:54Z</time></trkpt><trkpt lat="36.031646715845156" lon="-107.03187660905479"><ele>2194.0</ele><time>2026-05-03T16:02:55Z</time></trkpt><trkpt lat="36.03167715301952" lon="-107.03174188166739"><ele>2194.0</ele><time>2026-05-03T16:02:56Z</time></trkpt><trkpt lat="36.03165004667358" lon="-107.03164068037894"><ele>2194.0</ele><time>2026-05-03T16:02:57Z</time></trkpt><trkpt lat="36.03157556817137" lon="-107.03152096896073"><ele>2194.0</ele><time>2026-05-03T16:02:58Z</time></trkpt><trkpt lat="36.03156874321822" lon="-107.03143992737591"><ele>2194.0</ele><time>2026-05-03T16:02:59Z</time></trkpt><trkpt lat="36.03161317981808" lon="-107.03131958144316"><ele>2194.0</ele><time>2026-05-03T16:03:00Z</time></trkpt><trkpt lat="36.03166357542016" lon="-107.03113770595974"><ele>2194.4</ele><time>2026-05-03T16:03:01Z</time></trkpt><trkpt lat="36.03171942513755" lon="-107.03101125210593"><ele>2194.8</ele><time>2026-05-03T16:03:02Z</time></trkpt><trkpt lat="36.0317625522053" lon="-107.03087339200913"><ele>2195.2</ele><time>2026-05-03T16:03:03Z</time></trkpt><trkpt lat="36.031781175876894" lon="-107.03074779558845"><ele>2195.6</ele><time>2026-05-03T16:03:04Z</time></trkpt><trkpt lat="36.031762636444746" lon="-107.03065296271865"><ele>2196.0</ele><time>2026-05-03T16:03:05Z</time></trkpt><trkpt lat="36.03169278067953" lon="-107.03052169929612"><ele>2195.25</ele><time>2026-05-03T16:03:06Z</time></trkpt><trkpt lat="36.0315940049466" lon="-107.03037555938357"><ele>2194.5</ele><time>2026-05-03T16:03:07Z</time></trkpt><trkpt lat="36.03151647954505" lon="-107.03023883468347"><ele>2193.75</ele><time>2026-05-03T16:03:08Z</time></trkpt><trkpt lat="36.0314229907486" lon="-107.0301311730663"><ele>2193.0</ele><time>2026-05-03T16:03:09Z</time></trkpt><trkpt lat="36.0312900705029" lon="-107.0300693492301"><ele>2193.0</ele><time>2026-05-03T16:03:10Z</time></trkpt><trkpt lat="36.03115737986656" lon="-107.0300310765904"><ele>2193.0</ele><time>2026-05-03T16:03:11Z</time></trkpt><trkpt lat="36.03101613428205" lon="-107.0299639093107"><ele>2193.0</ele><time>2026-05-03T16:03:12Z</time></trkpt><trkpt lat="36.03087527181436" lon="-107.02994623471078"><ele>2193.0</ele><time>2026-05-03T16:03:13Z</time></trkpt><trkpt lat="36.03070583828189" lon="-107.02993678279644"><ele>2191.25</ele><time>2026-05-03T16:03:14Z</time></trkpt><trkpt lat="36.03053285692412" lon="-107.02990155313068"><ele>2189.5</ele><time>2026-05-03T16:03:15Z</time></trkpt><trkpt lat="36.03039384913513" lon="-107.02990449353315"><ele>2187.75</ele><time>2026-05-03T16:03:16Z</time></trkpt><trkpt lat="36.03027959813228" lon="-107.02992810562931"><ele>2186.0</ele><time>2026-05-03T16:03:17Z</time></trkpt><trkpt lat="36.03015082073329" lon="-107.02989998097168"><ele>2186.0</ele><time>2026-05-03T16:03:18Z</time></trkpt><trkpt lat="36.030018025593506" lon="-107.0298707482997"><ele>2186.0</ele><time>2026-05-03T16:03:19Z</time></trkpt><trkpt lat="36.029899140364805" lon="-107.02980778640696"><ele>2186.0</ele><time>2026-05-03T16:03:20Z</time></trkpt><trkpt lat="36.02976823242423" lon="-107.02973945953956"><ele>2186.0</ele><time>2026-05-03T16:03:21Z</time></trkpt><trkpt lat="36.02962898852014" lon="-107.02966938270727"><ele>2187.6666666666665</ele><time>2026-05-03T16:03:22Z</time></trkpt><trkpt lat="36.02949661360547" lon="-107.0296341148304"><ele>2189.3333333333335</ele><time>2026-05-03T16:03:23Z</time></trkpt><trkpt lat="36.02932719205824" lon="-107.02960053472248"><ele>2191.0</ele><time>2026-05-03T16:03:24Z</time></trkpt><trkpt lat="36.0291927972595" lon="-107.02953034959745"><ele>2193.0</ele><time>2026-05-03T16:03:25Z</time></trkpt><trkpt lat="36.029042579046404" lon="-107.02946732403822"><ele>2195.0</ele><time>2026-05-03T16:03:26Z</time></trkpt><trkpt lat="36.02889771774049" lon="-107.02942511778905"><ele>2197.0</ele><time>2026-05-03T16:03:27Z</time></trkpt><trkpt lat="36.028741567012695" lon="-107.02940471883717"><ele>2197.0</ele><time>2026-05-03T16:03:28Z</time></trkpt><trkpt lat="36.02862260345053" lon="-107.02935078313992"><ele>2197.0</ele><time>2026-05-03T16:03:29Z</time></trkpt><trkpt lat="36.02851678871286" lon="-107.02930285091706"><ele>2197.0</ele><time>2026-05-03T16:03:30Z</time></trkpt><trkpt lat="36.02841846082827" lon="-107.02925950234645"><ele>2197.0</ele><time>2026-05-03T16:03:31Z</time></trkpt><trkpt lat="36.02834372669017" lon="-107.02920392675856"><ele>2197.0</ele><time>2026-05-03T16:03:32Z</time></trkpt><trkpt lat="36.028271725506336" lon="-107.02921962684091"><ele>2197.25</ele><time>2026-05-03T16:03:33Z</time></trkpt><trkpt lat="36.028173348379056" lon="-107.02923280329931"><ele>2197.5</ele><time>2026-05-03T16:03:34Z</time></trkpt><trkpt lat="36.02801043007427" lon="-107.02933551243704"><ele>2197.75</ele><time>2026-05-03T16:03:35Z</time></trkpt><trkpt lat="36.027869700021405" lon="-107.02936926530461"><ele>2198.0</ele><time>2026-05-03T16:03:36Z</time></trkpt><trkpt lat="36.02774659402052" lon="-107.0293887691823"><ele>2198.0</ele><time>2026-05-03T16:03:37Z</time></trkpt><trkpt lat="36.02760431565985" lon="-107.02942267650013"><ele>2198.0</ele><time>2026-05-03T16:03:38Z</time></trkpt><trkpt lat="36.02751021346815" lon="-107.02948494801501"><ele>2198.0</ele><time>2026-05-03T16:03:39Z</time></trkpt><trkpt lat="36.02735579388281" lon="-107.0294316277236"><ele>2198.0</ele><time>2026-05-03T16:03:41Z</time></trkpt><trkpt lat="36.02726011596332" lon="-107.02939901505842"><ele>2198.2000000000003</ele><time>2026-05-03T16:03:42Z</time></trkpt><trkpt lat="36.027186833401856" lon="-107.02936445524003"><ele>2198.4</ele><time>2026-05-03T16:03:43Z</time></trkpt><trkpt lat="36.02711297374583" lon="-107.02933527567357"><ele>2198.6000000000004</ele><time>2026-05-03T16:03:44Z</time></trkpt><trkpt lat="36.027028345059456" lon="-107.02934909385885"><ele>2198.8</ele><time>2026-05-03T16:03:45Z</time></trkpt><trkpt lat="36.026924806828845" lon="-107.02933429764157"><ele>2199.0</ele><time>2026-05-03T16:03:46Z</time></trkpt><trkpt lat="36.02679929914643" lon="-107.0293467580216"><ele>2199.0</ele><time>2026-05-03T16:03:47Z</time></trkpt><trkpt lat="36.02666758078567" lon="-107.02932727715111"><ele>2199.0</ele><time>2026-05-03T16:03:48Z</time></trkpt><trkpt lat="36.02651532331626" lon="-107.02933733240712"><ele>2199.0</ele><time>2026-05-03T16:03:49Z</time></trkpt><trkpt lat="36.02638817722624" lon="-107.02937114801792"><ele>2199.0</ele><time>2026-05-03T16:03:50Z</time></trkpt><trkpt lat="36.026263020242276" lon="-107.0293771394114"><ele>2198.2</ele><time>2026-05-03T16:03:51Z</time></trkpt><trkpt lat="36.02619430157992" lon="-107.02931217475927"><ele>2197.4</ele><time>2026-05-03T16:03:52Z</time></trkpt><trkpt lat="36.026144518521846" lon="-107.02922658998813"><ele>2196.6</ele><time>2026-05-03T16:03:53Z</time></trkpt><trkpt lat="36.02609155206943" lon="-107.02912204237414"><ele>2195.8</ele><time>2026-05-03T16:03:54Z</time></trkpt><trkpt lat="36.026011924919935" lon="-107.0289923105339"><ele>2195.0</ele><time>2026-05-03T16:03:55Z</time></trkpt><trkpt lat="36.02595237790206" lon="-107.02889603975062"><ele>2193.2</ele><time>2026-05-03T16:03:56Z</time></trkpt><trkpt lat="36.02587335623415" lon="-107.0288229704772"><ele>2191.4</ele><time>2026-05-03T16:03:57Z</time></trkpt><trkpt lat="36.025784152996394" lon="-107.02873817285841"><ele>2189.6</ele><time>2026-05-03T16:03:58Z</time></trkpt><trkpt lat="36.02572139421294" lon="-107.02869054885723"><ele>2187.8</ele><time>2026-05-03T16:03:59Z</time></trkpt><trkpt lat="36.02564249546599" lon="-107.0286912993332"><ele>2186.0</ele><time>2026-05-03T16:04:00Z</time></trkpt><trkpt lat="36.02555059019478" lon="-107.02877814969315"><ele>2186.25</ele><time>2026-05-03T16:04:01Z</time></trkpt><trkpt lat="36.025463580952" lon="-107.02889927009436"><ele>2186.5</ele><time>2026-05-03T16:04:02Z</time></trkpt><trkpt lat="36.025374397462336" lon="-107.02906459424929"><ele>2186.75</ele><time>2026-05-03T16:04:03Z</time></trkpt><trkpt lat="36.025305168239484" lon="-107.02919403107754"><ele>2187.0</ele><time>2026-05-03T16:04:04Z</time></trkpt><trkpt lat="36.02523614117704" lon="-107.02927775750454"><ele>2187.0</ele><time>2026-05-03T16:04:05Z</time></trkpt><trkpt lat="36.02516192518511" lon="-107.02933737267752"><ele>2187.0</ele><time>2026-05-03T16:04:06Z</time></trkpt><trkpt lat="36.02508055871955" lon="-107.02936622613105"><ele>2187.0</ele><time>2026-05-03T16:04:07Z</time></trkpt><trkpt lat="36.025012189265595" lon="-107.02938719472225"><ele>2187.0</ele><time>2026-05-03T16:04:08Z</time></trkpt><trkpt lat="36.02490578104877" lon="-107.02938695686487"><ele>2187.0</ele><time>2026-05-03T16:04:09Z</time></trkpt><trkpt lat="36.02477462346383" lon="-107.0293909186485"><ele>2186.0</ele><time>2026-05-03T16:04:10Z</time></trkpt><trkpt lat="36.02467599943371" lon="-107.0293503415073"><ele>2185.0</ele><time>2026-05-03T16:04:11Z</time></trkpt><trkpt lat="36.024596313348745" lon="-107.02931730591227"><ele>2184.0</ele><time>2026-05-03T16:04:12Z</time></trkpt><trkpt lat="36.02450150930838" lon="-107.02915908951587"><ele>2183.0</ele><time>2026-05-03T16:04:14Z</time></trkpt><trkpt lat="36.024504574260234" lon="-107.02907501262622"><ele>2182.0</ele><time>2026-05-03T16:04:16Z</time></trkpt><trkpt lat="36.02457987404228" lon="-107.02903883665108"><ele>2181.7999999999997</ele><time>2026-05-03T16:04:17Z</time></trkpt><trkpt lat="36.024691075510766" lon="-107.02898422441216"><ele>2181.6</ele><time>2026-05-03T16:04:18Z</time></trkpt><trkpt lat="36.02481037438079" lon="-107.02893396153873"><ele>2181.3999999999996</ele><time>2026-05-03T16:04:19Z</time></trkpt><trkpt lat="36.02491510868432" lon="-107.02889190401618"><ele>2181.2</ele><time>2026-05-03T16:04:20Z</time></trkpt><trkpt lat="36.024974954702216" lon="-107.02882941254401"><ele>2181.0</ele><time>2026-05-03T16:04:21Z</time></trkpt><trkpt lat="36.02502437549644" lon="-107.02871789751951"><ele>2181.0</ele><time>2026-05-03T16:04:22Z</time></trkpt><trkpt lat="36.02504406476848" lon="-107.02856780053293"><ele>2181.0</ele><time>2026-05-03T16:04:23Z</time></trkpt><trkpt lat="36.02508931528918" lon="-107.02840898651851"><ele>2181.0</ele><time>2026-05-03T16:04:24Z</time></trkpt><trkpt lat="36.025152067982496" lon="-107.0283060722276"><ele>2181.0</ele><time>2026-05-03T16:04:25Z</time></trkpt><trkpt lat="36.02518562929985" lon="-107.02823855734431"><ele>2181.0</ele><time>2026-05-03T16:04:26Z</time></trkpt><trkpt lat="36.02530891107212" lon="-107.028233600964"><ele>2179.25</ele><time>2026-05-03T16:04:28Z</time></trkpt><trkpt lat="36.02541349624452" lon="-107.02826070175946"><ele>2177.5</ele><time>2026-05-03T16:04:29Z</time></trkpt><trkpt lat="36.025512138085254" lon="-107.02822141377554"><ele>2175.75</ele><time>2026-05-03T16:04:30Z</time></trkpt><trkpt lat="36.02563858890433" lon="-107.02818861249528"><ele>2174.0</ele><time>2026-05-03T16:04:31Z</time></trkpt><trkpt lat="36.02578933063754" lon="-107.02817901615258"><ele>2174.4</ele><time>2026-05-03T16:04:32Z</time></trkpt><trkpt lat="36.02591118265305" lon="-107.02819435445136"><ele>2174.8</ele><time>2026-05-03T16:04:33Z</time></trkpt><trkpt lat="36.0260205817732" lon="-107.02820023274019"><ele>2175.2</ele><time>2026-05-03T16:04:34Z</time></trkpt><trkpt lat="36.02610182294583" lon="-107.02819824716146"><ele>2175.6</ele><time>2026-05-03T16:04:35Z</time></trkpt><trkpt lat="36.026168042524205" lon="-107.02820925940681"><ele>2176.0</ele><time>2026-05-03T16:04:36Z</time></trkpt><trkpt lat="36.02619897866818" lon="-107.02811118803663"><ele>2176.0</ele><time>2026-05-03T16:04:38Z</time></trkpt><trkpt lat="36.02619633075751" lon="-107.02798478410025"><ele>2176.0</ele><time>2026-05-03T16:04:39Z</time></trkpt><trkpt lat="36.02624956469565" lon="-107.0278759840465"><ele>2176.0</ele><time>2026-05-03T16:04:40Z</time></trkpt><trkpt lat="36.02626802726422" lon="-107.02779616813508"><ele>2176.0</ele><time>2026-05-03T16:04:41Z</time></trkpt><trkpt lat="36.02630031298743" lon="-107.0277203863938"><ele>2176.0</ele><time>2026-05-03T16:04:42Z</time></trkpt><trkpt lat="36.02632459279731" lon="-107.02764773326889"><ele>2176.0</ele><time>2026-05-03T16:04:43Z</time></trkpt><trkpt lat="36.02627191727483" lon="-107.02752091274515"><ele>2173.4</ele><time>2026-05-03T16:04:45Z</time></trkpt><trkpt lat="36.02613540344955" lon="-107.02747178450787"><ele>2170.8</ele><time>2026-05-03T16:04:47Z</time></trkpt><trkpt lat="36.026045546917075" lon="-107.02741237768329"><ele>2168.2000000000003</ele><time>2026-05-03T16:04:48Z</time></trkpt><trkpt lat="36.02598712457947" lon="-107.02733552401062"><ele>2165.6</ele><time>2026-05-03T16:04:49Z</time></trkpt><trkpt lat="36.025950983791255" lon="-107.02723402756286"><ele>2163.0</ele><time>2026-05-03T16:04:50Z</time></trkpt><trkpt lat="36.02589068694181" lon="-107.02715850925347"><ele>2162.6666666666665</ele><time>2026-05-03T16:04:51Z</time></trkpt><trkpt lat="36.02580109052493" lon="-107.02707685192208"><ele>2162.3333333333335</ele><time>2026-05-03T16:04:53Z</time></trkpt><trkpt lat="36.02576434258641" lon="-107.02700029260116"><ele>2162.0</ele><time>2026-05-03T16:05:04Z</time></trkpt><trkpt lat="36.02574087007322" lon="-107.02692600651278"><ele>2161.666666666667</ele><time>2026-05-03T16:05:07Z</time></trkpt><trkpt lat="36.025704794003296" lon="-107.02679010456959"><ele>2161.3333333333335</ele><time>2026-05-03T16:05:12Z</time></trkpt><trkpt lat="36.02565152735475" lon="-107.0267486038683"><ele>2161.0</ele><time>2026-05-03T16:05:13Z</time></trkpt><trkpt lat="36.0255592340511" lon="-107.02676920537054"><ele>2161.0</ele><time>2026-05-03T16:05:15Z</time></trkpt><trkpt lat="36.02544952840923" lon="-107.02679468561612"><ele>2161.0</ele><time>2026-05-03T16:05:16Z</time></trkpt><trkpt lat="36.025378256746095" lon="-107.02680392772952"><ele>2161.0</ele><time>2026-05-03T16:05:17Z</time></trkpt><trkpt lat="36.025288376343724" lon="-107.02676927870178"><ele>2161.0</ele><time>2026-05-03T16:05:18Z</time></trkpt><trkpt lat="36.025208705615476" lon="-107.02676111654412"><ele>2161.0</ele><time>2026-05-03T16:05:19Z</time></trkpt><trkpt lat="36.02511742032172" lon="-107.02675298712951"><ele>2161.0</ele><time>2026-05-03T16:05:20Z</time></trkpt><trkpt lat="36.025040083509815" lon="-107.02673556162291"><ele>2160.4</ele><time>2026-05-03T16:05:21Z</time></trkpt><trkpt lat="36.0249617435192" lon="-107.02675954461722"><ele>2159.8</ele><time>2026-05-03T16:05:22Z</time></trkpt><trkpt lat="36.02488621443303" lon="-107.02681144045007"><ele>2159.2000000000003</ele><time>2026-05-03T16:05:23Z</time></trkpt><trkpt lat="36.0247664719643" lon="-107.02685434794306"><ele>2158.6</ele><time>2026-05-03T16:05:24Z</time></trkpt><trkpt lat="36.02466603606057" lon="-107.02688360057216"><ele>2158.0</ele><time>2026-05-03T16:05:25Z</time></trkpt><trkpt lat="36.02458361051761" lon="-107.02692747265353"><ele>2158.0</ele><time>2026-05-03T16:05:26Z</time></trkpt><trkpt lat="36.02451634035594" lon="-107.02700685484835"><ele>2158.0</ele><time>2026-05-03T16:05:27Z</time></trkpt><trkpt lat="36.0244622928339" lon="-107.02708275234198"><ele>2158.0</ele><time>2026-05-03T16:05:28Z</time></trkpt><trkpt lat="36.024428868848624" lon="-107.02714958068904"><ele>2158.0</ele><time>2026-05-03T16:05:29Z</time></trkpt><trkpt lat="36.024276751842" lon="-107.02719458776389"><ele>2158.0</ele><time>2026-05-03T16:05:31Z</time></trkpt><trkpt lat="36.0241646982434" lon="-107.02722195210792"><ele>2158.0</ele><time>2026-05-03T16:05:32Z</time></trkpt><trkpt lat="36.02405631815468" lon="-107.0272220346504"><ele>2158.0</ele><time>2026-05-03T16:05:33Z</time></trkpt><trkpt lat="36.02393477487104" lon="-107.02725248315994"><ele>2158.0</ele><time>2026-05-03T16:05:34Z</time></trkpt><trkpt lat="36.023802405342025" lon="-107.0272859475475"><ele>2158.0</ele><time>2026-05-03T16:05:35Z</time></trkpt><trkpt lat="36.02369606343394" lon="-107.02732129356322"><ele>2158.0</ele><time>2026-05-03T16:05:36Z</time></trkpt><trkpt lat="36.02362848396623" lon="-107.02735021907073"><ele>2158.0</ele><time>2026-05-03T16:05:37Z</time></trkpt><trkpt lat="36.0235561528288" lon="-107.02739837902539"><ele>2158.0</ele><time>2026-05-03T16:05:38Z</time></trkpt><trkpt lat="36.02347398206166" lon="-107.02746413830101"><ele>2158.0</ele><time>2026-05-03T16:05:39Z</time></trkpt><trkpt lat="36.02337759793313" lon="-107.02753827292719"><ele>2158.0</ele><time>2026-05-03T16:05:40Z</time></trkpt><trkpt lat="36.0232688538743" lon="-107.02762378014565"><ele>2158.0</ele><time>2026-05-03T16:05:41Z</time></trkpt><trkpt lat="36.023161728319955" lon="-107.02772538533243"><ele>2158.0</ele><time>2026-05-03T16:05:42Z</time></trkpt><trkpt lat="36.023044465095765" lon="-107.02782554232019"><ele>2158.0</ele><time>2026-05-03T16:05:43Z</time></trkpt><trkpt lat="36.02293316909834" lon="-107.02792749927673"><ele>2158.0</ele><time>2026-05-03T16:05:44Z</time></trkpt><trkpt lat="36.02281335232337" lon="-107.02804001882355"><ele>2158.0</ele><time>2026-05-03T16:05:45Z</time></trkpt><trkpt lat="36.02270139671405" lon="-107.02809480695288"><ele>2158.0</ele><time>2026-05-03T16:05:46Z</time></trkpt><trkpt lat="36.022570301825596" lon="-107.02813644028299"><ele>2158.0</ele><time>2026-05-03T16:05:47Z</time></trkpt><trkpt lat="36.02242955293335" lon="-107.0281752067882"><ele>2158.0</ele><time>2026-05-03T16:05:48Z</time></trkpt><trkpt lat="36.022285181219885" lon="-107.02820841595181"><ele>2158.3333333333335</ele><time>2026-05-03T16:05:49Z</time></trkpt><trkpt lat="36.02214841773381" lon="-107.0282401134603"><ele>2158.6666666666665</ele><time>2026-05-03T16:05:50Z</time></trkpt><trkpt lat="36.02199949327677" lon="-107.0282850115331"><ele>2159.0</ele><time>2026-05-03T16:05:51Z</time></trkpt><trkpt lat="36.02184095045933" lon="-107.02831770415098"><ele>2157.333333333333</ele><time>2026-05-03T16:05:52Z</time></trkpt><trkpt lat="36.02166570525328" lon="-107.02835646324442"><ele>2155.6666666666665</ele><time>2026-05-03T16:05:53Z</time></trkpt><trkpt lat="36.02147570194656" lon="-107.0284112226701"><ele>2154.0</ele><time>2026-05-03T16:05:54Z</time></trkpt><trkpt lat="36.02128302836723" lon="-107.02846050215744"><ele>2153.0</ele><time>2026-05-03T16:05:55Z</time></trkpt><trkpt lat="36.02107264919759" lon="-107.02850760204429"><ele>2152.0</ele><time>2026-05-03T16:05:56Z</time></trkpt><trkpt lat="36.02089257957348" lon="-107.02852903625008"><ele>2151.0</ele><time>2026-05-03T16:05:57Z</time></trkpt><trkpt lat="36.02077694848635" lon="-107.02855021684343"><ele>2150.6</ele><time>2026-05-03T16:05:58Z</time></trkpt><trkpt lat="36.02069407387471" lon="-107.02857605190081"><ele>2150.2</ele><time>2026-05-03T16:05:59Z</time></trkpt><trkpt lat="36.02063196873704" lon="-107.0286055706427"><ele>2149.8</ele><time>2026-05-03T16:06:00Z</time></trkpt><trkpt lat="36.02056054034793" lon="-107.02866338352972"><ele>2149.4</ele><time>2026-05-03T16:06:01Z</time></trkpt><trkpt lat="36.0204787254239" lon="-107.02872066020346"><ele>2149.0</ele><time>2026-05-03T16:06:02Z</time></trkpt><trkpt lat="36.02037745496199" lon="-107.0288487501224"><ele>2149.0</ele><time>2026-05-03T16:06:03Z</time></trkpt><trkpt lat="36.02029623180854" lon="-107.02900848519982"><ele>2149.0</ele><time>2026-05-03T16:06:04Z</time></trkpt><trkpt lat="36.02020016932286" lon="-107.02909353107142"><ele>2149.0</ele><time>2026-05-03T16:06:05Z</time></trkpt><trkpt lat="36.02012688248727" lon="-107.0291690683015"><ele>2149.0</ele><time>2026-05-03T16:06:06Z</time></trkpt><trkpt lat="36.02007517063623" lon="-107.02921800818632"><ele>2149.0</ele><time>2026-05-03T16:06:07Z</time></trkpt><trkpt lat="36.01999908212131" lon="-107.02930794284077"><ele>2149.25</ele><time>2026-05-03T16:06:08Z</time></trkpt><trkpt lat="36.0198832637521" lon="-107.0294239375684"><ele>2149.5</ele><time>2026-05-03T16:06:09Z</time></trkpt><trkpt lat="36.01978764429531" lon="-107.02950283967634"><ele>2149.75</ele><time>2026-05-03T16:06:10Z</time></trkpt><trkpt lat="36.019704233691364" lon="-107.02956760556069"><ele>2150.0</ele><time>2026-05-03T16:06:11Z</time></trkpt><trkpt lat="36.019608527979116" lon="-107.0296068271379"><ele>2150.0</ele><time>2026-05-03T16:06:12Z</time></trkpt><trkpt lat="36.019507805259344" lon="-107.02961350303117"><ele>2150.0</ele><time>2026-05-03T16:06:13Z</time></trkpt><trkpt lat="36.019428506935974" lon="-107.0296378956984"><ele>2150.0</ele><time>2026-05-03T16:06:14Z</time></trkpt><trkpt lat="36.01937470339251" lon="-107.02969446205088"><ele>2150.0</ele><time>2026-05-03T16:06:15Z</time></trkpt><trkpt lat="36.01927764769407" lon="-107.02983725939582"><ele>2150.0</ele><time>2026-05-03T16:06:16Z</time></trkpt><trkpt lat="36.01919121614438" lon="-107.02989270723765"><ele>2149.25</ele><time>2026-05-03T16:06:17Z</time></trkpt><trkpt lat="36.01906968715496" lon="-107.02993442720006"><ele>2148.5</ele><time>2026-05-03T16:06:19Z</time></trkpt><trkpt lat="36.0189310750658" lon="-107.02990577520211"><ele>2147.75</ele><time>2026-05-03T16:06:21Z</time></trkpt><trkpt lat="36.01879845298932" lon="-107.02986954662276"><ele>2147.0</ele><time>2026-05-03T16:06:22Z</time></trkpt><trkpt lat="36.018690551283676" lon="-107.0298175918032"><ele>2147.0</ele><time>2026-05-03T16:06:23Z</time></trkpt><trkpt lat="36.01860680283564" lon="-107.0298317820142"><ele>2147.0</ele><time>2026-05-03T16:06:24Z</time></trkpt><trkpt lat="36.018520750485656" lon="-107.02986356370859"><ele>2147.0</ele><time>2026-05-03T16:06:25Z</time></trkpt><trkpt lat="36.018364578313914" lon="-107.0298879371217"><ele>2147.0</ele><time>2026-05-03T16:06:27Z</time></trkpt><trkpt lat="36.01825743825145" lon="-107.02991366713378"><ele>2147.0</ele><time>2026-05-03T16:06:28Z</time></trkpt><trkpt lat="36.01817454744241" lon="-107.02990117390215"><ele>2146.25</ele><time>2026-05-03T16:06:29Z</time></trkpt><trkpt lat="36.01809435567482" lon="-107.02984946116712"><ele>2145.5</ele><time>2026-05-03T16:06:30Z</time></trkpt><trkpt lat="36.01797313913088" lon="-107.02983520299057"><ele>2144.75</ele><time>2026-05-03T16:06:31Z</time></trkpt><trkpt lat="36.01786560175947" lon="-107.02990231382678"><ele>2144.0</ele><time>2026-05-03T16:06:32Z</time></trkpt><trkpt lat="36.01772029318293" lon="-107.02989369642867"><ele>2144.0</ele><time>2026-05-03T16:06:34Z</time></trkpt><trkpt lat="36.01761774694911" lon="-107.02982307320696"><ele>2144.0</ele><time>2026-05-03T16:06:35Z</time></trkpt><trkpt lat="36.01753782843858" lon="-107.02972600212726"><ele>2144.0</ele><time>2026-05-03T16:06:36Z</time></trkpt><trkpt lat="36.01751971856308" lon="-107.02961419495256"><ele>2144.0</ele><time>2026-05-03T16:06:37Z</time></trkpt><trkpt lat="36.017539809977976" lon="-107.02945185985082"><ele>2144.0</ele><time>2026-05-03T16:06:39Z</time></trkpt><trkpt lat="36.01750295242276" lon="-107.02937151472356"><ele>2144.0</ele><time>2026-05-03T16:06:40Z</time></trkpt><trkpt lat="36.01738674681816" lon="-107.02933340738169"><ele>2144.0</ele><time>2026-05-03T16:06:41Z</time></trkpt><trkpt lat="36.01726065475936" lon="-107.02931798880368"><ele>2144.0</ele><time>2026-05-03T16:06:42Z</time></trkpt><trkpt lat="36.01714464133815" lon="-107.0293471535988"><ele>2144.0</ele><time>2026-05-03T16:06:43Z</time></trkpt><trkpt lat="36.01706421916684" lon="-107.02946156849058"><ele>2144.25</ele><time>2026-05-03T16:06:44Z</time></trkpt><trkpt lat="36.01697852610774" lon="-107.02957914993841"><ele>2144.5</ele><time>2026-05-03T16:06:45Z</time></trkpt><trkpt lat="36.01689911262194" lon="-107.0297186997185"><ele>2144.75</ele><time>2026-05-03T16:06:46Z</time></trkpt><trkpt lat="36.01683222830058" lon="-107.02988070443492"><ele>2145.0</ele><time>2026-05-03T16:06:47Z</time></trkpt><trkpt lat="36.01673859047072" lon="-107.03001799831146"><ele>2144.6</ele><time>2026-05-03T16:06:48Z</time></trkpt><trkpt lat="36.016649008819044" lon="-107.03012056874898"><ele>2144.2</ele><time>2026-05-03T16:06:49Z</time></trkpt><trkpt lat="36.016577884616865" lon="-107.03019256300634"><ele>2143.8</ele><time>2026-05-03T16:06:50Z</time></trkpt><trkpt lat="36.01651725142189" lon="-107.0302381107087"><ele>2143.4</ele><time>2026-05-03T16:06:51Z</time></trkpt><trkpt lat="36.01640321883222" lon="-107.03017536405414"><ele>2143.0</ele><time>2026-05-03T16:06:53Z</time></trkpt><trkpt lat="36.016344768288015" lon="-107.03007459933977"><ele>2143.0</ele><time>2026-05-03T16:06:54Z</time></trkpt><trkpt lat="36.01626872543938" lon="-107.03000220666179"><ele>2143.0</ele><time>2026-05-03T16:06:55Z</time></trkpt><trkpt lat="36.01615069260953" lon="-107.0299604109101"><ele>2143.0</ele><time>2026-05-03T16:06:56Z</time></trkpt><trkpt lat="36.01600117108209" lon="-107.02990928761145"><ele>2143.0</ele><time>2026-05-03T16:06:57Z</time></trkpt><trkpt lat="36.01583599743098" lon="-107.02989121032722"><ele>2142.5</ele><time>2026-05-03T16:06:58Z</time></trkpt><trkpt lat="36.0156659479189" lon="-107.02988307765453"><ele>2142.0</ele><time>2026-05-03T16:06:59Z</time></trkpt><trkpt lat="36.01550076389335" lon="-107.02987060183106"><ele>2141.5</ele><time>2026-05-03T16:07:00Z</time></trkpt><trkpt lat="36.01541236468646" lon="-107.02985320602204"><ele>2141.0</ele><time>2026-05-03T16:07:01Z</time></trkpt><trkpt lat="36.01533147866201" lon="-107.02980374570042"><ele>2141.0</ele><time>2026-05-03T16:07:02Z</time></trkpt><trkpt lat="36.01527656221012" lon="-107.02969861680278"><ele>2141.0</ele><time>2026-05-03T16:07:03Z</time></trkpt><trkpt lat="36.01522488490147" lon="-107.02954024731781"><ele>2141.0</ele><time>2026-05-03T16:07:04Z</time></trkpt><trkpt lat="36.01517827736586" lon="-107.0293643832506"><ele>2141.0</ele><time>2026-05-03T16:07:05Z</time></trkpt><trkpt lat="36.01511864697903" lon="-107.0292357191015"><ele>2141.5</ele><time>2026-05-03T16:07:06Z</time></trkpt><trkpt lat="36.01505711611017" lon="-107.02912943733898"><ele>2142.0</ele><time>2026-05-03T16:07:07Z</time></trkpt><trkpt lat="36.01496973605086" lon="-107.0290602798056"><ele>2142.5</ele><time>2026-05-03T16:07:08Z</time></trkpt><trkpt lat="36.014837174688346" lon="-107.0290072475222"><ele>2143.0</ele><time>2026-05-03T16:07:09Z</time></trkpt><trkpt lat="36.014726307260275" lon="-107.02895946251596"><ele>2143.0</ele><time>2026-05-03T16:07:10Z</time></trkpt><trkpt lat="36.01463096493391" lon="-107.02898571195888"><ele>2143.0</ele><time>2026-05-03T16:07:11Z</time></trkpt><trkpt lat="36.014510519148466" lon="-107.0290478514185"><ele>2143.0</ele><time>2026-05-03T16:07:12Z</time></trkpt><trkpt lat="36.01438231672484" lon="-107.02914320204256"><ele>2143.0</ele><time>2026-05-03T16:07:13Z</time></trkpt><trkpt lat="36.014287417438055" lon="-107.02925737572832"><ele>2142.0</ele><time>2026-05-03T16:07:14Z</time></trkpt><trkpt lat="36.01420000731036" lon="-107.029418596338"><ele>2141.0</ele><time>2026-05-03T16:07:15Z</time></trkpt><trkpt lat="36.014169593108114" lon="-107.02958312534793"><ele>2140.0</ele><time>2026-05-03T16:07:16Z</time></trkpt><trkpt lat="36.014193812911195" lon="-107.02973409237009"><ele>2139.0</ele><time>2026-05-03T16:07:17Z</time></trkpt><trkpt lat="36.01419144730677" lon="-107.02985093605233"><ele>2139.0</ele><time>2026-05-03T16:07:18Z</time></trkpt><trkpt lat="36.01416918718207" lon="-107.02998598599419"><ele>2139.0</ele><time>2026-05-03T16:07:19Z</time></trkpt><trkpt lat="36.01410113476245" lon="-107.03006502488581"><ele>2139.0</ele><time>2026-05-03T16:07:20Z</time></trkpt><trkpt lat="36.01397465743414" lon="-107.03011705920218"><ele>2139.0</ele><time>2026-05-03T16:07:21Z</time></trkpt><trkpt lat="36.01383669257945" lon="-107.03013454202495"><ele>2139.0</ele><time>2026-05-03T16:07:22Z</time></trkpt><trkpt lat="36.01371046615254" lon="-107.03011950502353"><ele>2139.0</ele><time>2026-05-03T16:07:23Z</time></trkpt><trkpt lat="36.01357997703999" lon="-107.0300756690468"><ele>2139.0</ele><time>2026-05-03T16:07:24Z</time></trkpt><trkpt lat="36.013477684178156" lon="-107.02995397771895"><ele>2139.0</ele><time>2026-05-03T16:07:25Z</time></trkpt><trkpt lat="36.013405624786344" lon="-107.029806036347"><ele>2139.0</ele><time>2026-05-03T16:07:26Z</time></trkpt><trkpt lat="36.013326201311344" lon="-107.02965946427393"><ele>2139.0</ele><time>2026-05-03T16:07:27Z</time></trkpt><trkpt lat="36.01325471172068" lon="-107.0295358931163"><ele>2139.0</ele><time>2026-05-03T16:07:28Z</time></trkpt><trkpt lat="36.01318445347019" lon="-107.02947922584376"><ele>2139.0</ele><time>2026-05-03T16:07:29Z</time></trkpt><trkpt lat="36.01311858006638" lon="-107.02948011531713"><ele>2139.0</ele><time>2026-05-03T16:07:30Z</time></trkpt><trkpt lat="36.01301689130814" lon="-107.02948636052358"><ele>2139.0</ele><time>2026-05-03T16:07:31Z</time></trkpt><trkpt lat="36.01289040963226" lon="-107.02956770275082"><ele>2139.0</ele><time>2026-05-03T16:07:32Z</time></trkpt><trkpt lat="36.012784963155234" lon="-107.02968711485903"><ele>2139.0</ele><time>2026-05-03T16:07:33Z</time></trkpt><trkpt lat="36.012681759680696" lon="-107.02979730110611"><ele>2139.0</ele><time>2026-05-03T16:07:34Z</time></trkpt><trkpt lat="36.012558419248954" lon="-107.02982620774846"><ele>2139.0</ele><time>2026-05-03T16:07:35Z</time></trkpt><trkpt lat="36.01245721285887" lon="-107.02979375892106"><ele>2139.0</ele><time>2026-05-03T16:07:36Z</time></trkpt><trkpt lat="36.0123455104021" lon="-107.02974756085226"><ele>2139.0</ele><time>2026-05-03T16:07:37Z</time></trkpt><trkpt lat="36.01219961443142" lon="-107.02969683122156"><ele>2139.0</ele><time>2026-05-03T16:07:38Z</time></trkpt><trkpt lat="36.01205003598273" lon="-107.02964230610455"><ele>2139.0</ele><time>2026-05-03T16:07:39Z</time></trkpt><trkpt lat="36.011900084484466" lon="-107.02961876059722"><ele>2139.0</ele><time>2026-05-03T16:07:40Z</time></trkpt><trkpt lat="36.01173986000205" lon="-107.02963300034976"><ele>2139.0</ele><time>2026-05-03T16:07:41Z</time></trkpt><trkpt lat="36.01157855276766" lon="-107.02966891579607"><ele>2138.6666666666665</ele><time>2026-05-03T16:07:42Z</time></trkpt><trkpt lat="36.01141950116638" lon="-107.02974114611189"><ele>2138.333333333333</ele><time>2026-05-03T16:07:43Z</time></trkpt><trkpt lat="36.01125338127902" lon="-107.02984409157429"><ele>2138.0</ele><time>2026-05-03T16:07:44Z</time></trkpt><trkpt lat="36.01109853324209" lon="-107.02997447105493"><ele>2137.333333333333</ele><time>2026-05-03T16:07:45Z</time></trkpt><trkpt lat="36.01093709049281" lon="-107.03011192906062"><ele>2136.6666666666665</ele><time>2026-05-03T16:07:46Z</time></trkpt><trkpt lat="36.010805268593884" lon="-107.03029501090849"><ele>2136.0</ele><time>2026-05-03T16:07:47Z</time></trkpt><trkpt lat="36.010697989711836" lon="-107.03049826585412"><ele>2136.0</ele><time>2026-05-03T16:07:48Z</time></trkpt><trkpt lat="36.01062476061878" lon="-107.03073260603041"><ele>2136.0</ele><time>2026-05-03T16:07:49Z</time></trkpt><trkpt lat="36.01057352956139" lon="-107.03099963666425"><ele>2136.0</ele><time>2026-05-03T16:07:50Z</time></trkpt><trkpt lat="36.01050938610403" lon="-107.03125613340929"><ele>2135.25</ele><time>2026-05-03T16:07:51Z</time></trkpt><trkpt lat="36.01043040173248" lon="-107.03146144247093"><ele>2134.5</ele><time>2026-05-03T16:07:52Z</time></trkpt><trkpt lat="36.01035424318104" lon="-107.03159865175404"><ele>2133.75</ele><time>2026-05-03T16:07:53Z</time></trkpt><trkpt lat="36.010275835182476" lon="-107.0317141702045"><ele>2133.0</ele><time>2026-05-03T16:07:54Z</time></trkpt><trkpt lat="36.01016971568168" lon="-107.03181835263308"><ele>2132.75</ele><time>2026-05-03T16:07:55Z</time></trkpt><trkpt lat="36.01006180225962" lon="-107.03184767844948"><ele>2132.5</ele><time>2026-05-03T16:07:56Z</time></trkpt><trkpt lat="36.00991834316664" lon="-107.03185301836922"><ele>2132.25</ele><time>2026-05-03T16:07:57Z</time></trkpt><trkpt lat="36.00980882324688" lon="-107.03183045000198"><ele>2132.0</ele><time>2026-05-03T16:07:58Z</time></trkpt><trkpt lat="36.009712197052046" lon="-107.03176101824455"><ele>2131.833333333333</ele><time>2026-05-03T16:07:59Z</time></trkpt><trkpt lat="36.00963750004457" lon="-107.03171654723106"><ele>2131.6666666666665</ele><time>2026-05-03T16:08:00Z</time></trkpt><trkpt lat="36.009574454019784" lon="-107.03174354082627"><ele>2131.5</ele><time>2026-05-03T16:08:01Z</time></trkpt><trkpt lat="36.009473280352765" lon="-107.0318132380903"><ele>2131.3333333333335</ele><time>2026-05-03T16:08:03Z</time></trkpt><trkpt lat="36.00944579782737" lon="-107.03192481974502"><ele>2131.166666666667</ele><time>2026-05-03T16:08:05Z</time></trkpt><trkpt lat="36.009400563891006" lon="-107.03201100949039"><ele>2131.0</ele><time>2026-05-03T16:08:06Z</time></trkpt><trkpt lat="36.00937703328059" lon="-107.03215063520389"><ele>2131.0</ele><time>2026-05-03T16:08:07Z</time></trkpt><trkpt lat="36.00937953015206" lon="-107.0322951128804"><ele>2131.0</ele><time>2026-05-03T16:08:08Z</time></trkpt><trkpt lat="36.00937795004074" lon="-107.03242048643288"><ele>2131.0</ele><time>2026-05-03T16:08:09Z</time></trkpt><trkpt lat="36.0093634705338" lon="-107.032541346896"><ele>2131.0</ele><time>2026-05-03T16:08:10Z</time></trkpt><trkpt lat="36.0093060086202" lon="-107.03264596641854"><ele>2131.0</ele><time>2026-05-03T16:08:11Z</time></trkpt><trkpt lat="36.00918662472774" lon="-107.03288932138939"><ele>2131.0</ele><time>2026-05-03T16:08:12Z</time></trkpt><trkpt lat="36.00907826407112" lon="-107.03306141302266"><ele>2131.0</ele><time>2026-05-03T16:08:13Z</time></trkpt><trkpt lat="36.008971801164066" lon="-107.03322319460041"><ele>2131.0</ele><time>2026-05-03T16:08:14Z</time></trkpt><trkpt lat="36.00885664199862" lon="-107.0333940116506"><ele>2130.666666666667</ele><time>2026-05-03T16:08:15Z</time></trkpt><trkpt lat="36.00871896274575" lon="-107.03356402322758"><ele>2130.3333333333335</ele><time>2026-05-03T16:08:16Z</time></trkpt><trkpt lat="36.008586290839794" lon="-107.03375402012857"><ele>2130.0</ele><time>2026-05-03T16:08:17Z</time></trkpt><trkpt lat="36.00844503736875" lon="-107.03397202228639"><ele>2129.0</ele><time>2026-05-03T16:08:18Z</time></trkpt><trkpt lat="36.00833487101659" lon="-107.0341787689311"><ele>2128.0</ele><time>2026-05-03T16:08:19Z</time></trkpt><trkpt lat="36.008251718332076" lon="-107.03436420388533"><ele>2127.0</ele><time>2026-05-03T16:08:20Z</time></trkpt><trkpt lat="36.00819379800038" lon="-107.03455756426875"><ele>2127.0</ele><time>2026-05-03T16:08:21Z</time></trkpt><trkpt lat="36.0081378184662" lon="-107.03475479832"><ele>2127.0</ele><time>2026-05-03T16:08:22Z</time></trkpt><trkpt lat="36.008075612767406" lon="-107.03491111616471"><ele>2127.0</ele><time>2026-05-03T16:08:23Z</time></trkpt><trkpt lat="36.0079957162883" lon="-107.03503810530724"><ele>2127.0</ele><time>2026-05-03T16:08:24Z</time></trkpt><trkpt lat="36.007889909087574" lon="-107.0351182231986"><ele>2127.0</ele><time>2026-05-03T16:08:25Z</time></trkpt><trkpt lat="36.00777408051017" lon="-107.03519924578787"><ele>2127.0</ele><time>2026-05-03T16:08:26Z</time></trkpt><trkpt lat="36.00761970324993" lon="-107.03525824031577"><ele>2127.0</ele><time>2026-05-03T16:08:27Z</time></trkpt><trkpt lat="36.00748119101175" lon="-107.03531124566615"><ele>2127.0</ele><time>2026-05-03T16:08:28Z</time></trkpt><trkpt lat="36.007389431993595" lon="-107.03537046430102"><ele>2127.0</ele><time>2026-05-03T16:08:29Z</time></trkpt><trkpt lat="36.00732082182261" lon="-107.03543242756436"><ele>2127.0</ele><time>2026-05-03T16:08:30Z</time></trkpt><trkpt lat="36.00726148277605" lon="-107.03554678591343"><ele>2127.0</ele><time>2026-05-03T16:08:31Z</time></trkpt><trkpt lat="36.00724042285835" lon="-107.03574174420183"><ele>2127.0</ele><time>2026-05-03T16:08:32Z</time></trkpt><trkpt lat="36.0072289950894" lon="-107.03592043627927"><ele>2126.3333333333335</ele><time>2026-05-03T16:08:33Z</time></trkpt><trkpt lat="36.007225269063014" lon="-107.03611470463879"><ele>2125.666666666667</ele><time>2026-05-03T16:08:34Z</time></trkpt><trkpt lat="36.0072497456763" lon="-107.03633956679153"><ele>2125.0</ele><time>2026-05-03T16:08:35Z</time></trkpt><trkpt lat="36.00725034229605" lon="-107.03650470423032"><ele>2124.6</ele><time>2026-05-03T16:08:36Z</time></trkpt><trkpt lat="36.0072480951148" lon="-107.0366395929806"><ele>2124.2</ele><time>2026-05-03T16:08:37Z</time></trkpt><trkpt lat="36.00723564098415" lon="-107.03674317113777"><ele>2123.8</ele><time>2026-05-03T16:08:38Z</time></trkpt><trkpt lat="36.00720748410295" lon="-107.03681359345003"><ele>2123.4</ele><time>2026-05-03T16:08:39Z</time></trkpt><trkpt lat="36.007074164839814" lon="-107.03690458758604"><ele>2123.0</ele><time>2026-05-03T16:08:41Z</time></trkpt><trkpt lat="36.00694443124177" lon="-107.03694735070158"><ele>2123.0</ele><time>2026-05-03T16:08:42Z</time></trkpt><trkpt lat="36.00681769223652" lon="-107.0369664228318"><ele>2123.0</ele><time>2026-05-03T16:08:43Z</time></trkpt><trkpt lat="36.006697897324074" lon="-107.03692887951244"><ele>2123.0</ele><time>2026-05-03T16:08:44Z</time></trkpt><trkpt lat="36.00660528110005" lon="-107.03688406749875"><ele>2123.0</ele><time>2026-05-03T16:08:45Z</time></trkpt><trkpt lat="36.00653407880251" lon="-107.036794365105"><ele>2122.75</ele><time>2026-05-03T16:08:47Z</time></trkpt><trkpt lat="36.00652088548845" lon="-107.03665653238042"><ele>2122.5</ele><time>2026-05-03T16:08:49Z</time></trkpt><trkpt lat="36.00654795465637" lon="-107.03652759854495"><ele>2122.25</ele><time>2026-05-03T16:08:50Z</time></trkpt><trkpt lat="36.00656118738234" lon="-107.0363507540155"><ele>2122.0</ele><time>2026-05-03T16:08:51Z</time></trkpt><trkpt lat="36.006585639753865" lon="-107.03618955034337"><ele>2122.4</ele><time>2026-05-03T16:08:52Z</time></trkpt><trkpt lat="36.00658572176691" lon="-107.03609035576342"><ele>2122.7999999999997</ele><time>2026-05-03T16:08:53Z</time></trkpt><trkpt lat="36.00652939004216" lon="-107.03592472321104"><ele>2123.2</ele><time>2026-05-03T16:08:55Z</time></trkpt><trkpt lat="36.00643048492286" lon="-107.0358767776824"><ele>2123.6</ele><time>2026-05-03T16:08:56Z</time></trkpt><trkpt lat="36.006369216631164" lon="-107.03583817018975"><ele>2124.0</ele><time>2026-05-03T16:08:57Z</time></trkpt><trkpt lat="36.00629614282681" lon="-107.03591057738488"><ele>2124.0</ele><time>2026-05-03T16:08:59Z</time></trkpt><trkpt lat="36.00627374409733" lon="-107.03600159992924"><ele>2124.0</ele><time>2026-05-03T16:09:00Z</time></trkpt><trkpt lat="36.00630715175411" lon="-107.03611185256831"><ele>2124.0</ele><time>2026-05-03T16:09:01Z</time></trkpt><trkpt lat="36.0063023977322" lon="-107.03619020478315"><ele>2124.0</ele><time>2026-05-03T16:09:02Z</time></trkpt><trkpt lat="36.00622532106737" lon="-107.03626611219988"><ele>2124.0</ele><time>2026-05-03T16:09:04Z</time></trkpt><trkpt lat="36.00613491642535" lon="-107.03634441910724"><ele>2124.0</ele><time>2026-05-03T16:09:05Z</time></trkpt><trkpt lat="36.0060740049721" lon="-107.03641867970086"><ele>2124.0</ele><time>2026-05-03T16:09:06Z</time></trkpt><trkpt lat="36.00601581905267" lon="-107.03646323537318"><ele>2124.0</ele><time>2026-05-03T16:09:07Z</time></trkpt><trkpt lat="36.0059474853421" lon="-107.03656049663684"><ele>2124.0</ele><time>2026-05-03T16:09:08Z</time></trkpt><trkpt lat="36.005843637508896" lon="-107.0366994786396"><ele>2124.0</ele><time>2026-05-03T16:09:09Z</time></trkpt><trkpt lat="36.005785562218904" lon="-107.03685972814505"><ele>2123.4</ele><time>2026-05-03T16:09:10Z</time></trkpt><trkpt lat="36.00571670418517" lon="-107.03697594001427"><ele>2122.8</ele><time>2026-05-03T16:09:11Z</time></trkpt><trkpt lat="36.00566228239284" lon="-107.03705426457819"><ele>2122.2</ele><time>2026-05-03T16:09:12Z</time></trkpt><trkpt lat="36.005619641686074" lon="-107.03711556109279"><ele>2121.6</ele><time>2026-05-03T16:09:13Z</time></trkpt><trkpt lat="36.00557366775886" lon="-107.03724003611636"><ele>2121.0</ele><time>2026-05-03T16:09:15Z</time></trkpt><trkpt lat="36.00562422944819" lon="-107.03734363144407"><ele>2121.0</ele><time>2026-05-03T16:09:17Z</time></trkpt><trkpt lat="36.005707535849176" lon="-107.03743742218997"><ele>2121.0</ele><time>2026-05-03T16:09:19Z</time></trkpt><trkpt lat="36.0057789945869" lon="-107.03748323339818"><ele>2121.0</ele><time>2026-05-03T16:09:20Z</time></trkpt><trkpt lat="36.00583698261929" lon="-107.03756897838925"><ele>2121.0</ele><time>2026-05-03T16:09:21Z</time></trkpt><trkpt lat="36.005890064364" lon="-107.03772731780967"><ele>2121.0</ele><time>2026-05-03T16:09:22Z</time></trkpt><trkpt lat="36.00590140280798" lon="-107.03789642245437"><ele>2121.0</ele><time>2026-05-03T16:09:23Z</time></trkpt><trkpt lat="36.00586693051663" lon="-107.0380355876738"><ele>2121.0</ele><time>2026-05-03T16:09:24Z</time></trkpt><trkpt lat="36.00579571905587" lon="-107.03821052789749"><ele>2121.0</ele><time>2026-05-03T16:09:25Z</time></trkpt><trkpt lat="36.00571359781706" lon="-107.03835123454569"><ele>2121.0</ele><time>2026-05-03T16:09:26Z</time></trkpt><trkpt lat="36.00561085863516" lon="-107.03849890537734"><ele>2120.3333333333335</ele><time>2026-05-03T16:09:27Z</time></trkpt><trkpt lat="36.00549641466466" lon="-107.03865210058098"><ele>2119.666666666667</ele><time>2026-05-03T16:09:28Z</time></trkpt><trkpt lat="36.005379392685974" lon="-107.03880710276316"><ele>2119.0</ele><time>2026-05-03T16:09:29Z</time></trkpt><trkpt lat="36.00524959011778" lon="-107.03896292170033"><ele>2118.3333333333335</ele><time>2026-05-03T16:09:30Z</time></trkpt><trkpt lat="36.00511224145622" lon="-107.03913830634109"><ele>2117.6666666666665</ele><time>2026-05-03T16:09:31Z</time></trkpt><trkpt lat="36.004971564550424" lon="-107.03926449225702"><ele>2117.0</ele><time>2026-05-03T16:09:32Z</time></trkpt><trkpt lat="36.00479965913404" lon="-107.03938977205709"><ele>2116.6666666666665</ele><time>2026-05-03T16:09:33Z</time></trkpt><trkpt lat="36.00460595736551" lon="-107.03950001958222"><ele>2116.3333333333335</ele><time>2026-05-03T16:09:34Z</time></trkpt><trkpt lat="36.00442090488236" lon="-107.03961106889845"><ele>2116.0</ele><time>2026-05-03T16:09:35Z</time></trkpt><trkpt lat="36.00422794799892" lon="-107.03970817614719"><ele>2116.0</ele><time>2026-05-03T16:09:36Z</time></trkpt><trkpt lat="36.004037507687386" lon="-107.03980793748941"><ele>2116.0</ele><time>2026-05-03T16:09:37Z</time></trkpt><trkpt lat="36.00383634631883" lon="-107.03993049630887"><ele>2116.0</ele><time>2026-05-03T16:09:38Z</time></trkpt><trkpt lat="36.00363736772642" lon="-107.04005531080387"><ele>2116.0</ele><time>2026-05-03T16:09:39Z</time></trkpt><trkpt lat="36.003464908174706" lon="-107.04017675427086"><ele>2116.0</ele><time>2026-05-03T16:09:40Z</time></trkpt><trkpt lat="36.00333556349058" lon="-107.04028140788677"><ele>2116.0</ele><time>2026-05-03T16:09:41Z</time></trkpt><trkpt lat="36.003225739427386" lon="-107.04039726380303"><ele>2115.666666666667</ele><time>2026-05-03T16:09:42Z</time></trkpt><trkpt lat="36.003134324089984" lon="-107.04052409998964"><ele>2115.3333333333335</ele><time>2026-05-03T16:09:43Z</time></trkpt><trkpt lat="36.00304562451216" lon="-107.04067648277596"><ele>2115.0</ele><time>2026-05-03T16:09:44Z</time></trkpt><trkpt lat="36.002944970281405" lon="-107.04085285243154"><ele>2114.6666666666665</ele><time>2026-05-03T16:09:45Z</time></trkpt><trkpt lat="36.002860376606186" lon="-107.0410668208595"><ele>2114.333333333333</ele><time>2026-05-03T16:09:46Z</time></trkpt><trkpt lat="36.0027845968003" lon="-107.04129541542204"><ele>2114.0</ele><time>2026-05-03T16:09:47Z</time></trkpt><trkpt lat="36.002723168215915" lon="-107.04150376544683"><ele>2114.0</ele><time>2026-05-03T16:09:48Z</time></trkpt><trkpt lat="36.00264355960066" lon="-107.04166607145815"><ele>2114.0</ele><time>2026-05-03T16:09:49Z</time></trkpt><trkpt lat="36.002578833008194" lon="-107.04178604651617"><ele>2114.0</ele><time>2026-05-03T16:09:50Z</time></trkpt><trkpt lat="36.002506677110404" lon="-107.04187263345761"><ele>2114.0</ele><time>2026-05-03T16:09:51Z</time></trkpt><trkpt lat="36.00243781429379" lon="-107.04194342306697"><ele>2113.8</ele><time>2026-05-03T16:09:52Z</time></trkpt><trkpt lat="36.002384809013854" lon="-107.04202675542221"><ele>2113.6000000000004</ele><time>2026-05-03T16:09:53Z</time></trkpt><trkpt lat="36.00233606479994" lon="-107.04212084901798"><ele>2113.4</ele><time>2026-05-03T16:09:54Z</time></trkpt><trkpt lat="36.00227941622288" lon="-107.04220918267796"><ele>2113.2000000000003</ele><time>2026-05-03T16:09:55Z</time></trkpt><trkpt lat="36.002314936784906" lon="-107.0423778612045"><ele>2113.0</ele><time>2026-05-03T16:09:57Z</time></trkpt><trkpt lat="36.00235491545653" lon="-107.04249556786516"><ele>2113.0</ele><time>2026-05-03T16:09:58Z</time></trkpt><trkpt lat="36.002374843965974" lon="-107.04262327647179"><ele>2113.0</ele><time>2026-05-03T16:09:59Z</time></trkpt><trkpt lat="36.00238153689961" lon="-107.04276800899868"><ele>2113.0</ele><time>2026-05-03T16:10:00Z</time></trkpt><trkpt lat="36.0024621841658" lon="-107.04292072010509"><ele>2113.0</ele><time>2026-05-03T16:10:01Z</time></trkpt><trkpt lat="36.00249620408129" lon="-107.04302003450636"><ele>2112.8</ele><time>2026-05-03T16:10:02Z</time></trkpt><trkpt lat="36.00250723482866" lon="-107.04311102845159"><ele>2112.6000000000004</ele><time>2026-05-03T16:10:03Z</time></trkpt><trkpt lat="36.002517345663705" lon="-107.04319316257713"><ele>2112.3999999999996</ele><time>2026-05-03T16:10:04Z</time></trkpt><trkpt lat="36.00248932579249" lon="-107.04331648235296"><ele>2112.2</ele><time>2026-05-03T16:10:05Z</time></trkpt><trkpt lat="36.00241349858587" lon="-107.04342500490353"><ele>2112.0</ele><time>2026-05-03T16:10:06Z</time></trkpt><trkpt lat="36.002328752432504" lon="-107.04346425150058"><ele>2111.7999999999997</ele><time>2026-05-03T16:10:07Z</time></trkpt><trkpt lat="36.0022218394885" lon="-107.0434768220853"><ele>2111.6</ele><time>2026-05-03T16:10:08Z</time></trkpt><trkpt lat="36.00212060547543" lon="-107.04353761427589"><ele>2111.3999999999996</ele><time>2026-05-03T16:10:09Z</time></trkpt><trkpt lat="36.00208350090092" lon="-107.0436162897932"><ele>2111.2</ele><time>2026-05-03T16:10:10Z</time></trkpt><trkpt lat="36.00205575289638" lon="-107.04375407661368"><ele>2111.0</ele><time>2026-05-03T16:10:11Z</time></trkpt><trkpt lat="36.00204311462672" lon="-107.04389416371919"><ele>2111.0</ele><time>2026-05-03T16:10:12Z</time></trkpt><trkpt lat="36.002013503962914" lon="-107.04404149090058"><ele>2111.0</ele><time>2026-05-03T16:10:13Z</time></trkpt><trkpt lat="36.00201416213227" lon="-107.04418942871895"><ele>2111.0</ele><time>2026-05-03T16:10:14Z</time></trkpt><trkpt lat="36.00199448274766" lon="-107.04437948071369"><ele>2111.0</ele><time>2026-05-03T16:10:15Z</time></trkpt><trkpt lat="36.001982255278236" lon="-107.04459102621543"><ele>2110.333333333333</ele><time>2026-05-03T16:10:16Z</time></trkpt><trkpt lat="36.00199162494401" lon="-107.04479998063799"><ele>2109.6666666666665</ele><time>2026-05-03T16:10:17Z</time></trkpt><trkpt lat="36.001996516296" lon="-107.04499715861255"><ele>2109.0</ele><time>2026-05-03T16:10:18Z</time></trkpt><trkpt lat="36.00195566821148" lon="-107.04520522666947"><ele>2109.0</ele><time>2026-05-03T16:10:19Z</time></trkpt><trkpt lat="36.00190382537635" lon="-107.04537789168444"><ele>2109.0</ele><time>2026-05-03T16:10:20Z</time></trkpt><trkpt lat="36.00181104674895" lon="-107.04555760477362"><ele>2109.0</ele><time>2026-05-03T16:10:21Z</time></trkpt><trkpt lat="36.00172831542828" lon="-107.04574945320525"><ele>2108.75</ele><time>2026-05-03T16:10:22Z</time></trkpt><trkpt lat="36.00166834389114" lon="-107.04594702684143"><ele>2108.5</ele><time>2026-05-03T16:10:23Z</time></trkpt><trkpt lat="36.001653137808454" lon="-107.04608508269969"><ele>2108.25</ele><time>2026-05-03T16:10:24Z</time></trkpt><trkpt lat="36.00166076867376" lon="-107.04619831957973"><ele>2108.0</ele><time>2026-05-03T16:10:25Z</time></trkpt><trkpt lat="36.00170579640156" lon="-107.04628880630153"><ele>2108.0</ele><time>2026-05-03T16:10:26Z</time></trkpt><trkpt lat="36.00179176552271" lon="-107.04637549568267"><ele>2108.0</ele><time>2026-05-03T16:10:27Z</time></trkpt><trkpt lat="36.00188846149942" lon="-107.04646586432564"><ele>2108.0</ele><time>2026-05-03T16:10:28Z</time></trkpt><trkpt lat="36.00195760482024" lon="-107.04656756323783"><ele>2108.0</ele><time>2026-05-03T16:10:29Z</time></trkpt><trkpt lat="36.001976605598855" lon="-107.04670567148254"><ele>2107.5</ele><time>2026-05-03T16:10:30Z</time></trkpt><trkpt lat="36.001963882955124" lon="-107.04683407928697"><ele>2107.0</ele><time>2026-05-03T16:10:31Z</time></trkpt><trkpt lat="36.00190956456249" lon="-107.04696717835589"><ele>2106.5</ele><time>2026-05-03T16:10:32Z</time></trkpt><trkpt lat="36.00180232615429" lon="-107.04708151288446"><ele>2106.0</ele><time>2026-05-03T16:10:33Z</time></trkpt><trkpt lat="36.001694772258965" lon="-107.04716075540301"><ele>2105.3333333333335</ele><time>2026-05-03T16:10:34Z</time></trkpt><trkpt lat="36.001575981237195" lon="-107.04722625120955"><ele>2104.666666666667</ele><time>2026-05-03T16:10:35Z</time></trkpt><trkpt lat="36.00141647502722" lon="-107.04728004022384"><ele>2104.0</ele><time>2026-05-03T16:10:36Z</time></trkpt><trkpt lat="36.00125728286053" lon="-107.04730452388597"><ele>2104.0</ele><time>2026-05-03T16:10:37Z</time></trkpt><trkpt lat="36.001087080882606" lon="-107.04731799595181"><ele>2104.0</ele><time>2026-05-03T16:10:38Z</time></trkpt><trkpt lat="36.00089501133835" lon="-107.04737266398718"><ele>2104.0</ele><time>2026-05-03T16:10:39Z</time></trkpt><trkpt lat="36.00071517613215" lon="-107.04748729782119"><ele>2103.666666666667</ele><time>2026-05-03T16:10:40Z</time></trkpt><trkpt lat="36.000548729034016" lon="-107.04764375302815"><ele>2103.3333333333335</ele><time>2026-05-03T16:10:41Z</time></trkpt><trkpt lat="36.00038400078147" lon="-107.04779574143436"><ele>2103.0</ele><time>2026-05-03T16:10:42Z</time></trkpt><trkpt lat="36.000212803474454" lon="-107.04795522054147"><ele>2103.0</ele><time>2026-05-03T16:10:43Z</time></trkpt><trkpt lat="36.00002250397969" lon="-107.04809999483399"><ele>2103.0</ele><time>2026-05-03T16:10:44Z</time></trkpt><trkpt lat="35.999869124784965" lon="-107.04820084670031"><ele>2103.0</ele><time>2026-05-03T16:10:45Z</time></trkpt><trkpt lat="35.99974679704443" lon="-107.04824717844927"><ele>2103.0</ele><time>2026-05-03T16:10:46Z</time></trkpt><trkpt lat="35.99961389929473" lon="-107.04827842897802"><ele>2103.0</ele><time>2026-05-03T16:10:47Z</time></trkpt><trkpt lat="35.99947137202565" lon="-107.04824900962598"><ele>2103.0</ele><time>2026-05-03T16:10:48Z</time></trkpt><trkpt lat="35.99929623657786" lon="-107.04818980839016"><ele>2103.25</ele><time>2026-05-03T16:10:49Z</time></trkpt><trkpt lat="35.99914470702774" lon="-107.04815359365922"><ele>2103.5</ele><time>2026-05-03T16:10:50Z</time></trkpt><trkpt lat="35.99901236271592" lon="-107.04813694442616"><ele>2103.75</ele><time>2026-05-03T16:10:51Z</time></trkpt><trkpt lat="35.99885552258185" lon="-107.04816014468436"><ele>2104.0</ele><time>2026-05-03T16:10:52Z</time></trkpt><trkpt lat="35.998677519979935" lon="-107.04821390985825"><ele>2104.0</ele><time>2026-05-03T16:10:53Z</time></trkpt><trkpt lat="35.99847589386817" lon="-107.04824037267947"><ele>2104.0</ele><time>2026-05-03T16:10:54Z</time></trkpt><trkpt lat="35.99828600600282" lon="-107.04829648087608"><ele>2104.0</ele><time>2026-05-03T16:10:55Z</time></trkpt><trkpt lat="35.99808789751319" lon="-107.04834733806992"><ele>2103.3333333333335</ele><time>2026-05-03T16:10:56Z</time></trkpt><trkpt lat="35.9978825151903" lon="-107.04837686149077"><ele>2102.6666666666665</ele><time>2026-05-03T16:10:57Z</time></trkpt><trkpt lat="35.997675599772855" lon="-107.04839912178512"><ele>2102.0</ele><time>2026-05-03T16:10:58Z</time></trkpt><trkpt lat="35.99751055146181" lon="-107.04841052129107"><ele>2101.333333333333</ele><time>2026-05-03T16:10:59Z</time></trkpt><trkpt lat="35.99734594538452" lon="-107.04839790893152"><ele>2100.6666666666665</ele><time>2026-05-03T16:11:00Z</time></trkpt><trkpt lat="35.99715322123722" lon="-107.04836496473806"><ele>2100.0</ele><time>2026-05-03T16:11:01Z</time></trkpt><trkpt lat="35.99697821300089" lon="-107.04831861254767"><ele>2100.0</ele><time>2026-05-03T16:11:02Z</time></trkpt><trkpt lat="35.996844006851454" lon="-107.04823373210229"><ele>2100.0</ele><time>2026-05-03T16:11:03Z</time></trkpt><trkpt lat="35.99676191901022" lon="-107.04812533061525"><ele>2100.0</ele><time>2026-05-03T16:11:04Z</time></trkpt><trkpt lat="35.996686214149555" lon="-107.04802492149149"><ele>2100.0</ele><time>2026-05-03T16:11:05Z</time></trkpt><trkpt lat="35.996649314255045" lon="-107.04792962552276"><ele>2100.0</ele><time>2026-05-03T16:11:06Z</time></trkpt><trkpt lat="35.99664399792917" lon="-107.04784603631235"><ele>2100.0</ele><time>2026-05-03T16:11:07Z</time></trkpt><trkpt lat="35.996722329692965" lon="-107.04773853481352"><ele>2100.0</ele><time>2026-05-03T16:11:09Z</time></trkpt><trkpt lat="35.99681621456748" lon="-107.04770599555152"><ele>2100.0</ele><time>2026-05-03T16:11:11Z</time></trkpt><trkpt lat="35.99680277580528" lon="-107.04762852141825"><ele>2100.0</ele><time>2026-05-03T16:11:12Z</time></trkpt><trkpt lat="35.996775756183695" lon="-107.04753413769308"><ele>2100.0</ele><time>2026-05-03T16:11:13Z</time></trkpt><trkpt lat="35.99673030818004" lon="-107.04747410989867"><ele>2100.0</ele><time>2026-05-03T16:11:14Z</time></trkpt><trkpt lat="35.99666615451827" lon="-107.0474661067294"><ele>2100.0</ele><time>2026-05-03T16:11:15Z</time></trkpt><trkpt lat="35.996576111421085" lon="-107.04741835896138"><ele>2100.0</ele><time>2026-05-03T16:11:17Z</time></trkpt><trkpt lat="35.996509257066535" lon="-107.0474360753039"><ele>2100.0</ele><time>2026-05-03T16:11:18Z</time></trkpt><trkpt lat="35.99643010407698" lon="-107.04740230180167"><ele>2100.0</ele><time>2026-05-03T16:11:19Z</time></trkpt><trkpt lat="35.99632754626747" lon="-107.04729366252658"><ele>2101.25</ele><time>2026-05-03T16:11:20Z</time></trkpt><trkpt lat="35.996209262043664" lon="-107.0472024317255"><ele>2102.5</ele><time>2026-05-03T16:11:21Z</time></trkpt><trkpt lat="35.99609055784647" lon="-107.04711862113362"><ele>2103.75</ele><time>2026-05-03T16:11:22Z</time></trkpt><trkpt lat="35.99594929873546" lon="-107.04703893711108"><ele>2105.0</ele><time>2026-05-03T16:11:23Z</time></trkpt><trkpt lat="35.99579539608185" lon="-107.04698947729506"><ele>2105.0</ele><time>2026-05-03T16:11:24Z</time></trkpt><trkpt lat="35.995641886156335" lon="-107.04696570790118"><ele>2105.0</ele><time>2026-05-03T16:11:25Z</time></trkpt><trkpt lat="35.99551920365977" lon="-107.04694113620538"><ele>2105.0</ele><time>2026-05-03T16:11:26Z</time></trkpt><trkpt lat="35.99544636355498" lon="-107.04694036406077"><ele>2105.0</ele><time>2026-05-03T16:11:27Z</time></trkpt><trkpt lat="35.99538684368114" lon="-107.04697015764721"><ele>2105.0</ele><time>2026-05-03T16:11:28Z</time></trkpt><trkpt lat="35.99531130921244" lon="-107.04710424957133"><ele>2105.0</ele><time>2026-05-03T16:11:30Z</time></trkpt><trkpt lat="35.99529782626064" lon="-107.04726566320657"><ele>2105.0</ele><time>2026-05-03T16:11:31Z</time></trkpt><trkpt lat="35.99530732890149" lon="-107.04741579120824"><ele>2105.0</ele><time>2026-05-03T16:11:32Z</time></trkpt><trkpt lat="35.99535352277942" lon="-107.04756104054205"><ele>2105.0</ele><time>2026-05-03T16:11:33Z</time></trkpt><trkpt lat="35.99533740589928" lon="-107.04772049828733"><ele>2103.75</ele><time>2026-05-03T16:11:34Z</time></trkpt><trkpt lat="35.99531710201163" lon="-107.04789937752994"><ele>2102.5</ele><time>2026-05-03T16:11:35Z</time></trkpt><trkpt lat="35.995280654509884" lon="-107.04805452908337"><ele>2101.25</ele><time>2026-05-03T16:11:36Z</time></trkpt><trkpt lat="35.99523660699427" lon="-107.04816703313197"><ele>2100.0</ele><time>2026-05-03T16:11:37Z</time></trkpt><trkpt lat="35.99518225425088" lon="-107.04823997506104"><ele>2100.0</ele><time>2026-05-03T16:11:38Z</time></trkpt><trkpt lat="35.995083268305585" lon="-107.04830203066687"><ele>2100.0</ele><time>2026-05-03T16:11:39Z</time></trkpt><trkpt lat="35.99494524418401" lon="-107.04835233229491"><ele>2100.0</ele><time>2026-05-03T16:11:40Z</time></trkpt><trkpt lat="35.99479475877938" lon="-107.04835467849607"><ele>2100.0</ele><time>2026-05-03T16:11:41Z</time></trkpt><trkpt lat="35.99464387795502" lon="-107.04835228088292"><ele>2100.0</ele><time>2026-05-03T16:11:42Z</time></trkpt><trkpt lat="35.99451474113902" lon="-107.04832669810264"><ele>2100.0</ele><time>2026-05-03T16:11:43Z</time></trkpt><trkpt lat="35.99436357116588" lon="-107.04828763525282"><ele>2100.0</ele><time>2026-05-03T16:11:44Z</time></trkpt><trkpt lat="35.994205926414814" lon="-107.04825318721838"><ele>2100.0</ele><time>2026-05-03T16:11:45Z</time></trkpt><trkpt lat="35.994033253531086" lon="-107.04820375623277"><ele>2101.0</ele><time>2026-05-03T16:11:46Z</time></trkpt><trkpt lat="35.99385162025204" lon="-107.0481418730872"><ele>2102.0</ele><time>2026-05-03T16:11:47Z</time></trkpt><trkpt lat="35.993659159178335" lon="-107.04809829522527"><ele>2103.0</ele><time>2026-05-03T16:11:48Z</time></trkpt><trkpt lat="35.99344815912879" lon="-107.04805159412986"><ele>2103.0</ele><time>2026-05-03T16:11:49Z</time></trkpt><trkpt lat="35.99326273795374" lon="-107.04800144887585"><ele>2103.0</ele><time>2026-05-03T16:11:50Z</time></trkpt><trkpt lat="35.993134465357926" lon="-107.04796058896082"><ele>2103.0</ele><time>2026-05-03T16:11:51Z</time></trkpt><trkpt lat="35.993056502444865" lon="-107.04793668471791"><ele>2103.0</ele><time>2026-05-03T16:11:52Z</time></trkpt><trkpt lat="35.99297857065179" lon="-107.047890925844"><ele>2103.0</ele><time>2026-05-03T16:11:53Z</time></trkpt><trkpt lat="35.9929209532882" lon="-107.04784102321611"><ele>2103.0</ele><time>2026-05-03T16:11:54Z</time></trkpt><trkpt lat="35.99285864337527" lon="-107.04777631625488"><ele>2103.0</ele><time>2026-05-03T16:11:55Z</time></trkpt><trkpt lat="35.99276173200617" lon="-107.04772602501396"><ele>2103.0</ele><time>2026-05-03T16:11:56Z</time></trkpt><trkpt lat="35.99261047446305" lon="-107.04766182248018"><ele>2103.0</ele><time>2026-05-03T16:11:57Z</time></trkpt><trkpt lat="35.99253245234489" lon="-107.04761146590086"><ele>2103.25</ele><time>2026-05-03T16:11:58Z</time></trkpt><trkpt lat="35.992427536075226" lon="-107.0475649252441"><ele>2103.5</ele><time>2026-05-03T16:11:59Z</time></trkpt><trkpt lat="35.99229911047735" lon="-107.0475266114556"><ele>2103.75</ele><time>2026-05-03T16:12:00Z</time></trkpt><trkpt lat="35.99215056100645" lon="-107.04747201498658"><ele>2104.0</ele><time>2026-05-03T16:12:01Z</time></trkpt><trkpt lat="35.99201957428829" lon="-107.04737875032502"><ele>2104.0</ele><time>2026-05-03T16:12:02Z</time></trkpt><trkpt lat="35.991890950782114" lon="-107.04732842991534"><ele>2104.0</ele><time>2026-05-03T16:12:03Z</time></trkpt><trkpt lat="35.991771819830184" lon="-107.04726739896527"><ele>2104.0</ele><time>2026-05-03T16:12:04Z</time></trkpt><trkpt lat="35.991654919029834" lon="-107.04719899420044"><ele>2104.0</ele><time>2026-05-03T16:12:05Z</time></trkpt><trkpt lat="35.991565123482864" lon="-107.04711688374837"><ele>2102.75</ele><time>2026-05-03T16:12:06Z</time></trkpt><trkpt lat="35.99148550056018" lon="-107.04702297494869"><ele>2101.5</ele><time>2026-05-03T16:12:07Z</time></trkpt><trkpt lat="35.99138431621029" lon="-107.04690792840228"><ele>2100.25</ele><time>2026-05-03T16:12:08Z</time></trkpt><trkpt lat="35.99127450070703" lon="-107.04679217349378"><ele>2099.0</ele><time>2026-05-03T16:12:09Z</time></trkpt><trkpt lat="35.991173669487615" lon="-107.04670327973899"><ele>2099.2</ele><time>2026-05-03T16:12:10Z</time></trkpt><trkpt lat="35.991082343705564" lon="-107.0466165450803"><ele>2099.4</ele><time>2026-05-03T16:12:11Z</time></trkpt><trkpt lat="35.99098536617545" lon="-107.0465416541109"><ele>2099.6</ele><time>2026-05-03T16:12:12Z</time></trkpt><trkpt lat="35.99091152662108" lon="-107.04648058967031"><ele>2099.8</ele><time>2026-05-03T16:12:13Z</time></trkpt><trkpt lat="35.990864647451446" lon="-107.04635398099354"><ele>2100.0</ele><time>2026-05-03T16:12:14Z</time></trkpt><trkpt lat="35.99080236447264" lon="-107.04620059275284"><ele>2100.0</ele><time>2026-05-03T16:12:15Z</time></trkpt><trkpt lat="35.99073040915446" lon="-107.04604794031285"><ele>2100.0</ele><time>2026-05-03T16:12:16Z</time></trkpt><trkpt lat="35.99064326467532" lon="-107.04589802479816"><ele>2100.0</ele><time>2026-05-03T16:12:17Z</time></trkpt><trkpt lat="35.99057715790093" lon="-107.04578651551802"><ele>2100.0</ele><time>2026-05-03T16:12:18Z</time></trkpt><trkpt lat="35.99052522033908" lon="-107.04565095685106"><ele>2100.0</ele><time>2026-05-03T16:12:19Z</time></trkpt><trkpt lat="35.99047683811781" lon="-107.04552747309569"><ele>2100.0</ele><time>2026-05-03T16:12:20Z</time></trkpt><trkpt lat="35.99045204587822" lon="-107.04541688630803"><ele>2100.0</ele><time>2026-05-03T16:12:21Z</time></trkpt><trkpt lat="35.990459982060216" lon="-107.04529145366193"><ele>2100.0</ele><time>2026-05-03T16:12:22Z</time></trkpt><trkpt lat="35.99045370698887" lon="-107.04515953677905"><ele>2100.0</ele><time>2026-05-03T16:12:23Z</time></trkpt><trkpt lat="35.99045358076071" lon="-107.04499875879375"><ele>2099.75</ele><time>2026-05-03T16:12:24Z</time></trkpt><trkpt lat="35.990465520541974" lon="-107.04482765489479"><ele>2099.5</ele><time>2026-05-03T16:12:25Z</time></trkpt><trkpt lat="35.9904911587103" lon="-107.04465871223294"><ele>2099.25</ele><time>2026-05-03T16:12:26Z</time></trkpt><trkpt lat="35.99052416770598" lon="-107.04452699041906"><ele>2099.0</ele><time>2026-05-03T16:12:27Z</time></trkpt><trkpt lat="35.9905486996599" lon="-107.04440552386671"><ele>2099.0</ele><time>2026-05-03T16:12:28Z</time></trkpt><trkpt lat="35.99056987703999" lon="-107.04428334347467"><ele>2099.0</ele><time>2026-05-03T16:12:29Z</time></trkpt><trkpt lat="35.99059294623765" lon="-107.04416478263227"><ele>2099.0</ele><time>2026-05-03T16:12:30Z</time></trkpt><trkpt lat="35.990631094932645" lon="-107.04400957686524"><ele>2099.0</ele><time>2026-05-03T16:12:31Z</time></trkpt><trkpt lat="35.99065043509112" lon="-107.04389126824573"><ele>2099.0</ele><time>2026-05-03T16:12:32Z</time></trkpt><trkpt lat="35.99065291505884" lon="-107.0437748374231"><ele>2098.8</ele><time>2026-05-03T16:12:33Z</time></trkpt><trkpt lat="35.99065643711775" lon="-107.04362938225837"><ele>2098.6000000000004</ele><time>2026-05-03T16:12:34Z</time></trkpt><trkpt lat="35.990669905879955" lon="-107.04352536422955"><ele>2098.4</ele><time>2026-05-03T16:12:35Z</time></trkpt><trkpt lat="35.99067646933127" lon="-107.04341240892289"><ele>2098.2000000000003</ele><time>2026-05-03T16:12:36Z</time></trkpt><trkpt lat="35.99066408882914" lon="-107.04331460503101"><ele>2098.0</ele><time>2026-05-03T16:12:37Z</time></trkpt><trkpt lat="35.99068441433886" lon="-107.04315930991422"><ele>2098.0</ele><time>2026-05-03T16:12:39Z</time></trkpt><trkpt lat="35.99066278247222" lon="-107.04300763950832"><ele>2098.0</ele><time>2026-05-03T16:12:41Z</time></trkpt><trkpt lat="35.9906431609203" lon="-107.04291954621019"><ele>2098.0</ele><time>2026-05-03T16:12:42Z</time></trkpt><trkpt lat="35.99062727705937" lon="-107.04277717237164"><ele>2098.0</ele><time>2026-05-03T16:12:43Z</time></trkpt><trkpt lat="35.99061607270128" lon="-107.0426732994048"><ele>2098.0</ele><time>2026-05-03T16:12:44Z</time></trkpt><trkpt lat="35.99061263518571" lon="-107.04257013296856"><ele>2098.0</ele><time>2026-05-03T16:12:45Z</time></trkpt><trkpt lat="35.99060682946134" lon="-107.04246716213652"><ele>2098.0</ele><time>2026-05-03T16:12:46Z</time></trkpt><trkpt lat="35.99060590034011" lon="-107.04234050168243"><ele>2098.0</ele><time>2026-05-03T16:12:47Z</time></trkpt><trkpt lat="35.990578567121005" lon="-107.04219965345243"><ele>2098.0</ele><time>2026-05-03T16:12:48Z</time></trkpt><trkpt lat="35.990537089493515" lon="-107.0420486766017"><ele>2098.0</ele><time>2026-05-03T16:12:49Z</time></trkpt><trkpt lat="35.99051377715052" lon="-107.04187951895081"><ele>2097.8</ele><time>2026-05-03T16:12:50Z</time></trkpt><trkpt lat="35.99051573553045" lon="-107.04176700621757"><ele>2097.6000000000004</ele><time>2026-05-03T16:12:51Z</time></trkpt><trkpt lat="35.99049703781095" lon="-107.04165271260509"><ele>2097.3999999999996</ele><time>2026-05-03T16:12:53Z</time></trkpt><trkpt lat="35.99048644513051" lon="-107.04152725931333"><ele>2097.2</ele><time>2026-05-03T16:12:55Z</time></trkpt><trkpt lat="35.99047859273795" lon="-107.0414457842602"><ele>2097.0</ele><time>2026-05-03T16:12:56Z</time></trkpt><trkpt lat="35.990521718112454" lon="-107.0413186480422"><ele>2097.0</ele><time>2026-05-03T16:12:57Z</time></trkpt><trkpt lat="35.99052811707104" lon="-107.04122760195469"><ele>2097.0</ele><time>2026-05-03T16:12:58Z</time></trkpt><trkpt lat="35.99051583502854" lon="-107.04109320292645"><ele>2097.0</ele><time>2026-05-03T16:12:59Z</time></trkpt><trkpt lat="35.99047494125712" lon="-107.04095087040017"><ele>2097.0</ele><time>2026-05-03T16:13:00Z</time></trkpt><trkpt lat="35.99045654783126" lon="-107.04080155077457"><ele>2097.0</ele><time>2026-05-03T16:13:01Z</time></trkpt><trkpt lat="35.99042425415998" lon="-107.04068420371786"><ele>2098.2</ele><time>2026-05-03T16:13:02Z</time></trkpt><trkpt lat="35.990415509583585" lon="-107.040593465873"><ele>2099.3999999999996</ele><time>2026-05-03T16:13:03Z</time></trkpt><trkpt lat="35.990399057269585" lon="-107.04047691218733"><ele>2100.6000000000004</ele><time>2026-05-03T16:13:04Z</time></trkpt><trkpt lat="35.99035744314842" lon="-107.04036379437304"><ele>2101.8</ele><time>2026-05-03T16:13:05Z</time></trkpt><trkpt lat="35.99029202763675" lon="-107.04024831662691"><ele>2103.0</ele><time>2026-05-03T16:13:06Z</time></trkpt><trkpt lat="35.990201695237566" lon="-107.04011527828436"><ele>2103.0</ele><time>2026-05-03T16:13:07Z</time></trkpt><trkpt lat="35.99011587500132" lon="-107.03999553228392"><ele>2103.0</ele><time>2026-05-03T16:13:08Z</time></trkpt><trkpt lat="35.98998408935185" lon="-107.03990575277696"><ele>2103.0</ele><time>2026-05-03T16:13:09Z</time></trkpt><trkpt lat="35.989807492173" lon="-107.03985679839624"><ele>2101.6666666666665</ele><time>2026-05-03T16:13:10Z</time></trkpt><trkpt lat="35.989630813700714" lon="-107.03984732292174"><ele>2100.333333333333</ele><time>2026-05-03T16:13:11Z</time></trkpt><trkpt lat="35.989436682232935" lon="-107.03983987364839"><ele>2099.0</ele><time>2026-05-03T16:13:12Z</time></trkpt><trkpt lat="35.98927122647787" lon="-107.03982320385462"><ele>2098.333333333333</ele><time>2026-05-03T16:13:13Z</time></trkpt><trkpt lat="35.989076445185894" lon="-107.03981583499231"><ele>2097.6666666666665</ele><time>2026-05-03T16:13:14Z</time></trkpt><trkpt lat="35.988853317226805" lon="-107.03980323361677"><ele>2097.0</ele><time>2026-05-03T16:13:15Z</time></trkpt><trkpt lat="35.98863549713555" lon="-107.03977802262419"><ele>2097.0</ele><time>2026-05-03T16:13:16Z</time></trkpt><trkpt lat="35.98841609145765" lon="-107.03973981560746"><ele>2097.0</ele><time>2026-05-03T16:13:17Z</time></trkpt><trkpt lat="35.98820800818533" lon="-107.03970738289233"><ele>2097.0</ele><time>2026-05-03T16:13:18Z</time></trkpt><trkpt lat="35.9880216988234" lon="-107.03967823387593"><ele>2097.0</ele><time>2026-05-03T16:13:19Z</time></trkpt><trkpt lat="35.98788335846642" lon="-107.03964400963181"><ele>2097.0</ele><time>2026-05-03T16:13:20Z</time></trkpt><trkpt lat="35.98774164159873" lon="-107.03959590927961"><ele>2097.0</ele><time>2026-05-03T16:13:21Z</time></trkpt><trkpt lat="35.987602280846836" lon="-107.03952514926236"><ele>2097.0</ele><time>2026-05-03T16:13:22Z</time></trkpt><trkpt lat="35.98747791017477" lon="-107.03940339446157"><ele>2097.0</ele><time>2026-05-03T16:13:23Z</time></trkpt><trkpt lat="35.98734364795377" lon="-107.03930246327987"><ele>2097.0</ele><time>2026-05-03T16:13:24Z</time></trkpt><trkpt lat="35.987202177575035" lon="-107.03922470656985"><ele>2097.0</ele><time>2026-05-03T16:13:25Z</time></trkpt><trkpt lat="35.98706438659246" lon="-107.03915995463916"><ele>2096.6666666666665</ele><time>2026-05-03T16:13:26Z</time></trkpt><trkpt lat="35.98692310412378" lon="-107.03905356351031"><ele>2096.333333333333</ele><time>2026-05-03T16:13:27Z</time></trkpt><trkpt lat="35.98676933265581" lon="-107.03892095865922"><ele>2096.0</ele><time>2026-05-03T16:13:28Z</time></trkpt><trkpt lat="35.98661512642416" lon="-107.03883257678328"><ele>2096.0</ele><time>2026-05-03T16:13:29Z</time></trkpt><trkpt lat="35.98646660488645" lon="-107.03879423110729"><ele>2096.0</ele><time>2026-05-03T16:13:30Z</time></trkpt><trkpt lat="35.98631084422299" lon="-107.03874700697612"><ele>2096.0</ele><time>2026-05-03T16:13:31Z</time></trkpt><trkpt lat="35.98614999627498" lon="-107.03867745526462"><ele>2096.0</ele><time>2026-05-03T16:13:32Z</time></trkpt><trkpt lat="35.986001926897046" lon="-107.03856489295083"><ele>2096.0</ele><time>2026-05-03T16:13:33Z</time></trkpt><trkpt lat="35.985870248573505" lon="-107.0384581571466"><ele>2096.0</ele><time>2026-05-03T16:13:34Z</time></trkpt><trkpt lat="35.98574268944611" lon="-107.0383358009079"><ele>2096.333333333333</ele><time>2026-05-03T16:13:35Z</time></trkpt><trkpt lat="35.98561580776731" lon="-107.0382415306207"><ele>2096.6666666666665</ele><time>2026-05-03T16:13:36Z</time></trkpt><trkpt lat="35.985477622365856" lon="-107.03815485515692"><ele>2097.0</ele><time>2026-05-03T16:13:37Z</time></trkpt><trkpt lat="35.98533227742961" lon="-107.03806746936395"><ele>2097.0</ele><time>2026-05-03T16:13:38Z</time></trkpt><trkpt lat="35.98520069837505" lon="-107.03796850536038"><ele>2097.0</ele><time>2026-05-03T16:13:39Z</time></trkpt><trkpt lat="35.98508971498738" lon="-107.03788407609588"><ele>2097.0</ele><time>2026-05-03T16:13:40Z</time></trkpt><trkpt lat="35.98501528779086" lon="-107.03784196083114"><ele>2097.0</ele><time>2026-05-03T16:13:41Z</time></trkpt><trkpt lat="35.98494935382337" lon="-107.03774775416147"><ele>2097.0</ele><time>2026-05-03T16:13:43Z</time></trkpt><trkpt lat="35.98493819723735" lon="-107.03764663984617"><ele>2097.0</ele><time>2026-05-03T16:13:44Z</time></trkpt><trkpt lat="35.98492126026152" lon="-107.0375087342374"><ele>2097.0</ele><time>2026-05-03T16:13:45Z</time></trkpt><trkpt lat="35.984881478460316" lon="-107.0373399048648"><ele>2097.0</ele><time>2026-05-03T16:13:46Z</time></trkpt><trkpt lat="35.98485745163828" lon="-107.03716803835314"><ele>2097.0</ele><time>2026-05-03T16:13:47Z</time></trkpt><trkpt lat="35.9849205413722" lon="-107.03700755162012"><ele>2097.0</ele><time>2026-05-03T16:13:48Z</time></trkpt><trkpt lat="35.984995232002234" lon="-107.03687898054105"><ele>2097.0</ele><time>2026-05-03T16:13:49Z</time></trkpt><trkpt lat="35.98511558321743" lon="-107.03675237263872"><ele>2097.0</ele><time>2026-05-03T16:13:50Z</time></trkpt><trkpt lat="35.98527195331895" lon="-107.03662347517752"><ele>2100.3333333333335</ele><time>2026-05-03T16:13:51Z</time></trkpt><trkpt lat="35.98540400828577" lon="-107.03648979250269"><ele>2103.666666666667</ele><time>2026-05-03T16:13:52Z</time></trkpt><trkpt lat="35.98550205448517" lon="-107.03635748567262"><ele>2107.0</ele><time>2026-05-03T16:13:53Z</time></trkpt><trkpt lat="35.985597896953266" lon="-107.03620682945277"><ele>2107.0</ele><time>2026-05-03T16:13:54Z</time></trkpt><trkpt lat="35.98567516972538" lon="-107.03606672350627"><ele>2107.0</ele><time>2026-05-03T16:13:55Z</time></trkpt><trkpt lat="35.98572509465441" lon="-107.03596100430207"><ele>2107.0</ele><time>2026-05-03T16:13:56Z</time></trkpt><trkpt lat="35.98571375518496" lon="-107.03584291882161"><ele>2107.0</ele><time>2026-05-03T16:13:58Z</time></trkpt><trkpt lat="35.98569256417378" lon="-107.03569556743183"><ele>2106.0</ele><time>2026-05-03T16:13:59Z</time></trkpt><trkpt lat="35.985684337710914" lon="-107.03552988696227"><ele>2105.0</ele><time>2026-05-03T16:14:00Z</time></trkpt><trkpt lat="35.98568953634611" lon="-107.0353991284543"><ele>2104.0</ele><time>2026-05-03T16:14:01Z</time></trkpt><trkpt lat="35.98581002118208" lon="-107.03530240459455"><ele>2103.0</ele><time>2026-05-03T16:14:03Z</time></trkpt><trkpt lat="35.9859281073838" lon="-107.03526305709141"><ele>2104.8</ele><time>2026-05-03T16:14:04Z</time></trkpt><trkpt lat="35.985998295528525" lon="-107.035171682509"><ele>2106.6000000000004</ele><time>2026-05-03T16:14:05Z</time></trkpt><trkpt lat="35.98600940503239" lon="-107.03504759738134"><ele>2108.3999999999996</ele><time>2026-05-03T16:14:06Z</time></trkpt><trkpt lat="35.98595523520319" lon="-107.0349095482372"><ele>2110.2</ele><time>2026-05-03T16:14:08Z</time></trkpt><trkpt lat="35.98589707588721" lon="-107.03478292018072"><ele>2112.0</ele><time>2026-05-03T16:14:09Z</time></trkpt><trkpt lat="35.98586299157446" lon="-107.03464681583583"><ele>2111.0</ele><time>2026-05-03T16:14:10Z</time></trkpt><trkpt lat="35.98583437384259" lon="-107.0345575709406"><ele>2110.0</ele><time>2026-05-03T16:14:11Z</time></trkpt><trkpt lat="35.98579741336717" lon="-107.03449006867389"><ele>2109.0</ele><time>2026-05-03T16:14:12Z</time></trkpt><trkpt lat="35.985811859043714" lon="-107.03434654752297"><ele>2108.0</ele><time>2026-05-03T16:14:14Z</time></trkpt><trkpt lat="35.985821257822174" lon="-107.03423259559214"><ele>2107.0</ele><time>2026-05-03T16:14:15Z</time></trkpt><trkpt lat="35.98580641873272" lon="-107.0341487076843"><ele>2106.0</ele><time>2026-05-03T16:14:16Z</time></trkpt><trkpt lat="35.985726762568916" lon="-107.03406448954163"><ele>2106.0</ele><time>2026-05-03T16:14:17Z</time></trkpt><trkpt lat="35.98569154161935" lon="-107.03395806190854"><ele>2106.0</ele><time>2026-05-03T16:14:18Z</time></trkpt><trkpt lat="35.98571273957459" lon="-107.03381326647653"><ele>2106.0</ele><time>2026-05-03T16:14:19Z</time></trkpt><trkpt lat="35.98571720160648" lon="-107.03367895004943"><ele>2106.0</ele><time>2026-05-03T16:14:20Z</time></trkpt><trkpt lat="35.98568880623463" lon="-107.03355883346387"><ele>2106.0</ele><time>2026-05-03T16:14:21Z</time></trkpt><trkpt lat="35.98562358018452" lon="-107.0334459894175"><ele>2106.0</ele><time>2026-05-03T16:14:22Z</time></trkpt><trkpt lat="35.985558820855346" lon="-107.03339162993515"><ele>2106.0</ele><time>2026-05-03T16:14:23Z</time></trkpt><trkpt lat="35.98549357054877" lon="-107.03338603648365"><ele>2106.0</ele><time>2026-05-03T16:14:24Z</time></trkpt><trkpt lat="35.98541247517415" lon="-107.03337526127659"><ele>2106.0</ele><time>2026-05-03T16:14:25Z</time></trkpt><trkpt lat="35.98530556778877" lon="-107.03334447391718"><ele>2106.0</ele><time>2026-05-03T16:14:26Z</time></trkpt><trkpt lat="35.985189946069745" lon="-107.03333635746283"><ele>2106.0</ele><time>2026-05-03T16:14:27Z</time></trkpt><trkpt lat="35.98509713682539" lon="-107.0333562210972"><ele>2106.0</ele><time>2026-05-03T16:14:28Z</time></trkpt><trkpt lat="35.9849949603044" lon="-107.03336430787678"><ele>2106.0</ele><time>2026-05-03T16:14:29Z</time></trkpt><trkpt lat="35.98491409559602" lon="-107.0332945496371"><ele>2106.0</ele><time>2026-05-03T16:14:30Z</time></trkpt><trkpt lat="35.98488188380456" lon="-107.03320347763486"><ele>2106.0</ele><time>2026-05-03T16:14:31Z</time></trkpt><trkpt lat="35.98483633352253" lon="-107.03308209390137"><ele>2106.5</ele><time>2026-05-03T16:14:32Z</time></trkpt><trkpt lat="35.98478756842579" lon="-107.03295552720796"><ele>2107.0</ele><time>2026-05-03T16:14:33Z</time></trkpt><trkpt lat="35.98470258028914" lon="-107.03281101152015"><ele>2107.5</ele><time>2026-05-03T16:14:34Z</time></trkpt><trkpt lat="35.98460895815068" lon="-107.03263408374745"><ele>2108.0</ele><time>2026-05-03T16:14:35Z</time></trkpt><trkpt lat="35.98453829217983" lon="-107.03242860040122"><ele>2110.0</ele><time>2026-05-03T16:14:36Z</time></trkpt><trkpt lat="35.984452822396044" lon="-107.03222970813756"><ele>2112.0</ele><time>2026-05-03T16:14:37Z</time></trkpt><trkpt lat="35.98434487323869" lon="-107.03213044580968"><ele>2114.0</ele><time>2026-05-03T16:14:38Z</time></trkpt><trkpt lat="35.984246704870536" lon="-107.03205697696822"><ele>2116.0</ele><time>2026-05-03T16:14:39Z</time></trkpt><trkpt lat="35.9842105699556" lon="-107.0319696910975"><ele>2116.0</ele><time>2026-05-03T16:14:40Z</time></trkpt><trkpt lat="35.98424413287947" lon="-107.0318295553503"><ele>2116.0</ele><time>2026-05-03T16:14:41Z</time></trkpt><trkpt lat="35.98424513504239" lon="-107.0316745370159"><ele>2116.0</ele><time>2026-05-03T16:14:42Z</time></trkpt><trkpt lat="35.984211252018504" lon="-107.03151679504766"><ele>2116.0</ele><time>2026-05-03T16:14:43Z</time></trkpt><trkpt lat="35.98421043049684" lon="-107.03141337267941"><ele>2115.2</ele><time>2026-05-03T16:14:44Z</time></trkpt><trkpt lat="35.98424797912835" lon="-107.03129079292214"><ele>2114.3999999999996</ele><time>2026-05-03T16:14:45Z</time></trkpt><trkpt lat="35.984272460017536" lon="-107.03116786098768"><ele>2113.6</ele><time>2026-05-03T16:14:46Z</time></trkpt><trkpt lat="35.98427081559486" lon="-107.03107094815796"><ele>2112.7999999999997</ele><time>2026-05-03T16:14:47Z</time></trkpt><trkpt lat="35.98417609043729" lon="-107.03099665938409"><ele>2112.0</ele><time>2026-05-03T16:14:49Z</time></trkpt><trkpt lat="35.984090760955475" lon="-107.03100536401159"><ele>2110.0</ele><time>2026-05-03T16:14:50Z</time></trkpt><trkpt lat="35.98396285310806" lon="-107.03107917139748"><ele>2108.0</ele><time>2026-05-03T16:14:51Z</time></trkpt><trkpt lat="35.98383162011692" lon="-107.0311479095412"><ele>2106.0</ele><time>2026-05-03T16:14:52Z</time></trkpt><trkpt lat="35.983695781299296" lon="-107.03118137222616"><ele>2104.0</ele><time>2026-05-03T16:14:53Z</time></trkpt><trkpt lat="35.983593707721234" lon="-107.03116113973911"><ele>2104.0</ele><time>2026-05-03T16:14:54Z</time></trkpt><trkpt lat="35.983539190312314" lon="-107.03109299447671"><ele>2104.0</ele><time>2026-05-03T16:14:55Z</time></trkpt><trkpt lat="35.98352009095114" lon="-107.03101057722581"><ele>2104.0</ele><time>2026-05-03T16:14:56Z</time></trkpt><trkpt lat="35.983541728336775" lon="-107.03085347190097"><ele>2104.0</ele><time>2026-05-03T16:14:58Z</time></trkpt><trkpt lat="35.98357331792218" lon="-107.03078140994818"><ele>2104.0</ele><time>2026-05-03T16:14:59Z</time></trkpt><trkpt lat="35.98364824330486" lon="-107.03072956922132"><ele>2104.0</ele><time>2026-05-03T16:15:00Z</time></trkpt><trkpt lat="35.983736272883846" lon="-107.03065681862114"><ele>2103.6</ele><time>2026-05-03T16:15:01Z</time></trkpt><trkpt lat="35.98382581571686" lon="-107.03057773043973"><ele>2103.2</ele><time>2026-05-03T16:15:02Z</time></trkpt><trkpt lat="35.983885727342674" lon="-107.03050798452645"><ele>2102.7999999999997</ele><time>2026-05-03T16:15:03Z</time></trkpt><trkpt lat="35.98394699182979" lon="-107.03039086796399"><ele>2102.4</ele><time>2026-05-03T16:15:04Z</time></trkpt><trkpt lat="35.98401876085889" lon="-107.03024034184567"><ele>2102.0</ele><time>2026-05-03T16:15:05Z</time></trkpt><trkpt lat="35.98410995695867" lon="-107.03014124212235"><ele>2102.0</ele><time>2026-05-03T16:15:06Z</time></trkpt><trkpt lat="35.984167278664664" lon="-107.03009174840408"><ele>2102.0</ele><time>2026-05-03T16:15:07Z</time></trkpt><trkpt lat="35.98426238731089" lon="-107.03004209569758"><ele>2102.0</ele><time>2026-05-03T16:15:09Z</time></trkpt><trkpt lat="35.984359380789456" lon="-107.03009017008654"><ele>2102.0</ele><time>2026-05-03T16:15:10Z</time></trkpt><trkpt lat="35.984510595982805" lon="-107.03013647256697"><ele>2102.0</ele><time>2026-05-03T16:15:11Z</time></trkpt><trkpt lat="35.98461948483203" lon="-107.03016193661615"><ele>2102.2</ele><time>2026-05-03T16:15:12Z</time></trkpt><trkpt lat="35.98467721560913" lon="-107.03011930701186"><ele>2102.3999999999996</ele><time>2026-05-03T16:15:13Z</time></trkpt><trkpt lat="35.984728921141524" lon="-107.03003270899431"><ele>2102.6000000000004</ele><time>2026-05-03T16:15:14Z</time></trkpt><trkpt lat="35.98482869967538" lon="-107.02992708025653"><ele>2102.8</ele><time>2026-05-03T16:15:15Z</time></trkpt><trkpt lat="35.98496267718378" lon="-107.02982160203518"><ele>2103.0</ele><time>2026-05-03T16:15:16Z</time></trkpt><trkpt lat="35.98506332279968" lon="-107.02974350217683"><ele>2103.2000000000003</ele><time>2026-05-03T16:15:17Z</time></trkpt><trkpt lat="35.9851347363383" lon="-107.02960358623336"><ele>2103.4</ele><time>2026-05-03T16:15:18Z</time></trkpt><trkpt lat="35.98519070654065" lon="-107.02950622599757"><ele>2103.6000000000004</ele><time>2026-05-03T16:15:19Z</time></trkpt><trkpt lat="35.98520558171227" lon="-107.0294298225803"><ele>2103.8</ele><time>2026-05-03T16:15:20Z</time></trkpt><trkpt lat="35.98521736709567" lon="-107.02929573616879"><ele>2104.0</ele><time>2026-05-03T16:15:21Z</time></trkpt><trkpt lat="35.98517793207943" lon="-107.02912727177797"><ele>2104.0</ele><time>2026-05-03T16:15:22Z</time></trkpt><trkpt lat="35.98515560394996" lon="-107.02896049784347"><ele>2104.0</ele><time>2026-05-03T16:15:23Z</time></trkpt><trkpt lat="35.985138609684526" lon="-107.02881950878505"><ele>2104.0</ele><time>2026-05-03T16:15:24Z</time></trkpt><trkpt lat="35.98512907443746" lon="-107.02871257863475"><ele>2104.0</ele><time>2026-05-03T16:15:25Z</time></trkpt><trkpt lat="35.98516435421768" lon="-107.02859705672519"><ele>2104.0</ele><time>2026-05-03T16:15:26Z</time></trkpt><trkpt lat="35.985205706363374" lon="-107.0284413809973"><ele>2104.0</ele><time>2026-05-03T16:15:27Z</time></trkpt><trkpt lat="35.985192831664236" lon="-107.02829099381222"><ele>2104.0</ele><time>2026-05-03T16:15:28Z</time></trkpt><trkpt lat="35.985136151526845" lon="-107.02813697903369"><ele>2104.0</ele><time>2026-05-03T16:15:29Z</time></trkpt><trkpt lat="35.98510361038459" lon="-107.02796230289562"><ele>2104.0</ele><time>2026-05-03T16:15:30Z</time></trkpt><trkpt lat="35.985090535943925" lon="-107.02779351071744"><ele>2104.0</ele><time>2026-05-03T16:15:31Z</time></trkpt><trkpt lat="35.98508515552436" lon="-107.02765551415507"><ele>2104.0</ele><time>2026-05-03T16:15:32Z</time></trkpt><trkpt lat="35.985092476544" lon="-107.02755882214971"><ele>2104.0</ele><time>2026-05-03T16:15:33Z</time></trkpt><trkpt lat="35.9851289335812" lon="-107.02745745543862"><ele>2104.0</ele><time>2026-05-03T16:15:34Z</time></trkpt><trkpt lat="35.985172737866804" lon="-107.02734631097813"><ele>2104.0</ele><time>2026-05-03T16:15:35Z</time></trkpt><trkpt lat="35.98519192366609" lon="-107.02717714233347"><ele>2104.5</ele><time>2026-05-03T16:15:36Z</time></trkpt><trkpt lat="35.98518983653796" lon="-107.02701022541508"><ele>2105.0</ele><time>2026-05-03T16:15:37Z</time></trkpt><trkpt lat="35.985192017357534" lon="-107.02687533322312"><ele>2105.5</ele><time>2026-05-03T16:15:38Z</time></trkpt><trkpt lat="35.985217927410346" lon="-107.02672306662592"><ele>2106.0</ele><time>2026-05-03T16:15:39Z</time></trkpt><trkpt lat="35.98522497863158" lon="-107.0265831453312"><ele>2107.2</ele><time>2026-05-03T16:15:40Z</time></trkpt><trkpt lat="35.98523316310554" lon="-107.02644475187394"><ele>2108.3999999999996</ele><time>2026-05-03T16:15:41Z</time></trkpt><trkpt lat="35.98525429759746" lon="-107.02632283853335"><ele>2109.6</ele><time>2026-05-03T16:15:42Z</time></trkpt><trkpt lat="35.98527096723363" lon="-107.02620763105256"><ele>2110.7999999999997</ele><time>2026-05-03T16:15:43Z</time></trkpt><trkpt lat="35.98528420961429" lon="-107.02611427292277"><ele>2112.0</ele><time>2026-05-03T16:15:44Z</time></trkpt><trkpt lat="35.98526197864945" lon="-107.02601474517273"><ele>2112.0</ele><time>2026-05-03T16:15:45Z</time></trkpt><trkpt lat="35.98522291737855" lon="-107.02587532574034"><ele>2112.0</ele><time>2026-05-03T16:15:46Z</time></trkpt><trkpt lat="35.98519157694323" lon="-107.02578302148453"><ele>2112.0</ele><time>2026-05-03T16:15:47Z</time></trkpt><trkpt lat="35.985157666940246" lon="-107.02568479254593"><ele>2112.0</ele><time>2026-05-03T16:15:48Z</time></trkpt><trkpt lat="35.985205952964435" lon="-107.02558668995889"><ele>2112.0</ele><time>2026-05-03T16:15:49Z</time></trkpt><trkpt lat="35.98528499529271" lon="-107.02549433563557"><ele>2112.0</ele><time>2026-05-03T16:15:50Z</time></trkpt><trkpt lat="35.98537939502263" lon="-107.02542011906108"><ele>2112.0</ele><time>2026-05-03T16:15:51Z</time></trkpt><trkpt lat="35.98548459649456" lon="-107.0253437469266"><ele>2112.0</ele><time>2026-05-03T16:15:52Z</time></trkpt><trkpt lat="35.98559912740914" lon="-107.02525686598518"><ele>2112.0</ele><time>2026-05-03T16:15:53Z</time></trkpt><trkpt lat="35.98568749529473" lon="-107.02516424088265"><ele>2112.0</ele><time>2026-05-03T16:15:54Z</time></trkpt><trkpt lat="35.98574191088394" lon="-107.02506703266421"><ele>2112.0</ele><time>2026-05-03T16:15:55Z</time></trkpt><trkpt lat="35.98579098136239" lon="-107.0249952978014"><ele>2112.0</ele><time>2026-05-03T16:15:56Z</time></trkpt><trkpt lat="35.98589277874352" lon="-107.02496579535399"><ele>2112.0</ele><time>2026-05-03T16:15:58Z</time></trkpt><trkpt lat="35.98598420082436" lon="-107.02493392630335"><ele>2112.0</ele><time>2026-05-03T16:15:59Z</time></trkpt><trkpt lat="35.986069908150455" lon="-107.02484333019159"><ele>2112.5</ele><time>2026-05-03T16:16:00Z</time></trkpt><trkpt lat="35.986124274785176" lon="-107.02472314997874"><ele>2113.0</ele><time>2026-05-03T16:16:01Z</time></trkpt><trkpt lat="35.986141522732694" lon="-107.02456118444162"><ele>2113.5</ele><time>2026-05-03T16:16:02Z</time></trkpt><trkpt lat="35.986191394882205" lon="-107.02440531343234"><ele>2114.0</ele><time>2026-05-03T16:16:03Z</time></trkpt><trkpt lat="35.986240602444646" lon="-107.02430630817743"><ele>2114.0</ele><time>2026-05-03T16:16:04Z</time></trkpt><trkpt lat="35.98628216223765" lon="-107.02423391567761"><ele>2114.0</ele><time>2026-05-03T16:16:05Z</time></trkpt><trkpt lat="35.98639787086255" lon="-107.02416473876231"><ele>2114.0</ele><time>2026-05-03T16:16:07Z</time></trkpt><trkpt lat="35.98649711628789" lon="-107.02416630933594"><ele>2114.0</ele><time>2026-05-03T16:16:08Z</time></trkpt><trkpt lat="35.98656276808839" lon="-107.02421332253951"><ele>2114.0</ele><time>2026-05-03T16:16:09Z</time></trkpt><trkpt lat="35.98662719035619" lon="-107.02421498140922"><ele>2114.0</ele><time>2026-05-03T16:16:10Z</time></trkpt><trkpt lat="35.98671379932592" lon="-107.0241033348141"><ele>2114.333333333333</ele><time>2026-05-03T16:16:12Z</time></trkpt><trkpt lat="35.986690487408325" lon="-107.02402689936707"><ele>2114.6666666666665</ele><time>2026-05-03T16:16:13Z</time></trkpt><trkpt lat="35.98665855837281" lon="-107.02394739802698"><ele>2115.0</ele><time>2026-05-03T16:16:14Z</time></trkpt><trkpt lat="35.986626228346786" lon="-107.02386922195596"><ele>2115.3333333333335</ele><time>2026-05-03T16:16:15Z</time></trkpt><trkpt lat="35.98663268242268" lon="-107.0237198559867"><ele>2115.666666666667</ele><time>2026-05-03T16:16:17Z</time></trkpt><trkpt lat="35.98663824523928" lon="-107.02361764027039"><ele>2116.0</ele><time>2026-05-03T16:16:18Z</time></trkpt><trkpt lat="35.986572867292224" lon="-107.02350062375469"><ele>2116.0</ele><time>2026-05-03T16:16:20Z</time></trkpt><trkpt lat="35.98657984548458" lon="-107.02340643450148"><ele>2116.0</ele><time>2026-05-03T16:16:21Z</time></trkpt><trkpt lat="35.98664110790931" lon="-107.02331555847299"><ele>2116.0</ele><time>2026-05-03T16:16:22Z</time></trkpt><trkpt lat="35.98668176862235" lon="-107.02324098906948"><ele>2116.0</ele><time>2026-05-03T16:16:23Z</time></trkpt><trkpt lat="35.986674825607075" lon="-107.02316224961787"><ele>2116.0</ele><time>2026-05-03T16:16:24Z</time></trkpt><trkpt lat="35.98660561300189" lon="-107.0230551479293"><ele>2116.0</ele><time>2026-05-03T16:16:25Z</time></trkpt><trkpt lat="35.98654835754277" lon="-107.02299421839189"><ele>2116.4</ele><time>2026-05-03T16:16:26Z</time></trkpt><trkpt lat="35.98658574579473" lon="-107.02283106238933"><ele>2116.8</ele><time>2026-05-03T16:16:28Z</time></trkpt><trkpt lat="35.98663934742663" lon="-107.02273718265864"><ele>2117.2000000000003</ele><time>2026-05-03T16:16:29Z</time></trkpt><trkpt lat="35.98662969301483" lon="-107.02264022782857"><ele>2117.6</ele><time>2026-05-03T16:16:30Z</time></trkpt><trkpt lat="35.98656896554015" lon="-107.02252632831463"><ele>2118.0</ele><time>2026-05-03T16:16:32Z</time></trkpt><trkpt lat="35.98653392140708" lon="-107.02240859381511"><ele>2118.5</ele><time>2026-05-03T16:16:34Z</time></trkpt><trkpt lat="35.986521256213074" lon="-107.02232342664843"><ele>2119.0</ele><time>2026-05-03T16:16:35Z</time></trkpt><trkpt lat="35.98650883742852" lon="-107.02220618495257"><ele>2119.5</ele><time>2026-05-03T16:16:36Z</time></trkpt><trkpt lat="35.986511542674926" lon="-107.02209469056908"><ele>2120.0</ele><time>2026-05-03T16:16:38Z</time></trkpt><trkpt lat="35.98650800677406" lon="-107.02196334761898"><ele>2120.5</ele><time>2026-05-03T16:16:40Z</time></trkpt><trkpt lat="35.98646371961096" lon="-107.02189323641588"><ele>2121.0</ele><time>2026-05-03T16:16:41Z</time></trkpt><trkpt lat="35.98641369411567" lon="-107.02182947634935"><ele>2121.0</ele><time>2026-05-03T16:16:42Z</time></trkpt><trkpt lat="35.98636216905416" lon="-107.02177222616342"><ele>2121.0</ele><time>2026-05-03T16:16:43Z</time></trkpt><trkpt lat="35.98631143322282" lon="-107.0217162664652"><ele>2121.0</ele><time>2026-05-03T16:16:44Z</time></trkpt><trkpt lat="35.986243589914196" lon="-107.02162048591263"><ele>2121.0</ele><time>2026-05-03T16:16:46Z</time></trkpt><trkpt lat="35.98626703055507" lon="-107.02145078287009"><ele>2121.0</ele><time>2026-05-03T16:16:48Z</time></trkpt><trkpt lat="35.98621670299111" lon="-107.02134090768367"><ele>2121.4</ele><time>2026-05-03T16:16:50Z</time></trkpt><trkpt lat="35.98607344607536" lon="-107.02126647223882"><ele>2121.8</ele><time>2026-05-03T16:16:52Z</time></trkpt><trkpt lat="35.98595802508275" lon="-107.02130252485935"><ele>2122.2000000000003</ele><time>2026-05-03T16:16:53Z</time></trkpt><trkpt lat="35.98586144219957" lon="-107.02134726638168"><ele>2122.6</ele><time>2026-05-03T16:16:54Z</time></trkpt><trkpt lat="35.98581017833248" lon="-107.02139506141563"><ele>2123.0</ele><time>2026-05-03T16:16:55Z</time></trkpt><trkpt lat="35.98575132161014" lon="-107.02144841602372"><ele>2122.8</ele><time>2026-05-03T16:16:56Z</time></trkpt><trkpt lat="35.98568762514333" lon="-107.02148745895663"><ele>2122.6000000000004</ele><time>2026-05-03T16:16:57Z</time></trkpt><trkpt lat="35.985681578897236" lon="-107.0216334745381"><ele>2122.3999999999996</ele><time>2026-05-03T16:16:59Z</time></trkpt><trkpt lat="35.98572643683851" lon="-107.02176163491546"><ele>2122.2</ele><time>2026-05-03T16:17:00Z</time></trkpt><trkpt lat="35.985807846329635" lon="-107.0218594642037"><ele>2122.0</ele><time>2026-05-03T16:17:01Z</time></trkpt><trkpt lat="35.98587268316704" lon="-107.02187771208943"><ele>2121.7999999999997</ele><time>2026-05-03T16:17:02Z</time></trkpt><trkpt lat="35.98599131479266" lon="-107.0218732756464"><ele>2121.6</ele><time>2026-05-03T16:17:03Z</time></trkpt><trkpt lat="35.98608548081736" lon="-107.02190869499594"><ele>2121.3999999999996</ele><time>2026-05-03T16:17:04Z</time></trkpt><trkpt lat="35.986155550804185" lon="-107.02202015508965"><ele>2121.2</ele><time>2026-05-03T16:17:05Z</time></trkpt><trkpt lat="35.986180472890034" lon="-107.02215410316727"><ele>2121.0</ele><time>2026-05-03T16:17:06Z</time></trkpt><trkpt lat="35.98616615429183" lon="-107.02230546147264"><ele>2121.0</ele><time>2026-05-03T16:17:07Z</time></trkpt><trkpt lat="35.98613183927991" lon="-107.02248088508043"><ele>2121.0</ele><time>2026-05-03T16:17:08Z</time></trkpt><trkpt lat="35.98610037417592" lon="-107.02269564313052"><ele>2121.0</ele><time>2026-05-03T16:17:09Z</time></trkpt><trkpt lat="35.98608166025307" lon="-107.02291222937757"><ele>2120.0</ele><time>2026-05-03T16:17:10Z</time></trkpt><trkpt lat="35.98604977258731" lon="-107.02312504854694"><ele>2119.0</ele><time>2026-05-03T16:17:11Z</time></trkpt><trkpt lat="35.98601725230683" lon="-107.02330800641187"><ele>2118.0</ele><time>2026-05-03T16:17:12Z</time></trkpt><trkpt lat="35.986000016580846" lon="-107.02348310539709"><ele>2118.3333333333335</ele><time>2026-05-03T16:17:13Z</time></trkpt><trkpt lat="35.98595056958097" lon="-107.0236864141035"><ele>2118.666666666667</ele><time>2026-05-03T16:17:14Z</time></trkpt><trkpt lat="35.98586643396961" lon="-107.02389764103219"><ele>2119.0</ele><time>2026-05-03T16:17:15Z</time></trkpt><trkpt lat="35.98579417086458" lon="-107.02406219531072"><ele>2118.0</ele><time>2026-05-03T16:17:16Z</time></trkpt><trkpt lat="35.98573984089349" lon="-107.02419788170405"><ele>2117.0</ele><time>2026-05-03T16:17:17Z</time></trkpt><trkpt lat="35.98570530430024" lon="-107.02432717262059"><ele>2116.0</ele><time>2026-05-03T16:17:18Z</time></trkpt><trkpt lat="35.985607814928215" lon="-107.02430469404216"><ele>2115.0</ele><time>2026-05-03T16:17:20Z</time></trkpt><trkpt lat="35.98553974483851" lon="-107.02428894408074"><ele>2114.0</ele><time>2026-05-03T16:17:21Z</time></trkpt><trkpt lat="35.98544693638483" lon="-107.02431632004307"><ele>2114.0</ele><time>2026-05-03T16:17:22Z</time></trkpt><trkpt lat="35.98537440428898" lon="-107.02436391917466"><ele>2114.0</ele><time>2026-05-03T16:17:23Z</time></trkpt><trkpt lat="35.98530287230631" lon="-107.02447371597006"><ele>2114.0</ele><time>2026-05-03T16:17:24Z</time></trkpt><trkpt lat="35.98519214697074" lon="-107.0246001676497"><ele>2114.0</ele><time>2026-05-03T16:17:25Z</time></trkpt><trkpt lat="35.98510114722806" lon="-107.02468926530084"><ele>2114.0</ele><time>2026-05-03T16:17:26Z</time></trkpt><trkpt lat="35.985045770114304" lon="-107.02477531045335"><ele>2114.0</ele><time>2026-05-03T16:17:27Z</time></trkpt><trkpt lat="35.98503949226132" lon="-107.02485504513393"><ele>2114.0</ele><time>2026-05-03T16:17:28Z</time></trkpt><trkpt lat="35.985055912084086" lon="-107.02498588937576"><ele>2114.0</ele><time>2026-05-03T16:17:29Z</time></trkpt><trkpt lat="35.985019128497306" lon="-107.02512422202246"><ele>2114.0</ele><time>2026-05-03T16:17:30Z</time></trkpt><trkpt lat="35.98493201859767" lon="-107.02523121653326"><ele>2113.4</ele><time>2026-05-03T16:17:31Z</time></trkpt><trkpt lat="35.98484510144294" lon="-107.02534635618356"><ele>2112.8</ele><time>2026-05-03T16:17:32Z</time></trkpt><trkpt lat="35.9847566103653" lon="-107.02537939562497"><ele>2112.2</ele><time>2026-05-03T16:17:33Z</time></trkpt><trkpt lat="35.98467777459855" lon="-107.02539494615966"><ele>2111.6</ele><time>2026-05-03T16:17:34Z</time></trkpt><trkpt lat="35.98460026048017" lon="-107.02535361145704"><ele>2111.0</ele><time>2026-05-03T16:17:35Z</time></trkpt><trkpt lat="35.98448872141507" lon="-107.02531523963938"><ele>2111.0</ele><time>2026-05-03T16:17:36Z</time></trkpt><trkpt lat="35.98436491733515" lon="-107.02533902435522"><ele>2111.0</ele><time>2026-05-03T16:17:37Z</time></trkpt><trkpt lat="35.984247975086774" lon="-107.02533559852682"><ele>2111.0</ele><time>2026-05-03T16:17:38Z</time></trkpt><trkpt lat="35.9841541736531" lon="-107.02534430978513"><ele>2111.0</ele><time>2026-05-03T16:17:39Z</time></trkpt><trkpt lat="35.98406083469782" lon="-107.02539508998109"><ele>2111.0</ele><time>2026-05-03T16:17:40Z</time></trkpt><trkpt lat="35.98396953371557" lon="-107.02545173578015"><ele>2112.25</ele><time>2026-05-03T16:17:41Z</time></trkpt><trkpt lat="35.98386983968977" lon="-107.02551945284878"><ele>2113.5</ele><time>2026-05-03T16:17:42Z</time></trkpt><trkpt lat="35.983744802058425" lon="-107.02561518638889"><ele>2114.75</ele><time>2026-05-03T16:17:43Z</time></trkpt><trkpt lat="35.98360596710698" lon="-107.02568984784412"><ele>2116.0</ele><time>2026-05-03T16:17:44Z</time></trkpt><trkpt lat="35.98347711759192" lon="-107.0257104309035"><ele>2116.0</ele><time>2026-05-03T16:17:45Z</time></trkpt><trkpt lat="35.9833746529704" lon="-107.02568590161037"><ele>2116.0</ele><time>2026-05-03T16:17:46Z</time></trkpt><trkpt lat="35.98329881336205" lon="-107.02560139992924"><ele>2116.0</ele><time>2026-05-03T16:17:48Z</time></trkpt><trkpt lat="35.98330693629971" lon="-107.02550877964636"><ele>2116.0</ele><time>2026-05-03T16:17:49Z</time></trkpt><trkpt lat="35.9833342527847" lon="-107.02543414243401"><ele>2116.0</ele><time>2026-05-03T16:17:50Z</time></trkpt><trkpt lat="35.98339990694594" lon="-107.02531630116285"><ele>2116.0</ele><time>2026-05-03T16:17:51Z</time></trkpt><trkpt lat="35.983437724068786" lon="-107.0251680488613"><ele>2116.0</ele><time>2026-05-03T16:17:52Z</time></trkpt><trkpt lat="35.98346394522576" lon="-107.02505119071562"><ele>2116.0</ele><time>2026-05-03T16:17:53Z</time></trkpt><trkpt lat="35.98335422598286" lon="-107.02507182708605"><ele>2116.0</ele><time>2026-05-03T16:17:55Z</time></trkpt><trkpt lat="35.983241496602226" lon="-107.02507266328509"><ele>2116.0</ele><time>2026-05-03T16:17:56Z</time></trkpt><trkpt lat="35.983148275459186" lon="-107.02509364198019"><ele>2115.0</ele><time>2026-05-03T16:17:57Z</time></trkpt><trkpt lat="35.983054898161306" lon="-107.02512608761523"><ele>2114.0</ele><time>2026-05-03T16:17:58Z</time></trkpt><trkpt lat="35.98297841637082" lon="-107.0251771202354"><ele>2113.0</ele><time>2026-05-03T16:17:59Z</time></trkpt><trkpt lat="35.98292083749231" lon="-107.02523911058864"><ele>2112.0</ele><time>2026-05-03T16:18:00Z</time></trkpt><trkpt lat="35.982861232303854" lon="-107.0253364714184"><ele>2111.0</ele><time>2026-05-03T16:18:01Z</time></trkpt><trkpt lat="35.98281328053573" lon="-107.02540889742436"><ele>2110.0</ele><time>2026-05-03T16:18:02Z</time></trkpt><trkpt lat="35.98278578349277" lon="-107.0254956012748"><ele>2110.0</ele><time>2026-05-03T16:18:03Z</time></trkpt><trkpt lat="35.98275144714106" lon="-107.02557936154204"><ele>2110.0</ele><time>2026-05-03T16:18:04Z</time></trkpt><trkpt lat="35.98268458501748" lon="-107.02564157263157"><ele>2110.0</ele><time>2026-05-03T16:18:05Z</time></trkpt><trkpt lat="35.9825946035371" lon="-107.02565204224814"><ele>2110.0</ele><time>2026-05-03T16:18:06Z</time></trkpt><trkpt lat="35.982490911476354" lon="-107.02563194957006"><ele>2110.0</ele><time>2026-05-03T16:18:07Z</time></trkpt><trkpt lat="35.9823904014457" lon="-107.02560555308926"><ele>2109.8</ele><time>2026-05-03T16:18:08Z</time></trkpt><trkpt lat="35.982301043331816" lon="-107.02559567090181"><ele>2109.6</ele><time>2026-05-03T16:18:09Z</time></trkpt><trkpt lat="35.98220655671496" lon="-107.02561863966967"><ele>2109.4</ele><time>2026-05-03T16:18:10Z</time></trkpt><trkpt lat="35.98213907824828" lon="-107.02545952207241"><ele>2109.2</ele><time>2026-05-03T16:18:12Z</time></trkpt><trkpt lat="35.982108461509696" lon="-107.02533650682281"><ele>2109.0</ele><time>2026-05-03T16:18:13Z</time></trkpt><trkpt lat="35.982078728819886" lon="-107.02521781953082"><ele>2109.0</ele><time>2026-05-03T16:18:14Z</time></trkpt><trkpt lat="35.98195175963755" lon="-107.02533068742918"><ele>2109.0</ele><time>2026-05-03T16:18:17Z</time></trkpt><trkpt lat="35.981849325008575" lon="-107.02539786330507"><ele>2109.0</ele><time>2026-05-03T16:18:18Z</time></trkpt><trkpt lat="35.98174454277158" lon="-107.02550371096156"><ele>2109.0</ele><time>2026-05-03T16:18:19Z</time></trkpt><trkpt lat="35.98165540980657" lon="-107.02562396326462"><ele>2108.75</ele><time>2026-05-03T16:18:20Z</time></trkpt><trkpt lat="35.98157498905154" lon="-107.02573363482787"><ele>2108.5</ele><time>2026-05-03T16:18:21Z</time></trkpt><trkpt lat="35.98150758580775" lon="-107.02583148081959"><ele>2108.25</ele><time>2026-05-03T16:18:22Z</time></trkpt><trkpt lat="35.981453663694275" lon="-107.02591336525325"><ele>2108.0</ele><time>2026-05-03T16:18:23Z</time></trkpt><trkpt lat="35.98141218269308" lon="-107.02608568728871"><ele>2107.4</ele><time>2026-05-03T16:18:26Z</time></trkpt><trkpt lat="35.9813426232272" lon="-107.0261583870254"><ele>2106.8</ele><time>2026-05-03T16:18:27Z</time></trkpt><trkpt lat="35.98127813174956" lon="-107.02621062786825"><ele>2106.2</ele><time>2026-05-03T16:18:28Z</time></trkpt><trkpt lat="35.981184785830386" lon="-107.0263005416879"><ele>2105.6</ele><time>2026-05-03T16:18:29Z</time></trkpt><trkpt lat="35.981109740056205" lon="-107.02638016454928"><ele>2105.0</ele><time>2026-05-03T16:18:30Z</time></trkpt><trkpt lat="35.9810320090619" lon="-107.0263318119404"><ele>2105.0</ele><time>2026-05-03T16:18:33Z</time></trkpt><trkpt lat="35.980991542570905" lon="-107.02625872410033"><ele>2105.0</ele><time>2026-05-03T16:18:34Z</time></trkpt><trkpt lat="35.98093224314661" lon="-107.02611020019329"><ele>2105.0</ele><time>2026-05-03T16:18:36Z</time></trkpt><trkpt lat="35.98095753243597" lon="-107.0259887382003"><ele>2105.0</ele><time>2026-05-03T16:18:37Z</time></trkpt><trkpt lat="35.98100887909314" lon="-107.02589575616074"><ele>2105.0</ele><time>2026-05-03T16:18:38Z</time></trkpt><trkpt lat="35.9810757437324" lon="-107.02579864750696"><ele>2105.75</ele><time>2026-05-03T16:18:39Z</time></trkpt><trkpt lat="35.981114123646805" lon="-107.02569744367999"><ele>2106.5</ele><time>2026-05-03T16:18:40Z</time></trkpt><trkpt lat="35.98108216786381" lon="-107.02557005951752"><ele>2107.25</ele><time>2026-05-03T16:18:41Z</time></trkpt><trkpt lat="35.98101179604742" lon="-107.02538821347753"><ele>2108.0</ele><time>2026-05-03T16:18:42Z</time></trkpt><trkpt lat="35.98093815258221" lon="-107.02520527875575"><ele>2108.0</ele><time>2026-05-03T16:18:43Z</time></trkpt><trkpt lat="35.98088773708824" lon="-107.02504067002603"><ele>2108.0</ele><time>2026-05-03T16:18:44Z</time></trkpt><trkpt lat="35.980892634330225" lon="-107.02491079769455"><ele>2108.0</ele><time>2026-05-03T16:18:45Z</time></trkpt><trkpt lat="35.980933858939075" lon="-107.02478387641388"><ele>2108.0</ele><time>2026-05-03T16:18:46Z</time></trkpt><trkpt lat="35.98099863964627" lon="-107.02463650755284"><ele>2108.1666666666665</ele><time>2026-05-03T16:18:47Z</time></trkpt><trkpt lat="35.98105408522027" lon="-107.02449361799454"><ele>2108.333333333333</ele><time>2026-05-03T16:18:48Z</time></trkpt><trkpt lat="35.9810459611667" lon="-107.02438028265625"><ele>2108.5</ele><time>2026-05-03T16:18:49Z</time></trkpt><trkpt lat="35.98103271666056" lon="-107.02429913193735"><ele>2108.6666666666665</ele><time>2026-05-03T16:18:50Z</time></trkpt><trkpt lat="35.980971476962196" lon="-107.02426348777755"><ele>2108.8333333333335</ele><time>2026-05-03T16:18:51Z</time></trkpt><trkpt lat="35.98088511235278" lon="-107.02423125164901"><ele>2109.0</ele><time>2026-05-03T16:18:52Z</time></trkpt><trkpt lat="35.98075051892733" lon="-107.02419188606746"><ele>2108.1666666666665</ele><time>2026-05-03T16:18:53Z</time></trkpt><trkpt lat="35.98065873082014" lon="-107.0241349750717"><ele>2107.3333333333335</ele><time>2026-05-03T16:18:54Z</time></trkpt><trkpt lat="35.98059787314253" lon="-107.02406215617094"><ele>2106.5</ele><time>2026-05-03T16:18:55Z</time></trkpt><trkpt lat="35.98060324284837" lon="-107.02397282951021"><ele>2105.666666666667</ele><time>2026-05-03T16:18:56Z</time></trkpt><trkpt lat="35.98066870741358" lon="-107.02389519362015"><ele>2104.8333333333335</ele><time>2026-05-03T16:18:58Z</time></trkpt><trkpt lat="35.98069885067946" lon="-107.0238158289096"><ele>2104.0</ele><time>2026-05-03T16:18:59Z</time></trkpt><trkpt lat="35.98072820968667" lon="-107.02369714032703"><ele>2104.0</ele><time>2026-05-03T16:19:00Z</time></trkpt><trkpt lat="35.980781412877356" lon="-107.02354726968217"><ele>2104.0</ele><time>2026-05-03T16:19:01Z</time></trkpt><trkpt lat="35.980841966991015" lon="-107.02342001223053"><ele>2104.0</ele><time>2026-05-03T16:19:02Z</time></trkpt><trkpt lat="35.98093595180241" lon="-107.02332744662037"><ele>2104.0</ele><time>2026-05-03T16:19:03Z</time></trkpt><trkpt lat="35.98104580589089" lon="-107.02329639693437"><ele>2105.0</ele><time>2026-05-03T16:19:04Z</time></trkpt><trkpt lat="35.981175391326715" lon="-107.02330206912569"><ele>2106.0</ele><time>2026-05-03T16:19:05Z</time></trkpt><trkpt lat="35.98130890119584" lon="-107.02327721857655"><ele>2107.0</ele><time>2026-05-03T16:19:06Z</time></trkpt><trkpt lat="35.98139745358364" lon="-107.02324236795766"><ele>2108.0</ele><time>2026-05-03T16:19:07Z</time></trkpt><trkpt lat="35.98145945273162" lon="-107.02322284099499"><ele>2109.0</ele><time>2026-05-03T16:19:08Z</time></trkpt><trkpt lat="35.98152625285965" lon="-107.02318106831996"><ele>2109.0</ele><time>2026-05-03T16:19:09Z</time></trkpt><trkpt lat="35.98158782009738" lon="-107.02310979871956"><ele>2109.0</ele><time>2026-05-03T16:19:10Z</time></trkpt><trkpt lat="35.98166434689045" lon="-107.02304175887609"><ele>2109.0</ele><time>2026-05-03T16:19:11Z</time></trkpt><trkpt lat="35.9817268662978" lon="-107.02298723858246"><ele>2109.0</ele><time>2026-05-03T16:19:12Z</time></trkpt><trkpt lat="35.98179722260132" lon="-107.02293236472798"><ele>2109.0</ele><time>2026-05-03T16:19:13Z</time></trkpt><trkpt lat="35.98186862226883" lon="-107.02288341785894"><ele>2109.0</ele><time>2026-05-03T16:19:14Z</time></trkpt><trkpt lat="35.98189289806086" lon="-107.02277216747639"><ele>2109.0</ele><time>2026-05-03T16:19:16Z</time></trkpt><trkpt lat="35.981818138049924" lon="-107.0226544100398"><ele>2109.0</ele><time>2026-05-03T16:19:17Z</time></trkpt><trkpt lat="35.981749662169264" lon="-107.02251489787595"><ele>2109.0</ele><time>2026-05-03T16:19:18Z</time></trkpt><trkpt lat="35.981715371896236" lon="-107.02240740560508"><ele>2109.0</ele><time>2026-05-03T16:19:19Z</time></trkpt><trkpt lat="35.98166354777215" lon="-107.02233635720778"><ele>2109.0</ele><time>2026-05-03T16:19:21Z</time></trkpt><trkpt lat="35.981587752455" lon="-107.02235786685699"><ele>2109.0</ele><time>2026-05-03T16:19:22Z</time></trkpt><trkpt lat="35.98153095810542" lon="-107.02244030207072"><ele>2109.0</ele><time>2026-05-03T16:19:23Z</time></trkpt><trkpt lat="35.98146598976911" lon="-107.02255720454953"><ele>2109.0</ele><time>2026-05-03T16:19:24Z</time></trkpt><trkpt lat="35.981381429548804" lon="-107.02266251840295"><ele>2109.0</ele><time>2026-05-03T16:19:25Z</time></trkpt><trkpt lat="35.98126037512088" lon="-107.02274474587712"><ele>2109.0</ele><time>2026-05-03T16:19:26Z</time></trkpt><trkpt lat="35.98114853750483" lon="-107.02284040025404"><ele>2109.0</ele><time>2026-05-03T16:19:27Z</time></trkpt><trkpt lat="35.981046627218745" lon="-107.02288631749099"><ele>2109.0</ele><time>2026-05-03T16:19:28Z</time></trkpt><trkpt lat="35.98094464730566" lon="-107.02296602267114"><ele>2109.0</ele><time>2026-05-03T16:19:29Z</time></trkpt><trkpt lat="35.98086925741013" lon="-107.02307528390996"><ele>2109.2</ele><time>2026-05-03T16:19:30Z</time></trkpt><trkpt lat="35.98076628585113" lon="-107.02321653087056"><ele>2109.4</ele><time>2026-05-03T16:19:31Z</time></trkpt><trkpt lat="35.980672254828384" lon="-107.02326768264741"><ele>2109.6</ele><time>2026-05-03T16:19:32Z</time></trkpt><trkpt lat="35.980593534437524" lon="-107.02327939962848"><ele>2109.8</ele><time>2026-05-03T16:19:33Z</time></trkpt><trkpt lat="35.98048800033951" lon="-107.02327689744881"><ele>2110.0</ele><time>2026-05-03T16:19:34Z</time></trkpt><trkpt lat="35.980397600635726" lon="-107.02328862777074"><ele>2108.8</ele><time>2026-05-03T16:19:35Z</time></trkpt><trkpt lat="35.98029373431494" lon="-107.02336160349869"><ele>2107.6</ele><time>2026-05-03T16:19:36Z</time></trkpt><trkpt lat="35.98020429207835" lon="-107.02346830670629"><ele>2106.4</ele><time>2026-05-03T16:19:37Z</time></trkpt><trkpt lat="35.98015330750883" lon="-107.02357725408466"><ele>2105.2</ele><time>2026-05-03T16:19:38Z</time></trkpt><trkpt lat="35.98014680944112" lon="-107.02368187533253"><ele>2104.0</ele><time>2026-05-03T16:19:39Z</time></trkpt><trkpt lat="35.98014571011753" lon="-107.02377550504802"><ele>2104.0</ele><time>2026-05-03T16:19:40Z</time></trkpt><trkpt lat="35.98012072361274" lon="-107.02388193745101"><ele>2104.0</ele><time>2026-05-03T16:19:41Z</time></trkpt><trkpt lat="35.980097837920454" lon="-107.02400119779485"><ele>2104.0</ele><time>2026-05-03T16:19:42Z</time></trkpt><trkpt lat="35.98009682954974" lon="-107.024114095419"><ele>2104.0</ele><time>2026-05-03T16:19:43Z</time></trkpt><trkpt lat="35.98009989233532" lon="-107.02425676093476"><ele>2104.0</ele><time>2026-05-03T16:19:44Z</time></trkpt><trkpt lat="35.98006801055737" lon="-107.02441052502019"><ele>2104.0</ele><time>2026-05-03T16:19:45Z</time></trkpt><trkpt lat="35.98007954205803" lon="-107.02456373554669"><ele>2104.0</ele><time>2026-05-03T16:19:46Z</time></trkpt><trkpt lat="35.98008726521433" lon="-107.02468797356461"><ele>2104.0</ele><time>2026-05-03T16:19:47Z</time></trkpt><trkpt lat="35.980052725827576" lon="-107.02477236226099"><ele>2104.0</ele><time>2026-05-03T16:19:48Z</time></trkpt><trkpt lat="35.97993536447723" lon="-107.02486690301879"><ele>2104.0</ele><time>2026-05-03T16:19:50Z</time></trkpt><trkpt lat="35.97981307080023" lon="-107.02491585194407"><ele>2103.166666666667</ele><time>2026-05-03T16:19:51Z</time></trkpt><trkpt lat="35.97974912835656" lon="-107.02497659107011"><ele>2102.3333333333335</ele><time>2026-05-03T16:19:52Z</time></trkpt><trkpt lat="35.97970011738796" lon="-107.02503581452417"><ele>2101.5</ele><time>2026-05-03T16:19:53Z</time></trkpt><trkpt lat="35.979632709476626" lon="-107.0251002146717"><ele>2100.6666666666665</ele><time>2026-05-03T16:19:55Z</time></trkpt><trkpt lat="35.9795598006716" lon="-107.02503482675696"><ele>2099.833333333333</ele><time>2026-05-03T16:20:00Z</time></trkpt><trkpt lat="35.97948236412216" lon="-107.02504482834271"><ele>2099.0</ele><time>2026-05-03T16:20:02Z</time></trkpt><trkpt lat="35.9794994190428" lon="-107.02516541739487"><ele>2099.0</ele><time>2026-05-03T16:20:04Z</time></trkpt><trkpt lat="35.97947116087254" lon="-107.02524577446161"><ele>2099.0</ele><time>2026-05-03T16:20:07Z</time></trkpt><trkpt lat="35.979388617824945" lon="-107.02526123051781"><ele>2099.0</ele><time>2026-05-03T16:20:09Z</time></trkpt><trkpt lat="35.979268765756224" lon="-107.02534032164425"><ele>2099.0</ele><time>2026-05-03T16:20:11Z</time></trkpt><trkpt lat="35.97917162694361" lon="-107.025390694951"><ele>2099.0</ele><time>2026-05-03T16:20:12Z</time></trkpt><trkpt lat="35.97906177192915" lon="-107.02544563479964"><ele>2098.8</ele><time>2026-05-03T16:20:14Z</time></trkpt><trkpt lat="35.97900171300744" lon="-107.02553002642341"><ele>2098.6000000000004</ele><time>2026-05-03T16:20:16Z</time></trkpt><trkpt lat="35.97896917453621" lon="-107.02565117754823"><ele>2098.4</ele><time>2026-05-03T16:20:17Z</time></trkpt><trkpt lat="35.97890708780267" lon="-107.02573021691926"><ele>2098.2000000000003</ele><time>2026-05-03T16:20:18Z</time></trkpt><trkpt lat="35.978863484923544" lon="-107.02586001835158"><ele>2098.0</ele><time>2026-05-03T16:20:20Z</time></trkpt><trkpt lat="35.978821794006755" lon="-107.02593306141345"><ele>2098.0</ele><time>2026-05-03T16:20:21Z</time></trkpt><trkpt lat="35.978762950854325" lon="-107.0259930599113"><ele>2098.0</ele><time>2026-05-03T16:20:22Z</time></trkpt><trkpt lat="35.978702084275774" lon="-107.02602004377597"><ele>2098.0</ele><time>2026-05-03T16:20:23Z</time></trkpt><trkpt lat="35.97864531725722" lon="-107.02607770529501"><ele>2098.0</ele><time>2026-05-03T16:20:24Z</time></trkpt><trkpt lat="35.978584024301874" lon="-107.02618109388678"><ele>2098.0</ele><time>2026-05-03T16:20:25Z</time></trkpt><trkpt lat="35.97852265990627" lon="-107.0262771110966"><ele>2098.0</ele><time>2026-05-03T16:20:26Z</time></trkpt><trkpt lat="35.97846422578891" lon="-107.02632614973389"><ele>2098.0</ele><time>2026-05-03T16:20:27Z</time></trkpt><trkpt lat="35.97838743376409" lon="-107.02638531074092"><ele>2098.0</ele><time>2026-05-03T16:20:28Z</time></trkpt><trkpt lat="35.9782940109155" lon="-107.02643371940806"><ele>2098.0</ele><time>2026-05-03T16:20:29Z</time></trkpt><trkpt lat="35.97824411897582" lon="-107.02649642929508"><ele>2098.0</ele><time>2026-05-03T16:20:30Z</time></trkpt><trkpt lat="35.97819259331993" lon="-107.02657322928653"><ele>2098.0</ele><time>2026-05-03T16:20:31Z</time></trkpt><trkpt lat="35.97814112857558" lon="-107.02661979495802"><ele>2098.0</ele><time>2026-05-03T16:20:32Z</time></trkpt><trkpt lat="35.97806537138067" lon="-107.02666080048321"><ele>2097.8333333333335</ele><time>2026-05-03T16:20:33Z</time></trkpt><trkpt lat="35.97800126055912" lon="-107.02670520676908"><ele>2097.666666666667</ele><time>2026-05-03T16:20:34Z</time></trkpt><trkpt lat="35.97797012547613" lon="-107.02678148815203"><ele>2097.5</ele><time>2026-05-03T16:20:42Z</time></trkpt><trkpt lat="35.977979954192136" lon="-107.0268975643723"><ele>2097.3333333333335</ele><time>2026-05-03T16:20:45Z</time></trkpt><trkpt lat="35.97801783523622" lon="-107.0269800204924"><ele>2097.1666666666665</ele><time>2026-05-03T16:20:48Z</time></trkpt><trkpt lat="35.97798162172325" lon="-107.02709531022664"><ele>2097.0</ele><time>2026-05-03T16:20:50Z</time></trkpt><trkpt lat="35.977921063744915" lon="-107.02722899322374"><ele>2097.0</ele><time>2026-05-03T16:20:52Z</time></trkpt><trkpt lat="35.977868427002846" lon="-107.0272882079819"><ele>2097.0</ele><time>2026-05-03T16:20:53Z</time></trkpt><trkpt lat="35.977818425080336" lon="-107.02733931194015"><ele>2097.0</ele><time>2026-05-03T16:20:54Z</time></trkpt><trkpt lat="35.97773536833065" lon="-107.02741410982942"><ele>2097.0</ele><time>2026-05-03T16:20:55Z</time></trkpt><trkpt lat="35.97765688102587" lon="-107.02744527077877"><ele>2097.0</ele><time>2026-05-03T16:20:56Z</time></trkpt><trkpt lat="35.977593023663886" lon="-107.02748456322188"><ele>2097.0</ele><time>2026-05-03T16:20:57Z</time></trkpt><trkpt lat="35.97747796402649" lon="-107.0275273598839"><ele>2097.4</ele><time>2026-05-03T16:20:59Z</time></trkpt><trkpt lat="35.977423525361736" lon="-107.02745780821807"><ele>2097.7999999999997</ele><time>2026-05-03T16:21:01Z</time></trkpt><trkpt lat="35.97736411668119" lon="-107.0274300657242"><ele>2098.2</ele><time>2026-05-03T16:21:02Z</time></trkpt><trkpt lat="35.97728999419432" lon="-107.02739707778333"><ele>2098.6</ele><time>2026-05-03T16:21:03Z</time></trkpt><trkpt lat="35.977140922057345" lon="-107.02720688577263"><ele>2099.0</ele><time>2026-05-03T16:21:05Z</time></trkpt><trkpt lat="35.97704128483002" lon="-107.02720015386718"><ele>2099.0</ele><time>2026-05-03T16:21:07Z</time></trkpt><trkpt lat="35.9770093188403" lon="-107.02728445032336"><ele>2099.0</ele><time>2026-05-03T16:21:08Z</time></trkpt><trkpt lat="35.976929857113916" lon="-107.02726770071102"><ele>2099.0</ele><time>2026-05-03T16:21:10Z</time></trkpt><trkpt lat="35.97681375005371" lon="-107.02719457003073"><ele>2099.0</ele><time>2026-05-03T16:21:12Z</time></trkpt><trkpt lat="35.97669569498557" lon="-107.0271951841851"><ele>2099.0</ele><time>2026-05-03T16:21:13Z</time></trkpt><trkpt lat="35.97661403059218" lon="-107.02719216670187"><ele>2098.2</ele><time>2026-05-03T16:21:14Z</time></trkpt><trkpt lat="35.97652831578955" lon="-107.02718500772032"><ele>2097.4</ele><time>2026-05-03T16:21:15Z</time></trkpt><trkpt lat="35.976449299403704" lon="-107.02720395049008"><ele>2096.6</ele><time>2026-05-03T16:21:16Z</time></trkpt><trkpt lat="35.976424736630904" lon="-107.02738520513455"><ele>2095.8</ele><time>2026-05-03T16:21:18Z</time></trkpt><trkpt lat="35.97641484451652" lon="-107.02751905151605"><ele>2095.0</ele><time>2026-05-03T16:21:19Z</time></trkpt><trkpt lat="35.976386353777826" lon="-107.02763925056504"><ele>2095.0</ele><time>2026-05-03T16:21:20Z</time></trkpt><trkpt lat="35.976352961152195" lon="-107.02775439455691"><ele>2095.0</ele><time>2026-05-03T16:21:21Z</time></trkpt><trkpt lat="35.976321654966135" lon="-107.02784636839881"><ele>2095.0</ele><time>2026-05-03T16:21:23Z</time></trkpt><trkpt lat="35.97624299517444" lon="-107.02785695745118"><ele>2095.0</ele><time>2026-05-03T16:21:24Z</time></trkpt><trkpt lat="35.976142253160745" lon="-107.02787887272424"><ele>2095.0</ele><time>2026-05-03T16:21:25Z</time></trkpt><trkpt lat="35.976060282195874" lon="-107.02793447151771"><ele>2095.0</ele><time>2026-05-03T16:21:26Z</time></trkpt><trkpt lat="35.97599691861655" lon="-107.02795559470158"><ele>2095.0</ele><time>2026-05-03T16:21:27Z</time></trkpt><trkpt lat="35.97589804693695" lon="-107.02791301523062"><ele>2095.0</ele><time>2026-05-03T16:21:29Z</time></trkpt><trkpt lat="35.97581976641223" lon="-107.0279153331218"><ele>2095.0</ele><time>2026-05-03T16:21:30Z</time></trkpt><trkpt lat="35.97576818575871" lon="-107.0279629850645"><ele>2095.0</ele><time>2026-05-03T16:21:32Z</time></trkpt><trkpt lat="35.97576234544166" lon="-107.02807287342895"><ele>2095.0</ele><time>2026-05-03T16:21:33Z</time></trkpt><trkpt lat="35.97575577729578" lon="-107.0281864968021"><ele>2094.4</ele><time>2026-05-03T16:21:34Z</time></trkpt><trkpt lat="35.97575638792752" lon="-107.02829551724896"><ele>2093.8</ele><time>2026-05-03T16:21:36Z</time></trkpt><trkpt lat="35.975634952669225" lon="-107.02835265947083"><ele>2093.2</ele><time>2026-05-03T16:21:38Z</time></trkpt><trkpt lat="35.975583581169815" lon="-107.02841995241853"><ele>2092.6</ele><time>2026-05-03T16:21:40Z</time></trkpt><trkpt lat="35.97558951802439" lon="-107.02852469761038"><ele>2092.0</ele><time>2026-05-03T16:21:41Z</time></trkpt><trkpt lat="35.97557428966545" lon="-107.02866078116176"><ele>2091.6</ele><time>2026-05-03T16:21:42Z</time></trkpt><trkpt lat="35.97552707380118" lon="-107.02876231108587"><ele>2091.2</ele><time>2026-05-03T16:21:43Z</time></trkpt><trkpt lat="35.97550871876928" lon="-107.02885558798498"><ele>2090.8</ele><time>2026-05-03T16:21:44Z</time></trkpt><trkpt lat="35.97542797923559" lon="-107.02893042546651"><ele>2090.4</ele><time>2026-05-03T16:21:46Z</time></trkpt><trkpt lat="35.97533610207766" lon="-107.02896098543985"><ele>2090.0</ele><time>2026-05-03T16:21:47Z</time></trkpt><trkpt lat="35.97523999051397" lon="-107.0289584380454"><ele>2090.0</ele><time>2026-05-03T16:21:48Z</time></trkpt><trkpt lat="35.97514477095152" lon="-107.02894569679734"><ele>2090.0</ele><time>2026-05-03T16:21:49Z</time></trkpt><trkpt lat="35.97498248613367" lon="-107.02897631219037"><ele>2090.0</ele><time>2026-05-03T16:21:51Z</time></trkpt><trkpt lat="35.97488491575657" lon="-107.02895649672266"><ele>2090.0</ele><time>2026-05-03T16:21:52Z</time></trkpt><trkpt lat="35.97480233542154" lon="-107.02892108551721"><ele>2090.0</ele><time>2026-05-03T16:21:53Z</time></trkpt><trkpt lat="35.974729048322345" lon="-107.02890078667966"><ele>2089.8</ele><time>2026-05-03T16:21:54Z</time></trkpt><trkpt lat="35.97464250681227" lon="-107.02889039964619"><ele>2089.6</ele><time>2026-05-03T16:21:55Z</time></trkpt><trkpt lat="35.97455435574261" lon="-107.02887071062199"><ele>2089.4</ele><time>2026-05-03T16:21:56Z</time></trkpt><trkpt lat="35.9744560899007" lon="-107.02881228474318"><ele>2089.2</ele><time>2026-05-03T16:21:57Z</time></trkpt><trkpt lat="35.97434583085137" lon="-107.02875122737811"><ele>2089.0</ele><time>2026-05-03T16:21:58Z</time></trkpt><trkpt lat="35.97424838882888" lon="-107.02870106098489"><ele>2088.4</ele><time>2026-05-03T16:21:59Z</time></trkpt><trkpt lat="35.974167111059316" lon="-107.02870148676341"><ele>2087.8</ele><time>2026-05-03T16:22:00Z</time></trkpt><trkpt lat="35.97408772266928" lon="-107.02872910412415"><ele>2087.2</ele><time>2026-05-03T16:22:01Z</time></trkpt><trkpt lat="35.97398695072852" lon="-107.02876274303675"><ele>2086.6</ele><time>2026-05-03T16:22:02Z</time></trkpt><trkpt lat="35.973903595239086" lon="-107.02879316663156"><ele>2086.0</ele><time>2026-05-03T16:22:03Z</time></trkpt><trkpt lat="35.97380094633451" lon="-107.02879950461386"><ele>2086.0</ele><time>2026-05-03T16:22:04Z</time></trkpt><trkpt lat="35.973709184414695" lon="-107.02878687080364"><ele>2086.0</ele><time>2026-05-03T16:22:05Z</time></trkpt><trkpt lat="35.97362070692331" lon="-107.02877238051646"><ele>2086.0</ele><time>2026-05-03T16:22:06Z</time></trkpt><trkpt lat="35.973540192900344" lon="-107.02877404274504"><ele>2086.0</ele><time>2026-05-03T16:22:07Z</time></trkpt><trkpt lat="35.9734570327202" lon="-107.02886450537933"><ele>2086.0</ele><time>2026-05-03T16:22:09Z</time></trkpt><trkpt lat="35.97347741472984" lon="-107.02895969484649"><ele>2086.0</ele><time>2026-05-03T16:22:10Z</time></trkpt><trkpt lat="35.97349451189836" lon="-107.02908428233873"><ele>2086.0</ele><time>2026-05-03T16:22:11Z</time></trkpt><trkpt lat="35.973522195508224" lon="-107.02919473372681"><ele>2086.0</ele><time>2026-05-03T16:22:12Z</time></trkpt><trkpt lat="35.97355287850924" lon="-107.0292921491897"><ele>2086.0</ele><time>2026-05-03T16:22:13Z</time></trkpt><trkpt lat="35.973614418464464" lon="-107.02941816116027"><ele>2086.0</ele><time>2026-05-03T16:22:14Z</time></trkpt><trkpt lat="35.97365848421592" lon="-107.02954903254532"><ele>2086.75</ele><time>2026-05-03T16:22:15Z</time></trkpt><trkpt lat="35.97368521986053" lon="-107.02971815778838"><ele>2087.5</ele><time>2026-05-03T16:22:16Z</time></trkpt><trkpt lat="35.97370355141139" lon="-107.02987143871997"><ele>2088.25</ele><time>2026-05-03T16:22:17Z</time></trkpt><trkpt lat="35.97374222306539" lon="-107.02999442979673"><ele>2089.0</ele><time>2026-05-03T16:22:18Z</time></trkpt><trkpt lat="35.973796528608375" lon="-107.0300898815568"><ele>2089.4</ele><time>2026-05-03T16:22:19Z</time></trkpt><trkpt lat="35.97387237101276" lon="-107.03013724972907"><ele>2089.8</ele><time>2026-05-03T16:22:20Z</time></trkpt><trkpt lat="35.973968606479076" lon="-107.03019565252086"><ele>2090.2</ele><time>2026-05-03T16:22:21Z</time></trkpt><trkpt lat="35.974010507765165" lon="-107.03026509374827"><ele>2090.6</ele><time>2026-05-03T16:22:22Z</time></trkpt><trkpt lat="35.974014832100856" lon="-107.03039113055839"><ele>2091.0</ele><time>2026-05-03T16:22:24Z</time></trkpt><trkpt lat="35.9740237923927" lon="-107.03052467061303"><ele>2091.0</ele><time>2026-05-03T16:22:26Z</time></trkpt><trkpt lat="35.97402444252221" lon="-107.03066073577973"><ele>2091.0</ele><time>2026-05-03T16:22:28Z</time></trkpt><trkpt lat="35.974042330930246" lon="-107.03078590678975"><ele>2091.0</ele><time>2026-05-03T16:22:30Z</time></trkpt><trkpt lat="35.97405797932607" lon="-107.03086507083432"><ele>2091.0</ele><time>2026-05-03T16:22:32Z</time></trkpt><trkpt lat="35.97407475890638" lon="-107.03097046120455"><ele>2091.0</ele><time>2026-05-03T16:22:34Z</time></trkpt><trkpt lat="35.97408906008392" lon="-107.03106975100582"><ele>2091.0</ele><time>2026-05-03T16:22:36Z</time></trkpt><trkpt lat="35.97409930656984" lon="-107.03117660092114"><ele>2090.8</ele><time>2026-05-03T16:22:38Z</time></trkpt><trkpt lat="35.97407244051192" lon="-107.03131537951045"><ele>2090.6</ele><time>2026-05-03T16:23:41.999Z</time></trkpt><trkpt lat="35.97406782461061" lon="-107.03145668030973"><ele>2090.4</ele><time>2026-05-03T16:23:43.999Z</time></trkpt><trkpt lat="35.9740359266988" lon="-107.03156348810758"><ele>2090.2</ele><time>2026-05-03T16:23:45.999Z</time></trkpt><trkpt lat="35.97402884823686" lon="-107.03165329657008"><ele>2090.0</ele><time>2026-05-03T16:23:47.999Z</time></trkpt><trkpt lat="35.97396639975941" lon="-107.03171520265226"><ele>2090.0</ele><time>2026-05-03T16:23:51.999Z</time></trkpt><trkpt lat="35.97392409515079" lon="-107.03183145706498"><ele>2090.0</ele><time>2026-05-03T16:23:53.999Z</time></trkpt><trkpt lat="35.97388706757335" lon="-107.03193574069749"><ele>2090.0</ele><time>2026-05-03T16:23:54.999Z</time></trkpt><trkpt lat="35.97383249190293" lon="-107.0320448217814"><ele>2090.0</ele><time>2026-05-03T16:23:55.999Z</time></trkpt><trkpt lat="35.973744545198876" lon="-107.03219127755085"><ele>2090.0</ele><time>2026-05-03T16:23:56.999Z</time></trkpt><trkpt lat="35.973630697874285" lon="-107.0323397289632"><ele>2090.0</ele><time>2026-05-03T16:23:57.999Z</time></trkpt><trkpt lat="35.97350689008506" lon="-107.03245644007494"><ele>2090.0</ele><time>2026-05-03T16:23:58.999Z</time></trkpt><trkpt lat="35.97339452458633" lon="-107.03252088632978"><ele>2090.0</ele><time>2026-05-03T16:23:59.999Z</time></trkpt><trkpt lat="35.97331760857523" lon="-107.03252124033327"><ele>2090.0</ele><time>2026-05-03T16:24:00.999Z</time></trkpt><trkpt lat="35.97323288451945" lon="-107.03248493094037"><ele>2090.0</ele><time>2026-05-03T16:24:01.999Z</time></trkpt><trkpt lat="35.973126620146424" lon="-107.03240571480353"><ele>2090.5</ele><time>2026-05-03T16:24:02.999Z</time></trkpt><trkpt lat="35.973019581356446" lon="-107.03232255927934"><ele>2091.0</ele><time>2026-05-03T16:24:03.999Z</time></trkpt><trkpt lat="35.972893741696396" lon="-107.03227560860117"><ele>2091.5</ele><time>2026-05-03T16:24:04.999Z</time></trkpt><trkpt lat="35.97275077317138" lon="-107.03225586374222"><ele>2092.0</ele><time>2026-05-03T16:24:05.999Z</time></trkpt><trkpt lat="35.97265310401015" lon="-107.03227018514303"><ele>2092.0</ele><time>2026-05-03T16:24:06.999Z</time></trkpt><trkpt lat="35.97259287214386" lon="-107.03229424911156"><ele>2092.0</ele><time>2026-05-03T16:24:07.999Z</time></trkpt><trkpt lat="35.97252256240496" lon="-107.03232168592963"><ele>2092.0</ele><time>2026-05-03T16:24:08.999Z</time></trkpt><trkpt lat="35.97242784912179" lon="-107.03232660073225"><ele>2092.0</ele><time>2026-05-03T16:24:09.999Z</time></trkpt><trkpt lat="35.972305520409506" lon="-107.03229041633973"><ele>2092.0</ele><time>2026-05-03T16:24:10.999Z</time></trkpt><trkpt lat="35.972180337794" lon="-107.03223878629379"><ele>2092.2</ele><time>2026-05-03T16:24:11.999Z</time></trkpt><trkpt lat="35.97208209316053" lon="-107.03216976293476"><ele>2092.3999999999996</ele><time>2026-05-03T16:24:12.999Z</time></trkpt><trkpt lat="35.972012722504935" lon="-107.03211926235345"><ele>2092.6000000000004</ele><time>2026-05-03T16:24:13.999Z</time></trkpt><trkpt lat="35.971949384159444" lon="-107.03223184912858"><ele>2092.8</ele><time>2026-05-03T16:24:15.999Z</time></trkpt><trkpt lat="35.971889512584" lon="-107.03232832000896"><ele>2093.0</ele><time>2026-05-03T16:24:16.999Z</time></trkpt><trkpt lat="35.97181466359212" lon="-107.03243826196393"><ele>2092.75</ele><time>2026-05-03T16:24:17.999Z</time></trkpt><trkpt lat="35.9717380630087" lon="-107.03254612561037"><ele>2092.5</ele><time>2026-05-03T16:24:18.999Z</time></trkpt><trkpt lat="35.97163077759271" lon="-107.0326245558906"><ele>2092.25</ele><time>2026-05-03T16:24:19.999Z</time></trkpt><trkpt lat="35.97154800941862" lon="-107.03271744763619"><ele>2092.0</ele><time>2026-05-03T16:24:20.999Z</time></trkpt><trkpt lat="35.97147970750218" lon="-107.0328288718292"><ele>2092.0</ele><time>2026-05-03T16:24:21.999Z</time></trkpt><trkpt lat="35.97141788135007" lon="-107.03295915149857"><ele>2092.0</ele><time>2026-05-03T16:24:22.999Z</time></trkpt><trkpt lat="35.971362369660895" lon="-107.03307145913956"><ele>2092.0</ele><time>2026-05-03T16:24:23.999Z</time></trkpt><trkpt lat="35.97131822184817" lon="-107.03320485344979"><ele>2092.0</ele><time>2026-05-03T16:24:24.999Z</time></trkpt><trkpt lat="35.97126127705002" lon="-107.03336831576634"><ele>2092.7999999999997</ele><time>2026-05-03T16:24:25.999Z</time></trkpt><trkpt lat="35.97120932680769" lon="-107.03349284624916"><ele>2093.6</ele><time>2026-05-03T16:24:26.999Z</time></trkpt><trkpt lat="35.97117857807196" lon="-107.03361470794219"><ele>2094.3999999999996</ele><time>2026-05-03T16:24:27.999Z</time></trkpt><trkpt lat="35.97116634292849" lon="-107.03374163564733"><ele>2095.2</ele><time>2026-05-03T16:24:28.999Z</time></trkpt><trkpt lat="35.971168316181725" lon="-107.03385605925004"><ele>2096.0</ele><time>2026-05-03T16:24:29.999Z</time></trkpt><trkpt lat="35.97115813948665" lon="-107.03395658193158"><ele>2096.0</ele><time>2026-05-03T16:24:30.999Z</time></trkpt><trkpt lat="35.971043820190204" lon="-107.03404001406842"><ele>2096.0</ele><time>2026-05-03T16:24:32.999Z</time></trkpt><trkpt lat="35.970993110153174" lon="-107.03408730715654"><ele>2096.0</ele><time>2026-05-03T16:24:33.999Z</time></trkpt><trkpt lat="35.97098667516859" lon="-107.03419962955479"><ele>2096.0</ele><time>2026-05-03T16:24:34.999Z</time></trkpt><trkpt lat="35.970958829876594" lon="-107.03433863282352"><ele>2096.0</ele><time>2026-05-03T16:24:35.999Z</time></trkpt><trkpt lat="35.970919263510304" lon="-107.03450117043937"><ele>2095.5</ele><time>2026-05-03T16:24:36.999Z</time></trkpt><trkpt lat="35.970868441177934" lon="-107.03465370314176"><ele>2095.0</ele><time>2026-05-03T16:24:37.999Z</time></trkpt><trkpt lat="35.9707895187636" lon="-107.03480981396505"><ele>2094.5</ele><time>2026-05-03T16:24:38.999Z</time></trkpt><trkpt lat="35.970712836995865" lon="-107.03497021009566"><ele>2094.0</ele><time>2026-05-03T16:24:39.999Z</time></trkpt><trkpt lat="35.97064963374235" lon="-107.03514109265646"><ele>2090.6666666666665</ele><time>2026-05-03T16:24:40.999Z</time></trkpt><trkpt lat="35.970606915661136" lon="-107.03531180031437"><ele>2087.333333333333</ele><time>2026-05-03T16:24:41.999Z</time></trkpt><trkpt lat="35.970549810027414" lon="-107.03549947170015"><ele>2084.0</ele><time>2026-05-03T16:24:42.999Z</time></trkpt><trkpt lat="35.97049175079953" lon="-107.0356867632191"><ele>2083.5</ele><time>2026-05-03T16:24:43.999Z</time></trkpt><trkpt lat="35.97044433444604" lon="-107.03590123392607"><ele>2083.0</ele><time>2026-05-03T16:24:44.999Z</time></trkpt><trkpt lat="35.97041750101088" lon="-107.03604791158718"><ele>2082.5</ele><time>2026-05-03T16:24:45.999Z</time></trkpt><trkpt lat="35.97037362323833" lon="-107.03614562196493"><ele>2082.0</ele><time>2026-05-03T16:24:46.999Z</time></trkpt><trkpt lat="35.97032778465548" lon="-107.03625896237793"><ele>2082.0</ele><time>2026-05-03T16:24:47.999Z</time></trkpt><trkpt lat="35.9702820792838" lon="-107.03641279843137"><ele>2082.0</ele><time>2026-05-03T16:24:48.999Z</time></trkpt><trkpt lat="35.97023617934961" lon="-107.03656827917267"><ele>2082.0</ele><time>2026-05-03T16:24:49.999Z</time></trkpt><trkpt lat="35.97020157227692" lon="-107.0366736205698"><ele>2082.0</ele><time>2026-05-03T16:24:50.999Z</time></trkpt><trkpt lat="35.970158571076205" lon="-107.03681908032392"><ele>2082.3333333333335</ele><time>2026-05-03T16:24:51.999Z</time></trkpt><trkpt lat="35.97013978476009" lon="-107.03699400212408"><ele>2082.666666666667</ele><time>2026-05-03T16:24:52.999Z</time></trkpt><trkpt lat="35.97011922718556" lon="-107.03719424602627"><ele>2083.0</ele><time>2026-05-03T16:24:53.999Z</time></trkpt><trkpt lat="35.97009399288151" lon="-107.03738087506179"><ele>2082.75</ele><time>2026-05-03T16:24:54.999Z</time></trkpt><trkpt lat="35.97004735512137" lon="-107.03748238687967"><ele>2082.5</ele><time>2026-05-03T16:24:55.999Z</time></trkpt><trkpt lat="35.970020935152085" lon="-107.03763113075608"><ele>2082.25</ele><time>2026-05-03T16:24:57.999Z</time></trkpt><trkpt lat="35.970051481608756" lon="-107.03776649189238"><ele>2082.0</ele><time>2026-05-03T16:24:58.999Z</time></trkpt><trkpt lat="35.97004032289577" lon="-107.03793887836149"><ele>2082.0</ele><time>2026-05-03T16:24:59.999Z</time></trkpt><trkpt lat="35.97002515179822" lon="-107.03809985228368"><ele>2082.0</ele><time>2026-05-03T16:25:00.999Z</time></trkpt><trkpt lat="35.970015790775065" lon="-107.03824185898655"><ele>2082.0</ele><time>2026-05-03T16:25:01.999Z</time></trkpt><trkpt lat="35.96999149244954" lon="-107.03839144267248"><ele>2082.0</ele><time>2026-05-03T16:25:02.999Z</time></trkpt><trkpt lat="35.96994268653651" lon="-107.03854131259317"><ele>2081.3333333333335</ele><time>2026-05-03T16:25:03.999Z</time></trkpt><trkpt lat="35.96987522119343" lon="-107.03870767579423"><ele>2080.666666666667</ele><time>2026-05-03T16:25:04.999Z</time></trkpt><trkpt lat="35.96980562753923" lon="-107.03890680746025"><ele>2080.0</ele><time>2026-05-03T16:25:05.999Z</time></trkpt><trkpt lat="35.969750241395495" lon="-107.03908437484083"><ele>2079.8</ele><time>2026-05-03T16:25:06.999Z</time></trkpt><trkpt lat="35.969711150092586" lon="-107.03922962752175"><ele>2079.6</ele><time>2026-05-03T16:25:07.999Z</time></trkpt><trkpt lat="35.96967485967902" lon="-107.03934050856958"><ele>2079.4</ele><time>2026-05-03T16:25:08.999Z</time></trkpt><trkpt lat="35.96966678043682" lon="-107.03947229151605"><ele>2079.2</ele><time>2026-05-03T16:25:11Z</time></trkpt><trkpt lat="35.96971969662049" lon="-107.03957280349259"><ele>2079.0</ele><time>2026-05-03T16:25:13Z</time></trkpt><trkpt lat="35.96981262781916" lon="-107.03960133755317"><ele>2079.0</ele><time>2026-05-03T16:25:14Z</time></trkpt><trkpt lat="35.96991831569567" lon="-107.03962223522069"><ele>2079.0</ele><time>2026-05-03T16:25:15Z</time></trkpt><trkpt lat="35.96999459399933" lon="-107.03965733936391"><ele>2079.0</ele><time>2026-05-03T16:25:16Z</time></trkpt><trkpt lat="35.97008805994025" lon="-107.03968062525463"><ele>2079.0</ele><time>2026-05-03T16:25:17Z</time></trkpt><trkpt lat="35.970217353435814" lon="-107.0396780057923"><ele>2079.0</ele><time>2026-05-03T16:25:18Z</time></trkpt><trkpt lat="35.970365185486855" lon="-107.03972545306118"><ele>2079.2</ele><time>2026-05-03T16:25:19Z</time></trkpt><trkpt lat="35.97051053398535" lon="-107.03976443967623"><ele>2079.4</ele><time>2026-05-03T16:25:20Z</time></trkpt><trkpt lat="35.970572371782765" lon="-107.03979223205921"><ele>2079.6</ele><time>2026-05-03T16:25:21Z</time></trkpt><trkpt lat="35.970639913528665" lon="-107.03982375282132"><ele>2079.8</ele><time>2026-05-03T16:25:23Z</time></trkpt><trkpt lat="35.970690461290836" lon="-107.03973956405667"><ele>2080.0</ele><time>2026-05-03T16:25:31Z</time></trkpt><trkpt lat="35.97083391211712" lon="-107.03972612062897"><ele>2079.8</ele><time>2026-05-03T16:25:33Z</time></trkpt><trkpt lat="35.97091810032175" lon="-107.03975946172966"><ele>2079.6</ele><time>2026-05-03T16:25:34Z</time></trkpt><trkpt lat="35.97102190911029" lon="-107.0397732251559"><ele>2079.4</ele><time>2026-05-03T16:25:35Z</time></trkpt><trkpt lat="35.97110977958618" lon="-107.03977607819779"><ele>2079.2</ele><time>2026-05-03T16:25:36Z</time></trkpt><trkpt lat="35.97117752892228" lon="-107.03985145368736"><ele>2079.0</ele><time>2026-05-03T16:25:37Z</time></trkpt><trkpt lat="35.97131940896718" lon="-107.0399281768994"><ele>2079.0</ele><time>2026-05-03T16:25:38Z</time></trkpt><trkpt lat="35.97143284553414" lon="-107.04000204211945"><ele>2079.0</ele><time>2026-05-03T16:25:39Z</time></trkpt><trkpt lat="35.97148991274397" lon="-107.04004970873785"><ele>2079.0</ele><time>2026-05-03T16:25:40Z</time></trkpt><trkpt lat="35.97155897632082" lon="-107.04007540892879"><ele>2079.0</ele><time>2026-05-03T16:25:41Z</time></trkpt><trkpt lat="35.97163888425443" lon="-107.04004586834064"><ele>2079.0</ele><time>2026-05-03T16:25:42Z</time></trkpt><trkpt lat="35.97173299502956" lon="-107.04001262768232"><ele>2079.2</ele><time>2026-05-03T16:25:43Z</time></trkpt><trkpt lat="35.97179833614645" lon="-107.03995907521798"><ele>2079.4</ele><time>2026-05-03T16:25:44Z</time></trkpt><trkpt lat="35.97190532299885" lon="-107.03994997294505"><ele>2079.6</ele><time>2026-05-03T16:25:46Z</time></trkpt><trkpt lat="35.97201256682275" lon="-107.03995802261643"><ele>2079.8</ele><time>2026-05-03T16:25:48Z</time></trkpt><trkpt lat="35.972119405903584" lon="-107.03996190355785"><ele>2080.0</ele><time>2026-05-03T16:25:49Z</time></trkpt><trkpt lat="35.97222468355949" lon="-107.04002638102435"><ele>2080.0</ele><time>2026-05-03T16:25:50Z</time></trkpt><trkpt lat="35.97228949733567" lon="-107.0400606472421"><ele>2080.0</ele><time>2026-05-03T16:25:51Z</time></trkpt><trkpt lat="35.97235277138485" lon="-107.04003630958324"><ele>2080.0</ele><time>2026-05-03T16:25:52Z</time></trkpt><trkpt lat="35.972447442490456" lon="-107.04003249892423"><ele>2080.0</ele><time>2026-05-03T16:25:53Z</time></trkpt><trkpt lat="35.97254963479335" lon="-107.04001529680471"><ele>2080.0</ele><time>2026-05-03T16:25:54Z</time></trkpt><trkpt lat="35.972664546450474" lon="-107.03995456459256"><ele>2080.75</ele><time>2026-05-03T16:25:55Z</time></trkpt><trkpt lat="35.97277487505619" lon="-107.0398559107903"><ele>2081.5</ele><time>2026-05-03T16:25:56Z</time></trkpt><trkpt lat="35.97288147847631" lon="-107.03974339561412"><ele>2082.25</ele><time>2026-05-03T16:25:57Z</time></trkpt><trkpt lat="35.972978475405284" lon="-107.03963601934221"><ele>2083.0</ele><time>2026-05-03T16:25:58Z</time></trkpt><trkpt lat="35.97308578207888" lon="-107.03954520142919"><ele>2083.0</ele><time>2026-05-03T16:25:59Z</time></trkpt><trkpt lat="35.973229586293975" lon="-107.03946375820503"><ele>2083.0</ele><time>2026-05-03T16:26:00Z</time></trkpt><trkpt lat="35.97335348260486" lon="-107.03933288686439"><ele>2083.0</ele><time>2026-05-03T16:26:01Z</time></trkpt><trkpt lat="35.97350385959151" lon="-107.03920138114496"><ele>2083.25</ele><time>2026-05-03T16:26:02Z</time></trkpt><trkpt lat="35.97364152455697" lon="-107.03911389516246"><ele>2083.5</ele><time>2026-05-03T16:26:03Z</time></trkpt><trkpt lat="35.9737629635666" lon="-107.03905353980535"><ele>2083.75</ele><time>2026-05-03T16:26:04Z</time></trkpt><trkpt lat="35.973865090892936" lon="-107.03903173137665"><ele>2084.0</ele><time>2026-05-03T16:26:05Z</time></trkpt><trkpt lat="35.973952705243306" lon="-107.03905180025247"><ele>2084.0</ele><time>2026-05-03T16:26:05.999Z</time></trkpt><trkpt lat="35.97404134256425" lon="-107.03912420622342"><ele>2084.0</ele><time>2026-05-03T16:26:07.999Z</time></trkpt><trkpt lat="35.974100565939494" lon="-107.03929468789198"><ele>2084.0</ele><time>2026-05-03T16:26:09.999Z</time></trkpt><trkpt lat="35.97417787533279" lon="-107.03940479860638"><ele>2084.0</ele><time>2026-05-03T16:26:10.999Z</time></trkpt><trkpt lat="35.97427427925361" lon="-107.03954680549931"><ele>2083.333333333333</ele><time>2026-05-03T16:26:11.999Z</time></trkpt><trkpt lat="35.97437386438578" lon="-107.03968165284792"><ele>2082.6666666666665</ele><time>2026-05-03T16:26:12.999Z</time></trkpt><trkpt lat="35.974481266370056" lon="-107.03983829866148"><ele>2082.0</ele><time>2026-05-03T16:26:13.999Z</time></trkpt><trkpt lat="35.974573940685474" lon="-107.04000672382516"><ele>2082.0</ele><time>2026-05-03T16:26:14.999Z</time></trkpt><trkpt lat="35.974643576751205" lon="-107.04013551850616"><ele>2082.0</ele><time>2026-05-03T16:26:15.999Z</time></trkpt><trkpt lat="35.974660491327256" lon="-107.04022312297612"><ele>2082.0</ele><time>2026-05-03T16:26:16.999Z</time></trkpt><trkpt lat="35.97469779414497" lon="-107.04032005464883"><ele>2082.0</ele><time>2026-05-03T16:26:17.999Z</time></trkpt><trkpt lat="35.97474248161416" lon="-107.04042553146941"><ele>2082.0</ele><time>2026-05-03T16:26:18.999Z</time></trkpt><trkpt lat="35.97482010721804" lon="-107.04051898415429"><ele>2082.0</ele><time>2026-05-03T16:26:19.999Z</time></trkpt><trkpt lat="35.974919737449646" lon="-107.04060945613543"><ele>2082.0</ele><time>2026-05-03T16:26:20.999Z</time></trkpt><trkpt lat="35.97502912517167" lon="-107.0407254540789"><ele>2082.0</ele><time>2026-05-03T16:26:21.999Z</time></trkpt><trkpt lat="35.97510558478437" lon="-107.0408741415455"><ele>2082.0</ele><time>2026-05-03T16:26:22.999Z</time></trkpt><trkpt lat="35.9751840993826" lon="-107.0410338961841"><ele>2082.0</ele><time>2026-05-03T16:26:23.999Z</time></trkpt><trkpt lat="35.97526897056794" lon="-107.04123509233733"><ele>2082.0</ele><time>2026-05-03T16:26:24.999Z</time></trkpt><trkpt lat="35.97536006888163" lon="-107.04145164163202"><ele>2082.0</ele><time>2026-05-03T16:26:25.999Z</time></trkpt><trkpt lat="35.97544443199944" lon="-107.04166331210271"><ele>2081.3333333333335</ele><time>2026-05-03T16:26:26.999Z</time></trkpt><trkpt lat="35.97552457503065" lon="-107.0418650377937"><ele>2080.666666666667</ele><time>2026-05-03T16:26:27.999Z</time></trkpt><trkpt lat="35.975595401635864" lon="-107.04204341205765"><ele>2080.0</ele><time>2026-05-03T16:26:28.999Z</time></trkpt><trkpt lat="35.975668412777246" lon="-107.04220727370887"><ele>2080.0</ele><time>2026-05-03T16:26:29.999Z</time></trkpt><trkpt lat="35.97572792605687" lon="-107.04233442367767"><ele>2080.0</ele><time>2026-05-03T16:26:30.999Z</time></trkpt><trkpt lat="35.97577771420116" lon="-107.04243377128226"><ele>2080.0</ele><time>2026-05-03T16:26:31.999Z</time></trkpt><trkpt lat="35.97582072106825" lon="-107.04251018148736"><ele>2080.0</ele><time>2026-05-03T16:26:32.999Z</time></trkpt><trkpt lat="35.97588241662373" lon="-107.04259257346098"><ele>2080.0</ele><time>2026-05-03T16:26:33.999Z</time></trkpt><trkpt lat="35.97594984187856" lon="-107.04267979569126"><ele>2080.5</ele><time>2026-05-03T16:26:34.999Z</time></trkpt><trkpt lat="35.9760213073143" lon="-107.04278646210426"><ele>2081.0</ele><time>2026-05-03T16:26:35.999Z</time></trkpt><trkpt lat="35.976111233599596" lon="-107.04292064827109"><ele>2081.5</ele><time>2026-05-03T16:26:36.999Z</time></trkpt><trkpt lat="35.97621342084381" lon="-107.04306682976646"><ele>2082.0</ele><time>2026-05-03T16:26:37.999Z</time></trkpt><trkpt lat="35.976342169542406" lon="-107.04319780908966"><ele>2082.6666666666665</ele><time>2026-05-03T16:26:38.999Z</time></trkpt><trkpt lat="35.976493427653836" lon="-107.04332837079625"><ele>2083.333333333333</ele><time>2026-05-03T16:26:39.999Z</time></trkpt><trkpt lat="35.9766450916419" lon="-107.04347842279125"><ele>2084.0</ele><time>2026-05-03T16:26:40.999Z</time></trkpt><trkpt lat="35.976778753018884" lon="-107.04361666224302"><ele>2084.0</ele><time>2026-05-03T16:26:41.999Z</time></trkpt><trkpt lat="35.976901449314376" lon="-107.04374271598952"><ele>2084.0</ele><time>2026-05-03T16:26:42.999Z</time></trkpt><trkpt lat="35.97699742344789" lon="-107.04384636985715"><ele>2084.0</ele><time>2026-05-03T16:26:43.999Z</time></trkpt><trkpt lat="35.97708767188574" lon="-107.0439482049328"><ele>2084.0</ele><time>2026-05-03T16:26:44.999Z</time></trkpt><trkpt lat="35.977153563477756" lon="-107.04405924762071"><ele>2083.75</ele><time>2026-05-03T16:26:45.999Z</time></trkpt><trkpt lat="35.97720383194786" lon="-107.04418320180577"><ele>2083.5</ele><time>2026-05-03T16:26:46.999Z</time></trkpt><trkpt lat="35.9772605677656" lon="-107.04433166946053"><ele>2083.25</ele><time>2026-05-03T16:26:47.999Z</time></trkpt><trkpt lat="35.977293838059836" lon="-107.04445954846052"><ele>2083.0</ele><time>2026-05-03T16:26:48.999Z</time></trkpt><trkpt lat="35.977302823963214" lon="-107.04458055561813"><ele>2083.0</ele><time>2026-05-03T16:26:49.999Z</time></trkpt><trkpt lat="35.977294279187795" lon="-107.04471463872011"><ele>2083.0</ele><time>2026-05-03T16:26:50.999Z</time></trkpt><trkpt lat="35.97731776887888" lon="-107.04487752354174"><ele>2083.0</ele><time>2026-05-03T16:26:51.999Z</time></trkpt><trkpt lat="35.97740178330205" lon="-107.04501378929429"><ele>2083.0</ele><time>2026-05-03T16:26:52.999Z</time></trkpt><trkpt lat="35.97749429118538" lon="-107.04515320645312"><ele>2084.0</ele><time>2026-05-03T16:26:53.999Z</time></trkpt><trkpt lat="35.977538312899355" lon="-107.04532767469627"><ele>2085.0</ele><time>2026-05-03T16:26:54.999Z</time></trkpt><trkpt lat="35.97756252807106" lon="-107.04548335508161"><ele>2086.0</ele><time>2026-05-03T16:26:55.999Z</time></trkpt><trkpt lat="35.977558223133826" lon="-107.04561671352349"><ele>2087.0</ele><time>2026-05-03T16:26:56.999Z</time></trkpt><trkpt lat="35.97753475504216" lon="-107.04572895890374"><ele>2087.25</ele><time>2026-05-03T16:26:57.999Z</time></trkpt><trkpt lat="35.97752822503633" lon="-107.04581656643876"><ele>2087.5</ele><time>2026-05-03T16:26:58.999Z</time></trkpt><trkpt lat="35.97760654039078" lon="-107.04598948884797"><ele>2087.75</ele><time>2026-05-03T16:27:00.999Z</time></trkpt><trkpt lat="35.97768406476569" lon="-107.04608226329836"><ele>2088.0</ele><time>2026-05-03T16:27:01.999Z</time></trkpt><trkpt lat="35.977800746396596" lon="-107.0461787090935"><ele>2088.0</ele><time>2026-05-03T16:27:02.999Z</time></trkpt><trkpt lat="35.97792448333137" lon="-107.04629848899239"><ele>2088.0</ele><time>2026-05-03T16:27:03.999Z</time></trkpt><trkpt lat="35.97800624103247" lon="-107.04642118433097"><ele>2088.0</ele><time>2026-05-03T16:27:04.999Z</time></trkpt><trkpt lat="35.978086482733715" lon="-107.04657218950999"><ele>2088.0</ele><time>2026-05-03T16:27:05.999Z</time></trkpt><trkpt lat="35.97815731944352" lon="-107.04674382431368"><ele>2088.0</ele><time>2026-05-03T16:27:06.999Z</time></trkpt><trkpt lat="35.97823737445079" lon="-107.04694032120133"><ele>2088.0</ele><time>2026-05-03T16:27:07.999Z</time></trkpt><trkpt lat="35.978324849974754" lon="-107.04713780375539"><ele>2088.0</ele><time>2026-05-03T16:27:08.999Z</time></trkpt><trkpt lat="35.97841295307368" lon="-107.04729083313872"><ele>2087.8</ele><time>2026-05-03T16:27:09.999Z</time></trkpt><trkpt lat="35.97845678353354" lon="-107.04741701359012"><ele>2087.6000000000004</ele><time>2026-05-03T16:27:10.999Z</time></trkpt><trkpt lat="35.97849389537428" lon="-107.047524143203"><ele>2087.3999999999996</ele><time>2026-05-03T16:27:11.999Z</time></trkpt><trkpt lat="35.978551233951364" lon="-107.04762662246435"><ele>2087.2</ele><time>2026-05-03T16:27:12.999Z</time></trkpt><trkpt lat="35.97865820299705" lon="-107.04771620288855"><ele>2087.0</ele><time>2026-05-03T16:27:13.999Z</time></trkpt><trkpt lat="35.97879084938087" lon="-107.04778240331008"><ele>2086.75</ele><time>2026-05-03T16:27:14.999Z</time></trkpt><trkpt lat="35.97891022624689" lon="-107.04780916634319"><ele>2086.5</ele><time>2026-05-03T16:27:15.999Z</time></trkpt><trkpt lat="35.97902204790173" lon="-107.04783774869468"><ele>2086.25</ele><time>2026-05-03T16:27:17Z</time></trkpt><trkpt lat="35.97915249438108" lon="-107.04781925941592"><ele>2086.0</ele><time>2026-05-03T16:27:18Z</time></trkpt><trkpt lat="35.9793041041716" lon="-107.04774283315324"><ele>2086.666666666667</ele><time>2026-05-03T16:27:19Z</time></trkpt><trkpt lat="35.97942874859559" lon="-107.04764217492536"><ele>2087.3333333333335</ele><time>2026-05-03T16:27:20Z</time></trkpt><trkpt lat="35.97953123738837" lon="-107.047527950336"><ele>2088.0</ele><time>2026-05-03T16:27:21Z</time></trkpt><trkpt lat="35.97968110966681" lon="-107.04742270598553"><ele>2088.0</ele><time>2026-05-03T16:27:22Z</time></trkpt><trkpt lat="35.979821743946644" lon="-107.04732483605004"><ele>2088.0</ele><time>2026-05-03T16:27:23Z</time></trkpt><trkpt lat="35.979973078962054" lon="-107.04720402522845"><ele>2088.0</ele><time>2026-05-03T16:27:24Z</time></trkpt><trkpt lat="35.980157592060955" lon="-107.0471045822868"><ele>2088.6666666666665</ele><time>2026-05-03T16:27:25Z</time></trkpt><trkpt lat="35.98033955000559" lon="-107.04701272066166"><ele>2089.333333333333</ele><time>2026-05-03T16:27:26Z</time></trkpt><trkpt lat="35.98053694985922" lon="-107.0469295190909"><ele>2090.0</ele><time>2026-05-03T16:27:27Z</time></trkpt><trkpt lat="35.980726380506525" lon="-107.04685991633487"><ele>2089.333333333333</ele><time>2026-05-03T16:27:28Z</time></trkpt><trkpt lat="35.98091797050826" lon="-107.04680465803084"><ele>2088.6666666666665</ele><time>2026-05-03T16:27:29Z</time></trkpt><trkpt lat="35.981098427420555" lon="-107.04680480954978"><ele>2088.0</ele><time>2026-05-03T16:27:30Z</time></trkpt><trkpt lat="35.98128742463491" lon="-107.04680561812438"><ele>2088.0</ele><time>2026-05-03T16:27:31Z</time></trkpt><trkpt lat="35.98147910088211" lon="-107.04681271909342"><ele>2088.0</ele><time>2026-05-03T16:27:32Z</time></trkpt><trkpt lat="35.98169261561351" lon="-107.04683071559799"><ele>2088.0</ele><time>2026-05-03T16:27:33Z</time></trkpt><trkpt lat="35.98189215590617" lon="-107.04687468520656"><ele>2088.0</ele><time>2026-05-03T16:27:34Z</time></trkpt><trkpt lat="35.98209081846609" lon="-107.04691925670649"><ele>2088.0</ele><time>2026-05-03T16:27:35Z</time></trkpt><trkpt lat="35.982281785829414" lon="-107.04697167474818"><ele>2088.0</ele><time>2026-05-03T16:27:36Z</time></trkpt><trkpt lat="35.982469969226294" lon="-107.04703633315054"><ele>2088.5</ele><time>2026-05-03T16:27:37Z</time></trkpt><trkpt lat="35.98262213806745" lon="-107.04711812029407"><ele>2089.0</ele><time>2026-05-03T16:27:38Z</time></trkpt><trkpt lat="35.98275324443911" lon="-107.04720054451084"><ele>2089.5</ele><time>2026-05-03T16:27:39Z</time></trkpt><trkpt lat="35.98285638778348" lon="-107.04726452171755"><ele>2090.0</ele><time>2026-05-03T16:27:40Z</time></trkpt><trkpt lat="35.98294035192025" lon="-107.04733435609936"><ele>2090.0</ele><time>2026-05-03T16:27:41Z</time></trkpt><trkpt lat="35.98302448211928" lon="-107.04741253122614"><ele>2090.0</ele><time>2026-05-03T16:27:42Z</time></trkpt><trkpt lat="35.98311277474089" lon="-107.04750754619353"><ele>2090.0</ele><time>2026-05-03T16:27:43Z</time></trkpt><trkpt lat="35.98320657045317" lon="-107.04761830340216"><ele>2090.0</ele><time>2026-05-03T16:27:44Z</time></trkpt><trkpt lat="35.98328069289293" lon="-107.04776181295252"><ele>2090.0</ele><time>2026-05-03T16:27:45Z</time></trkpt><trkpt lat="35.98336246477316" lon="-107.04791244339678"><ele>2090.0</ele><time>2026-05-03T16:27:46Z</time></trkpt><trkpt lat="35.983442804199235" lon="-107.04803876896148"><ele>2090.0</ele><time>2026-05-03T16:27:47Z</time></trkpt><trkpt lat="35.98353175345405" lon="-107.04818067820489"><ele>2090.0</ele><time>2026-05-03T16:27:48Z</time></trkpt><trkpt lat="35.983629212283404" lon="-107.048338104222"><ele>2089.6666666666665</ele><time>2026-05-03T16:27:49Z</time></trkpt><trkpt lat="35.98372893865329" lon="-107.04850038323843"><ele>2089.3333333333335</ele><time>2026-05-03T16:27:50Z</time></trkpt><trkpt lat="35.98384592693967" lon="-107.04865774056222"><ele>2089.0</ele><time>2026-05-03T16:27:51Z</time></trkpt><trkpt lat="35.98396938870568" lon="-107.04881514733411"><ele>2089.0</ele><time>2026-05-03T16:27:52Z</time></trkpt><trkpt lat="35.98407665902489" lon="-107.04897446260213"><ele>2089.0</ele><time>2026-05-03T16:27:53Z</time></trkpt><trkpt lat="35.98415042907208" lon="-107.0491320783609"><ele>2089.0</ele><time>2026-05-03T16:27:54Z</time></trkpt><trkpt lat="35.984245970367866" lon="-107.04929752946579"><ele>2090.3333333333335</ele><time>2026-05-03T16:27:55Z</time></trkpt><trkpt lat="35.98435649205943" lon="-107.0494394447345"><ele>2091.6666666666665</ele><time>2026-05-03T16:27:56Z</time></trkpt><trkpt lat="35.98445899278893" lon="-107.04959174754968"><ele>2093.0</ele><time>2026-05-03T16:27:57Z</time></trkpt><trkpt lat="35.984559486257" lon="-107.04975852161404"><ele>2093.0</ele><time>2026-05-03T16:27:58Z</time></trkpt><trkpt lat="35.98466539219462" lon="-107.04994053219765"><ele>2093.0</ele><time>2026-05-03T16:27:59Z</time></trkpt><trkpt lat="35.98475902841643" lon="-107.05011698766116"><ele>2093.0</ele><time>2026-05-03T16:28:00Z</time></trkpt><trkpt lat="35.98485825625852" lon="-107.05028220190657"><ele>2092.6666666666665</ele><time>2026-05-03T16:28:01Z</time></trkpt><trkpt lat="35.98498195709901" lon="-107.05045963151646"><ele>2092.3333333333335</ele><time>2026-05-03T16:28:02Z</time></trkpt><trkpt lat="35.985114247288614" lon="-107.05066589764789"><ele>2092.0</ele><time>2026-05-03T16:28:03Z</time></trkpt><trkpt lat="35.98523825033742" lon="-107.0508783991297"><ele>2091.5</ele><time>2026-05-03T16:28:04Z</time></trkpt><trkpt lat="35.98533897961044" lon="-107.05106114113184"><ele>2091.0</ele><time>2026-05-03T16:28:05Z</time></trkpt><trkpt lat="35.98537213257522" lon="-107.05119806144687"><ele>2090.5</ele><time>2026-05-03T16:28:06Z</time></trkpt><trkpt lat="35.9854029713888" lon="-107.05133630229984"><ele>2090.0</ele><time>2026-05-03T16:28:07Z</time></trkpt><trkpt lat="35.98538935775813" lon="-107.05152693473319"><ele>2090.6666666666665</ele><time>2026-05-03T16:28:08Z</time></trkpt><trkpt lat="35.98536586527959" lon="-107.05171517814996"><ele>2091.3333333333335</ele><time>2026-05-03T16:28:09Z</time></trkpt><trkpt lat="35.985335372339144" lon="-107.0519169683849"><ele>2092.0</ele><time>2026-05-03T16:28:10Z</time></trkpt><trkpt lat="35.985302711418974" lon="-107.05210451659237"><ele>2092.0</ele><time>2026-05-03T16:28:11Z</time></trkpt><trkpt lat="35.985281933721794" lon="-107.05226836497508"><ele>2092.0</ele><time>2026-05-03T16:28:12Z</time></trkpt><trkpt lat="35.98527838662851" lon="-107.05244108119538"><ele>2092.0</ele><time>2026-05-03T16:28:13Z</time></trkpt><trkpt lat="35.98529680730469" lon="-107.05260641663463"><ele>2092.0</ele><time>2026-05-03T16:28:14Z</time></trkpt><trkpt lat="35.985334797595" lon="-107.05275591540743"><ele>2092.4</ele><time>2026-05-03T16:28:15Z</time></trkpt><trkpt lat="35.98539433521407" lon="-107.052900527802"><ele>2092.7999999999997</ele><time>2026-05-03T16:28:15.999Z</time></trkpt><trkpt lat="35.98543493370743" lon="-107.05296359717727"><ele>2093.2</ele><time>2026-05-03T16:28:16.999Z</time></trkpt><trkpt lat="35.985507095066104" lon="-107.05295494491513"><ele>2093.6</ele><time>2026-05-03T16:28:17.999Z</time></trkpt><trkpt lat="35.9856100654021" lon="-107.05290061924418"><ele>2094.0</ele><time>2026-05-03T16:28:18.999Z</time></trkpt><trkpt lat="35.98572311725038" lon="-107.05280179801703"><ele>2094.0</ele><time>2026-05-03T16:28:19.999Z</time></trkpt><trkpt lat="35.985870142992006" lon="-107.05267456213117"><ele>2094.0</ele><time>2026-05-03T16:28:20.999Z</time></trkpt><trkpt lat="35.986004237933045" lon="-107.05258474462374"><ele>2094.0</ele><time>2026-05-03T16:28:21.999Z</time></trkpt><trkpt lat="35.98615775840504" lon="-107.05248120364307"><ele>2094.0</ele><time>2026-05-03T16:28:22.999Z</time></trkpt><trkpt lat="35.98631542302737" lon="-107.05238278149757"><ele>2094.0</ele><time>2026-05-03T16:28:23.999Z</time></trkpt><trkpt lat="35.98646300888984" lon="-107.05229324168957"><ele>2094.0</ele><time>2026-05-03T16:28:24.999Z</time></trkpt><trkpt lat="35.98661997276962" lon="-107.05221492849827"><ele>2093.6666666666665</ele><time>2026-05-03T16:28:25.999Z</time></trkpt><trkpt lat="35.9867866586538" lon="-107.05214298112095"><ele>2093.333333333333</ele><time>2026-05-03T16:28:26.999Z</time></trkpt><trkpt lat="35.98697621087352" lon="-107.05208148491177"><ele>2093.0</ele><time>2026-05-03T16:28:27.999Z</time></trkpt><trkpt lat="35.98715147600605" lon="-107.05202517712694"><ele>2093.0</ele><time>2026-05-03T16:28:28.999Z</time></trkpt><trkpt lat="35.98730467216594" lon="-107.05197705960076"><ele>2093.0</ele><time>2026-05-03T16:28:29.999Z</time></trkpt><trkpt lat="35.987456209360744" lon="-107.05194276387033"><ele>2093.0</ele><time>2026-05-03T16:28:30.999Z</time></trkpt><trkpt lat="35.98761623137276" lon="-107.05189107056862"><ele>2093.333333333333</ele><time>2026-05-03T16:28:31.999Z</time></trkpt><trkpt lat="35.987774450860975" lon="-107.05184070257535"><ele>2093.6666666666665</ele><time>2026-05-03T16:28:32.999Z</time></trkpt><trkpt lat="35.98792851251581" lon="-107.05182398613779"><ele>2094.0</ele><time>2026-05-03T16:28:33.999Z</time></trkpt><trkpt lat="35.98808727639703" lon="-107.05184832598034"><ele>2094.0</ele><time>2026-05-03T16:28:34.999Z</time></trkpt><trkpt lat="35.98821948439217" lon="-107.05189858378624"><ele>2094.0</ele><time>2026-05-03T16:28:35.999Z</time></trkpt><trkpt lat="35.988317088576245" lon="-107.0519705746859"><ele>2094.0</ele><time>2026-05-03T16:28:36.999Z</time></trkpt><trkpt lat="35.988402315678734" lon="-107.052073383528"><ele>2094.0</ele><time>2026-05-03T16:28:37.999Z</time></trkpt><trkpt lat="35.98848814596914" lon="-107.0522230375764"><ele>2094.0</ele><time>2026-05-03T16:28:38.999Z</time></trkpt><trkpt lat="35.988579393525406" lon="-107.05236290545908"><ele>2094.0</ele><time>2026-05-03T16:28:39.999Z</time></trkpt><trkpt lat="35.98868696598449" lon="-107.05248490843087"><ele>2094.0</ele><time>2026-05-03T16:28:40.999Z</time></trkpt><trkpt lat="35.9888090013427" lon="-107.05258797364476"><ele>2094.0</ele><time>2026-05-03T16:28:41.999Z</time></trkpt><trkpt lat="35.98892837397655" lon="-107.05270425360436"><ele>2094.0</ele><time>2026-05-03T16:28:42.999Z</time></trkpt><trkpt lat="35.989002291096114" lon="-107.05283914386959"><ele>2094.0</ele><time>2026-05-03T16:28:43.999Z</time></trkpt><trkpt lat="35.989055797081086" lon="-107.05302178452281"><ele>2094.0</ele><time>2026-05-03T16:28:44.999Z</time></trkpt><trkpt lat="35.98912145119165" lon="-107.05319105034036"><ele>2094.0</ele><time>2026-05-03T16:28:45.999Z</time></trkpt><trkpt lat="35.98920839852697" lon="-107.05333279557219"><ele>2094.6666666666665</ele><time>2026-05-03T16:28:46.999Z</time></trkpt><trkpt lat="35.98929184686145" lon="-107.05351427710072"><ele>2095.333333333333</ele><time>2026-05-03T16:28:47.999Z</time></trkpt><trkpt lat="35.98934797791593" lon="-107.05372159343199"><ele>2096.0</ele><time>2026-05-03T16:28:48.999Z</time></trkpt><trkpt lat="35.989398755666784" lon="-107.05389318535856"><ele>2096.0</ele><time>2026-05-03T16:28:49.999Z</time></trkpt><trkpt lat="35.98944092013134" lon="-107.05403248840656"><ele>2096.0</ele><time>2026-05-03T16:28:50.999Z</time></trkpt><trkpt lat="35.98945271042334" lon="-107.0541301804618"><ele>2096.0</ele><time>2026-05-03T16:28:51.999Z</time></trkpt><trkpt lat="35.98948334757014" lon="-107.0542653824105"><ele>2096.0</ele><time>2026-05-03T16:28:53.999Z</time></trkpt><trkpt lat="35.989513466535826" lon="-107.05440087650406"><ele>2096.0</ele><time>2026-05-03T16:28:54.999Z</time></trkpt><trkpt lat="35.989538218751626" lon="-107.05455832262639"><ele>2096.25</ele><time>2026-05-03T16:28:55.999Z</time></trkpt><trkpt lat="35.989572952893674" lon="-107.05470106045324"><ele>2096.5</ele><time>2026-05-03T16:28:56.999Z</time></trkpt><trkpt lat="35.989609580892726" lon="-107.0548403182776"><ele>2096.75</ele><time>2026-05-03T16:28:57.999Z</time></trkpt><trkpt lat="35.98963803824533" lon="-107.05499423517075"><ele>2097.0</ele><time>2026-05-03T16:28:58.999Z</time></trkpt><trkpt lat="35.989683170376765" lon="-107.05515107889278"><ele>2098.0</ele><time>2026-05-03T16:28:59.999Z</time></trkpt><trkpt lat="35.989731617520526" lon="-107.05529352313036"><ele>2099.0</ele><time>2026-05-03T16:29:00.999Z</time></trkpt><trkpt lat="35.98978289006266" lon="-107.05543211332497"><ele>2100.0</ele><time>2026-05-03T16:29:01.999Z</time></trkpt><trkpt lat="35.98983109457368" lon="-107.05555941470551"><ele>2101.0</ele><time>2026-05-03T16:29:02.999Z</time></trkpt><trkpt lat="35.989852808652905" lon="-107.05566680936052"><ele>2101.0</ele><time>2026-05-03T16:29:03.999Z</time></trkpt><trkpt lat="35.989822432437826" lon="-107.0557758591734"><ele>2101.0</ele><time>2026-05-03T16:29:04.999Z</time></trkpt><trkpt lat="35.98977275016438" lon="-107.05589488207698"><ele>2101.0</ele><time>2026-05-03T16:29:05.999Z</time></trkpt><trkpt lat="35.98973359852654" lon="-107.0560152374031"><ele>2101.0</ele><time>2026-05-03T16:29:06.999Z</time></trkpt><trkpt lat="35.98970121401292" lon="-107.05610334549874"><ele>2101.0</ele><time>2026-05-03T16:29:07.999Z</time></trkpt><trkpt lat="35.98964951005181" lon="-107.05619094918897"><ele>2101.6</ele><time>2026-05-03T16:29:08.999Z</time></trkpt><trkpt lat="35.98958034886376" lon="-107.05625138817184"><ele>2102.2</ele><time>2026-05-03T16:29:09.999Z</time></trkpt><trkpt lat="35.98949401590038" lon="-107.05627069862895"><ele>2102.8</ele><time>2026-05-03T16:29:10.999Z</time></trkpt><trkpt lat="35.989395011340726" lon="-107.05628739467227"><ele>2103.4</ele><time>2026-05-03T16:29:11.999Z</time></trkpt><trkpt lat="35.98930052792079" lon="-107.0563360516611"><ele>2104.0</ele><time>2026-05-03T16:29:12.999Z</time></trkpt><trkpt lat="35.98920482396324" lon="-107.05638891469168"><ele>2105.6</ele><time>2026-05-03T16:29:13.999Z</time></trkpt><trkpt lat="35.98910575409825" lon="-107.05640479843318"><ele>2107.2</ele><time>2026-05-03T16:29:14.999Z</time></trkpt><trkpt lat="35.989019747000036" lon="-107.05642810977209"><ele>2108.7999999999997</ele><time>2026-05-03T16:29:15.999Z</time></trkpt><trkpt lat="35.988947184443234" lon="-107.05647804336971"><ele>2110.4</ele><time>2026-05-03T16:29:16.999Z</time></trkpt><trkpt lat="35.98886675533163" lon="-107.05656835216031"><ele>2112.0</ele><time>2026-05-03T16:29:17.999Z</time></trkpt><trkpt lat="35.988804488467814" lon="-107.05662657119711"><ele>2112.0</ele><time>2026-05-03T16:29:18.999Z</time></trkpt><trkpt lat="35.988738248196746" lon="-107.0566369508248"><ele>2112.0</ele><time>2026-05-03T16:29:19.999Z</time></trkpt><trkpt lat="35.98864981049635" lon="-107.05668678776004"><ele>2112.0</ele><time>2026-05-03T16:29:20.999Z</time></trkpt><trkpt lat="35.98855526188989" lon="-107.05677809948409"><ele>2112.0</ele><time>2026-05-03T16:29:21.999Z</time></trkpt><trkpt lat="35.988459337741844" lon="-107.05689286657412"><ele>2112.0</ele><time>2026-05-03T16:29:23Z</time></trkpt><trkpt lat="35.98836075195472" lon="-107.05698124706527"><ele>2112.6</ele><time>2026-05-03T16:29:24Z</time></trkpt><trkpt lat="35.98826362721145" lon="-107.05706530006137"><ele>2113.2</ele><time>2026-05-03T16:29:25Z</time></trkpt><trkpt lat="35.98816586230264" lon="-107.05716467737115"><ele>2113.8</ele><time>2026-05-03T16:29:26Z</time></trkpt><trkpt lat="35.98808083473492" lon="-107.05724327612636"><ele>2114.4</ele><time>2026-05-03T16:29:27Z</time></trkpt><trkpt lat="35.98801270953963" lon="-107.05727185659178"><ele>2115.0</ele><time>2026-05-03T16:29:28Z</time></trkpt><trkpt lat="35.98793084296226" lon="-107.05724439561433"><ele>2115.0</ele><time>2026-05-03T16:29:29Z</time></trkpt><trkpt lat="35.9878003926603" lon="-107.05724450406916"><ele>2115.0</ele><time>2026-05-03T16:29:30Z</time></trkpt><trkpt lat="35.98764643171673" lon="-107.05729066929096"><ele>2115.0</ele><time>2026-05-03T16:29:31Z</time></trkpt><trkpt lat="35.987506494583776" lon="-107.05734886750724"><ele>2115.0</ele><time>2026-05-03T16:29:32Z</time></trkpt><trkpt lat="35.98738247049248" lon="-107.05740248006383"><ele>2116.5</ele><time>2026-05-03T16:29:33Z</time></trkpt><trkpt lat="35.9873065054281" lon="-107.05745915742799"><ele>2118.0</ele><time>2026-05-03T16:29:34Z</time></trkpt><trkpt lat="35.98723023026579" lon="-107.0575853008557"><ele>2119.5</ele><time>2026-05-03T16:29:35Z</time></trkpt><trkpt lat="35.98713997303225" lon="-107.05774134753082"><ele>2121.0</ele><time>2026-05-03T16:29:36Z</time></trkpt><trkpt lat="35.98704863549331" lon="-107.05789981882772"><ele>2121.0</ele><time>2026-05-03T16:29:37Z</time></trkpt><trkpt lat="35.98697207460967" lon="-107.0580645183331"><ele>2121.0</ele><time>2026-05-03T16:29:38Z</time></trkpt><trkpt lat="35.986878887480984" lon="-107.05821081431029"><ele>2121.0</ele><time>2026-05-03T16:29:39Z</time></trkpt><trkpt lat="35.98679295333681" lon="-107.05834152494302"><ele>2121.0</ele><time>2026-05-03T16:29:40Z</time></trkpt><trkpt lat="35.986701197885886" lon="-107.05845307998032"><ele>2122.0</ele><time>2026-05-03T16:29:41Z</time></trkpt><trkpt lat="35.98660005528069" lon="-107.05853938667613"><ele>2123.0</ele><time>2026-05-03T16:29:42Z</time></trkpt><trkpt lat="35.98648441601126" lon="-107.05861890816506"><ele>2124.0</ele><time>2026-05-03T16:29:43Z</time></trkpt><trkpt lat="35.986354555281004" lon="-107.05871357487108"><ele>2125.0</ele><time>2026-05-03T16:29:44Z</time></trkpt><trkpt lat="35.986241936378036" lon="-107.05882190004043"><ele>2125.0</ele><time>2026-05-03T16:29:45Z</time></trkpt><trkpt lat="35.986156490278034" lon="-107.0589398678592"><ele>2125.0</ele><time>2026-05-03T16:29:46Z</time></trkpt><trkpt lat="35.98610404300006" lon="-107.05901656437564"><ele>2125.0</ele><time>2026-05-03T16:29:47Z</time></trkpt><trkpt lat="35.985978031000016" lon="-107.05906820237965"><ele>2125.0</ele><time>2026-05-03T16:29:48Z</time></trkpt><trkpt lat="35.98581506250699" lon="-107.05911323452763"><ele>2125.5</ele><time>2026-05-03T16:29:49Z</time></trkpt><trkpt lat="35.98569853447406" lon="-107.05916337410909"><ele>2126.0</ele><time>2026-05-03T16:29:50Z</time></trkpt><trkpt lat="35.98560897007194" lon="-107.05923317804375"><ele>2126.5</ele><time>2026-05-03T16:29:51Z</time></trkpt><trkpt lat="35.98552622180541" lon="-107.05933092433943"><ele>2127.0</ele><time>2026-05-03T16:29:52Z</time></trkpt><trkpt lat="35.98541574604371" lon="-107.05942622314014"><ele>2127.0</ele><time>2026-05-03T16:29:53Z</time></trkpt><trkpt lat="35.9852724764466" lon="-107.05948569056811"><ele>2127.0</ele><time>2026-05-03T16:29:54Z</time></trkpt><trkpt lat="35.985136384598384" lon="-107.05951796748325"><ele>2127.0</ele><time>2026-05-03T16:29:55Z</time></trkpt><trkpt lat="35.985021197107244" lon="-107.05961308760607"><ele>2127.0</ele><time>2026-05-03T16:29:56Z</time></trkpt><trkpt lat="35.98491358700012" lon="-107.05970181126371"><ele>2127.75</ele><time>2026-05-03T16:29:57Z</time></trkpt><trkpt lat="35.98479484975651" lon="-107.0597292612801"><ele>2128.5</ele><time>2026-05-03T16:29:58Z</time></trkpt><trkpt lat="35.984645863193194" lon="-107.05972627657235"><ele>2129.25</ele><time>2026-05-03T16:29:59Z</time></trkpt><trkpt lat="35.98452917680529" lon="-107.05974688760686"><ele>2130.0</ele><time>2026-05-03T16:30:00Z</time></trkpt><trkpt lat="35.9844693582445" lon="-107.05981695572285"><ele>2130.0</ele><time>2026-05-03T16:30:01Z</time></trkpt><trkpt lat="35.98441885440389" lon="-107.05995414048043"><ele>2130.0</ele><time>2026-05-03T16:30:02Z</time></trkpt><trkpt lat="35.98438489779547" lon="-107.06013369220662"><ele>2130.0</ele><time>2026-05-03T16:30:03Z</time></trkpt><trkpt lat="35.984367908786595" lon="-107.06032878792938"><ele>2130.0</ele><time>2026-05-03T16:30:04Z</time></trkpt><trkpt lat="35.984395147267136" lon="-107.06051211441098"><ele>2130.0</ele><time>2026-05-03T16:30:05Z</time></trkpt><trkpt lat="35.98438506098342" lon="-107.06068524927058"><ele>2130.0</ele><time>2026-05-03T16:30:06Z</time></trkpt><trkpt lat="35.98438551004691" lon="-107.06088179857827"><ele>2130.0</ele><time>2026-05-03T16:30:07Z</time></trkpt><trkpt lat="35.984396808896136" lon="-107.06109142282493"><ele>2129.3333333333335</ele><time>2026-05-03T16:30:08Z</time></trkpt><trkpt lat="35.98441919318636" lon="-107.06132116827676"><ele>2128.666666666667</ele><time>2026-05-03T16:30:09Z</time></trkpt><trkpt lat="35.98443869445874" lon="-107.06156091122759"><ele>2128.0</ele><time>2026-05-03T16:30:10Z</time></trkpt><trkpt lat="35.984432189481396" lon="-107.06181408871728"><ele>2127.3333333333335</ele><time>2026-05-03T16:30:11Z</time></trkpt><trkpt lat="35.984438493616885" lon="-107.06203351577156"><ele>2126.6666666666665</ele><time>2026-05-03T16:30:12Z</time></trkpt><trkpt lat="35.984440020461356" lon="-107.0622268625263"><ele>2126.0</ele><time>2026-05-03T16:30:13Z</time></trkpt><trkpt lat="35.984445526161515" lon="-107.06239866668312"><ele>2125.25</ele><time>2026-05-03T16:30:14Z</time></trkpt><trkpt lat="35.984465751369456" lon="-107.06257733361261"><ele>2124.5</ele><time>2026-05-03T16:30:15Z</time></trkpt><trkpt lat="35.98448339868382" lon="-107.06275412874473"><ele>2123.75</ele><time>2026-05-03T16:30:16Z</time></trkpt><trkpt lat="35.98449036181197" lon="-107.06292660580338"><ele>2123.0</ele><time>2026-05-03T16:30:17Z</time></trkpt><trkpt lat="35.98450164974858" lon="-107.06308678449902"><ele>2123.0</ele><time>2026-05-03T16:30:18Z</time></trkpt><trkpt lat="35.984509743540045" lon="-107.06326114920732"><ele>2123.0</ele><time>2026-05-03T16:30:19Z</time></trkpt><trkpt lat="35.98452872403481" lon="-107.0634287645789"><ele>2123.0</ele><time>2026-05-03T16:30:20Z</time></trkpt><trkpt lat="35.98453324344229" lon="-107.06359398528636"><ele>2123.0</ele><time>2026-05-03T16:30:21Z</time></trkpt><trkpt lat="35.98453410591616" lon="-107.06380660618704"><ele>2123.0</ele><time>2026-05-03T16:30:22Z</time></trkpt><trkpt lat="35.9845469631635" lon="-107.06402254319659"><ele>2123.0</ele><time>2026-05-03T16:30:23Z</time></trkpt><trkpt lat="35.98456008345195" lon="-107.06421271846949"><ele>2123.0</ele><time>2026-05-03T16:30:24Z</time></trkpt><trkpt lat="35.984575480476934" lon="-107.06442008795875"><ele>2123.0</ele><time>2026-05-03T16:30:25Z</time></trkpt><trkpt lat="35.98458791697054" lon="-107.06465137368671"><ele>2123.0</ele><time>2026-05-03T16:30:26Z</time></trkpt><trkpt lat="35.984589390907416" lon="-107.06487466043943"><ele>2123.0</ele><time>2026-05-03T16:30:27Z</time></trkpt><trkpt lat="35.984599963307375" lon="-107.0650526132875"><ele>2123.0</ele><time>2026-05-03T16:30:28Z</time></trkpt><trkpt lat="35.984612499781036" lon="-107.06523952869951"><ele>2123.0</ele><time>2026-05-03T16:30:29Z</time></trkpt><trkpt lat="35.98461669742208" lon="-107.06542643909073"><ele>2123.0</ele><time>2026-05-03T16:30:30Z</time></trkpt><trkpt lat="35.98461724895343" lon="-107.0655995372563"><ele>2123.0</ele><time>2026-05-03T16:30:31Z</time></trkpt><trkpt lat="35.984617524582426" lon="-107.06577623099487"><ele>2123.333333333333</ele><time>2026-05-03T16:30:32Z</time></trkpt><trkpt lat="35.98462876140167" lon="-107.0659780663291"><ele>2123.6666666666665</ele><time>2026-05-03T16:30:33Z</time></trkpt><trkpt lat="35.98463925267793" lon="-107.06618354180051"><ele>2124.0</ele><time>2026-05-03T16:30:34Z</time></trkpt><trkpt lat="35.98463090901541" lon="-107.06637927625772"><ele>2124.0</ele><time>2026-05-03T16:30:35Z</time></trkpt><trkpt lat="35.98462409572118" lon="-107.06655161541728"><ele>2124.0</ele><time>2026-05-03T16:30:36Z</time></trkpt><trkpt lat="35.98464216828772" lon="-107.06668691745054"><ele>2124.0</ele><time>2026-05-03T16:30:37Z</time></trkpt><trkpt lat="35.984667422035365" lon="-107.06681446008103"><ele>2124.0</ele><time>2026-05-03T16:30:38Z</time></trkpt><trkpt lat="35.984679397241926" lon="-107.06695914468892"><ele>2124.5</ele><time>2026-05-03T16:30:39Z</time></trkpt><trkpt lat="35.98467406324712" lon="-107.06711982555268"><ele>2125.0</ele><time>2026-05-03T16:30:40Z</time></trkpt><trkpt lat="35.984668512461354" lon="-107.06729087238489"><ele>2125.5</ele><time>2026-05-03T16:30:41Z</time></trkpt><trkpt lat="35.98467690251241" lon="-107.06746671624565"><ele>2126.0</ele><time>2026-05-03T16:30:42Z</time></trkpt><trkpt lat="35.98467625689695" lon="-107.06761776901877"><ele>2126.2</ele><time>2026-05-03T16:30:43Z</time></trkpt><trkpt lat="35.98468315096197" lon="-107.06773677580343"><ele>2126.3999999999996</ele><time>2026-05-03T16:30:43.999Z</time></trkpt><trkpt lat="35.984698363910475" lon="-107.06784725123946"><ele>2126.6</ele><time>2026-05-03T16:30:44.999Z</time></trkpt><trkpt lat="35.984709546093534" lon="-107.0679781323112"><ele>2126.7999999999997</ele><time>2026-05-03T16:30:45.999Z</time></trkpt><trkpt lat="35.984709268876216" lon="-107.06811628937552"><ele>2127.0</ele><time>2026-05-03T16:30:46.999Z</time></trkpt><trkpt lat="35.9847142317977" lon="-107.06827424583709"><ele>2127.4</ele><time>2026-05-03T16:30:47.999Z</time></trkpt><trkpt lat="35.984725862065666" lon="-107.06841936553326"><ele>2127.7999999999997</ele><time>2026-05-03T16:30:48.999Z</time></trkpt><trkpt lat="35.98472451761435" lon="-107.0685531002346"><ele>2128.2</ele><time>2026-05-03T16:30:49.999Z</time></trkpt><trkpt lat="35.984736638349396" lon="-107.06865694510088"><ele>2128.6</ele><time>2026-05-03T16:30:50.999Z</time></trkpt><trkpt lat="35.984802667903224" lon="-107.06876555316306"><ele>2129.0</ele><time>2026-05-03T16:30:52.999Z</time></trkpt><trkpt lat="35.98488553212059" lon="-107.0687924653343"><ele>2129.0</ele><time>2026-05-03T16:30:53.999Z</time></trkpt><trkpt lat="35.98498521371845" lon="-107.0688107709959"><ele>2129.0</ele><time>2026-05-03T16:30:54.999Z</time></trkpt><trkpt lat="35.98509286560147" lon="-107.06882615186204"><ele>2129.0</ele><time>2026-05-03T16:30:55.999Z</time></trkpt><trkpt lat="35.98520692083993" lon="-107.06886362775147"><ele>2129.0</ele><time>2026-05-03T16:30:56.999Z</time></trkpt><trkpt lat="35.98528991552629" lon="-107.06892148000196"><ele>2129.0</ele><time>2026-05-03T16:30:57.999Z</time></trkpt><trkpt lat="35.98534432628723" lon="-107.06898919555664"><ele>2129.1666666666665</ele><time>2026-05-03T16:30:58.999Z</time></trkpt><trkpt lat="35.98536320323379" lon="-107.06908480765132"><ele>2129.333333333333</ele><time>2026-05-03T16:30:59.999Z</time></trkpt><trkpt lat="35.98537852107343" lon="-107.06919660986688"><ele>2129.5</ele><time>2026-05-03T16:31:00.999Z</time></trkpt><trkpt lat="35.98541059272013" lon="-107.06928364288913"><ele>2129.6666666666665</ele><time>2026-05-03T16:31:01.999Z</time></trkpt><trkpt lat="35.98548377550993" lon="-107.06934507189655"><ele>2129.8333333333335</ele><time>2026-05-03T16:31:02.999Z</time></trkpt><trkpt lat="35.985545538072074" lon="-107.0694003294101"><ele>2130.0</ele><time>2026-05-03T16:31:03.999Z</time></trkpt><trkpt lat="35.985571565102155" lon="-107.06949668183951"><ele>2130.4</ele><time>2026-05-03T16:31:04.999Z</time></trkpt><trkpt lat="35.985569837462926" lon="-107.06961562875597"><ele>2130.8</ele><time>2026-05-03T16:31:05.999Z</time></trkpt><trkpt lat="35.9856200722023" lon="-107.06970520207994"><ele>2131.2</ele><time>2026-05-03T16:31:06.999Z</time></trkpt><trkpt lat="35.985706151715235" lon="-107.06970829554203"><ele>2131.6</ele><time>2026-05-03T16:31:07.999Z</time></trkpt><trkpt lat="35.98581639181529" lon="-107.06973732568477"><ele>2132.0</ele><time>2026-05-03T16:31:08.999Z</time></trkpt><trkpt lat="35.985906978822605" lon="-107.0698100528946"><ele>2131.333333333333</ele><time>2026-05-03T16:31:09.999Z</time></trkpt><trkpt lat="35.98599910653884" lon="-107.06985652251969"><ele>2130.6666666666665</ele><time>2026-05-03T16:31:10.999Z</time></trkpt><trkpt lat="35.986079801567506" lon="-107.06989266626952"><ele>2130.0</ele><time>2026-05-03T16:31:11.999Z</time></trkpt><trkpt lat="35.986131670542655" lon="-107.06994579243498"><ele>2129.3333333333335</ele><time>2026-05-03T16:31:12.999Z</time></trkpt><trkpt lat="35.986147005061255" lon="-107.07002951553035"><ele>2128.666666666667</ele><time>2026-05-03T16:31:13.999Z</time></trkpt><trkpt lat="35.98612993687855" lon="-107.07012530595"><ele>2128.0</ele><time>2026-05-03T16:31:14.999Z</time></trkpt><trkpt lat="35.98611587762067" lon="-107.07024175944925"><ele>2128.0</ele><time>2026-05-03T16:31:15.999Z</time></trkpt><trkpt lat="35.986145614939375" lon="-107.07035778791658"><ele>2128.0</ele><time>2026-05-03T16:31:16.999Z</time></trkpt><trkpt lat="35.98621970854289" lon="-107.07044936597481"><ele>2128.0</ele><time>2026-05-03T16:31:17.999Z</time></trkpt><trkpt lat="35.98633760665808" lon="-107.07047417050673"><ele>2128.0</ele><time>2026-05-03T16:31:18.999Z</time></trkpt><trkpt lat="35.98648940154496" lon="-107.07047682175825"><ele>2128.0</ele><time>2026-05-03T16:31:19.999Z</time></trkpt><trkpt lat="35.98661842625468" lon="-107.07049104838005"><ele>2128.0</ele><time>2026-05-03T16:31:20.999Z</time></trkpt><trkpt lat="35.986719231050664" lon="-107.07052213690177"><ele>2128.0</ele><time>2026-05-03T16:31:21.999Z</time></trkpt><trkpt lat="35.986835597527985" lon="-107.07052622055448"><ele>2128.0</ele><time>2026-05-03T16:31:22.999Z</time></trkpt><trkpt lat="35.98694132042997" lon="-107.07056246674797"><ele>2127.2000000000003</ele><time>2026-05-03T16:31:23.999Z</time></trkpt><trkpt lat="35.98700792131546" lon="-107.0706200669472"><ele>2126.4</ele><time>2026-05-03T16:31:24.999Z</time></trkpt><trkpt lat="35.98706501118723" lon="-107.07055240049641"><ele>2125.6000000000004</ele><time>2026-05-03T16:31:32Z</time></trkpt><trkpt lat="35.98720915766793" lon="-107.07054376206162"><ele>2124.8</ele><time>2026-05-03T16:31:34Z</time></trkpt><trkpt lat="35.98730551616895" lon="-107.07052817979265"><ele>2124.0</ele><time>2026-05-03T16:31:37Z</time></trkpt><trkpt lat="35.987356455681294" lon="-107.07057496599381"><ele>2124.0</ele><time>2026-05-03T16:31:38Z</time></trkpt><trkpt lat="35.98742565020392" lon="-107.07062937748788"><ele>2124.0</ele><time>2026-05-03T16:31:39Z</time></trkpt><trkpt lat="35.98748958736461" lon="-107.07067879337654"><ele>2124.0</ele><time>2026-05-03T16:31:40Z</time></trkpt><trkpt lat="35.98754463467108" lon="-107.07071783770765"><ele>2124.0</ele><time>2026-05-03T16:31:41Z</time></trkpt><trkpt lat="35.98764886247816" lon="-107.07074702992054"><ele>2124.0</ele><time>2026-05-03T16:31:43Z</time></trkpt><trkpt lat="35.987732812348966" lon="-107.07067956510674"><ele>2124.0</ele><time>2026-05-03T16:31:45Z</time></trkpt><trkpt lat="35.987795579450186" lon="-107.07065151835711"><ele>2124.0</ele><time>2026-05-03T16:31:46Z</time></trkpt><trkpt lat="35.98786213772263" lon="-107.07065544165968"><ele>2124.0</ele><time>2026-05-03T16:31:47Z</time></trkpt><trkpt lat="35.98794888246683" lon="-107.07063920463834"><ele>2124.0</ele><time>2026-05-03T16:31:48Z</time></trkpt><trkpt lat="35.98803269351081" lon="-107.07066779423064"><ele>2124.0</ele><time>2026-05-03T16:31:49Z</time></trkpt><trkpt lat="35.98809564664814" lon="-107.07072111966835"><ele>2124.0</ele><time>2026-05-03T16:31:50Z</time></trkpt><trkpt lat="35.9881573244706" lon="-107.07077948588665"><ele>2124.0</ele><time>2026-05-03T16:31:51Z</time></trkpt><trkpt lat="35.988222792325416" lon="-107.07085164597838"><ele>2124.0</ele><time>2026-05-03T16:31:52Z</time></trkpt><trkpt lat="35.98828645729649" lon="-107.07094930307439"><ele>2124.0</ele><time>2026-05-03T16:31:53Z</time></trkpt><trkpt lat="35.98821120652374" lon="-107.07117778729936"><ele>2124.0</ele><time>2026-05-03T16:31:54Z</time></trkpt><trkpt lat="35.98817284862925" lon="-107.07128207820948"><ele>2124.0</ele><time>2026-05-03T16:31:55Z</time></trkpt><trkpt lat="35.9881362585795" lon="-107.07136283238461"><ele>2124.0</ele><time>2026-05-03T16:31:56Z</time></trkpt><trkpt lat="35.9880883257724" lon="-107.07150908250689"><ele>2124.0</ele><time>2026-05-03T16:31:57Z</time></trkpt><trkpt lat="35.988026266215535" lon="-107.07163812286491"><ele>2124.0</ele><time>2026-05-03T16:31:58Z</time></trkpt><trkpt lat="35.98798001732877" lon="-107.0717211941899"><ele>2124.0</ele><time>2026-05-03T16:31:59Z</time></trkpt><trkpt lat="35.988047182471384" lon="-107.0718132570102"><ele>2124.0</ele><time>2026-05-03T16:32:01Z</time></trkpt><trkpt lat="35.98814818321575" lon="-107.07188462050769"><ele>2123.75</ele><time>2026-05-03T16:32:02Z</time></trkpt><trkpt lat="35.988256294931276" lon="-107.0719440760948"><ele>2123.5</ele><time>2026-05-03T16:32:03Z</time></trkpt><trkpt lat="35.988364782335104" lon="-107.07199442703795"><ele>2123.25</ele><time>2026-05-03T16:32:04Z</time></trkpt><trkpt lat="35.98850671553518" lon="-107.07205175743029"><ele>2123.0</ele><time>2026-05-03T16:32:05Z</time></trkpt><trkpt lat="35.988646792969874" lon="-107.0721345363365"><ele>2123.0</ele><time>2026-05-03T16:32:06Z</time></trkpt><trkpt lat="35.98877716093457" lon="-107.0722040181886"><ele>2123.0</ele><time>2026-05-03T16:32:07Z</time></trkpt><trkpt lat="35.988909761675345" lon="-107.07225046229499"><ele>2123.0</ele><time>2026-05-03T16:32:08Z</time></trkpt><trkpt lat="35.98903189113804" lon="-107.07231176762053"><ele>2123.0</ele><time>2026-05-03T16:32:09Z</time></trkpt><trkpt lat="35.9891267735742" lon="-107.07240680348617"><ele>2123.25</ele><time>2026-05-03T16:32:10Z</time></trkpt><trkpt lat="35.98925416279406" lon="-107.07250410774712"><ele>2123.5</ele><time>2026-05-03T16:32:11Z</time></trkpt><trkpt lat="35.989392528755694" lon="-107.07255330984862"><ele>2123.75</ele><time>2026-05-03T16:32:12Z</time></trkpt><trkpt lat="35.98950643359571" lon="-107.0726041469388"><ele>2124.0</ele><time>2026-05-03T16:32:13Z</time></trkpt><trkpt lat="35.98961236601012" lon="-107.07264461272234"><ele>2124.0</ele><time>2026-05-03T16:32:14Z</time></trkpt><trkpt lat="35.98972614878545" lon="-107.07270630959033"><ele>2124.0</ele><time>2026-05-03T16:32:15Z</time></trkpt><trkpt lat="35.98986907883717" lon="-107.07279483039761"><ele>2124.0</ele><time>2026-05-03T16:32:16Z</time></trkpt><trkpt lat="35.99001866732778" lon="-107.07287058170908"><ele>2124.0</ele><time>2026-05-03T16:32:17Z</time></trkpt><trkpt lat="35.990144538432496" lon="-107.0729426491127"><ele>2124.25</ele><time>2026-05-03T16:32:18Z</time></trkpt><trkpt lat="35.99024636806638" lon="-107.0730309489906"><ele>2124.5</ele><time>2026-05-03T16:32:19Z</time></trkpt><trkpt lat="35.99036181257082" lon="-107.07311460139627"><ele>2124.75</ele><time>2026-05-03T16:32:20Z</time></trkpt><trkpt lat="35.99048605287658" lon="-107.07319604650685"><ele>2125.0</ele><time>2026-05-03T16:32:21Z</time></trkpt><trkpt lat="35.99061308752593" lon="-107.07326996648446"><ele>2126.0</ele><time>2026-05-03T16:32:22Z</time></trkpt><trkpt lat="35.990750916426904" lon="-107.07333345959063"><ele>2127.0</ele><time>2026-05-03T16:32:23Z</time></trkpt><trkpt lat="35.99085748624444" lon="-107.0734050696808"><ele>2128.0</ele><time>2026-05-03T16:32:24Z</time></trkpt><trkpt lat="35.9909412845405" lon="-107.07347743022534"><ele>2129.0</ele><time>2026-05-03T16:32:25Z</time></trkpt><trkpt lat="35.991077718006366" lon="-107.07354358345978"><ele>2131.6666666666665</ele><time>2026-05-03T16:32:26Z</time></trkpt><trkpt lat="35.9912412226336" lon="-107.07361218298051"><ele>2134.3333333333335</ele><time>2026-05-03T16:32:27Z</time></trkpt><trkpt lat="35.99141381727948" lon="-107.07369925091247"><ele>2137.0</ele><time>2026-05-03T16:32:28Z</time></trkpt><trkpt lat="35.99157200865732" lon="-107.07379316115372"><ele>2137.25</ele><time>2026-05-03T16:32:29Z</time></trkpt><trkpt lat="35.99168093083972" lon="-107.07388008117962"><ele>2137.5</ele><time>2026-05-03T16:32:30Z</time></trkpt><trkpt lat="35.99170824024122" lon="-107.073979033883"><ele>2137.75</ele><time>2026-05-03T16:32:31Z</time></trkpt><trkpt lat="35.99172831234465" lon="-107.07414508940302"><ele>2138.0</ele><time>2026-05-03T16:32:32Z</time></trkpt><trkpt lat="35.991730944366275" lon="-107.07432355455174"><ele>2137.0</ele><time>2026-05-03T16:32:33Z</time></trkpt><trkpt lat="35.99175458788021" lon="-107.07450007173811"><ele>2136.0</ele><time>2026-05-03T16:32:34Z</time></trkpt><trkpt lat="35.99180524806024" lon="-107.07465725181467"><ele>2135.0</ele><time>2026-05-03T16:32:35Z</time></trkpt><trkpt lat="35.99188141363581" lon="-107.07483321080434"><ele>2134.0</ele><time>2026-05-03T16:32:36Z</time></trkpt><trkpt lat="35.991968793267155" lon="-107.07500702676928"><ele>2132.666666666667</ele><time>2026-05-03T16:32:37Z</time></trkpt><trkpt lat="35.992084426567295" lon="-107.0751515946745"><ele>2131.3333333333335</ele><time>2026-05-03T16:32:38Z</time></trkpt><trkpt lat="35.99221122889329" lon="-107.07529960665869"><ele>2130.0</ele><time>2026-05-03T16:32:39Z</time></trkpt><trkpt lat="35.992349275939794" lon="-107.07544521323034"><ele>2130.0</ele><time>2026-05-03T16:32:40Z</time></trkpt><trkpt lat="35.992470866477596" lon="-107.07557871544189"><ele>2130.0</ele><time>2026-05-03T16:32:41Z</time></trkpt><trkpt lat="35.99258604676734" lon="-107.0756981203951"><ele>2130.0</ele><time>2026-05-03T16:32:42Z</time></trkpt><trkpt lat="35.99267755903893" lon="-107.07580070910171"><ele>2130.0</ele><time>2026-05-03T16:32:43Z</time></trkpt><trkpt lat="35.992740360635956" lon="-107.07588872254411"><ele>2129.0</ele><time>2026-05-03T16:32:44Z</time></trkpt><trkpt lat="35.99278158997255" lon="-107.07596571328207"><ele>2128.0</ele><time>2026-05-03T16:32:45Z</time></trkpt><trkpt lat="35.992808183529895" lon="-107.07603669450667"><ele>2127.0</ele><time>2026-05-03T16:32:46Z</time></trkpt><trkpt lat="35.99275486073146" lon="-107.07608518944997"><ele>2126.0</ele><time>2026-05-03T16:32:48Z</time></trkpt><trkpt lat="35.99268592589009" lon="-107.07605019083474"><ele>2125.0</ele><time>2026-05-03T16:32:49Z</time></trkpt><trkpt lat="35.992611013235404" lon="-107.07598531105008"><ele>2124.0</ele><time>2026-05-03T16:32:50Z</time></trkpt><trkpt lat="35.99252160618678" lon="-107.07586271556458"><ele>2125.5</ele><time>2026-05-03T16:32:51Z</time></trkpt><trkpt lat="35.99241973028833" lon="-107.07575330438664"><ele>2127.0</ele><time>2026-05-03T16:32:52Z</time></trkpt><trkpt lat="35.992334307941505" lon="-107.07565494760844"><ele>2128.5</ele><time>2026-05-03T16:32:53Z</time></trkpt><trkpt lat="35.992238027541504" lon="-107.07554907714722"><ele>2130.0</ele><time>2026-05-03T16:32:54Z</time></trkpt><trkpt lat="35.99216030207036" lon="-107.07546166949854"><ele>2130.0</ele><time>2026-05-03T16:32:55Z</time></trkpt><trkpt lat="35.99206748272106" lon="-107.07534178682447"><ele>2130.0</ele><time>2026-05-03T16:32:56Z</time></trkpt><trkpt lat="35.99196613057717" lon="-107.07521775111834"><ele>2130.0</ele><time>2026-05-03T16:32:57Z</time></trkpt><trkpt lat="35.99187315857103" lon="-107.07510223964906"><ele>2130.0</ele><time>2026-05-03T16:32:58Z</time></trkpt><trkpt lat="35.99182192050687" lon="-107.07502296474911"><ele>2130.0</ele><time>2026-05-03T16:32:59Z</time></trkpt><trkpt lat="35.99175311155105" lon="-107.07500273110793"><ele>2130.0</ele><time>2026-05-03T16:33:00Z</time></trkpt><trkpt lat="35.99166163299051" lon="-107.07497750875343"><ele>2130.0</ele><time>2026-05-03T16:33:01Z</time></trkpt><trkpt lat="35.99158042529515" lon="-107.0749819620017"><ele>2130.0</ele><time>2026-05-03T16:33:02Z</time></trkpt><trkpt lat="35.9915270104771" lon="-107.07492361776333"><ele>2130.0</ele><time>2026-05-03T16:33:03Z</time></trkpt><trkpt lat="35.99146537089501" lon="-107.07485823677786"><ele>2130.0</ele><time>2026-05-03T16:33:04Z</time></trkpt><trkpt lat="35.99140865600497" lon="-107.07480044453597"><ele>2131.25</ele><time>2026-05-03T16:33:05Z</time></trkpt><trkpt lat="35.99130337465083" lon="-107.07473663222349"><ele>2132.5</ele><time>2026-05-03T16:33:07Z</time></trkpt><trkpt lat="35.991188572895545" lon="-107.07476017367091"><ele>2133.75</ele><time>2026-05-03T16:33:09Z</time></trkpt><trkpt lat="35.99116694365" lon="-107.07488414921625"><ele>2135.0</ele><time>2026-05-03T16:33:11Z</time></trkpt><trkpt lat="35.99115235948411" lon="-107.07502861739867"><ele>2135.0</ele><time>2026-05-03T16:33:12Z</time></trkpt><trkpt lat="35.991154624450786" lon="-107.07515063806184"><ele>2135.0</ele><time>2026-05-03T16:33:13Z</time></trkpt><trkpt lat="35.99109383145522" lon="-107.07525440776459"><ele>2135.0</ele><time>2026-05-03T16:33:13.999Z</time></trkpt><trkpt lat="35.99102036840687" lon="-107.07533223245625"><ele>2135.0</ele><time>2026-05-03T16:33:14.999Z</time></trkpt><trkpt lat="35.99092874610972" lon="-107.07539408014863"><ele>2135.0</ele><time>2026-05-03T16:33:15.999Z</time></trkpt><trkpt lat="35.99083641937126" lon="-107.0754543187218"><ele>2135.5</ele><time>2026-05-03T16:33:16.999Z</time></trkpt><trkpt lat="35.9907422718943" lon="-107.07550784294854"><ele>2136.0</ele><time>2026-05-03T16:33:17.999Z</time></trkpt><trkpt lat="35.99061758753064" lon="-107.07553522315395"><ele>2136.5</ele><time>2026-05-03T16:33:18.999Z</time></trkpt><trkpt lat="35.99054593727734" lon="-107.07556085596916"><ele>2137.0</ele><time>2026-05-03T16:33:19.999Z</time></trkpt><trkpt lat="35.99046630662222" lon="-107.07573353305467"><ele>2138.7999999999997</ele><time>2026-05-03T16:33:21.999Z</time></trkpt><trkpt lat="35.990381537605316" lon="-107.07584039931368"><ele>2140.6</ele><time>2026-05-03T16:33:22.999Z</time></trkpt><trkpt lat="35.99031983057566" lon="-107.07592567046328"><ele>2142.3999999999996</ele><time>2026-05-03T16:33:23.999Z</time></trkpt><trkpt lat="35.990246009032944" lon="-107.07602540831203"><ele>2144.2</ele><time>2026-05-03T16:33:24.999Z</time></trkpt><trkpt lat="35.9901762587669" lon="-107.07613607788845"><ele>2146.0</ele><time>2026-05-03T16:33:25.999Z</time></trkpt><trkpt lat="35.990119707677486" lon="-107.0762387540277"><ele>2146.0</ele><time>2026-05-03T16:33:26.999Z</time></trkpt><trkpt lat="35.99005306486552" lon="-107.07635634292951"><ele>2146.0</ele><time>2026-05-03T16:33:27.999Z</time></trkpt><trkpt lat="35.99001329155233" lon="-107.07647021195724"><ele>2146.0</ele><time>2026-05-03T16:33:28.999Z</time></trkpt><trkpt lat="35.98997213657813" lon="-107.07657510630018"><ele>2146.0</ele><time>2026-05-03T16:33:29.999Z</time></trkpt><trkpt lat="35.98989117140549" lon="-107.07666711030042"><ele>2146.0</ele><time>2026-05-03T16:33:30.999Z</time></trkpt><trkpt lat="35.989797755058525" lon="-107.07673480492065"><ele>2147.2</ele><time>2026-05-03T16:33:31.999Z</time></trkpt><trkpt lat="35.98972294916824" lon="-107.0767823789282"><ele>2148.3999999999996</ele><time>2026-05-03T16:33:32.999Z</time></trkpt><trkpt lat="35.98963986163847" lon="-107.07691843217536"><ele>2149.6</ele><time>2026-05-03T16:33:35Z</time></trkpt><trkpt lat="35.98959405920367" lon="-107.07701139054208"><ele>2150.7999999999997</ele><time>2026-05-03T16:33:36Z</time></trkpt><trkpt lat="35.98952232325335" lon="-107.07708322804547"><ele>2152.0</ele><time>2026-05-03T16:33:37Z</time></trkpt><trkpt lat="35.98939934403937" lon="-107.07711577233809"><ele>2152.0</ele><time>2026-05-03T16:33:39Z</time></trkpt><trkpt lat="35.98931515363913" lon="-107.07710322933248"><ele>2152.0</ele><time>2026-05-03T16:33:40Z</time></trkpt><trkpt lat="35.98923984621521" lon="-107.07712780686477"><ele>2152.0</ele><time>2026-05-03T16:33:41Z</time></trkpt><trkpt lat="35.98915607192051" lon="-107.07717829618153"><ele>2152.0</ele><time>2026-05-03T16:33:42Z</time></trkpt><trkpt lat="35.989071918693554" lon="-107.07716781133256"><ele>2152.0</ele><time>2026-05-03T16:33:43Z</time></trkpt><trkpt lat="35.98899256327785" lon="-107.07708850834693"><ele>2152.0</ele><time>2026-05-03T16:33:44Z</time></trkpt><trkpt lat="35.98892598987337" lon="-107.07702900185285"><ele>2152.0</ele><time>2026-05-03T16:33:45Z</time></trkpt><trkpt lat="35.988865716870585" lon="-107.07699051847617"><ele>2152.0</ele><time>2026-05-03T16:33:46Z</time></trkpt><trkpt lat="35.988784777876376" lon="-107.07696082955184"><ele>2152.0</ele><time>2026-05-03T16:33:47Z</time></trkpt><trkpt lat="35.98868955660269" lon="-107.07697160052146"><ele>2152.0</ele><time>2026-05-03T16:33:48Z</time></trkpt><trkpt lat="35.98860388602278" lon="-107.07696872404676"><ele>2152.0</ele><time>2026-05-03T16:33:49Z</time></trkpt><trkpt lat="35.98851652227206" lon="-107.0769161394617"><ele>2152.0</ele><time>2026-05-03T16:33:50Z</time></trkpt><trkpt lat="35.98842750007043" lon="-107.07684829330486"><ele>2151.5</ele><time>2026-05-03T16:33:51Z</time></trkpt><trkpt lat="35.98834040425649" lon="-107.07678956182716"><ele>2151.0</ele><time>2026-05-03T16:33:52Z</time></trkpt><trkpt lat="35.9882247429629" lon="-107.07671470735687"><ele>2150.5</ele><time>2026-05-03T16:33:53Z</time></trkpt><trkpt lat="35.98810974645312" lon="-107.07662576383859"><ele>2150.0</ele><time>2026-05-03T16:33:54Z</time></trkpt><trkpt lat="35.98797986705539" lon="-107.07653538832783"><ele>2150.0</ele><time>2026-05-03T16:33:55Z</time></trkpt><trkpt lat="35.987814587007875" lon="-107.07645718128651"><ele>2150.0</ele><time>2026-05-03T16:33:56Z</time></trkpt><trkpt lat="35.987637317049" lon="-107.07637967836449"><ele>2150.0</ele><time>2026-05-03T16:33:57Z</time></trkpt><trkpt lat="35.98749169883813" lon="-107.07627610497164"><ele>2152.6</ele><time>2026-05-03T16:33:58Z</time></trkpt><trkpt lat="35.98737647529781" lon="-107.07616987806402"><ele>2155.2</ele><time>2026-05-03T16:33:59Z</time></trkpt><trkpt lat="35.98727906445302" lon="-107.07609515404319"><ele>2157.8</ele><time>2026-05-03T16:34:00Z</time></trkpt><trkpt lat="35.98723392799023" lon="-107.076009395451"><ele>2160.4</ele><time>2026-05-03T16:34:01Z</time></trkpt><trkpt lat="35.9871754450767" lon="-107.07597498461332"><ele>2163.0</ele><time>2026-05-03T16:34:02Z</time></trkpt><trkpt lat="35.98707469190312" lon="-107.07590347828041"><ele>2163.0</ele><time>2026-05-03T16:34:03Z</time></trkpt><trkpt lat="35.986930948595564" lon="-107.0758506547983"><ele>2163.0</ele><time>2026-05-03T16:34:04Z</time></trkpt><trkpt lat="35.986804888887875" lon="-107.0757358481927"><ele>2163.0</ele><time>2026-05-03T16:34:05Z</time></trkpt><trkpt lat="35.98666129275823" lon="-107.07565048411527"><ele>2162.3333333333335</ele><time>2026-05-03T16:34:06Z</time></trkpt><trkpt lat="35.9864843855007" lon="-107.0755535139746"><ele>2161.666666666667</ele><time>2026-05-03T16:34:07Z</time></trkpt><trkpt lat="35.98631032513513" lon="-107.07547113991832"><ele>2161.0</ele><time>2026-05-03T16:34:08Z</time></trkpt><trkpt lat="35.9861617177531" lon="-107.07537257564123"><ele>2161.0</ele><time>2026-05-03T16:34:09Z</time></trkpt><trkpt lat="35.98599059919253" lon="-107.07525695071742"><ele>2161.0</ele><time>2026-05-03T16:34:10Z</time></trkpt><trkpt lat="35.98582987580448" lon="-107.07513602319737"><ele>2161.0</ele><time>2026-05-03T16:34:11Z</time></trkpt><trkpt lat="35.98569494767426" lon="-107.07505293454149"><ele>2160.75</ele><time>2026-05-03T16:34:12Z</time></trkpt><trkpt lat="35.985561483326116" lon="-107.07499889267353"><ele>2160.5</ele><time>2026-05-03T16:34:13Z</time></trkpt><trkpt lat="35.98545882353823" lon="-107.07495691460416"><ele>2160.25</ele><time>2026-05-03T16:34:14Z</time></trkpt><trkpt lat="35.98536699934886" lon="-107.0749390832143"><ele>2160.0</ele><time>2026-05-03T16:34:15Z</time></trkpt><trkpt lat="35.985225966703396" lon="-107.07496320365043"><ele>2160.0</ele><time>2026-05-03T16:34:16Z</time></trkpt><trkpt lat="35.9851130254962" lon="-107.07496833197577"><ele>2160.0</ele><time>2026-05-03T16:34:17Z</time></trkpt><trkpt lat="35.985027819422235" lon="-107.07494652913145"><ele>2160.0</ele><time>2026-05-03T16:34:18Z</time></trkpt><trkpt lat="35.985011544129065" lon="-107.0751188857847"><ele>2160.0</ele><time>2026-05-03T16:34:20Z</time></trkpt><trkpt lat="35.985067932353" lon="-107.07529392504786"><ele>2160.0</ele><time>2026-05-03T16:34:21Z</time></trkpt><trkpt lat="35.985118820530616" lon="-107.07546738396866"><ele>2160.0</ele><time>2026-05-03T16:34:22Z</time></trkpt><trkpt lat="35.98512002151711" lon="-107.07563739250452"><ele>2160.0</ele><time>2026-05-03T16:34:23Z</time></trkpt><trkpt lat="35.98514083615408" lon="-107.07582769618854"><ele>2160.0</ele><time>2026-05-03T16:34:24Z</time></trkpt><trkpt lat="35.98517848798127" lon="-107.07602561000816"><ele>2159.6666666666665</ele><time>2026-05-03T16:34:25Z</time></trkpt><trkpt lat="35.98519257106303" lon="-107.07625466422509"><ele>2159.333333333333</ele><time>2026-05-03T16:34:26Z</time></trkpt><trkpt lat="35.98516595680405" lon="-107.07644754633587"><ele>2159.0</ele><time>2026-05-03T16:34:27Z</time></trkpt><trkpt lat="35.985166724583095" lon="-107.07664053993594"><ele>2158.0</ele><time>2026-05-03T16:34:28Z</time></trkpt><trkpt lat="35.98520164248075" lon="-107.0768431106736"><ele>2157.0</ele><time>2026-05-03T16:34:29Z</time></trkpt><trkpt lat="35.985222480913116" lon="-107.07707842452629"><ele>2156.0</ele><time>2026-05-03T16:34:30Z</time></trkpt><trkpt lat="35.98523137192119" lon="-107.0773277468913"><ele>2156.0</ele><time>2026-05-03T16:34:31Z</time></trkpt><trkpt lat="35.98524888211046" lon="-107.0775820669911"><ele>2156.0</ele><time>2026-05-03T16:34:32Z</time></trkpt><trkpt lat="35.985262366204715" lon="-107.07783053019163"><ele>2156.0</ele><time>2026-05-03T16:34:33Z</time></trkpt><trkpt lat="35.9852827237709" lon="-107.0780453094783"><ele>2156.0</ele><time>2026-05-03T16:34:34Z</time></trkpt><trkpt lat="35.98529970421405" lon="-107.07824111097572"><ele>2156.0</ele><time>2026-05-03T16:34:35Z</time></trkpt><trkpt lat="35.985318438151445" lon="-107.07844010684433"><ele>2156.0</ele><time>2026-05-03T16:34:36Z</time></trkpt><trkpt lat="35.98532802020085" lon="-107.07863940720314"><ele>2156.333333333333</ele><time>2026-05-03T16:34:37Z</time></trkpt><trkpt lat="35.98533194294865" lon="-107.07885733132521"><ele>2156.6666666666665</ele><time>2026-05-03T16:34:38Z</time></trkpt><trkpt lat="35.98533847023808" lon="-107.07907989048434"><ele>2157.0</ele><time>2026-05-03T16:34:39Z</time></trkpt><trkpt lat="35.98535145684469" lon="-107.07929360187153"><ele>2156.3333333333335</ele><time>2026-05-03T16:34:40Z</time></trkpt><trkpt lat="35.98537448114751" lon="-107.07951625484229"><ele>2155.666666666667</ele><time>2026-05-03T16:34:41Z</time></trkpt><trkpt lat="35.985399184070296" lon="-107.07975395906178"><ele>2155.0</ele><time>2026-05-03T16:34:42Z</time></trkpt><trkpt lat="35.9854058613289" lon="-107.07996575070757"><ele>2155.0</ele><time>2026-05-03T16:34:43Z</time></trkpt><trkpt lat="35.98541170993343" lon="-107.08008134873901"><ele>2155.0</ele><time>2026-05-03T16:34:44Z</time></trkpt><trkpt lat="35.9854462417409" lon="-107.0801533942311"><ele>2155.0</ele><time>2026-05-03T16:34:45Z</time></trkpt><trkpt lat="35.98550625221003" lon="-107.08019662713053"><ele>2155.0</ele><time>2026-05-03T16:34:46Z</time></trkpt><trkpt lat="35.98560669546399" lon="-107.08019844361613"><ele>2155.0</ele><time>2026-05-03T16:34:47Z</time></trkpt><trkpt lat="35.985727985469495" lon="-107.08019732490993"><ele>2156.25</ele><time>2026-05-03T16:34:48Z</time></trkpt><trkpt lat="35.985849231928654" lon="-107.0801940283172"><ele>2157.5</ele><time>2026-05-03T16:34:49Z</time></trkpt><trkpt lat="35.9859822059232" lon="-107.08017776273483"><ele>2158.75</ele><time>2026-05-03T16:34:50Z</time></trkpt><trkpt lat="35.986123256767584" lon="-107.08017029972258"><ele>2160.0</ele><time>2026-05-03T16:34:51Z</time></trkpt><trkpt lat="35.98625008284789" lon="-107.0802017567773"><ele>2160.0</ele><time>2026-05-03T16:34:52Z</time></trkpt><trkpt lat="35.98635979047693" lon="-107.08024947711611"><ele>2160.0</ele><time>2026-05-03T16:34:53Z</time></trkpt><trkpt lat="35.986489937990825" lon="-107.08030713613722"><ele>2160.0</ele><time>2026-05-03T16:34:54Z</time></trkpt><trkpt lat="35.98662628983536" lon="-107.08034984489316"><ele>2160.0</ele><time>2026-05-03T16:34:55Z</time></trkpt><trkpt lat="35.98676756632025" lon="-107.08039258522729"><ele>2160.0</ele><time>2026-05-03T16:34:56Z</time></trkpt><trkpt lat="35.98686354221832" lon="-107.08041762953677"><ele>2160.0</ele><time>2026-05-03T16:34:57Z</time></trkpt><trkpt lat="35.98694677158263" lon="-107.08041051187074"><ele>2160.0</ele><time>2026-05-03T16:34:58Z</time></trkpt><trkpt lat="35.98701443894655" lon="-107.08046698762895"><ele>2160.0</ele><time>2026-05-03T16:34:59Z</time></trkpt><trkpt lat="35.98704595544345" lon="-107.08058809592237"><ele>2160.0</ele><time>2026-05-03T16:35:00Z</time></trkpt><trkpt lat="35.98709165942759" lon="-107.08075679957611"><ele>2159.25</ele><time>2026-05-03T16:35:01Z</time></trkpt><trkpt lat="35.98718859445966" lon="-107.08090687616948"><ele>2158.5</ele><time>2026-05-03T16:35:02Z</time></trkpt><trkpt lat="35.987298902562216" lon="-107.08101816554056"><ele>2157.75</ele><time>2026-05-03T16:35:03Z</time></trkpt><trkpt lat="35.98736184603997" lon="-107.08110886480081"><ele>2157.0</ele><time>2026-05-03T16:35:04Z</time></trkpt><trkpt lat="35.98738378128651" lon="-107.0812057855495"><ele>2157.0</ele><time>2026-05-03T16:35:05Z</time></trkpt><trkpt lat="35.98736462762257" lon="-107.08131266940418"><ele>2157.0</ele><time>2026-05-03T16:35:07Z</time></trkpt><trkpt lat="35.98731661383199" lon="-107.08147406520342"><ele>2157.0</ele><time>2026-05-03T16:35:09Z</time></trkpt><trkpt lat="35.987286022034844" lon="-107.08159720071065"><ele>2157.0</ele><time>2026-05-03T16:35:10Z</time></trkpt><trkpt lat="35.98726431737419" lon="-107.08171902856449"><ele>2157.0</ele><time>2026-05-03T16:35:11Z</time></trkpt><trkpt lat="35.98724327018277" lon="-107.0818598851995"><ele>2156.8333333333335</ele><time>2026-05-03T16:35:12Z</time></trkpt><trkpt lat="35.98722128065864" lon="-107.08198043247542"><ele>2156.6666666666665</ele><time>2026-05-03T16:35:13Z</time></trkpt><trkpt lat="35.98721172443881" lon="-107.08210252861869"><ele>2156.5</ele><time>2026-05-03T16:35:14Z</time></trkpt><trkpt lat="35.98722885998549" lon="-107.08221929640192"><ele>2156.333333333333</ele><time>2026-05-03T16:35:15Z</time></trkpt><trkpt lat="35.987260377348115" lon="-107.08231572491326"><ele>2156.1666666666665</ele><time>2026-05-03T16:35:16Z</time></trkpt><trkpt lat="35.98729833480346" lon="-107.08238552543966"><ele>2156.0</ele><time>2026-05-03T16:35:17Z</time></trkpt><trkpt lat="35.98736048274184" lon="-107.08244374429341"><ele>2155.333333333333</ele><time>2026-05-03T16:35:18Z</time></trkpt><trkpt lat="35.98743131453046" lon="-107.08249905826229"><ele>2154.6666666666665</ele><time>2026-05-03T16:35:19Z</time></trkpt><trkpt lat="35.9874623436936" lon="-107.08257110322818"><ele>2154.0</ele><time>2026-05-03T16:35:20Z</time></trkpt><trkpt lat="35.98748271103784" lon="-107.08266470794756"><ele>2153.3333333333335</ele><time>2026-05-03T16:35:21Z</time></trkpt><trkpt lat="35.98752605525867" lon="-107.08277048851573"><ele>2152.666666666667</ele><time>2026-05-03T16:35:22Z</time></trkpt><trkpt lat="35.98755968446594" lon="-107.0828553081858"><ele>2152.0</ele><time>2026-05-03T16:35:23Z</time></trkpt><trkpt lat="35.98757662014242" lon="-107.08296101647336"><ele>2151.2</ele><time>2026-05-03T16:35:24Z</time></trkpt><trkpt lat="35.987564245894276" lon="-107.08305604723479"><ele>2150.3999999999996</ele><time>2026-05-03T16:35:25Z</time></trkpt><trkpt lat="35.98769223616589" lon="-107.08307488065462"><ele>2149.6000000000004</ele><time>2026-05-03T16:35:27Z</time></trkpt><trkpt lat="35.987770395519966" lon="-107.08306993239077"><ele>2148.8</ele><time>2026-05-03T16:35:28Z</time></trkpt><trkpt lat="35.9878236701068" lon="-107.08315635137396"><ele>2148.0</ele><time>2026-05-03T16:35:30Z</time></trkpt><trkpt lat="35.98784547586071" lon="-107.08326008603004"><ele>2147.0</ele><time>2026-05-03T16:35:31Z</time></trkpt><trkpt lat="35.987880108632055" lon="-107.0833510408197"><ele>2146.0</ele><time>2026-05-03T16:35:32Z</time></trkpt><trkpt lat="35.98792981492355" lon="-107.08340885604157"><ele>2145.0</ele><time>2026-05-03T16:35:33Z</time></trkpt><trkpt lat="35.98801041042248" lon="-107.08350952362703"><ele>2144.0</ele><time>2026-05-03T16:35:35Z</time></trkpt><trkpt lat="35.988104950371245" lon="-107.08340931397554"><ele>2143.0</ele><time>2026-05-03T16:35:37Z</time></trkpt><trkpt lat="35.98818321866059" lon="-107.08335625502691"><ele>2143.0</ele><time>2026-05-03T16:35:38Z</time></trkpt><trkpt lat="35.98827389419914" lon="-107.08336594063455"><ele>2143.0</ele><time>2026-05-03T16:35:39Z</time></trkpt><trkpt lat="35.988345367592785" lon="-107.08338335580063"><ele>2143.0</ele><time>2026-05-03T16:35:40Z</time></trkpt><trkpt lat="35.988399897379985" lon="-107.08344971862324"><ele>2143.0</ele><time>2026-05-03T16:35:41Z</time></trkpt><trkpt lat="35.98844594158246" lon="-107.083528631062"><ele>2143.0</ele><time>2026-05-03T16:35:42Z</time></trkpt><trkpt lat="35.988452651785714" lon="-107.0836144417685"><ele>2143.0</ele><time>2026-05-03T16:35:43Z</time></trkpt><trkpt lat="35.988495287059244" lon="-107.08371875631524"><ele>2143.2000000000003</ele><time>2026-05-03T16:35:45Z</time></trkpt><trkpt lat="35.98864707653143" lon="-107.08368596606057"><ele>2143.4</ele><time>2026-05-03T16:35:47Z</time></trkpt><trkpt lat="35.9887344128544" lon="-107.08369076168717"><ele>2143.6000000000004</ele><time>2026-05-03T16:35:48Z</time></trkpt><trkpt lat="35.988799730849465" lon="-107.0837475407703"><ele>2143.8</ele><time>2026-05-03T16:35:49Z</time></trkpt><trkpt lat="35.98884349901004" lon="-107.08383862924556"><ele>2144.0</ele><time>2026-05-03T16:35:50Z</time></trkpt><trkpt lat="35.988910460906695" lon="-107.08391231071313"><ele>2144.0</ele><time>2026-05-03T16:35:51Z</time></trkpt><trkpt lat="35.98902387876964" lon="-107.08393421603836"><ele>2144.0</ele><time>2026-05-03T16:35:53Z</time></trkpt><trkpt lat="35.989055911687544" lon="-107.08400312921157"><ele>2144.0</ele><time>2026-05-03T16:35:54Z</time></trkpt><trkpt lat="35.98905752290902" lon="-107.08411173304374"><ele>2144.0</ele><time>2026-05-03T16:35:55Z</time></trkpt><trkpt lat="35.989043857096256" lon="-107.08419992347734"><ele>2144.0</ele><time>2026-05-03T16:35:56Z</time></trkpt><trkpt lat="35.989169470095575" lon="-107.08433575935068"><ele>2144.2</ele><time>2026-05-03T16:35:58Z</time></trkpt><trkpt lat="35.98920350425546" lon="-107.08442272425532"><ele>2144.4</ele><time>2026-05-03T16:35:59Z</time></trkpt><trkpt lat="35.98923060081797" lon="-107.08456124276206"><ele>2144.6</ele><time>2026-05-03T16:36:00Z</time></trkpt><trkpt lat="35.98928163222149" lon="-107.08466311511275"><ele>2144.8</ele><time>2026-05-03T16:36:01Z</time></trkpt><trkpt lat="35.98935777208012" lon="-107.08474078837727"><ele>2145.0</ele><time>2026-05-03T16:36:02Z</time></trkpt><trkpt lat="35.98937812281789" lon="-107.08483060221445"><ele>2145.0</ele><time>2026-05-03T16:36:04Z</time></trkpt><trkpt lat="35.989316273953676" lon="-107.0849002963907"><ele>2145.0</ele><time>2026-05-03T16:36:05Z</time></trkpt><trkpt lat="35.98926625507458" lon="-107.08499424126416"><ele>2145.0</ele><time>2026-05-03T16:36:06Z</time></trkpt><trkpt lat="35.989243265519015" lon="-107.08506919370667"><ele>2145.0</ele><time>2026-05-03T16:36:07Z</time></trkpt><trkpt lat="35.98919958490254" lon="-107.08514564103484"><ele>2145.0</ele><time>2026-05-03T16:36:08Z</time></trkpt><trkpt lat="35.98914733816693" lon="-107.0852188856259"><ele>2145.0</ele><time>2026-05-03T16:36:09Z</time></trkpt><trkpt lat="35.98910272088116" lon="-107.08527758505747"><ele>2145.0</ele><time>2026-05-03T16:36:10Z</time></trkpt><trkpt lat="35.989071600580516" lon="-107.08542993749644"><ele>2145.0</ele><time>2026-05-03T16:36:12Z</time></trkpt><trkpt lat="35.98902636500533" lon="-107.08551483322262"><ele>2145.0</ele><time>2026-05-03T16:36:13Z</time></trkpt><trkpt lat="35.98894181373309" lon="-107.08559813882907"><ele>2145.0</ele><time>2026-05-03T16:36:14Z</time></trkpt><trkpt lat="35.988860001850746" lon="-107.08566948557372"><ele>2145.0</ele><time>2026-05-03T16:36:15Z</time></trkpt><trkpt lat="35.98879085645626" lon="-107.0857556821934"><ele>2145.4</ele><time>2026-05-03T16:36:16Z</time></trkpt><trkpt lat="35.98871348761582" lon="-107.08583917698446"><ele>2145.8</ele><time>2026-05-03T16:36:17Z</time></trkpt><trkpt lat="35.988632037472364" lon="-107.08589709162236"><ele>2146.2</ele><time>2026-05-03T16:36:18Z</time></trkpt><trkpt lat="35.988565412063004" lon="-107.08598943537018"><ele>2146.6</ele><time>2026-05-03T16:36:19Z</time></trkpt><trkpt lat="35.98853032474428" lon="-107.08605537474097"><ele>2147.0</ele><time>2026-05-03T16:36:20Z</time></trkpt><trkpt lat="35.988492889227466" lon="-107.08623717588016"><ele>2147.0</ele><time>2026-05-03T16:36:22Z</time></trkpt><trkpt lat="35.988437289350294" lon="-107.08633206557067"><ele>2147.0</ele><time>2026-05-03T16:36:23Z</time></trkpt><trkpt lat="35.988384768182016" lon="-107.08640200510995"><ele>2147.0</ele><time>2026-05-03T16:36:24Z</time></trkpt><trkpt lat="35.98835528400769" lon="-107.08648331828832"><ele>2147.0</ele><time>2026-05-03T16:36:25Z</time></trkpt><trkpt lat="35.9882592773298" lon="-107.08655218122391"><ele>2147.0</ele><time>2026-05-03T16:36:27Z</time></trkpt><trkpt lat="35.988236447940075" lon="-107.0866500786949"><ele>2147.0</ele><time>2026-05-03T16:36:29Z</time></trkpt><trkpt lat="35.98827816038514" lon="-107.0867285629959"><ele>2146.6666666666665</ele><time>2026-05-03T16:36:30Z</time></trkpt><trkpt lat="35.98834707262708" lon="-107.0868006646364"><ele>2146.333333333333</ele><time>2026-05-03T16:36:31Z</time></trkpt><trkpt lat="35.98833758198881" lon="-107.08691024023025"><ele>2146.0</ele><time>2026-05-03T16:36:33Z</time></trkpt><trkpt lat="35.98828826569633" lon="-107.0869930667843"><ele>2145.6666666666665</ele><time>2026-05-03T16:36:34Z</time></trkpt><trkpt lat="35.98826821018005" lon="-107.08707608113208"><ele>2145.3333333333335</ele><time>2026-05-03T16:36:35Z</time></trkpt><trkpt lat="35.98820191266847" lon="-107.0871784620385"><ele>2145.0</ele><time>2026-05-03T16:36:37Z</time></trkpt><trkpt lat="35.98823504531248" lon="-107.08724816370439"><ele>2146.0</ele><time>2026-05-03T16:36:38Z</time></trkpt><trkpt lat="35.988274800409336" lon="-107.08732855350367"><ele>2147.0</ele><time>2026-05-03T16:36:39Z</time></trkpt><trkpt lat="35.98830924844593" lon="-107.08740539284885"><ele>2148.0</ele><time>2026-05-03T16:36:40Z</time></trkpt><trkpt lat="35.98820348213637" lon="-107.08755016920202"><ele>2149.0</ele><time>2026-05-03T16:36:42Z</time></trkpt><trkpt lat="35.988156128519456" lon="-107.0876435153197"><ele>2150.0</ele><time>2026-05-03T16:36:43Z</time></trkpt><trkpt lat="35.98813848562676" lon="-107.08773556181812"><ele>2150.0000000000005</ele><time>2026-05-03T16:36:44Z</time></trkpt><trkpt lat="35.98816003482575" lon="-107.0878173017513"><ele>2150.0</ele><time>2026-05-03T16:36:45Z</time></trkpt><trkpt lat="35.988184756702026" lon="-107.08789701334481"><ele>2150.0</ele><time>2026-05-03T16:36:46Z</time></trkpt><trkpt lat="35.98816616646169" lon="-107.08798282388831"><ele>2150.0</ele><time>2026-05-03T16:36:47Z</time></trkpt><trkpt lat="35.988167352151585" lon="-107.08806618998406"><ele>2150.0</ele><time>2026-05-03T16:36:48Z</time></trkpt><trkpt lat="35.988209911571296" lon="-107.08816649172259"><ele>2150.0000000000005</ele><time>2026-05-03T16:36:49Z</time></trkpt><trkpt lat="35.98821157251512" lon="-107.08824548920438"><ele>2150.0</ele><time>2026-05-03T16:36:50Z</time></trkpt><trkpt lat="35.98817119351701" lon="-107.08832109757867"><ele>2149.833333333333</ele><time>2026-05-03T16:36:51Z</time></trkpt><trkpt lat="35.988136411577415" lon="-107.08843381850208"><ele>2149.6666666666665</ele><time>2026-05-03T16:36:52Z</time></trkpt><trkpt lat="35.98814646514011" lon="-107.08853534337264"><ele>2149.5</ele><time>2026-05-03T16:36:53Z</time></trkpt><trkpt lat="35.98815844855907" lon="-107.08863345329864"><ele>2149.3333333333335</ele><time>2026-05-03T16:36:54Z</time></trkpt><trkpt lat="35.98812287113844" lon="-107.08872660676758"><ele>2149.166666666667</ele><time>2026-05-03T16:36:55Z</time></trkpt><trkpt lat="35.988057875919154" lon="-107.08882712200716"><ele>2149.0</ele><time>2026-05-03T16:36:56Z</time></trkpt><trkpt lat="35.98803726011859" lon="-107.0889078163595"><ele>2149.0</ele><time>2026-05-03T16:36:57Z</time></trkpt><trkpt lat="35.988008505458446" lon="-107.0889784661502"><ele>2149.0</ele><time>2026-05-03T16:36:58Z</time></trkpt><trkpt lat="35.98794097436712" lon="-107.08903253963216"><ele>2149.0</ele><time>2026-05-03T16:36:59Z</time></trkpt><trkpt lat="35.98789309699269" lon="-107.08915458047856"><ele>2149.0</ele><time>2026-05-03T16:37:01Z</time></trkpt><trkpt lat="35.987924399454" lon="-107.08927565443211"><ele>2149.0</ele><time>2026-05-03T16:37:02Z</time></trkpt><trkpt lat="35.98792859082261" lon="-107.08941288311804"><ele>2148.4</ele><time>2026-05-03T16:37:03Z</time></trkpt><trkpt lat="35.98793365117422" lon="-107.08951200310291"><ele>2147.8</ele><time>2026-05-03T16:37:04Z</time></trkpt><trkpt lat="35.988035948338116" lon="-107.08955677041526"><ele>2147.2</ele><time>2026-05-03T16:37:06Z</time></trkpt><trkpt lat="35.98813155412334" lon="-107.08947506357767"><ele>2146.6</ele><time>2026-05-03T16:37:07Z</time></trkpt><trkpt lat="35.9882356980488" lon="-107.08936751378819"><ele>2146.0</ele><time>2026-05-03T16:37:08Z</time></trkpt><trkpt lat="35.988369137967645" lon="-107.08928596924581"><ele>2145.0</ele><time>2026-05-03T16:37:09Z</time></trkpt><trkpt lat="35.988530443429326" lon="-107.08919228994807"><ele>2144.0</ele><time>2026-05-03T16:37:10Z</time></trkpt><trkpt lat="35.98867089638537" lon="-107.08911185276686"><ele>2143.0</ele><time>2026-05-03T16:37:11Z</time></trkpt><trkpt lat="35.98882747502077" lon="-107.08902103071298"><ele>2143.0</ele><time>2026-05-03T16:37:12Z</time></trkpt><trkpt lat="35.988991976260785" lon="-107.08893319322557"><ele>2143.0</ele><time>2026-05-03T16:37:13Z</time></trkpt><trkpt lat="35.989165198237956" lon="-107.08883410743178"><ele>2143.0</ele><time>2026-05-03T16:37:14Z</time></trkpt><trkpt lat="35.989362500882756" lon="-107.08872823296802"><ele>2140.0</ele><time>2026-05-03T16:37:15Z</time></trkpt><trkpt lat="35.989568808717124" lon="-107.08861138300335"><ele>2137.0</ele><time>2026-05-03T16:37:16Z</time></trkpt><trkpt lat="35.98978606399246" lon="-107.08848083073431"><ele>2137.0</ele><time>2026-05-03T16:37:17Z</time></trkpt><trkpt lat="35.989993847957386" lon="-107.08836401850948"><ele>2137.0</ele><time>2026-05-03T16:37:18Z</time></trkpt><trkpt lat="35.99016873069473" lon="-107.08825891552138"><ele>2137.0</ele><time>2026-05-03T16:37:19Z</time></trkpt><trkpt lat="35.99032482065079" lon="-107.08816501324516"><ele>2138.0</ele><time>2026-05-03T16:37:20Z</time></trkpt><trkpt lat="35.99047348970776" lon="-107.08807246175519"><ele>2139.0</ele><time>2026-05-03T16:37:21Z</time></trkpt><trkpt lat="35.990618080128506" lon="-107.08798497821086"><ele>2140.0</ele><time>2026-05-03T16:37:22Z</time></trkpt><trkpt lat="35.9907238186687" lon="-107.08792340226297"><ele>2141.0</ele><time>2026-05-03T16:37:23Z</time></trkpt><trkpt lat="35.990822407720714" lon="-107.0878742814885"><ele>2141.25</ele><time>2026-05-03T16:37:24Z</time></trkpt><trkpt lat="35.99090663686943" lon="-107.08785555664416"><ele>2141.5</ele><time>2026-05-03T16:37:25Z</time></trkpt><trkpt lat="35.99100984628955" lon="-107.08785976743553"><ele>2141.75</ele><time>2026-05-03T16:37:26Z</time></trkpt><trkpt lat="35.99113299987897" lon="-107.08790818403415"><ele>2142.0</ele><time>2026-05-03T16:37:27Z</time></trkpt><trkpt lat="35.99125686962669" lon="-107.08798557544152"><ele>2142.0</ele><time>2026-05-03T16:37:28Z</time></trkpt><trkpt lat="35.99140326164896" lon="-107.08807193949968"><ele>2142.0</ele><time>2026-05-03T16:37:29Z</time></trkpt><trkpt lat="35.991516838130444" lon="-107.08820149201824"><ele>2142.0</ele><time>2026-05-03T16:37:30Z</time></trkpt><trkpt lat="35.99157549508779" lon="-107.08831977302245"><ele>2142.0</ele><time>2026-05-03T16:37:31Z</time></trkpt><trkpt lat="35.991508329292145" lon="-107.0883854036122"><ele>2141.5</ele><time>2026-05-03T16:37:33Z</time></trkpt><trkpt lat="35.99149643026131" lon="-107.08857801483224"><ele>2141.0</ele><time>2026-05-03T16:37:35Z</time></trkpt><trkpt lat="35.991473375538526" lon="-107.08872342558203"><ele>2140.5</ele><time>2026-05-03T16:37:36Z</time></trkpt><trkpt lat="35.991468234939724" lon="-107.08886781957011"><ele>2140.0</ele><time>2026-05-03T16:37:37Z</time></trkpt><trkpt lat="35.991452070428075" lon="-107.08903729141073"><ele>2141.0</ele><time>2026-05-03T16:37:38Z</time></trkpt><trkpt lat="35.99143006285834" lon="-107.08920871290127"><ele>2142.0</ele><time>2026-05-03T16:37:39Z</time></trkpt><trkpt lat="35.99141873041078" lon="-107.08937967654869"><ele>2143.0</ele><time>2026-05-03T16:37:40Z</time></trkpt><trkpt lat="35.99140530860117" lon="-107.08955988185897"><ele>2144.0</ele><time>2026-05-03T16:37:41Z</time></trkpt><trkpt lat="35.99140856267293" lon="-107.08972512042804"><ele>2144.0</ele><time>2026-05-03T16:37:42Z</time></trkpt><trkpt lat="35.991409558991585" lon="-107.08991860486452"><ele>2144.0</ele><time>2026-05-03T16:37:43Z</time></trkpt><trkpt lat="35.99136716647198" lon="-107.09013223450637"><ele>2144.0</ele><time>2026-05-03T16:37:44Z</time></trkpt><trkpt lat="35.991341793530715" lon="-107.09030093110336"><ele>2144.5</ele><time>2026-05-03T16:37:45Z</time></trkpt><trkpt lat="35.99133909914873" lon="-107.09046746343388"><ele>2145.0</ele><time>2026-05-03T16:37:46Z</time></trkpt><trkpt lat="35.99136786935347" lon="-107.09063230729146"><ele>2145.5</ele><time>2026-05-03T16:37:47Z</time></trkpt><trkpt lat="35.99138012867909" lon="-107.09080478921524"><ele>2146.0</ele><time>2026-05-03T16:37:48Z</time></trkpt><trkpt lat="35.99137541979977" lon="-107.09090996611276"><ele>2146.0</ele><time>2026-05-03T16:37:49Z</time></trkpt><trkpt lat="35.99142026600364" lon="-107.09101042158069"><ele>2146.0</ele><time>2026-05-03T16:37:50Z</time></trkpt><trkpt lat="35.99149797399049" lon="-107.09110119750567"><ele>2146.0</ele><time>2026-05-03T16:37:51Z</time></trkpt><trkpt lat="35.99158143056953" lon="-107.09118870449115"><ele>2146.0</ele><time>2026-05-03T16:37:52Z</time></trkpt><trkpt lat="35.99163282918676" lon="-107.09128350672906"><ele>2146.0</ele><time>2026-05-03T16:37:53Z</time></trkpt><trkpt lat="35.99165316858615" lon="-107.09135876635732"><ele>2146.0</ele><time>2026-05-03T16:37:54Z</time></trkpt><trkpt lat="35.99164103804173" lon="-107.09144492486557"><ele>2146.0</ele><time>2026-05-03T16:37:55Z</time></trkpt><trkpt lat="35.99151305829285" lon="-107.09147280597996"><ele>2146.0</ele><time>2026-05-03T16:37:57Z</time></trkpt><trkpt lat="35.99141421243154" lon="-107.09150275402138"><ele>2146.0</ele><time>2026-05-03T16:37:59Z</time></trkpt><trkpt lat="35.991428346039" lon="-107.09159120300188"><ele>2146.0</ele><time>2026-05-03T16:38:00Z</time></trkpt><trkpt lat="35.99145334609619" lon="-107.09169809065932"><ele>2146.25</ele><time>2026-05-03T16:38:01Z</time></trkpt><trkpt lat="35.99152448862337" lon="-107.09179922433093"><ele>2146.5</ele><time>2026-05-03T16:38:02Z</time></trkpt><trkpt lat="35.991564251754404" lon="-107.09191387575571"><ele>2146.75</ele><time>2026-05-03T16:38:03Z</time></trkpt><trkpt lat="35.99164679133032" lon="-107.09207902557964"><ele>2147.0</ele><time>2026-05-03T16:38:04Z</time></trkpt><trkpt lat="35.99176736427014" lon="-107.09221099113726"><ele>2147.75</ele><time>2026-05-03T16:38:05Z</time></trkpt><trkpt lat="35.991882350163024" lon="-107.0923140579443"><ele>2148.5</ele><time>2026-05-03T16:38:06Z</time></trkpt><trkpt lat="35.99198527450679" lon="-107.09242900406187"><ele>2149.25</ele><time>2026-05-03T16:38:07Z</time></trkpt><trkpt lat="35.99207741799397" lon="-107.0925516060858"><ele>2150.0</ele><time>2026-05-03T16:38:08Z</time></trkpt><trkpt lat="35.99214984675874" lon="-107.09267750948123"><ele>2150.0</ele><time>2026-05-03T16:38:09Z</time></trkpt><trkpt lat="35.992236020174104" lon="-107.09275971523059"><ele>2150.0</ele><time>2026-05-03T16:38:10Z</time></trkpt><trkpt lat="35.99234274544508" lon="-107.09279581220805"><ele>2150.0</ele><time>2026-05-03T16:38:11Z</time></trkpt><trkpt lat="35.99246944893329" lon="-107.09285443912043"><ele>2150.0</ele><time>2026-05-03T16:38:12Z</time></trkpt><trkpt lat="35.992561252541854" lon="-107.09295541801411"><ele>2150.75</ele><time>2026-05-03T16:38:13Z</time></trkpt><trkpt lat="35.99263337534889" lon="-107.09301639171882"><ele>2151.5</ele><time>2026-05-03T16:38:14Z</time></trkpt><trkpt lat="35.99273573048555" lon="-107.09303379636842"><ele>2152.25</ele><time>2026-05-03T16:38:15Z</time></trkpt><trkpt lat="35.99289026128253" lon="-107.09303758255061"><ele>2153.0</ele><time>2026-05-03T16:38:16Z</time></trkpt><trkpt lat="35.993035552400286" lon="-107.09305817739406"><ele>2153.0</ele><time>2026-05-03T16:38:17Z</time></trkpt><trkpt lat="35.993140969942104" lon="-107.09300263905119"><ele>2153.0</ele><time>2026-05-03T16:38:18Z</time></trkpt><trkpt lat="35.993268359547955" lon="-107.09294440114446"><ele>2153.0</ele><time>2026-05-03T16:38:19Z</time></trkpt><trkpt lat="35.99338790489083" lon="-107.09287959685936"><ele>2153.0</ele><time>2026-05-03T16:38:20Z</time></trkpt><trkpt lat="35.99350123826573" lon="-107.0927976127988"><ele>2154.0</ele><time>2026-05-03T16:38:21Z</time></trkpt><trkpt lat="35.993628181904334" lon="-107.09272252294696"><ele>2155.0</ele><time>2026-05-03T16:38:22Z</time></trkpt><trkpt lat="35.99373630697278" lon="-107.09264904663434"><ele>2156.0</ele><time>2026-05-03T16:38:23Z</time></trkpt><trkpt lat="35.99379903390956" lon="-107.09261929008693"><ele>2157.0</ele><time>2026-05-03T16:38:24Z</time></trkpt><trkpt lat="35.99383967288807" lon="-107.09273021728546"><ele>2158.0</ele><time>2026-05-03T16:38:26Z</time></trkpt><trkpt lat="35.993827628247814" lon="-107.0928477454808"><ele>2158.0</ele><time>2026-05-03T16:38:27Z</time></trkpt><trkpt lat="35.993812385289424" lon="-107.09296579511256"><ele>2158.0</ele><time>2026-05-03T16:38:28Z</time></trkpt><trkpt lat="35.99384972802102" lon="-107.09309808637282"><ele>2158.0</ele><time>2026-05-03T16:38:29Z</time></trkpt><trkpt lat="35.99390133171043" lon="-107.09316065631039"><ele>2158.0</ele><time>2026-05-03T16:38:30Z</time></trkpt><trkpt lat="35.99403050339439" lon="-107.09311036032747"><ele>2158.0</ele><time>2026-05-03T16:38:32Z</time></trkpt><trkpt lat="35.99411443409616" lon="-107.09307055041288"><ele>2157.6</ele><time>2026-05-03T16:38:33Z</time></trkpt><trkpt lat="35.99419232103955" lon="-107.09305049172927"><ele>2157.2000000000003</ele><time>2026-05-03T16:38:34Z</time></trkpt><trkpt lat="35.994280160278606" lon="-107.09301060352554"><ele>2156.8</ele><time>2026-05-03T16:38:35Z</time></trkpt><trkpt lat="35.994392238645986" lon="-107.09294202039135"><ele>2156.4</ele><time>2026-05-03T16:38:36Z</time></trkpt><trkpt lat="35.994503419720054" lon="-107.09288669961774"><ele>2156.0</ele><time>2026-05-03T16:38:37Z</time></trkpt><trkpt lat="35.99459978119578" lon="-107.09286832789829"><ele>2156.0</ele><time>2026-05-03T16:38:38Z</time></trkpt><trkpt lat="35.99469556823636" lon="-107.0928709690155"><ele>2156.0</ele><time>2026-05-03T16:38:39Z</time></trkpt><trkpt lat="35.994775196781376" lon="-107.09282970836063"><ele>2156.0</ele><time>2026-05-03T16:38:40Z</time></trkpt><trkpt lat="35.99485104346569" lon="-107.09272832958607"><ele>2156.0</ele><time>2026-05-03T16:38:41Z</time></trkpt><trkpt lat="35.994892658653086" lon="-107.09260939287418"><ele>2156.0</ele><time>2026-05-03T16:38:42Z</time></trkpt><trkpt lat="35.99492076340293" lon="-107.09248282548681"><ele>2156.0</ele><time>2026-05-03T16:38:43Z</time></trkpt><trkpt lat="35.99497878676132" lon="-107.09239277889826"><ele>2156.0</ele><time>2026-05-03T16:38:44Z</time></trkpt><trkpt lat="35.99508438424881" lon="-107.09233671822531"><ele>2156.0</ele><time>2026-05-03T16:38:45Z</time></trkpt><trkpt lat="35.995193549534164" lon="-107.09228412473084"><ele>2156.0</ele><time>2026-05-03T16:38:46Z</time></trkpt><trkpt lat="35.99523267188464" lon="-107.09220584101016"><ele>2156.0</ele><time>2026-05-03T16:38:47Z</time></trkpt><trkpt lat="35.995191425603046" lon="-107.09214628589628"><ele>2156.0</ele><time>2026-05-03T16:38:48Z</time></trkpt><trkpt lat="35.99516980811819" lon="-107.09196748374238"><ele>2156.0</ele><time>2026-05-03T16:38:50Z</time></trkpt><trkpt lat="35.99519298819016" lon="-107.09181939672686"><ele>2156.0</ele><time>2026-05-03T16:38:51Z</time></trkpt><trkpt lat="35.99523436337627" lon="-107.09168731329726"><ele>2156.0</ele><time>2026-05-03T16:38:52Z</time></trkpt><trkpt lat="35.995274109086694" lon="-107.09156430006787"><ele>2156.8</ele><time>2026-05-03T16:38:53Z</time></trkpt><trkpt lat="35.995296927239565" lon="-107.09148715259873"><ele>2157.6</ele><time>2026-05-03T16:38:54Z</time></trkpt><trkpt lat="35.99524676495741" lon="-107.09134365588447"><ele>2158.4</ele><time>2026-05-03T16:38:56Z</time></trkpt><trkpt lat="35.995162273937545" lon="-107.09122586766073"><ele>2159.2</ele><time>2026-05-03T16:38:57Z</time></trkpt><trkpt lat="35.99512836938263" lon="-107.09115055899923"><ele>2160.0</ele><time>2026-05-03T16:38:58Z</time></trkpt><trkpt lat="35.99503657380606" lon="-107.09111386398213"><ele>2160.0</ele><time>2026-05-03T16:39:00Z</time></trkpt><trkpt lat="35.994975612391116" lon="-107.09106387559208"><ele>2160.0</ele><time>2026-05-03T16:39:02Z</time></trkpt><trkpt lat="35.9950149531339" lon="-107.09099522116838"><ele>2160.0</ele><time>2026-05-03T16:39:05Z</time></trkpt><trkpt lat="35.99502833156027" lon="-107.09087203739038"><ele>2160.0</ele><time>2026-05-03T16:39:07Z</time></trkpt><trkpt lat="35.99507022314617" lon="-107.0907554518492"><ele>2160.0</ele><time>2026-05-03T16:39:09Z</time></trkpt><trkpt lat="35.995015284526644" lon="-107.09059636297896"><ele>2161.2</ele><time>2026-05-03T16:39:11Z</time></trkpt><trkpt lat="35.99496937054785" lon="-107.09048206970108"><ele>2162.4</ele><time>2026-05-03T16:39:12Z</time></trkpt><trkpt lat="35.994940587282464" lon="-107.09036879582771"><ele>2163.6</ele><time>2026-05-03T16:39:13Z</time></trkpt><trkpt lat="35.994917175183346" lon="-107.09025947429036"><ele>2164.8</ele><time>2026-05-03T16:39:14Z</time></trkpt><trkpt lat="35.994898818403136" lon="-107.09013774139041"><ele>2166.0</ele><time>2026-05-03T16:39:15Z</time></trkpt><trkpt lat="35.99486807206128" lon="-107.0900113585382"><ele>2166.4</ele><time>2026-05-03T16:39:16Z</time></trkpt><trkpt lat="35.99483618774691" lon="-107.08988906742543"><ele>2166.8</ele><time>2026-05-03T16:39:17Z</time></trkpt><trkpt lat="35.99481264948585" lon="-107.0897927212738"><ele>2167.2000000000003</ele><time>2026-05-03T16:39:18Z</time></trkpt><trkpt lat="35.994797288628014" lon="-107.08969595654885"><ele>2167.6</ele><time>2026-05-03T16:39:19Z</time></trkpt><trkpt lat="35.99467887115437" lon="-107.08964117720159"><ele>2168.0</ele><time>2026-05-03T16:39:21Z</time></trkpt><trkpt lat="35.99458766130331" lon="-107.0896026246029"><ele>2168.0</ele><time>2026-05-03T16:39:23Z</time></trkpt><trkpt lat="35.99452339764154" lon="-107.08957461198116"><ele>2168.0</ele><time>2026-05-03T16:39:24Z</time></trkpt><trkpt lat="35.99445502119394" lon="-107.08952121359006"><ele>2168.0</ele><time>2026-05-03T16:39:25Z</time></trkpt><trkpt lat="35.99440383053538" lon="-107.08946696482312"><ele>2168.0</ele><time>2026-05-03T16:39:26Z</time></trkpt><trkpt lat="35.99416113684379" lon="-107.08967028578938"><ele>2169.0</ele><time>2026-05-03T16:39:27Z</time></trkpt><trkpt lat="35.99409559430296" lon="-107.08968048630688"><ele>2170.0</ele><time>2026-05-03T16:39:28Z</time></trkpt><trkpt lat="35.994072416587386" lon="-107.08955186482223"><ele>2171.0</ele><time>2026-05-03T16:39:30Z</time></trkpt><trkpt lat="35.994062944528125" lon="-107.08947030850128"><ele>2172.0</ele><time>2026-05-03T16:39:31Z</time></trkpt><trkpt lat="35.994113214269056" lon="-107.0893139185847"><ele>2173.0</ele><time>2026-05-03T16:39:33Z</time></trkpt><trkpt lat="35.99409121697328" lon="-107.08920881127132"><ele>2173.0</ele><time>2026-05-03T16:39:35Z</time></trkpt><trkpt lat="35.994018070299745" lon="-107.08921838690254"><ele>2173.0</ele><time>2026-05-03T16:39:36Z</time></trkpt><trkpt lat="35.99393379369744" lon="-107.08922161890476"><ele>2173.0</ele><time>2026-05-03T16:39:37Z</time></trkpt><trkpt lat="35.9938982699795" lon="-107.08912089496542"><ele>2173.0</ele><time>2026-05-03T16:39:39Z</time></trkpt><trkpt lat="35.993887536536946" lon="-107.08904353652618"><ele>2173.0</ele><time>2026-05-03T16:39:40Z</time></trkpt><trkpt lat="35.99391025546368" lon="-107.08893394203463"><ele>2173.0</ele><time>2026-05-03T16:39:41Z</time></trkpt><trkpt lat="35.9939613264808" lon="-107.08878472491944"><ele>2172.666666666667</ele><time>2026-05-03T16:39:43Z</time></trkpt><trkpt lat="35.99400504956056" lon="-107.0886977377392"><ele>2172.3333333333335</ele><time>2026-05-03T16:39:44Z</time></trkpt><trkpt lat="35.99405589392486" lon="-107.08863793584378"><ele>2172.0</ele><time>2026-05-03T16:39:45Z</time></trkpt><trkpt lat="35.994127200031144" lon="-107.08858057721204"><ele>2171.6666666666665</ele><time>2026-05-03T16:39:46Z</time></trkpt><trkpt lat="35.99419294007083" lon="-107.0885215795499"><ele>2171.333333333333</ele><time>2026-05-03T16:39:47Z</time></trkpt><trkpt lat="35.994270590325314" lon="-107.08844635509904"><ele>2171.0</ele><time>2026-05-03T16:39:48Z</time></trkpt><trkpt lat="35.994326663678656" lon="-107.0883681906171"><ele>2170.6666666666665</ele><time>2026-05-03T16:39:49Z</time></trkpt><trkpt lat="35.99439944097402" lon="-107.08832016230488"><ele>2170.333333333333</ele><time>2026-05-03T16:39:50Z</time></trkpt><trkpt lat="35.99445516785447" lon="-107.0882659118218"><ele>2170.0</ele><time>2026-05-03T16:39:51Z</time></trkpt><trkpt lat="35.99452727671483" lon="-107.0882307885547"><ele>2169.6666666666665</ele><time>2026-05-03T16:39:52Z</time></trkpt><trkpt lat="35.994610307977794" lon="-107.08822793083233"><ele>2169.3333333333335</ele><time>2026-05-03T16:39:53Z</time></trkpt><trkpt lat="35.99473489574938" lon="-107.08826190331672"><ele>2169.0</ele><time>2026-05-03T16:39:54Z</time></trkpt><trkpt lat="35.99484528327184" lon="-107.08828652352706"><ele>2168.6</ele><time>2026-05-03T16:39:55Z</time></trkpt><trkpt lat="35.99498140919685" lon="-107.08825430706497"><ele>2168.2</ele><time>2026-05-03T16:39:56Z</time></trkpt><trkpt lat="35.99505976560286" lon="-107.08823772812042"><ele>2167.7999999999997</ele><time>2026-05-03T16:39:57Z</time></trkpt><trkpt lat="35.99520703027526" lon="-107.0882692212046"><ele>2167.4</ele><time>2026-05-03T16:39:58Z</time></trkpt><trkpt lat="35.995272043903974" lon="-107.08821397574944"><ele>2167.0</ele><time>2026-05-03T16:39:59Z</time></trkpt><trkpt lat="35.995331792429326" lon="-107.08808838872045"><ele>2167.0</ele><time>2026-05-03T16:40:00Z</time></trkpt><trkpt lat="35.99534843004433" lon="-107.08800327226284"><ele>2167.0</ele><time>2026-05-03T16:40:01Z</time></trkpt><trkpt lat="35.99534235008723" lon="-107.08788924857183"><ele>2167.0</ele><time>2026-05-03T16:40:02Z</time></trkpt><trkpt lat="35.99535275057794" lon="-107.08776840960074"><ele>2167.0</ele><time>2026-05-03T16:40:03Z</time></trkpt><trkpt lat="35.99535804707556" lon="-107.0876497476196"><ele>2167.0</ele><time>2026-05-03T16:40:04Z</time></trkpt><trkpt lat="35.995357591634914" lon="-107.08751274110958"><ele>2167.0</ele><time>2026-05-03T16:40:05Z</time></trkpt><trkpt lat="35.995360926085205" lon="-107.08738676526615"><ele>2167.0</ele><time>2026-05-03T16:40:06Z</time></trkpt><trkpt lat="35.99535625472833" lon="-107.08726939863571"><ele>2167.0</ele><time>2026-05-03T16:40:07Z</time></trkpt><trkpt lat="35.99535716303377" lon="-107.08714895787561"><ele>2167.0</ele><time>2026-05-03T16:40:08Z</time></trkpt><trkpt lat="35.995314275165676" lon="-107.08697555844951"><ele>2167.0</ele><time>2026-05-03T16:40:10Z</time></trkpt><trkpt lat="35.99532818553439" lon="-107.0867710978138"><ele>2167.0</ele><time>2026-05-03T16:40:12Z</time></trkpt><trkpt lat="35.99537585463852" lon="-107.08663672027662"><ele>2167.0</ele><time>2026-05-03T16:40:13Z</time></trkpt><trkpt lat="35.99539141917901" lon="-107.08651302311756"><ele>2167.0</ele><time>2026-05-03T16:40:14Z</time></trkpt><trkpt lat="35.995374771334504" lon="-107.08642951151674"><ele>2167.0</ele><time>2026-05-03T16:40:15Z</time></trkpt><trkpt lat="35.99543438290693" lon="-107.08632168004245"><ele>2167.0</ele><time>2026-05-03T16:40:17Z</time></trkpt><trkpt lat="35.99550698990379" lon="-107.08626798156183"><ele>2167.2</ele><time>2026-05-03T16:40:18Z</time></trkpt><trkpt lat="35.99558176966399" lon="-107.08620107088184"><ele>2167.3999999999996</ele><time>2026-05-03T16:40:19Z</time></trkpt><trkpt lat="35.99557593751077" lon="-107.08605433964529"><ele>2167.6000000000004</ele><time>2026-05-03T16:40:21Z</time></trkpt><trkpt lat="35.99558077481767" lon="-107.0859510754957"><ele>2167.8</ele><time>2026-05-03T16:40:22Z</time></trkpt><trkpt lat="35.99561714645924" lon="-107.08584469563644"><ele>2168.0</ele><time>2026-05-03T16:40:23Z</time></trkpt><trkpt lat="35.99564439159342" lon="-107.0857180604385"><ele>2166.333333333333</ele><time>2026-05-03T16:40:24Z</time></trkpt><trkpt lat="35.99570729942474" lon="-107.08561885771645"><ele>2164.6666666666665</ele><time>2026-05-03T16:40:25Z</time></trkpt><trkpt lat="35.99571677031195" lon="-107.0855221803216"><ele>2163.0</ele><time>2026-05-03T16:40:26Z</time></trkpt><trkpt lat="35.99576465383428" lon="-107.08544024545957"><ele>2161.3333333333335</ele><time>2026-05-03T16:40:27Z</time></trkpt><trkpt lat="35.99584322195283" lon="-107.08538351315578"><ele>2159.666666666667</ele><time>2026-05-03T16:40:28Z</time></trkpt><trkpt lat="35.995884696762204" lon="-107.08531967152186"><ele>2158.0</ele><time>2026-05-03T16:40:29Z</time></trkpt><trkpt lat="35.99591342046951" lon="-107.08520505750661"><ele>2158.0</ele><time>2026-05-03T16:40:31Z</time></trkpt><trkpt lat="35.995976327248385" lon="-107.0851688733323"><ele>2158.0</ele><time>2026-05-03T16:40:32Z</time></trkpt><trkpt lat="35.99608473039585" lon="-107.08512554277543"><ele>2158.0</ele><time>2026-05-03T16:40:34Z</time></trkpt><trkpt lat="35.99611286751162" lon="-107.085020325019"><ele>2158.0</ele><time>2026-05-03T16:40:36Z</time></trkpt><trkpt lat="35.99619900185745" lon="-107.0849807965208"><ele>2158.0</ele><time>2026-05-03T16:40:38Z</time></trkpt><trkpt lat="35.99627539320382" lon="-107.08501373029365"><ele>2158.0</ele><time>2026-05-03T16:40:40Z</time></trkpt><trkpt lat="35.996385207266506" lon="-107.0847394294997"><ele>2156.166666666667</ele><time>2026-05-03T16:40:44Z</time></trkpt><trkpt lat="35.996443574335515" lon="-107.08467784306413"><ele>2154.3333333333335</ele><time>2026-05-03T16:40:46Z</time></trkpt><trkpt lat="35.996523535483554" lon="-107.08465695625222"><ele>2152.5</ele><time>2026-05-03T16:40:48Z</time></trkpt><trkpt lat="35.99659056945019" lon="-107.08463653671674"><ele>2150.6666666666665</ele><time>2026-05-03T16:40:50Z</time></trkpt><trkpt lat="35.996661003217355" lon="-107.08460629676857"><ele>2148.833333333333</ele><time>2026-05-03T16:40:52Z</time></trkpt><trkpt lat="35.996630789034995" lon="-107.0847245012383"><ele>2147.0</ele><time>2026-05-03T16:40:53Z</time></trkpt><trkpt lat="35.99663224469744" lon="-107.08487358681097"><ele>2149.0</ele><time>2026-05-03T16:40:55Z</time></trkpt><trkpt lat="35.99662141875771" lon="-107.08497707004723"><ele>2151.0</ele><time>2026-05-03T16:40:56Z</time></trkpt><trkpt lat="35.99672507652231" lon="-107.0851991932115"><ele>2153.0</ele><time>2026-05-03T16:40:58Z</time></trkpt><trkpt lat="35.99677027916446" lon="-107.08529409615214"><ele>2155.0</ele><time>2026-05-03T16:40:59Z</time></trkpt><trkpt lat="35.99690366730284" lon="-107.08567530370198"><ele>2158.75</ele><time>2026-05-03T16:41:00Z</time></trkpt><trkpt lat="35.996919416109236" lon="-107.08578626604293"><ele>2162.5</ele><time>2026-05-03T16:41:01Z</time></trkpt><trkpt lat="35.996905014893464" lon="-107.08595617360642"><ele>2166.25</ele><time>2026-05-03T16:41:02Z</time></trkpt><trkpt lat="35.996869346941395" lon="-107.08613239389724"><ele>2170.0</ele><time>2026-05-03T16:41:03Z</time></trkpt><trkpt lat="35.996837563982915" lon="-107.0862833505016"><ele>2170.0</ele><time>2026-05-03T16:41:04Z</time></trkpt><trkpt lat="35.996847633232264" lon="-107.0864540124989"><ele>2170.0</ele><time>2026-05-03T16:41:05Z</time></trkpt><trkpt lat="35.99690188100993" lon="-107.08652445388105"><ele>2170.0</ele><time>2026-05-03T16:41:07Z</time></trkpt><trkpt lat="35.99688862891064" lon="-107.08665763212255"><ele>2170.0</ele><time>2026-05-03T16:41:10Z</time></trkpt><trkpt lat="35.99681417779212" lon="-107.08677445769175"><ele>2170.0</ele><time>2026-05-03T16:41:11Z</time></trkpt><trkpt lat="35.99707250349423" lon="-107.08662811010213"><ele>2171.3333333333335</ele><time>2026-05-03T16:41:14Z</time></trkpt><trkpt lat="35.99706261353353" lon="-107.0867556791694"><ele>2172.666666666667</ele><time>2026-05-03T16:41:15Z</time></trkpt><trkpt lat="35.997051276245884" lon="-107.08687497863865"><ele>2174.0</ele><time>2026-05-03T16:41:16Z</time></trkpt><trkpt lat="35.997061308988314" lon="-107.0869810724572"><ele>2175.3333333333335</ele><time>2026-05-03T16:41:17Z</time></trkpt><trkpt lat="35.997081295050336" lon="-107.08706359983975"><ele>2176.6666666666665</ele><time>2026-05-03T16:41:18Z</time></trkpt><trkpt lat="35.9970955793555" lon="-107.08714953391375"><ele>2178.0</ele><time>2026-05-03T16:41:19Z</time></trkpt><trkpt lat="35.99708770443661" lon="-107.0872681382471"><ele>2178.0</ele><time>2026-05-03T16:41:21Z</time></trkpt><trkpt lat="35.99704826697523" lon="-107.08720357066584"><ele>2178.0</ele><time>2026-05-03T16:41:26Z</time></trkpt><trkpt lat="35.99714358581071" lon="-107.08734018597139"><ele>2178.0</ele><time>2026-05-03T16:41:34Z</time></trkpt><trkpt lat="35.997108602355674" lon="-107.08740502428256"><ele>2178.0</ele><time>2026-05-03T16:41:37Z</time></trkpt><trkpt lat="35.99712857742348" lon="-107.08748000746277"><ele>2178.0</ele><time>2026-05-03T16:41:39Z</time></trkpt><trkpt lat="35.997130955244714" lon="-107.08758658205079"><ele>2178.0</ele><time>2026-05-03T16:41:40Z</time></trkpt><trkpt lat="35.9971366976404" lon="-107.08766969636338"><ele>2177.3333333333335</ele><time>2026-05-03T16:41:41Z</time></trkpt><trkpt lat="35.99716893658132" lon="-107.08775373347171"><ele>2176.6666666666665</ele><time>2026-05-03T16:41:42Z</time></trkpt><trkpt lat="35.99723253814708" lon="-107.08784556524103"><ele>2176.0</ele><time>2026-05-03T16:41:43Z</time></trkpt><trkpt lat="35.99727007828789" lon="-107.08795228258751"><ele>2175.333333333333</ele><time>2026-05-03T16:41:44Z</time></trkpt><trkpt lat="35.99729420228231" lon="-107.08806376864938"><ele>2174.6666666666665</ele><time>2026-05-03T16:41:45Z</time></trkpt><trkpt lat="35.997315593779945" lon="-107.08814114858494"><ele>2174.0</ele><time>2026-05-03T16:41:46Z</time></trkpt><trkpt lat="35.99730057576928" lon="-107.0883285814094"><ele>2174.0</ele><time>2026-05-03T16:41:48Z</time></trkpt><trkpt lat="35.997262709483586" lon="-107.08841505525633"><ele>2174.0</ele><time>2026-05-03T16:41:49Z</time></trkpt><trkpt lat="35.997209372007504" lon="-107.08852448916977"><ele>2174.0</ele><time>2026-05-03T16:41:50Z</time></trkpt><trkpt lat="35.99719262531367" lon="-107.08862890105517"><ele>2174.0</ele><time>2026-05-03T16:41:51Z</time></trkpt><trkpt lat="35.99720614199191" lon="-107.08879277451514"><ele>2174.0</ele><time>2026-05-03T16:41:52Z</time></trkpt><trkpt lat="35.99720937048264" lon="-107.08892730518168"><ele>2174.0</ele><time>2026-05-03T16:41:53Z</time></trkpt><trkpt lat="35.997200418184946" lon="-107.08903731769696"><ele>2174.0</ele><time>2026-05-03T16:41:54Z</time></trkpt><trkpt lat="35.99721282403504" lon="-107.08914325839922"><ele>2174.0</ele><time>2026-05-03T16:41:55Z</time></trkpt><trkpt lat="35.99721797711679" lon="-107.08927246603206"><ele>2174.0</ele><time>2026-05-03T16:41:56Z</time></trkpt><trkpt lat="35.9972166161496" lon="-107.08940748756068"><ele>2174.0</ele><time>2026-05-03T16:41:57Z</time></trkpt><trkpt lat="35.997206771260444" lon="-107.08951402232819"><ele>2172.25</ele><time>2026-05-03T16:41:58Z</time></trkpt><trkpt lat="35.99716594134897" lon="-107.08965917040075"><ele>2170.5</ele><time>2026-05-03T16:41:59Z</time></trkpt><trkpt lat="35.99712859643473" lon="-107.08984265634727"><ele>2168.75</ele><time>2026-05-03T16:42:00Z</time></trkpt><trkpt lat="35.99716016299445" lon="-107.0899740723829"><ele>2167.0</ele><time>2026-05-03T16:42:01Z</time></trkpt><trkpt lat="35.99721418831026" lon="-107.09012656382963"><ele>2166.5</ele><time>2026-05-03T16:42:02Z</time></trkpt><trkpt lat="35.99728322748609" lon="-107.09029922436197"><ele>2166.0</ele><time>2026-05-03T16:42:03Z</time></trkpt><trkpt lat="35.997350729620585" lon="-107.09046661883707"><ele>2165.5</ele><time>2026-05-03T16:42:04Z</time></trkpt><trkpt lat="35.99738577106468" lon="-107.09058587963534"><ele>2165.0</ele><time>2026-05-03T16:42:05Z</time></trkpt><trkpt lat="35.99738434945962" lon="-107.09069664692535"><ele>2164.4</ele><time>2026-05-03T16:42:06Z</time></trkpt><trkpt lat="35.99743584195764" lon="-107.09079522542739"><ele>2163.8</ele><time>2026-05-03T16:42:07Z</time></trkpt><trkpt lat="35.997509153674144" lon="-107.09086601447073"><ele>2163.2</ele><time>2026-05-03T16:42:08Z</time></trkpt><trkpt lat="35.997590252288276" lon="-107.09091313967112"><ele>2162.6</ele><time>2026-05-03T16:42:09Z</time></trkpt><trkpt lat="35.99766777662746" lon="-107.09094471793311"><ele>2162.0</ele><time>2026-05-03T16:42:10Z</time></trkpt><trkpt lat="35.997687306637644" lon="-107.09108416932506"><ele>2162.0</ele><time>2026-05-03T16:42:12Z</time></trkpt><trkpt lat="35.997642205568994" lon="-107.09117868782582"><ele>2162.0</ele><time>2026-05-03T16:42:13Z</time></trkpt><trkpt lat="35.997585514121916" lon="-107.09129798845609"><ele>2162.0</ele><time>2026-05-03T16:42:14Z</time></trkpt><trkpt lat="35.997519441374315" lon="-107.09137470854685"><ele>2162.0</ele><time>2026-05-03T16:42:15Z</time></trkpt><trkpt lat="35.997418092939775" lon="-107.09148087625265"><ele>2162.0</ele><time>2026-05-03T16:42:16Z</time></trkpt><trkpt lat="35.997341980087455" lon="-107.09158183293869"><ele>2161.0</ele><time>2026-05-03T16:42:17Z</time></trkpt><trkpt lat="35.997283142524154" lon="-107.09170295830417"><ele>2160.0</ele><time>2026-05-03T16:42:18Z</time></trkpt><trkpt lat="35.997253747181766" lon="-107.09183663164382"><ele>2159.0</ele><time>2026-05-03T16:42:19Z</time></trkpt><trkpt lat="35.99721056661989" lon="-107.09190264192469"><ele>2158.0</ele><time>2026-05-03T16:42:20Z</time></trkpt><trkpt lat="35.99704201686047" lon="-107.091881610591"><ele>2158.0</ele><time>2026-05-03T16:42:22Z</time></trkpt><trkpt lat="35.99696136992819" lon="-107.09183359113909"><ele>2158.0</ele><time>2026-05-03T16:42:23Z</time></trkpt><trkpt lat="35.99691254461423" lon="-107.09173374380575"><ele>2158.0</ele><time>2026-05-03T16:42:24Z</time></trkpt><trkpt lat="35.99684608700425" lon="-107.09161139934054"><ele>2158.0</ele><time>2026-05-03T16:42:25Z</time></trkpt><trkpt lat="35.996763144034055" lon="-107.09155723983012"><ele>2158.0</ele><time>2026-05-03T16:42:26Z</time></trkpt><trkpt lat="35.99668964686899" lon="-107.09156120154898"><ele>2158.0</ele><time>2026-05-03T16:42:27Z</time></trkpt><trkpt lat="35.99659708306175" lon="-107.09162930626619"><ele>2158.0</ele><time>2026-05-03T16:42:28Z</time></trkpt><trkpt lat="35.99649771029288" lon="-107.0916255778711"><ele>2158.0</ele><time>2026-05-03T16:42:29Z</time></trkpt><trkpt lat="35.996409619793866" lon="-107.09158334809726"><ele>2158.0</ele><time>2026-05-03T16:42:30Z</time></trkpt><trkpt lat="35.99632296155642" lon="-107.09155188569157"><ele>2158.0</ele><time>2026-05-03T16:42:31Z</time></trkpt><trkpt lat="35.99625405781278" lon="-107.09158953692327"><ele>2157.8</ele><time>2026-05-03T16:42:32Z</time></trkpt><trkpt lat="35.99620065773069" lon="-107.09169987144215"><ele>2157.6000000000004</ele><time>2026-05-03T16:42:33Z</time></trkpt><trkpt lat="35.996154912216376" lon="-107.09183855715806"><ele>2157.3999999999996</ele><time>2026-05-03T16:42:34Z</time></trkpt><trkpt lat="35.99606985579771" lon="-107.09193355989007"><ele>2157.2</ele><time>2026-05-03T16:42:35Z</time></trkpt><trkpt lat="35.996007699228755" lon="-107.0920019887387"><ele>2157.0</ele><time>2026-05-03T16:42:36Z</time></trkpt><trkpt lat="35.995993687200574" lon="-107.09214901301002"><ele>2157.0</ele><time>2026-05-03T16:42:38Z</time></trkpt><trkpt lat="35.99597259163535" lon="-107.09227045266849"><ele>2157.0</ele><time>2026-05-03T16:42:39Z</time></trkpt><trkpt lat="35.995956185709595" lon="-107.09245253877616"><ele>2157.0</ele><time>2026-05-03T16:42:40Z</time></trkpt><trkpt lat="35.9959358862325" lon="-107.09259427270779"><ele>2157.0</ele><time>2026-05-03T16:42:41Z</time></trkpt><trkpt lat="35.99595808794409" lon="-107.09270138889232"><ele>2156.6</ele><time>2026-05-03T16:42:42Z</time></trkpt><trkpt lat="35.995985547484295" lon="-107.09282356208622"><ele>2156.2</ele><time>2026-05-03T16:42:43Z</time></trkpt><trkpt lat="35.99595531592979" lon="-107.09290420446771"><ele>2155.8</ele><time>2026-05-03T16:42:44Z</time></trkpt><trkpt lat="35.995875805734755" lon="-107.09294428136852"><ele>2155.4</ele><time>2026-05-03T16:42:45Z</time></trkpt><trkpt lat="35.99580728945644" lon="-107.09303935674068"><ele>2155.0</ele><time>2026-05-03T16:42:46Z</time></trkpt><trkpt lat="35.99580642864449" lon="-107.09317899783022"><ele>2154.2</ele><time>2026-05-03T16:42:47Z</time></trkpt><trkpt lat="35.99576826034204" lon="-107.09330293901549"><ele>2153.4</ele><time>2026-05-03T16:42:48Z</time></trkpt><trkpt lat="35.99571141672615" lon="-107.09340565215398"><ele>2152.6</ele><time>2026-05-03T16:42:49Z</time></trkpt><trkpt lat="35.99563853106061" lon="-107.0934807463586"><ele>2151.8</ele><time>2026-05-03T16:42:50Z</time></trkpt><trkpt lat="35.99553506425327" lon="-107.0935930156772"><ele>2151.0</ele><time>2026-05-03T16:42:51Z</time></trkpt><trkpt lat="35.99545519084306" lon="-107.09373520352317"><ele>2151.0</ele><time>2026-05-03T16:42:52Z</time></trkpt><trkpt lat="35.99536945125894" lon="-107.09387446078065"><ele>2151.0</ele><time>2026-05-03T16:42:53Z</time></trkpt><trkpt lat="35.99533909806044" lon="-107.09407333822138"><ele>2151.0</ele><time>2026-05-03T16:42:54Z</time></trkpt><trkpt lat="35.995246633585666" lon="-107.09418668584303"><ele>2151.0</ele><time>2026-05-03T16:42:55Z</time></trkpt><trkpt lat="35.99515820200611" lon="-107.09428916302939"><ele>2150.3333333333335</ele><time>2026-05-03T16:42:56Z</time></trkpt><trkpt lat="35.995109222116334" lon="-107.09443337185324"><ele>2149.666666666667</ele><time>2026-05-03T16:42:57Z</time></trkpt><trkpt lat="35.99502457583075" lon="-107.09462142388709"><ele>2149.0</ele><time>2026-05-03T16:42:58Z</time></trkpt><trkpt lat="35.99490249258909" lon="-107.09474542597081"><ele>2148.75</ele><time>2026-05-03T16:42:59Z</time></trkpt><trkpt lat="35.99485251393633" lon="-107.09484792737167"><ele>2148.5</ele><time>2026-05-03T16:43:00Z</time></trkpt><trkpt lat="35.994829767044635" lon="-107.09501499151258"><ele>2148.25</ele><time>2026-05-03T16:43:01Z</time></trkpt><trkpt lat="35.99481522077226" lon="-107.0951839159571"><ele>2148.0</ele><time>2026-05-03T16:43:02Z</time></trkpt><trkpt lat="35.99482766875314" lon="-107.09534527982589"><ele>2148.0</ele><time>2026-05-03T16:43:03Z</time></trkpt><trkpt lat="35.994829164805374" lon="-107.09550990328032"><ele>2148.0</ele><time>2026-05-03T16:43:04Z</time></trkpt><trkpt lat="35.99482624470435" lon="-107.09562665475704"><ele>2148.0</ele><time>2026-05-03T16:43:05Z</time></trkpt><trkpt lat="35.99481968821544" lon="-107.09573068048687"><ele>2148.0</ele><time>2026-05-03T16:43:06Z</time></trkpt><trkpt lat="35.99478842278236" lon="-107.09584312711708"><ele>2148.0</ele><time>2026-05-03T16:43:07Z</time></trkpt><trkpt lat="35.99481639677596" lon="-107.09594946744127"><ele>2148.0</ele><time>2026-05-03T16:43:08Z</time></trkpt><trkpt lat="35.994865010040385" lon="-107.09607386901517"><ele>2148.0</ele><time>2026-05-03T16:43:09Z</time></trkpt><trkpt lat="35.99488062391554" lon="-107.09623148286904"><ele>2148.0</ele><time>2026-05-03T16:43:10Z</time></trkpt><trkpt lat="35.994907888540055" lon="-107.09634800042791"><ele>2148.0</ele><time>2026-05-03T16:43:11Z</time></trkpt><trkpt lat="35.99491427230217" lon="-107.09645032743009"><ele>2148.0</ele><time>2026-05-03T16:43:12Z</time></trkpt><trkpt lat="35.99484169089654" lon="-107.09661335537325"><ele>2146.8</ele><time>2026-05-03T16:43:13Z</time></trkpt><trkpt lat="35.994758391267744" lon="-107.09670385910067"><ele>2145.6000000000004</ele><time>2026-05-03T16:43:14Z</time></trkpt><trkpt lat="35.994645314329254" lon="-107.09672038215763"><ele>2144.3999999999996</ele><time>2026-05-03T16:43:16Z</time></trkpt><trkpt lat="35.99455472579737" lon="-107.0967193237301"><ele>2143.2</ele><time>2026-05-03T16:43:17Z</time></trkpt><trkpt lat="35.994466020255174" lon="-107.09670674089134"><ele>2142.0</ele><time>2026-05-03T16:43:18Z</time></trkpt><trkpt lat="35.994378341599386" lon="-107.09675837102793"><ele>2142.0</ele><time>2026-05-03T16:43:19Z</time></trkpt><trkpt lat="35.994243226383105" lon="-107.09681604224804"><ele>2142.0</ele><time>2026-05-03T16:43:20Z</time></trkpt><trkpt lat="35.99412390360597" lon="-107.09685829141495"><ele>2142.0</ele><time>2026-05-03T16:43:21Z</time></trkpt><trkpt lat="35.994020412555564" lon="-107.09692689426211"><ele>2142.0</ele><time>2026-05-03T16:43:22Z</time></trkpt><trkpt lat="35.993884787775634" lon="-107.09702973920241"><ele>2142.4</ele><time>2026-05-03T16:43:23Z</time></trkpt><trkpt lat="35.993763696125825" lon="-107.09706376580114"><ele>2142.7999999999997</ele><time>2026-05-03T16:43:24Z</time></trkpt><trkpt lat="35.99367109979506" lon="-107.09712638950029"><ele>2143.2</ele><time>2026-05-03T16:43:25Z</time></trkpt><trkpt lat="35.993600602306635" lon="-107.09721004267087"><ele>2143.6</ele><time>2026-05-03T16:43:26Z</time></trkpt><trkpt lat="35.993553987874044" lon="-107.09727005512187"><ele>2144.0</ele><time>2026-05-03T16:43:27Z</time></trkpt><trkpt lat="35.99358001907628" lon="-107.09738415133808"><ele>2143.25</ele><time>2026-05-03T16:43:28Z</time></trkpt><trkpt lat="35.993611007757494" lon="-107.09754485761383"><ele>2142.5</ele><time>2026-05-03T16:43:29Z</time></trkpt><trkpt lat="35.993596255669225" lon="-107.0976918845107"><ele>2141.75</ele><time>2026-05-03T16:43:30Z</time></trkpt><trkpt lat="35.99355841874665" lon="-107.09785411879744"><ele>2141.0</ele><time>2026-05-03T16:43:31Z</time></trkpt><trkpt lat="35.99345480406275" lon="-107.09804020460481"><ele>2140.333333333333</ele><time>2026-05-03T16:43:32Z</time></trkpt><trkpt lat="35.993311752531014" lon="-107.09817145281048"><ele>2139.6666666666665</ele><time>2026-05-03T16:43:33Z</time></trkpt><trkpt lat="35.99316186284663" lon="-107.09831080410567"><ele>2139.0</ele><time>2026-05-03T16:43:34Z</time></trkpt><trkpt lat="35.993054921007705" lon="-107.0984245334576"><ele>2139.0</ele><time>2026-05-03T16:43:35Z</time></trkpt><trkpt lat="35.99298079711961" lon="-107.09850274753602"><ele>2139.0</ele><time>2026-05-03T16:43:36Z</time></trkpt><trkpt lat="35.992917437989924" lon="-107.09857368892291"><ele>2139.0</ele><time>2026-05-03T16:43:37Z</time></trkpt><trkpt lat="35.99288403540315" lon="-107.09868747099374"><ele>2139.0</ele><time>2026-05-03T16:43:38Z</time></trkpt><trkpt lat="35.99285398553267" lon="-107.09883704723983"><ele>2139.0</ele><time>2026-05-03T16:43:39Z</time></trkpt><trkpt lat="35.992824779704996" lon="-107.09899273561838"><ele>2138.5</ele><time>2026-05-03T16:43:40Z</time></trkpt><trkpt lat="35.99280864253918" lon="-107.09915718318331"><ele>2138.0</ele><time>2026-05-03T16:43:41Z</time></trkpt><trkpt lat="35.9927831491527" lon="-107.09933682942405"><ele>2137.5</ele><time>2026-05-03T16:43:42Z</time></trkpt><trkpt lat="35.992729326768526" lon="-107.09951206094951"><ele>2137.0</ele><time>2026-05-03T16:43:43Z</time></trkpt><trkpt lat="35.992662913085255" lon="-107.09970693859735"><ele>2137.0</ele><time>2026-05-03T16:43:44Z</time></trkpt><trkpt lat="35.99257865666854" lon="-107.09988591406325"><ele>2137.0</ele><time>2026-05-03T16:43:45Z</time></trkpt><trkpt lat="35.99251011429006" lon="-107.10003347402943"><ele>2137.0</ele><time>2026-05-03T16:43:46Z</time></trkpt><trkpt lat="35.99243686589703" lon="-107.1001528591114"><ele>2137.0</ele><time>2026-05-03T16:43:47Z</time></trkpt><trkpt lat="35.99233204039906" lon="-107.10025392336742"><ele>2136.5</ele><time>2026-05-03T16:43:48Z</time></trkpt><trkpt lat="35.99221758998507" lon="-107.10032135693417"><ele>2136.0</ele><time>2026-05-03T16:43:49Z</time></trkpt><trkpt lat="35.992080520428225" lon="-107.10032772972171"><ele>2135.5</ele><time>2026-05-03T16:43:50Z</time></trkpt><trkpt lat="35.99196879991923" lon="-107.10030000893718"><ele>2135.0</ele><time>2026-05-03T16:43:51Z</time></trkpt><trkpt lat="35.991846878699356" lon="-107.10025572050368"><ele>2135.0</ele><time>2026-05-03T16:43:52Z</time></trkpt><trkpt lat="35.991714656374135" lon="-107.10023996188143"><ele>2135.0</ele><time>2026-05-03T16:43:53Z</time></trkpt><trkpt lat="35.99156484129867" lon="-107.10023210917682"><ele>2135.0</ele><time>2026-05-03T16:43:54Z</time></trkpt><trkpt lat="35.99142721663604" lon="-107.10021964242056"><ele>2135.0</ele><time>2026-05-03T16:43:55Z</time></trkpt><trkpt lat="35.99130198590632" lon="-107.10019045973874"><ele>2133.75</ele><time>2026-05-03T16:43:56Z</time></trkpt><trkpt lat="35.991191940212445" lon="-107.10012046753175"><ele>2132.5</ele><time>2026-05-03T16:43:57Z</time></trkpt><trkpt lat="35.99106849706191" lon="-107.1000634244057"><ele>2131.25</ele><time>2026-05-03T16:43:58Z</time></trkpt><trkpt lat="35.99092359432304" lon="-107.10004924548568"><ele>2130.0</ele><time>2026-05-03T16:43:59Z</time></trkpt><trkpt lat="35.990756262424576" lon="-107.10007065774012"><ele>2129.6666666666665</ele><time>2026-05-03T16:44:00Z</time></trkpt><trkpt lat="35.99057397569499" lon="-107.10010206480341"><ele>2129.333333333333</ele><time>2026-05-03T16:44:01Z</time></trkpt><trkpt lat="35.99039268588434" lon="-107.10011680567808"><ele>2129.0</ele><time>2026-05-03T16:44:02Z</time></trkpt><trkpt lat="35.99018648173851" lon="-107.10010469854882"><ele>2128.6666666666665</ele><time>2026-05-03T16:44:03Z</time></trkpt><trkpt lat="35.98998385406115" lon="-107.10009162692734"><ele>2128.3333333333335</ele><time>2026-05-03T16:44:04Z</time></trkpt><trkpt lat="35.989795247599226" lon="-107.10008900781688"><ele>2128.0</ele><time>2026-05-03T16:44:05Z</time></trkpt><trkpt lat="35.989604200400535" lon="-107.10009961012773"><ele>2128.0</ele><time>2026-05-03T16:44:06Z</time></trkpt><trkpt lat="35.9894084633294" lon="-107.10011033984016"><ele>2128.0</ele><time>2026-05-03T16:44:07Z</time></trkpt><trkpt lat="35.989215959736775" lon="-107.1001165840285"><ele>2128.0</ele><time>2026-05-03T16:44:08Z</time></trkpt><trkpt lat="35.98903915985051" lon="-107.10011361788298"><ele>2127.666666666667</ele><time>2026-05-03T16:44:09Z</time></trkpt><trkpt lat="35.9888670186434" lon="-107.10009171774662"><ele>2127.3333333333335</ele><time>2026-05-03T16:44:10Z</time></trkpt><trkpt lat="35.988681206436404" lon="-107.10004472695704"><ele>2127.0</ele><time>2026-05-03T16:44:11Z</time></trkpt><trkpt lat="35.988490066889554" lon="-107.09999859456482"><ele>2126.3333333333335</ele><time>2026-05-03T16:44:12Z</time></trkpt><trkpt lat="35.98830728291004" lon="-107.09998552987432"><ele>2125.666666666667</ele><time>2026-05-03T16:44:13Z</time></trkpt><trkpt lat="35.98812351000399" lon="-107.09999190951089"><ele>2125.0</ele><time>2026-05-03T16:44:14Z</time></trkpt><trkpt lat="35.987949440790715" lon="-107.10000048236078"><ele>2125.0</ele><time>2026-05-03T16:44:15Z</time></trkpt><trkpt lat="35.98781649004569" lon="-107.10000515822458"><ele>2125.0</ele><time>2026-05-03T16:44:16Z</time></trkpt><trkpt lat="35.98769956092729" lon="-107.10004500978063"><ele>2125.0</ele><time>2026-05-03T16:44:17Z</time></trkpt><trkpt lat="35.987578603721374" lon="-107.10011753945209"><ele>2125.0</ele><time>2026-05-03T16:44:18Z</time></trkpt><trkpt lat="35.98745443350085" lon="-107.10021806453715"><ele>2125.3333333333335</ele><time>2026-05-03T16:44:19Z</time></trkpt><trkpt lat="35.98731425829672" lon="-107.10031441225541"><ele>2125.6666666666665</ele><time>2026-05-03T16:44:20Z</time></trkpt><trkpt lat="35.98717402122479" lon="-107.10040572894557"><ele>2126.0</ele><time>2026-05-03T16:44:21Z</time></trkpt><trkpt lat="35.98702942883711" lon="-107.10049951582454"><ele>2126.0</ele><time>2026-05-03T16:44:22Z</time></trkpt><trkpt lat="35.98689603696956" lon="-107.10057907055311"><ele>2126.0</ele><time>2026-05-03T16:44:23Z</time></trkpt><trkpt lat="35.986747577539305" lon="-107.10064954496276"><ele>2126.0</ele><time>2026-05-03T16:44:24Z</time></trkpt><trkpt lat="35.98660431761826" lon="-107.10070728166059"><ele>2126.0</ele><time>2026-05-03T16:44:25Z</time></trkpt><trkpt lat="35.98649296555216" lon="-107.10074934227917"><ele>2126.0</ele><time>2026-05-03T16:44:26Z</time></trkpt><trkpt lat="35.98641612935244" lon="-107.10076978607674"><ele>2126.0</ele><time>2026-05-03T16:44:27Z</time></trkpt><trkpt lat="35.98632800871987" lon="-107.10078553327217"><ele>2126.0</ele><time>2026-05-03T16:44:28Z</time></trkpt><trkpt lat="35.98622058964208" lon="-107.10077994721938"><ele>2126.0</ele><time>2026-05-03T16:44:29Z</time></trkpt><trkpt lat="35.986111930494395" lon="-107.10078298830739"><ele>2125.6</ele><time>2026-05-03T16:44:30Z</time></trkpt><trkpt lat="35.98599771611939" lon="-107.1007766386484"><ele>2125.2</ele><time>2026-05-03T16:44:31Z</time></trkpt><trkpt lat="35.985885257873896" lon="-107.10077444390679"><ele>2124.8</ele><time>2026-05-03T16:44:32Z</time></trkpt><trkpt lat="35.98577215718825" lon="-107.10077626622336"><ele>2124.4</ele><time>2026-05-03T16:44:33Z</time></trkpt><trkpt lat="35.985678519785715" lon="-107.10076207612406"><ele>2124.0</ele><time>2026-05-03T16:44:34Z</time></trkpt><trkpt lat="35.98559412472447" lon="-107.1007783048036"><ele>2123.8333333333335</ele><time>2026-05-03T16:44:35Z</time></trkpt><trkpt lat="35.98551465735769" lon="-107.10085875864563"><ele>2123.6666666666665</ele><time>2026-05-03T16:44:36Z</time></trkpt><trkpt lat="35.98544273239292" lon="-107.10095669925073"><ele>2123.5</ele><time>2026-05-03T16:44:37Z</time></trkpt><trkpt lat="35.985365671826635" lon="-107.10101710144704"><ele>2123.333333333333</ele><time>2026-05-03T16:44:38Z</time></trkpt><trkpt lat="35.985294357413125" lon="-107.10103337483612"><ele>2123.1666666666665</ele><time>2026-05-03T16:44:39Z</time></trkpt><trkpt lat="35.985236683508035" lon="-107.10107679127603"><ele>2123.0</ele><time>2026-05-03T16:44:40Z</time></trkpt><trkpt lat="35.9851652191098" lon="-107.10117667657624"><ele>2123.0</ele><time>2026-05-03T16:44:41Z</time></trkpt><trkpt lat="35.985079854068" lon="-107.10127564531408"><ele>2123.0</ele><time>2026-05-03T16:44:42Z</time></trkpt><trkpt lat="35.984994870971846" lon="-107.10137749972166"><ele>2123.0</ele><time>2026-05-03T16:44:43Z</time></trkpt><trkpt lat="35.98490951181284" lon="-107.10146918954857"><ele>2123.0</ele><time>2026-05-03T16:44:44Z</time></trkpt><trkpt lat="35.98485877997024" lon="-107.10154379954167"><ele>2123.0</ele><time>2026-05-03T16:44:45Z</time></trkpt><trkpt lat="35.98479360937748" lon="-107.1016627192789"><ele>2122.75</ele><time>2026-05-03T16:44:46Z</time></trkpt><trkpt lat="35.98470839656815" lon="-107.10176699964225"><ele>2122.5</ele><time>2026-05-03T16:44:47Z</time></trkpt><trkpt lat="35.98459597715133" lon="-107.10185105232158"><ele>2122.25</ele><time>2026-05-03T16:44:48Z</time></trkpt><trkpt lat="35.98451920901261" lon="-107.10193378014868"><ele>2122.0</ele><time>2026-05-03T16:44:49Z</time></trkpt><trkpt lat="35.98445688982077" lon="-107.102060809399"><ele>2122.0</ele><time>2026-05-03T16:44:50Z</time></trkpt><trkpt lat="35.98440131666428" lon="-107.10221248124579"><ele>2122.0</ele><time>2026-05-03T16:44:51Z</time></trkpt><trkpt lat="35.98434797387134" lon="-107.1023028016474"><ele>2122.0</ele><time>2026-05-03T16:44:52Z</time></trkpt><trkpt lat="35.98428199807611" lon="-107.10239320312483"><ele>2122.0</ele><time>2026-05-03T16:44:54Z</time></trkpt><trkpt lat="35.98439506368416" lon="-107.10247627751528"><ele>2122.0</ele><time>2026-05-03T16:44:56Z</time></trkpt><trkpt lat="35.98449649029299" lon="-107.10254223085263"><ele>2122.0</ele><time>2026-05-03T16:44:57Z</time></trkpt><trkpt lat="35.98461688468861" lon="-107.10260975025729"><ele>2122.0</ele><time>2026-05-03T16:44:58Z</time></trkpt><trkpt lat="35.984749777260255" lon="-107.10269379619997"><ele>2122.0</ele><time>2026-05-03T16:44:59Z</time></trkpt><trkpt lat="35.98485321604976" lon="-107.10276076209853"><ele>2122.0</ele><time>2026-05-03T16:45:00Z</time></trkpt><trkpt lat="35.984915857467" lon="-107.10283923687652"><ele>2122.0</ele><time>2026-05-03T16:45:01Z</time></trkpt><trkpt lat="35.98492741853101" lon="-107.102940969559"><ele>2122.0</ele><time>2026-05-03T16:45:02Z</time></trkpt><trkpt lat="35.984912386974614" lon="-107.10306336536709"><ele>2122.0</ele><time>2026-05-03T16:45:03Z</time></trkpt><trkpt lat="35.98489883252142" lon="-107.10316918703649"><ele>2122.0</ele><time>2026-05-03T16:45:04Z</time></trkpt><trkpt lat="35.98496983676018" lon="-107.1032647772316"><ele>2121.7999999999997</ele><time>2026-05-03T16:45:06Z</time></trkpt><trkpt lat="35.985060274583866" lon="-107.10328283910681"><ele>2121.6</ele><time>2026-05-03T16:45:07Z</time></trkpt><trkpt lat="35.98515138178467" lon="-107.10326306996681"><ele>2121.3999999999996</ele><time>2026-05-03T16:45:08Z</time></trkpt><trkpt lat="35.9852632134816" lon="-107.10321687952818"><ele>2121.2</ele><time>2026-05-03T16:45:09Z</time></trkpt><trkpt lat="35.98537143841936" lon="-107.10320179358096"><ele>2121.0</ele><time>2026-05-03T16:45:10Z</time></trkpt><trkpt lat="35.985450599459966" lon="-107.10323030068936"><ele>2121.0</ele><time>2026-05-03T16:45:11Z</time></trkpt><trkpt lat="35.98554291072261" lon="-107.1032609050984"><ele>2121.0</ele><time>2026-05-03T16:45:12Z</time></trkpt><trkpt lat="35.985642285128215" lon="-107.10327824107536"><ele>2121.0</ele><time>2026-05-03T16:45:13Z</time></trkpt><trkpt lat="35.98574727490945" lon="-107.10323775341655"><ele>2121.0</ele><time>2026-05-03T16:45:14Z</time></trkpt><trkpt lat="35.985852118361734" lon="-107.10314112078107"><ele>2121.0</ele><time>2026-05-03T16:45:15Z</time></trkpt><trkpt lat="35.98599441146499" lon="-107.10309088252706"><ele>2121.2</ele><time>2026-05-03T16:45:16Z</time></trkpt><trkpt lat="35.986115232790695" lon="-107.10307675757096"><ele>2121.3999999999996</ele><time>2026-05-03T16:45:17Z</time></trkpt><trkpt lat="35.986181437587085" lon="-107.10302664293732"><ele>2121.6</ele><time>2026-05-03T16:45:18Z</time></trkpt><trkpt lat="35.9862581297084" lon="-107.10287563015427"><ele>2121.7999999999997</ele><time>2026-05-03T16:45:20Z</time></trkpt><trkpt lat="35.98629192574855" lon="-107.10277577363773"><ele>2122.0</ele><time>2026-05-03T16:45:21Z</time></trkpt><trkpt lat="35.98628633944124" lon="-107.1026769658963"><ele>2122.0</ele><time>2026-05-03T16:45:22Z</time></trkpt><trkpt lat="35.98631336369513" lon="-107.10259125157684"><ele>2122.0</ele><time>2026-05-03T16:45:23Z</time></trkpt><trkpt lat="35.98641221280018" lon="-107.10252322011846"><ele>2122.0</ele><time>2026-05-03T16:45:24Z</time></trkpt><trkpt lat="35.98651696000258" lon="-107.10244699404177"><ele>2122.0</ele><time>2026-05-03T16:45:25Z</time></trkpt><trkpt lat="35.98660264375105" lon="-107.1023476138495"><ele>2122.0</ele><time>2026-05-03T16:45:26Z</time></trkpt><trkpt lat="35.986703658558184" lon="-107.10225476591421"><ele>2122.25</ele><time>2026-05-03T16:45:27Z</time></trkpt><trkpt lat="35.986808847801875" lon="-107.10218332882575"><ele>2122.5</ele><time>2026-05-03T16:45:28Z</time></trkpt><trkpt lat="35.98693577959678" lon="-107.10213058136164"><ele>2122.75</ele><time>2026-05-03T16:45:29Z</time></trkpt><trkpt lat="35.98703134314648" lon="-107.10207708147783"><ele>2123.0</ele><time>2026-05-03T16:45:30Z</time></trkpt><trkpt lat="35.98712643042105" lon="-107.10198877589944"><ele>2123.0</ele><time>2026-05-03T16:45:31Z</time></trkpt><trkpt lat="35.98722759571319" lon="-107.10189562388814"><ele>2123.0</ele><time>2026-05-03T16:45:32Z</time></trkpt><trkpt lat="35.98734327836627" lon="-107.10182260517917"><ele>2123.0</ele><time>2026-05-03T16:45:33Z</time></trkpt><trkpt lat="35.987471627593756" lon="-107.10177825057133"><ele>2123.0</ele><time>2026-05-03T16:45:34Z</time></trkpt><trkpt lat="35.98758882281058" lon="-107.10176188821572"><ele>2123.2000000000003</ele><time>2026-05-03T16:45:35Z</time></trkpt><trkpt lat="35.98770383925315" lon="-107.10175714267564"><ele>2123.4</ele><time>2026-05-03T16:45:36Z</time></trkpt><trkpt lat="35.9878049909392" lon="-107.10175754179998"><ele>2123.6000000000004</ele><time>2026-05-03T16:45:37Z</time></trkpt><trkpt lat="35.98790211201969" lon="-107.10174995467786"><ele>2123.8</ele><time>2026-05-03T16:45:38Z</time></trkpt><trkpt lat="35.988010301805744" lon="-107.10178520337251"><ele>2124.0</ele><time>2026-05-03T16:45:39Z</time></trkpt><trkpt lat="35.988111939897024" lon="-107.10185063756998"><ele>2124.0</ele><time>2026-05-03T16:45:40Z</time></trkpt><trkpt lat="35.988217564444675" lon="-107.1018770493069"><ele>2124.0</ele><time>2026-05-03T16:45:41Z</time></trkpt><trkpt lat="35.988345495671126" lon="-107.10187137428966"><ele>2124.0</ele><time>2026-05-03T16:45:42Z</time></trkpt><trkpt lat="35.98846563408308" lon="-107.10186845147632"><ele>2124.0</ele><time>2026-05-03T16:45:43Z</time></trkpt><trkpt lat="35.9885840891214" lon="-107.10190445175219"><ele>2124.6</ele><time>2026-05-03T16:45:44Z</time></trkpt><trkpt lat="35.988687597747315" lon="-107.10198257750804"><ele>2125.2</ele><time>2026-05-03T16:45:45Z</time></trkpt><trkpt lat="35.988774893078975" lon="-107.10207888318973"><ele>2125.7999999999997</ele><time>2026-05-03T16:45:46Z</time></trkpt><trkpt lat="35.98884593916359" lon="-107.10215453991827"><ele>2126.4</ele><time>2026-05-03T16:45:47Z</time></trkpt><trkpt lat="35.98891694569292" lon="-107.10215062679276"><ele>2127.0</ele><time>2026-05-03T16:45:48Z</time></trkpt><trkpt lat="35.98902039573386" lon="-107.10211819980779"><ele>2127.0</ele><time>2026-05-03T16:45:49Z</time></trkpt><trkpt lat="35.98911613528785" lon="-107.10206357662797"><ele>2127.0</ele><time>2026-05-03T16:45:50Z</time></trkpt><trkpt lat="35.98920454110266" lon="-107.1019983984623"><ele>2127.0</ele><time>2026-05-03T16:45:51Z</time></trkpt><trkpt lat="35.989264385318194" lon="-107.10194644382904"><ele>2127.0</ele><time>2026-05-03T16:45:52Z</time></trkpt><trkpt lat="35.98933896049956" lon="-107.10196376303291"><ele>2127.0</ele><time>2026-05-03T16:45:53Z</time></trkpt><trkpt lat="35.98944424027189" lon="-107.10204872366164"><ele>2127.0</ele><time>2026-05-03T16:45:54Z</time></trkpt><trkpt lat="35.98951596323124" lon="-107.10216187086172"><ele>2127.0</ele><time>2026-05-03T16:45:55Z</time></trkpt><trkpt lat="35.989557137584434" lon="-107.10223769335013"><ele>2127.0</ele><time>2026-05-03T16:45:56Z</time></trkpt><trkpt lat="35.98956826549277" lon="-107.10234624464393"><ele>2127.0</ele><time>2026-05-03T16:45:57Z</time></trkpt><trkpt lat="35.98957796705594" lon="-107.10244214767623"><ele>2127.0</ele><time>2026-05-03T16:45:58Z</time></trkpt><trkpt lat="35.989628970484056" lon="-107.10252289174537"><ele>2127.0</ele><time>2026-05-03T16:45:59Z</time></trkpt><trkpt lat="35.989691859183885" lon="-107.10254561082196"><ele>2126.8333333333335</ele><time>2026-05-03T16:46:00Z</time></trkpt><trkpt lat="35.98976275981528" lon="-107.10257988238253"><ele>2126.6666666666665</ele><time>2026-05-03T16:46:01Z</time></trkpt><trkpt lat="35.98982684893794" lon="-107.10254587499682"><ele>2126.5</ele><time>2026-05-03T16:46:02Z</time></trkpt><trkpt lat="35.9899346005555" lon="-107.10253584357754"><ele>2126.333333333333</ele><time>2026-05-03T16:46:04Z</time></trkpt><trkpt lat="35.99001347237266" lon="-107.10252917969679"><ele>2126.1666666666665</ele><time>2026-05-03T16:46:05Z</time></trkpt><trkpt lat="35.99009279534155" lon="-107.10250573038212"><ele>2126.0</ele><time>2026-05-03T16:46:06Z</time></trkpt><trkpt lat="35.99017281618652" lon="-107.10253196059355"><ele>2126.75</ele><time>2026-05-03T16:46:07Z</time></trkpt><trkpt lat="35.99025202208006" lon="-107.10259572620387"><ele>2127.5</ele><time>2026-05-03T16:46:08Z</time></trkpt><trkpt lat="35.99035424765327" lon="-107.10269322723907"><ele>2128.25</ele><time>2026-05-03T16:46:09Z</time></trkpt><trkpt lat="35.99046379658368" lon="-107.10274690640556"><ele>2129.0</ele><time>2026-05-03T16:46:10Z</time></trkpt><trkpt lat="35.9905635182167" lon="-107.10280224458067"><ele>2129.0</ele><time>2026-05-03T16:46:11Z</time></trkpt><trkpt lat="35.990662493112474" lon="-107.10287583842246"><ele>2129.0</ele><time>2026-05-03T16:46:12Z</time></trkpt><trkpt lat="35.9907621536604" lon="-107.10293670345293"><ele>2129.0</ele><time>2026-05-03T16:46:13Z</time></trkpt><trkpt lat="35.99087225138257" lon="-107.10295004385992"><ele>2129.0</ele><time>2026-05-03T16:46:14Z</time></trkpt><trkpt lat="35.99100586161053" lon="-107.10294730773819"><ele>2129.5</ele><time>2026-05-03T16:46:15Z</time></trkpt><trkpt lat="35.991133964708034" lon="-107.10297438502599"><ele>2130.0</ele><time>2026-05-03T16:46:16Z</time></trkpt><trkpt lat="35.99126050448033" lon="-107.10302475983644"><ele>2130.5</ele><time>2026-05-03T16:46:17Z</time></trkpt><trkpt lat="35.991398428786276" lon="-107.10307903966743"><ele>2131.0</ele><time>2026-05-03T16:46:18Z</time></trkpt><trkpt lat="35.99151090217774" lon="-107.10315905214838"><ele>2130.8</ele><time>2026-05-03T16:46:19Z</time></trkpt><trkpt lat="35.99158664220163" lon="-107.10327767795944"><ele>2130.6</ele><time>2026-05-03T16:46:20Z</time></trkpt><trkpt lat="35.99165944641922" lon="-107.10338087069273"><ele>2130.4</ele><time>2026-05-03T16:46:21Z</time></trkpt><trkpt lat="35.991740693609906" lon="-107.10340979810903"><ele>2130.2</ele><time>2026-05-03T16:46:22Z</time></trkpt><trkpt lat="35.99183599732379" lon="-107.10336964047094"><ele>2130.0</ele><time>2026-05-03T16:46:23Z</time></trkpt><trkpt lat="35.99193675806854" lon="-107.10329898415885"><ele>2130.4</ele><time>2026-05-03T16:46:24Z</time></trkpt><trkpt lat="35.992015697017536" lon="-107.10320950107577"><ele>2130.8</ele><time>2026-05-03T16:46:25Z</time></trkpt><trkpt lat="35.99209229572958" lon="-107.1031718601263"><ele>2131.2</ele><time>2026-05-03T16:46:26Z</time></trkpt><trkpt lat="35.9921955066146" lon="-107.1031549535237"><ele>2131.6</ele><time>2026-05-03T16:46:27Z</time></trkpt><trkpt lat="35.99232224876641" lon="-107.1031622510053"><ele>2132.0</ele><time>2026-05-03T16:46:28Z</time></trkpt><trkpt lat="35.992457464522026" lon="-107.10320936768694"><ele>2132.0</ele><time>2026-05-03T16:46:29Z</time></trkpt><trkpt lat="35.99260650000789" lon="-107.10326830238886"><ele>2132.0</ele><time>2026-05-03T16:46:30Z</time></trkpt><trkpt lat="35.99275404709336" lon="-107.10327309238856"><ele>2132.0</ele><time>2026-05-03T16:46:31Z</time></trkpt><trkpt lat="35.99289288853728" lon="-107.10326373595251"><ele>2132.0</ele><time>2026-05-03T16:46:32Z</time></trkpt><trkpt lat="35.99301437636119" lon="-107.10324956211313"><ele>2132.0</ele><time>2026-05-03T16:46:33Z</time></trkpt><trkpt lat="35.99312885066841" lon="-107.10323393017757"><ele>2132.0</ele><time>2026-05-03T16:46:34Z</time></trkpt><trkpt lat="35.99319896316571" lon="-107.10328225333197"><ele>2132.0</ele><time>2026-05-03T16:46:35Z</time></trkpt><trkpt lat="35.99319784110288" lon="-107.10340722899453"><ele>2132.0</ele><time>2026-05-03T16:46:38Z</time></trkpt><trkpt lat="35.993175816239166" lon="-107.10348271059924"><ele>2132.0</ele><time>2026-05-03T16:46:39Z</time></trkpt><trkpt lat="35.99313900335381" lon="-107.10362555857962"><ele>2132.0</ele><time>2026-05-03T16:46:41Z</time></trkpt><trkpt lat="35.99318016020856" lon="-107.10372583305401"><ele>2132.0</ele><time>2026-05-03T16:46:42Z</time></trkpt><trkpt lat="35.993198594619074" lon="-107.10381610275233"><ele>2132.0</ele><time>2026-05-03T16:46:43Z</time></trkpt><trkpt lat="35.99317763448878" lon="-107.10394038553774"><ele>2132.0</ele><time>2026-05-03T16:46:45Z</time></trkpt><trkpt lat="35.993231863974216" lon="-107.10400972468473"><ele>2132.0</ele><time>2026-05-03T16:46:46Z</time></trkpt><trkpt lat="35.993338417914" lon="-107.10408526201915"><ele>2132.5</ele><time>2026-05-03T16:46:47Z</time></trkpt><trkpt lat="35.993469821037635" lon="-107.10414893479962"><ele>2133.0</ele><time>2026-05-03T16:46:48Z</time></trkpt><trkpt lat="35.99360416687023" lon="-107.10421847516365"><ele>2133.5</ele><time>2026-05-03T16:46:49Z</time></trkpt><trkpt lat="35.99373889516569" lon="-107.10429644224067"><ele>2134.0</ele><time>2026-05-03T16:46:50Z</time></trkpt><trkpt lat="35.99387148515269" lon="-107.10440498950362"><ele>2134.0</ele><time>2026-05-03T16:46:51Z</time></trkpt><trkpt lat="35.99398507152378" lon="-107.10451015256672"><ele>2134.0</ele><time>2026-05-03T16:46:52Z</time></trkpt><trkpt lat="35.99408810979862" lon="-107.10460171904217"><ele>2134.0</ele><time>2026-05-03T16:46:53Z</time></trkpt><trkpt lat="35.994230202247245" lon="-107.10470586972743"><ele>2134.0</ele><time>2026-05-03T16:46:54Z</time></trkpt><trkpt lat="35.994391512304404" lon="-107.1048001092576"><ele>2134.3333333333335</ele><time>2026-05-03T16:46:55Z</time></trkpt><trkpt lat="35.994535014632106" lon="-107.10486478214823"><ele>2134.6666666666665</ele><time>2026-05-03T16:46:56Z</time></trkpt><trkpt lat="35.994675530345226" lon="-107.10488596600614"><ele>2135.0</ele><time>2026-05-03T16:46:57Z</time></trkpt><trkpt lat="35.994843036371535" lon="-107.1048883542809"><ele>2135.0</ele><time>2026-05-03T16:46:58Z</time></trkpt><trkpt lat="35.995000007819144" lon="-107.1048845532691"><ele>2135.0</ele><time>2026-05-03T16:46:59Z</time></trkpt><trkpt lat="35.99514601444263" lon="-107.10489266753761"><ele>2135.0</ele><time>2026-05-03T16:47:00Z</time></trkpt><trkpt lat="35.99526707322582" lon="-107.10491802919182"><ele>2135.0</ele><time>2026-05-03T16:47:01Z</time></trkpt><trkpt lat="35.99537263619481" lon="-107.1050144842163"><ele>2136.0</ele><time>2026-05-03T16:47:02Z</time></trkpt><trkpt lat="35.99545010224017" lon="-107.10514922965383"><ele>2137.0</ele><time>2026-05-03T16:47:03Z</time></trkpt><trkpt lat="35.99549228082209" lon="-107.10528297357672"><ele>2138.0</ele><time>2026-05-03T16:47:04Z</time></trkpt><trkpt lat="35.99549670636431" lon="-107.10540896842143"><ele>2139.0</ele><time>2026-05-03T16:47:05Z</time></trkpt><trkpt lat="35.99550644592959" lon="-107.10553465877014"><ele>2139.0</ele><time>2026-05-03T16:47:06Z</time></trkpt><trkpt lat="35.995523191515794" lon="-107.10564439449509"><ele>2139.0</ele><time>2026-05-03T16:47:07Z</time></trkpt><trkpt lat="35.995572411703456" lon="-107.10572842397643"><ele>2139.0</ele><time>2026-05-03T16:47:08Z</time></trkpt><trkpt lat="35.99564165786393" lon="-107.10583558252662"><ele>2139.0</ele><time>2026-05-03T16:47:09Z</time></trkpt><trkpt lat="35.995748883690105" lon="-107.10596514515785"><ele>2139.0</ele><time>2026-05-03T16:47:10Z</time></trkpt><trkpt lat="35.99586962984421" lon="-107.10609136922685"><ele>2140.0</ele><time>2026-05-03T16:47:11Z</time></trkpt><trkpt lat="35.99598712983951" lon="-107.10621381543484"><ele>2141.0</ele><time>2026-05-03T16:47:12Z</time></trkpt><trkpt lat="35.996110678946195" lon="-107.10635879856531"><ele>2142.0</ele><time>2026-05-03T16:47:13Z</time></trkpt><trkpt lat="35.99621770692839" lon="-107.10650582070987"><ele>2142.25</ele><time>2026-05-03T16:47:14Z</time></trkpt><trkpt lat="35.99629764856641" lon="-107.10665060600704"><ele>2142.5</ele><time>2026-05-03T16:47:15Z</time></trkpt><trkpt lat="35.99636292936445" lon="-107.10679579198096"><ele>2142.75</ele><time>2026-05-03T16:47:16Z</time></trkpt><trkpt lat="35.99641162497029" lon="-107.10694535059432"><ele>2143.0</ele><time>2026-05-03T16:47:17Z</time></trkpt><trkpt lat="35.99646575897263" lon="-107.10711200493174"><ele>2143.0</ele><time>2026-05-03T16:47:18Z</time></trkpt><trkpt lat="35.996506525832544" lon="-107.1072662157026"><ele>2143.0</ele><time>2026-05-03T16:47:19Z</time></trkpt><trkpt lat="35.99655538432759" lon="-107.10737647590503"><ele>2143.0</ele><time>2026-05-03T16:47:20Z</time></trkpt><trkpt lat="35.996640699166896" lon="-107.107433257523"><ele>2143.0</ele><time>2026-05-03T16:47:21Z</time></trkpt><trkpt lat="35.99672418822071" lon="-107.10750540205896"><ele>2143.0</ele><time>2026-05-03T16:47:22Z</time></trkpt><trkpt lat="35.99679739731437" lon="-107.10755690003714"><ele>2144.75</ele><time>2026-05-03T16:47:23Z</time></trkpt><trkpt lat="35.9968877310331" lon="-107.10756515782188"><ele>2146.5</ele><time>2026-05-03T16:47:24Z</time></trkpt><trkpt lat="35.99701291639501" lon="-107.10753116597424"><ele>2148.25</ele><time>2026-05-03T16:47:25Z</time></trkpt><trkpt lat="35.997152439122864" lon="-107.10746537451752"><ele>2150.0</ele><time>2026-05-03T16:47:26Z</time></trkpt><trkpt lat="35.99730332238706" lon="-107.10743198318761"><ele>2150.333333333333</ele><time>2026-05-03T16:47:27Z</time></trkpt><trkpt lat="35.99746064593253" lon="-107.10740505514354"><ele>2150.6666666666665</ele><time>2026-05-03T16:47:28Z</time></trkpt><trkpt lat="35.99762524008803" lon="-107.10737524200982"><ele>2151.0</ele><time>2026-05-03T16:47:29Z</time></trkpt><trkpt lat="35.99778067698758" lon="-107.10732761318455"><ele>2151.0</ele><time>2026-05-03T16:47:30Z</time></trkpt><trkpt lat="35.99793526633502" lon="-107.10726414036822"><ele>2151.0</ele><time>2026-05-03T16:47:31Z</time></trkpt><trkpt lat="35.99808216750597" lon="-107.1071822316094"><ele>2151.0</ele><time>2026-05-03T16:47:32Z</time></trkpt><trkpt lat="35.99822598296953" lon="-107.10702437569103"><ele>2150.3333333333335</ele><time>2026-05-03T16:47:33Z</time></trkpt><trkpt lat="35.998373529859755" lon="-107.10685636686048"><ele>2149.666666666667</ele><time>2026-05-03T16:47:34Z</time></trkpt><trkpt lat="35.998517997631765" lon="-107.10668981777232"><ele>2149.0</ele><time>2026-05-03T16:47:35Z</time></trkpt><trkpt lat="35.99865442805075" lon="-107.10655221546212"><ele>2149.0</ele><time>2026-05-03T16:47:36Z</time></trkpt><trkpt lat="35.99880667816266" lon="-107.10641171338335"><ele>2149.0</ele><time>2026-05-03T16:47:37Z</time></trkpt><trkpt lat="35.99897515454835" lon="-107.10626245283343"><ele>2149.0</ele><time>2026-05-03T16:47:38Z</time></trkpt><trkpt lat="35.99917495096744" lon="-107.10611626221404"><ele>2150.0</ele><time>2026-05-03T16:47:39Z</time></trkpt><trkpt lat="35.99938556121651" lon="-107.1059977642097"><ele>2151.0</ele><time>2026-05-03T16:47:40Z</time></trkpt><trkpt lat="35.9995488353996" lon="-107.10588606786513"><ele>2152.0</ele><time>2026-05-03T16:47:41Z</time></trkpt><trkpt lat="35.99967817845222" lon="-107.10578632721888"><ele>2151.25</ele><time>2026-05-03T16:47:42Z</time></trkpt><trkpt lat="35.99980292534198" lon="-107.10571539303771"><ele>2150.5</ele><time>2026-05-03T16:47:43Z</time></trkpt><trkpt lat="35.99994011767261" lon="-107.10569276939547"><ele>2149.75</ele><time>2026-05-03T16:47:44Z</time></trkpt><trkpt lat="36.00010227604638" lon="-107.10569710023059"><ele>2149.0</ele><time>2026-05-03T16:47:45Z</time></trkpt><trkpt lat="36.00027332596946" lon="-107.1057220662888"><ele>2149.75</ele><time>2026-05-03T16:47:46Z</time></trkpt><trkpt lat="36.00040398328052" lon="-107.10575129969794"><ele>2150.5</ele><time>2026-05-03T16:47:47Z</time></trkpt><trkpt lat="36.00053009220245" lon="-107.10579941239894"><ele>2151.25</ele><time>2026-05-03T16:47:48Z</time></trkpt><trkpt lat="36.000660566029616" lon="-107.10584594014082"><ele>2152.0</ele><time>2026-05-03T16:47:49Z</time></trkpt><trkpt lat="36.00082575915227" lon="-107.10588265494916"><ele>2152.0</ele><time>2026-05-03T16:47:50Z</time></trkpt><trkpt lat="36.000994217965356" lon="-107.10591382112139"><ele>2152.0</ele><time>2026-05-03T16:47:51Z</time></trkpt><trkpt lat="36.00116245415711" lon="-107.10594624976179"><ele>2152.0</ele><time>2026-05-03T16:47:52Z</time></trkpt><trkpt lat="36.00132603009711" lon="-107.1059471324556"><ele>2152.0</ele><time>2026-05-03T16:47:53Z</time></trkpt><trkpt lat="36.001499218828215" lon="-107.10592395936591"><ele>2152.0</ele><time>2026-05-03T16:47:54Z</time></trkpt><trkpt lat="36.001667191834514" lon="-107.10585709517007"><ele>2152.0</ele><time>2026-05-03T16:47:55Z</time></trkpt><trkpt lat="36.00181267747417" lon="-107.10576093676745"><ele>2152.666666666667</ele><time>2026-05-03T16:47:56Z</time></trkpt><trkpt lat="36.00195205036002" lon="-107.10562011710289"><ele>2153.3333333333335</ele><time>2026-05-03T16:47:57Z</time></trkpt><trkpt lat="36.00206426747842" lon="-107.10549332979916"><ele>2154.0</ele><time>2026-05-03T16:47:58Z</time></trkpt><trkpt lat="36.00218573668492" lon="-107.10542839781402"><ele>2154.0</ele><time>2026-05-03T16:47:59Z</time></trkpt><trkpt lat="36.002304346579734" lon="-107.10546405301433"><ele>2154.0</ele><time>2026-05-03T16:48:00Z</time></trkpt><trkpt lat="36.002459453186844" lon="-107.10552561725603"><ele>2154.0</ele><time>2026-05-03T16:48:01Z</time></trkpt><trkpt lat="36.00260423649789" lon="-107.1055120095979"><ele>2154.0</ele><time>2026-05-03T16:48:02Z</time></trkpt><trkpt lat="36.0027464270599" lon="-107.1054451221947"><ele>2154.0</ele><time>2026-05-03T16:48:03Z</time></trkpt><trkpt lat="36.00291492757" lon="-107.10538619171432"><ele>2154.0</ele><time>2026-05-03T16:48:04Z</time></trkpt><trkpt lat="36.003119380332215" lon="-107.10530842716068"><ele>2154.0</ele><time>2026-05-03T16:48:05Z</time></trkpt><trkpt lat="36.00328663298147" lon="-107.1052539505359"><ele>2155.0</ele><time>2026-05-03T16:48:06Z</time></trkpt><trkpt lat="36.00343888272636" lon="-107.10522429189508"><ele>2156.0</ele><time>2026-05-03T16:48:07Z</time></trkpt><trkpt lat="36.00361316702631" lon="-107.10514703853704"><ele>2157.0</ele><time>2026-05-03T16:48:08Z</time></trkpt><trkpt lat="36.00381400668144" lon="-107.10509064962326"><ele>2157.0</ele><time>2026-05-03T16:48:09Z</time></trkpt><trkpt lat="36.004015745307704" lon="-107.1050070903675"><ele>2157.0</ele><time>2026-05-03T16:48:10Z</time></trkpt><trkpt lat="36.004244666168354" lon="-107.104916423628"><ele>2157.5</ele><time>2026-05-03T16:48:11Z</time></trkpt><trkpt lat="36.004480570079956" lon="-107.10482601787609"><ele>2158.0</ele><time>2026-05-03T16:48:12Z</time></trkpt><trkpt lat="36.004726458137036" lon="-107.10473516484316"><ele>2158.0</ele><time>2026-05-03T16:48:13Z</time></trkpt><trkpt lat="36.00493447922923" lon="-107.10465106490507"><ele>2158.0</ele><time>2026-05-03T16:48:14Z</time></trkpt><trkpt lat="36.005124539055714" lon="-107.10457614846915"><ele>2158.0</ele><time>2026-05-03T16:48:15Z</time></trkpt><trkpt lat="36.00528506983749" lon="-107.10451516988898"><ele>2158.75</ele><time>2026-05-03T16:48:16Z</time></trkpt><trkpt lat="36.00542782516748" lon="-107.10446801383077"><ele>2159.5</ele><time>2026-05-03T16:48:17Z</time></trkpt><trkpt lat="36.005549987444816" lon="-107.10442310074785"><ele>2160.25</ele><time>2026-05-03T16:48:18Z</time></trkpt><trkpt lat="36.00569497489593" lon="-107.10439157724268"><ele>2161.0</ele><time>2026-05-03T16:48:19Z</time></trkpt><trkpt lat="36.00586546883047" lon="-107.10437033161321"><ele>2161.4</ele><time>2026-05-03T16:48:20Z</time></trkpt><trkpt lat="36.005990501881016" lon="-107.10434503381576"><ele>2161.8</ele><time>2026-05-03T16:48:21Z</time></trkpt><trkpt lat="36.00605263103443" lon="-107.10430219404208"><ele>2162.2000000000003</ele><time>2026-05-03T16:48:22Z</time></trkpt><trkpt lat="36.00613164305794" lon="-107.10427904030117"><ele>2162.6</ele><time>2026-05-03T16:48:23Z</time></trkpt><trkpt lat="36.006240827650245" lon="-107.10428353845512"><ele>2163.0</ele><time>2026-05-03T16:48:24Z</time></trkpt><trkpt lat="36.0063426705873" lon="-107.1042876926567"><ele>2163.0</ele><time>2026-05-03T16:48:25Z</time></trkpt><trkpt lat="36.00644372915682" lon="-107.10427682223975"><ele>2163.0</ele><time>2026-05-03T16:48:26Z</time></trkpt><trkpt lat="36.00653335982475" lon="-107.10414796674448"><ele>2163.0</ele><time>2026-05-03T16:48:28Z</time></trkpt><trkpt lat="36.006589921222584" lon="-107.10406869135137"><ele>2163.0</ele><time>2026-05-03T16:48:29Z</time></trkpt><trkpt lat="36.00667503555245" lon="-107.10402184064668"><ele>2163.0</ele><time>2026-05-03T16:48:30Z</time></trkpt><trkpt lat="36.006761997310015" lon="-107.10400567036899"><ele>2164.0</ele><time>2026-05-03T16:48:31Z</time></trkpt><trkpt lat="36.00685387865268" lon="-107.10400759707562"><ele>2165.0</ele><time>2026-05-03T16:48:32Z</time></trkpt><trkpt lat="36.00693900721226" lon="-107.10397341677636"><ele>2166.0</ele><time>2026-05-03T16:48:33Z</time></trkpt><trkpt lat="36.00706463075255" lon="-107.10395010069264"><ele>2167.0</ele><time>2026-05-03T16:48:34Z</time></trkpt><trkpt lat="36.00716044641236" lon="-107.10391885762387"><ele>2168.0</ele><time>2026-05-03T16:48:35Z</time></trkpt><trkpt lat="36.00722307711845" lon="-107.10391004054057"><ele>2168.0</ele><time>2026-05-03T16:48:36Z</time></trkpt><trkpt lat="36.00728309617949" lon="-107.10394094451749"><ele>2168.0</ele><time>2026-05-03T16:48:37Z</time></trkpt><trkpt lat="36.00733693608486" lon="-107.10398165769469"><ele>2168.0</ele><time>2026-05-03T16:48:38Z</time></trkpt><trkpt lat="36.00741845711349" lon="-107.10392231739507"><ele>2168.0</ele><time>2026-05-03T16:48:40Z</time></trkpt><trkpt lat="36.00751074426756" lon="-107.10380002050687"><ele>2168.0</ele><time>2026-05-03T16:48:42Z</time></trkpt><trkpt lat="36.00758474595595" lon="-107.10373219662473"><ele>2168.2000000000003</ele><time>2026-05-03T16:48:43Z</time></trkpt><trkpt lat="36.007645480924786" lon="-107.10367487151524"><ele>2168.4</ele><time>2026-05-03T16:48:44Z</time></trkpt><trkpt lat="36.007723964792696" lon="-107.10360551770606"><ele>2168.6000000000004</ele><time>2026-05-03T16:48:45Z</time></trkpt><trkpt lat="36.0077942753805" lon="-107.103557232222"><ele>2168.8</ele><time>2026-05-03T16:48:46Z</time></trkpt><trkpt lat="36.00787836704994" lon="-107.10354798341993"><ele>2169.0</ele><time>2026-05-03T16:48:47Z</time></trkpt><trkpt lat="36.00799666973552" lon="-107.103555005826"><ele>2169.0</ele><time>2026-05-03T16:48:48Z</time></trkpt><trkpt lat="36.008073118498345" lon="-107.10355030781665"><ele>2169.0</ele><time>2026-05-03T16:48:49Z</time></trkpt><trkpt lat="36.00812296494212" lon="-107.10349024743738"><ele>2169.0</ele><time>2026-05-03T16:48:50Z</time></trkpt><trkpt lat="36.00821428571188" lon="-107.10342322255308"><ele>2169.0</ele><time>2026-05-03T16:48:51Z</time></trkpt><trkpt lat="36.00830513122711" lon="-107.10339214146546"><ele>2169.0</ele><time>2026-05-03T16:48:52Z</time></trkpt><trkpt lat="36.0083712527948" lon="-107.10331980679568"><ele>2169.0</ele><time>2026-05-03T16:48:53Z</time></trkpt><trkpt lat="36.00847776129946" lon="-107.10331534454247"><ele>2169.8</ele><time>2026-05-03T16:48:55Z</time></trkpt><trkpt lat="36.008573517924674" lon="-107.10327614036318"><ele>2170.6000000000004</ele><time>2026-05-03T16:48:57Z</time></trkpt><trkpt lat="36.00865874881233" lon="-107.10322000660645"><ele>2171.4</ele><time>2026-05-03T16:48:58Z</time></trkpt><trkpt lat="36.008740834190135" lon="-107.10310979734967"><ele>2172.2000000000003</ele><time>2026-05-03T16:49:00Z</time></trkpt><trkpt lat="36.00881011246772" lon="-107.10313161814838"><ele>2173.0</ele><time>2026-05-03T16:49:01Z</time></trkpt><trkpt lat="36.00888016391571" lon="-107.10318709163934"><ele>2173.0</ele><time>2026-05-03T16:49:03Z</time></trkpt><trkpt lat="36.008896508548844" lon="-107.1032786362681"><ele>2173.0</ele><time>2026-05-03T16:49:04Z</time></trkpt><trkpt lat="36.00898745195962" lon="-107.10329994790888"><ele>2173.0</ele><time>2026-05-03T16:49:06Z</time></trkpt><trkpt lat="36.009047375081465" lon="-107.10322906453426"><ele>2173.0</ele><time>2026-05-03T16:49:07Z</time></trkpt><trkpt lat="36.009087172157024" lon="-107.10306316243141"><ele>2173.0</ele><time>2026-05-03T16:49:08Z</time></trkpt><trkpt lat="36.00915025578311" lon="-107.10303965822155"><ele>2174.0</ele><time>2026-05-03T16:49:10Z</time></trkpt><trkpt lat="36.009253671531056" lon="-107.10298630237746"><ele>2175.0</ele><time>2026-05-03T16:49:12Z</time></trkpt><trkpt lat="36.00931181324971" lon="-107.10290650433743"><ele>2176.0</ele><time>2026-05-03T16:49:14Z</time></trkpt><trkpt lat="36.00942042218006" lon="-107.10285388445263"><ele>2177.0</ele><time>2026-05-03T16:49:17Z</time></trkpt><trkpt lat="36.00955585476782" lon="-107.10285824330607"><ele>2177.0</ele><time>2026-05-03T16:49:19Z</time></trkpt><trkpt lat="36.009606867868875" lon="-107.10275668047174"><ele>2177.0</ele><time>2026-05-03T16:49:20Z</time></trkpt><trkpt lat="36.009642266822006" lon="-107.10266091947369"><ele>2177.0</ele><time>2026-05-03T16:49:21Z</time></trkpt><trkpt lat="36.00967615629408" lon="-107.10257511801045"><ele>2177.0</ele><time>2026-05-03T16:49:22Z</time></trkpt><trkpt lat="36.00970265666995" lon="-107.10250234731296"><ele>2177.0</ele><time>2026-05-03T16:49:23Z</time></trkpt><trkpt lat="36.00979237124409" lon="-107.10244748191742"><ele>2177.0</ele><time>2026-05-03T16:49:25Z</time></trkpt><trkpt lat="36.00993289640223" lon="-107.10243572402788"><ele>2177.0</ele><time>2026-05-03T16:49:27Z</time></trkpt><trkpt lat="36.01003632327683" lon="-107.1024336876316"><ele>2177.0</ele><time>2026-05-03T16:49:28Z</time></trkpt><trkpt lat="36.01012096948296" lon="-107.10246809259779"><ele>2177.0</ele><time>2026-05-03T16:49:29Z</time></trkpt><trkpt lat="36.010252250346866" lon="-107.10237527262265"><ele>2177.0</ele><time>2026-05-03T16:49:31Z</time></trkpt><trkpt lat="36.01030655246747" lon="-107.10229355067206"><ele>2177.0</ele><time>2026-05-03T16:49:32Z</time></trkpt><trkpt lat="36.010343419544164" lon="-107.10220022502091"><ele>2177.333333333333</ele><time>2026-05-03T16:49:33Z</time></trkpt><trkpt lat="36.010383284716085" lon="-107.10212854017684"><ele>2177.6666666666665</ele><time>2026-05-03T16:49:34Z</time></trkpt><trkpt lat="36.010439931026546" lon="-107.10208712274797"><ele>2178.0</ele><time>2026-05-03T16:49:35Z</time></trkpt><trkpt lat="36.010534326274986" lon="-107.10203920765643"><ele>2178.3333333333335</ele><time>2026-05-03T16:49:36Z</time></trkpt><trkpt lat="36.01059164414308" lon="-107.10197658266061"><ele>2178.666666666667</ele><time>2026-05-03T16:49:37Z</time></trkpt><trkpt lat="36.010642069156255" lon="-107.10191059226929"><ele>2179.0</ele><time>2026-05-03T16:49:38Z</time></trkpt><trkpt lat="36.01070825781646" lon="-107.1018728460692"><ele>2179.0</ele><time>2026-05-03T16:49:39Z</time></trkpt><trkpt lat="36.01079525062228" lon="-107.10181507996703"><ele>2179.0</ele><time>2026-05-03T16:49:40Z</time></trkpt><trkpt lat="36.0108795146832" lon="-107.10177203976218"><ele>2179.0</ele><time>2026-05-03T16:49:41Z</time></trkpt><trkpt lat="36.01098639608575" lon="-107.10175722319056"><ele>2179.0</ele><time>2026-05-03T16:49:42Z</time></trkpt><trkpt lat="36.01111315409382" lon="-107.101742816412"><ele>2179.0</ele><time>2026-05-03T16:49:43Z</time></trkpt><trkpt lat="36.0112075900436" lon="-107.10172355173107"><ele>2179.4</ele><time>2026-05-03T16:49:44Z</time></trkpt><trkpt lat="36.01124606977654" lon="-107.10182545260784"><ele>2179.8</ele><time>2026-05-03T16:49:46Z</time></trkpt><trkpt lat="36.01121583825366" lon="-107.10199101313756"><ele>2180.2</ele><time>2026-05-03T16:49:48Z</time></trkpt><trkpt lat="36.01120546773794" lon="-107.10207718840591"><ele>2180.6</ele><time>2026-05-03T16:49:49Z</time></trkpt><trkpt lat="36.011188462543316" lon="-107.10215762074355"><ele>2181.0</ele><time>2026-05-03T16:49:50Z</time></trkpt><trkpt lat="36.01117348730211" lon="-107.10225950773142"><ele>2180.8333333333335</ele><time>2026-05-03T16:49:51Z</time></trkpt><trkpt lat="36.01115990382919" lon="-107.1024246871621"><ele>2180.6666666666665</ele><time>2026-05-03T16:49:52Z</time></trkpt><trkpt lat="36.011216332382766" lon="-107.10249616124304"><ele>2180.5</ele><time>2026-05-03T16:49:53Z</time></trkpt><trkpt lat="36.01127746596713" lon="-107.10247310900345"><ele>2180.333333333333</ele><time>2026-05-03T16:49:54Z</time></trkpt><trkpt lat="36.01135064657705" lon="-107.10246688282336"><ele>2180.1666666666665</ele><time>2026-05-03T16:49:55Z</time></trkpt><trkpt lat="36.01143914252928" lon="-107.10248338222209"><ele>2180.0</ele><time>2026-05-03T16:49:56Z</time></trkpt><trkpt lat="36.01153191265575" lon="-107.10248100395435"><ele>2180.0</ele><time>2026-05-03T16:49:57Z</time></trkpt><trkpt lat="36.01160838297515" lon="-107.10244295115237"><ele>2180.0</ele><time>2026-05-03T16:49:58Z</time></trkpt><trkpt lat="36.0117115304958" lon="-107.10244709316729"><ele>2180.0</ele><time>2026-05-03T16:49:59Z</time></trkpt><trkpt lat="36.01178012578241" lon="-107.10246704033798"><ele>2180.0</ele><time>2026-05-03T16:50:00Z</time></trkpt><trkpt lat="36.01188520299098" lon="-107.10237159268061"><ele>2180.0</ele><time>2026-05-03T16:50:02Z</time></trkpt><trkpt lat="36.01198660293629" lon="-107.10229923192169"><ele>2180.75</ele><time>2026-05-03T16:50:03Z</time></trkpt><trkpt lat="36.01209256523807" lon="-107.10224504593404"><ele>2181.5</ele><time>2026-05-03T16:50:04Z</time></trkpt><trkpt lat="36.012189983832414" lon="-107.10219006226103"><ele>2182.25</ele><time>2026-05-03T16:50:05Z</time></trkpt><trkpt lat="36.012295966076536" lon="-107.10215665664582"><ele>2183.0</ele><time>2026-05-03T16:50:06Z</time></trkpt><trkpt lat="36.012407518154674" lon="-107.10210391915555"><ele>2183.5</ele><time>2026-05-03T16:50:07Z</time></trkpt><trkpt lat="36.01253293028198" lon="-107.10204185054417"><ele>2184.0</ele><time>2026-05-03T16:50:08Z</time></trkpt><trkpt lat="36.012653185585194" lon="-107.10199441448087"><ele>2184.5</ele><time>2026-05-03T16:50:09Z</time></trkpt><trkpt lat="36.012763339276184" lon="-107.10197067982574"><ele>2185.0</ele><time>2026-05-03T16:50:10Z</time></trkpt><trkpt lat="36.012857688556345" lon="-107.10195683552422"><ele>2185.0</ele><time>2026-05-03T16:50:11Z</time></trkpt><trkpt lat="36.01298078751633" lon="-107.10196918040842"><ele>2185.0</ele><time>2026-05-03T16:50:12Z</time></trkpt><trkpt lat="36.0130949328779" lon="-107.10196938122955"><ele>2185.0</ele><time>2026-05-03T16:50:13Z</time></trkpt><trkpt lat="36.013198136542314" lon="-107.10194757295803"><ele>2185.0</ele><time>2026-05-03T16:50:14Z</time></trkpt><trkpt lat="36.013311062319374" lon="-107.10187644015684"><ele>2186.5</ele><time>2026-05-03T16:50:15Z</time></trkpt><trkpt lat="36.01344968647265" lon="-107.10184386238487"><ele>2188.0</ele><time>2026-05-03T16:50:16Z</time></trkpt><trkpt lat="36.013608823305795" lon="-107.10186080780686"><ele>2189.5</ele><time>2026-05-03T16:50:17Z</time></trkpt><trkpt lat="36.01371826557434" lon="-107.1018677666019"><ele>2191.0</ele><time>2026-05-03T16:50:18Z</time></trkpt><trkpt lat="36.013841143532446" lon="-107.10184536732575"><ele>2191.0</ele><time>2026-05-03T16:50:19Z</time></trkpt><trkpt lat="36.01396869543011" lon="-107.10183010618778"><ele>2191.0</ele><time>2026-05-03T16:50:20Z</time></trkpt><trkpt lat="36.01408748622642" lon="-107.10182286508487"><ele>2191.0</ele><time>2026-05-03T16:50:21Z</time></trkpt><trkpt lat="36.014209713958955" lon="-107.10182711330312"><ele>2191.0</ele><time>2026-05-03T16:50:22Z</time></trkpt><trkpt lat="36.01431515265614" lon="-107.10182353653715"><ele>2191.8</ele><time>2026-05-03T16:50:23Z</time></trkpt><trkpt lat="36.01440158003084" lon="-107.1017822901155"><ele>2192.6</ele><time>2026-05-03T16:50:24Z</time></trkpt><trkpt lat="36.01448206115675" lon="-107.10169637519783"><ele>2193.4</ele><time>2026-05-03T16:50:25Z</time></trkpt><trkpt lat="36.01458952283936" lon="-107.10161788155092"><ele>2194.2</ele><time>2026-05-03T16:50:26Z</time></trkpt><trkpt lat="36.01466070517944" lon="-107.10157862086017"><ele>2195.0</ele><time>2026-05-03T16:50:27Z</time></trkpt><trkpt lat="36.01472012767668" lon="-107.10150266722817"><ele>2195.8</ele><time>2026-05-03T16:50:28Z</time></trkpt><trkpt lat="36.01479714461673" lon="-107.1013730098787"><ele>2196.6</ele><time>2026-05-03T16:50:29Z</time></trkpt><trkpt lat="36.01488997700573" lon="-107.10128171000977"><ele>2197.4</ele><time>2026-05-03T16:50:30Z</time></trkpt><trkpt lat="36.0149583329887" lon="-107.10124852472343"><ele>2198.2</ele><time>2026-05-03T16:50:31Z</time></trkpt><trkpt lat="36.015028095084745" lon="-107.1012266608269"><ele>2199.0</ele><time>2026-05-03T16:50:32Z</time></trkpt><trkpt lat="36.01510849021472" lon="-107.10115173267558"><ele>2199.5</ele><time>2026-05-03T16:50:33Z</time></trkpt><trkpt lat="36.015201946432924" lon="-107.10105299449994"><ele>2200.0</ele><time>2026-05-03T16:50:34Z</time></trkpt><trkpt lat="36.015311459431366" lon="-107.10094548427999"><ele>2200.5</ele><time>2026-05-03T16:50:35Z</time></trkpt><trkpt lat="36.01540842943305" lon="-107.10088103426584"><ele>2201.0</ele><time>2026-05-03T16:50:36Z</time></trkpt><trkpt lat="36.01553375982677" lon="-107.10082563997685"><ele>2201.0</ele><time>2026-05-03T16:50:37Z</time></trkpt><trkpt lat="36.0156571293233" lon="-107.10076683016041"><ele>2201.0</ele><time>2026-05-03T16:50:38Z</time></trkpt><trkpt lat="36.01576949633342" lon="-107.10069653388067"><ele>2201.0</ele><time>2026-05-03T16:50:39Z</time></trkpt><trkpt lat="36.01587355195875" lon="-107.10060574835455"><ele>2201.0</ele><time>2026-05-03T16:50:40Z</time></trkpt><trkpt lat="36.01598834514469" lon="-107.10053952428788"><ele>2202.4</ele><time>2026-05-03T16:50:41Z</time></trkpt><trkpt lat="36.01609120854525" lon="-107.10048988670705"><ele>2203.8</ele><time>2026-05-03T16:50:42Z</time></trkpt><trkpt lat="36.016187797308774" lon="-107.10042433562556"><ele>2205.2000000000003</ele><time>2026-05-03T16:50:43Z</time></trkpt><trkpt lat="36.01628587781057" lon="-107.10034468477282"><ele>2206.6</ele><time>2026-05-03T16:50:44Z</time></trkpt><trkpt lat="36.01637392714966" lon="-107.10026484314791"><ele>2208.0</ele><time>2026-05-03T16:50:45Z</time></trkpt><trkpt lat="36.01642494682752" lon="-107.10017027217316"><ele>2208.0</ele><time>2026-05-03T16:50:46Z</time></trkpt><trkpt lat="36.01646042856795" lon="-107.10007022884814"><ele>2208.0</ele><time>2026-05-03T16:50:47Z</time></trkpt><trkpt lat="36.01650900788082" lon="-107.10000014620077"><ele>2208.0</ele><time>2026-05-03T16:50:48Z</time></trkpt><trkpt lat="36.01660923358832" lon="-107.09995012086162"><ele>2208.0</ele><time>2026-05-03T16:50:49Z</time></trkpt><trkpt lat="36.016715253638246" lon="-107.0998986541458"><ele>2208.0</ele><time>2026-05-03T16:50:50Z</time></trkpt><trkpt lat="36.016798705988286" lon="-107.09985088519036"><ele>2208.4</ele><time>2026-05-03T16:50:51Z</time></trkpt><trkpt lat="36.01687690008042" lon="-107.09982166561112"><ele>2208.8</ele><time>2026-05-03T16:50:52Z</time></trkpt><trkpt lat="36.01695363714495" lon="-107.09982657348972"><ele>2209.2</ele><time>2026-05-03T16:50:53Z</time></trkpt><trkpt lat="36.01703990177099" lon="-107.09984909382537"><ele>2209.6</ele><time>2026-05-03T16:50:55Z</time></trkpt><trkpt lat="36.01714943232561" lon="-107.09975552154411"><ele>2210.0</ele><time>2026-05-03T16:50:57Z</time></trkpt><trkpt lat="36.017212155259145" lon="-107.09965892130325"><ele>2210.0</ele><time>2026-05-03T16:50:58Z</time></trkpt><trkpt lat="36.01726017924806" lon="-107.09957161308246"><ele>2210.0</ele><time>2026-05-03T16:50:59Z</time></trkpt><trkpt lat="36.01728196232672" lon="-107.09947826967247"><ele>2210.0</ele><time>2026-05-03T16:51:00Z</time></trkpt><trkpt lat="36.017365107914046" lon="-107.09942614162269"><ele>2210.0</ele><time>2026-05-03T16:51:02Z</time></trkpt><trkpt lat="36.01746442659794" lon="-107.09944304709224"><ele>2210.0</ele><time>2026-05-03T16:51:03Z</time></trkpt><trkpt lat="36.017548521297364" lon="-107.09943729234665"><ele>2210.0</ele><time>2026-05-03T16:51:04Z</time></trkpt><trkpt lat="36.017624007136696" lon="-107.09943024730286"><ele>2210.0</ele><time>2026-05-03T16:51:05Z</time></trkpt><trkpt lat="36.01769359334821" lon="-107.0994112511544"><ele>2210.0</ele><time>2026-05-03T16:51:06Z</time></trkpt><trkpt lat="36.017748863921696" lon="-107.0993580928015"><ele>2210.0</ele><time>2026-05-03T16:51:07Z</time></trkpt><trkpt lat="36.01780104920732" lon="-107.0992941217447"><ele>2210.0</ele><time>2026-05-03T16:51:08Z</time></trkpt><trkpt lat="36.01788988812989" lon="-107.09917363889792"><ele>2210.0</ele><time>2026-05-03T16:51:10Z</time></trkpt><trkpt lat="36.01791527407085" lon="-107.09908102743434"><ele>2210.0</ele><time>2026-05-03T16:51:11Z</time></trkpt><trkpt lat="36.0179911990995" lon="-107.0989923961438"><ele>2210.0</ele><time>2026-05-03T16:51:13Z</time></trkpt><trkpt lat="36.01806920317313" lon="-107.09901955744596"><ele>2210.0</ele><time>2026-05-03T16:51:14Z</time></trkpt><trkpt lat="36.01814136571034" lon="-107.09902122898069"><ele>2210.0</ele><time>2026-05-03T16:51:15Z</time></trkpt><trkpt lat="36.018252828637905" lon="-107.09908831470132"><ele>2210.0</ele><time>2026-05-03T16:51:17Z</time></trkpt><trkpt lat="36.01834093211369" lon="-107.09910999019026"><ele>2210.0</ele><time>2026-05-03T16:51:18Z</time></trkpt><trkpt lat="36.01839835135983" lon="-107.09906981138589"><ele>2210.0</ele><time>2026-05-03T16:51:19Z</time></trkpt><trkpt lat="36.01846008270582" lon="-107.09901491106375"><ele>2211.6</ele><time>2026-05-03T16:51:20Z</time></trkpt><trkpt lat="36.018422205280906" lon="-107.09889941735419"><ele>2213.2</ele><time>2026-05-03T16:51:22Z</time></trkpt><trkpt lat="36.0184444023765" lon="-107.0987882962818"><ele>2214.8</ele><time>2026-05-03T16:51:24Z</time></trkpt><trkpt lat="36.018503845803146" lon="-107.09874473771501"><ele>2216.4</ele><time>2026-05-03T16:51:25Z</time></trkpt><trkpt lat="36.01858837443502" lon="-107.09874321631285"><ele>2218.0</ele><time>2026-05-03T16:51:26Z</time></trkpt><trkpt lat="36.01867798783157" lon="-107.09858858048592"><ele>2217.9999999999995</ele><time>2026-05-03T16:51:28Z</time></trkpt><trkpt lat="36.01870680600623" lon="-107.0985073130804"><ele>2218.0</ele><time>2026-05-03T16:51:29Z</time></trkpt><trkpt lat="36.018709255706526" lon="-107.0984277082989"><ele>2218.0</ele><time>2026-05-03T16:51:30Z</time></trkpt><trkpt lat="36.01868591408614" lon="-107.09832122892733"><ele>2218.0</ele><time>2026-05-03T16:51:32Z</time></trkpt><trkpt lat="36.01869368085046" lon="-107.09824218150983"><ele>2218.0</ele><time>2026-05-03T16:51:34Z</time></trkpt><trkpt lat="36.01869001308548" lon="-107.098161003089"><ele>2217.9999999999995</ele><time>2026-05-03T16:51:36Z</time></trkpt><trkpt lat="36.0187662107003" lon="-107.09809634485899"><ele>2218.0</ele><time>2026-05-03T16:51:39Z</time></trkpt><trkpt lat="36.01883504326706" lon="-107.09804878237081"><ele>2218.2000000000003</ele><time>2026-05-03T16:51:41Z</time></trkpt><trkpt lat="36.01892804265524" lon="-107.09798300338514"><ele>2218.4</ele><time>2026-05-03T16:51:43Z</time></trkpt><trkpt lat="36.01901729052902" lon="-107.09788108889535"><ele>2218.6000000000004</ele><time>2026-05-03T16:51:45Z</time></trkpt><trkpt lat="36.01907317056286" lon="-107.09783476627823"><ele>2218.8</ele><time>2026-05-03T16:51:46Z</time></trkpt><trkpt lat="36.019129927040716" lon="-107.09778268499099"><ele>2219.0</ele><time>2026-05-03T16:51:47Z</time></trkpt><trkpt lat="36.01922493308873" lon="-107.09771379827768"><ele>2221.4</ele><time>2026-05-03T16:51:48Z</time></trkpt><trkpt lat="36.01931210336721" lon="-107.09763573295743"><ele>2223.8</ele><time>2026-05-03T16:51:49Z</time></trkpt><trkpt lat="36.01938766256123" lon="-107.09756314871373"><ele>2226.2</ele><time>2026-05-03T16:51:50Z</time></trkpt><trkpt lat="36.01945677941048" lon="-107.09749649593824"><ele>2228.6</ele><time>2026-05-03T16:51:51Z</time></trkpt><trkpt lat="36.01954040121283" lon="-107.09742589135874"><ele>2231.0</ele><time>2026-05-03T16:51:52Z</time></trkpt><trkpt lat="36.01962366985277" lon="-107.09736694074076"><ele>2232.0</ele><time>2026-05-03T16:51:53Z</time></trkpt><trkpt lat="36.01971137780106" lon="-107.09731397708002"><ele>2233.0</ele><time>2026-05-03T16:51:54Z</time></trkpt><trkpt lat="36.019820419349415" lon="-107.0972612723002"><ele>2234.0</ele><time>2026-05-03T16:51:55Z</time></trkpt><trkpt lat="36.01993534504725" lon="-107.0972283964497"><ele>2235.0</ele><time>2026-05-03T16:51:56Z</time></trkpt><trkpt lat="36.02005747451874" lon="-107.09718778843805"><ele>2238.0</ele><time>2026-05-03T16:51:57Z</time></trkpt><trkpt lat="36.02017044693832" lon="-107.09713858788969"><ele>2241.0</ele><time>2026-05-03T16:51:58Z</time></trkpt><trkpt lat="36.02026632195363" lon="-107.0970893555905"><ele>2244.0</ele><time>2026-05-03T16:51:59Z</time></trkpt><trkpt lat="36.020365071309335" lon="-107.09701241919636"><ele>2247.0</ele><time>2026-05-03T16:52:00Z</time></trkpt><trkpt lat="36.020458049765736" lon="-107.09693872800233"><ele>2247.0</ele><time>2026-05-03T16:52:01Z</time></trkpt><trkpt lat="36.02054199876642" lon="-107.0968861140212"><ele>2247.0</ele><time>2026-05-03T16:52:02Z</time></trkpt><trkpt lat="36.02064125519753" lon="-107.09683354591951"><ele>2247.0</ele><time>2026-05-03T16:52:03Z</time></trkpt><trkpt lat="36.02074412863151" lon="-107.09672938806986"><ele>2247.0</ele><time>2026-05-03T16:52:04Z</time></trkpt><trkpt lat="36.02083960984714" lon="-107.09665296764982"><ele>2247.0</ele><time>2026-05-03T16:52:05Z</time></trkpt><trkpt lat="36.020961345742386" lon="-107.09660547189688"><ele>2246.5</ele><time>2026-05-03T16:52:06Z</time></trkpt><trkpt lat="36.02105051376015" lon="-107.09654270023277"><ele>2246.0</ele><time>2026-05-03T16:52:07Z</time></trkpt><trkpt lat="36.021109124485235" lon="-107.09650778664341"><ele>2245.5</ele><time>2026-05-03T16:52:08Z</time></trkpt><trkpt lat="36.021182596345575" lon="-107.09650758760316"><ele>2245.0</ele><time>2026-05-03T16:52:09Z</time></trkpt><trkpt lat="36.02126419071734" lon="-107.09656744675029"><ele>2244.5</ele><time>2026-05-03T16:52:10Z</time></trkpt><trkpt lat="36.02133573230857" lon="-107.09664056930441"><ele>2244.0</ele><time>2026-05-03T16:52:11Z</time></trkpt><trkpt lat="36.02140986774214" lon="-107.09672679782794"><ele>2244.0</ele><time>2026-05-03T16:52:12Z</time></trkpt><trkpt lat="36.021504696102916" lon="-107.09681284259129"><ele>2244.0</ele><time>2026-05-03T16:52:13Z</time></trkpt><trkpt lat="36.02158404182013" lon="-107.09685968018141"><ele>2244.0</ele><time>2026-05-03T16:52:14Z</time></trkpt><trkpt lat="36.02164193483236" lon="-107.09694863712544"><ele>2244.0</ele><time>2026-05-03T16:52:15Z</time></trkpt><trkpt lat="36.02172771106624" lon="-107.09702877217171"><ele>2244.0</ele><time>2026-05-03T16:52:16Z</time></trkpt><trkpt lat="36.02181824764451" lon="-107.0970939192403"><ele>2243.6</ele><time>2026-05-03T16:52:17Z</time></trkpt><trkpt lat="36.02190380322443" lon="-107.09716001425218"><ele>2243.2</ele><time>2026-05-03T16:52:18Z</time></trkpt><trkpt lat="36.02199971211963" lon="-107.09721102864572"><ele>2242.7999999999997</ele><time>2026-05-03T16:52:19Z</time></trkpt><trkpt lat="36.02208445730501" lon="-107.09724835958181"><ele>2242.4</ele><time>2026-05-03T16:52:20Z</time></trkpt><trkpt lat="36.02216017675797" lon="-107.09726592254538"><ele>2242.0</ele><time>2026-05-03T16:52:21Z</time></trkpt><trkpt lat="36.022257214680685" lon="-107.09723012430176"><ele>2242.0</ele><time>2026-05-03T16:52:22Z</time></trkpt><trkpt lat="36.02239217708918" lon="-107.0971559848264"><ele>2242.0</ele><time>2026-05-03T16:52:23Z</time></trkpt><trkpt lat="36.02252754947369" lon="-107.09707824112736"><ele>2242.0</ele><time>2026-05-03T16:52:24Z</time></trkpt><trkpt lat="36.022702196962356" lon="-107.09703441031492"><ele>2239.666666666667</ele><time>2026-05-03T16:52:25Z</time></trkpt><trkpt lat="36.02290237276354" lon="-107.09697980277276"><ele>2237.3333333333335</ele><time>2026-05-03T16:52:26Z</time></trkpt><trkpt lat="36.02310210628139" lon="-107.09692270247557"><ele>2235.0</ele><time>2026-05-03T16:52:27Z</time></trkpt><trkpt lat="36.02329133170063" lon="-107.0968575371428"><ele>2232.6666666666665</ele><time>2026-05-03T16:52:28Z</time></trkpt><trkpt lat="36.02348192369771" lon="-107.09679146185941"><ele>2230.333333333333</ele><time>2026-05-03T16:52:29Z</time></trkpt><trkpt lat="36.02366903793466" lon="-107.09672604544183"><ele>2228.0</ele><time>2026-05-03T16:52:30Z</time></trkpt><trkpt lat="36.0238318315612" lon="-107.09666221279107"><ele>2228.0</ele><time>2026-05-03T16:52:31Z</time></trkpt><trkpt lat="36.02398764323387" lon="-107.09662626196916"><ele>2228.0</ele><time>2026-05-03T16:52:32Z</time></trkpt><trkpt lat="36.024136228804544" lon="-107.09657733669916"><ele>2228.0</ele><time>2026-05-03T16:52:33Z</time></trkpt><trkpt lat="36.024254201673145" lon="-107.09654683964762"><ele>2228.0</ele><time>2026-05-03T16:52:34Z</time></trkpt><trkpt lat="36.02433636514528" lon="-107.09655078284383"><ele>2227.0</ele><time>2026-05-03T16:52:35Z</time></trkpt><trkpt lat="36.024395418548615" lon="-107.09657993476287"><ele>2226.0</ele><time>2026-05-03T16:52:36Z</time></trkpt><trkpt lat="36.02443979430494" lon="-107.09666051926952"><ele>2225.0</ele><time>2026-05-03T16:52:37Z</time></trkpt><trkpt lat="36.02444426244104" lon="-107.0967690435198"><ele>2224.0</ele><time>2026-05-03T16:52:38Z</time></trkpt><trkpt lat="36.02441698695555" lon="-107.09689658012503"><ele>2223.0</ele><time>2026-05-03T16:52:39Z</time></trkpt><trkpt lat="36.024426786174075" lon="-107.09705588313113"><ele>2223.0</ele><time>2026-05-03T16:52:40Z</time></trkpt><trkpt lat="36.0244688516301" lon="-107.09722661022884"><ele>2223.0</ele><time>2026-05-03T16:52:41Z</time></trkpt><trkpt lat="36.024561281551996" lon="-107.09737820090457"><ele>2223.0</ele><time>2026-05-03T16:52:42Z</time></trkpt><trkpt lat="36.024654450596785" lon="-107.09751584518514"><ele>2223.0</ele><time>2026-05-03T16:52:43Z</time></trkpt><trkpt lat="36.024731323160715" lon="-107.09761104162688"><ele>2223.25</ele><time>2026-05-03T16:52:44Z</time></trkpt><trkpt lat="36.02485559606576" lon="-107.09764808972609"><ele>2223.5</ele><time>2026-05-03T16:52:45Z</time></trkpt><trkpt lat="36.02501356222834" lon="-107.09764434741797"><ele>2223.75</ele><time>2026-05-03T16:52:46Z</time></trkpt><trkpt lat="36.02515593634104" lon="-107.09765043607749"><ele>2224.0</ele><time>2026-05-03T16:52:47Z</time></trkpt><trkpt lat="36.02528967026126" lon="-107.09769373090202"><ele>2223.5</ele><time>2026-05-03T16:52:48Z</time></trkpt><trkpt lat="36.02541089145335" lon="-107.09776274165831"><ele>2223.0</ele><time>2026-05-03T16:52:49Z</time></trkpt><trkpt lat="36.0255385922867" lon="-107.09784406560665"><ele>2222.5</ele><time>2026-05-03T16:52:50Z</time></trkpt><trkpt lat="36.02562902501663" lon="-107.09794377446427"><ele>2222.0</ele><time>2026-05-03T16:52:51Z</time></trkpt><trkpt lat="36.02571390672449" lon="-107.09803253597435"><ele>2222.0</ele><time>2026-05-03T16:52:52Z</time></trkpt><trkpt lat="36.025805196523955" lon="-107.09804325613653"><ele>2222.0</ele><time>2026-05-03T16:52:53Z</time></trkpt><trkpt lat="36.02591737536159" lon="-107.09798072863148"><ele>2222.0</ele><time>2026-05-03T16:52:54Z</time></trkpt><trkpt lat="36.02601432158246" lon="-107.09790032958958"><ele>2222.0</ele><time>2026-05-03T16:52:55Z</time></trkpt><trkpt lat="36.02611904747399" lon="-107.09781452822705"><ele>2222.333333333333</ele><time>2026-05-03T16:52:56Z</time></trkpt><trkpt lat="36.02625663022192" lon="-107.09777476694751"><ele>2222.6666666666665</ele><time>2026-05-03T16:52:57Z</time></trkpt><trkpt lat="36.02642518958042" lon="-107.09775047777836"><ele>2223.0</ele><time>2026-05-03T16:52:58Z</time></trkpt><trkpt lat="36.02659901483004" lon="-107.09774972333591"><ele>2222.6666666666665</ele><time>2026-05-03T16:52:59Z</time></trkpt><trkpt lat="36.02678066679685" lon="-107.09779121945819"><ele>2222.333333333333</ele><time>2026-05-03T16:53:00Z</time></trkpt><trkpt lat="36.026977869839364" lon="-107.09782410660071"><ele>2222.0</ele><time>2026-05-03T16:53:01Z</time></trkpt><trkpt lat="36.02717466915675" lon="-107.09780617719646"><ele>2222.0</ele><time>2026-05-03T16:53:02Z</time></trkpt><trkpt lat="36.027289730972875" lon="-107.09786221095679"><ele>2222.0</ele><time>2026-05-03T16:53:03Z</time></trkpt><trkpt lat="36.02738773124315" lon="-107.09790885526533"><ele>2222.0</ele><time>2026-05-03T16:53:04Z</time></trkpt><trkpt lat="36.027516776440216" lon="-107.09792347346088"><ele>2222.0</ele><time>2026-05-03T16:53:05Z</time></trkpt><trkpt lat="36.02766929101144" lon="-107.09792776346539"><ele>2222.0</ele><time>2026-05-03T16:53:06Z</time></trkpt><trkpt lat="36.02779045076343" lon="-107.09803545387514"><ele>2222.0</ele><time>2026-05-03T16:53:07Z</time></trkpt><trkpt lat="36.02785128420774" lon="-107.09807154827377"><ele>2222.0</ele><time>2026-05-03T16:53:08Z</time></trkpt><trkpt lat="36.027908961055196" lon="-107.09812407521628"><ele>2222.0</ele><time>2026-05-03T16:53:22Z</time></trkpt><trkpt lat="36.02797451086713" lon="-107.09820122850982"><ele>2222.0</ele><time>2026-05-03T16:53:23Z</time></trkpt><trkpt lat="36.028090592073845" lon="-107.09826522992128"><ele>2222.0</ele><time>2026-05-03T16:53:24Z</time></trkpt><trkpt lat="36.02820207847766" lon="-107.0983372316269"><ele>2222.0</ele><time>2026-05-03T16:53:25Z</time></trkpt><trkpt lat="36.02831563058089" lon="-107.09844968456275"><ele>2222.0</ele><time>2026-05-03T16:53:26Z</time></trkpt><trkpt lat="36.02842623149871" lon="-107.09859474738391"><ele>2222.0</ele><time>2026-05-03T16:53:27Z</time></trkpt><trkpt lat="36.02856071013807" lon="-107.09870662522704"><ele>2223.0</ele><time>2026-05-03T16:53:28Z</time></trkpt><trkpt lat="36.02869961424435" lon="-107.09877542939964"><ele>2224.0</ele><time>2026-05-03T16:53:29Z</time></trkpt><trkpt lat="36.028839229131194" lon="-107.09888705628065"><ele>2225.0</ele><time>2026-05-03T16:53:30Z</time></trkpt><trkpt lat="36.028954735846156" lon="-107.09901103902314"><ele>2225.0</ele><time>2026-05-03T16:53:31Z</time></trkpt><trkpt lat="36.02910176026493" lon="-107.09914205398077"><ele>2225.0</ele><time>2026-05-03T16:53:32Z</time></trkpt><trkpt lat="36.02920559621004" lon="-107.0991869182334"><ele>2225.0</ele><time>2026-05-03T16:53:33Z</time></trkpt><trkpt lat="36.02932944881172" lon="-107.09917690965386"><ele>2225.0</ele><time>2026-05-03T16:53:34Z</time></trkpt><trkpt lat="36.02947781322042" lon="-107.0992071867831"><ele>2225.0</ele><time>2026-05-03T16:53:35Z</time></trkpt><trkpt lat="36.029652716828515" lon="-107.09925549919036"><ele>2225.0</ele><time>2026-05-03T16:53:36Z</time></trkpt><trkpt lat="36.02983128728802" lon="-107.09927604886704"><ele>2225.0</ele><time>2026-05-03T16:53:37Z</time></trkpt><trkpt lat="36.02998912583149" lon="-107.09932236494988"><ele>2225.5</ele><time>2026-05-03T16:53:38Z</time></trkpt><trkpt lat="36.03011877899141" lon="-107.09935621581415"><ele>2226.0</ele><time>2026-05-03T16:53:39Z</time></trkpt><trkpt lat="36.030269025272815" lon="-107.09937056745612"><ele>2226.5</ele><time>2026-05-03T16:53:40Z</time></trkpt><trkpt lat="36.03042277309148" lon="-107.09937903050835"><ele>2227.0</ele><time>2026-05-03T16:53:41Z</time></trkpt><trkpt lat="36.03055768091696" lon="-107.09935564553743"><ele>2227.0</ele><time>2026-05-03T16:53:42Z</time></trkpt><trkpt lat="36.03064450960965" lon="-107.09930469379556"><ele>2227.0</ele><time>2026-05-03T16:53:43Z</time></trkpt><trkpt lat="36.03072686831663" lon="-107.09933927934516"><ele>2227.0</ele><time>2026-05-03T16:53:44Z</time></trkpt><trkpt lat="36.030817926748114" lon="-107.09941422207025"><ele>2227.0</ele><time>2026-05-03T16:53:45Z</time></trkpt><trkpt lat="36.03097921819414" lon="-107.09943379384598"><ele>2226.3333333333335</ele><time>2026-05-03T16:53:46Z</time></trkpt><trkpt lat="36.03115601072056" lon="-107.09944605888592"><ele>2225.6666666666665</ele><time>2026-05-03T16:53:47Z</time></trkpt><trkpt lat="36.03135975025521" lon="-107.09945548082436"><ele>2225.0</ele><time>2026-05-03T16:53:48Z</time></trkpt><trkpt lat="36.031575404731306" lon="-107.09944470107625"><ele>2224.333333333333</ele><time>2026-05-03T16:53:49Z</time></trkpt><trkpt lat="36.031747148550586" lon="-107.09943895774458"><ele>2223.6666666666665</ele><time>2026-05-03T16:53:50Z</time></trkpt><trkpt lat="36.03190527566416" lon="-107.09943967376857"><ele>2223.0</ele><time>2026-05-03T16:53:51Z</time></trkpt><trkpt lat="36.03207364577537" lon="-107.09944203813866"><ele>2223.0</ele><time>2026-05-03T16:53:52Z</time></trkpt><trkpt lat="36.03223709317339" lon="-107.09943375883186"><ele>2223.0</ele><time>2026-05-03T16:53:53Z</time></trkpt><trkpt lat="36.032400125166674" lon="-107.09945032312055"><ele>2223.0</ele><time>2026-05-03T16:53:54Z</time></trkpt><trkpt lat="36.03257552363208" lon="-107.09945624463428"><ele>2222.6666666666665</ele><time>2026-05-03T16:53:55Z</time></trkpt><trkpt lat="36.03272742553481" lon="-107.09946368809125"><ele>2222.333333333333</ele><time>2026-05-03T16:53:56Z</time></trkpt><trkpt lat="36.032893881891425" lon="-107.0994551884094"><ele>2222.0</ele><time>2026-05-03T16:53:57Z</time></trkpt><trkpt lat="36.033076047572216" lon="-107.09942747699138"><ele>2222.0</ele><time>2026-05-03T16:53:58Z</time></trkpt><trkpt lat="36.03324138435547" lon="-107.09941762412062"><ele>2222.0</ele><time>2026-05-03T16:53:59Z</time></trkpt><trkpt lat="36.03335321588011" lon="-107.0993895106307"><ele>2222.0</ele><time>2026-05-03T16:54:00Z</time></trkpt><trkpt lat="36.03344406445707" lon="-107.09935526082161"><ele>2222.0</ele><time>2026-05-03T16:54:01Z</time></trkpt><trkpt lat="36.033535230803224" lon="-107.09933307896165"><ele>2221.75</ele><time>2026-05-03T16:54:02Z</time></trkpt><trkpt lat="36.03361457956123" lon="-107.09938197875238"><ele>2221.5</ele><time>2026-05-03T16:54:03Z</time></trkpt><trkpt lat="36.03373958225201" lon="-107.09944405936706"><ele>2221.25</ele><time>2026-05-03T16:54:04Z</time></trkpt><trkpt lat="36.03388100939705" lon="-107.09942476960292"><ele>2221.0</ele><time>2026-05-03T16:54:05Z</time></trkpt><trkpt lat="36.03401899520502" lon="-107.09940848051001"><ele>2220.0</ele><time>2026-05-03T16:54:06Z</time></trkpt><trkpt lat="36.03421333258278" lon="-107.09941414711106"><ele>2219.0</ele><time>2026-05-03T16:54:07Z</time></trkpt><trkpt lat="36.03436878191339" lon="-107.09941465879695"><ele>2218.0</ele><time>2026-05-03T16:54:08Z</time></trkpt><trkpt lat="36.03450311056784" lon="-107.09937440134043"><ele>2218.0</ele><time>2026-05-03T16:54:09Z</time></trkpt><trkpt lat="36.03457677358547" lon="-107.09927355572748"><ele>2218.0</ele><time>2026-05-03T16:54:10Z</time></trkpt><trkpt lat="36.03462990220927" lon="-107.0991466651637"><ele>2218.0</ele><time>2026-05-03T16:54:11Z</time></trkpt><trkpt lat="36.034700570072914" lon="-107.09903613514044"><ele>2218.0</ele><time>2026-05-03T16:54:12Z</time></trkpt><trkpt lat="36.03478002845667" lon="-107.09903769711511"><ele>2218.0</ele><time>2026-05-03T16:54:13Z</time></trkpt><trkpt lat="36.034874511970045" lon="-107.09903521177907"><ele>2217.75</ele><time>2026-05-03T16:54:14Z</time></trkpt><trkpt lat="36.035036643535165" lon="-107.09916817813647"><ele>2217.5</ele><time>2026-05-03T16:54:15Z</time></trkpt><trkpt lat="36.035158390719765" lon="-107.09925710869194"><ele>2217.25</ele><time>2026-05-03T16:54:16Z</time></trkpt><trkpt lat="36.03524486146484" lon="-107.09927806376271"><ele>2217.0</ele><time>2026-05-03T16:54:17Z</time></trkpt><trkpt lat="36.0353531882586" lon="-107.09925851820988"><ele>2217.0</ele><time>2026-05-03T16:54:18Z</time></trkpt><trkpt lat="36.03550603530125" lon="-107.09927690060341"><ele>2217.0</ele><time>2026-05-03T16:54:19Z</time></trkpt><trkpt lat="36.0356016556781" lon="-107.09926397808144"><ele>2217.0</ele><time>2026-05-03T16:54:20Z</time></trkpt><trkpt lat="36.03569689556648" lon="-107.09919054142016"><ele>2217.0</ele><time>2026-05-03T16:54:21Z</time></trkpt><trkpt lat="36.03577027991337" lon="-107.09909131186029"><ele>2216.0</ele><time>2026-05-03T16:54:22Z</time></trkpt><trkpt lat="36.0358125262849" lon="-107.09891390751353"><ele>2215.0</ele><time>2026-05-03T16:54:23Z</time></trkpt><trkpt lat="36.035835689411876" lon="-107.09871490979123"><ele>2214.0</ele><time>2026-05-03T16:54:24Z</time></trkpt><trkpt lat="36.03585551582333" lon="-107.0985113799432"><ele>2214.0</ele><time>2026-05-03T16:54:25Z</time></trkpt><trkpt lat="36.03583472897939" lon="-107.09837736338328"><ele>2214.0</ele><time>2026-05-03T16:54:26Z</time></trkpt><trkpt lat="36.03581331936817" lon="-107.09819120131324"><ele>2214.0</ele><time>2026-05-03T16:54:27Z</time></trkpt><trkpt lat="36.03581947980038" lon="-107.09797721107397"><ele>2214.0</ele><time>2026-05-03T16:54:28Z</time></trkpt><trkpt lat="36.0358164367121" lon="-107.09783964961031"><ele>2213.75</ele><time>2026-05-03T16:54:29Z</time></trkpt><trkpt lat="36.03584188170609" lon="-107.0977162094321"><ele>2213.5</ele><time>2026-05-03T16:54:30Z</time></trkpt><trkpt lat="36.03586481936668" lon="-107.09755915983939"><ele>2213.25</ele><time>2026-05-03T16:54:31Z</time></trkpt><trkpt lat="36.03587303613006" lon="-107.09741651437352"><ele>2213.0</ele><time>2026-05-03T16:54:32Z</time></trkpt><trkpt lat="36.0358597957542" lon="-107.09725833972476"><ele>2213.0</ele><time>2026-05-03T16:54:33Z</time></trkpt><trkpt lat="36.03585750819989" lon="-107.0971156032458"><ele>2213.0</ele><time>2026-05-03T16:54:34Z</time></trkpt><trkpt lat="36.03587202715539" lon="-107.09695098612197"><ele>2213.0</ele><time>2026-05-03T16:54:35Z</time></trkpt><trkpt lat="36.035855707937834" lon="-107.09677268975152"><ele>2213.0</ele><time>2026-05-03T16:54:36Z</time></trkpt><trkpt lat="36.03586838591354" lon="-107.09660000858347"><ele>2212.75</ele><time>2026-05-03T16:54:37Z</time></trkpt><trkpt lat="36.035899743569786" lon="-107.09644987550311"><ele>2212.5</ele><time>2026-05-03T16:54:38Z</time></trkpt><trkpt lat="36.035934512068735" lon="-107.09628864967229"><ele>2212.25</ele><time>2026-05-03T16:54:39Z</time></trkpt><trkpt lat="36.035958034314916" lon="-107.09609792243117"><ele>2212.0</ele><time>2026-05-03T16:54:40Z</time></trkpt><trkpt lat="36.03595874689755" lon="-107.0959852260752"><ele>2212.0</ele><time>2026-05-03T16:54:41Z</time></trkpt><trkpt lat="36.03596469095397" lon="-107.09588617622221"><ele>2212.0</ele><time>2026-05-03T16:54:42Z</time></trkpt><trkpt lat="36.03597751196759" lon="-107.09577809425603"><ele>2212.0</ele><time>2026-05-03T16:54:43Z</time></trkpt><trkpt lat="36.035970213793355" lon="-107.09566654203883"><ele>2212.0</ele><time>2026-05-03T16:54:44Z</time></trkpt><trkpt lat="36.03593877973265" lon="-107.09552331588694"><ele>2212.0</ele><time>2026-05-03T16:54:45Z</time></trkpt><trkpt lat="36.03593184474665" lon="-107.0953822201687"><ele>2210.75</ele><time>2026-05-03T16:54:46Z</time></trkpt><trkpt lat="36.035926255929525" lon="-107.09520842251843"><ele>2209.5</ele><time>2026-05-03T16:54:47Z</time></trkpt><trkpt lat="36.035920782909194" lon="-107.0950609658597"><ele>2208.25</ele><time>2026-05-03T16:54:48Z</time></trkpt><trkpt lat="36.03591303862645" lon="-107.09490533943514"><ele>2207.0</ele><time>2026-05-03T16:54:49Z</time></trkpt><trkpt lat="36.03588092017172" lon="-107.09471239309482"><ele>2206.75</ele><time>2026-05-03T16:54:50Z</time></trkpt><trkpt lat="36.03585462872784" lon="-107.09450169306224"><ele>2206.5</ele><time>2026-05-03T16:54:51Z</time></trkpt><trkpt lat="36.03584524848649" lon="-107.0943212546692"><ele>2206.25</ele><time>2026-05-03T16:54:52Z</time></trkpt><trkpt lat="36.03583611094505" lon="-107.09422451972655"><ele>2206.0</ele><time>2026-05-03T16:54:53Z</time></trkpt><trkpt lat="36.03584938641035" lon="-107.09413444345213"><ele>2206.8333333333335</ele><time>2026-05-03T16:54:54Z</time></trkpt><trkpt lat="36.03588376193721" lon="-107.09403295208384"><ele>2207.666666666667</ele><time>2026-05-03T16:54:55Z</time></trkpt><trkpt lat="36.035939301526945" lon="-107.09393151154954"><ele>2208.5</ele><time>2026-05-03T16:54:56Z</time></trkpt><trkpt lat="36.03593358817054" lon="-107.09381741559628"><ele>2209.3333333333335</ele><time>2026-05-03T16:54:58Z</time></trkpt><trkpt lat="36.035875423877236" lon="-107.09373789623432"><ele>2210.1666666666665</ele><time>2026-05-03T16:54:59Z</time></trkpt><trkpt lat="36.035820781023915" lon="-107.09366329387677"><ele>2211.0</ele><time>2026-05-03T16:55:00Z</time></trkpt><trkpt lat="36.03574915806206" lon="-107.09360584309077"><ele>2211.2</ele><time>2026-05-03T16:55:01Z</time></trkpt><trkpt lat="36.035668085532755" lon="-107.09352752199771"><ele>2211.3999999999996</ele><time>2026-05-03T16:55:02Z</time></trkpt><trkpt lat="36.035618172954585" lon="-107.09341349004323"><ele>2211.6</ele><time>2026-05-03T16:55:03Z</time></trkpt><trkpt lat="36.035608067336064" lon="-107.09330149512138"><ele>2211.7999999999997</ele><time>2026-05-03T16:55:04Z</time></trkpt><trkpt lat="36.03558195605897" lon="-107.0932065820914"><ele>2212.0</ele><time>2026-05-03T16:55:05Z</time></trkpt><trkpt lat="36.03557910070378" lon="-107.09310920124362"><ele>2212.0</ele><time>2026-05-03T16:55:06Z</time></trkpt><trkpt lat="36.03559868336455" lon="-107.0929854627022"><ele>2212.0</ele><time>2026-05-03T16:55:07Z</time></trkpt><trkpt lat="36.035626720433825" lon="-107.09285879015361"><ele>2212.0</ele><time>2026-05-03T16:55:08Z</time></trkpt><trkpt lat="36.03560061560976" lon="-107.092759816536"><ele>2212.0</ele><time>2026-05-03T16:55:09Z</time></trkpt><trkpt lat="36.03554251625459" lon="-107.09268946733766"><ele>2212.0</ele><time>2026-05-03T16:55:10Z</time></trkpt><trkpt lat="36.035500337670456" lon="-107.09259628722154"><ele>2212.0</ele><time>2026-05-03T16:55:11Z</time></trkpt><trkpt lat="36.035540427692546" lon="-107.09247091036153"><ele>2212.0</ele><time>2026-05-03T16:55:12Z</time></trkpt><trkpt lat="36.035583171526376" lon="-107.09232854718974"><ele>2212.0</ele><time>2026-05-03T16:55:13Z</time></trkpt><trkpt lat="36.03559352708867" lon="-107.09221103934715"><ele>2212.0</ele><time>2026-05-03T16:55:14Z</time></trkpt><trkpt lat="36.035613754313175" lon="-107.09205467287991"><ele>2211.6</ele><time>2026-05-03T16:55:15Z</time></trkpt><trkpt lat="36.03562277107626" lon="-107.09191948505341"><ele>2211.2</ele><time>2026-05-03T16:55:16Z</time></trkpt><trkpt lat="36.03561126093587" lon="-107.09179177637722"><ele>2210.8</ele><time>2026-05-03T16:55:17Z</time></trkpt><trkpt lat="36.035664830346704" lon="-107.09167123800762"><ele>2210.4</ele><time>2026-05-03T16:55:18Z</time></trkpt><trkpt lat="36.03570523161069" lon="-107.09160013847739"><ele>2210.0</ele><time>2026-05-03T16:55:19Z</time></trkpt><trkpt lat="36.035712390340215" lon="-107.09150912381494"><ele>2209.8</ele><time>2026-05-03T16:55:20Z</time></trkpt><trkpt lat="36.03565149420163" lon="-107.09143992968866"><ele>2209.6</ele><time>2026-05-03T16:55:21Z</time></trkpt><trkpt lat="36.035585869702544" lon="-107.09135376745026"><ele>2209.4</ele><time>2026-05-03T16:55:22Z</time></trkpt><trkpt lat="36.03546625031382" lon="-107.09137885896342"><ele>2209.2</ele><time>2026-05-03T16:55:23Z</time></trkpt><trkpt lat="36.03540190126515" lon="-107.09128760945987"><ele>2209.0</ele><time>2026-05-03T16:55:24Z</time></trkpt><trkpt lat="36.03527265186124" lon="-107.0912337333396"><ele>2209.0</ele><time>2026-05-03T16:55:25Z</time></trkpt><trkpt lat="36.03515857373223" lon="-107.09117627623401"><ele>2209.0</ele><time>2026-05-03T16:55:26Z</time></trkpt><trkpt lat="36.035048306035975" lon="-107.09109722124923"><ele>2209.0</ele><time>2026-05-03T16:55:27Z</time></trkpt><trkpt lat="36.03496160290485" lon="-107.09100891685318"><ele>2209.0</ele><time>2026-05-03T16:55:28Z</time></trkpt><trkpt lat="36.034873853453604" lon="-107.09094481743544"><ele>2207.25</ele><time>2026-05-03T16:55:29Z</time></trkpt><trkpt lat="36.034745511474" lon="-107.09085103004902"><ele>2205.5</ele><time>2026-05-03T16:55:30Z</time></trkpt><trkpt lat="36.03463832139841" lon="-107.09075863801955"><ele>2203.75</ele><time>2026-05-03T16:55:31Z</time></trkpt><trkpt lat="36.034538957165395" lon="-107.09071970003157"><ele>2202.0</ele><time>2026-05-03T16:55:32Z</time></trkpt><trkpt lat="36.03444537983646" lon="-107.09061666363634"><ele>2201.0</ele><time>2026-05-03T16:55:33Z</time></trkpt><trkpt lat="36.03439021022191" lon="-107.09047593385675"><ele>2200.0</ele><time>2026-05-03T16:55:34Z</time></trkpt><trkpt lat="36.03438544124886" lon="-107.09034994410429"><ele>2199.0</ele><time>2026-05-03T16:55:35Z</time></trkpt><trkpt lat="36.03443641635982" lon="-107.09026153300879"><ele>2198.0</ele><time>2026-05-03T16:55:36Z</time></trkpt><trkpt lat="36.034527855474245" lon="-107.09019066578442"><ele>2197.0</ele><time>2026-05-03T16:55:37Z</time></trkpt><trkpt lat="36.034615368147676" lon="-107.09013974222573"><ele>2197.0</ele><time>2026-05-03T16:55:38Z</time></trkpt><trkpt lat="36.034731985944944" lon="-107.09005059764884"><ele>2197.0</ele><time>2026-05-03T16:55:39Z</time></trkpt><trkpt lat="36.03486234420632" lon="-107.08994358490555"><ele>2197.0</ele><time>2026-05-03T16:55:40Z</time></trkpt><trkpt lat="36.03498208248751" lon="-107.08984301676989"><ele>2197.0</ele><time>2026-05-03T16:55:41Z</time></trkpt><trkpt lat="36.03509481944784" lon="-107.08976931512207"><ele>2197.75</ele><time>2026-05-03T16:55:42Z</time></trkpt><trkpt lat="36.03518192765129" lon="-107.08970610389555"><ele>2198.5</ele><time>2026-05-03T16:55:43Z</time></trkpt><trkpt lat="36.03524498976021" lon="-107.08962253939622"><ele>2199.25</ele><time>2026-05-03T16:55:44Z</time></trkpt><trkpt lat="36.03528010066396" lon="-107.08947593539257"><ele>2200.0</ele><time>2026-05-03T16:55:45Z</time></trkpt><trkpt lat="36.03532046398784" lon="-107.08929005093127"><ele>2200.0</ele><time>2026-05-03T16:55:46Z</time></trkpt><trkpt lat="36.03536227186318" lon="-107.0891526971741"><ele>2200.0</ele><time>2026-05-03T16:55:47Z</time></trkpt><trkpt lat="36.03536500911777" lon="-107.08905064440549"><ele>2200.0</ele><time>2026-05-03T16:55:48Z</time></trkpt><trkpt lat="36.03532965948498" lon="-107.08889582784879"><ele>2200.0</ele><time>2026-05-03T16:55:49Z</time></trkpt><trkpt lat="36.03531107418603" lon="-107.08871040983355"><ele>2199.666666666667</ele><time>2026-05-03T16:55:50Z</time></trkpt><trkpt lat="36.03528483577973" lon="-107.08851840763468"><ele>2199.3333333333335</ele><time>2026-05-03T16:55:51Z</time></trkpt><trkpt lat="36.035250500038856" lon="-107.08832618215826"><ele>2199.0</ele><time>2026-05-03T16:55:52Z</time></trkpt><trkpt lat="36.03521954425979" lon="-107.08807383376563"><ele>2198.3333333333335</ele><time>2026-05-03T16:55:53Z</time></trkpt><trkpt lat="36.03515233539814" lon="-107.0878302293988"><ele>2197.666666666667</ele><time>2026-05-03T16:55:54Z</time></trkpt><trkpt lat="36.03511487387918" lon="-107.08764326444077"><ele>2197.0</ele><time>2026-05-03T16:55:55Z</time></trkpt><trkpt lat="36.03508138305946" lon="-107.08745325403734"><ele>2196.5</ele><time>2026-05-03T16:55:56Z</time></trkpt><trkpt lat="36.035071488831704" lon="-107.08729590743684"><ele>2196.0</ele><time>2026-05-03T16:55:57Z</time></trkpt><trkpt lat="36.035103589622985" lon="-107.08713443259487"><ele>2195.5</ele><time>2026-05-03T16:55:58Z</time></trkpt><trkpt lat="36.03512318968882" lon="-107.086999664621"><ele>2195.0</ele><time>2026-05-03T16:55:59Z</time></trkpt><trkpt lat="36.035083279329044" lon="-107.08685314783793"><ele>2195.0</ele><time>2026-05-03T16:56:00Z</time></trkpt><trkpt lat="36.03507651312412" lon="-107.08672214051124"><ele>2195.0</ele><time>2026-05-03T16:56:01Z</time></trkpt><trkpt lat="36.035093583531335" lon="-107.08658272737642"><ele>2195.0</ele><time>2026-05-03T16:56:02Z</time></trkpt><trkpt lat="36.035110138551616" lon="-107.08642969713489"><ele>2195.0</ele><time>2026-05-03T16:56:03Z</time></trkpt><trkpt lat="36.03512131234001" lon="-107.08627850428482"><ele>2194.75</ele><time>2026-05-03T16:56:04Z</time></trkpt><trkpt lat="36.03512548165984" lon="-107.08612575172498"><ele>2194.5</ele><time>2026-05-03T16:56:05Z</time></trkpt><trkpt lat="36.03513578491307" lon="-107.08595326365932"><ele>2194.25</ele><time>2026-05-03T16:56:06Z</time></trkpt><trkpt lat="36.03513360167683" lon="-107.08574595658507"><ele>2194.0</ele><time>2026-05-03T16:56:07Z</time></trkpt><trkpt lat="36.03513521682181" lon="-107.0855450267445"><ele>2193.3333333333335</ele><time>2026-05-03T16:56:08Z</time></trkpt><trkpt lat="36.035136651059446" lon="-107.08534062000186"><ele>2192.6666666666665</ele><time>2026-05-03T16:56:09Z</time></trkpt><trkpt lat="36.03514287044817" lon="-107.08513006715343"><ele>2192.0</ele><time>2026-05-03T16:56:10Z</time></trkpt><trkpt lat="36.03517345746493" lon="-107.08493664456867"><ele>2190.75</ele><time>2026-05-03T16:56:11Z</time></trkpt><trkpt lat="36.03519650880126" lon="-107.08475741964484"><ele>2189.5</ele><time>2026-05-03T16:56:12Z</time></trkpt><trkpt lat="36.03520733832802" lon="-107.08459206194844"><ele>2188.25</ele><time>2026-05-03T16:56:13Z</time></trkpt><trkpt lat="36.03520897518829" lon="-107.08443849851126"><ele>2187.0</ele><time>2026-05-03T16:56:14Z</time></trkpt><trkpt lat="36.035210266386976" lon="-107.08428240164712"><ele>2187.0</ele><time>2026-05-03T16:56:15Z</time></trkpt><trkpt lat="36.03520735250982" lon="-107.08412486829359"><ele>2187.0</ele><time>2026-05-03T16:56:16Z</time></trkpt><trkpt lat="36.03518745566463" lon="-107.08392249920314"><ele>2187.0</ele><time>2026-05-03T16:56:17Z</time></trkpt><trkpt lat="36.035185881230646" lon="-107.08370545511875"><ele>2185.6666666666665</ele><time>2026-05-03T16:56:18Z</time></trkpt><trkpt lat="36.03519222517955" lon="-107.08352035028368"><ele>2184.333333333333</ele><time>2026-05-03T16:56:19Z</time></trkpt><trkpt lat="36.03518737939284" lon="-107.08332863419302"><ele>2183.0</ele><time>2026-05-03T16:56:20Z</time></trkpt><trkpt lat="36.03517889193148" lon="-107.08310102365839"><ele>2181.75</ele><time>2026-05-03T16:56:21Z</time></trkpt><trkpt lat="36.03515452701591" lon="-107.08290097249501"><ele>2180.5</ele><time>2026-05-03T16:56:22Z</time></trkpt><trkpt lat="36.0351492227591" lon="-107.0827315859551"><ele>2179.25</ele><time>2026-05-03T16:56:23Z</time></trkpt><trkpt lat="36.0351451240836" lon="-107.08258725984787"><ele>2178.0</ele><time>2026-05-03T16:56:24Z</time></trkpt><trkpt lat="36.03515089652046" lon="-107.08248059802013"><ele>2177.6</ele><time>2026-05-03T16:56:25Z</time></trkpt><trkpt lat="36.03515629802053" lon="-107.08239263991052"><ele>2177.2000000000003</ele><time>2026-05-03T16:56:26Z</time></trkpt><trkpt lat="36.035080888193605" lon="-107.08233652554999"><ele>2176.8</ele><time>2026-05-03T16:56:28Z</time></trkpt><trkpt lat="36.03500073315355" lon="-107.08239136557034"><ele>2176.4</ele><time>2026-05-03T16:56:29Z</time></trkpt><trkpt lat="36.034890807406846" lon="-107.0824081780107"><ele>2176.0</ele><time>2026-05-03T16:56:30Z</time></trkpt><trkpt lat="36.034767483905355" lon="-107.0823667048861"><ele>2175.75</ele><time>2026-05-03T16:56:31Z</time></trkpt><trkpt lat="36.03463860583259" lon="-107.08234129418871"><ele>2175.5</ele><time>2026-05-03T16:56:32Z</time></trkpt><trkpt lat="36.03451664291419" lon="-107.0823401099136"><ele>2175.25</ele><time>2026-05-03T16:56:33Z</time></trkpt><trkpt lat="36.03440458927724" lon="-107.08236896522114"><ele>2175.0</ele><time>2026-05-03T16:56:34Z</time></trkpt><trkpt lat="36.0343255218793" lon="-107.08243757995596"><ele>2175.0</ele><time>2026-05-03T16:56:35Z</time></trkpt><trkpt lat="36.03424341311548" lon="-107.08252358317576"><ele>2175.0</ele><time>2026-05-03T16:56:36Z</time></trkpt><trkpt lat="36.034132960793514" lon="-107.08255363430376"><ele>2175.0</ele><time>2026-05-03T16:56:37Z</time></trkpt><trkpt lat="36.033995231337315" lon="-107.08252018279762"><ele>2175.0</ele><time>2026-05-03T16:56:38Z</time></trkpt><trkpt lat="36.03383766567893" lon="-107.08251999950012"><ele>2174.3333333333335</ele><time>2026-05-03T16:56:39Z</time></trkpt><trkpt lat="36.03367836275641" lon="-107.08248361933205"><ele>2173.666666666667</ele><time>2026-05-03T16:56:40Z</time></trkpt><trkpt lat="36.033526434776824" lon="-107.08244075194594"><ele>2173.0</ele><time>2026-05-03T16:56:41Z</time></trkpt><trkpt lat="36.033393602508106" lon="-107.08243112721468"><ele>2171.666666666667</ele><time>2026-05-03T16:56:42Z</time></trkpt><trkpt lat="36.0332171549983" lon="-107.082485260869"><ele>2170.3333333333335</ele><time>2026-05-03T16:56:43Z</time></trkpt><trkpt lat="36.03301906661767" lon="-107.08250352314359"><ele>2169.0</ele><time>2026-05-03T16:56:44Z</time></trkpt><trkpt lat="36.03282035943591" lon="-107.0824853821566"><ele>2169.0</ele><time>2026-05-03T16:56:45Z</time></trkpt><trkpt lat="36.0326526717183" lon="-107.08250090939404"><ele>2169.0</ele><time>2026-05-03T16:56:46Z</time></trkpt><trkpt lat="36.03245895730378" lon="-107.08252821446311"><ele>2169.0</ele><time>2026-05-03T16:56:47Z</time></trkpt><trkpt lat="36.032315607782344" lon="-107.08253646044501"><ele>2168.25</ele><time>2026-05-03T16:56:48Z</time></trkpt><trkpt lat="36.03218267459514" lon="-107.08251643353076"><ele>2167.5</ele><time>2026-05-03T16:56:49Z</time></trkpt><trkpt lat="36.03203260117636" lon="-107.08244826702813"><ele>2166.75</ele><time>2026-05-03T16:56:50Z</time></trkpt><trkpt lat="36.0318977918909" lon="-107.0824011514398"><ele>2166.0</ele><time>2026-05-03T16:56:51Z</time></trkpt><trkpt lat="36.03176526912633" lon="-107.08239821658717"><ele>2166.25</ele><time>2026-05-03T16:56:52Z</time></trkpt><trkpt lat="36.03161375943727" lon="-107.08236518937217"><ele>2166.5</ele><time>2026-05-03T16:56:53Z</time></trkpt><trkpt lat="36.031489587098385" lon="-107.08232705952155"><ele>2166.75</ele><time>2026-05-03T16:56:54Z</time></trkpt><trkpt lat="36.03134770131044" lon="-107.08231819627959"><ele>2167.0</ele><time>2026-05-03T16:56:55Z</time></trkpt><trkpt lat="36.03120518723843" lon="-107.0823040225431"><ele>2167.0</ele><time>2026-05-03T16:56:56Z</time></trkpt><trkpt lat="36.031068326853735" lon="-107.08227412153124"><ele>2167.0</ele><time>2026-05-03T16:56:57Z</time></trkpt><trkpt lat="36.030958131011424" lon="-107.08224959934962"><ele>2167.0</ele><time>2026-05-03T16:56:58Z</time></trkpt><trkpt lat="36.030844841393055" lon="-107.08224845071271"><ele>2167.0</ele><time>2026-05-03T16:56:59Z</time></trkpt><trkpt lat="36.030729823514264" lon="-107.08228598975128"><ele>2167.0</ele><time>2026-05-03T16:57:00Z</time></trkpt><trkpt lat="36.03061172288284" lon="-107.0822616576702"><ele>2167.0</ele><time>2026-05-03T16:57:01Z</time></trkpt><trkpt lat="36.03053962131172" lon="-107.08217796581589"><ele>2167.0</ele><time>2026-05-03T16:57:02Z</time></trkpt><trkpt lat="36.03049269777646" lon="-107.08206859141511"><ele>2167.0</ele><time>2026-05-03T16:57:03Z</time></trkpt><trkpt lat="36.03046354368028" lon="-107.08196707404029"><ele>2167.0</ele><time>2026-05-03T16:57:04Z</time></trkpt><trkpt lat="36.030401826667955" lon="-107.08193104367955"><ele>2167.0</ele><time>2026-05-03T16:57:05Z</time></trkpt><trkpt lat="36.03029426316886" lon="-107.08196224928858"><ele>2167.0</ele><time>2026-05-03T16:57:06Z</time></trkpt><trkpt lat="36.03018259070056" lon="-107.0819522443865"><ele>2167.0</ele><time>2026-05-03T16:57:07Z</time></trkpt><trkpt lat="36.03009592393711" lon="-107.08192081713092"><ele>2167.0</ele><time>2026-05-03T16:57:08Z</time></trkpt><trkpt lat="36.03002854216797" lon="-107.08188966669117"><ele>2167.0</ele><time>2026-05-03T16:57:09Z</time></trkpt><trkpt lat="36.029924513873986" lon="-107.0818823962613"><ele>2167.75</ele><time>2026-05-03T16:57:10Z</time></trkpt><trkpt lat="36.02980133772257" lon="-107.08186804872352"><ele>2168.5</ele><time>2026-05-03T16:57:11Z</time></trkpt><trkpt lat="36.02965472721871" lon="-107.08189507149503"><ele>2169.25</ele><time>2026-05-03T16:57:12Z</time></trkpt><trkpt lat="36.029482428445824" lon="-107.08192319980157"><ele>2170.0</ele><time>2026-05-03T16:57:13Z</time></trkpt><trkpt lat="36.02930318812041" lon="-107.08192294948707"><ele>2170.0</ele><time>2026-05-03T16:57:14Z</time></trkpt><trkpt lat="36.02910183146959" lon="-107.08189675535199"><ele>2170.0</ele><time>2026-05-03T16:57:15Z</time></trkpt><trkpt lat="36.02889244727032" lon="-107.08186294754326"><ele>2170.0</ele><time>2026-05-03T16:57:16Z</time></trkpt><trkpt lat="36.02867531563845" lon="-107.08180298373972"><ele>2170.0</ele><time>2026-05-03T16:57:17Z</time></trkpt><trkpt lat="36.028473277896424" lon="-107.08175344450837"><ele>2170.0</ele><time>2026-05-03T16:57:18Z</time></trkpt><trkpt lat="36.02827494487833" lon="-107.08173086347355"><ele>2170.0</ele><time>2026-05-03T16:57:19Z</time></trkpt><trkpt lat="36.028071017030726" lon="-107.0817214268058"><ele>2170.5</ele><time>2026-05-03T16:57:20Z</time></trkpt><trkpt lat="36.02789866724043" lon="-107.08168482140671"><ele>2171.0</ele><time>2026-05-03T16:57:21Z</time></trkpt><trkpt lat="36.02777241227526" lon="-107.0816313663095"><ele>2171.5</ele><time>2026-05-03T16:57:22Z</time></trkpt><trkpt lat="36.02767421877433" lon="-107.08155799319901"><ele>2172.0</ele><time>2026-05-03T16:57:23Z</time></trkpt><trkpt lat="36.02756494855773" lon="-107.08145999859457"><ele>2172.0</ele><time>2026-05-03T16:57:24Z</time></trkpt><trkpt lat="36.0274406137359" lon="-107.08132396335658"><ele>2172.0</ele><time>2026-05-03T16:57:25Z</time></trkpt><trkpt lat="36.027280609891505" lon="-107.08122416682126"><ele>2172.0</ele><time>2026-05-03T16:57:26Z</time></trkpt><trkpt lat="36.02712083820104" lon="-107.08113286954986"><ele>2172.0</ele><time>2026-05-03T16:57:27Z</time></trkpt><trkpt lat="36.02695923850123" lon="-107.081080174789"><ele>2172.0</ele><time>2026-05-03T16:57:27.999Z</time></trkpt><trkpt lat="36.026813597217206" lon="-107.0810634678434"><ele>2172.0</ele><time>2026-05-03T16:57:28.999Z</time></trkpt><trkpt lat="36.02668573117017" lon="-107.0810397357917"><ele>2172.0</ele><time>2026-05-03T16:57:29.999Z</time></trkpt><trkpt lat="36.026572791436905" lon="-107.08101700532784"><ele>2171.6666666666665</ele><time>2026-05-03T16:57:30.999Z</time></trkpt><trkpt lat="36.02643171451254" lon="-107.08097702159336"><ele>2171.333333333333</ele><time>2026-05-03T16:57:31.999Z</time></trkpt><trkpt lat="36.0262825962896" lon="-107.08093394020409"><ele>2171.0</ele><time>2026-05-03T16:57:32.999Z</time></trkpt><trkpt lat="36.02612930836569" lon="-107.08090744897537"><ele>2171.0</ele><time>2026-05-03T16:57:33.999Z</time></trkpt><trkpt lat="36.02598327807145" lon="-107.08091976827343"><ele>2171.0</ele><time>2026-05-03T16:57:34.999Z</time></trkpt><trkpt lat="36.0258612569722" lon="-107.08092303650967"><ele>2171.0</ele><time>2026-05-03T16:57:35.999Z</time></trkpt><trkpt lat="36.025743646672126" lon="-107.0808937532167"><ele>2171.0</ele><time>2026-05-03T16:57:36.999Z</time></trkpt><trkpt lat="36.0256259350646" lon="-107.0808847135166"><ele>2170.0</ele><time>2026-05-03T16:57:37.999Z</time></trkpt><trkpt lat="36.02548041144894" lon="-107.08088146100562"><ele>2169.0</ele><time>2026-05-03T16:57:38.999Z</time></trkpt><trkpt lat="36.025321048929925" lon="-107.08087772644116"><ele>2168.0</ele><time>2026-05-03T16:57:39.999Z</time></trkpt><trkpt lat="36.02514034578006" lon="-107.08085720130182"><ele>2167.6666666666665</ele><time>2026-05-03T16:57:40.999Z</time></trkpt><trkpt lat="36.02496614450467" lon="-107.08081754241"><ele>2167.3333333333335</ele><time>2026-05-03T16:57:41.999Z</time></trkpt><trkpt lat="36.024815953511364" lon="-107.08075357869849"><ele>2167.0</ele><time>2026-05-03T16:57:42.999Z</time></trkpt><trkpt lat="36.02466778577457" lon="-107.08071009491486"><ele>2168.3333333333335</ele><time>2026-05-03T16:57:43.999Z</time></trkpt><trkpt lat="36.02449440115556" lon="-107.08069824064745"><ele>2169.6666666666665</ele><time>2026-05-03T16:57:44.999Z</time></trkpt><trkpt lat="36.02433338190864" lon="-107.08069792933557"><ele>2171.0</ele><time>2026-05-03T16:57:45.999Z</time></trkpt><trkpt lat="36.02417421596304" lon="-107.0807086477955"><ele>2168.333333333333</ele><time>2026-05-03T16:57:46.999Z</time></trkpt><trkpt lat="36.02402730882961" lon="-107.08070856156544"><ele>2165.6666666666665</ele><time>2026-05-03T16:57:47.999Z</time></trkpt><trkpt lat="36.02387613633086" lon="-107.08069637058234"><ele>2163.0</ele><time>2026-05-03T16:57:48.999Z</time></trkpt><trkpt lat="36.023726311500084" lon="-107.0806509224776"><ele>2163.0</ele><time>2026-05-03T16:57:49.999Z</time></trkpt><trkpt lat="36.02358557603943" lon="-107.08060880850742"><ele>2163.0</ele><time>2026-05-03T16:57:50.999Z</time></trkpt><trkpt lat="36.02343511262976" lon="-107.08060605632217"><ele>2163.0</ele><time>2026-05-03T16:57:51.999Z</time></trkpt><trkpt lat="36.02327028045114" lon="-107.0806561628658"><ele>2161.5</ele><time>2026-05-03T16:57:52.999Z</time></trkpt><trkpt lat="36.02314927887235" lon="-107.08073627109344"><ele>2160.0</ele><time>2026-05-03T16:57:53.999Z</time></trkpt><trkpt lat="36.02300401701272" lon="-107.0808274699792"><ele>2158.5</ele><time>2026-05-03T16:57:54.999Z</time></trkpt><trkpt lat="36.022868237581925" lon="-107.08086122614056"><ele>2157.0</ele><time>2026-05-03T16:57:55.999Z</time></trkpt><trkpt lat="36.022735800329976" lon="-107.08087168366534"><ele>2157.0</ele><time>2026-05-03T16:57:56.999Z</time></trkpt><trkpt lat="36.02260340697162" lon="-107.08092242752389"><ele>2157.0</ele><time>2026-05-03T16:57:57.999Z</time></trkpt><trkpt lat="36.022464285210575" lon="-107.08098580283884"><ele>2157.0</ele><time>2026-05-03T16:57:58.999Z</time></trkpt><trkpt lat="36.0222988334641" lon="-107.08100690360176"><ele>2156.75</ele><time>2026-05-03T16:57:59.999Z</time></trkpt><trkpt lat="36.022139998268024" lon="-107.08102189700752"><ele>2156.5</ele><time>2026-05-03T16:58:00.999Z</time></trkpt><trkpt lat="36.02201238135103" lon="-107.08107752315915"><ele>2156.25</ele><time>2026-05-03T16:58:01.999Z</time></trkpt><trkpt lat="36.02188913928219" lon="-107.08110328643104"><ele>2156.0</ele><time>2026-05-03T16:58:02.999Z</time></trkpt><trkpt lat="36.02178628466843" lon="-107.08104813552247"><ele>2156.0</ele><time>2026-05-03T16:58:03.999Z</time></trkpt><trkpt lat="36.02167583649318" lon="-107.08096178903018"><ele>2156.0</ele><time>2026-05-03T16:58:04.999Z</time></trkpt><trkpt lat="36.02154238532791" lon="-107.08092549582821"><ele>2156.0</ele><time>2026-05-03T16:58:05.999Z</time></trkpt><trkpt lat="36.021405030446" lon="-107.08092056506027"><ele>2156.0</ele><time>2026-05-03T16:58:06.999Z</time></trkpt><trkpt lat="36.02125080018983" lon="-107.08096566618784"><ele>2156.333333333333</ele><time>2026-05-03T16:58:07.999Z</time></trkpt><trkpt lat="36.02108857622024" lon="-107.08101697470518"><ele>2156.6666666666665</ele><time>2026-05-03T16:58:08.999Z</time></trkpt><trkpt lat="36.02090704215117" lon="-107.08108021719814"><ele>2157.0</ele><time>2026-05-03T16:58:09.999Z</time></trkpt><trkpt lat="36.020709592089155" lon="-107.08113859489796"><ele>2157.6666666666665</ele><time>2026-05-03T16:58:10.999Z</time></trkpt><trkpt lat="36.02051965963062" lon="-107.08120298416759"><ele>2158.333333333333</ele><time>2026-05-03T16:58:11.999Z</time></trkpt><trkpt lat="36.02033590397868" lon="-107.08124868292956"><ele>2159.0</ele><time>2026-05-03T16:58:12.999Z</time></trkpt><trkpt lat="36.02012163211568" lon="-107.0813238573537"><ele>2158.6666666666665</ele><time>2026-05-03T16:58:13.999Z</time></trkpt><trkpt lat="36.01994338018086" lon="-107.08139114547637"><ele>2158.3333333333335</ele><time>2026-05-03T16:58:14.999Z</time></trkpt><trkpt lat="36.01974414710556" lon="-107.08144910787598"><ele>2158.0</ele><time>2026-05-03T16:58:15.999Z</time></trkpt><trkpt lat="36.01955104546595" lon="-107.08151000413962"><ele>2158.0</ele><time>2026-05-03T16:58:16.999Z</time></trkpt><trkpt lat="36.019391005971855" lon="-107.08156667808447"><ele>2158.0</ele><time>2026-05-03T16:58:17.999Z</time></trkpt><trkpt lat="36.019262892795425" lon="-107.08155413020467"><ele>2158.0</ele><time>2026-05-03T16:58:18.999Z</time></trkpt><trkpt lat="36.019136328151255" lon="-107.08153367169005"><ele>2158.0</ele><time>2026-05-03T16:58:19.999Z</time></trkpt><trkpt lat="36.018970741149694" lon="-107.08152419503512"><ele>2158.666666666667</ele><time>2026-05-03T16:58:20.999Z</time></trkpt><trkpt lat="36.01879702282297" lon="-107.08153964472697"><ele>2159.3333333333335</ele><time>2026-05-03T16:58:21.999Z</time></trkpt><trkpt lat="36.01861778426731" lon="-107.0815548725744"><ele>2160.0</ele><time>2026-05-03T16:58:22.999Z</time></trkpt><trkpt lat="36.018436940531025" lon="-107.08159538629982"><ele>2161.0</ele><time>2026-05-03T16:58:23.999Z</time></trkpt><trkpt lat="36.01828300488665" lon="-107.08160445658982"><ele>2162.0</ele><time>2026-05-03T16:58:24.999Z</time></trkpt><trkpt lat="36.0181483464663" lon="-107.08159947247007"><ele>2163.0</ele><time>2026-05-03T16:58:25.999Z</time></trkpt><trkpt lat="36.018039378833684" lon="-107.08159487990321"><ele>2164.0</ele><time>2026-05-03T16:58:26.999Z</time></trkpt><trkpt lat="36.01795568239427" lon="-107.08157635882951"><ele>2164.2</ele><time>2026-05-03T16:58:27.999Z</time></trkpt><trkpt lat="36.017896033406906" lon="-107.08153856103358"><ele>2164.4</ele><time>2026-05-03T16:58:28.999Z</time></trkpt><trkpt lat="36.017865413460626" lon="-107.08145147923365"><ele>2164.6</ele><time>2026-05-03T16:58:29.999Z</time></trkpt><trkpt lat="36.01785824877772" lon="-107.08131094890908"><ele>2164.8</ele><time>2026-05-03T16:58:30.999Z</time></trkpt><trkpt lat="36.017888633335694" lon="-107.08113283486665"><ele>2165.0</ele><time>2026-05-03T16:58:31.999Z</time></trkpt><trkpt lat="36.01795167815284" lon="-107.08097668145908"><ele>2165.0</ele><time>2026-05-03T16:58:32.999Z</time></trkpt><trkpt lat="36.0180129544483" lon="-107.08080809287243"><ele>2165.0</ele><time>2026-05-03T16:58:33.999Z</time></trkpt><trkpt lat="36.018055482642076" lon="-107.0806229215653"><ele>2165.0</ele><time>2026-05-03T16:58:34.999Z</time></trkpt><trkpt lat="36.01808808310353" lon="-107.08040920431158"><ele>2166.6666666666665</ele><time>2026-05-03T16:58:35.999Z</time></trkpt><trkpt lat="36.018132005608315" lon="-107.08017838754236"><ele>2168.3333333333335</ele><time>2026-05-03T16:58:36.999Z</time></trkpt><trkpt lat="36.018184662870055" lon="-107.0799700708654"><ele>2170.0</ele><time>2026-05-03T16:58:37.999Z</time></trkpt><trkpt lat="36.01823034859239" lon="-107.07978974172926"><ele>2170.166666666667</ele><time>2026-05-03T16:58:38.999Z</time></trkpt><trkpt lat="36.01823294961136" lon="-107.07968194677733"><ele>2170.3333333333335</ele><time>2026-05-03T16:58:39.999Z</time></trkpt><trkpt lat="36.01821642377843" lon="-107.07957267466529"><ele>2170.5</ele><time>2026-05-03T16:58:41.999Z</time></trkpt><trkpt lat="36.01810693409918" lon="-107.07962046241947"><ele>2170.6666666666665</ele><time>2026-05-03T16:58:43.999Z</time></trkpt><trkpt lat="36.018026946915214" lon="-107.07963245256516"><ele>2170.833333333333</ele><time>2026-05-03T16:58:44.999Z</time></trkpt><trkpt lat="36.01796316486177" lon="-107.07960443813052"><ele>2171.0</ele><time>2026-05-03T16:58:47Z</time></trkpt><trkpt lat="36.01790279880757" lon="-107.07953687771011"><ele>2171.0</ele><time>2026-05-03T16:58:48Z</time></trkpt><trkpt lat="36.017814774916936" lon="-107.07951482063406"><ele>2171.0</ele><time>2026-05-03T16:58:49Z</time></trkpt><trkpt lat="36.01771259441641" lon="-107.07946636108734"><ele>2171.0</ele><time>2026-05-03T16:58:50Z</time></trkpt><trkpt lat="36.017603779014685" lon="-107.0794146019827"><ele>2171.0</ele><time>2026-05-03T16:58:51Z</time></trkpt><trkpt lat="36.01747197164058" lon="-107.07938283554707"><ele>2172.6</ele><time>2026-05-03T16:58:52Z</time></trkpt><trkpt lat="36.01737927849388" lon="-107.07937929371279"><ele>2174.2</ele><time>2026-05-03T16:58:53Z</time></trkpt><trkpt lat="36.01729531913148" lon="-107.07931942895107"><ele>2175.8</ele><time>2026-05-03T16:58:54Z</time></trkpt><trkpt lat="36.01724890647983" lon="-107.07921169866616"><ele>2177.4</ele><time>2026-05-03T16:58:55Z</time></trkpt><trkpt lat="36.0171854587844" lon="-107.07910300662553"><ele>2179.0</ele><time>2026-05-03T16:58:56Z</time></trkpt><trkpt lat="36.01707833809747" lon="-107.07904445826324"><ele>2179.0</ele><time>2026-05-03T16:58:57Z</time></trkpt><trkpt lat="36.016973651260024" lon="-107.07902428304797"><ele>2179.0</ele><time>2026-05-03T16:58:58Z</time></trkpt><trkpt lat="36.01690074713092" lon="-107.0790649586579"><ele>2179.0</ele><time>2026-05-03T16:58:59Z</time></trkpt><trkpt lat="36.01686887215968" lon="-107.07918467946389"><ele>2179.0</ele><time>2026-05-03T16:59:00Z</time></trkpt><trkpt lat="36.0168256755946" lon="-107.07927906795146"><ele>2179.0</ele><time>2026-05-03T16:59:01Z</time></trkpt><trkpt lat="36.01674200530712" lon="-107.07935617879329"><ele>2179.0</ele><time>2026-05-03T16:59:02Z</time></trkpt><trkpt lat="36.016653582635556" lon="-107.07938622937178"><ele>2179.0</ele><time>2026-05-03T16:59:03Z</time></trkpt><trkpt lat="36.01653400941033" lon="-107.07938852215474"><ele>2179.0</ele><time>2026-05-03T16:59:04Z</time></trkpt><trkpt lat="36.0164279409289" lon="-107.07940907389253"><ele>2179.0</ele><time>2026-05-03T16:59:05Z</time></trkpt><trkpt lat="36.01627959958057" lon="-107.07946229958749"><ele>2179.5</ele><time>2026-05-03T16:59:06Z</time></trkpt><trkpt lat="36.01615601928438" lon="-107.07949559344277"><ele>2180.0</ele><time>2026-05-03T16:59:07Z</time></trkpt><trkpt lat="36.01604437778723" lon="-107.07953682619103"><ele>2180.5</ele><time>2026-05-03T16:59:08Z</time></trkpt><trkpt lat="36.01593489064332" lon="-107.07958377024079"><ele>2181.0</ele><time>2026-05-03T16:59:09Z</time></trkpt><trkpt lat="36.01580853825428" lon="-107.07965634584006"><ele>2181.0</ele><time>2026-05-03T16:59:10Z</time></trkpt><trkpt lat="36.01565227556502" lon="-107.0796377022927"><ele>2181.0</ele><time>2026-05-03T16:59:11Z</time></trkpt><trkpt lat="36.01552126735429" lon="-107.07961915472134"><ele>2181.0</ele><time>2026-05-03T16:59:12Z</time></trkpt><trkpt lat="36.01543214594252" lon="-107.0795659916335"><ele>2181.0</ele><time>2026-05-03T16:59:13Z</time></trkpt><trkpt lat="36.01538921059263" lon="-107.0794668807557"><ele>2181.0</ele><time>2026-05-03T16:59:14Z</time></trkpt><trkpt lat="36.01537065428243" lon="-107.07930363815834"><ele>2181.0</ele><time>2026-05-03T16:59:15Z</time></trkpt><trkpt lat="36.01532975712919" lon="-107.07912943271732"><ele>2181.0</ele><time>2026-05-03T16:59:16Z</time></trkpt><trkpt lat="36.01524706580376" lon="-107.07896941502294"><ele>2181.0</ele><time>2026-05-03T16:59:17Z</time></trkpt><trkpt lat="36.015229613727826" lon="-107.07884296485301"><ele>2182.4</ele><time>2026-05-03T16:59:18Z</time></trkpt><trkpt lat="36.015267370891024" lon="-107.07876465744218"><ele>2183.8</ele><time>2026-05-03T16:59:19Z</time></trkpt><trkpt lat="36.015341955696954" lon="-107.0786299400194"><ele>2185.2000000000003</ele><time>2026-05-03T16:59:20Z</time></trkpt><trkpt lat="36.01535948379572" lon="-107.07846104582113"><ele>2186.6</ele><time>2026-05-03T16:59:21Z</time></trkpt><trkpt lat="36.015369022313266" lon="-107.07833791415004"><ele>2188.0</ele><time>2026-05-03T16:59:22Z</time></trkpt><trkpt lat="36.01541751224472" lon="-107.07826178817871"><ele>2189.5</ele><time>2026-05-03T16:59:23Z</time></trkpt><trkpt lat="36.0154905839449" lon="-107.07818832538182"><ele>2191.0</ele><time>2026-05-03T16:59:24Z</time></trkpt><trkpt lat="36.015535177644814" lon="-107.0780593197087"><ele>2192.5</ele><time>2026-05-03T16:59:25Z</time></trkpt><trkpt lat="36.01549505153805" lon="-107.07791413307719"><ele>2194.0</ele><time>2026-05-03T16:59:26Z</time></trkpt><trkpt lat="36.01542825026078" lon="-107.07779373778061"><ele>2194.0</ele><time>2026-05-03T16:59:27Z</time></trkpt><trkpt lat="36.01538902400198" lon="-107.07769017932128"><ele>2194.0</ele><time>2026-05-03T16:59:27.999Z</time></trkpt><trkpt lat="36.01541610414569" lon="-107.07760688260143"><ele>2194.0</ele><time>2026-05-03T16:59:28.999Z</time></trkpt><trkpt lat="36.0154961998918" lon="-107.07751100361324"><ele>2194.0</ele><time>2026-05-03T16:59:29.999Z</time></trkpt><trkpt lat="36.01559027772776" lon="-107.07742620278594"><ele>2194.0</ele><time>2026-05-03T16:59:30.999Z</time></trkpt><trkpt lat="36.01579558839518" lon="-107.0775274531939"><ele>2194.6</ele><time>2026-05-03T16:59:32.999Z</time></trkpt><trkpt lat="36.015869291001394" lon="-107.07750078113476"><ele>2195.2</ele><time>2026-05-03T16:59:33.999Z</time></trkpt><trkpt lat="36.01591679579496" lon="-107.07740057820611"><ele>2195.7999999999997</ele><time>2026-05-03T16:59:34.999Z</time></trkpt><trkpt lat="36.01599283852274" lon="-107.07726356513888"><ele>2196.4</ele><time>2026-05-03T16:59:35.999Z</time></trkpt><trkpt lat="36.01607073842072" lon="-107.07716336347187"><ele>2197.0</ele><time>2026-05-03T16:59:36.999Z</time></trkpt><trkpt lat="36.016118425827926" lon="-107.07700841751856"><ele>2197.4</ele><time>2026-05-03T16:59:37.999Z</time></trkpt><trkpt lat="36.01615825652004" lon="-107.07684763414017"><ele>2197.7999999999997</ele><time>2026-05-03T16:59:38.999Z</time></trkpt><trkpt lat="36.016217273429675" lon="-107.07675931593853"><ele>2198.2</ele><time>2026-05-03T16:59:39.999Z</time></trkpt><trkpt lat="36.01611736642569" lon="-107.07674555767352"><ele>2198.6</ele><time>2026-05-03T16:59:49.999Z</time></trkpt><trkpt lat="36.016056775665895" lon="-107.07670155598164"><ele>2199.0</ele><time>2026-05-03T16:59:51.999Z</time></trkpt><trkpt lat="36.01567144634638" lon="-107.0764216469785"><ele>2199.0</ele><time>2026-05-03T16:59:53.999Z</time></trkpt><trkpt lat="36.01551578811792" lon="-107.07637175204017"><ele>2199.0</ele><time>2026-05-03T16:59:54.999Z</time></trkpt><trkpt lat="36.01538544257271" lon="-107.07631447790054"><ele>2199.0</ele><time>2026-05-03T16:59:55.999Z</time></trkpt><trkpt lat="36.01520632993588" lon="-107.07626112923049"><ele>2199.0</ele><time>2026-05-03T16:59:56.999Z</time></trkpt><trkpt lat="36.01506411056145" lon="-107.07621610170987"><ele>2199.0</ele><time>2026-05-03T16:59:57.999Z</time></trkpt><trkpt lat="36.0148780301321" lon="-107.07617655957931"><ele>2199.0</ele><time>2026-05-03T16:59:58.999Z</time></trkpt><trkpt lat="36.01474804643421" lon="-107.07613207721737"><ele>2199.0</ele><time>2026-05-03T16:59:59.999Z</time></trkpt><trkpt lat="36.01462659953575" lon="-107.07607764403936"><ele>2199.0</ele><time>2026-05-03T17:00:00.999Z</time></trkpt><trkpt lat="36.01452448495821" lon="-107.07599176838038"><ele>2199.0</ele><time>2026-05-03T17:00:01.999Z</time></trkpt><trkpt lat="36.014440251822975" lon="-107.0759032552895"><ele>2199.0</ele><time>2026-05-03T17:00:02.999Z</time></trkpt><trkpt lat="36.01439505938518" lon="-107.07580198363678"><ele>2198.6</ele><time>2026-05-03T17:00:03.999Z</time></trkpt><trkpt lat="36.014386324195684" lon="-107.07571480317705"><ele>2198.2</ele><time>2026-05-03T17:00:04.999Z</time></trkpt><trkpt lat="36.01445888656722" lon="-107.07557446769921"><ele>2197.7999999999997</ele><time>2026-05-03T17:00:05.999Z</time></trkpt><trkpt lat="36.01449880628551" lon="-107.07546686893794"><ele>2197.4</ele><time>2026-05-03T17:00:07.999Z</time></trkpt><trkpt lat="36.01455752934242" lon="-107.07530529014038"><ele>2197.0</ele><time>2026-05-03T17:00:09.999Z</time></trkpt><trkpt lat="36.01464597862374" lon="-107.07519821717173"><ele>2197.0</ele><time>2026-05-03T17:00:10.999Z</time></trkpt><trkpt lat="36.01476855646112" lon="-107.07505075566236"><ele>2197.0</ele><time>2026-05-03T17:00:11.999Z</time></trkpt><trkpt lat="36.015569228288705" lon="-107.07445512161529"><ele>2196.0</ele><time>2026-05-03T17:00:12.999Z</time></trkpt><trkpt lat="36.015662037983134" lon="-107.0742979432876"><ele>2195.0</ele><time>2026-05-03T17:00:13.999Z</time></trkpt><trkpt lat="36.015788124649255" lon="-107.07412021197648"><ele>2194.0</ele><time>2026-05-03T17:00:14.999Z</time></trkpt><trkpt lat="36.01591624090882" lon="-107.07392529948946"><ele>2194.0</ele><time>2026-05-03T17:00:15.999Z</time></trkpt><trkpt lat="36.01605838796061" lon="-107.07373979101504"><ele>2194.0</ele><time>2026-05-03T17:00:16.999Z</time></trkpt><trkpt lat="36.0161922766082" lon="-107.07355738114427"><ele>2194.0</ele><time>2026-05-03T17:00:17.999Z</time></trkpt><trkpt lat="36.01629740926278" lon="-107.07342122795002"><ele>2195.0</ele><time>2026-05-03T17:00:18.999Z</time></trkpt><trkpt lat="36.016390551469016" lon="-107.07326205297112"><ele>2196.0</ele><time>2026-05-03T17:00:19.999Z</time></trkpt><trkpt lat="36.01648717185104" lon="-107.07310010222693"><ele>2197.0</ele><time>2026-05-03T17:00:20.999Z</time></trkpt><trkpt lat="36.016599832050666" lon="-107.07292545680441"><ele>2194.3333333333335</ele><time>2026-05-03T17:00:21.999Z</time></trkpt><trkpt lat="36.016705934205994" lon="-107.07276791578501"><ele>2191.6666666666665</ele><time>2026-05-03T17:00:22.999Z</time></trkpt><trkpt lat="36.01679123230032" lon="-107.07262751836969"><ele>2189.0</ele><time>2026-05-03T17:00:23.999Z</time></trkpt><trkpt lat="36.01688221080654" lon="-107.07246983583072"><ele>2189.75</ele><time>2026-05-03T17:00:24.999Z</time></trkpt><trkpt lat="36.0169896099273" lon="-107.07232296272252"><ele>2190.5</ele><time>2026-05-03T17:00:25.999Z</time></trkpt><trkpt lat="36.01707295742687" lon="-107.07221552300652"><ele>2191.25</ele><time>2026-05-03T17:00:26.999Z</time></trkpt><trkpt lat="36.017158558800254" lon="-107.0721002372202"><ele>2192.0</ele><time>2026-05-03T17:00:27.999Z</time></trkpt><trkpt lat="36.01723091588242" lon="-107.07197556151846"><ele>2192.0</ele><time>2026-05-03T17:00:28.999Z</time></trkpt><trkpt lat="36.017302423204086" lon="-107.07185513271693"><ele>2192.0</ele><time>2026-05-03T17:00:29.999Z</time></trkpt><trkpt lat="36.017389297838804" lon="-107.07172220644705"><ele>2192.0</ele><time>2026-05-03T17:00:30.999Z</time></trkpt><trkpt lat="36.01749071819768" lon="-107.07157047498713"><ele>2192.0</ele><time>2026-05-03T17:00:31.999Z</time></trkpt><trkpt lat="36.01760330544017" lon="-107.07141428606808"><ele>2190.6</ele><time>2026-05-03T17:00:32.999Z</time></trkpt><trkpt lat="36.01768372239524" lon="-107.07127465633387"><ele>2189.2</ele><time>2026-05-03T17:00:33.999Z</time></trkpt><trkpt lat="36.01774710899831" lon="-107.07116844686605"><ele>2187.8</ele><time>2026-05-03T17:00:34.999Z</time></trkpt><trkpt lat="36.017811360558014" lon="-107.07108814615513"><ele>2186.4</ele><time>2026-05-03T17:00:35.999Z</time></trkpt><trkpt lat="36.01787331041992" lon="-107.07100001097048"><ele>2185.0</ele><time>2026-05-03T17:00:36.999Z</time></trkpt><trkpt lat="36.01795403958846" lon="-107.07087516491396"><ele>2184.25</ele><time>2026-05-03T17:00:37.999Z</time></trkpt><trkpt lat="36.01803458917763" lon="-107.07074594179616"><ele>2183.5</ele><time>2026-05-03T17:00:38.999Z</time></trkpt><trkpt lat="36.01811699152089" lon="-107.07062489785012"><ele>2182.75</ele><time>2026-05-03T17:00:39.999Z</time></trkpt><trkpt lat="36.018194362995324" lon="-107.07051001714048"><ele>2182.0</ele><time>2026-05-03T17:00:40.999Z</time></trkpt><trkpt lat="36.01825284606131" lon="-107.07040148896846"><ele>2181.75</ele><time>2026-05-03T17:00:41.999Z</time></trkpt><trkpt lat="36.01833129226386" lon="-107.07028759509447"><ele>2181.5</ele><time>2026-05-03T17:00:42.999Z</time></trkpt><trkpt lat="36.01842389791464" lon="-107.07016210086788"><ele>2181.25</ele><time>2026-05-03T17:00:43.999Z</time></trkpt><trkpt lat="36.018498347009874" lon="-107.07003004191424"><ele>2181.0</ele><time>2026-05-03T17:00:44.999Z</time></trkpt><trkpt lat="36.01858429342465" lon="-107.06990329673637"><ele>2180.0</ele><time>2026-05-03T17:00:45.999Z</time></trkpt><trkpt lat="36.01867816888702" lon="-107.06977357681978"><ele>2179.0</ele><time>2026-05-03T17:00:46.999Z</time></trkpt><trkpt lat="36.01877733248952" lon="-107.06965812665341"><ele>2178.0</ele><time>2026-05-03T17:00:47.999Z</time></trkpt><trkpt lat="36.018856342207755" lon="-107.06955269960537"><ele>2177.0</ele><time>2026-05-03T17:00:48.999Z</time></trkpt><trkpt lat="36.018927976362704" lon="-107.06945718742571"><ele>2177.0</ele><time>2026-05-03T17:00:49.999Z</time></trkpt><trkpt lat="36.01899428051902" lon="-107.06938193567314"><ele>2177.0</ele><time>2026-05-03T17:00:50.999Z</time></trkpt><trkpt lat="36.01905365588785" lon="-107.06932087145887"><ele>2177.0</ele><time>2026-05-03T17:00:51.999Z</time></trkpt><trkpt lat="36.019117519331026" lon="-107.06928716903867"><ele>2177.0</ele><time>2026-05-03T17:00:53Z</time></trkpt><trkpt lat="36.01919747502745" lon="-107.06931431673911"><ele>2177.0</ele><time>2026-05-03T17:00:54Z</time></trkpt><trkpt lat="36.019315481029054" lon="-107.069355325733"><ele>2177.0</ele><time>2026-05-03T17:00:55Z</time></trkpt><trkpt lat="36.0194543562589" lon="-107.06937898151405"><ele>2176.5</ele><time>2026-05-03T17:00:56Z</time></trkpt><trkpt lat="36.01955785948544" lon="-107.06941824601762"><ele>2176.0</ele><time>2026-05-03T17:00:57Z</time></trkpt><trkpt lat="36.01968755716075" lon="-107.06946750051463"><ele>2175.5</ele><time>2026-05-03T17:00:58Z</time></trkpt><trkpt lat="36.01983286676764" lon="-107.06953200853427"><ele>2175.0</ele><time>2026-05-03T17:00:59Z</time></trkpt><trkpt lat="36.01996993619309" lon="-107.06962560150026"><ele>2174.4</ele><time>2026-05-03T17:01:00Z</time></trkpt><trkpt lat="36.0200568363137" lon="-107.06967609605154"><ele>2173.8</ele><time>2026-05-03T17:01:01Z</time></trkpt><trkpt lat="36.02013340017017" lon="-107.06973211847635"><ele>2173.2</ele><time>2026-05-03T17:01:02Z</time></trkpt><trkpt lat="36.02019277507749" lon="-107.06980999832388"><ele>2172.6</ele><time>2026-05-03T17:01:03Z</time></trkpt><trkpt lat="36.020171822622636" lon="-107.06991389558333"><ele>2172.0</ele><time>2026-05-03T17:01:04Z</time></trkpt><trkpt lat="36.020130644883196" lon="-107.07003674739967"><ele>2171.75</ele><time>2026-05-03T17:01:05Z</time></trkpt><trkpt lat="36.02011151092217" lon="-107.07017579135169"><ele>2171.5</ele><time>2026-05-03T17:01:06Z</time></trkpt><trkpt lat="36.020100539267" lon="-107.07031172849406"><ele>2171.25</ele><time>2026-05-03T17:01:07Z</time></trkpt><trkpt lat="36.020051174853236" lon="-107.0704620946998"><ele>2171.0</ele><time>2026-05-03T17:01:08Z</time></trkpt><trkpt lat="36.020010215516855" lon="-107.07058249907566"><ele>2171.6</ele><time>2026-05-03T17:01:09Z</time></trkpt><trkpt lat="36.01993889266597" lon="-107.07067425946876"><ele>2172.2</ele><time>2026-05-03T17:01:10Z</time></trkpt><trkpt lat="36.01984212070202" lon="-107.07075108067092"><ele>2172.8</ele><time>2026-05-03T17:01:11Z</time></trkpt><trkpt lat="36.01976795438105" lon="-107.07085075268337"><ele>2173.4</ele><time>2026-05-03T17:01:12Z</time></trkpt><trkpt lat="36.01974046761106" lon="-107.07095353330622"><ele>2174.0</ele><time>2026-05-03T17:01:13Z</time></trkpt><trkpt lat="36.01970861409485" lon="-107.07109246506802"><ele>2174.0</ele><time>2026-05-03T17:01:14Z</time></trkpt><trkpt lat="36.01965904323265" lon="-107.07121728596658"><ele>2174.0</ele><time>2026-05-03T17:01:15Z</time></trkpt><trkpt lat="36.01960143403251" lon="-107.07131282222386"><ele>2174.0</ele><time>2026-05-03T17:01:16Z</time></trkpt><trkpt lat="36.019527026315245" lon="-107.07142158203708"><ele>2174.0</ele><time>2026-05-03T17:01:17Z</time></trkpt><trkpt lat="36.01949347468728" lon="-107.07151384945809"><ele>2174.0</ele><time>2026-05-03T17:01:18Z</time></trkpt><trkpt lat="36.01952369812479" lon="-107.07162163401424"><ele>2173.8</ele><time>2026-05-03T17:01:19Z</time></trkpt><trkpt lat="36.01958578005507" lon="-107.07173797160347"><ele>2173.6000000000004</ele><time>2026-05-03T17:01:20Z</time></trkpt><trkpt lat="36.019641834912484" lon="-107.07185573360096"><ele>2173.4</ele><time>2026-05-03T17:01:21Z</time></trkpt><trkpt lat="36.01966965700127" lon="-107.07194530893422"><ele>2173.2000000000003</ele><time>2026-05-03T17:01:22Z</time></trkpt><trkpt lat="36.01964431582478" lon="-107.07205720595704"><ele>2173.0</ele><time>2026-05-03T17:01:23Z</time></trkpt><trkpt lat="36.01958759380422" lon="-107.07219330138983"><ele>2173.0</ele><time>2026-05-03T17:01:24Z</time></trkpt><trkpt lat="36.01953280614846" lon="-107.0723166515769"><ele>2173.0</ele><time>2026-05-03T17:01:25Z</time></trkpt><trkpt lat="36.01948230097863" lon="-107.0723991417301"><ele>2173.0</ele><time>2026-05-03T17:01:26Z</time></trkpt><trkpt lat="36.019377876902695" lon="-107.07252654723365"><ele>2173.0</ele><time>2026-05-03T17:01:27Z</time></trkpt><trkpt lat="36.019318197635435" lon="-107.07264764269024"><ele>2172.25</ele><time>2026-05-03T17:01:28Z</time></trkpt><trkpt lat="36.019277367406524" lon="-107.07280988429692"><ele>2171.5</ele><time>2026-05-03T17:01:29Z</time></trkpt><trkpt lat="36.01922084136829" lon="-107.0729931581112"><ele>2170.75</ele><time>2026-05-03T17:01:30Z</time></trkpt><trkpt lat="36.019168496112016" lon="-107.0731665475079"><ele>2170.0</ele><time>2026-05-03T17:01:31Z</time></trkpt><trkpt lat="36.019146107889156" lon="-107.07334352518104"><ele>2173.25</ele><time>2026-05-03T17:01:32Z</time></trkpt><trkpt lat="36.01911388817768" lon="-107.0734984848582"><ele>2176.5</ele><time>2026-05-03T17:01:33Z</time></trkpt><trkpt lat="36.019079972442654" lon="-107.07364356047147"><ele>2179.75</ele><time>2026-05-03T17:01:34Z</time></trkpt><trkpt lat="36.019042052379504" lon="-107.0737732061298"><ele>2183.0</ele><time>2026-05-03T17:01:35Z</time></trkpt><trkpt lat="36.01897296485999" lon="-107.07388025468394"><ele>2183.0</ele><time>2026-05-03T17:01:36Z</time></trkpt><trkpt lat="36.01891203253178" lon="-107.07398837088957"><ele>2183.0</ele><time>2026-05-03T17:01:37Z</time></trkpt><trkpt lat="36.01891222933835" lon="-107.0740922312318"><ele>2183.0</ele><time>2026-05-03T17:01:38Z</time></trkpt><trkpt lat="36.01892592569651" lon="-107.07422960534497"><ele>2183.0</ele><time>2026-05-03T17:01:39Z</time></trkpt><trkpt lat="36.01895536601407" lon="-107.0743849852801"><ele>2183.0</ele><time>2026-05-03T17:01:40Z</time></trkpt><trkpt lat="36.018984182065424" lon="-107.07453372126506"><ele>2181.0</ele><time>2026-05-03T17:01:40.999Z</time></trkpt><trkpt lat="36.01901898089596" lon="-107.07464345303643"><ele>2179.0</ele><time>2026-05-03T17:01:41.999Z</time></trkpt><trkpt lat="36.01908287950462" lon="-107.0747201838692"><ele>2177.0</ele><time>2026-05-03T17:01:42.999Z</time></trkpt><trkpt lat="36.019197162607455" lon="-107.07479217615955"><ele>2175.0</ele><time>2026-05-03T17:01:43.999Z</time></trkpt><trkpt lat="36.019325999154454" lon="-107.07488523399618"><ele>2169.0</ele><time>2026-05-03T17:01:44.999Z</time></trkpt><trkpt lat="36.01942937955107" lon="-107.0750199212798"><ele>2163.0</ele><time>2026-05-03T17:01:45.999Z</time></trkpt><trkpt lat="36.01953762354969" lon="-107.0751272406966"><ele>2157.0</ele><time>2026-05-03T17:01:46.999Z</time></trkpt><trkpt lat="36.01969496777033" lon="-107.07521868797191"><ele>2157.0</ele><time>2026-05-03T17:01:47.999Z</time></trkpt><trkpt lat="36.01980629707024" lon="-107.07534039377288"><ele>2157.0</ele><time>2026-05-03T17:01:48.999Z</time></trkpt><trkpt lat="36.01989837855506" lon="-107.07544833765475"><ele>2157.0</ele><time>2026-05-03T17:01:49.999Z</time></trkpt><trkpt lat="36.01998632308085" lon="-107.07551158443736"><ele>2157.0</ele><time>2026-05-03T17:01:50.999Z</time></trkpt><trkpt lat="36.020104425923996" lon="-107.07554672542804"><ele>2154.6666666666665</ele><time>2026-05-03T17:01:51.999Z</time></trkpt><trkpt lat="36.020261228984964" lon="-107.07555063089107"><ele>2152.333333333333</ele><time>2026-05-03T17:01:52.999Z</time></trkpt><trkpt lat="36.020434857265585" lon="-107.07556500569319"><ele>2150.0</ele><time>2026-05-03T17:01:53.999Z</time></trkpt><trkpt lat="36.02061979399294" lon="-107.07559564852718"><ele>2150.0</ele><time>2026-05-03T17:01:54.999Z</time></trkpt><trkpt lat="36.02079916051579" lon="-107.07563744234935"><ele>2150.0</ele><time>2026-05-03T17:01:55.999Z</time></trkpt><trkpt lat="36.02098781651251" lon="-107.07569073426744"><ele>2150.0</ele><time>2026-05-03T17:01:56.999Z</time></trkpt><trkpt lat="36.02120616778451" lon="-107.07574099696429"><ele>2150.6666666666665</ele><time>2026-05-03T17:01:57.999Z</time></trkpt><trkpt lat="36.0213853462594" lon="-107.07578697051082"><ele>2151.3333333333335</ele><time>2026-05-03T17:01:58.999Z</time></trkpt><trkpt lat="36.02153006671804" lon="-107.07582929338734"><ele>2152.0</ele><time>2026-05-03T17:01:59.999Z</time></trkpt><trkpt lat="36.021662702613334" lon="-107.0758722092693"><ele>2153.2</ele><time>2026-05-03T17:02:00.999Z</time></trkpt><trkpt lat="36.02177457780359" lon="-107.0759088767645"><ele>2154.3999999999996</ele><time>2026-05-03T17:02:01.999Z</time></trkpt><trkpt lat="36.02186962931611" lon="-107.07595005011643"><ele>2155.6000000000004</ele><time>2026-05-03T17:02:02.999Z</time></trkpt><trkpt lat="36.021952143730516" lon="-107.07595746503384"><ele>2156.8</ele><time>2026-05-03T17:02:03.999Z</time></trkpt><trkpt lat="36.022011079729886" lon="-107.07581412502765"><ele>2158.0</ele><time>2026-05-03T17:02:05.999Z</time></trkpt><trkpt lat="36.02202045681248" lon="-107.07569409701696"><ele>2158.0</ele><time>2026-05-03T17:02:06.999Z</time></trkpt><trkpt lat="36.022065584480195" lon="-107.07556361940688"><ele>2158.0</ele><time>2026-05-03T17:02:07.999Z</time></trkpt><trkpt lat="36.02210538385954" lon="-107.0754345466362"><ele>2158.0</ele><time>2026-05-03T17:02:08.999Z</time></trkpt><trkpt lat="36.022106441085434" lon="-107.07530600707969"><ele>2158.0</ele><time>2026-05-03T17:02:09.999Z</time></trkpt><trkpt lat="36.02213100975174" lon="-107.07520812194996"><ele>2158.0</ele><time>2026-05-03T17:02:10.999Z</time></trkpt><trkpt lat="36.0221566281086" lon="-107.07512248020834"><ele>2158.0</ele><time>2026-05-03T17:02:11.999Z</time></trkpt><trkpt lat="36.022156500028345" lon="-107.07501530067827"><ele>2158.0</ele><time>2026-05-03T17:02:12.999Z</time></trkpt><trkpt lat="36.022144377074774" lon="-107.07487867224705"><ele>2158.0</ele><time>2026-05-03T17:02:13.999Z</time></trkpt><trkpt lat="36.0221325749642" lon="-107.07473312090865"><ele>2158.0</ele><time>2026-05-03T17:02:14.999Z</time></trkpt><trkpt lat="36.02212910753493" lon="-107.07459001797517"><ele>2158.0</ele><time>2026-05-03T17:02:15.999Z</time></trkpt><trkpt lat="36.02210567012008" lon="-107.07444709437742"><ele>2158.25</ele><time>2026-05-03T17:02:16.999Z</time></trkpt><trkpt lat="36.02208026417649" lon="-107.07428019342541"><ele>2158.5</ele><time>2026-05-03T17:02:17.999Z</time></trkpt><trkpt lat="36.022077224773106" lon="-107.07412914846485"><ele>2158.75</ele><time>2026-05-03T17:02:18.999Z</time></trkpt><trkpt lat="36.02208706746698" lon="-107.07398756038512"><ele>2159.0</ele><time>2026-05-03T17:02:19.999Z</time></trkpt><trkpt lat="36.02211496082926" lon="-107.07384919219955"><ele>2157.8</ele><time>2026-05-03T17:02:20.999Z</time></trkpt><trkpt lat="36.02213947137911" lon="-107.07372747662919"><ele>2156.6000000000004</ele><time>2026-05-03T17:02:21.999Z</time></trkpt><trkpt lat="36.02218144375965" lon="-107.07363953647862"><ele>2155.4</ele><time>2026-05-03T17:02:22.999Z</time></trkpt><trkpt lat="36.02226349456095" lon="-107.0735548297658"><ele>2154.2000000000003</ele><time>2026-05-03T17:02:23.999Z</time></trkpt><trkpt lat="36.02237363175389" lon="-107.07346233715123"><ele>2153.0</ele><time>2026-05-03T17:02:24.999Z</time></trkpt><trkpt lat="36.022470802414034" lon="-107.0733582096117"><ele>2153.75</ele><time>2026-05-03T17:02:25.999Z</time></trkpt><trkpt lat="36.02256236744541" lon="-107.07327863835792"><ele>2154.5</ele><time>2026-05-03T17:02:26.999Z</time></trkpt><trkpt lat="36.02267983533246" lon="-107.07321039828662"><ele>2155.25</ele><time>2026-05-03T17:02:27.999Z</time></trkpt><trkpt lat="36.02279835787896" lon="-107.0731891345935"><ele>2156.0</ele><time>2026-05-03T17:02:28.999Z</time></trkpt><trkpt lat="36.02291734041617" lon="-107.07321205727311"><ele>2156.0</ele><time>2026-05-03T17:02:29.999Z</time></trkpt><trkpt lat="36.023029924665394" lon="-107.07324008537663"><ele>2156.0</ele><time>2026-05-03T17:02:30.999Z</time></trkpt><trkpt lat="36.023119912527626" lon="-107.07327994162972"><ele>2156.0</ele><time>2026-05-03T17:02:31.999Z</time></trkpt><trkpt lat="36.023208744292084" lon="-107.07335297731204"><ele>2156.0</ele><time>2026-05-03T17:02:32.999Z</time></trkpt><trkpt lat="36.02331946441745" lon="-107.07340204248571"><ele>2156.0</ele><time>2026-05-03T17:02:33.999Z</time></trkpt><trkpt lat="36.023427102256065" lon="-107.07345083320725"><ele>2156.0</ele><time>2026-05-03T17:02:34.999Z</time></trkpt><trkpt lat="36.02352749726381" lon="-107.07347401543072"><ele>2156.0</ele><time>2026-05-03T17:02:35.999Z</time></trkpt><trkpt lat="36.02361883062547" lon="-107.07347121521646"><ele>2156.0</ele><time>2026-05-03T17:02:36.999Z</time></trkpt><trkpt lat="36.02369715442022" lon="-107.07342415934853"><ele>2156.0</ele><time>2026-05-03T17:02:37.999Z</time></trkpt><trkpt lat="36.02375062193224" lon="-107.07330561703965"><ele>2156.0</ele><time>2026-05-03T17:02:38.999Z</time></trkpt><trkpt lat="36.023824517741915" lon="-107.07319171453685"><ele>2156.0</ele><time>2026-05-03T17:02:39.999Z</time></trkpt><trkpt lat="36.023937378734544" lon="-107.07311898318665"><ele>2156.0</ele><time>2026-05-03T17:02:40.999Z</time></trkpt><trkpt lat="36.024009052326726" lon="-107.07305229734584"><ele>2156.0</ele><time>2026-05-03T17:02:41.999Z</time></trkpt><trkpt lat="36.02403390765805" lon="-107.07297261950218"><ele>2156.0</ele><time>2026-05-03T17:02:42.999Z</time></trkpt><trkpt lat="36.02407120451423" lon="-107.07284069074638"><ele>2156.0</ele><time>2026-05-03T17:02:43.999Z</time></trkpt><trkpt lat="36.02411554899404" lon="-107.07269716558949"><ele>2156.0</ele><time>2026-05-03T17:02:44.999Z</time></trkpt><trkpt lat="36.02414431586428" lon="-107.07256009121214"><ele>2156.0</ele><time>2026-05-03T17:02:45.999Z</time></trkpt><trkpt lat="36.02417686943644" lon="-107.07241285885823"><ele>2156.0</ele><time>2026-05-03T17:02:46.999Z</time></trkpt><trkpt lat="36.024225450529556" lon="-107.07226272007074"><ele>2156.0</ele><time>2026-05-03T17:02:47.999Z</time></trkpt><trkpt lat="36.02426639056719" lon="-107.07209402857515"><ele>2155.75</ele><time>2026-05-03T17:02:48.999Z</time></trkpt><trkpt lat="36.02430779926358" lon="-107.07193491676651"><ele>2155.5</ele><time>2026-05-03T17:02:49.999Z</time></trkpt><trkpt lat="36.02437618245459" lon="-107.071783538585"><ele>2155.25</ele><time>2026-05-03T17:02:50.999Z</time></trkpt><trkpt lat="36.024448896839964" lon="-107.07163032881664"><ele>2155.0</ele><time>2026-05-03T17:02:51.999Z</time></trkpt><trkpt lat="36.02449468236838" lon="-107.07147039273075"><ele>2155.0</ele><time>2026-05-03T17:02:52.999Z</time></trkpt><trkpt lat="36.024524294349995" lon="-107.07133588664773"><ele>2155.0</ele><time>2026-05-03T17:02:53.999Z</time></trkpt><trkpt lat="36.02458349934492" lon="-107.07123366421882"><ele>2155.0</ele><time>2026-05-03T17:02:54.999Z</time></trkpt><trkpt lat="36.024691021885275" lon="-107.07114620432986"><ele>2155.0</ele><time>2026-05-03T17:02:55.999Z</time></trkpt><trkpt lat="36.02480468997479" lon="-107.07101514069025"><ele>2155.0</ele><time>2026-05-03T17:02:56.999Z</time></trkpt><trkpt lat="36.024873353773565" lon="-107.07082911074794"><ele>2155.0</ele><time>2026-05-03T17:02:57.999Z</time></trkpt><trkpt lat="36.02493921889918" lon="-107.07062441369355"><ele>2155.0</ele><time>2026-05-03T17:02:59Z</time></trkpt><trkpt lat="36.02500973881873" lon="-107.07043088679711"><ele>2156.0</ele><time>2026-05-03T17:03:00Z</time></trkpt><trkpt lat="36.02508088903887" lon="-107.07028210827416"><ele>2157.0</ele><time>2026-05-03T17:03:01Z</time></trkpt><trkpt lat="36.02516028600701" lon="-107.07014908835863"><ele>2158.0</ele><time>2026-05-03T17:03:02Z</time></trkpt><trkpt lat="36.02524332136637" lon="-107.06998493456798"><ele>2159.0</ele><time>2026-05-03T17:03:03Z</time></trkpt><trkpt lat="36.0253024968223" lon="-107.06984001811215"><ele>2156.5</ele><time>2026-05-03T17:03:04Z</time></trkpt><trkpt lat="36.02537510788797" lon="-107.0696877245662"><ele>2154.0</ele><time>2026-05-03T17:03:05Z</time></trkpt><trkpt lat="36.02544373577063" lon="-107.0695742404654"><ele>2151.5</ele><time>2026-05-03T17:03:06Z</time></trkpt><trkpt lat="36.02553983627154" lon="-107.0694870612727"><ele>2149.0</ele><time>2026-05-03T17:03:07Z</time></trkpt><trkpt lat="36.025616562916724" lon="-107.06937985480472"><ele>2149.0</ele><time>2026-05-03T17:03:08Z</time></trkpt><trkpt lat="36.02567100040877" lon="-107.06928370729868"><ele>2149.0</ele><time>2026-05-03T17:03:09Z</time></trkpt><trkpt lat="36.025702498944426" lon="-107.06919751924337"><ele>2149.0</ele><time>2026-05-03T17:03:10Z</time></trkpt><trkpt lat="36.02576791075823" lon="-107.06911785571266"><ele>2149.0</ele><time>2026-05-03T17:03:11Z</time></trkpt><trkpt lat="36.02585344467953" lon="-107.06905150652565"><ele>2149.0</ele><time>2026-05-03T17:03:12Z</time></trkpt><trkpt lat="36.02595113921174" lon="-107.06897258317727"><ele>2151.0</ele><time>2026-05-03T17:03:13Z</time></trkpt><trkpt lat="36.02604982045126" lon="-107.06888473351368"><ele>2153.0</ele><time>2026-05-03T17:03:14Z</time></trkpt><trkpt lat="36.026115985645404" lon="-107.0687786693158"><ele>2155.0</ele><time>2026-05-03T17:03:15Z</time></trkpt><trkpt lat="36.02617622862264" lon="-107.06865749120352"><ele>2157.0</ele><time>2026-05-03T17:03:16Z</time></trkpt><trkpt lat="36.02622095338889" lon="-107.06848996125491"><ele>2157.0</ele><time>2026-05-03T17:03:17Z</time></trkpt><trkpt lat="36.0262365012636" lon="-107.06833659321465"><ele>2157.0</ele><time>2026-05-03T17:03:18Z</time></trkpt><trkpt lat="36.026212776200296" lon="-107.06819368774967"><ele>2157.0</ele><time>2026-05-03T17:03:19Z</time></trkpt><trkpt lat="36.02620403830586" lon="-107.06804037514628"><ele>2157.0</ele><time>2026-05-03T17:03:20Z</time></trkpt><trkpt lat="36.026210243459595" lon="-107.06788936403883"><ele>2157.7999999999997</ele><time>2026-05-03T17:03:21Z</time></trkpt><trkpt lat="36.02620055403687" lon="-107.06778040208654"><ele>2158.6</ele><time>2026-05-03T17:03:22Z</time></trkpt><trkpt lat="36.02613492237666" lon="-107.06770405614394"><ele>2159.3999999999996</ele><time>2026-05-03T17:03:23Z</time></trkpt><trkpt lat="36.02606537196563" lon="-107.06766766376553"><ele>2160.2</ele><time>2026-05-03T17:03:24Z</time></trkpt><trkpt lat="36.02594908422892" lon="-107.06752640197644"><ele>2161.0</ele><time>2026-05-03T17:03:26Z</time></trkpt><trkpt lat="36.02591127289329" lon="-107.06742732072705"><ele>2160.25</ele><time>2026-05-03T17:03:27Z</time></trkpt><trkpt lat="36.025875452664266" lon="-107.06729745619597"><ele>2159.5</ele><time>2026-05-03T17:03:28Z</time></trkpt><trkpt lat="36.02580990131697" lon="-107.06711797025774"><ele>2158.75</ele><time>2026-05-03T17:03:29Z</time></trkpt><trkpt lat="36.02575096078963" lon="-107.0669616826165"><ele>2158.0</ele><time>2026-05-03T17:03:30Z</time></trkpt><trkpt lat="36.02570649817785" lon="-107.0668168810473"><ele>2158.0</ele><time>2026-05-03T17:03:31Z</time></trkpt><trkpt lat="36.02567189816363" lon="-107.06669554454041"><ele>2158.0</ele><time>2026-05-03T17:03:32Z</time></trkpt><trkpt lat="36.02561619492446" lon="-107.06659494020234"><ele>2158.0</ele><time>2026-05-03T17:03:33Z</time></trkpt><trkpt lat="36.02556775686861" lon="-107.06649172774024"><ele>2158.0</ele><time>2026-05-03T17:03:34Z</time></trkpt><trkpt lat="36.025530071636126" lon="-107.06636661267687"><ele>2158.0</ele><time>2026-05-03T17:03:35Z</time></trkpt><trkpt lat="36.025475374413695" lon="-107.06623612332498"><ele>2157.75</ele><time>2026-05-03T17:03:36Z</time></trkpt><trkpt lat="36.02544536277004" lon="-107.0660955927779"><ele>2157.5</ele><time>2026-05-03T17:03:37Z</time></trkpt><trkpt lat="36.025467535659665" lon="-107.06593679975538"><ele>2157.25</ele><time>2026-05-03T17:03:38Z</time></trkpt><trkpt lat="36.0255029673465" lon="-107.0657723559338"><ele>2157.0</ele><time>2026-05-03T17:03:39Z</time></trkpt><trkpt lat="36.02553266434955" lon="-107.06563082210839"><ele>2154.75</ele><time>2026-05-03T17:03:40Z</time></trkpt><trkpt lat="36.02555236139729" lon="-107.06548083960513"><ele>2152.5</ele><time>2026-05-03T17:03:41Z</time></trkpt><trkpt lat="36.02556232707871" lon="-107.06531917361067"><ele>2150.25</ele><time>2026-05-03T17:03:42Z</time></trkpt><trkpt lat="36.02557953836008" lon="-107.06518662098203"><ele>2148.0</ele><time>2026-05-03T17:03:43Z</time></trkpt><trkpt lat="36.02559790052704" lon="-107.06507891552566"><ele>2148.0</ele><time>2026-05-03T17:03:44Z</time></trkpt><trkpt lat="36.02563750301784" lon="-107.06496880764914"><ele>2148.0</ele><time>2026-05-03T17:03:45Z</time></trkpt><trkpt lat="36.02569160254906" lon="-107.06483477836413"><ele>2148.0</ele><time>2026-05-03T17:03:46Z</time></trkpt><trkpt lat="36.02573393411277" lon="-107.06469108650289"><ele>2148.0</ele><time>2026-05-03T17:03:47Z</time></trkpt><trkpt lat="36.02577234350891" lon="-107.06457466734494"><ele>2148.0</ele><time>2026-05-03T17:03:48Z</time></trkpt><trkpt lat="36.02590681113062" lon="-107.0644934413048"><ele>2148.0</ele><time>2026-05-03T17:03:50Z</time></trkpt><trkpt lat="36.02603792427075" lon="-107.06443463519857"><ele>2148.0</ele><time>2026-05-03T17:03:51Z</time></trkpt><trkpt lat="36.02613417431656" lon="-107.06431810971503"><ele>2148.0</ele><time>2026-05-03T17:03:52Z</time></trkpt><trkpt lat="36.026233393374845" lon="-107.06419613864281"><ele>2148.0</ele><time>2026-05-03T17:03:53Z</time></trkpt><trkpt lat="36.02633544090732" lon="-107.06409691548305"><ele>2148.0</ele><time>2026-05-03T17:03:54Z</time></trkpt><trkpt lat="36.02641401636407" lon="-107.06401553146493"><ele>2148.0</ele><time>2026-05-03T17:03:55Z</time></trkpt><trkpt lat="36.02649712488107" lon="-107.06394110907043"><ele>2148.0</ele><time>2026-05-03T17:03:56Z</time></trkpt><trkpt lat="36.02661491385606" lon="-107.06390137702648"><ele>2148.0</ele><time>2026-05-03T17:03:57Z</time></trkpt><trkpt lat="36.02676643512165" lon="-107.0638978953592"><ele>2150.8</ele><time>2026-05-03T17:03:58Z</time></trkpt><trkpt lat="36.026879257820816" lon="-107.06390490316252"><ele>2153.6000000000004</ele><time>2026-05-03T17:03:59Z</time></trkpt><trkpt lat="36.02694488240344" lon="-107.06392004618952"><ele>2156.3999999999996</ele><time>2026-05-03T17:04:00Z</time></trkpt><trkpt lat="36.02706868152772" lon="-107.06400669209172"><ele>2159.2</ele><time>2026-05-03T17:04:02Z</time></trkpt><trkpt lat="36.027144357409306" lon="-107.06408048527896"><ele>2162.0</ele><time>2026-05-03T17:04:03Z</time></trkpt><trkpt lat="36.02722055685687" lon="-107.06410432505734"><ele>2162.0</ele><time>2026-05-03T17:04:04Z</time></trkpt><trkpt lat="36.02730461798532" lon="-107.06406440752345"><ele>2162.0</ele><time>2026-05-03T17:04:05Z</time></trkpt><trkpt lat="36.027457872464026" lon="-107.06418023390015"><ele>2162.0</ele><time>2026-05-03T17:04:07Z</time></trkpt><trkpt lat="36.027530753224454" lon="-107.06427947802622"><ele>2162.0</ele><time>2026-05-03T17:04:08Z</time></trkpt><trkpt lat="36.02756315566386" lon="-107.06434835422795"><ele>2162.0</ele><time>2026-05-03T17:04:09Z</time></trkpt><trkpt lat="36.02756747836888" lon="-107.0644595075647"><ele>2163.7999999999997</ele><time>2026-05-03T17:04:10Z</time></trkpt><trkpt lat="36.02757676882563" lon="-107.064590875695"><ele>2165.6</ele><time>2026-05-03T17:04:11Z</time></trkpt><trkpt lat="36.0276024789199" lon="-107.06472210179292"><ele>2167.3999999999996</ele><time>2026-05-03T17:04:12Z</time></trkpt><trkpt lat="36.02766832322424" lon="-107.06475363235468"><ele>2169.2</ele><time>2026-05-03T17:04:13Z</time></trkpt><trkpt lat="36.02778339604106" lon="-107.06478105830477"><ele>2171.0</ele><time>2026-05-03T17:04:14Z</time></trkpt><trkpt lat="36.02788280805603" lon="-107.06478436926794"><ele>2171.0</ele><time>2026-05-03T17:04:15Z</time></trkpt><trkpt lat="36.02798514994772" lon="-107.06480314848011"><ele>2171.0</ele><time>2026-05-03T17:04:16Z</time></trkpt><trkpt lat="36.02807468585429" lon="-107.06483253039598"><ele>2171.0</ele><time>2026-05-03T17:04:17Z</time></trkpt><trkpt lat="36.0281622615648" lon="-107.0648415741072"><ele>2171.0</ele><time>2026-05-03T17:04:18Z</time></trkpt><trkpt lat="36.0282602545168" lon="-107.06478754958461"><ele>2171.0</ele><time>2026-05-03T17:04:20Z</time></trkpt><trkpt lat="36.028249915367994" lon="-107.06468445060774"><ele>2171.0</ele><time>2026-05-03T17:04:21Z</time></trkpt><trkpt lat="36.02818469724248" lon="-107.06452137000912"><ele>2171.0</ele><time>2026-05-03T17:04:22Z</time></trkpt><trkpt lat="36.02809764445491" lon="-107.06438199644923"><ele>2171.0</ele><time>2026-05-03T17:04:23Z</time></trkpt><trkpt lat="36.02804622133771" lon="-107.06422868982008"><ele>2171.0</ele><time>2026-05-03T17:04:24Z</time></trkpt><trkpt lat="36.02799581315334" lon="-107.0640830269503"><ele>2169.25</ele><time>2026-05-03T17:04:25Z</time></trkpt><trkpt lat="36.02793849590234" lon="-107.0639863490885"><ele>2167.5</ele><time>2026-05-03T17:04:26Z</time></trkpt><trkpt lat="36.02793886693958" lon="-107.0637896930797"><ele>2165.75</ele><time>2026-05-03T17:04:28Z</time></trkpt><trkpt lat="36.02794914886108" lon="-107.06363623292602"><ele>2164.0</ele><time>2026-05-03T17:04:29Z</time></trkpt><trkpt lat="36.02797804774768" lon="-107.06353725369688"><ele>2164.0</ele><time>2026-05-03T17:04:30Z</time></trkpt><trkpt lat="36.02799274441797" lon="-107.06343307145916"><ele>2164.0</ele><time>2026-05-03T17:04:31Z</time></trkpt><trkpt lat="36.0280159539833" lon="-107.06333074655427"><ele>2164.0</ele><time>2026-05-03T17:04:32Z</time></trkpt><trkpt lat="36.02802688800165" lon="-107.06321100984839"><ele>2164.0</ele><time>2026-05-03T17:04:33Z</time></trkpt><trkpt lat="36.02811306376344" lon="-107.06308871976802"><ele>2164.0</ele><time>2026-05-03T17:04:34Z</time></trkpt><trkpt lat="36.02822193122612" lon="-107.06293230201193"><ele>2163.5</ele><time>2026-05-03T17:04:35Z</time></trkpt><trkpt lat="36.02833332337004" lon="-107.06277651378173"><ele>2163.0</ele><time>2026-05-03T17:04:36Z</time></trkpt><trkpt lat="36.028421130799344" lon="-107.06264301151406"><ele>2162.5</ele><time>2026-05-03T17:04:37Z</time></trkpt><trkpt lat="36.02848438134571" lon="-107.06253718478662"><ele>2162.0</ele><time>2026-05-03T17:04:38Z</time></trkpt><trkpt lat="36.02854318310543" lon="-107.06244299902086"><ele>2159.75</ele><time>2026-05-03T17:04:39Z</time></trkpt><trkpt lat="36.02860690835165" lon="-107.06232224570005"><ele>2157.5</ele><time>2026-05-03T17:04:40Z</time></trkpt><trkpt lat="36.028689860883205" lon="-107.06225989469456"><ele>2155.25</ele><time>2026-05-03T17:04:41Z</time></trkpt><trkpt lat="36.028793290406284" lon="-107.06221012992492"><ele>2153.0</ele><time>2026-05-03T17:04:42Z</time></trkpt><trkpt lat="36.02902715773562" lon="-107.06219452792828"><ele>2153.0</ele><time>2026-05-03T17:04:44Z</time></trkpt><trkpt lat="36.02913119937692" lon="-107.06217961326384"><ele>2153.0</ele><time>2026-05-03T17:04:45Z</time></trkpt><trkpt lat="36.0292372353508" lon="-107.06215750449847"><ele>2153.0</ele><time>2026-05-03T17:04:46Z</time></trkpt><trkpt lat="36.02932401801292" lon="-107.06213665151398"><ele>2153.0</ele><time>2026-05-03T17:04:47Z</time></trkpt><trkpt lat="36.02938835256774" lon="-107.0620881931943"><ele>2153.0</ele><time>2026-05-03T17:04:48Z</time></trkpt><trkpt lat="36.02945710429595" lon="-107.06209579471532"><ele>2153.0</ele><time>2026-05-03T17:04:50Z</time></trkpt><trkpt lat="36.02952111174927" lon="-107.06215814823273"><ele>2152.2000000000003</ele><time>2026-05-03T17:04:54Z</time></trkpt><trkpt lat="36.0295943359377" lon="-107.06218923212741"><ele>2151.4</ele><time>2026-05-03T17:04:55Z</time></trkpt><trkpt lat="36.02969652462124" lon="-107.06220269232335"><ele>2150.6000000000004</ele><time>2026-05-03T17:04:56Z</time></trkpt><trkpt lat="36.02981219255976" lon="-107.06219442985493"><ele>2149.8</ele><time>2026-05-03T17:04:57Z</time></trkpt><trkpt lat="36.02991049618708" lon="-107.06221730992286"><ele>2149.0</ele><time>2026-05-03T17:04:58Z</time></trkpt><trkpt lat="36.02997424510632" lon="-107.06220996660451"><ele>2148.0</ele><time>2026-05-03T17:04:59Z</time></trkpt><trkpt lat="36.03008072192675" lon="-107.0623346372278"><ele>2147.0</ele><time>2026-05-03T17:05:00.999Z</time></trkpt><trkpt lat="36.030175007596924" lon="-107.06243244967551"><ele>2146.0</ele><time>2026-05-03T17:05:01.999Z</time></trkpt><trkpt lat="36.030268443610794" lon="-107.0625083027616"><ele>2145.0</ele><time>2026-05-03T17:05:02.999Z</time></trkpt><trkpt lat="36.03033720450926" lon="-107.06253906621627"><ele>2145.0</ele><time>2026-05-03T17:05:03.999Z</time></trkpt><trkpt lat="36.03042478121251" lon="-107.06250797555798"><ele>2145.0</ele><time>2026-05-03T17:05:06Z</time></trkpt><trkpt lat="36.03051338517974" lon="-107.06239898654789"><ele>2145.0</ele><time>2026-05-03T17:05:08Z</time></trkpt><trkpt lat="36.030524511080735" lon="-107.06228573885265"><ele>2145.0</ele><time>2026-05-03T17:05:09Z</time></trkpt><trkpt lat="36.03044746437752" lon="-107.06219070527528"><ele>2145.0</ele><time>2026-05-03T17:05:10Z</time></trkpt><trkpt lat="36.03038777805628" lon="-107.06205536941987"><ele>2145.0</ele><time>2026-05-03T17:05:11Z</time></trkpt><trkpt lat="36.03033350136706" lon="-107.06193727722835"><ele>2145.0</ele><time>2026-05-03T17:05:12Z</time></trkpt><trkpt lat="36.03029667478634" lon="-107.06184640186532"><ele>2145.0</ele><time>2026-05-03T17:05:13Z</time></trkpt><trkpt lat="36.03027366109134" lon="-107.06166191926593"><ele>2145.0</ele><time>2026-05-03T17:05:15Z</time></trkpt><trkpt lat="36.030281382174614" lon="-107.06155173377054"><ele>2145.0</ele><time>2026-05-03T17:05:16Z</time></trkpt><trkpt lat="36.03030037252288" lon="-107.06145744842479"><ele>2142.75</ele><time>2026-05-03T17:05:17Z</time></trkpt><trkpt lat="36.03031997273091" lon="-107.06135110661474"><ele>2140.5</ele><time>2026-05-03T17:05:18Z</time></trkpt><trkpt lat="36.03030452535664" lon="-107.06119989864283"><ele>2138.25</ele><time>2026-05-03T17:05:19Z</time></trkpt><trkpt lat="36.030263908402446" lon="-107.06104898632651"><ele>2136.0</ele><time>2026-05-03T17:05:20Z</time></trkpt><trkpt lat="36.03020141266997" lon="-107.06091329234951"><ele>2136.0</ele><time>2026-05-03T17:05:21Z</time></trkpt><trkpt lat="36.03009641225518" lon="-107.06079999233248"><ele>2136.0</ele><time>2026-05-03T17:05:22Z</time></trkpt><trkpt lat="36.030006015342266" lon="-107.0606992479267"><ele>2136.0</ele><time>2026-05-03T17:05:23Z</time></trkpt><trkpt lat="36.02994201422013" lon="-107.06058510676675"><ele>2136.0</ele><time>2026-05-03T17:05:24Z</time></trkpt><trkpt lat="36.029919436823256" lon="-107.06043842522051"><ele>2135.25</ele><time>2026-05-03T17:05:25Z</time></trkpt><trkpt lat="36.029879243856335" lon="-107.06028935969431"><ele>2134.5</ele><time>2026-05-03T17:05:26Z</time></trkpt><trkpt lat="36.02979093141868" lon="-107.0601748591915"><ele>2133.75</ele><time>2026-05-03T17:05:27Z</time></trkpt><trkpt lat="36.0296755387013" lon="-107.06006831337889"><ele>2133.0</ele><time>2026-05-03T17:05:28Z</time></trkpt><trkpt lat="36.02954811453635" lon="-107.06000375998805"><ele>2132.25</ele><time>2026-05-03T17:05:29Z</time></trkpt><trkpt lat="36.02941254217799" lon="-107.0599298325751"><ele>2131.5</ele><time>2026-05-03T17:05:30Z</time></trkpt><trkpt lat="36.0292791229563" lon="-107.05983762340344"><ele>2130.75</ele><time>2026-05-03T17:05:31Z</time></trkpt><trkpt lat="36.02914938410664" lon="-107.0597549030666"><ele>2130.0</ele><time>2026-05-03T17:05:32Z</time></trkpt><trkpt lat="36.0290325220069" lon="-107.05969600608412"><ele>2130.0</ele><time>2026-05-03T17:05:33Z</time></trkpt><trkpt lat="36.02890050902969" lon="-107.05958212753143"><ele>2130.0</ele><time>2026-05-03T17:05:34Z</time></trkpt><trkpt lat="36.02881016008189" lon="-107.05942921132406"><ele>2130.0</ele><time>2026-05-03T17:05:35Z</time></trkpt><trkpt lat="36.02874201133765" lon="-107.05934357318708"><ele>2130.0</ele><time>2026-05-03T17:05:36Z</time></trkpt><trkpt lat="36.02868091251478" lon="-107.0592363773315"><ele>2129.8</ele><time>2026-05-03T17:05:37Z</time></trkpt><trkpt lat="36.02862253117654" lon="-107.05911486245476"><ele>2129.6</ele><time>2026-05-03T17:05:38Z</time></trkpt><trkpt lat="36.028582879928095" lon="-107.05902025292275"><ele>2129.4</ele><time>2026-05-03T17:05:39Z</time></trkpt><trkpt lat="36.0285541248297" lon="-107.05891187654285"><ele>2129.2</ele><time>2026-05-03T17:05:40Z</time></trkpt><trkpt lat="36.028562468956835" lon="-107.05880152331922"><ele>2129.0</ele><time>2026-05-03T17:05:41Z</time></trkpt><trkpt lat="36.02863225097548" lon="-107.05868817285132"><ele>2129.0</ele><time>2026-05-03T17:05:42Z</time></trkpt><trkpt lat="36.02873770357828" lon="-107.05861352935717"><ele>2129.0</ele><time>2026-05-03T17:05:43Z</time></trkpt><trkpt lat="36.02882036580751" lon="-107.05853985795558"><ele>2129.0</ele><time>2026-05-03T17:05:44Z</time></trkpt><trkpt lat="36.02887267197154" lon="-107.05847804702651"><ele>2129.0</ele><time>2026-05-03T17:05:45Z</time></trkpt><trkpt lat="36.02896044161922" lon="-107.05840234004361"><ele>2129.0</ele><time>2026-05-03T17:05:47Z</time></trkpt><trkpt lat="36.02904486657682" lon="-107.05844182413303"><ele>2129.0</ele><time>2026-05-03T17:05:48Z</time></trkpt><trkpt lat="36.02913980328498" lon="-107.05855097494009"><ele>2129.0</ele><time>2026-05-03T17:05:49Z</time></trkpt><trkpt lat="36.02920009033289" lon="-107.05871577193092"><ele>2129.0</ele><time>2026-05-03T17:05:50Z</time></trkpt><trkpt lat="36.02928007845741" lon="-107.05884329004233"><ele>2129.0</ele><time>2026-05-03T17:05:51Z</time></trkpt><trkpt lat="36.02938719808094" lon="-107.05894202474938"><ele>2129.0</ele><time>2026-05-03T17:05:52Z</time></trkpt><trkpt lat="36.02950267078055" lon="-107.05904820589689"><ele>2129.0</ele><time>2026-05-03T17:05:53Z</time></trkpt><trkpt lat="36.029631814065915" lon="-107.05910654571406"><ele>2129.0</ele><time>2026-05-03T17:05:54Z</time></trkpt><trkpt lat="36.02975956123432" lon="-107.05915456155003"><ele>2129.0</ele><time>2026-05-03T17:05:55Z</time></trkpt><trkpt lat="36.02991283600336" lon="-107.0592188177829"><ele>2129.4</ele><time>2026-05-03T17:05:56Z</time></trkpt><trkpt lat="36.030018988445114" lon="-107.05927993655632"><ele>2129.8</ele><time>2026-05-03T17:05:57Z</time></trkpt><trkpt lat="36.03007798947878" lon="-107.059310111206"><ele>2130.2</ele><time>2026-05-03T17:05:58Z</time></trkpt><trkpt lat="36.03022650564528" lon="-107.05927983463029"><ele>2130.6</ele><time>2026-05-03T17:06:00Z</time></trkpt><trkpt lat="36.03030523606806" lon="-107.05919526198028"><ele>2131.0</ele><time>2026-05-03T17:06:01Z</time></trkpt><trkpt lat="36.030349696485054" lon="-107.05906032667734"><ele>2131.0</ele><time>2026-05-03T17:06:02Z</time></trkpt><trkpt lat="36.03040364222426" lon="-107.0589449890702"><ele>2131.0</ele><time>2026-05-03T17:06:03Z</time></trkpt><trkpt lat="36.03045994806549" lon="-107.05883905279957"><ele>2131.0</ele><time>2026-05-03T17:06:04Z</time></trkpt><trkpt lat="36.030520197101055" lon="-107.05878450825314"><ele>2131.0</ele><time>2026-05-03T17:06:05Z</time></trkpt><trkpt lat="36.030665655937916" lon="-107.05886040977703"><ele>2131.0</ele><time>2026-05-03T17:06:07Z</time></trkpt><trkpt lat="36.03073260547402" lon="-107.05897287660167"><ele>2131.0</ele><time>2026-05-03T17:06:08Z</time></trkpt><trkpt lat="36.030766769742904" lon="-107.05909946536325"><ele>2131.0</ele><time>2026-05-03T17:06:09Z</time></trkpt><trkpt lat="36.03077259546587" lon="-107.0591939537989"><ele>2131.0</ele><time>2026-05-03T17:06:10Z</time></trkpt><trkpt lat="36.03077472071534" lon="-107.05935784699825"><ele>2131.0</ele><time>2026-05-03T17:06:12Z</time></trkpt><trkpt lat="36.03075195810144" lon="-107.05944114005842"><ele>2131.0</ele><time>2026-05-03T17:06:13Z</time></trkpt><trkpt lat="36.03072275813295" lon="-107.05955844544552"><ele>2131.0</ele><time>2026-05-03T17:06:15Z</time></trkpt><trkpt lat="36.03081649283284" lon="-107.05969415272901"><ele>2131.0</ele><time>2026-05-03T17:06:17Z</time></trkpt><trkpt lat="36.03088225183566" lon="-107.05971167162593"><ele>2131.0</ele><time>2026-05-03T17:06:18Z</time></trkpt><trkpt lat="36.030959946360994" lon="-107.05967170916277"><ele>2131.0</ele><time>2026-05-03T17:06:19Z</time></trkpt><trkpt lat="36.031053923975506" lon="-107.05964466033353"><ele>2131.0</ele><time>2026-05-03T17:06:20Z</time></trkpt><trkpt lat="36.03115491433747" lon="-107.05961012427798"><ele>2131.0</ele><time>2026-05-03T17:06:21Z</time></trkpt><trkpt lat="36.03128065357212" lon="-107.05953342446402"><ele>2131.0</ele><time>2026-05-03T17:06:22Z</time></trkpt><trkpt lat="36.03142833852638" lon="-107.05945086367426"><ele>2131.0</ele><time>2026-05-03T17:06:23Z</time></trkpt><trkpt lat="36.03155451546178" lon="-107.05940147723541"><ele>2131.0</ele><time>2026-05-03T17:06:24Z</time></trkpt><trkpt lat="36.03162766100263" lon="-107.0593220869661"><ele>2131.0</ele><time>2026-05-03T17:06:25Z</time></trkpt><trkpt lat="36.03166263003765" lon="-107.059250381367"><ele>2131.0</ele><time>2026-05-03T17:06:26Z</time></trkpt><trkpt lat="36.031693247446796" lon="-107.05915312190994"><ele>2131.0</ele><time>2026-05-03T17:06:27Z</time></trkpt><trkpt lat="36.031726752061246" lon="-107.05906432979053"><ele>2131.0</ele><time>2026-05-03T17:06:28Z</time></trkpt><trkpt lat="36.031773674798515" lon="-107.0590051713323"><ele>2131.0</ele><time>2026-05-03T17:06:29Z</time></trkpt><trkpt lat="36.0318668111758" lon="-107.05899367074454"><ele>2131.0</ele><time>2026-05-03T17:06:30Z</time></trkpt><trkpt lat="36.032003882618376" lon="-107.05901793797084"><ele>2131.0</ele><time>2026-05-03T17:06:31Z</time></trkpt><trkpt lat="36.032096045570235" lon="-107.05901342146817"><ele>2131.0</ele><time>2026-05-03T17:06:32Z</time></trkpt><trkpt lat="36.032171469619975" lon="-107.05900121105988"><ele>2131.0</ele><time>2026-05-03T17:06:33Z</time></trkpt><trkpt lat="36.03225581196155" lon="-107.05903121618769"><ele>2131.0</ele><time>2026-05-03T17:06:34Z</time></trkpt><trkpt lat="36.03236335046941" lon="-107.05909951096541"><ele>2131.0</ele><time>2026-05-03T17:06:35Z</time></trkpt><trkpt lat="36.032467597459" lon="-107.05920707894359"><ele>2131.5</ele><time>2026-05-03T17:06:36Z</time></trkpt><trkpt lat="36.03256792668187" lon="-107.05927651539322"><ele>2132.0</ele><time>2026-05-03T17:06:37Z</time></trkpt><trkpt lat="36.03271414797835" lon="-107.05935556591861"><ele>2132.5</ele><time>2026-05-03T17:06:38Z</time></trkpt><trkpt lat="36.03285481771501" lon="-107.05943503668371"><ele>2133.0</ele><time>2026-05-03T17:06:39Z</time></trkpt><trkpt lat="36.03295439661975" lon="-107.05950088443412"><ele>2133.0</ele><time>2026-05-03T17:06:40Z</time></trkpt><trkpt lat="36.033017354264075" lon="-107.0595443266967"><ele>2133.0</ele><time>2026-05-03T17:06:41Z</time></trkpt><trkpt lat="36.03313517253042" lon="-107.05951097072608"><ele>2133.0</ele><time>2026-05-03T17:06:43Z</time></trkpt><trkpt lat="36.0332200098547" lon="-107.05945811838102"><ele>2133.0</ele><time>2026-05-03T17:06:44Z</time></trkpt><trkpt lat="36.033299452993965" lon="-107.05935697623723"><ele>2133.0</ele><time>2026-05-03T17:06:45Z</time></trkpt><trkpt lat="36.033391173532245" lon="-107.05926957348102"><ele>2133.0</ele><time>2026-05-03T17:06:46Z</time></trkpt><trkpt lat="36.03350837879794" lon="-107.05920131300863"><ele>2133.0</ele><time>2026-05-03T17:06:47Z</time></trkpt><trkpt lat="36.03363822443125" lon="-107.05914280295049"><ele>2133.0</ele><time>2026-05-03T17:06:48Z</time></trkpt><trkpt lat="36.03375088517968" lon="-107.05909129114983"><ele>2133.0</ele><time>2026-05-03T17:06:49Z</time></trkpt><trkpt lat="36.033853933519396" lon="-107.05907343723965"><ele>2132.75</ele><time>2026-05-03T17:06:50Z</time></trkpt><trkpt lat="36.03398017254971" lon="-107.05912716035019"><ele>2132.5</ele><time>2026-05-03T17:06:51Z</time></trkpt><trkpt lat="36.034097309295085" lon="-107.05918485021431"><ele>2132.25</ele><time>2026-05-03T17:06:52Z</time></trkpt><trkpt lat="36.03419760842254" lon="-107.05924658136695"><ele>2132.0</ele><time>2026-05-03T17:06:53Z</time></trkpt><trkpt lat="36.034275153459916" lon="-107.05928039716918"><ele>2132.4</ele><time>2026-05-03T17:06:54Z</time></trkpt><trkpt lat="36.034325448861495" lon="-107.05936214452382"><ele>2132.7999999999997</ele><time>2026-05-03T17:06:55Z</time></trkpt><trkpt lat="36.0343748850036" lon="-107.0594750505116"><ele>2133.2</ele><time>2026-05-03T17:06:56Z</time></trkpt><trkpt lat="36.03443154569054" lon="-107.05959739933336"><ele>2133.6</ele><time>2026-05-03T17:06:57Z</time></trkpt><trkpt lat="36.034469867250834" lon="-107.05975159150057"><ele>2134.0</ele><time>2026-05-03T17:06:58Z</time></trkpt><trkpt lat="36.034489589559605" lon="-107.05988808647012"><ele>2133.8</ele><time>2026-05-03T17:06:59Z</time></trkpt><trkpt lat="36.034498588133026" lon="-107.0599851143532"><ele>2133.6000000000004</ele><time>2026-05-03T17:07:00Z</time></trkpt><trkpt lat="36.03455521052169" lon="-107.06008080869682"><ele>2133.4</ele><time>2026-05-03T17:07:01Z</time></trkpt><trkpt lat="36.034643517217134" lon="-107.06017925619672"><ele>2133.2000000000003</ele><time>2026-05-03T17:07:02Z</time></trkpt><trkpt lat="36.03473246449891" lon="-107.06027072847054"><ele>2133.0</ele><time>2026-05-03T17:07:03Z</time></trkpt><trkpt lat="36.03481989594653" lon="-107.06037949478694"><ele>2133.0</ele><time>2026-05-03T17:07:04Z</time></trkpt><trkpt lat="36.034899187723155" lon="-107.0604579123958"><ele>2133.0</ele><time>2026-05-03T17:07:05Z</time></trkpt><trkpt lat="36.03493878944215" lon="-107.06052968963061"><ele>2133.0</ele><time>2026-05-03T17:07:06Z</time></trkpt><trkpt lat="36.03507782500919" lon="-107.06056720358951"><ele>2133.0</ele><time>2026-05-03T17:07:07.999Z</time></trkpt><trkpt lat="36.03521832476737" lon="-107.060532830686"><ele>2133.0</ele><time>2026-05-03T17:07:08.999Z</time></trkpt><trkpt lat="36.03534578633637" lon="-107.06047199409856"><ele>2133.0</ele><time>2026-05-03T17:07:09.999Z</time></trkpt><trkpt lat="36.03546196182409" lon="-107.06038509139799"><ele>2133.0</ele><time>2026-05-03T17:07:11Z</time></trkpt><trkpt lat="36.035593034566986" lon="-107.06029955288602"><ele>2133.0</ele><time>2026-05-03T17:07:12Z</time></trkpt><trkpt lat="36.03572369494466" lon="-107.06021667428803"><ele>2133.0</ele><time>2026-05-03T17:07:13Z</time></trkpt><trkpt lat="36.03578765912874" lon="-107.06021331871031"><ele>2133.0</ele><time>2026-05-03T17:07:14Z</time></trkpt><trkpt lat="36.03591376103498" lon="-107.06017679080753"><ele>2133.0</ele><time>2026-05-03T17:07:16Z</time></trkpt><trkpt lat="36.03599178487196" lon="-107.06011652821412"><ele>2133.0</ele><time>2026-05-03T17:07:17Z</time></trkpt><trkpt lat="36.03607716530433" lon="-107.06002388263761"><ele>2133.0</ele><time>2026-05-03T17:07:18Z</time></trkpt><trkpt lat="36.03614254131818" lon="-107.05995379366327"><ele>2133.25</ele><time>2026-05-03T17:07:19Z</time></trkpt><trkpt lat="36.03622575229331" lon="-107.05990356653457"><ele>2133.5</ele><time>2026-05-03T17:07:20Z</time></trkpt><trkpt lat="36.036293318199604" lon="-107.0598731089561"><ele>2133.75</ele><time>2026-05-03T17:07:21Z</time></trkpt><trkpt lat="36.036405622148244" lon="-107.05995132657718"><ele>2134.0</ele><time>2026-05-03T17:07:23Z</time></trkpt><trkpt lat="36.03653365323221" lon="-107.06008507034437"><ele>2134.0</ele><time>2026-05-03T17:07:24Z</time></trkpt><trkpt lat="36.03662205732466" lon="-107.06019171753105"><ele>2134.0</ele><time>2026-05-03T17:07:25Z</time></trkpt><trkpt lat="36.03670280861654" lon="-107.06024532023001"><ele>2134.0</ele><time>2026-05-03T17:07:26Z</time></trkpt><trkpt lat="36.03678281736296" lon="-107.06028143213305"><ele>2134.0</ele><time>2026-05-03T17:07:27Z</time></trkpt><trkpt lat="36.03685190401221" lon="-107.06033439166153"><ele>2134.0</ele><time>2026-05-03T17:07:28Z</time></trkpt><trkpt lat="36.03694205761857" lon="-107.06040480619077"><ele>2134.4</ele><time>2026-05-03T17:07:29Z</time></trkpt><trkpt lat="36.0370385586749" lon="-107.06043068234254"><ele>2134.8</ele><time>2026-05-03T17:07:30Z</time></trkpt><trkpt lat="36.03714991894886" lon="-107.06043712502122"><ele>2135.2</ele><time>2026-05-03T17:07:31Z</time></trkpt><trkpt lat="36.037254970995534" lon="-107.0604358762124"><ele>2135.6</ele><time>2026-05-03T17:07:32Z</time></trkpt><trkpt lat="36.03732152003994" lon="-107.06036649911788"><ele>2136.0</ele><time>2026-05-03T17:07:33Z</time></trkpt><trkpt lat="36.03736448171777" lon="-107.06023033628993"><ele>2136.0</ele><time>2026-05-03T17:07:34Z</time></trkpt><trkpt lat="36.037417861155625" lon="-107.06013090792845"><ele>2136.0</ele><time>2026-05-03T17:07:35Z</time></trkpt><trkpt lat="36.03748693217816" lon="-107.06007904743944"><ele>2136.0</ele><time>2026-05-03T17:07:36Z</time></trkpt><trkpt lat="36.037558432549595" lon="-107.06001271769766"><ele>2136.0</ele><time>2026-05-03T17:07:37Z</time></trkpt><trkpt lat="36.037648315572106" lon="-107.05996373738564"><ele>2136.0</ele><time>2026-05-03T17:07:38Z</time></trkpt><trkpt lat="36.03772106553827" lon="-107.05992184447652"><ele>2136.0</ele><time>2026-05-03T17:07:39Z</time></trkpt><trkpt lat="36.03779682286233" lon="-107.05994293977871"><ele>2135.75</ele><time>2026-05-03T17:07:40Z</time></trkpt><trkpt lat="36.037893966532295" lon="-107.06001279875275"><ele>2135.5</ele><time>2026-05-03T17:07:41Z</time></trkpt><trkpt lat="36.03800277658776" lon="-107.06008886925832"><ele>2135.25</ele><time>2026-05-03T17:07:42Z</time></trkpt><trkpt lat="36.03811625638167" lon="-107.06015576426488"><ele>2135.0</ele><time>2026-05-03T17:07:43Z</time></trkpt><trkpt lat="36.038243008396115" lon="-107.06021553211929"><ele>2135.333333333333</ele><time>2026-05-03T17:07:44Z</time></trkpt><trkpt lat="36.038387761190535" lon="-107.0602846806266"><ele>2135.6666666666665</ele><time>2026-05-03T17:07:45Z</time></trkpt><trkpt lat="36.038543357638126" lon="-107.06034926663003"><ele>2136.0</ele><time>2026-05-03T17:07:46Z</time></trkpt><trkpt lat="36.03867983977587" lon="-107.0603920404108"><ele>2136.0</ele><time>2026-05-03T17:07:47Z</time></trkpt><trkpt lat="36.03877906155155" lon="-107.06039213670579"><ele>2136.0</ele><time>2026-05-03T17:07:48Z</time></trkpt><trkpt lat="36.03888955441076" lon="-107.06037210949276"><ele>2136.0</ele><time>2026-05-03T17:07:49Z</time></trkpt><trkpt lat="36.03897015636121" lon="-107.06032802069944"><ele>2136.0</ele><time>2026-05-03T17:07:50Z</time></trkpt><trkpt lat="36.03901340726467" lon="-107.0602642411489"><ele>2136.0</ele><time>2026-05-03T17:07:51Z</time></trkpt><trkpt lat="36.03910872031509" lon="-107.06035676068831"><ele>2136.1666666666665</ele><time>2026-05-03T17:07:53Z</time></trkpt><trkpt lat="36.039169174028586" lon="-107.0604249758559"><ele>2136.3333333333335</ele><time>2026-05-03T17:07:54Z</time></trkpt><trkpt lat="36.03924262464153" lon="-107.06046826271847"><ele>2136.5</ele><time>2026-05-03T17:07:55Z</time></trkpt><trkpt lat="36.039304416030866" lon="-107.06052840091645"><ele>2136.666666666667</ele><time>2026-05-03T17:07:56Z</time></trkpt><trkpt lat="36.03937708161986" lon="-107.06061410005223"><ele>2136.8333333333335</ele><time>2026-05-03T17:07:57Z</time></trkpt><trkpt lat="36.039413200055364" lon="-107.0607344702281"><ele>2137.0</ele><time>2026-05-03T17:07:58Z</time></trkpt><trkpt lat="36.039435665990936" lon="-107.06087423332124"><ele>2137.2</ele><time>2026-05-03T17:07:59Z</time></trkpt><trkpt lat="36.0395010550768" lon="-107.06098290577468"><ele>2137.3999999999996</ele><time>2026-05-03T17:08:00Z</time></trkpt><trkpt lat="36.03955424272941" lon="-107.06104539432836"><ele>2137.6000000000004</ele><time>2026-05-03T17:08:01Z</time></trkpt><trkpt lat="36.03965069557553" lon="-107.06107625198639"><ele>2137.8</ele><time>2026-05-03T17:08:02Z</time></trkpt><trkpt lat="36.039729770428025" lon="-107.06115019151032"><ele>2138.0</ele><time>2026-05-03T17:08:03Z</time></trkpt><trkpt lat="36.039806511990214" lon="-107.06120447381436"><ele>2138.0</ele><time>2026-05-03T17:08:04Z</time></trkpt><trkpt lat="36.03989237574251" lon="-107.06121342552842"><ele>2138.0</ele><time>2026-05-03T17:08:05Z</time></trkpt><trkpt lat="36.03999367958307" lon="-107.0612367588197"><ele>2138.0</ele><time>2026-05-03T17:08:06Z</time></trkpt><trkpt lat="36.04007385605215" lon="-107.0613213680259"><ele>2138.0</ele><time>2026-05-03T17:08:08Z</time></trkpt><trkpt lat="36.04005942715494" lon="-107.06140387218694"><ele>2138.0</ele><time>2026-05-03T17:08:09Z</time></trkpt><trkpt lat="36.04004226226979" lon="-107.06150949066821"><ele>2137.8</ele><time>2026-05-03T17:08:10Z</time></trkpt><trkpt lat="36.04006039091887" lon="-107.06163093607627"><ele>2137.6000000000004</ele><time>2026-05-03T17:08:11Z</time></trkpt><trkpt lat="36.040080484695714" lon="-107.0617622714276"><ele>2137.3999999999996</ele><time>2026-05-03T17:08:12Z</time></trkpt><trkpt lat="36.04007592675574" lon="-107.06190895184365"><ele>2137.2</ele><time>2026-05-03T17:08:13Z</time></trkpt><trkpt lat="36.04006718568908" lon="-107.06204472351074"><ele>2137.0</ele><time>2026-05-03T17:08:14Z</time></trkpt><trkpt lat="36.04007301074235" lon="-107.06216157451023"><ele>2137.0</ele><time>2026-05-03T17:08:15Z</time></trkpt><trkpt lat="36.04010510259783" lon="-107.06227439415242"><ele>2137.0</ele><time>2026-05-03T17:08:16Z</time></trkpt><trkpt lat="36.04014925865182" lon="-107.06235754109771"><ele>2137.0</ele><time>2026-05-03T17:08:17Z</time></trkpt><trkpt lat="36.040209955671386" lon="-107.06242162370822"><ele>2137.0</ele><time>2026-05-03T17:08:18Z</time></trkpt><trkpt lat="36.04027347655084" lon="-107.06248266627843"><ele>2137.0</ele><time>2026-05-03T17:08:19Z</time></trkpt><trkpt lat="36.04028620622739" lon="-107.0625753640811"><ele>2137.0</ele><time>2026-05-03T17:08:20Z</time></trkpt><trkpt lat="36.04027251914578" lon="-107.06270312958229"><ele>2137.5</ele><time>2026-05-03T17:08:21Z</time></trkpt><trkpt lat="36.040275906021776" lon="-107.06284161752448"><ele>2138.0</ele><time>2026-05-03T17:08:22Z</time></trkpt><trkpt lat="36.040348728777644" lon="-107.06294062503352"><ele>2138.5</ele><time>2026-05-03T17:08:23Z</time></trkpt><trkpt lat="36.04045271149689" lon="-107.06305887658468"><ele>2139.0</ele><time>2026-05-03T17:08:24Z</time></trkpt><trkpt lat="36.04055788985502" lon="-107.06316765632657"><ele>2139.0</ele><time>2026-05-03T17:08:25Z</time></trkpt><trkpt lat="36.040661760212686" lon="-107.06328048852394"><ele>2139.0</ele><time>2026-05-03T17:08:26Z</time></trkpt><trkpt lat="36.04074078955869" lon="-107.06339974688368"><ele>2139.0</ele><time>2026-05-03T17:08:27Z</time></trkpt><trkpt lat="36.040846166034775" lon="-107.06351936116495"><ele>2139.0</ele><time>2026-05-03T17:08:28Z</time></trkpt><trkpt lat="36.04096011255289" lon="-107.06364913494859"><ele>2139.4</ele><time>2026-05-03T17:08:29Z</time></trkpt><trkpt lat="36.04105079969379" lon="-107.06376247299947"><ele>2139.8</ele><time>2026-05-03T17:08:30Z</time></trkpt><trkpt lat="36.041131710762784" lon="-107.06383879476112"><ele>2140.2</ele><time>2026-05-03T17:08:31Z</time></trkpt><trkpt lat="36.04122666095175" lon="-107.0638624412026"><ele>2140.6</ele><time>2026-05-03T17:08:32Z</time></trkpt><trkpt lat="36.04133568683083" lon="-107.0638523472471"><ele>2141.0</ele><time>2026-05-03T17:08:33Z</time></trkpt><trkpt lat="36.04146994739712" lon="-107.06382122542985"><ele>2141.0</ele><time>2026-05-03T17:08:34Z</time></trkpt><trkpt lat="36.041604252436606" lon="-107.06379334813545"><ele>2141.0</ele><time>2026-05-03T17:08:35Z</time></trkpt><trkpt lat="36.04171916966199" lon="-107.06380853538225"><ele>2141.0</ele><time>2026-05-03T17:08:36Z</time></trkpt><trkpt lat="36.041809070871054" lon="-107.06381464618755"><ele>2141.0</ele><time>2026-05-03T17:08:37Z</time></trkpt><trkpt lat="36.041897543585996" lon="-107.06381008076433"><ele>2141.0</ele><time>2026-05-03T17:08:38Z</time></trkpt><trkpt lat="36.04202056302871" lon="-107.06381563937417"><ele>2141.0</ele><time>2026-05-03T17:08:39Z</time></trkpt><trkpt lat="36.04216494297977" lon="-107.06382812915918"><ele>2141.0</ele><time>2026-05-03T17:08:40Z</time></trkpt><trkpt lat="36.0423259966193" lon="-107.06381316703153"><ele>2141.0</ele><time>2026-05-03T17:08:41Z</time></trkpt><trkpt lat="36.042511970094154" lon="-107.06380715856669"><ele>2142.333333333333</ele><time>2026-05-03T17:08:42Z</time></trkpt><trkpt lat="36.042687364586634" lon="-107.06380501702299"><ele>2143.6666666666665</ele><time>2026-05-03T17:08:43Z</time></trkpt><trkpt lat="36.042866466254736" lon="-107.06381384721813"><ele>2145.0</ele><time>2026-05-03T17:08:44Z</time></trkpt><trkpt lat="36.04305680313705" lon="-107.0638214127629"><ele>2145.0</ele><time>2026-05-03T17:08:45Z</time></trkpt><trkpt lat="36.04323450762498" lon="-107.06382040840974"><ele>2145.0</ele><time>2026-05-03T17:08:46Z</time></trkpt><trkpt lat="36.04338308124224" lon="-107.06382379389693"><ele>2145.0</ele><time>2026-05-03T17:08:47Z</time></trkpt><trkpt lat="36.0435538977481" lon="-107.06383167599817"><ele>2146.0</ele><time>2026-05-03T17:08:48Z</time></trkpt><trkpt lat="36.04372635487684" lon="-107.06383536629"><ele>2147.0</ele><time>2026-05-03T17:08:49Z</time></trkpt><trkpt lat="36.04390024754835" lon="-107.06384844947874"><ele>2148.0</ele><time>2026-05-03T17:08:50Z</time></trkpt><trkpt lat="36.04406217220016" lon="-107.0638597598545"><ele>2150.0</ele><time>2026-05-03T17:08:51Z</time></trkpt><trkpt lat="36.04421232274779" lon="-107.06386403344965"><ele>2152.0</ele><time>2026-05-03T17:08:52Z</time></trkpt><trkpt lat="36.04437143146793" lon="-107.0638542210317"><ele>2154.0</ele><time>2026-05-03T17:08:53Z</time></trkpt><trkpt lat="36.04453151679922" lon="-107.0638752900766"><ele>2154.0</ele><time>2026-05-03T17:08:54Z</time></trkpt><trkpt lat="36.044686785526316" lon="-107.06386655238282"><ele>2154.0</ele><time>2026-05-03T17:08:55Z</time></trkpt><trkpt lat="36.04483661682782" lon="-107.06383261083818"><ele>2154.0</ele><time>2026-05-03T17:08:56Z</time></trkpt><trkpt lat="36.04500625908104" lon="-107.06384302121995"><ele>2154.6666666666665</ele><time>2026-05-03T17:08:57Z</time></trkpt><trkpt lat="36.04518908898551" lon="-107.0638719689701"><ele>2155.333333333333</ele><time>2026-05-03T17:08:58Z</time></trkpt><trkpt lat="36.0453554454073" lon="-107.06387538194163"><ele>2156.0</ele><time>2026-05-03T17:08:59Z</time></trkpt><trkpt lat="36.04548427720538" lon="-107.06384948640881"><ele>2156.0</ele><time>2026-05-03T17:09:00Z</time></trkpt><trkpt lat="36.04560566462983" lon="-107.06383411012496"><ele>2156.0</ele><time>2026-05-03T17:09:01Z</time></trkpt><trkpt lat="36.045715108093056" lon="-107.06385102336621"><ele>2156.0</ele><time>2026-05-03T17:09:02Z</time></trkpt><trkpt lat="36.04585537151978" lon="-107.06386026734694"><ele>2156.0</ele><time>2026-05-03T17:09:03Z</time></trkpt><trkpt lat="36.045988888265114" lon="-107.06383053623634"><ele>2156.6666666666665</ele><time>2026-05-03T17:09:04Z</time></trkpt><trkpt lat="36.04616225944669" lon="-107.06379949550085"><ele>2157.3333333333335</ele><time>2026-05-03T17:09:05Z</time></trkpt><trkpt lat="36.04633210803251" lon="-107.06380552899024"><ele>2158.0</ele><time>2026-05-03T17:09:06Z</time></trkpt><trkpt lat="36.04646526741632" lon="-107.06383053193576"><ele>2158.0</ele><time>2026-05-03T17:09:07Z</time></trkpt><trkpt lat="36.04658049435348" lon="-107.06383632083187"><ele>2158.0</ele><time>2026-05-03T17:09:08Z</time></trkpt><trkpt lat="36.04669098309148" lon="-107.06383326361147"><ele>2158.0</ele><time>2026-05-03T17:09:09Z</time></trkpt><trkpt lat="36.04679302734192" lon="-107.06379970880516"><ele>2158.0</ele><time>2026-05-03T17:09:10Z</time></trkpt><trkpt lat="36.04687146467286" lon="-107.06368428339913"><ele>2158.4</ele><time>2026-05-03T17:09:11Z</time></trkpt><trkpt lat="36.04695934415612" lon="-107.06358971342634"><ele>2158.8</ele><time>2026-05-03T17:09:12Z</time></trkpt><trkpt lat="36.04704461779588" lon="-107.06349345867775"><ele>2159.2</ele><time>2026-05-03T17:09:13Z</time></trkpt><trkpt lat="36.047125013608806" lon="-107.0634165098576"><ele>2159.6</ele><time>2026-05-03T17:09:14Z</time></trkpt><trkpt lat="36.0472247227084" lon="-107.06338147874462"><ele>2160.0</ele><time>2026-05-03T17:09:15Z</time></trkpt><trkpt lat="36.04730636206052" lon="-107.06332217661888"><ele>2160.8</ele><time>2026-05-03T17:09:16Z</time></trkpt><trkpt lat="36.04739494677704" lon="-107.06322537407972"><ele>2161.6</ele><time>2026-05-03T17:09:17Z</time></trkpt><trkpt lat="36.04749667054048" lon="-107.06314781093205"><ele>2162.4</ele><time>2026-05-03T17:09:18Z</time></trkpt><trkpt lat="36.047575582989914" lon="-107.06308778932443"><ele>2163.2</ele><time>2026-05-03T17:09:19Z</time></trkpt><trkpt lat="36.04765906117827" lon="-107.06302238409924"><ele>2164.0</ele><time>2026-05-03T17:09:20Z</time></trkpt><trkpt lat="36.04773715059005" lon="-107.06294743460947"><ele>2164.166666666667</ele><time>2026-05-03T17:09:21Z</time></trkpt><trkpt lat="36.04779716102735" lon="-107.06285611344845"><ele>2164.3333333333335</ele><time>2026-05-03T17:09:22Z</time></trkpt><trkpt lat="36.047828840870764" lon="-107.0627659135773"><ele>2164.5</ele><time>2026-05-03T17:09:23Z</time></trkpt><trkpt lat="36.047883168139705" lon="-107.06272458594906"><ele>2164.6666666666665</ele><time>2026-05-03T17:09:24Z</time></trkpt><trkpt lat="36.047976903755895" lon="-107.06272004008594"><ele>2164.833333333333</ele><time>2026-05-03T17:09:25Z</time></trkpt><trkpt lat="36.04805701790506" lon="-107.06269165723957"><ele>2165.0</ele><time>2026-05-03T17:09:26Z</time></trkpt><trkpt lat="36.048119484103474" lon="-107.06262264318407"><ele>2165.0</ele><time>2026-05-03T17:09:27Z</time></trkpt><trkpt lat="36.0481620566243" lon="-107.06253044289429"><ele>2165.0</ele><time>2026-05-03T17:09:28Z</time></trkpt><trkpt lat="36.048211018873175" lon="-107.06240062504482"><ele>2165.0</ele><time>2026-05-03T17:09:29Z</time></trkpt><trkpt lat="36.048281290168276" lon="-107.06231454291796"><ele>2165.0</ele><time>2026-05-03T17:09:30Z</time></trkpt><trkpt lat="36.0483762948079" lon="-107.06226299442322"><ele>2165.0</ele><time>2026-05-03T17:09:31Z</time></trkpt><trkpt lat="36.04845985671441" lon="-107.0621850785696"><ele>2165.4</ele><time>2026-05-03T17:09:32Z</time></trkpt><trkpt lat="36.04852853327062" lon="-107.06210520966208"><ele>2165.8</ele><time>2026-05-03T17:09:33Z</time></trkpt><trkpt lat="36.04859989788421" lon="-107.0620222652128"><ele>2166.2</ele><time>2026-05-03T17:09:34Z</time></trkpt><trkpt lat="36.04865313558125" lon="-107.06194031545522"><ele>2166.6</ele><time>2026-05-03T17:09:35Z</time></trkpt><trkpt lat="36.04873358608115" lon="-107.06187354283882"><ele>2167.0</ele><time>2026-05-03T17:09:36Z</time></trkpt><trkpt lat="36.048820440745956" lon="-107.06180613593003"><ele>2167.0</ele><time>2026-05-03T17:09:37Z</time></trkpt><trkpt lat="36.04889660482019" lon="-107.06175569580041"><ele>2167.0</ele><time>2026-05-03T17:09:38Z</time></trkpt><trkpt lat="36.048973769945405" lon="-107.0617406150182"><ele>2167.0</ele><time>2026-05-03T17:09:39Z</time></trkpt><trkpt lat="36.04905767571515" lon="-107.0617295168113"><ele>2167.0</ele><time>2026-05-03T17:09:40Z</time></trkpt><trkpt lat="36.04916266863577" lon="-107.06168806879745"><ele>2167.0</ele><time>2026-05-03T17:09:41Z</time></trkpt><trkpt lat="36.04923212711847" lon="-107.06158187085455"><ele>2167.5</ele><time>2026-05-03T17:09:42Z</time></trkpt><trkpt lat="36.04931505558937" lon="-107.06150112688925"><ele>2168.0</ele><time>2026-05-03T17:09:43Z</time></trkpt><trkpt lat="36.04941141611236" lon="-107.0614178723332"><ele>2168.5</ele><time>2026-05-03T17:09:44Z</time></trkpt><trkpt lat="36.04951052953596" lon="-107.061320528522"><ele>2169.0</ele><time>2026-05-03T17:09:45Z</time></trkpt><trkpt lat="36.04955832475449" lon="-107.06120455829685"><ele>2169.0</ele><time>2026-05-03T17:09:46Z</time></trkpt><trkpt lat="36.04961412070583" lon="-107.06115246888312"><ele>2169.0</ele><time>2026-05-03T17:09:47Z</time></trkpt><trkpt lat="36.04967332544433" lon="-107.06105292962818"><ele>2169.0</ele><time>2026-05-03T17:09:48Z</time></trkpt><trkpt lat="36.0497241192722" lon="-107.06098256274996"><ele>2169.0</ele><time>2026-05-03T17:09:49Z</time></trkpt><trkpt lat="36.0496949634586" lon="-107.06090184021828"><ele>2169.0</ele><time>2026-05-03T17:09:50Z</time></trkpt><trkpt lat="36.04963834127666" lon="-107.06078735238796"><ele>2169.0</ele><time>2026-05-03T17:09:51Z</time></trkpt><trkpt lat="36.04964297466315" lon="-107.06070341767779"><ele>2170.0</ele><time>2026-05-03T17:09:52Z</time></trkpt><trkpt lat="36.049680072428835" lon="-107.06059065890712"><ele>2171.0</ele><time>2026-05-03T17:09:53Z</time></trkpt><trkpt lat="36.049733888379876" lon="-107.06046744057555"><ele>2172.0</ele><time>2026-05-03T17:09:54Z</time></trkpt><trkpt lat="36.0497473260022" lon="-107.06036181006033"><ele>2173.0</ele><time>2026-05-03T17:09:55Z</time></trkpt><trkpt lat="36.049794436703344" lon="-107.06028003646612"><ele>2174.0</ele><time>2026-05-03T17:09:56Z</time></trkpt><trkpt lat="36.049860979517874" lon="-107.06022375995542"><ele>2174.0</ele><time>2026-05-03T17:09:57Z</time></trkpt><trkpt lat="36.049931242215365" lon="-107.06017976491427"><ele>2174.0</ele><time>2026-05-03T17:09:58Z</time></trkpt><trkpt lat="36.04997025017121" lon="-107.0601017346578"><ele>2174.0</ele><time>2026-05-03T17:09:59Z</time></trkpt><trkpt lat="36.04998244311546" lon="-107.06001247983744"><ele>2174.0</ele><time>2026-05-03T17:10:00Z</time></trkpt><trkpt lat="36.05006103116902" lon="-107.05998889170813"><ele>2174.0</ele><time>2026-05-03T17:10:01Z</time></trkpt><trkpt lat="36.05011674290724" lon="-107.059936733477"><ele>2174.0</ele><time>2026-05-03T17:10:02Z</time></trkpt><trkpt lat="36.050167445099135" lon="-107.05983083623863"><ele>2174.4</ele><time>2026-05-03T17:10:03Z</time></trkpt><trkpt lat="36.05020872536069" lon="-107.05973190695325"><ele>2174.8</ele><time>2026-05-03T17:10:04Z</time></trkpt><trkpt lat="36.05022884989442" lon="-107.0596071555586"><ele>2175.2</ele><time>2026-05-03T17:10:05Z</time></trkpt><trkpt lat="36.05033849087716" lon="-107.05953147156765"><ele>2175.6</ele><time>2026-05-03T17:10:06Z</time></trkpt><trkpt lat="36.05041522182111" lon="-107.0594815968692"><ele>2176.0</ele><time>2026-05-03T17:10:07Z</time></trkpt><trkpt lat="36.050451504140725" lon="-107.05937983231875"><ele>2176.0</ele><time>2026-05-03T17:10:08Z</time></trkpt><trkpt lat="36.05051311195801" lon="-107.05926722738103"><ele>2176.0</ele><time>2026-05-03T17:10:09Z</time></trkpt><trkpt lat="36.05059730215907" lon="-107.05914959716604"><ele>2176.0</ele><time>2026-05-03T17:10:10Z</time></trkpt><trkpt lat="36.05066608679291" lon="-107.05903641974862"><ele>2176.0</ele><time>2026-05-03T17:10:11Z</time></trkpt><trkpt lat="36.05069483405004" lon="-107.05890032290776"><ele>2177.0</ele><time>2026-05-03T17:10:12Z</time></trkpt><trkpt lat="36.05073523812244" lon="-107.05873213725526"><ele>2178.0</ele><time>2026-05-03T17:10:13Z</time></trkpt><trkpt lat="36.050791678528384" lon="-107.05860347923077"><ele>2179.0</ele><time>2026-05-03T17:10:14Z</time></trkpt><trkpt lat="36.050845723608504" lon="-107.05849102488062"><ele>2180.0</ele><time>2026-05-03T17:10:15Z</time></trkpt><trkpt lat="36.05093824784675" lon="-107.05840444572536"><ele>2180.5</ele><time>2026-05-03T17:10:16Z</time></trkpt><trkpt lat="36.05105837286856" lon="-107.05829496410745"><ele>2181.0</ele><time>2026-05-03T17:10:17Z</time></trkpt><trkpt lat="36.05114137651315" lon="-107.05818433786148"><ele>2181.5</ele><time>2026-05-03T17:10:18Z</time></trkpt><trkpt lat="36.051230972535535" lon="-107.05809732692566"><ele>2182.0</ele><time>2026-05-03T17:10:19Z</time></trkpt><trkpt lat="36.05131328526256" lon="-107.05797544959273"><ele>2183.0</ele><time>2026-05-03T17:10:20Z</time></trkpt><trkpt lat="36.05141725599534" lon="-107.05784748881483"><ele>2184.0</ele><time>2026-05-03T17:10:21Z</time></trkpt><trkpt lat="36.051501494536225" lon="-107.0577153543114"><ele>2185.0</ele><time>2026-05-03T17:10:22Z</time></trkpt><trkpt lat="36.05155553355446" lon="-107.05760636775"><ele>2186.0</ele><time>2026-05-03T17:10:23Z</time></trkpt><trkpt lat="36.0515877370136" lon="-107.05748711726551"><ele>2187.2</ele><time>2026-05-03T17:10:24Z</time></trkpt><trkpt lat="36.05161979225962" lon="-107.05733017890702"><ele>2188.3999999999996</ele><time>2026-05-03T17:10:25Z</time></trkpt><trkpt lat="36.05164004124968" lon="-107.0572391920316"><ele>2189.6</ele><time>2026-05-03T17:10:26Z</time></trkpt><trkpt lat="36.05162201326546" lon="-107.05714342818132"><ele>2190.7999999999997</ele><time>2026-05-03T17:10:27Z</time></trkpt><trkpt lat="36.05155140343349" lon="-107.05702367590673"><ele>2192.0</ele><time>2026-05-03T17:10:28Z</time></trkpt><trkpt lat="36.05147568946785" lon="-107.05690826053652"><ele>2192.0</ele><time>2026-05-03T17:10:29Z</time></trkpt><trkpt lat="36.05140252891498" lon="-107.0568170841366"><ele>2192.0</ele><time>2026-05-03T17:10:30Z</time></trkpt><trkpt lat="36.051429741900805" lon="-107.05673357546311"><ele>2192.0</ele><time>2026-05-03T17:10:32Z</time></trkpt><trkpt lat="36.051564205173875" lon="-107.05675843350737"><ele>2192.0</ele><time>2026-05-03T17:10:34Z</time></trkpt><trkpt lat="36.0516609515491" lon="-107.05673723488607"><ele>2192.0</ele><time>2026-05-03T17:10:35Z</time></trkpt><trkpt lat="36.051779950896695" lon="-107.05669907131612"><ele>2192.0</ele><time>2026-05-03T17:10:36Z</time></trkpt><trkpt lat="36.05190400944242" lon="-107.05663776629315"><ele>2192.0</ele><time>2026-05-03T17:10:37Z</time></trkpt><trkpt lat="36.0519779650927" lon="-107.05656790888769"><ele>2192.0</ele><time>2026-05-03T17:10:38Z</time></trkpt><trkpt lat="36.051990175618265" lon="-107.0564743922957"><ele>2192.0</ele><time>2026-05-03T17:10:39Z</time></trkpt><trkpt lat="36.052009323193985" lon="-107.05634292336288"><ele>2192.0</ele><time>2026-05-03T17:10:40Z</time></trkpt><trkpt lat="36.05198224731761" lon="-107.05621623981081"><ele>2193.0</ele><time>2026-05-03T17:10:41Z</time></trkpt><trkpt lat="36.051939984646836" lon="-107.0560916586498"><ele>2194.0</ele><time>2026-05-03T17:10:42Z</time></trkpt><trkpt lat="36.05195677051908" lon="-107.05601634742914"><ele>2195.0</ele><time>2026-05-03T17:10:43Z</time></trkpt><trkpt lat="36.05201155116032" lon="-107.05589072510226"><ele>2196.0</ele><time>2026-05-03T17:10:44Z</time></trkpt><trkpt lat="36.05207079294926" lon="-107.05577591369405"><ele>2197.0</ele><time>2026-05-03T17:10:45Z</time></trkpt><trkpt lat="36.052153605503705" lon="-107.05568193276444"><ele>2198.75</ele><time>2026-05-03T17:10:46Z</time></trkpt><trkpt lat="36.05227515815329" lon="-107.05560144105503"><ele>2200.5</ele><time>2026-05-03T17:10:47Z</time></trkpt><trkpt lat="36.05231073041603" lon="-107.05549455504321"><ele>2202.25</ele><time>2026-05-03T17:10:48Z</time></trkpt><trkpt lat="36.05225924762204" lon="-107.05536549455822"><ele>2204.0</ele><time>2026-05-03T17:10:49Z</time></trkpt><trkpt lat="36.052224361050556" lon="-107.05523450850613"><ele>2204.0</ele><time>2026-05-03T17:10:50Z</time></trkpt><trkpt lat="36.05216881562305" lon="-107.055147142623"><ele>2204.0</ele><time>2026-05-03T17:10:51Z</time></trkpt><trkpt lat="36.05201149382867" lon="-107.05512219729314"><ele>2204.0</ele><time>2026-05-03T17:10:53Z</time></trkpt><trkpt lat="36.05190827006349" lon="-107.05510643061278"><ele>2204.0</ele><time>2026-05-03T17:10:54Z</time></trkpt><trkpt lat="36.051936590640054" lon="-107.05492657785676"><ele>2205.2</ele><time>2026-05-03T17:10:56Z</time></trkpt><trkpt lat="36.05193920423919" lon="-107.05483104789809"><ele>2206.4</ele><time>2026-05-03T17:10:57Z</time></trkpt><trkpt lat="36.05202593467708" lon="-107.05468977780184"><ele>2207.6</ele><time>2026-05-03T17:10:59Z</time></trkpt><trkpt lat="36.0521022824836" lon="-107.05460096195222"><ele>2208.8</ele><time>2026-05-03T17:11:00Z</time></trkpt><trkpt lat="36.0521463640207" lon="-107.05447798377453"><ele>2210.0</ele><time>2026-05-03T17:11:01Z</time></trkpt><trkpt lat="36.052215852936186" lon="-107.0543209725158"><ele>2210.0</ele><time>2026-05-03T17:11:02Z</time></trkpt><trkpt lat="36.0522823880524" lon="-107.05419434657557"><ele>2210.0</ele><time>2026-05-03T17:11:03Z</time></trkpt><trkpt lat="36.052381063957405" lon="-107.0540924437917"><ele>2210.0</ele><time>2026-05-03T17:11:04Z</time></trkpt><trkpt lat="36.05248575826071" lon="-107.05400379365143"><ele>2210.0</ele><time>2026-05-03T17:11:05Z</time></trkpt><trkpt lat="36.05256586839541" lon="-107.05393008130265"><ele>2211.25</ele><time>2026-05-03T17:11:06Z</time></trkpt><trkpt lat="36.05263030265191" lon="-107.05379327643413"><ele>2212.5</ele><time>2026-05-03T17:11:07Z</time></trkpt><trkpt lat="36.05270276158248" lon="-107.05369796444705"><ele>2213.75</ele><time>2026-05-03T17:11:08Z</time></trkpt><trkpt lat="36.0527235206036" lon="-107.05351585193279"><ele>2215.0</ele><time>2026-05-03T17:11:10Z</time></trkpt><trkpt lat="36.05276778254575" lon="-107.05337867780592"><ele>2216.2</ele><time>2026-05-03T17:11:11Z</time></trkpt><trkpt lat="36.05281375135366" lon="-107.0532643822466"><ele>2217.4</ele><time>2026-05-03T17:11:12Z</time></trkpt><trkpt lat="36.052806915830104" lon="-107.0531511895094"><ele>2218.6</ele><time>2026-05-03T17:11:13Z</time></trkpt><trkpt lat="36.05284762510682" lon="-107.05305107015565"><ele>2219.8</ele><time>2026-05-03T17:11:14Z</time></trkpt><trkpt lat="36.0529091892888" lon="-107.05293223679597"><ele>2221.0</ele><time>2026-05-03T17:11:15Z</time></trkpt><trkpt lat="36.05292604966731" lon="-107.05283525321731"><ele>2221.0</ele><time>2026-05-03T17:11:16Z</time></trkpt><trkpt lat="36.052891165079984" lon="-107.05271362813376"><ele>2221.0</ele><time>2026-05-03T17:11:17Z</time></trkpt><trkpt lat="36.05288815158582" lon="-107.0525698775933"><ele>2221.0</ele><time>2026-05-03T17:11:18Z</time></trkpt><trkpt lat="36.05288670721994" lon="-107.05245009849618"><ele>2221.0</ele><time>2026-05-03T17:11:19Z</time></trkpt><trkpt lat="36.052860600511764" lon="-107.05232772679278"><ele>2221.0</ele><time>2026-05-03T17:11:20Z</time></trkpt><trkpt lat="36.05280081387157" lon="-107.05223421554776"><ele>2221.6</ele><time>2026-05-03T17:11:21Z</time></trkpt><trkpt lat="36.052762202506656" lon="-107.05213078434278"><ele>2222.2</ele><time>2026-05-03T17:11:22Z</time></trkpt><trkpt lat="36.05272985261715" lon="-107.05202588291617"><ele>2222.8</ele><time>2026-05-03T17:11:23Z</time></trkpt><trkpt lat="36.05268169879338" lon="-107.05193274035"><ele>2223.4</ele><time>2026-05-03T17:11:24Z</time></trkpt><trkpt lat="36.05261540841619" lon="-107.0517991557634"><ele>2224.0</ele><time>2026-05-03T17:11:25Z</time></trkpt><trkpt lat="36.05253085116459" lon="-107.05168371399"><ele>2224.0</ele><time>2026-05-03T17:11:26Z</time></trkpt><trkpt lat="36.05245737367269" lon="-107.05163831399031"><ele>2224.0</ele><time>2026-05-03T17:11:27Z</time></trkpt><trkpt lat="36.05235054130073" lon="-107.05167111211351"><ele>2224.0</ele><time>2026-05-03T17:11:28Z</time></trkpt><trkpt lat="36.052235513379884" lon="-107.0517042761211"><ele>2224.0</ele><time>2026-05-03T17:11:29Z</time></trkpt><trkpt lat="36.05213053082489" lon="-107.05179072914122"><ele>2224.0</ele><time>2026-05-03T17:11:30Z</time></trkpt><trkpt lat="36.05202985629336" lon="-107.05185411331306"><ele>2222.0</ele><time>2026-05-03T17:11:31Z</time></trkpt><trkpt lat="36.05195306983621" lon="-107.05182001736591"><ele>2220.0</ele><time>2026-05-03T17:11:32Z</time></trkpt><trkpt lat="36.05188880765489" lon="-107.05176154018416"><ele>2218.0</ele><time>2026-05-03T17:11:33Z</time></trkpt><trkpt lat="36.05182072230213" lon="-107.05172430807504"><ele>2216.0</ele><time>2026-05-03T17:11:34Z</time></trkpt><trkpt lat="36.05170415643628" lon="-107.05166642385785"><ele>2214.0</ele><time>2026-05-03T17:11:35Z</time></trkpt><trkpt lat="36.051588578298094" lon="-107.05167515850758"><ele>2213.5</ele><time>2026-05-03T17:11:36Z</time></trkpt><trkpt lat="36.051459195164206" lon="-107.05165963500215"><ele>2213.0</ele><time>2026-05-03T17:11:37Z</time></trkpt><trkpt lat="36.05133657381429" lon="-107.05159990063991"><ele>2212.5</ele><time>2026-05-03T17:11:38Z</time></trkpt><trkpt lat="36.05122742794816" lon="-107.05148740890193"><ele>2212.0</ele><time>2026-05-03T17:11:39Z</time></trkpt><trkpt lat="36.05111724476579" lon="-107.0513234374874"><ele>2211.5</ele><time>2026-05-03T17:11:40Z</time></trkpt><trkpt lat="36.05100725043806" lon="-107.05115912992554"><ele>2211.0</ele><time>2026-05-03T17:11:41Z</time></trkpt><trkpt lat="36.05090850238381" lon="-107.05103637365478"><ele>2210.5</ele><time>2026-05-03T17:11:42Z</time></trkpt><trkpt lat="36.050835979274034" lon="-107.05093928811141"><ele>2210.0</ele><time>2026-05-03T17:11:43Z</time></trkpt><trkpt lat="36.05085014595559" lon="-107.05075872259023"><ele>2210.0</ele><time>2026-05-03T17:11:45Z</time></trkpt><trkpt lat="36.05089801348634" lon="-107.0506420460008"><ele>2210.0</ele><time>2026-05-03T17:11:46Z</time></trkpt><trkpt lat="36.05096087361646" lon="-107.05052159382485"><ele>2210.0</ele><time>2026-05-03T17:11:47Z</time></trkpt><trkpt lat="36.05107635122825" lon="-107.05044320819842"><ele>2210.0</ele><time>2026-05-03T17:11:48Z</time></trkpt><trkpt lat="36.05120746346181" lon="-107.05036476462575"><ele>2210.0</ele><time>2026-05-03T17:11:49Z</time></trkpt><trkpt lat="36.05134255680271" lon="-107.05031307804575"><ele>2210.0</ele><time>2026-05-03T17:11:50Z</time></trkpt><trkpt lat="36.05149579695292" lon="-107.05027103120146"><ele>2210.0</ele><time>2026-05-03T17:11:51Z</time></trkpt><trkpt lat="36.05165041953515" lon="-107.05020935718595"><ele>2211.25</ele><time>2026-05-03T17:11:52Z</time></trkpt><trkpt lat="36.05178541120778" lon="-107.05016739586664"><ele>2212.5</ele><time>2026-05-03T17:11:53Z</time></trkpt><trkpt lat="36.05193517473079" lon="-107.05016424097563"><ele>2213.75</ele><time>2026-05-03T17:11:54Z</time></trkpt><trkpt lat="36.052075510625066" lon="-107.05016253820004"><ele>2215.0</ele><time>2026-05-03T17:11:55Z</time></trkpt><trkpt lat="36.05219343643721" lon="-107.0502056637962"><ele>2215.0</ele><time>2026-05-03T17:11:56Z</time></trkpt><trkpt lat="36.052308244503735" lon="-107.05028848700286"><ele>2215.0</ele><time>2026-05-03T17:11:57Z</time></trkpt><trkpt lat="36.05242664015431" lon="-107.05030650056827"><ele>2215.0</ele><time>2026-05-03T17:11:58Z</time></trkpt><trkpt lat="36.05253298512666" lon="-107.05025238732709"><ele>2215.0</ele><time>2026-05-03T17:11:59Z</time></trkpt><trkpt lat="36.05266458097075" lon="-107.0502156304043"><ele>2216.0</ele><time>2026-05-03T17:12:00Z</time></trkpt><trkpt lat="36.05276705122435" lon="-107.05015968939075"><ele>2217.0</ele><time>2026-05-03T17:12:01Z</time></trkpt><trkpt lat="36.05290277114231" lon="-107.05014720132277"><ele>2218.0</ele><time>2026-05-03T17:12:02Z</time></trkpt><trkpt lat="36.05304330224877" lon="-107.05017359147338"><ele>2219.0</ele><time>2026-05-03T17:12:03Z</time></trkpt><trkpt lat="36.05316348845844" lon="-107.05018352251344"><ele>2219.0</ele><time>2026-05-03T17:12:04Z</time></trkpt><trkpt lat="36.05327197118284" lon="-107.05019235059096"><ele>2219.0</ele><time>2026-05-03T17:12:05Z</time></trkpt><trkpt lat="36.053389143121876" lon="-107.05022880063711"><ele>2219.0</ele><time>2026-05-03T17:12:06Z</time></trkpt><trkpt lat="36.05349567495167" lon="-107.05035189311845"><ele>2219.0</ele><time>2026-05-03T17:12:07Z</time></trkpt><trkpt lat="36.053607596801534" lon="-107.05047789987151"><ele>2220.5</ele><time>2026-05-03T17:12:08Z</time></trkpt><trkpt lat="36.0537154475878" lon="-107.05053573204508"><ele>2222.0</ele><time>2026-05-03T17:12:09Z</time></trkpt><trkpt lat="36.05385164582291" lon="-107.05054617938676"><ele>2223.5</ele><time>2026-05-03T17:12:10Z</time></trkpt><trkpt lat="36.05397907935071" lon="-107.05056341918971"><ele>2225.0</ele><time>2026-05-03T17:12:11Z</time></trkpt><trkpt lat="36.05408110198429" lon="-107.05061678058752"><ele>2226.5</ele><time>2026-05-03T17:12:12Z</time></trkpt><trkpt lat="36.05418587360863" lon="-107.05070654088078"><ele>2228.0</ele><time>2026-05-03T17:12:13Z</time></trkpt><trkpt lat="36.054282429546" lon="-107.05079518285565"><ele>2229.5</ele><time>2026-05-03T17:12:14Z</time></trkpt><trkpt lat="36.05436593273512" lon="-107.05088979703221"><ele>2231.0</ele><time>2026-05-03T17:12:15Z</time></trkpt><trkpt lat="36.0544409705141" lon="-107.0510038593645"><ele>2231.0</ele><time>2026-05-03T17:12:16Z</time></trkpt><trkpt lat="36.054513885979084" lon="-107.05113025877918"><ele>2231.0</ele><time>2026-05-03T17:12:17Z</time></trkpt><trkpt lat="36.05456972556469" lon="-107.05121500437214"><ele>2231.0</ele><time>2026-05-03T17:12:18Z</time></trkpt><trkpt lat="36.05458637419027" lon="-107.05130075945816"><ele>2231.0</ele><time>2026-05-03T17:12:20Z</time></trkpt><trkpt lat="36.05453980287872" lon="-107.05136814701777"><ele>2231.0</ele><time>2026-05-03T17:12:22Z</time></trkpt><trkpt lat="36.054639152912486" lon="-107.05140848622791"><ele>2231.0</ele><time>2026-05-03T17:12:24Z</time></trkpt><trkpt lat="36.05474615752863" lon="-107.05147580004171"><ele>2231.0</ele><time>2026-05-03T17:12:26Z</time></trkpt><trkpt lat="36.0548529114499" lon="-107.0515018853761"><ele>2231.0</ele><time>2026-05-03T17:12:27Z</time></trkpt><trkpt lat="36.05492296638968" lon="-107.05145693221924"><ele>2231.0</ele><time>2026-05-03T17:12:28Z</time></trkpt><trkpt lat="36.05503425507029" lon="-107.05140360224758"><ele>2231.0</ele><time>2026-05-03T17:12:29Z</time></trkpt><trkpt lat="36.05511717647037" lon="-107.05136360181744"><ele>2231.8</ele><time>2026-05-03T17:12:30Z</time></trkpt><trkpt lat="36.05524899698837" lon="-107.05138188970028"><ele>2232.6</ele><time>2026-05-03T17:12:32Z</time></trkpt><trkpt lat="36.05533753390787" lon="-107.05145141282023"><ele>2233.4</ele><time>2026-05-03T17:12:33Z</time></trkpt><trkpt lat="36.0554350666185" lon="-107.0514490962045"><ele>2234.2</ele><time>2026-05-03T17:12:34Z</time></trkpt><trkpt lat="36.055506097688266" lon="-107.05140936663275"><ele>2235.0</ele><time>2026-05-03T17:12:35Z</time></trkpt><trkpt lat="36.055596899381" lon="-107.05138167320261"><ele>2235.0</ele><time>2026-05-03T17:12:36Z</time></trkpt><trkpt lat="36.05567033429182" lon="-107.05134869025174"><ele>2235.0</ele><time>2026-05-03T17:12:37Z</time></trkpt><trkpt lat="36.05572506372572" lon="-107.05129007470649"><ele>2235.0</ele><time>2026-05-03T17:12:38Z</time></trkpt><trkpt lat="36.055778732225576" lon="-107.05115677680641"><ele>2235.0</ele><time>2026-05-03T17:12:39Z</time></trkpt><trkpt lat="36.05585195791841" lon="-107.05101104669944"><ele>2235.0</ele><time>2026-05-03T17:12:40Z</time></trkpt><trkpt lat="36.055935767698124" lon="-107.05089975483631"><ele>2236.25</ele><time>2026-05-03T17:12:41Z</time></trkpt><trkpt lat="36.056032056046774" lon="-107.05077126285138"><ele>2237.5</ele><time>2026-05-03T17:12:42Z</time></trkpt><trkpt lat="36.05615724941571" lon="-107.0506531969805"><ele>2238.75</ele><time>2026-05-03T17:12:43Z</time></trkpt><trkpt lat="36.056265483041564" lon="-107.05053770436433"><ele>2240.0</ele><time>2026-05-03T17:12:44Z</time></trkpt><trkpt lat="36.056367363392795" lon="-107.0504248875953"><ele>2240.0</ele><time>2026-05-03T17:12:45Z</time></trkpt><trkpt lat="36.056481760179736" lon="-107.0502829586559"><ele>2240.0</ele><time>2026-05-03T17:12:46Z</time></trkpt><trkpt lat="36.05656618194012" lon="-107.05017563818967"><ele>2240.0</ele><time>2026-05-03T17:12:47Z</time></trkpt><trkpt lat="36.05664376181144" lon="-107.05008115642259"><ele>2240.0</ele><time>2026-05-03T17:12:48Z</time></trkpt><trkpt lat="36.056681877673725" lon="-107.04997608277456"><ele>2239.0</ele><time>2026-05-03T17:12:49Z</time></trkpt><trkpt lat="36.05672153039312" lon="-107.04984164619165"><ele>2238.0</ele><time>2026-05-03T17:12:50Z</time></trkpt><trkpt lat="36.05673974976345" lon="-107.04971996809803"><ele>2237.0</ele><time>2026-05-03T17:12:51Z</time></trkpt><trkpt lat="36.0567194603821" lon="-107.04958950786144"><ele>2236.0</ele><time>2026-05-03T17:12:52Z</time></trkpt><trkpt lat="36.05672408081983" lon="-107.04942661823556"><ele>2236.0</ele><time>2026-05-03T17:12:53Z</time></trkpt><trkpt lat="36.05677207043417" lon="-107.04926875477116"><ele>2236.0</ele><time>2026-05-03T17:12:54Z</time></trkpt><trkpt lat="36.05681922140624" lon="-107.04909849101757"><ele>2236.0</ele><time>2026-05-03T17:12:55Z</time></trkpt><trkpt lat="36.05684347897406" lon="-107.0489149159158"><ele>2236.0</ele><time>2026-05-03T17:12:56Z</time></trkpt><trkpt lat="36.0568513800891" lon="-107.04873021800638"><ele>2235.5</ele><time>2026-05-03T17:12:57Z</time></trkpt><trkpt lat="36.05684512853633" lon="-107.04854653848055"><ele>2235.0</ele><time>2026-05-03T17:12:58Z</time></trkpt><trkpt lat="36.05684545002635" lon="-107.04837335940223"><ele>2234.5</ele><time>2026-05-03T17:12:59Z</time></trkpt><trkpt lat="36.0568636788238" lon="-107.04818809712033"><ele>2234.0</ele><time>2026-05-03T17:13:00Z</time></trkpt><trkpt lat="36.05687028570776" lon="-107.04801795189347"><ele>2233.0</ele><time>2026-05-03T17:13:01Z</time></trkpt><trkpt lat="36.056880563830106" lon="-107.04786000384566"><ele>2232.0</ele><time>2026-05-03T17:13:02Z</time></trkpt><trkpt lat="36.05689395489215" lon="-107.04771969993159"><ele>2231.0</ele><time>2026-05-03T17:13:03Z</time></trkpt><trkpt lat="36.05693274965472" lon="-107.04759037725601"><ele>2230.0</ele><time>2026-05-03T17:13:04Z</time></trkpt><trkpt lat="36.05696128263463" lon="-107.04746338579315"><ele>2228.75</ele><time>2026-05-03T17:13:05Z</time></trkpt><trkpt lat="36.056967270257154" lon="-107.04732546486547"><ele>2227.5</ele><time>2026-05-03T17:13:06Z</time></trkpt><trkpt lat="36.0569605498122" lon="-107.047197120131"><ele>2226.25</ele><time>2026-05-03T17:13:07Z</time></trkpt><trkpt lat="36.056939919125554" lon="-107.04704725958149"><ele>2225.0</ele><time>2026-05-03T17:13:08Z</time></trkpt><trkpt lat="36.05692236591563" lon="-107.0468784901565"><ele>2225.0</ele><time>2026-05-03T17:13:09Z</time></trkpt><trkpt lat="36.05689999563488" lon="-107.04673534097604"><ele>2225.0</ele><time>2026-05-03T17:13:10Z</time></trkpt><trkpt lat="36.056882303870466" lon="-107.04656772001624"><ele>2225.0</ele><time>2026-05-03T17:13:11Z</time></trkpt><trkpt lat="36.056883304546304" lon="-107.04638865479156"><ele>2225.0</ele><time>2026-05-03T17:13:12Z</time></trkpt><trkpt lat="36.05688805755998" lon="-107.04623295314062"><ele>2225.0</ele><time>2026-05-03T17:13:13Z</time></trkpt><trkpt lat="36.05689604237384" lon="-107.04610611437028"><ele>2225.0</ele><time>2026-05-03T17:13:14Z</time></trkpt><trkpt lat="36.05694575552117" lon="-107.04601391170478"><ele>2225.0</ele><time>2026-05-03T17:13:16Z</time></trkpt><trkpt lat="36.05689149244565" lon="-107.04595320995084"><ele>2225.0</ele><time>2026-05-03T17:13:19Z</time></trkpt><trkpt lat="36.05682134214568" lon="-107.04595111326088"><ele>2225.0</ele><time>2026-05-03T17:13:20Z</time></trkpt><trkpt lat="36.05674555241452" lon="-107.0459979728751"><ele>2225.0</ele><time>2026-05-03T17:13:21Z</time></trkpt><trkpt lat="36.05665315999121" lon="-107.04602109530823"><ele>2227.25</ele><time>2026-05-03T17:13:22Z</time></trkpt><trkpt lat="36.056536731880115" lon="-107.04604839670026"><ele>2229.5</ele><time>2026-05-03T17:13:23Z</time></trkpt><trkpt lat="36.056431047932435" lon="-107.04606052691715"><ele>2231.75</ele><time>2026-05-03T17:13:24Z</time></trkpt><trkpt lat="36.05631480857898" lon="-107.04603732812494"><ele>2234.0</ele><time>2026-05-03T17:13:25Z</time></trkpt><trkpt lat="36.05617723210031" lon="-107.04604506706164"><ele>2234.0</ele><time>2026-05-03T17:13:26Z</time></trkpt><trkpt lat="36.056094395578384" lon="-107.04604748733857"><ele>2234.0</ele><time>2026-05-03T17:13:27Z</time></trkpt><trkpt lat="36.05603972603042" lon="-107.04598534044104"><ele>2234.0</ele><time>2026-05-03T17:13:28Z</time></trkpt><trkpt lat="36.05598645087352" lon="-107.04588690116944"><ele>2234.0</ele><time>2026-05-03T17:13:29Z</time></trkpt><trkpt lat="36.05595569043177" lon="-107.0457787960194"><ele>2234.0</ele><time>2026-05-03T17:13:30Z</time></trkpt><trkpt lat="36.055914996870364" lon="-107.04568627171604"><ele>2234.0</ele><time>2026-05-03T17:13:31Z</time></trkpt><trkpt lat="36.05578623125068" lon="-107.04567599326211"><ele>2235.2</ele><time>2026-05-03T17:13:33Z</time></trkpt><trkpt lat="36.05571057622635" lon="-107.04567744904837"><ele>2236.4</ele><time>2026-05-03T17:13:34Z</time></trkpt><trkpt lat="36.05563065782661" lon="-107.04563734690326"><ele>2237.6</ele><time>2026-05-03T17:13:35Z</time></trkpt><trkpt lat="36.055566062575956" lon="-107.04554092647021"><ele>2238.8</ele><time>2026-05-03T17:13:36Z</time></trkpt><trkpt lat="36.055506611280705" lon="-107.04542826358896"><ele>2240.0</ele><time>2026-05-03T17:13:37Z</time></trkpt><trkpt lat="36.055437698681786" lon="-107.04531728925436"><ele>2240.0</ele><time>2026-05-03T17:13:38Z</time></trkpt><trkpt lat="36.05536025499799" lon="-107.04523247982145"><ele>2240.0</ele><time>2026-05-03T17:13:39Z</time></trkpt><trkpt lat="36.05526757868486" lon="-107.04519475842464"><ele>2240.0</ele><time>2026-05-03T17:13:40Z</time></trkpt><trkpt lat="36.055152362128624" lon="-107.0451770533612"><ele>2240.0</ele><time>2026-05-03T17:13:41Z</time></trkpt><trkpt lat="36.05501738320647" lon="-107.0451677652617"><ele>2239.833333333333</ele><time>2026-05-03T17:13:42Z</time></trkpt><trkpt lat="36.05494063624811" lon="-107.04514902649403"><ele>2239.6666666666665</ele><time>2026-05-03T17:13:43Z</time></trkpt><trkpt lat="36.054923135848206" lon="-107.04504765382093"><ele>2239.5</ele><time>2026-05-03T17:13:44Z</time></trkpt><trkpt lat="36.05493656773501" lon="-107.04491015667617"><ele>2239.3333333333335</ele><time>2026-05-03T17:13:45Z</time></trkpt><trkpt lat="36.05498962423279" lon="-107.04482423848512"><ele>2239.166666666667</ele><time>2026-05-03T17:13:46Z</time></trkpt><trkpt lat="36.05506878143569" lon="-107.04478570173855"><ele>2239.0</ele><time>2026-05-03T17:13:47Z</time></trkpt><trkpt lat="36.05515003023042" lon="-107.04473012461021"><ele>2239.0</ele><time>2026-05-03T17:13:48Z</time></trkpt><trkpt lat="36.05521151513402" lon="-107.04470229088987"><ele>2239.0</ele><time>2026-05-03T17:13:49Z</time></trkpt><trkpt lat="36.05527310602465" lon="-107.04466557275813"><ele>2239.0</ele><time>2026-05-03T17:13:50Z</time></trkpt><trkpt lat="36.05535363915036" lon="-107.04452590751069"><ele>2239.0</ele><time>2026-05-03T17:13:52Z</time></trkpt><trkpt lat="36.05540198564316" lon="-107.04443900558849"><ele>2239.0</ele><time>2026-05-03T17:13:53Z</time></trkpt><trkpt lat="36.05543497056057" lon="-107.04434147938859"><ele>2239.0</ele><time>2026-05-03T17:13:54Z</time></trkpt><trkpt lat="36.055346678116486" lon="-107.04422519625791"><ele>2239.0</ele><time>2026-05-03T17:13:56Z</time></trkpt><trkpt lat="36.05526290186487" lon="-107.04416753651549"><ele>2239.0</ele><time>2026-05-03T17:13:57Z</time></trkpt><trkpt lat="36.05516648603588" lon="-107.0440972385914"><ele>2239.0</ele><time>2026-05-03T17:13:58Z</time></trkpt><trkpt lat="36.05510641525893" lon="-107.04400961395874"><ele>2239.0</ele><time>2026-05-03T17:13:59Z</time></trkpt><trkpt lat="36.055077037415664" lon="-107.04385606249888"><ele>2239.0</ele><time>2026-05-03T17:14:00Z</time></trkpt><trkpt lat="36.055041611734914" lon="-107.0437566564653"><ele>2237.0</ele><time>2026-05-03T17:14:01Z</time></trkpt><trkpt lat="36.05494294612662" lon="-107.0436911728871"><ele>2235.0</ele><time>2026-05-03T17:14:02Z</time></trkpt><trkpt lat="36.05484911174917" lon="-107.04357072526435"><ele>2233.0</ele><time>2026-05-03T17:14:03Z</time></trkpt><trkpt lat="36.05477985214391" lon="-107.04345008546541"><ele>2231.0</ele><time>2026-05-03T17:14:04Z</time></trkpt><trkpt lat="36.05474106000153" lon="-107.04336043644045"><ele>2229.0</ele><time>2026-05-03T17:14:05Z</time></trkpt><trkpt lat="36.05473333558844" lon="-107.04325904974684"><ele>2228.4</ele><time>2026-05-03T17:14:06Z</time></trkpt><trkpt lat="36.054722511008926" lon="-107.04314930799043"><ele>2227.8</ele><time>2026-05-03T17:14:07Z</time></trkpt><trkpt lat="36.054685178525105" lon="-107.04307249748977"><ele>2227.2</ele><time>2026-05-03T17:14:08Z</time></trkpt><trkpt lat="36.05467554612651" lon="-107.042905769966"><ele>2226.6</ele><time>2026-05-03T17:14:10Z</time></trkpt><trkpt lat="36.05462394093641" lon="-107.04278674720439"><ele>2226.0</ele><time>2026-05-03T17:14:11Z</time></trkpt><trkpt lat="36.054554439899896" lon="-107.04268409378413"><ele>2226.0</ele><time>2026-05-03T17:14:12Z</time></trkpt><trkpt lat="36.05450199065792" lon="-107.04257597526933"><ele>2226.0</ele><time>2026-05-03T17:14:13Z</time></trkpt><trkpt lat="36.054460881418514" lon="-107.04243180295158"><ele>2226.0</ele><time>2026-05-03T17:14:14Z</time></trkpt><trkpt lat="36.054406705281785" lon="-107.04231482357281"><ele>2226.0</ele><time>2026-05-03T17:14:15Z</time></trkpt><trkpt lat="36.05433666605542" lon="-107.04220773344328"><ele>2226.0</ele><time>2026-05-03T17:14:16Z</time></trkpt><trkpt lat="36.05425131935922" lon="-107.04211482274255"><ele>2224.8</ele><time>2026-05-03T17:14:17Z</time></trkpt><trkpt lat="36.05417361279511" lon="-107.04203882267824"><ele>2223.6</ele><time>2026-05-03T17:14:18Z</time></trkpt><trkpt lat="36.054114256782455" lon="-107.0420093468452"><ele>2222.4</ele><time>2026-05-03T17:14:19Z</time></trkpt><trkpt lat="36.0541256790753" lon="-107.04181737574116"><ele>2221.2</ele><time>2026-05-03T17:14:21Z</time></trkpt><trkpt lat="36.05407093697419" lon="-107.0416864132404"><ele>2220.0</ele><time>2026-05-03T17:14:22Z</time></trkpt><trkpt lat="36.05401814147962" lon="-107.04160263512598"><ele>2219.1666666666665</ele><time>2026-05-03T17:14:23Z</time></trkpt><trkpt lat="36.0539566120755" lon="-107.04150087009596"><ele>2218.3333333333335</ele><time>2026-05-03T17:14:24Z</time></trkpt><trkpt lat="36.05390132287486" lon="-107.04136850214931"><ele>2217.5</ele><time>2026-05-03T17:14:25Z</time></trkpt><trkpt lat="36.05388138568537" lon="-107.04128356213938"><ele>2216.666666666667</ele><time>2026-05-03T17:14:26Z</time></trkpt><trkpt lat="36.05385840996017" lon="-107.0411978937502"><ele>2215.8333333333335</ele><time>2026-05-03T17:14:27Z</time></trkpt><trkpt lat="36.05383211187327" lon="-107.0411035575104"><ele>2215.0</ele><time>2026-05-03T17:14:28Z</time></trkpt><trkpt lat="36.0537476950605" lon="-107.04105355416525"><ele>2215.0</ele><time>2026-05-03T17:14:29Z</time></trkpt><trkpt lat="36.05364061662089" lon="-107.04096734809599"><ele>2215.0</ele><time>2026-05-03T17:14:30Z</time></trkpt><trkpt lat="36.053522045028885" lon="-107.04091208372925"><ele>2215.0</ele><time>2026-05-03T17:14:31Z</time></trkpt><trkpt lat="36.05342654237812" lon="-107.04082343056048"><ele>2215.0</ele><time>2026-05-03T17:14:32Z</time></trkpt><trkpt lat="36.053335570531786" lon="-107.04074782492773"><ele>2213.8</ele><time>2026-05-03T17:14:33Z</time></trkpt><trkpt lat="36.05325701634188" lon="-107.04069008098253"><ele>2212.6</ele><time>2026-05-03T17:14:34Z</time></trkpt><trkpt lat="36.05315272825542" lon="-107.04063634258911"><ele>2211.4</ele><time>2026-05-03T17:14:35Z</time></trkpt><trkpt lat="36.053078279881696" lon="-107.04061954373014"><ele>2210.2</ele><time>2026-05-03T17:14:36Z</time></trkpt><trkpt lat="36.05298817885381" lon="-107.04066571904005"><ele>2209.0</ele><time>2026-05-03T17:14:37Z</time></trkpt><trkpt lat="36.052904474690735" lon="-107.04072274614953"><ele>2209.0</ele><time>2026-05-03T17:14:38Z</time></trkpt><trkpt lat="36.052818886836185" lon="-107.04073364092153"><ele>2209.0</ele><time>2026-05-03T17:14:39Z</time></trkpt><trkpt lat="36.05275670262068" lon="-107.0406970285278"><ele>2209.0</ele><time>2026-05-03T17:14:40Z</time></trkpt><trkpt lat="36.052751505192866" lon="-107.04055743452119"><ele>2209.0</ele><time>2026-05-03T17:14:42Z</time></trkpt><trkpt lat="36.05282666069387" lon="-107.04049556082582"><ele>2209.0</ele><time>2026-05-03T17:14:43Z</time></trkpt><trkpt lat="36.052847062837884" lon="-107.04041741752708"><ele>2209.0</ele><time>2026-05-03T17:14:44Z</time></trkpt><trkpt lat="36.05287662931934" lon="-107.04030484367692"><ele>2209.0</ele><time>2026-05-03T17:14:45Z</time></trkpt><trkpt lat="36.052919473061706" lon="-107.04018738283662"><ele>2209.0</ele><time>2026-05-03T17:14:46Z</time></trkpt><trkpt lat="36.052938102256384" lon="-107.04009323310702"><ele>2209.0</ele><time>2026-05-03T17:14:47Z</time></trkpt><trkpt lat="36.052884426060636" lon="-107.0400000646778"><ele>2209.0</ele><time>2026-05-03T17:14:49Z</time></trkpt><trkpt lat="36.05283599546501" lon="-107.03993481287041"><ele>2209.0</ele><time>2026-05-03T17:14:50Z</time></trkpt><trkpt lat="36.05287106622463" lon="-107.03981607369403"><ele>2209.0</ele><time>2026-05-03T17:14:52Z</time></trkpt><trkpt lat="36.05292295542128" lon="-107.03972402133401"><ele>2207.6</ele><time>2026-05-03T17:14:53Z</time></trkpt><trkpt lat="36.052991255644415" lon="-107.03961671634346"><ele>2206.2</ele><time>2026-05-03T17:14:54Z</time></trkpt><trkpt lat="36.05306106207332" lon="-107.03952542705932"><ele>2204.7999999999997</ele><time>2026-05-03T17:14:55Z</time></trkpt><trkpt lat="36.053126532851934" lon="-107.03947264510103"><ele>2203.4</ele><time>2026-05-03T17:14:56Z</time></trkpt><trkpt lat="36.05318100603291" lon="-107.03942199326966"><ele>2202.0</ele><time>2026-05-03T17:14:57Z</time></trkpt><trkpt lat="36.053270857483405" lon="-107.0393657155046"><ele>2202.8333333333335</ele><time>2026-05-03T17:14:58Z</time></trkpt><trkpt lat="36.0533324368669" lon="-107.03931013540019"><ele>2203.6666666666665</ele><time>2026-05-03T17:14:59Z</time></trkpt><trkpt lat="36.053369813376925" lon="-107.03924593012741"><ele>2204.5</ele><time>2026-05-03T17:15:00Z</time></trkpt><trkpt lat="36.05341810429045" lon="-107.03918962379046"><ele>2205.333333333333</ele><time>2026-05-03T17:15:01Z</time></trkpt><trkpt lat="36.053482325110934" lon="-107.03914587992296"><ele>2206.1666666666665</ele><time>2026-05-03T17:15:02Z</time></trkpt><trkpt lat="36.05353447686771" lon="-107.03908577778925"><ele>2207.0</ele><time>2026-05-03T17:15:03Z</time></trkpt><trkpt lat="36.053583031495684" lon="-107.0389497750573"><ele>2205.0</ele><time>2026-05-03T17:15:04Z</time></trkpt><trkpt lat="36.0536172808385" lon="-107.03882648365813"><ele>2203.0</ele><time>2026-05-03T17:15:05Z</time></trkpt><trkpt lat="36.05357131658621" lon="-107.03868889649291"><ele>2201.0</ele><time>2026-05-03T17:15:07Z</time></trkpt><trkpt lat="36.053521376667675" lon="-107.0385869917283"><ele>2199.0</ele><time>2026-05-03T17:15:08Z</time></trkpt><trkpt lat="36.05347383490287" lon="-107.03846888296506"><ele>2197.0</ele><time>2026-05-03T17:15:09Z</time></trkpt><trkpt lat="36.05343092813905" lon="-107.03838282894199"><ele>2197.0</ele><time>2026-05-03T17:15:10Z</time></trkpt><trkpt lat="36.05334789464917" lon="-107.03833596396626"><ele>2197.0</ele><time>2026-05-03T17:15:11Z</time></trkpt><trkpt lat="36.05321803282208" lon="-107.03829656261888"><ele>2197.0</ele><time>2026-05-03T17:15:12Z</time></trkpt><trkpt lat="36.05306386399683" lon="-107.03818436646517"><ele>2197.0</ele><time>2026-05-03T17:15:13Z</time></trkpt><trkpt lat="36.05292780872383" lon="-107.0380817015636"><ele>2195.6</ele><time>2026-05-03T17:15:14Z</time></trkpt><trkpt lat="36.05281388334313" lon="-107.03800841989674"><ele>2194.2</ele><time>2026-05-03T17:15:15Z</time></trkpt><trkpt lat="36.052718555548076" lon="-107.0379427950068"><ele>2192.8</ele><time>2026-05-03T17:15:16Z</time></trkpt><trkpt lat="36.05263433600541" lon="-107.03789225287296"><ele>2191.4</ele><time>2026-05-03T17:15:17Z</time></trkpt><trkpt lat="36.052529253161474" lon="-107.037861229126"><ele>2190.0</ele><time>2026-05-03T17:15:18Z</time></trkpt><trkpt lat="36.05241174800273" lon="-107.03783773926838"><ele>2190.0</ele><time>2026-05-03T17:15:19Z</time></trkpt><trkpt lat="36.05227731200272" lon="-107.03778933226539"><ele>2190.0</ele><time>2026-05-03T17:15:20Z</time></trkpt><trkpt lat="36.05212619541127" lon="-107.0377231906405"><ele>2190.0</ele><time>2026-05-03T17:15:21Z</time></trkpt><trkpt lat="36.051949847295006" lon="-107.03765273365863"><ele>2190.0</ele><time>2026-05-03T17:15:22Z</time></trkpt><trkpt lat="36.0517639893357" lon="-107.03758397097774"><ele>2190.0</ele><time>2026-05-03T17:15:23Z</time></trkpt><trkpt lat="36.05158409030554" lon="-107.03752334694076"><ele>2190.0</ele><time>2026-05-03T17:15:24Z</time></trkpt><trkpt lat="36.0514313689363" lon="-107.03747972704946"><ele>2189.75</ele><time>2026-05-03T17:15:25Z</time></trkpt><trkpt lat="36.051282840061305" lon="-107.03743079796558"><ele>2189.5</ele><time>2026-05-03T17:15:26Z</time></trkpt><trkpt lat="36.05115647052363" lon="-107.03737850896589"><ele>2189.25</ele><time>2026-05-03T17:15:27Z</time></trkpt><trkpt lat="36.051054345817334" lon="-107.03730246090429"><ele>2189.0</ele><time>2026-05-03T17:15:28Z</time></trkpt><trkpt lat="36.050940082212456" lon="-107.03715958153182"><ele>2189.0</ele><time>2026-05-03T17:15:29Z</time></trkpt><trkpt lat="36.05081823615117" lon="-107.03701805291313"><ele>2189.0</ele><time>2026-05-03T17:15:30Z</time></trkpt><trkpt lat="36.050700105638946" lon="-107.03693239097635"><ele>2189.0</ele><time>2026-05-03T17:15:31Z</time></trkpt><trkpt lat="36.05055930824565" lon="-107.03689531381171"><ele>2189.0</ele><time>2026-05-03T17:15:32Z</time></trkpt><trkpt lat="36.050406687941496" lon="-107.03685350425384"><ele>2189.6666666666665</ele><time>2026-05-03T17:15:33Z</time></trkpt><trkpt lat="36.05025761165119" lon="-107.03679696716775"><ele>2190.3333333333335</ele><time>2026-05-03T17:15:34Z</time></trkpt><trkpt lat="36.05011082354537" lon="-107.03673283671705"><ele>2191.0</ele><time>2026-05-03T17:15:35Z</time></trkpt><trkpt lat="36.0499662447759" lon="-107.03668785194941"><ele>2190.75</ele><time>2026-05-03T17:15:36Z</time></trkpt><trkpt lat="36.04981328397777" lon="-107.03665232203326"><ele>2190.5</ele><time>2026-05-03T17:15:37Z</time></trkpt><trkpt lat="36.04967615240338" lon="-107.03662918101664"><ele>2190.25</ele><time>2026-05-03T17:15:38Z</time></trkpt><trkpt lat="36.04956574458982" lon="-107.03661885073285"><ele>2190.0</ele><time>2026-05-03T17:15:39Z</time></trkpt><trkpt lat="36.04946881070162" lon="-107.03665645753046"><ele>2190.0</ele><time>2026-05-03T17:15:40Z</time></trkpt><trkpt lat="36.04939117270409" lon="-107.03664558752206"><ele>2190.0</ele><time>2026-05-03T17:15:41Z</time></trkpt><trkpt lat="36.04933614740172" lon="-107.03659374059073"><ele>2190.0</ele><time>2026-05-03T17:15:42Z</time></trkpt><trkpt lat="36.049276609145856" lon="-107.03652672131858"><ele>2190.0</ele><time>2026-05-03T17:15:43Z</time></trkpt><trkpt lat="36.04912186162517" lon="-107.03651670500946"><ele>2190.0</ele><time>2026-05-03T17:15:45Z</time></trkpt><trkpt lat="36.04900135255105" lon="-107.0364803763391"><ele>2188.75</ele><time>2026-05-03T17:15:46Z</time></trkpt><trkpt lat="36.048869669939755" lon="-107.03642427103097"><ele>2187.5</ele><time>2026-05-03T17:15:47Z</time></trkpt><trkpt lat="36.04874049575677" lon="-107.0363466095377"><ele>2186.25</ele><time>2026-05-03T17:15:48Z</time></trkpt><trkpt lat="36.048605691078386" lon="-107.03627436226952"><ele>2185.0</ele><time>2026-05-03T17:15:49Z</time></trkpt><trkpt lat="36.04845430269507" lon="-107.03622550849295"><ele>2185.0</ele><time>2026-05-03T17:15:50Z</time></trkpt><trkpt lat="36.04829780080344" lon="-107.03619834434976"><ele>2185.0</ele><time>2026-05-03T17:15:51Z</time></trkpt><trkpt lat="36.048152232991576" lon="-107.03618768941702"><ele>2185.0</ele><time>2026-05-03T17:15:52Z</time></trkpt><trkpt lat="36.048027367106414" lon="-107.03611860164122"><ele>2185.0</ele><time>2026-05-03T17:15:53Z</time></trkpt><trkpt lat="36.047904404084676" lon="-107.03602121149125"><ele>2186.0</ele><time>2026-05-03T17:15:54Z</time></trkpt><trkpt lat="36.04777206449168" lon="-107.03592035794038"><ele>2187.0</ele><time>2026-05-03T17:15:55Z</time></trkpt><trkpt lat="36.04759727963235" lon="-107.03586815807806"><ele>2188.0</ele><time>2026-05-03T17:15:56Z</time></trkpt><trkpt lat="36.04741983416882" lon="-107.03585091800574"><ele>2188.0</ele><time>2026-05-03T17:15:57Z</time></trkpt><trkpt lat="36.04725844583611" lon="-107.0358362700406"><ele>2188.0</ele><time>2026-05-03T17:15:58Z</time></trkpt><trkpt lat="36.04709962285409" lon="-107.03580641863307"><ele>2188.0</ele><time>2026-05-03T17:15:59Z</time></trkpt><trkpt lat="36.0469412459614" lon="-107.03577245163962"><ele>2187.0</ele><time>2026-05-03T17:16:00Z</time></trkpt><trkpt lat="36.04679800983054" lon="-107.03575929936639"><ele>2186.0</ele><time>2026-05-03T17:16:01Z</time></trkpt><trkpt lat="36.04666824652135" lon="-107.03573542767487"><ele>2185.0</ele><time>2026-05-03T17:16:02Z</time></trkpt><trkpt lat="36.04655739367268" lon="-107.03567880505493"><ele>2184.0</ele><time>2026-05-03T17:16:03Z</time></trkpt><trkpt lat="36.046424944191884" lon="-107.03560338339285"><ele>2184.0</ele><time>2026-05-03T17:16:04Z</time></trkpt><trkpt lat="36.046319790966685" lon="-107.03555468616003"><ele>2184.0</ele><time>2026-05-03T17:16:05Z</time></trkpt><trkpt lat="36.046201499860516" lon="-107.03551863162815"><ele>2184.0</ele><time>2026-05-03T17:16:06Z</time></trkpt><trkpt lat="36.04606435097486" lon="-107.03547680832062"><ele>2184.0</ele><time>2026-05-03T17:16:07Z</time></trkpt><trkpt lat="36.04591023025025" lon="-107.03542140364584"><ele>2185.0</ele><time>2026-05-03T17:16:08Z</time></trkpt><trkpt lat="36.045773223947755" lon="-107.0353831087614"><ele>2186.0</ele><time>2026-05-03T17:16:09Z</time></trkpt><trkpt lat="36.04566550817495" lon="-107.03535204821668"><ele>2187.0</ele><time>2026-05-03T17:16:10Z</time></trkpt><trkpt lat="36.04558389959111" lon="-107.03534636009717"><ele>2188.0</ele><time>2026-05-03T17:16:11Z</time></trkpt><trkpt lat="36.04549192132078" lon="-107.0353926899838"><ele>2189.0</ele><time>2026-05-03T17:16:12Z</time></trkpt><trkpt lat="36.04540498015283" lon="-107.03545659054716"><ele>2189.0</ele><time>2026-05-03T17:16:13Z</time></trkpt><trkpt lat="36.04529838164262" lon="-107.03547888702779"><ele>2189.0</ele><time>2026-05-03T17:16:14Z</time></trkpt><trkpt lat="36.04515956615827" lon="-107.03542231856586"><ele>2189.0</ele><time>2026-05-03T17:16:15Z</time></trkpt><trkpt lat="36.045017161486896" lon="-107.03539032101239"><ele>2189.0</ele><time>2026-05-03T17:16:16Z</time></trkpt><trkpt lat="36.04487249442719" lon="-107.03540403975222"><ele>2188.5</ele><time>2026-05-03T17:16:17Z</time></trkpt><trkpt lat="36.04474579921371" lon="-107.03540774426611"><ele>2188.0</ele><time>2026-05-03T17:16:18Z</time></trkpt><trkpt lat="36.0446100436839" lon="-107.0353798151054"><ele>2187.5</ele><time>2026-05-03T17:16:19Z</time></trkpt><trkpt lat="36.04448506153017" lon="-107.03536743007488"><ele>2187.0</ele><time>2026-05-03T17:16:20Z</time></trkpt><trkpt lat="36.0443635644453" lon="-107.0353737229141"><ele>2187.0</ele><time>2026-05-03T17:16:21Z</time></trkpt><trkpt lat="36.04423843257725" lon="-107.03533630458166"><ele>2187.0</ele><time>2026-05-03T17:16:22Z</time></trkpt><trkpt lat="36.044115036679024" lon="-107.03528263252456"><ele>2187.0</ele><time>2026-05-03T17:16:23Z</time></trkpt><trkpt lat="36.043979793901805" lon="-107.03523176837308"><ele>2187.0</ele><time>2026-05-03T17:16:24Z</time></trkpt><trkpt lat="36.04383872323769" lon="-107.03521574033628"><ele>2186.6666666666665</ele><time>2026-05-03T17:16:25Z</time></trkpt><trkpt lat="36.043710206590355" lon="-107.03520625676803"><ele>2186.333333333333</ele><time>2026-05-03T17:16:26Z</time></trkpt><trkpt lat="36.04355395985515" lon="-107.03517569997874"><ele>2186.0</ele><time>2026-05-03T17:16:27Z</time></trkpt><trkpt lat="36.043385434434" lon="-107.03513581679623"><ele>2186.6666666666665</ele><time>2026-05-03T17:16:28Z</time></trkpt><trkpt lat="36.04323543602936" lon="-107.035110436096"><ele>2187.3333333333335</ele><time>2026-05-03T17:16:29Z</time></trkpt><trkpt lat="36.0430893279314" lon="-107.03508140210258"><ele>2188.0</ele><time>2026-05-03T17:16:30Z</time></trkpt><trkpt lat="36.04289528644466" lon="-107.03503726996946"><ele>2188.0</ele><time>2026-05-03T17:16:31Z</time></trkpt><trkpt lat="36.04271641343683" lon="-107.0349907211375"><ele>2188.0</ele><time>2026-05-03T17:16:32Z</time></trkpt><trkpt lat="36.0426005603236" lon="-107.0349736851136"><ele>2188.0</ele><time>2026-05-03T17:16:33Z</time></trkpt><trkpt lat="36.04250592889787" lon="-107.0349483757028"><ele>2188.0</ele><time>2026-05-03T17:16:34Z</time></trkpt><trkpt lat="36.04243288131628" lon="-107.03493097265603"><ele>2189.0</ele><time>2026-05-03T17:16:35Z</time></trkpt><trkpt lat="36.042358413554915" lon="-107.03497197066528"><ele>2190.0</ele><time>2026-05-03T17:16:36Z</time></trkpt><trkpt lat="36.04226814689899" lon="-107.0350499632826"><ele>2191.0</ele><time>2026-05-03T17:16:37Z</time></trkpt><trkpt lat="36.04218714888367" lon="-107.03508625694397"><ele>2192.0</ele><time>2026-05-03T17:16:38Z</time></trkpt><trkpt lat="36.04209680506219" lon="-107.03489893539836"><ele>2190.0</ele><time>2026-05-03T17:16:40Z</time></trkpt><trkpt lat="36.04201988067824" lon="-107.03481413757763"><ele>2188.0</ele><time>2026-05-03T17:16:41Z</time></trkpt><trkpt lat="36.04191720059714" lon="-107.0348100209071"><ele>2186.0</ele><time>2026-05-03T17:16:42Z</time></trkpt><trkpt lat="36.04176675219944" lon="-107.0348033431523"><ele>2184.0</ele><time>2026-05-03T17:16:43Z</time></trkpt><trkpt lat="36.04163040127035" lon="-107.03475987595938"><ele>2184.0</ele><time>2026-05-03T17:16:44Z</time></trkpt><trkpt lat="36.04146890375114" lon="-107.03468544939939"><ele>2184.0</ele><time>2026-05-03T17:16:45Z</time></trkpt><trkpt lat="36.041323691088856" lon="-107.03464335000234"><ele>2184.0</ele><time>2026-05-03T17:16:46Z</time></trkpt><trkpt lat="36.041197519844765" lon="-107.03460452705419"><ele>2184.0</ele><time>2026-05-03T17:16:47Z</time></trkpt><trkpt lat="36.041113889506796" lon="-107.0345572319264"><ele>2184.0</ele><time>2026-05-03T17:16:48Z</time></trkpt><trkpt lat="36.04104913665743" lon="-107.03449839279193"><ele>2184.0</ele><time>2026-05-03T17:16:49Z</time></trkpt><trkpt lat="36.04099873690674" lon="-107.0343957116966"><ele>2184.0</ele><time>2026-05-03T17:16:50Z</time></trkpt><trkpt lat="36.04090972001256" lon="-107.03430048800082"><ele>2184.0</ele><time>2026-05-03T17:16:51Z</time></trkpt><trkpt lat="36.04080455750552" lon="-107.03424357078367"><ele>2183.4</ele><time>2026-05-03T17:16:52Z</time></trkpt><trkpt lat="36.04067384606998" lon="-107.03421398537854"><ele>2182.8</ele><time>2026-05-03T17:16:53Z</time></trkpt><trkpt lat="36.04055910162004" lon="-107.03415186184748"><ele>2182.2</ele><time>2026-05-03T17:16:54Z</time></trkpt><trkpt lat="36.040487932642414" lon="-107.03407168384237"><ele>2181.6</ele><time>2026-05-03T17:16:55Z</time></trkpt><trkpt lat="36.04042194398972" lon="-107.03403868104742"><ele>2181.0</ele><time>2026-05-03T17:16:56Z</time></trkpt><trkpt lat="36.04033594201363" lon="-107.034097297764"><ele>2180.5</ele><time>2026-05-03T17:16:57Z</time></trkpt><trkpt lat="36.04023478197143" lon="-107.03410217553677"><ele>2180.0</ele><time>2026-05-03T17:16:58Z</time></trkpt><trkpt lat="36.04011447192462" lon="-107.03408850333737"><ele>2179.5</ele><time>2026-05-03T17:16:59Z</time></trkpt><trkpt lat="36.03999924625588" lon="-107.03407435433586"><ele>2179.0</ele><time>2026-05-03T17:17:00Z</time></trkpt><trkpt lat="36.03986458190335" lon="-107.03405284854935"><ele>2178.75</ele><time>2026-05-03T17:17:01Z</time></trkpt><trkpt lat="36.03973699255646" lon="-107.03404647075283"><ele>2178.5</ele><time>2026-05-03T17:17:02Z</time></trkpt><trkpt lat="36.03961329364252" lon="-107.03401210991503"><ele>2178.25</ele><time>2026-05-03T17:17:03Z</time></trkpt><trkpt lat="36.039487962823124" lon="-107.03403397389958"><ele>2178.0</ele><time>2026-05-03T17:17:04Z</time></trkpt><trkpt lat="36.039356112167255" lon="-107.03402889840336"><ele>2178.0</ele><time>2026-05-03T17:17:05Z</time></trkpt><trkpt lat="36.0392218480475" lon="-107.03400905215759"><ele>2178.0</ele><time>2026-05-03T17:17:06Z</time></trkpt><trkpt lat="36.039075136131565" lon="-107.03402327318912"><ele>2178.0</ele><time>2026-05-03T17:17:07Z</time></trkpt><trkpt lat="36.0389345758919" lon="-107.03399594940646"><ele>2178.0</ele><time>2026-05-03T17:17:08Z</time></trkpt><trkpt lat="36.03882678805549" lon="-107.03398121919437"><ele>2178.5</ele><time>2026-05-03T17:17:09Z</time></trkpt><trkpt lat="36.03874782201984" lon="-107.0339682721329"><ele>2179.0</ele><time>2026-05-03T17:17:10Z</time></trkpt><trkpt lat="36.038656819381806" lon="-107.0338715226245"><ele>2179.5</ele><time>2026-05-03T17:17:11Z</time></trkpt><trkpt lat="36.03854364631157" lon="-107.03374105251733"><ele>2180.0</ele><time>2026-05-03T17:17:12Z</time></trkpt><trkpt lat="36.038411901150766" lon="-107.03364447521729"><ele>2179.5</ele><time>2026-05-03T17:17:13Z</time></trkpt><trkpt lat="36.038294403978306" lon="-107.03358027093442"><ele>2179.0</ele><time>2026-05-03T17:17:14Z</time></trkpt><trkpt lat="36.03820416846628" lon="-107.03350778652293"><ele>2178.5</ele><time>2026-05-03T17:17:15Z</time></trkpt><trkpt lat="36.038088640599874" lon="-107.03344519132372"><ele>2178.0</ele><time>2026-05-03T17:17:16Z</time></trkpt><trkpt lat="36.03795230750726" lon="-107.03341481286758"><ele>2178.0</ele><time>2026-05-03T17:17:17Z</time></trkpt><trkpt lat="36.03779825042451" lon="-107.03333140379641"><ele>2178.0</ele><time>2026-05-03T17:17:18Z</time></trkpt><trkpt lat="36.03767106508866" lon="-107.03327087891984"><ele>2178.0</ele><time>2026-05-03T17:17:19Z</time></trkpt><trkpt lat="36.03753228546065" lon="-107.0332466255086"><ele>2178.0</ele><time>2026-05-03T17:17:20Z</time></trkpt><trkpt lat="36.037367524291035" lon="-107.03322982441122"><ele>2178.0</ele><time>2026-05-03T17:17:21Z</time></trkpt><trkpt lat="36.03720549550697" lon="-107.03318213307607"><ele>2178.0</ele><time>2026-05-03T17:17:22Z</time></trkpt><trkpt lat="36.03704774727068" lon="-107.03310575014052"><ele>2178.0</ele><time>2026-05-03T17:17:23Z</time></trkpt><trkpt lat="36.0368553462522" lon="-107.03301814737327"><ele>2178.0</ele><time>2026-05-03T17:17:24Z</time></trkpt><trkpt lat="36.036691717341775" lon="-107.03295877134762"><ele>2178.0</ele><time>2026-05-03T17:17:25Z</time></trkpt><trkpt lat="36.03652570031477" lon="-107.03294113701305"><ele>2178.0</ele><time>2026-05-03T17:17:26Z</time></trkpt><trkpt lat="36.036382038112244" lon="-107.03298188776694"><ele>2178.3333333333335</ele><time>2026-05-03T17:17:27Z</time></trkpt><trkpt lat="36.03622250800763" lon="-107.033056902944"><ele>2178.666666666667</ele><time>2026-05-03T17:17:28Z</time></trkpt><trkpt lat="36.0360560225363" lon="-107.03313103305358"><ele>2179.0</ele><time>2026-05-03T17:17:29Z</time></trkpt><trkpt lat="36.03591752977726" lon="-107.0331991826002"><ele>2179.0</ele><time>2026-05-03T17:17:30Z</time></trkpt><trkpt lat="36.03580353957492" lon="-107.03324772549242"><ele>2179.0</ele><time>2026-05-03T17:17:31Z</time></trkpt><trkpt lat="36.03571637167559" lon="-107.03325848857946"><ele>2179.0</ele><time>2026-05-03T17:17:32Z</time></trkpt><trkpt lat="36.03562158181604" lon="-107.03322918310253"><ele>2179.0</ele><time>2026-05-03T17:17:33Z</time></trkpt><trkpt lat="36.03552491170478" lon="-107.03316580647596"><ele>2179.0</ele><time>2026-05-03T17:17:34Z</time></trkpt><trkpt lat="36.03542520603721" lon="-107.03304548613808"><ele>2179.75</ele><time>2026-05-03T17:17:35Z</time></trkpt><trkpt lat="36.03534943556247" lon="-107.0329450692267"><ele>2180.5</ele><time>2026-05-03T17:17:36Z</time></trkpt><trkpt lat="36.03525175695305" lon="-107.03289718266723"><ele>2181.25</ele><time>2026-05-03T17:17:37Z</time></trkpt><trkpt lat="36.035107063498614" lon="-107.03282629402328"><ele>2182.0</ele><time>2026-05-03T17:17:38Z</time></trkpt><trkpt lat="36.03493222824917" lon="-107.03274889282802"><ele>2183.0</ele><time>2026-05-03T17:17:39Z</time></trkpt><trkpt lat="36.03476112287805" lon="-107.03265214416466"><ele>2184.0</ele><time>2026-05-03T17:17:40Z</time></trkpt><trkpt lat="36.03461023881695" lon="-107.03257989801028"><ele>2185.0</ele><time>2026-05-03T17:17:41Z</time></trkpt><trkpt lat="36.03447760994786" lon="-107.03254745717734"><ele>2185.0</ele><time>2026-05-03T17:17:42Z</time></trkpt><trkpt lat="36.034354164705505" lon="-107.03251571144123"><ele>2185.0</ele><time>2026-05-03T17:17:43Z</time></trkpt><trkpt lat="36.034212713774885" lon="-107.03244733673057"><ele>2185.0</ele><time>2026-05-03T17:17:44Z</time></trkpt><trkpt lat="36.03406239658054" lon="-107.0323448552859"><ele>2183.0</ele><time>2026-05-03T17:17:45Z</time></trkpt><trkpt lat="36.033909641653544" lon="-107.03224171393846"><ele>2181.0</ele><time>2026-05-03T17:17:46Z</time></trkpt><trkpt lat="36.033757320800525" lon="-107.032127542329"><ele>2179.0</ele><time>2026-05-03T17:17:47Z</time></trkpt><trkpt lat="36.03362389921452" lon="-107.03202491251956"><ele>2179.0</ele><time>2026-05-03T17:17:48Z</time></trkpt><trkpt lat="36.03353707674742" lon="-107.03196246354739"><ele>2179.0</ele><time>2026-05-03T17:17:49Z</time></trkpt><trkpt lat="36.033445957068004" lon="-107.03193331252336"><ele>2179.0</ele><time>2026-05-03T17:17:50Z</time></trkpt><trkpt lat="36.03334231318341" lon="-107.03195342476174"><ele>2179.0</ele><time>2026-05-03T17:17:51Z</time></trkpt><trkpt lat="36.03324258858506" lon="-107.03200604611948"><ele>2179.0</ele><time>2026-05-03T17:17:52Z</time></trkpt><trkpt lat="36.03318011152882" lon="-107.03208779599903"><ele>2179.2</ele><time>2026-05-03T17:17:53Z</time></trkpt><trkpt lat="36.03311143560521" lon="-107.03218635482284"><ele>2179.4</ele><time>2026-05-03T17:17:54Z</time></trkpt><trkpt lat="36.033018781598486" lon="-107.03226273452042"><ele>2179.6</ele><time>2026-05-03T17:17:55Z</time></trkpt><trkpt lat="36.032939469705056" lon="-107.03230425649664"><ele>2179.8</ele><time>2026-05-03T17:17:56Z</time></trkpt><trkpt lat="36.032839868511886" lon="-107.03228505522897"><ele>2180.0</ele><time>2026-05-03T17:17:57Z</time></trkpt><trkpt lat="36.03275236236278" lon="-107.03231361914683"><ele>2180.0</ele><time>2026-05-03T17:17:58Z</time></trkpt><trkpt lat="36.03264705193069" lon="-107.03238967961683"><ele>2180.0</ele><time>2026-05-03T17:17:59Z</time></trkpt><trkpt lat="36.03255403143888" lon="-107.03244271196152"><ele>2180.0</ele><time>2026-05-03T17:18:00Z</time></trkpt><trkpt lat="36.03244132196308" lon="-107.0323869935545"><ele>2180.0</ele><time>2026-05-03T17:18:01Z</time></trkpt><trkpt lat="36.03231314760497" lon="-107.0323747739671"><ele>2182.5</ele><time>2026-05-03T17:18:02Z</time></trkpt><trkpt lat="36.032185465218866" lon="-107.03240797040607"><ele>2185.0</ele><time>2026-05-03T17:18:03Z</time></trkpt><trkpt lat="36.03206489934152" lon="-107.03246613183474"><ele>2187.5</ele><time>2026-05-03T17:18:04Z</time></trkpt><trkpt lat="36.03192178240464" lon="-107.03252869485061"><ele>2190.0</ele><time>2026-05-03T17:18:05Z</time></trkpt><trkpt lat="36.03179961833019" lon="-107.03258129752852"><ele>2190.0</ele><time>2026-05-03T17:18:06Z</time></trkpt><trkpt lat="36.03170904141184" lon="-107.0325931852837"><ele>2190.0</ele><time>2026-05-03T17:18:07Z</time></trkpt><trkpt lat="36.031611826259" lon="-107.03260039064983"><ele>2190.0</ele><time>2026-05-03T17:18:08Z</time></trkpt><trkpt lat="36.03152092524782" lon="-107.03261182856961"><ele>2190.0</ele><time>2026-05-03T17:18:09Z</time></trkpt><trkpt lat="36.03143211195599" lon="-107.03259478886605"><ele>2190.0</ele><time>2026-05-03T17:18:10Z</time></trkpt><trkpt lat="36.03140008267441" lon="-107.03251102764064"><ele>2190.0</ele><time>2026-05-03T17:18:11Z</time></trkpt><trkpt lat="36.03142919037806" lon="-107.03240094473324"><ele>2191.0</ele><time>2026-05-03T17:18:12Z</time></trkpt><trkpt lat="36.031490145219834" lon="-107.03230146005282"><ele>2192.0</ele><time>2026-05-03T17:18:13Z</time></trkpt><trkpt lat="36.03153724560493" lon="-107.03218208161991"><ele>2193.0</ele><time>2026-05-03T17:18:14Z</time></trkpt><trkpt lat="36.03160721618324" lon="-107.0320543346214"><ele>2194.0</ele><time>2026-05-03T17:18:15Z</time></trkpt><trkpt lat="36.031658914199234" lon="-107.03192081151086"><ele>2194.0</ele><time>2026-05-03T17:18:16Z</time></trkpt><trkpt lat="36.03168257030183" lon="-107.03178393637731"><ele>2194.0</ele><time>2026-05-03T17:18:17Z</time></trkpt><trkpt lat="36.03163614069592" lon="-107.03165926748933"><ele>2194.0</ele><time>2026-05-03T17:18:18Z</time></trkpt><trkpt lat="36.03157177282026" lon="-107.03151679003089"><ele>2194.0</ele><time>2026-05-03T17:18:19Z</time></trkpt><trkpt lat="36.031546399715246" lon="-107.03136569661723"><ele>2194.4</ele><time>2026-05-03T17:18:20Z</time></trkpt><trkpt lat="36.03155254830602" lon="-107.03122137692954"><ele>2194.8</ele><time>2026-05-03T17:18:21Z</time></trkpt><trkpt lat="36.03161270660133" lon="-107.03111730258287"><ele>2195.2</ele><time>2026-05-03T17:18:22Z</time></trkpt><trkpt lat="36.03167477916307" lon="-107.03100077890764"><ele>2195.6</ele><time>2026-05-03T17:18:23Z</time></trkpt><trkpt lat="36.03172527987611" lon="-107.03088086969021"><ele>2196.0</ele><time>2026-05-03T17:18:24Z</time></trkpt><trkpt lat="36.03174775979126" lon="-107.03075638266945"><ele>2195.25</ele><time>2026-05-03T17:18:25Z</time></trkpt><trkpt lat="36.031746330687284" lon="-107.03059960484215"><ele>2194.5</ele><time>2026-05-03T17:18:26Z</time></trkpt><trkpt lat="36.031699423333905" lon="-107.03043658719922"><ele>2193.75</ele><time>2026-05-03T17:18:27Z</time></trkpt><trkpt lat="36.03167400535143" lon="-107.03027870730847"><ele>2193.0</ele><time>2026-05-03T17:18:28Z</time></trkpt><trkpt lat="36.03153838026583" lon="-107.03020551447814"><ele>2193.0</ele><time>2026-05-03T17:18:29Z</time></trkpt><trkpt lat="36.031419331196744" lon="-107.03006180768588"><ele>2193.0</ele><time>2026-05-03T17:18:30Z</time></trkpt><trkpt lat="36.03130145299009" lon="-107.02998010826617"><ele>2193.0</ele><time>2026-05-03T17:18:31Z</time></trkpt><trkpt lat="36.031172989328034" lon="-107.02991333662212"><ele>2193.0</ele><time>2026-05-03T17:18:32Z</time></trkpt><trkpt lat="36.03102931876305" lon="-107.02986384393476"><ele>2190.6666666666665</ele><time>2026-05-03T17:18:33Z</time></trkpt><trkpt lat="36.03088308018182" lon="-107.02984624212966"><ele>2188.333333333333</ele><time>2026-05-03T17:18:34Z</time></trkpt><trkpt lat="36.030724587137584" lon="-107.0298283826329"><ele>2186.0</ele><time>2026-05-03T17:18:35Z</time></trkpt><trkpt lat="36.03057052766628" lon="-107.0298055716566"><ele>2186.0</ele><time>2026-05-03T17:18:36Z</time></trkpt><trkpt lat="36.030426390537414" lon="-107.02982292079173"><ele>2186.0</ele><time>2026-05-03T17:18:37Z</time></trkpt><trkpt lat="36.03027337002436" lon="-107.02984170323663"><ele>2186.0</ele><time>2026-05-03T17:18:38Z</time></trkpt><trkpt lat="36.03012071799246" lon="-107.02983697189659"><ele>2186.0</ele><time>2026-05-03T17:18:39Z</time></trkpt><trkpt lat="36.03000033132438" lon="-107.02979708956651"><ele>2186.0</ele><time>2026-05-03T17:18:40Z</time></trkpt><trkpt lat="36.02986803378748" lon="-107.02974027194267"><ele>2186.0</ele><time>2026-05-03T17:18:41Z</time></trkpt><trkpt lat="36.02973458999733" lon="-107.02967510926806"><ele>2186.0</ele><time>2026-05-03T17:18:42Z</time></trkpt><trkpt lat="36.02959841054456" lon="-107.02962483159631"><ele>2187.6666666666665</ele><time>2026-05-03T17:18:43Z</time></trkpt><trkpt lat="36.02944438276165" lon="-107.02957957775135"><ele>2189.3333333333335</ele><time>2026-05-03T17:18:44Z</time></trkpt><trkpt lat="36.02928147933692" lon="-107.02952387531707"><ele>2191.0</ele><time>2026-05-03T17:18:45Z</time></trkpt><trkpt lat="36.029140856477824" lon="-107.02946112965805"><ele>2192.5</ele><time>2026-05-03T17:18:46Z</time></trkpt><trkpt lat="36.02897659100364" lon="-107.02939599751481"><ele>2194.0</ele><time>2026-05-03T17:18:47Z</time></trkpt><trkpt lat="36.02882897710194" lon="-107.02937813628982"><ele>2195.5</ele><time>2026-05-03T17:18:48Z</time></trkpt><trkpt lat="36.028703936741465" lon="-107.02935940686477"><ele>2197.0</ele><time>2026-05-03T17:18:49Z</time></trkpt><trkpt lat="36.02859097870442" lon="-107.02933489490863"><ele>2197.0</ele><time>2026-05-03T17:18:50Z</time></trkpt><trkpt lat="36.02849028220727" lon="-107.0292643137453"><ele>2197.0</ele><time>2026-05-03T17:18:51Z</time></trkpt><trkpt lat="36.028391291681196" lon="-107.02921274539196"><ele>2197.0</ele><time>2026-05-03T17:18:52Z</time></trkpt><trkpt lat="36.02828031163143" lon="-107.02921997347512"><ele>2197.0</ele><time>2026-05-03T17:18:53Z</time></trkpt><trkpt lat="36.028152897541574" lon="-107.02927674764949"><ele>2197.25</ele><time>2026-05-03T17:18:54Z</time></trkpt><trkpt lat="36.028030049034925" lon="-107.0293400804617"><ele>2197.5</ele><time>2026-05-03T17:18:55Z</time></trkpt><trkpt lat="36.027906105132175" lon="-107.0293525811815"><ele>2197.75</ele><time>2026-05-03T17:18:56Z</time></trkpt><trkpt lat="36.027804140313755" lon="-107.0293627465113"><ele>2198.0</ele><time>2026-05-03T17:18:57Z</time></trkpt><trkpt lat="36.02769246011395" lon="-107.02940720126921"><ele>2198.0</ele><time>2026-05-03T17:18:58Z</time></trkpt><trkpt lat="36.027598903948466" lon="-107.02945317897029"><ele>2198.0</ele><time>2026-05-03T17:18:59Z</time></trkpt><trkpt lat="36.02750129665072" lon="-107.02945683772614"><ele>2198.0</ele><time>2026-05-03T17:19:00Z</time></trkpt><trkpt lat="36.02738784930998" lon="-107.02942543594737"><ele>2198.0</ele><time>2026-05-03T17:19:01Z</time></trkpt><trkpt lat="36.02729244115351" lon="-107.02937987430448"><ele>2198.0</ele><time>2026-05-03T17:19:02Z</time></trkpt><trkpt lat="36.02721545797294" lon="-107.02935423398561"><ele>2198.2000000000003</ele><time>2026-05-03T17:19:03Z</time></trkpt><trkpt lat="36.027142331443386" lon="-107.02936662361924"><ele>2198.4</ele><time>2026-05-03T17:19:04Z</time></trkpt><trkpt lat="36.027054118009566" lon="-107.02939766976576"><ele>2198.6000000000004</ele><time>2026-05-03T17:19:05Z</time></trkpt><trkpt lat="36.026946109641315" lon="-107.02940620499326"><ele>2198.8</ele><time>2026-05-03T17:19:06Z</time></trkpt><trkpt lat="36.02683496646374" lon="-107.02936566949388"><ele>2199.0</ele><time>2026-05-03T17:19:07Z</time></trkpt><trkpt lat="36.02668121711719" lon="-107.02935705815734"><ele>2198.0</ele><time>2026-05-03T17:19:08Z</time></trkpt><trkpt lat="36.02653345441151" lon="-107.02937181792704"><ele>2197.0</ele><time>2026-05-03T17:19:09Z</time></trkpt><trkpt lat="36.02640531696723" lon="-107.0293862958717"><ele>2196.0</ele><time>2026-05-03T17:19:10Z</time></trkpt><trkpt lat="36.02628496326386" lon="-107.02937019313063"><ele>2195.0</ele><time>2026-05-03T17:19:11Z</time></trkpt><trkpt lat="36.02620006265856" lon="-107.0292831497476"><ele>2195.0</ele><time>2026-05-03T17:19:12Z</time></trkpt><trkpt lat="36.026137881123276" lon="-107.02918521419777"><ele>2195.0</ele><time>2026-05-03T17:19:13Z</time></trkpt><trkpt lat="36.02607791378571" lon="-107.02904867505096"><ele>2195.0</ele><time>2026-05-03T17:19:14Z</time></trkpt><trkpt lat="36.026026961828876" lon="-107.02893278397393"><ele>2195.0</ele><time>2026-05-03T17:19:15Z</time></trkpt><trkpt lat="36.02594442443427" lon="-107.02883015640522"><ele>2192.75</ele><time>2026-05-03T17:19:16Z</time></trkpt><trkpt lat="36.02586846891316" lon="-107.02873708798046"><ele>2190.5</ele><time>2026-05-03T17:19:17Z</time></trkpt><trkpt lat="36.02578135316883" lon="-107.0286671056202"><ele>2188.25</ele><time>2026-05-03T17:19:18Z</time></trkpt><trkpt lat="36.02561711134312" lon="-107.02876046856554"><ele>2186.0</ele><time>2026-05-03T17:19:20Z</time></trkpt><trkpt lat="36.025519410597134" lon="-107.02890341959088"><ele>2186.25</ele><time>2026-05-03T17:19:21Z</time></trkpt><trkpt lat="36.02545283282332" lon="-107.02905649009242"><ele>2186.5</ele><time>2026-05-03T17:19:22Z</time></trkpt><trkpt lat="36.025369798006054" lon="-107.0291881324864"><ele>2186.75</ele><time>2026-05-03T17:19:23Z</time></trkpt><trkpt lat="36.02529238752464" lon="-107.02928577622161"><ele>2187.0</ele><time>2026-05-03T17:19:24Z</time></trkpt><trkpt lat="36.02519917305646" lon="-107.02933604792464"><ele>2187.0</ele><time>2026-05-03T17:19:25Z</time></trkpt><trkpt lat="36.02510387101995" lon="-107.02935846848096"><ele>2187.0</ele><time>2026-05-03T17:19:26Z</time></trkpt><trkpt lat="36.02500000810929" lon="-107.02937103839359"><ele>2187.0</ele><time>2026-05-03T17:19:27Z</time></trkpt><trkpt lat="36.02488379145367" lon="-107.02934768452282"><ele>2187.0</ele><time>2026-05-03T17:19:28Z</time></trkpt><trkpt lat="36.024766723362255" lon="-107.02932449817074"><ele>2187.0</ele><time>2026-05-03T17:19:29Z</time></trkpt><trkpt lat="36.024688429405586" lon="-107.02933462846043"><ele>2186.0</ele><time>2026-05-03T17:19:30Z</time></trkpt><trkpt lat="36.02463560989269" lon="-107.02927473527133"><ele>2185.0</ele><time>2026-05-03T17:19:31Z</time></trkpt><trkpt lat="36.02455280542986" lon="-107.02914793249587"><ele>2184.0</ele><time>2026-05-03T17:19:32Z</time></trkpt><trkpt lat="36.02449339254603" lon="-107.0290722962782"><ele>2183.0</ele><time>2026-05-03T17:19:33Z</time></trkpt><trkpt lat="36.024498282214196" lon="-107.02895813588357"><ele>2182.0</ele><time>2026-05-03T17:19:35Z</time></trkpt><trkpt lat="36.024655970878754" lon="-107.02897047449181"><ele>2181.7999999999997</ele><time>2026-05-03T17:19:37Z</time></trkpt><trkpt lat="36.02476767950844" lon="-107.02891107018709"><ele>2181.6</ele><time>2026-05-03T17:19:38Z</time></trkpt><trkpt lat="36.02487278915121" lon="-107.0288481620889"><ele>2181.3999999999996</ele><time>2026-05-03T17:19:39Z</time></trkpt><trkpt lat="36.02494264903178" lon="-107.0287999036708"><ele>2181.2</ele><time>2026-05-03T17:19:40Z</time></trkpt><trkpt lat="36.024982517186416" lon="-107.02871182248798"><ele>2181.0</ele><time>2026-05-03T17:19:41Z</time></trkpt><trkpt lat="36.02499848092216" lon="-107.02859275224613"><ele>2181.0</ele><time>2026-05-03T17:19:42Z</time></trkpt><trkpt lat="36.02505381904597" lon="-107.02846389536874"><ele>2181.0</ele><time>2026-05-03T17:19:43Z</time></trkpt><trkpt lat="36.02511325275004" lon="-107.02835013884012"><ele>2181.0</ele><time>2026-05-03T17:19:44Z</time></trkpt><trkpt lat="36.02515408665773" lon="-107.02828799392854"><ele>2181.0</ele><time>2026-05-03T17:19:45Z</time></trkpt><trkpt lat="36.0252527310511" lon="-107.02824335505464"><ele>2181.0</ele><time>2026-05-03T17:19:47Z</time></trkpt><trkpt lat="36.025362860401124" lon="-107.02825659078853"><ele>2179.75</ele><time>2026-05-03T17:19:48Z</time></trkpt><trkpt lat="36.02544313222293" lon="-107.02822004072424"><ele>2178.5</ele><time>2026-05-03T17:19:49Z</time></trkpt><trkpt lat="36.02556472770749" lon="-107.02818752184373"><ele>2177.25</ele><time>2026-05-03T17:19:50Z</time></trkpt><trkpt lat="36.02568153032126" lon="-107.02818577655056"><ele>2176.0</ele><time>2026-05-03T17:19:51Z</time></trkpt><trkpt lat="36.02582055453009" lon="-107.02819536814415"><ele>2176.0</ele><time>2026-05-03T17:19:52Z</time></trkpt><trkpt lat="36.02595038113571" lon="-107.02820302377098"><ele>2176.0</ele><time>2026-05-03T17:19:53Z</time></trkpt><trkpt lat="36.02606264572906" lon="-107.02818478373032"><ele>2176.0</ele><time>2026-05-03T17:19:54Z</time></trkpt><trkpt lat="36.026124801002936" lon="-107.028212253305"><ele>2176.0</ele><time>2026-05-03T17:19:55Z</time></trkpt><trkpt lat="36.02617041079778" lon="-107.02809770645567"><ele>2176.0</ele><time>2026-05-03T17:19:57Z</time></trkpt><trkpt lat="36.0261893363261" lon="-107.0279514607755"><ele>2175.9999999999995</ele><time>2026-05-03T17:19:58Z</time></trkpt><trkpt lat="36.02622536184549" lon="-107.02785842348186"><ele>2176.0</ele><time>2026-05-03T17:19:59Z</time></trkpt><trkpt lat="36.026257567904324" lon="-107.0277690424164"><ele>2176.0</ele><time>2026-05-03T17:20:00Z</time></trkpt><trkpt lat="36.026298721271196" lon="-107.02770664264938"><ele>2176.0</ele><time>2026-05-03T17:20:01Z</time></trkpt><trkpt lat="36.02630533313719" lon="-107.02762690559818"><ele>2176.0</ele><time>2026-05-03T17:20:02Z</time></trkpt><trkpt lat="36.026291662739546" lon="-107.02754146593577"><ele>2175.9999999999995</ele><time>2026-05-03T17:20:03Z</time></trkpt><trkpt lat="36.026247784863976" lon="-107.02745036279966"><ele>2176.0</ele><time>2026-05-03T17:20:04Z</time></trkpt><trkpt lat="36.02615800886303" lon="-107.02741547208723"><ele>2173.8333333333335</ele><time>2026-05-03T17:20:05Z</time></trkpt><trkpt lat="36.02606344345127" lon="-107.02739002223714"><ele>2171.666666666667</ele><time>2026-05-03T17:20:06Z</time></trkpt><trkpt lat="36.02601329484154" lon="-107.02732656225484"><ele>2169.5</ele><time>2026-05-03T17:20:07Z</time></trkpt><trkpt lat="36.025997511815845" lon="-107.02723466174344"><ele>2167.3333333333335</ele><time>2026-05-03T17:20:08Z</time></trkpt><trkpt lat="36.02595242200829" lon="-107.02714480748021"><ele>2165.1666666666665</ele><time>2026-05-03T17:20:09Z</time></trkpt><trkpt lat="36.025887397928415" lon="-107.02709460270245"><ele>2163.0</ele><time>2026-05-03T17:20:10Z</time></trkpt><trkpt lat="36.0258266843157" lon="-107.02703080744533"><ele>2162.6</ele><time>2026-05-03T17:20:11Z</time></trkpt><trkpt lat="36.02577807044817" lon="-107.02693347599187"><ele>2162.2000000000003</ele><time>2026-05-03T17:20:14Z</time></trkpt><trkpt lat="36.02576961051454" lon="-107.02684725323779"><ele>2161.8</ele><time>2026-05-03T17:20:21Z</time></trkpt><trkpt lat="36.02572595349397" lon="-107.02672070207075"><ele>2161.4</ele><time>2026-05-03T17:20:24Z</time></trkpt><trkpt lat="36.025642724348685" lon="-107.02672517277554"><ele>2161.0</ele><time>2026-05-03T17:20:29Z</time></trkpt><trkpt lat="36.02556258131726" lon="-107.0265238968819"><ele>2161.0</ele><time>2026-05-03T17:20:33Z</time></trkpt><trkpt lat="36.0254307812832" lon="-107.02653473043084"><ele>2161.0</ele><time>2026-05-03T17:20:35Z</time></trkpt><trkpt lat="36.025348592428614" lon="-107.02655804530694"><ele>2161.0</ele><time>2026-05-03T17:20:36Z</time></trkpt><trkpt lat="36.02503441140729" lon="-107.02673476240201"><ele>2160.25</ele><time>2026-05-03T17:20:37Z</time></trkpt><trkpt lat="36.024921790856084" lon="-107.0268062346453"><ele>2159.5</ele><time>2026-05-03T17:20:38Z</time></trkpt><trkpt lat="36.024794924358424" lon="-107.02689739386976"><ele>2158.75</ele><time>2026-05-03T17:20:39Z</time></trkpt><trkpt lat="36.02469066267173" lon="-107.02699298721255"><ele>2158.0</ele><time>2026-05-03T17:20:40Z</time></trkpt><trkpt lat="36.024593397329056" lon="-107.02706316355545"><ele>2158.0</ele><time>2026-05-03T17:20:41Z</time></trkpt><trkpt lat="36.024512418838995" lon="-107.02709737842164"><ele>2158.0</ele><time>2026-05-03T17:20:42Z</time></trkpt><trkpt lat="36.02440881131627" lon="-107.02713805052497"><ele>2158.0</ele><time>2026-05-03T17:20:43Z</time></trkpt><trkpt lat="36.024309760212326" lon="-107.02716162437298"><ele>2158.0</ele><time>2026-05-03T17:20:44Z</time></trkpt><trkpt lat="36.02420489509928" lon="-107.0271825550507"><ele>2158.0</ele><time>2026-05-03T17:20:45Z</time></trkpt><trkpt lat="36.024093748710435" lon="-107.02719655524294"><ele>2158.0</ele><time>2026-05-03T17:20:46Z</time></trkpt><trkpt lat="36.02397373648481" lon="-107.02722039193468"><ele>2158.0</ele><time>2026-05-03T17:20:47Z</time></trkpt><trkpt lat="36.02386087785268" lon="-107.02724782115544"><ele>2158.0</ele><time>2026-05-03T17:20:48Z</time></trkpt><trkpt lat="36.02376546483901" lon="-107.02728501518838"><ele>2158.0</ele><time>2026-05-03T17:20:49Z</time></trkpt><trkpt lat="36.023678089494005" lon="-107.02732684722966"><ele>2158.0</ele><time>2026-05-03T17:20:50Z</time></trkpt><trkpt lat="36.023582786987916" lon="-107.02739321190914"><ele>2158.0</ele><time>2026-05-03T17:20:51Z</time></trkpt><trkpt lat="36.02348902407709" lon="-107.0274484291551"><ele>2158.0</ele><time>2026-05-03T17:20:52Z</time></trkpt><trkpt lat="36.02321935563863" lon="-107.02771802247781"><ele>2158.0</ele><time>2026-05-03T17:20:53Z</time></trkpt><trkpt lat="36.023119856161024" lon="-107.02782636049963"><ele>2158.0</ele><time>2026-05-03T17:20:54Z</time></trkpt><trkpt lat="36.023002186424264" lon="-107.02793044030133"><ele>2158.0</ele><time>2026-05-03T17:20:55Z</time></trkpt><trkpt lat="36.02285441266546" lon="-107.02803689207569"><ele>2158.0</ele><time>2026-05-03T17:20:56Z</time></trkpt><trkpt lat="36.02272041941827" lon="-107.0281221673914"><ele>2158.0</ele><time>2026-05-03T17:20:57Z</time></trkpt><trkpt lat="36.022577114777796" lon="-107.02817246562137"><ele>2158.0</ele><time>2026-05-03T17:20:58Z</time></trkpt><trkpt lat="36.022424509923255" lon="-107.02821496725299"><ele>2158.0</ele><time>2026-05-03T17:20:59Z</time></trkpt><trkpt lat="36.02227348500799" lon="-107.0282369751099"><ele>2158.3333333333335</ele><time>2026-05-03T17:21:00Z</time></trkpt><trkpt lat="36.022087241432715" lon="-107.02825926262445"><ele>2158.6666666666665</ele><time>2026-05-03T17:21:01Z</time></trkpt><trkpt lat="36.02192491597593" lon="-107.02829372405674"><ele>2159.0</ele><time>2026-05-03T17:21:02Z</time></trkpt><trkpt lat="36.021750738558" lon="-107.02833268918437"><ele>2156.333333333333</ele><time>2026-05-03T17:21:03Z</time></trkpt><trkpt lat="36.02156722210621" lon="-107.02837875771155"><ele>2153.6666666666665</ele><time>2026-05-03T17:21:04Z</time></trkpt><trkpt lat="36.02138596167919" lon="-107.02842228605877"><ele>2151.0</ele><time>2026-05-03T17:21:05Z</time></trkpt><trkpt lat="36.021178329583506" lon="-107.0284624409845"><ele>2151.0</ele><time>2026-05-03T17:21:06Z</time></trkpt><trkpt lat="36.02098968729843" lon="-107.02851263674211"><ele>2151.0</ele><time>2026-05-03T17:21:07Z</time></trkpt><trkpt lat="36.020834487201164" lon="-107.02854688279423"><ele>2151.0</ele><time>2026-05-03T17:21:08Z</time></trkpt><trkpt lat="36.02071898997546" lon="-107.02856714147859"><ele>2150.6</ele><time>2026-05-03T17:21:09Z</time></trkpt><trkpt lat="36.02063414481627" lon="-107.02859639339005"><ele>2150.2</ele><time>2026-05-03T17:21:10Z</time></trkpt><trkpt lat="36.02055287747978" lon="-107.02865541189723"><ele>2149.8</ele><time>2026-05-03T17:21:11Z</time></trkpt><trkpt lat="36.02046379454964" lon="-107.02877795194604"><ele>2149.4</ele><time>2026-05-03T17:21:12Z</time></trkpt><trkpt lat="36.02038728078493" lon="-107.02891057251108"><ele>2149.0</ele><time>2026-05-03T17:21:13Z</time></trkpt><trkpt lat="36.02032232289808" lon="-107.02901294348744"><ele>2149.0</ele><time>2026-05-03T17:21:14Z</time></trkpt><trkpt lat="36.020248204725185" lon="-107.02909282008073"><ele>2149.0</ele><time>2026-05-03T17:21:15Z</time></trkpt><trkpt lat="36.020162440654914" lon="-107.02918296308425"><ele>2149.0</ele><time>2026-05-03T17:21:16Z</time></trkpt><trkpt lat="36.02010390163567" lon="-107.02924181215754"><ele>2149.0</ele><time>2026-05-03T17:21:17Z</time></trkpt><trkpt lat="36.02001436592327" lon="-107.02934823005839"><ele>2149.0</ele><time>2026-05-03T17:21:18Z</time></trkpt><trkpt lat="36.01990430577212" lon="-107.0294599116311"><ele>2149.2</ele><time>2026-05-03T17:21:19Z</time></trkpt><trkpt lat="36.01980402978108" lon="-107.02956213932457"><ele>2149.4</ele><time>2026-05-03T17:21:20Z</time></trkpt><trkpt lat="36.01973348445254" lon="-107.02960596393713"><ele>2149.6</ele><time>2026-05-03T17:21:21Z</time></trkpt><trkpt lat="36.019656426333626" lon="-107.02963700485543"><ele>2149.8</ele><time>2026-05-03T17:21:22Z</time></trkpt><trkpt lat="36.01955218230319" lon="-107.0296448442278"><ele>2150.0</ele><time>2026-05-03T17:21:23Z</time></trkpt><trkpt lat="36.01948777022661" lon="-107.02965228020729"><ele>2150.0</ele><time>2026-05-03T17:21:24Z</time></trkpt><trkpt lat="36.019419468871874" lon="-107.0297294345646"><ele>2150.0</ele><time>2026-05-03T17:21:25Z</time></trkpt><trkpt lat="36.019349118459914" lon="-107.02984916845733"><ele>2150.0</ele><time>2026-05-03T17:21:26Z</time></trkpt><trkpt lat="36.019251653979865" lon="-107.02991814495655"><ele>2150.0</ele><time>2026-05-03T17:21:27Z</time></trkpt><trkpt lat="36.019178994109524" lon="-107.02992682463352"><ele>2150.0</ele><time>2026-05-03T17:21:28Z</time></trkpt><trkpt lat="36.01908361818393" lon="-107.02992101100928"><ele>2149.4</ele><time>2026-05-03T17:21:29Z</time></trkpt><trkpt lat="36.019009718730764" lon="-107.02991524224484"><ele>2148.8</ele><time>2026-05-03T17:21:30Z</time></trkpt><trkpt lat="36.0189139217308" lon="-107.02990495575153"><ele>2148.2</ele><time>2026-05-03T17:21:31Z</time></trkpt><trkpt lat="36.01879172410668" lon="-107.02984474661659"><ele>2147.6</ele><time>2026-05-03T17:21:32Z</time></trkpt><trkpt lat="36.0186859003417" lon="-107.02982798868359"><ele>2147.0</ele><time>2026-05-03T17:21:33Z</time></trkpt><trkpt lat="36.01860377140128" lon="-107.02985452735808"><ele>2147.0</ele><time>2026-05-03T17:21:34Z</time></trkpt><trkpt lat="36.018526520820345" lon="-107.02988702924836"><ele>2147.0</ele><time>2026-05-03T17:21:35Z</time></trkpt><trkpt lat="36.018445167832105" lon="-107.02986257718543"><ele>2147.0</ele><time>2026-05-03T17:21:36Z</time></trkpt><trkpt lat="36.01837060374735" lon="-107.02984645470809"><ele>2147.0</ele><time>2026-05-03T17:21:37Z</time></trkpt><trkpt lat="36.01829177694299" lon="-107.02985311494734"><ele>2147.0</ele><time>2026-05-03T17:21:38Z</time></trkpt><trkpt lat="36.01818763186967" lon="-107.0298145800079"><ele>2147.0</ele><time>2026-05-03T17:21:39Z</time></trkpt><trkpt lat="36.01809636693292" lon="-107.02979298522253"><ele>2146.4</ele><time>2026-05-03T17:21:40Z</time></trkpt><trkpt lat="36.018016083057084" lon="-107.02982159055617"><ele>2145.7999999999997</ele><time>2026-05-03T17:21:41Z</time></trkpt><trkpt lat="36.017936626105126" lon="-107.02989148058624"><ele>2145.2</ele><time>2026-05-03T17:21:42Z</time></trkpt><trkpt lat="36.017850596985326" lon="-107.02990823654706"><ele>2144.6</ele><time>2026-05-03T17:21:43Z</time></trkpt><trkpt lat="36.017773942161774" lon="-107.02983520363692"><ele>2144.0</ele><time>2026-05-03T17:21:44Z</time></trkpt><trkpt lat="36.01766875406947" lon="-107.0297337241877"><ele>2144.0</ele><time>2026-05-03T17:21:45Z</time></trkpt><trkpt lat="36.017603831105" lon="-107.02963573427945"><ele>2144.0</ele><time>2026-05-03T17:21:46Z</time></trkpt><trkpt lat="36.01760830048971" lon="-107.02954255851975"><ele>2144.0</ele><time>2026-05-03T17:21:47Z</time></trkpt><trkpt lat="36.01762162078574" lon="-107.02944737812972"><ele>2144.0</ele><time>2026-05-03T17:21:48Z</time></trkpt><trkpt lat="36.01762125391678" lon="-107.02935750819265"><ele>2144.0</ele><time>2026-05-03T17:21:49Z</time></trkpt><trkpt lat="36.01757012804331" lon="-107.02929921452638"><ele>2144.0</ele><time>2026-05-03T17:21:50Z</time></trkpt><trkpt lat="36.01745168247148" lon="-107.02926665894726"><ele>2144.25</ele><time>2026-05-03T17:21:51Z</time></trkpt><trkpt lat="36.01732935108028" lon="-107.0292580773519"><ele>2144.5</ele><time>2026-05-03T17:21:52Z</time></trkpt><trkpt lat="36.017207610316596" lon="-107.0293188872454"><ele>2144.75</ele><time>2026-05-03T17:21:53Z</time></trkpt><trkpt lat="36.01711977828597" lon="-107.02943462144901"><ele>2145.0</ele><time>2026-05-03T17:21:54Z</time></trkpt><trkpt lat="36.017048221472535" lon="-107.0295492243808"><ele>2145.0</ele><time>2026-05-03T17:21:55Z</time></trkpt><trkpt lat="36.01697080698279" lon="-107.02970882488742"><ele>2145.0</ele><time>2026-05-03T17:21:56Z</time></trkpt><trkpt lat="36.016877238549924" lon="-107.02985255647374"><ele>2145.0</ele><time>2026-05-03T17:21:57Z</time></trkpt><trkpt lat="36.01676183969703" lon="-107.02999143972146"><ele>2145.0</ele><time>2026-05-03T17:21:58Z</time></trkpt><trkpt lat="36.01667401009904" lon="-107.03010213077326"><ele>2145.0</ele><time>2026-05-03T17:21:59Z</time></trkpt><trkpt lat="36.016610725387665" lon="-107.030175444475"><ele>2145.0</ele><time>2026-05-03T17:22:00Z</time></trkpt><trkpt lat="36.01655275069639" lon="-107.03020979166479"><ele>2145.0</ele><time>2026-05-03T17:22:01Z</time></trkpt><trkpt lat="36.01647103922166" lon="-107.03016235704317"><ele>2145.0</ele><time>2026-05-03T17:22:02Z</time></trkpt><trkpt lat="36.016405119667226" lon="-107.03006908445663"><ele>2144.5</ele><time>2026-05-03T17:22:03Z</time></trkpt><trkpt lat="36.01631567357918" lon="-107.02997568207095"><ele>2144.0</ele><time>2026-05-03T17:22:04Z</time></trkpt><trkpt lat="36.016197561797185" lon="-107.02994276435452"><ele>2143.5</ele><time>2026-05-03T17:22:05Z</time></trkpt><trkpt lat="36.016065573875025" lon="-107.02990981266143"><ele>2143.0</ele><time>2026-05-03T17:22:06Z</time></trkpt><trkpt lat="36.01590066880757" lon="-107.02986277024092"><ele>2142.3333333333335</ele><time>2026-05-03T17:22:07Z</time></trkpt><trkpt lat="36.015736408819144" lon="-107.02985325949885"><ele>2141.6666666666665</ele><time>2026-05-03T17:22:08Z</time></trkpt><trkpt lat="36.015582691934526" lon="-107.02985706197651"><ele>2141.0</ele><time>2026-05-03T17:22:09Z</time></trkpt><trkpt lat="36.01544762986401" lon="-107.0298533483837"><ele>2141.0</ele><time>2026-05-03T17:22:10Z</time></trkpt><trkpt lat="36.01536771372544" lon="-107.02983067172988"><ele>2141.0</ele><time>2026-05-03T17:22:11Z</time></trkpt><trkpt lat="36.0153056649687" lon="-107.02973426160358"><ele>2141.0</ele><time>2026-05-03T17:22:12Z</time></trkpt><trkpt lat="36.01526183697746" lon="-107.02962394284926"><ele>2141.0</ele><time>2026-05-03T17:22:13Z</time></trkpt><trkpt lat="36.01523366515403" lon="-107.02946477234049"><ele>2141.0</ele><time>2026-05-03T17:22:14Z</time></trkpt><trkpt lat="36.01519899066175" lon="-107.02932835613454"><ele>2141.0</ele><time>2026-05-03T17:22:15Z</time></trkpt><trkpt lat="36.01515064213565" lon="-107.02920378883881"><ele>2141.0</ele><time>2026-05-03T17:22:16Z</time></trkpt><trkpt lat="36.01508749429045" lon="-107.0291243786474"><ele>2141.0</ele><time>2026-05-03T17:22:17Z</time></trkpt><trkpt lat="36.01498472443433" lon="-107.02905570799504"><ele>2141.0</ele><time>2026-05-03T17:22:18Z</time></trkpt><trkpt lat="36.01485651555173" lon="-107.02901061279479"><ele>2141.5</ele><time>2026-05-03T17:22:19Z</time></trkpt><trkpt lat="36.014747663007846" lon="-107.02897731164991"><ele>2142.0</ele><time>2026-05-03T17:22:20Z</time></trkpt><trkpt lat="36.01464044775487" lon="-107.0290027353764"><ele>2142.5</ele><time>2026-05-03T17:22:21Z</time></trkpt><trkpt lat="36.014512017025986" lon="-107.02908425416045"><ele>2143.0</ele><time>2026-05-03T17:22:22Z</time></trkpt><trkpt lat="36.01440218543182" lon="-107.02918274782276"><ele>2142.0</ele><time>2026-05-03T17:22:23Z</time></trkpt><trkpt lat="36.014317299530866" lon="-107.02930966458933"><ele>2141.0</ele><time>2026-05-03T17:22:24Z</time></trkpt><trkpt lat="36.01425040935116" lon="-107.02945633975807"><ele>2140.0</ele><time>2026-05-03T17:22:25Z</time></trkpt><trkpt lat="36.014229521065545" lon="-107.02959754321179"><ele>2139.0</ele><time>2026-05-03T17:22:26Z</time></trkpt><trkpt lat="36.014218141594625" lon="-107.02973329249298"><ele>2139.0</ele><time>2026-05-03T17:22:27Z</time></trkpt><trkpt lat="36.01421643519441" lon="-107.02986383274838"><ele>2139.0</ele><time>2026-05-03T17:22:28Z</time></trkpt><trkpt lat="36.01419375851529" lon="-107.02998520102547"><ele>2139.0</ele><time>2026-05-03T17:22:29Z</time></trkpt><trkpt lat="36.01412976606409" lon="-107.03008415497814"><ele>2139.0</ele><time>2026-05-03T17:22:30Z</time></trkpt><trkpt lat="36.01400916287883" lon="-107.03012611577206"><ele>2139.0</ele><time>2026-05-03T17:22:31Z</time></trkpt><trkpt lat="36.013856998094454" lon="-107.03011910230214"><ele>2139.0</ele><time>2026-05-03T17:22:32Z</time></trkpt><trkpt lat="36.01371518653766" lon="-107.03005751050344"><ele>2139.0</ele><time>2026-05-03T17:22:33Z</time></trkpt><trkpt lat="36.01359697941128" lon="-107.0299521031271"><ele>2139.0</ele><time>2026-05-03T17:22:34Z</time></trkpt><trkpt lat="36.01347086301152" lon="-107.02982664316119"><ele>2139.0</ele><time>2026-05-03T17:22:35Z</time></trkpt><trkpt lat="36.013367347334984" lon="-107.02967458805179"><ele>2139.0</ele><time>2026-05-03T17:22:36Z</time></trkpt><trkpt lat="36.01327120327022" lon="-107.02955308577778"><ele>2139.0</ele><time>2026-05-03T17:22:37Z</time></trkpt><trkpt lat="36.01318542076315" lon="-107.02951112112639"><ele>2139.0</ele><time>2026-05-03T17:22:38Z</time></trkpt><trkpt lat="36.013106378177824" lon="-107.02952781205875"><ele>2139.0</ele><time>2026-05-03T17:22:39Z</time></trkpt><trkpt lat="36.01303369085469" lon="-107.029604305837"><ele>2139.0</ele><time>2026-05-03T17:22:40Z</time></trkpt><trkpt lat="36.01293887526866" lon="-107.02967716497886"><ele>2139.0</ele><time>2026-05-03T17:22:41Z</time></trkpt><trkpt lat="36.0128170740388" lon="-107.02973343912173"><ele>2139.0</ele><time>2026-05-03T17:22:42Z</time></trkpt><trkpt lat="36.01266121433812" lon="-107.02974634115176"><ele>2139.0</ele><time>2026-05-03T17:22:43Z</time></trkpt><trkpt lat="36.01251109456553" lon="-107.02973967729302"><ele>2139.0</ele><time>2026-05-03T17:22:44Z</time></trkpt><trkpt lat="36.01233621216717" lon="-107.02970830747098"><ele>2139.0</ele><time>2026-05-03T17:22:45Z</time></trkpt><trkpt lat="36.01218469012167" lon="-107.02967439216481"><ele>2139.0</ele><time>2026-05-03T17:22:46Z</time></trkpt><trkpt lat="36.01203003266973" lon="-107.02962478630448"><ele>2139.0</ele><time>2026-05-03T17:22:47Z</time></trkpt><trkpt lat="36.011883324372015" lon="-107.02960342918796"><ele>2139.0</ele><time>2026-05-03T17:22:48Z</time></trkpt><trkpt lat="36.0117542261174" lon="-107.02962082355499"><ele>2139.0</ele><time>2026-05-03T17:22:49Z</time></trkpt><trkpt lat="36.01158694467133" lon="-107.0296465872829"><ele>2138.6666666666665</ele><time>2026-05-03T17:22:50Z</time></trkpt><trkpt lat="36.011422449688745" lon="-107.029714457988"><ele>2138.333333333333</ele><time>2026-05-03T17:22:51Z</time></trkpt><trkpt lat="36.011269461534745" lon="-107.02981192348824"><ele>2138.0</ele><time>2026-05-03T17:22:52Z</time></trkpt><trkpt lat="36.011142598741884" lon="-107.02994598014057"><ele>2137.333333333333</ele><time>2026-05-03T17:22:53Z</time></trkpt><trkpt lat="36.01101060054473" lon="-107.03009821600597"><ele>2136.6666666666665</ele><time>2026-05-03T17:22:54Z</time></trkpt><trkpt lat="36.010867196944325" lon="-107.03027302991093"><ele>2136.0</ele><time>2026-05-03T17:22:55Z</time></trkpt><trkpt lat="36.010761989369925" lon="-107.03043829122613"><ele>2136.0</ele><time>2026-05-03T17:22:56Z</time></trkpt><trkpt lat="36.01071060130707" lon="-107.03063269351756"><ele>2136.0</ele><time>2026-05-03T17:22:57Z</time></trkpt><trkpt lat="36.010649551529674" lon="-107.03085881834643"><ele>2136.0</ele><time>2026-05-03T17:22:58Z</time></trkpt><trkpt lat="36.010600158639726" lon="-107.03107863211069"><ele>2135.0</ele><time>2026-05-03T17:22:59Z</time></trkpt><trkpt lat="36.0105396447856" lon="-107.03129799011462"><ele>2134.0</ele><time>2026-05-03T17:23:00Z</time></trkpt><trkpt lat="36.01046275850193" lon="-107.03147004022712"><ele>2133.0</ele><time>2026-05-03T17:23:01Z</time></trkpt><trkpt lat="36.010381685079736" lon="-107.03161379609794"><ele>2132.75</ele><time>2026-05-03T17:23:02Z</time></trkpt><trkpt lat="36.010291298999455" lon="-107.0317490002607"><ele>2132.5</ele><time>2026-05-03T17:23:03Z</time></trkpt><trkpt lat="36.01020265928651" lon="-107.03181688124232"><ele>2132.25</ele><time>2026-05-03T17:23:04Z</time></trkpt><trkpt lat="36.01007792104734" lon="-107.03182073478222"><ele>2132.0</ele><time>2026-05-03T17:23:05Z</time></trkpt><trkpt lat="36.009916724631644" lon="-107.03180752914012"><ele>2131.7999999999997</ele><time>2026-05-03T17:23:06Z</time></trkpt><trkpt lat="36.0097869790474" lon="-107.0317686171018"><ele>2131.6</ele><time>2026-05-03T17:23:07Z</time></trkpt><trkpt lat="36.009685071094076" lon="-107.03173267148834"><ele>2131.3999999999996</ele><time>2026-05-03T17:23:08Z</time></trkpt><trkpt lat="36.00959760436081" lon="-107.03173395679669"><ele>2131.2</ele><time>2026-05-03T17:23:09Z</time></trkpt><trkpt lat="36.009534339872054" lon="-107.03177150319712"><ele>2131.0</ele><time>2026-05-03T17:23:10Z</time></trkpt><trkpt lat="36.009494408872655" lon="-107.03186215846686"><ele>2131.0</ele><time>2026-05-03T17:23:11Z</time></trkpt><trkpt lat="36.009468122412194" lon="-107.03194177765354"><ele>2131.0</ele><time>2026-05-03T17:23:12Z</time></trkpt><trkpt lat="36.009422978947754" lon="-107.03208486094577"><ele>2131.0</ele><time>2026-05-03T17:23:14Z</time></trkpt><trkpt lat="36.00940472169481" lon="-107.03220235758408"><ele>2131.0</ele><time>2026-05-03T17:23:15Z</time></trkpt><trkpt lat="36.00939214388658" lon="-107.03234023269378"><ele>2131.0</ele><time>2026-05-03T17:23:16Z</time></trkpt><trkpt lat="36.009376251013414" lon="-107.03247051618708"><ele>2131.0</ele><time>2026-05-03T17:23:17Z</time></trkpt><trkpt lat="36.00933475200084" lon="-107.03262015353397"><ele>2131.0</ele><time>2026-05-03T17:23:18Z</time></trkpt><trkpt lat="36.009268330365" lon="-107.0327519517534"><ele>2131.0</ele><time>2026-05-03T17:23:19Z</time></trkpt><trkpt lat="36.00917361732509" lon="-107.03287082735048"><ele>2131.0</ele><time>2026-05-03T17:23:20Z</time></trkpt><trkpt lat="36.009081429739055" lon="-107.03301032408022"><ele>2131.0</ele><time>2026-05-03T17:23:21Z</time></trkpt><trkpt lat="36.00897098557019" lon="-107.03315414784105"><ele>2131.0</ele><time>2026-05-03T17:23:22Z</time></trkpt><trkpt lat="36.00886326391099" lon="-107.0333003797566"><ele>2131.0</ele><time>2026-05-03T17:23:23Z</time></trkpt><trkpt lat="36.00875670016409" lon="-107.03346014893295"><ele>2130.666666666667</ele><time>2026-05-03T17:23:24Z</time></trkpt><trkpt lat="36.008629150758075" lon="-107.03364853616955"><ele>2130.3333333333335</ele><time>2026-05-03T17:23:25Z</time></trkpt><trkpt lat="36.008493258094965" lon="-107.03383931948188"><ele>2130.0</ele><time>2026-05-03T17:23:26Z</time></trkpt><trkpt lat="36.008386121241784" lon="-107.03405100591414"><ele>2128.6666666666665</ele><time>2026-05-03T17:23:27Z</time></trkpt><trkpt lat="36.00828570182591" lon="-107.0342867960667"><ele>2127.333333333333</ele><time>2026-05-03T17:23:28Z</time></trkpt><trkpt lat="36.008186688741965" lon="-107.03452193871206"><ele>2126.0</ele><time>2026-05-03T17:23:29Z</time></trkpt><trkpt lat="36.00811892332698" lon="-107.03474079069736"><ele>2126.0</ele><time>2026-05-03T17:23:30Z</time></trkpt><trkpt lat="36.00806739479852" lon="-107.03490165527171"><ele>2126.0</ele><time>2026-05-03T17:23:31Z</time></trkpt><trkpt lat="36.007998996855264" lon="-107.03503800011963"><ele>2126.0</ele><time>2026-05-03T17:23:32Z</time></trkpt><trkpt lat="36.00789959190086" lon="-107.03514302694792"><ele>2126.0</ele><time>2026-05-03T17:23:33Z</time></trkpt><trkpt lat="36.007766847723694" lon="-107.03522048854379"><ele>2126.25</ele><time>2026-05-03T17:23:34Z</time></trkpt><trkpt lat="36.00761684913046" lon="-107.03526643734345"><ele>2126.5</ele><time>2026-05-03T17:23:35Z</time></trkpt><trkpt lat="36.00748998586576" lon="-107.03532235936854"><ele>2126.75</ele><time>2026-05-03T17:23:36Z</time></trkpt><trkpt lat="36.00740132987994" lon="-107.03539413627591"><ele>2127.0</ele><time>2026-05-03T17:23:37Z</time></trkpt><trkpt lat="36.007337447826" lon="-107.0354849436348"><ele>2127.0</ele><time>2026-05-03T17:23:38Z</time></trkpt><trkpt lat="36.007271304145654" lon="-107.035597389495"><ele>2127.0</ele><time>2026-05-03T17:23:39Z</time></trkpt><trkpt lat="36.00723480607267" lon="-107.03572055791619"><ele>2127.0</ele><time>2026-05-03T17:23:40Z</time></trkpt><trkpt lat="36.007191199079806" lon="-107.0358529492832"><ele>2127.0</ele><time>2026-05-03T17:23:41Z</time></trkpt><trkpt lat="36.00720578226515" lon="-107.03600657856916"><ele>2126.3333333333335</ele><time>2026-05-03T17:23:42Z</time></trkpt><trkpt lat="36.00724787327647" lon="-107.036168791262"><ele>2125.666666666667</ele><time>2026-05-03T17:23:43Z</time></trkpt><trkpt lat="36.00728186256741" lon="-107.03638283064559"><ele>2125.0</ele><time>2026-05-03T17:23:44Z</time></trkpt><trkpt lat="36.007278499081956" lon="-107.03655718033238"><ele>2124.6</ele><time>2026-05-03T17:23:45Z</time></trkpt><trkpt lat="36.007277531313655" lon="-107.03669726478815"><ele>2124.2</ele><time>2026-05-03T17:23:46Z</time></trkpt><trkpt lat="36.007271381087875" lon="-107.03679932173335"><ele>2123.8</ele><time>2026-05-03T17:23:47Z</time></trkpt><trkpt lat="36.00723867354358" lon="-107.03687833007257"><ele>2123.4</ele><time>2026-05-03T17:23:48Z</time></trkpt><trkpt lat="36.00715735329922" lon="-107.03694311171382"><ele>2123.0</ele><time>2026-05-03T17:23:49Z</time></trkpt><trkpt lat="36.007030475128" lon="-107.03697096819589"><ele>2123.0</ele><time>2026-05-03T17:23:50Z</time></trkpt><trkpt lat="36.00691518113744" lon="-107.03695761302984"><ele>2123.0</ele><time>2026-05-03T17:23:51Z</time></trkpt><trkpt lat="36.00681219901096" lon="-107.03697032386599"><ele>2123.0</ele><time>2026-05-03T17:23:52Z</time></trkpt><trkpt lat="36.00669780596898" lon="-107.03696978554015"><ele>2123.0</ele><time>2026-05-03T17:23:53Z</time></trkpt><trkpt lat="36.00660994002361" lon="-107.03692344747593"><ele>2123.0</ele><time>2026-05-03T17:23:54Z</time></trkpt><trkpt lat="36.0065323604011" lon="-107.0368532787162"><ele>2122.8</ele><time>2026-05-03T17:23:55Z</time></trkpt><trkpt lat="36.00652802379061" lon="-107.03677140765389"><ele>2122.6000000000004</ele><time>2026-05-03T17:23:56Z</time></trkpt><trkpt lat="36.00653094302326" lon="-107.03667315007374"><ele>2122.3999999999996</ele><time>2026-05-03T17:23:57Z</time></trkpt><trkpt lat="36.00652924837855" lon="-107.0365893689575"><ele>2122.2</ele><time>2026-05-03T17:23:58Z</time></trkpt><trkpt lat="36.00655578109236" lon="-107.03642322772981"><ele>2122.0</ele><time>2026-05-03T17:23:59Z</time></trkpt><trkpt lat="36.00656970051182" lon="-107.03624047438609"><ele>2122.4</ele><time>2026-05-03T17:24:00Z</time></trkpt><trkpt lat="36.00660154401176" lon="-107.03610708756928"><ele>2122.7999999999997</ele><time>2026-05-03T17:24:01Z</time></trkpt><trkpt lat="36.006523299962865" lon="-107.03598450986449"><ele>2123.2</ele><time>2026-05-03T17:24:03Z</time></trkpt><trkpt lat="36.00644976317287" lon="-107.03592111552467"><ele>2123.6</ele><time>2026-05-03T17:24:04Z</time></trkpt><trkpt lat="36.0063673036856" lon="-107.03591263584514"><ele>2124.0</ele><time>2026-05-03T17:24:05Z</time></trkpt><trkpt lat="36.00639625996261" lon="-107.03602746099378"><ele>2124.0</ele><time>2026-05-03T17:24:07Z</time></trkpt><trkpt lat="36.00635352875602" lon="-107.03613103887355"><ele>2124.0</ele><time>2026-05-03T17:24:09Z</time></trkpt><trkpt lat="36.00630728783974" lon="-107.03623111536275"><ele>2124.0</ele><time>2026-05-03T17:24:10Z</time></trkpt><trkpt lat="36.00624215794174" lon="-107.03633642119466"><ele>2124.0</ele><time>2026-05-03T17:24:11Z</time></trkpt><trkpt lat="36.006150060257625" lon="-107.03639766207226"><ele>2124.0</ele><time>2026-05-03T17:24:12Z</time></trkpt><trkpt lat="36.00604793705319" lon="-107.03647956499275"><ele>2124.0</ele><time>2026-05-03T17:24:13Z</time></trkpt><trkpt lat="36.005953843090424" lon="-107.03659781556401"><ele>2124.0</ele><time>2026-05-03T17:24:14Z</time></trkpt><trkpt lat="36.005868559201545" lon="-107.03669238093141"><ele>2124.0</ele><time>2026-05-03T17:24:15Z</time></trkpt><trkpt lat="36.005799053474746" lon="-107.03685395232857"><ele>2124.0</ele><time>2026-05-03T17:24:16Z</time></trkpt><trkpt lat="36.00571219082394" lon="-107.03701462888503"><ele>2123.4</ele><time>2026-05-03T17:24:17Z</time></trkpt><trkpt lat="36.005650555114045" lon="-107.03710415344072"><ele>2122.8</ele><time>2026-05-03T17:24:18Z</time></trkpt><trkpt lat="36.00560174144337" lon="-107.03717322673367"><ele>2122.2</ele><time>2026-05-03T17:24:19Z</time></trkpt><trkpt lat="36.00557114118098" lon="-107.0373127592913"><ele>2121.6</ele><time>2026-05-03T17:24:21Z</time></trkpt><trkpt lat="36.00567702170906" lon="-107.03739166858009"><ele>2121.0</ele><time>2026-05-03T17:24:23Z</time></trkpt><trkpt lat="36.00573988903688" lon="-107.03743848510942"><ele>2121.0</ele><time>2026-05-03T17:24:24Z</time></trkpt><trkpt lat="36.00578637755546" lon="-107.0374955925512"><ele>2121.0</ele><time>2026-05-03T17:24:25Z</time></trkpt><trkpt lat="36.00584555473332" lon="-107.03758889396458"><ele>2121.0</ele><time>2026-05-03T17:24:26Z</time></trkpt><trkpt lat="36.00590607942887" lon="-107.03771443200924"><ele>2121.0</ele><time>2026-05-03T17:24:27Z</time></trkpt><trkpt lat="36.00589065273845" lon="-107.03785958358236"><ele>2121.0</ele><time>2026-05-03T17:24:28Z</time></trkpt><trkpt lat="36.00585359099225" lon="-107.03801831837715"><ele>2121.0</ele><time>2026-05-03T17:24:29Z</time></trkpt><trkpt lat="36.00580678005218" lon="-107.03817316973318"><ele>2121.0</ele><time>2026-05-03T17:24:30Z</time></trkpt><trkpt lat="36.00573134859207" lon="-107.03832691803197"><ele>2121.0</ele><time>2026-05-03T17:24:31Z</time></trkpt><trkpt lat="36.00563839579213" lon="-107.03846463079427"><ele>2121.0</ele><time>2026-05-03T17:24:32Z</time></trkpt><trkpt lat="36.00551685049007" lon="-107.03862542279076"><ele>2120.3333333333335</ele><time>2026-05-03T17:24:33Z</time></trkpt><trkpt lat="36.00539452032465" lon="-107.03877742617264"><ele>2119.666666666667</ele><time>2026-05-03T17:24:34Z</time></trkpt><trkpt lat="36.00525900668236" lon="-107.03893938714477"><ele>2119.0</ele><time>2026-05-03T17:24:35Z</time></trkpt><trkpt lat="36.005103650306104" lon="-107.03910981791302"><ele>2118.0</ele><time>2026-05-03T17:24:36Z</time></trkpt><trkpt lat="36.00494230698788" lon="-107.03926374490051"><ele>2117.0</ele><time>2026-05-03T17:24:37Z</time></trkpt><trkpt lat="36.004754409906894" lon="-107.03940073212237"><ele>2116.0</ele><time>2026-05-03T17:24:38Z</time></trkpt><trkpt lat="36.00455451564244" lon="-107.03952142546581"><ele>2116.0</ele><time>2026-05-03T17:24:39Z</time></trkpt><trkpt lat="36.00435666201777" lon="-107.03963185186201"><ele>2116.0</ele><time>2026-05-03T17:24:40Z</time></trkpt><trkpt lat="36.00415790363258" lon="-107.0397496271111"><ele>2116.0</ele><time>2026-05-03T17:24:41Z</time></trkpt><trkpt lat="36.00394937726074" lon="-107.03988115810976"><ele>2116.0</ele><time>2026-05-03T17:24:42Z</time></trkpt><trkpt lat="36.00373290377273" lon="-107.04000264016132"><ele>2116.0</ele><time>2026-05-03T17:24:43Z</time></trkpt><trkpt lat="36.003542759921864" lon="-107.0401299400582"><ele>2116.0</ele><time>2026-05-03T17:24:44Z</time></trkpt><trkpt lat="36.00337259160198" lon="-107.04026100946528"><ele>2116.0</ele><time>2026-05-03T17:24:45Z</time></trkpt><trkpt lat="36.00325231811298" lon="-107.04036836099921"><ele>2116.0</ele><time>2026-05-03T17:24:46Z</time></trkpt><trkpt lat="36.0031664426349" lon="-107.04047841465372"><ele>2115.666666666667</ele><time>2026-05-03T17:24:47Z</time></trkpt><trkpt lat="36.00308772047771" lon="-107.04060502977168"><ele>2115.3333333333335</ele><time>2026-05-03T17:24:48Z</time></trkpt><trkpt lat="36.0030026868169" lon="-107.04075693348742"><ele>2115.0</ele><time>2026-05-03T17:24:49Z</time></trkpt><trkpt lat="36.002915008296995" lon="-107.04094118851509"><ele>2114.6666666666665</ele><time>2026-05-03T17:24:50Z</time></trkpt><trkpt lat="36.00284894945359" lon="-107.04112904031975"><ele>2114.333333333333</ele><time>2026-05-03T17:24:51Z</time></trkpt><trkpt lat="36.002787526597054" lon="-107.04133765338193"><ele>2114.0</ele><time>2026-05-03T17:24:52Z</time></trkpt><trkpt lat="36.002715438373066" lon="-107.04154966238352"><ele>2114.0</ele><time>2026-05-03T17:24:53Z</time></trkpt><trkpt lat="36.002633037831274" lon="-107.04172608507545"><ele>2114.0</ele><time>2026-05-03T17:24:54Z</time></trkpt><trkpt lat="36.00253905235075" lon="-107.04183537456694"><ele>2114.0</ele><time>2026-05-03T17:24:55Z</time></trkpt><trkpt lat="36.00245278157266" lon="-107.04192780339608"><ele>2114.0</ele><time>2026-05-03T17:24:56Z</time></trkpt><trkpt lat="36.0023760521522" lon="-107.04201117720129"><ele>2113.8</ele><time>2026-05-03T17:24:57Z</time></trkpt><trkpt lat="36.00231762478417" lon="-107.0421048769718"><ele>2113.6000000000004</ele><time>2026-05-03T17:24:58Z</time></trkpt><trkpt lat="36.00227449951728" lon="-107.04220810110887"><ele>2113.4</ele><time>2026-05-03T17:24:59Z</time></trkpt><trkpt lat="36.00226247758797" lon="-107.04228835461387"><ele>2113.2000000000003</ele><time>2026-05-03T17:25:00Z</time></trkpt><trkpt lat="36.00230616729283" lon="-107.042421250345"><ele>2113.0</ele><time>2026-05-03T17:25:01Z</time></trkpt><trkpt lat="36.002365199343984" lon="-107.0425585782279"><ele>2113.0</ele><time>2026-05-03T17:25:02Z</time></trkpt><trkpt lat="36.00237808901008" lon="-107.0427058708763"><ele>2113.0</ele><time>2026-05-03T17:25:03Z</time></trkpt><trkpt lat="36.00241732023691" lon="-107.04286562639736"><ele>2113.0</ele><time>2026-05-03T17:25:04Z</time></trkpt><trkpt lat="36.00248026341904" lon="-107.04301860515606"><ele>2113.0</ele><time>2026-05-03T17:25:05Z</time></trkpt><trkpt lat="36.0025121739745" lon="-107.04312854788641"><ele>2112.8</ele><time>2026-05-03T17:25:06Z</time></trkpt><trkpt lat="36.0025176598852" lon="-107.0432241311181"><ele>2112.6000000000004</ele><time>2026-05-03T17:25:07Z</time></trkpt><trkpt lat="36.002475337974325" lon="-107.04332472606849"><ele>2112.3999999999996</ele><time>2026-05-03T17:25:08Z</time></trkpt><trkpt lat="36.00236991134764" lon="-107.04340758144262"><ele>2112.2</ele><time>2026-05-03T17:25:09Z</time></trkpt><trkpt lat="36.002269562321494" lon="-107.0434577997671"><ele>2112.0</ele><time>2026-05-03T17:25:10Z</time></trkpt><trkpt lat="36.00217310528734" lon="-107.04349874363572"><ele>2111.7999999999997</ele><time>2026-05-03T17:25:11Z</time></trkpt><trkpt lat="36.002098249445616" lon="-107.04358980137944"><ele>2111.6</ele><time>2026-05-03T17:25:12Z</time></trkpt><trkpt lat="36.00207998373959" lon="-107.04370554469338"><ele>2111.3999999999996</ele><time>2026-05-03T17:25:13Z</time></trkpt><trkpt lat="36.00207189582628" lon="-107.04383308459117"><ele>2111.2</ele><time>2026-05-03T17:25:14Z</time></trkpt><trkpt lat="36.0020511991304" lon="-107.0439668548714"><ele>2111.0</ele><time>2026-05-03T17:25:15Z</time></trkpt><trkpt lat="36.00204922801149" lon="-107.04410405435982"><ele>2110.333333333333</ele><time>2026-05-03T17:25:16Z</time></trkpt><trkpt lat="36.002050481659516" lon="-107.04428170486715"><ele>2109.6666666666665</ele><time>2026-05-03T17:25:17Z</time></trkpt><trkpt lat="36.002058345918876" lon="-107.04450819536203"><ele>2109.0</ele><time>2026-05-03T17:25:18Z</time></trkpt><trkpt lat="36.00205730560876" lon="-107.04472809498759"><ele>2109.0</ele><time>2026-05-03T17:25:19Z</time></trkpt><trkpt lat="36.00203123876691" lon="-107.04495827202523"><ele>2109.0</ele><time>2026-05-03T17:25:20Z</time></trkpt><trkpt lat="36.00200027184962" lon="-107.04515768432422"><ele>2109.0</ele><time>2026-05-03T17:25:21Z</time></trkpt><trkpt lat="36.001946641425455" lon="-107.0453219475617"><ele>2109.0</ele><time>2026-05-03T17:25:22Z</time></trkpt><trkpt lat="36.001875262716" lon="-107.04549113917031"><ele>2109.0</ele><time>2026-05-03T17:25:23Z</time></trkpt><trkpt lat="36.00179681821605" lon="-107.04566787190105"><ele>2109.0</ele><time>2026-05-03T17:25:24Z</time></trkpt><trkpt lat="36.00172311801432" lon="-107.04586533779624"><ele>2108.8</ele><time>2026-05-03T17:25:25Z</time></trkpt><trkpt lat="36.00167925930283" lon="-107.04603914610688"><ele>2108.6000000000004</ele><time>2026-05-03T17:25:26Z</time></trkpt><trkpt lat="36.00167057836968" lon="-107.04619722401414"><ele>2108.4</ele><time>2026-05-03T17:25:27Z</time></trkpt><trkpt lat="36.001689266768786" lon="-107.04631016276386"><ele>2108.2000000000003</ele><time>2026-05-03T17:25:28Z</time></trkpt><trkpt lat="36.00172515073714" lon="-107.0463780897065"><ele>2108.0</ele><time>2026-05-03T17:25:29Z</time></trkpt><trkpt lat="36.0018494144469" lon="-107.04643532224493"><ele>2108.0</ele><time>2026-05-03T17:25:31Z</time></trkpt><trkpt lat="36.00189297874233" lon="-107.04649485055434"><ele>2108.0</ele><time>2026-05-03T17:25:32Z</time></trkpt><trkpt lat="36.001954712213376" lon="-107.04659513154992"><ele>2108.0</ele><time>2026-05-03T17:25:33Z</time></trkpt><trkpt lat="36.001987731057646" lon="-107.04674491656644"><ele>2108.0</ele><time>2026-05-03T17:25:34Z</time></trkpt><trkpt lat="36.0019907305215" lon="-107.0468811016173"><ele>2108.0</ele><time>2026-05-03T17:25:35Z</time></trkpt><trkpt lat="36.001924390288664" lon="-107.0470141432928"><ele>2107.5</ele><time>2026-05-03T17:25:36Z</time></trkpt><trkpt lat="36.00180296819182" lon="-107.0471119579691"><ele>2107.0</ele><time>2026-05-03T17:25:37Z</time></trkpt><trkpt lat="36.00167914641518" lon="-107.04720601732261"><ele>2106.5</ele><time>2026-05-03T17:25:38Z</time></trkpt><trkpt lat="36.0015592934205" lon="-107.04725134322604"><ele>2106.0</ele><time>2026-05-03T17:25:39Z</time></trkpt><trkpt lat="36.00141447284246" lon="-107.04730494740423"><ele>2105.3333333333335</ele><time>2026-05-03T17:25:40Z</time></trkpt><trkpt lat="36.001258460626886" lon="-107.04734234381303"><ele>2104.666666666667</ele><time>2026-05-03T17:25:41Z</time></trkpt><trkpt lat="36.00110579507864" lon="-107.04738845063542"><ele>2104.0</ele><time>2026-05-03T17:25:42Z</time></trkpt><trkpt lat="36.00094811869619" lon="-107.04746050577775"><ele>2103.666666666667</ele><time>2026-05-03T17:25:43Z</time></trkpt><trkpt lat="36.00080383642543" lon="-107.04756267311681"><ele>2103.3333333333335</ele><time>2026-05-03T17:25:44Z</time></trkpt><trkpt lat="36.00063461591864" lon="-107.0476943660136"><ele>2103.0</ele><time>2026-05-03T17:25:45Z</time></trkpt><trkpt lat="36.0004686282901" lon="-107.04782375495034"><ele>2103.0</ele><time>2026-05-03T17:25:46Z</time></trkpt><trkpt lat="36.00028886937792" lon="-107.04793792403929"><ele>2103.0</ele><time>2026-05-03T17:25:47Z</time></trkpt><trkpt lat="36.00010638219295" lon="-107.04804418392818"><ele>2103.0</ele><time>2026-05-03T17:25:48Z</time></trkpt><trkpt lat="35.999943687076495" lon="-107.04814062237443"><ele>2103.0</ele><time>2026-05-03T17:25:49Z</time></trkpt><trkpt lat="35.9998118930892" lon="-107.04818035441478"><ele>2103.0</ele><time>2026-05-03T17:25:50Z</time></trkpt><trkpt lat="35.9996685443714" lon="-107.04819695644414"><ele>2103.0</ele><time>2026-05-03T17:25:51Z</time></trkpt><trkpt lat="35.99948661472575" lon="-107.04817713794677"><ele>2103.0</ele><time>2026-05-03T17:25:52Z</time></trkpt><trkpt lat="35.99931617721617" lon="-107.0481652552279"><ele>2103.0</ele><time>2026-05-03T17:25:53Z</time></trkpt><trkpt lat="35.99912626410443" lon="-107.04817338184552"><ele>2103.0</ele><time>2026-05-03T17:25:54Z</time></trkpt><trkpt lat="35.99893636168258" lon="-107.04816437791902"><ele>2103.3333333333335</ele><time>2026-05-03T17:25:55Z</time></trkpt><trkpt lat="35.99873683398226" lon="-107.04817410195777"><ele>2103.666666666667</ele><time>2026-05-03T17:25:56Z</time></trkpt><trkpt lat="35.99854648410065" lon="-107.04821912195115"><ele>2104.0</ele><time>2026-05-03T17:25:57Z</time></trkpt><trkpt lat="35.99834484734958" lon="-107.04827091171754"><ele>2103.3333333333335</ele><time>2026-05-03T17:25:58Z</time></trkpt><trkpt lat="35.998146815606844" lon="-107.04832345328059"><ele>2102.6666666666665</ele><time>2026-05-03T17:25:59Z</time></trkpt><trkpt lat="35.997929309323645" lon="-107.04835642194286"><ele>2102.0</ele><time>2026-05-03T17:26:00Z</time></trkpt><trkpt lat="35.99772601698577" lon="-107.04838383115687"><ele>2102.0</ele><time>2026-05-03T17:26:01Z</time></trkpt><trkpt lat="35.99756129603127" lon="-107.04839074780915"><ele>2102.0</ele><time>2026-05-03T17:26:02Z</time></trkpt><trkpt lat="35.99738436517541" lon="-107.04838968098811"><ele>2102.0</ele><time>2026-05-03T17:26:03Z</time></trkpt><trkpt lat="35.99720317400684" lon="-107.04836659173304"><ele>2102.0</ele><time>2026-05-03T17:26:04Z</time></trkpt><trkpt lat="35.99706241364081" lon="-107.04830189317981"><ele>2102.0</ele><time>2026-05-03T17:26:05Z</time></trkpt><trkpt lat="35.99691740889888" lon="-107.04820806579256"><ele>2102.0</ele><time>2026-05-03T17:26:06Z</time></trkpt><trkpt lat="35.996800296668994" lon="-107.0481127694103"><ele>2102.0</ele><time>2026-05-03T17:26:07Z</time></trkpt><trkpt lat="35.99673406440775" lon="-107.04801055939055"><ele>2102.0</ele><time>2026-05-03T17:26:08Z</time></trkpt><trkpt lat="35.99669680239352" lon="-107.04789867335796"><ele>2102.0</ele><time>2026-05-03T17:26:09Z</time></trkpt><trkpt lat="35.996688496097406" lon="-107.04780936376773"><ele>2102.0</ele><time>2026-05-03T17:26:10Z</time></trkpt><trkpt lat="35.99674885501749" lon="-107.04773677639152"><ele>2102.0</ele><time>2026-05-03T17:26:12Z</time></trkpt><trkpt lat="35.996826679889395" lon="-107.04767696686648"><ele>2102.0</ele><time>2026-05-03T17:26:16Z</time></trkpt><trkpt lat="35.99678938708338" lon="-107.04759659809088"><ele>2102.0</ele><time>2026-05-03T17:26:18Z</time></trkpt><trkpt lat="35.99670432973136" lon="-107.04744074158215"><ele>2102.0</ele><time>2026-05-03T17:26:19Z</time></trkpt><trkpt lat="35.99662610716033" lon="-107.04740446094661"><ele>2102.0</ele><time>2026-05-03T17:26:20Z</time></trkpt><trkpt lat="35.99652287480384" lon="-107.04735657373693"><ele>2102.0</ele><time>2026-05-03T17:26:21Z</time></trkpt><trkpt lat="35.996399823906295" lon="-107.04726535591568"><ele>2103.25</ele><time>2026-05-03T17:26:22Z</time></trkpt><trkpt lat="35.996280256687534" lon="-107.04717728769968"><ele>2104.5</ele><time>2026-05-03T17:26:23Z</time></trkpt><trkpt lat="35.99614334402384" lon="-107.04709101437015"><ele>2105.75</ele><time>2026-05-03T17:26:24Z</time></trkpt><trkpt lat="35.99600896067637" lon="-107.04702893642826"><ele>2107.0</ele><time>2026-05-03T17:26:25Z</time></trkpt><trkpt lat="35.99586829062208" lon="-107.04698322866443"><ele>2106.5</ele><time>2026-05-03T17:26:26Z</time></trkpt><trkpt lat="35.99571460860302" lon="-107.04695851656619"><ele>2106.0</ele><time>2026-05-03T17:26:27Z</time></trkpt><trkpt lat="35.995576739830604" lon="-107.04694330635334"><ele>2105.5</ele><time>2026-05-03T17:26:28Z</time></trkpt><trkpt lat="35.99543749130112" lon="-107.04696696587797"><ele>2105.0</ele><time>2026-05-03T17:26:30Z</time></trkpt><trkpt lat="35.99542295381046" lon="-107.04710923273842"><ele>2105.0</ele><time>2026-05-03T17:26:32Z</time></trkpt><trkpt lat="35.99540351709637" lon="-107.04720579255496"><ele>2105.0</ele><time>2026-05-03T17:26:33Z</time></trkpt><trkpt lat="35.995395100057486" lon="-107.04734877083993"><ele>2105.0</ele><time>2026-05-03T17:26:34Z</time></trkpt><trkpt lat="35.995392691067615" lon="-107.04750425920973"><ele>2105.0</ele><time>2026-05-03T17:26:35Z</time></trkpt><trkpt lat="35.995376421665654" lon="-107.04764905215374"><ele>2105.0</ele><time>2026-05-03T17:26:36Z</time></trkpt><trkpt lat="35.995347144597915" lon="-107.04783149244106"><ele>2103.75</ele><time>2026-05-03T17:26:37Z</time></trkpt><trkpt lat="35.995320028221236" lon="-107.04802408551545"><ele>2102.5</ele><time>2026-05-03T17:26:38Z</time></trkpt><trkpt lat="35.9952723065644" lon="-107.04813340343182"><ele>2101.25</ele><time>2026-05-03T17:26:39Z</time></trkpt><trkpt lat="35.99522044729215" lon="-107.04822894914574"><ele>2100.0</ele><time>2026-05-03T17:26:40Z</time></trkpt><trkpt lat="35.9951361529217" lon="-107.04829219033282"><ele>2100.0</ele><time>2026-05-03T17:26:41Z</time></trkpt><trkpt lat="35.99502152271269" lon="-107.04835465749242"><ele>2100.0</ele><time>2026-05-03T17:26:42Z</time></trkpt><trkpt lat="35.99491088923852" lon="-107.04837724515525"><ele>2100.0</ele><time>2026-05-03T17:26:43Z</time></trkpt><trkpt lat="35.994790662822666" lon="-107.04839194062394"><ele>2100.0</ele><time>2026-05-03T17:26:44Z</time></trkpt><trkpt lat="35.994663010540656" lon="-107.04838203625191"><ele>2100.0</ele><time>2026-05-03T17:26:45Z</time></trkpt><trkpt lat="35.99452518520646" lon="-107.04834883798551"><ele>2100.0</ele><time>2026-05-03T17:26:46Z</time></trkpt><trkpt lat="35.994395967134956" lon="-107.04831233990716"><ele>2100.0</ele><time>2026-05-03T17:26:47Z</time></trkpt><trkpt lat="35.99424961675395" lon="-107.04827614317237"><ele>2100.0</ele><time>2026-05-03T17:26:48Z</time></trkpt><trkpt lat="35.99409655688768" lon="-107.04822754681574"><ele>2101.0</ele><time>2026-05-03T17:26:49Z</time></trkpt><trkpt lat="35.99393383931543" lon="-107.04818212970785"><ele>2102.0</ele><time>2026-05-03T17:26:50Z</time></trkpt><trkpt lat="35.993756121666976" lon="-107.04812811696887"><ele>2103.0</ele><time>2026-05-03T17:26:51Z</time></trkpt><trkpt lat="35.993573054330774" lon="-107.0480699048463"><ele>2103.0</ele><time>2026-05-03T17:26:52Z</time></trkpt><trkpt lat="35.99340971965504" lon="-107.04801977874261"><ele>2103.0</ele><time>2026-05-03T17:26:53Z</time></trkpt><trkpt lat="35.99327441124227" lon="-107.04797640284114"><ele>2103.0</ele><time>2026-05-03T17:26:54Z</time></trkpt><trkpt lat="35.99317267652443" lon="-107.04794770841929"><ele>2103.0</ele><time>2026-05-03T17:26:55Z</time></trkpt><trkpt lat="35.993078648816265" lon="-107.04791240254234"><ele>2103.0</ele><time>2026-05-03T17:26:56Z</time></trkpt><trkpt lat="35.993003235080174" lon="-107.04785690459191"><ele>2103.0</ele><time>2026-05-03T17:26:57Z</time></trkpt><trkpt lat="35.992939538541705" lon="-107.04780021198512"><ele>2103.0</ele><time>2026-05-03T17:26:58Z</time></trkpt><trkpt lat="35.99289485669699" lon="-107.04774042621432"><ele>2103.0</ele><time>2026-05-03T17:26:59Z</time></trkpt><trkpt lat="35.992788393482755" lon="-107.04769567311546"><ele>2103.0</ele><time>2026-05-03T17:27:00Z</time></trkpt><trkpt lat="35.99265383284448" lon="-107.0476416254767"><ele>2101.3333333333335</ele><time>2026-05-03T17:27:01Z</time></trkpt><trkpt lat="35.99250553642075" lon="-107.04758410849048"><ele>2099.666666666667</ele><time>2026-05-03T17:27:02Z</time></trkpt><trkpt lat="35.99235092417869" lon="-107.04752697694227"><ele>2098.0</ele><time>2026-05-03T17:27:03Z</time></trkpt><trkpt lat="35.99218940457652" lon="-107.04747335497208"><ele>2100.0</ele><time>2026-05-03T17:27:04Z</time></trkpt><trkpt lat="35.99205108107247" lon="-107.04739758335043"><ele>2102.0</ele><time>2026-05-03T17:27:05Z</time></trkpt><trkpt lat="35.99191773599985" lon="-107.04731432364733"><ele>2104.0</ele><time>2026-05-03T17:27:06Z</time></trkpt><trkpt lat="35.99177617323371" lon="-107.04724685789733"><ele>2102.75</ele><time>2026-05-03T17:27:07Z</time></trkpt><trkpt lat="35.99167160381515" lon="-107.04718393076482"><ele>2101.5</ele><time>2026-05-03T17:27:08Z</time></trkpt><trkpt lat="35.99156714405874" lon="-107.04709202991998"><ele>2100.25</ele><time>2026-05-03T17:27:09Z</time></trkpt><trkpt lat="35.99144323482417" lon="-107.04693340807691"><ele>2099.0</ele><time>2026-05-03T17:27:10Z</time></trkpt><trkpt lat="35.991332617603874" lon="-107.04679948364428"><ele>2099.0</ele><time>2026-05-03T17:27:11Z</time></trkpt><trkpt lat="35.99122896028422" lon="-107.04672116466493"><ele>2099.0</ele><time>2026-05-03T17:27:12Z</time></trkpt><trkpt lat="35.99112700125995" lon="-107.04662409590588"><ele>2099.0</ele><time>2026-05-03T17:27:13Z</time></trkpt><trkpt lat="35.99102925553564" lon="-107.04654309932994"><ele>2099.0</ele><time>2026-05-03T17:27:14Z</time></trkpt><trkpt lat="35.990963517326485" lon="-107.04646579521979"><ele>2099.25</ele><time>2026-05-03T17:27:15Z</time></trkpt><trkpt lat="35.99089924085225" lon="-107.04633634712033"><ele>2099.5</ele><time>2026-05-03T17:27:16Z</time></trkpt><trkpt lat="35.99083600441577" lon="-107.04620515209687"><ele>2099.75</ele><time>2026-05-03T17:27:17Z</time></trkpt><trkpt lat="35.99077903888015" lon="-107.04607557690056"><ele>2100.0</ele><time>2026-05-03T17:27:18Z</time></trkpt><trkpt lat="35.99074182669691" lon="-107.04597640696011"><ele>2100.0</ele><time>2026-05-03T17:27:19Z</time></trkpt><trkpt lat="35.990671259115466" lon="-107.04584497332509"><ele>2100.0</ele><time>2026-05-03T17:27:20Z</time></trkpt><trkpt lat="35.99059571252938" lon="-107.04569317146685"><ele>2100.0</ele><time>2026-05-03T17:27:21Z</time></trkpt><trkpt lat="35.990546583503914" lon="-107.04557747319772"><ele>2100.0</ele><time>2026-05-03T17:27:22Z</time></trkpt><trkpt lat="35.990506044256726" lon="-107.04547170250467"><ele>2100.0</ele><time>2026-05-03T17:27:23Z</time></trkpt><trkpt lat="35.9904799207758" lon="-107.04538151243251"><ele>2100.0</ele><time>2026-05-03T17:27:24Z</time></trkpt><trkpt lat="35.99048308403683" lon="-107.04526429599228"><ele>2100.0</ele><time>2026-05-03T17:27:25Z</time></trkpt><trkpt lat="35.99050761157368" lon="-107.04512738944041"><ele>2100.0</ele><time>2026-05-03T17:27:26Z</time></trkpt><trkpt lat="35.99051302381397" lon="-107.04497130322176"><ele>2100.0</ele><time>2026-05-03T17:27:27Z</time></trkpt><trkpt lat="35.99052734864797" lon="-107.04477218770154"><ele>2099.75</ele><time>2026-05-03T17:27:28Z</time></trkpt><trkpt lat="35.99056609206429" lon="-107.04457394190771"><ele>2099.5</ele><time>2026-05-03T17:27:29Z</time></trkpt><trkpt lat="35.99060793874375" lon="-107.04440409385525"><ele>2099.25</ele><time>2026-05-03T17:27:30Z</time></trkpt><trkpt lat="35.990640593530415" lon="-107.04423979327818"><ele>2099.0</ele><time>2026-05-03T17:27:31Z</time></trkpt><trkpt lat="35.99065777191841" lon="-107.04409763811809"><ele>2098.5</ele><time>2026-05-03T17:27:32Z</time></trkpt><trkpt lat="35.990676936180535" lon="-107.04395750846292"><ele>2098.0</ele><time>2026-05-03T17:27:33Z</time></trkpt><trkpt lat="35.990683036872" lon="-107.04380717493936"><ele>2097.5</ele><time>2026-05-03T17:27:34Z</time></trkpt><trkpt lat="35.99068671819668" lon="-107.04366937249657"><ele>2097.0</ele><time>2026-05-03T17:27:35Z</time></trkpt><trkpt lat="35.99071020514435" lon="-107.0435246104529"><ele>2097.0</ele><time>2026-05-03T17:27:36Z</time></trkpt><trkpt lat="35.990707192467504" lon="-107.04339393750313"><ele>2097.0</ele><time>2026-05-03T17:27:37Z</time></trkpt><trkpt lat="35.990682419062956" lon="-107.04328546580201"><ele>2097.0</ele><time>2026-05-03T17:27:38Z</time></trkpt><trkpt lat="35.990667438115295" lon="-107.043164697296"><ele>2097.0</ele><time>2026-05-03T17:27:39Z</time></trkpt><trkpt lat="35.9906624160438" lon="-107.04304799694455"><ele>2097.0</ele><time>2026-05-03T17:27:40Z</time></trkpt><trkpt lat="35.990650700833626" lon="-107.04290299836136"><ele>2097.0</ele><time>2026-05-03T17:27:41Z</time></trkpt><trkpt lat="35.99064968922993" lon="-107.04275648820439"><ele>2097.0</ele><time>2026-05-03T17:27:42Z</time></trkpt><trkpt lat="35.99065277142345" lon="-107.04263074360468"><ele>2097.0</ele><time>2026-05-03T17:27:43Z</time></trkpt><trkpt lat="35.99064036897789" lon="-107.04252228048807"><ele>2097.0</ele><time>2026-05-03T17:27:44Z</time></trkpt><trkpt lat="35.990626696695024" lon="-107.04240119881541"><ele>2097.0</ele><time>2026-05-03T17:27:45Z</time></trkpt><trkpt lat="35.99062326707853" lon="-107.04226890680957"><ele>2097.0</ele><time>2026-05-03T17:27:46Z</time></trkpt><trkpt lat="35.9905777443094" lon="-107.04211143010943"><ele>2097.0</ele><time>2026-05-03T17:27:47Z</time></trkpt><trkpt lat="35.990546214599796" lon="-107.04193546034776"><ele>2097.0</ele><time>2026-05-03T17:27:48Z</time></trkpt><trkpt lat="35.990544162345074" lon="-107.04177660666214"><ele>2097.0</ele><time>2026-05-03T17:27:49Z</time></trkpt><trkpt lat="35.99053546631385" lon="-107.0416732314934"><ele>2097.0</ele><time>2026-05-03T17:27:50Z</time></trkpt><trkpt lat="35.99050572406384" lon="-107.0415423657725"><ele>2097.0</ele><time>2026-05-03T17:27:52Z</time></trkpt><trkpt lat="35.99049119757383" lon="-107.04145205664909"><ele>2097.0</ele><time>2026-05-03T17:27:53Z</time></trkpt><trkpt lat="35.99052075009923" lon="-107.04131471659812"><ele>2097.0</ele><time>2026-05-03T17:27:54Z</time></trkpt><trkpt lat="35.99055344481342" lon="-107.04118799010746"><ele>2097.0</ele><time>2026-05-03T17:27:55Z</time></trkpt><trkpt lat="35.990535436812195" lon="-107.04106016443951"><ele>2097.0</ele><time>2026-05-03T17:27:56Z</time></trkpt><trkpt lat="35.990511344769786" lon="-107.04092295190443"><ele>2097.0</ele><time>2026-05-03T17:27:57Z</time></trkpt><trkpt lat="35.99049728158081" lon="-107.04081646754953"><ele>2097.0</ele><time>2026-05-03T17:27:58Z</time></trkpt><trkpt lat="35.990467668843635" lon="-107.04071368985798"><ele>2097.0</ele><time>2026-05-03T17:27:59Z</time></trkpt><trkpt lat="35.990448580742424" lon="-107.04061966863283"><ele>2097.0</ele><time>2026-05-03T17:28:00Z</time></trkpt><trkpt lat="35.99042808185681" lon="-107.04047736642303"><ele>2098.5</ele><time>2026-05-03T17:28:01Z</time></trkpt><trkpt lat="35.990374174053855" lon="-107.04032695489474"><ele>2100.0</ele><time>2026-05-03T17:28:02Z</time></trkpt><trkpt lat="35.990322057080256" lon="-107.04018992636374"><ele>2101.5</ele><time>2026-05-03T17:28:03Z</time></trkpt><trkpt lat="35.990252721601664" lon="-107.04007280649941"><ele>2103.0</ele><time>2026-05-03T17:28:04Z</time></trkpt><trkpt lat="35.99015068718984" lon="-107.04001304801773"><ele>2102.0</ele><time>2026-05-03T17:28:05Z</time></trkpt><trkpt lat="35.990007692271405" lon="-107.03992776430358"><ele>2101.0</ele><time>2026-05-03T17:28:06Z</time></trkpt><trkpt lat="35.989885517070675" lon="-107.03987775293015"><ele>2100.0</ele><time>2026-05-03T17:28:07Z</time></trkpt><trkpt lat="35.989738558095226" lon="-107.0398703708158"><ele>2099.0</ele><time>2026-05-03T17:28:08Z</time></trkpt><trkpt lat="35.98954525304267" lon="-107.03986402120672"><ele>2099.0</ele><time>2026-05-03T17:28:09Z</time></trkpt><trkpt lat="35.98936523204556" lon="-107.03985261865941"><ele>2099.0</ele><time>2026-05-03T17:28:10Z</time></trkpt><trkpt lat="35.98916879628567" lon="-107.03984841532834"><ele>2099.0</ele><time>2026-05-03T17:28:11Z</time></trkpt><trkpt lat="35.98895449636048" lon="-107.03983110638144"><ele>2098.333333333333</ele><time>2026-05-03T17:28:12Z</time></trkpt><trkpt lat="35.98873706433536" lon="-107.03980471817495"><ele>2097.6666666666665</ele><time>2026-05-03T17:28:13Z</time></trkpt><trkpt lat="35.98851599628535" lon="-107.03976090946367"><ele>2097.0</ele><time>2026-05-03T17:28:14Z</time></trkpt><trkpt lat="35.98832286076709" lon="-107.03973567692499"><ele>2097.0</ele><time>2026-05-03T17:28:15Z</time></trkpt><trkpt lat="35.9881264493557" lon="-107.03970301730556"><ele>2097.0</ele><time>2026-05-03T17:28:16Z</time></trkpt><trkpt lat="35.98794695816881" lon="-107.03966219349216"><ele>2097.0</ele><time>2026-05-03T17:28:17Z</time></trkpt><trkpt lat="35.98777455519001" lon="-107.03961478655644"><ele>2097.0</ele><time>2026-05-03T17:28:18Z</time></trkpt><trkpt lat="35.987641660312356" lon="-107.03953784901744"><ele>2097.0</ele><time>2026-05-03T17:28:19Z</time></trkpt><trkpt lat="35.987512798245504" lon="-107.0394297730494"><ele>2097.0</ele><time>2026-05-03T17:28:20Z</time></trkpt><trkpt lat="35.98736237258134" lon="-107.03929804223405"><ele>2097.0</ele><time>2026-05-03T17:28:21Z</time></trkpt><trkpt lat="35.98721727120938" lon="-107.03920472348328"><ele>2097.0</ele><time>2026-05-03T17:28:22Z</time></trkpt><trkpt lat="35.98706874407362" lon="-107.03912742513475"><ele>2097.0</ele><time>2026-05-03T17:28:23Z</time></trkpt><trkpt lat="35.98690515139622" lon="-107.03902002146954"><ele>2096.6666666666665</ele><time>2026-05-03T17:28:24Z</time></trkpt><trkpt lat="35.98675999375642" lon="-107.03890293264408"><ele>2096.333333333333</ele><time>2026-05-03T17:28:25Z</time></trkpt><trkpt lat="35.98658946162465" lon="-107.03880426430432"><ele>2096.0</ele><time>2026-05-03T17:28:26Z</time></trkpt><trkpt lat="35.986410432212004" lon="-107.03875045148921"><ele>2096.0</ele><time>2026-05-03T17:28:27Z</time></trkpt><trkpt lat="35.986216570984745" lon="-107.03869093395612"><ele>2096.0</ele><time>2026-05-03T17:28:28Z</time></trkpt><trkpt lat="35.98604978630364" lon="-107.03858092449208"><ele>2096.0</ele><time>2026-05-03T17:28:29Z</time></trkpt><trkpt lat="35.98588974578546" lon="-107.03843451737504"><ele>2096.333333333333</ele><time>2026-05-03T17:28:30Z</time></trkpt><trkpt lat="35.9857590687579" lon="-107.03831779523867"><ele>2096.6666666666665</ele><time>2026-05-03T17:28:31Z</time></trkpt><trkpt lat="35.98563076891089" lon="-107.038232217216"><ele>2097.0</ele><time>2026-05-03T17:28:32Z</time></trkpt><trkpt lat="35.98548327662644" lon="-107.03815090729486"><ele>2097.0</ele><time>2026-05-03T17:28:33Z</time></trkpt><trkpt lat="35.98534478155545" lon="-107.03807361607447"><ele>2097.0</ele><time>2026-05-03T17:28:34Z</time></trkpt><trkpt lat="35.9852293510651" lon="-107.0380008325847"><ele>2097.0</ele><time>2026-05-03T17:28:35Z</time></trkpt><trkpt lat="35.98512633892336" lon="-107.03792936516463"><ele>2097.0</ele><time>2026-05-03T17:28:36Z</time></trkpt><trkpt lat="35.98504396510787" lon="-107.03786778765533"><ele>2097.0</ele><time>2026-05-03T17:28:37Z</time></trkpt><trkpt lat="35.984987643960324" lon="-107.03779632956642"><ele>2097.0</ele><time>2026-05-03T17:28:38Z</time></trkpt><trkpt lat="35.98495603767643" lon="-107.03770106659515"><ele>2097.0</ele><time>2026-05-03T17:28:39Z</time></trkpt><trkpt lat="35.98494237972065" lon="-107.0375970419592"><ele>2097.0</ele><time>2026-05-03T17:28:40Z</time></trkpt><trkpt lat="35.98492372006519" lon="-107.03738801864014"><ele>2097.0</ele><time>2026-05-03T17:29:59Z</time></trkpt><trkpt lat="35.9848797910273" lon="-107.03728526856632"><ele>2097.0</ele><time>2026-05-03T17:30:00Z</time></trkpt><trkpt lat="35.98487126301449" lon="-107.03716934800964"><ele>2097.0</ele><time>2026-05-03T17:30:01Z</time></trkpt><trkpt lat="35.98488904975413" lon="-107.03704787911471"><ele>2097.0</ele><time>2026-05-03T17:30:02Z</time></trkpt><trkpt lat="35.98492674974592" lon="-107.03695181947403"><ele>2097.0</ele><time>2026-05-03T17:30:03Z</time></trkpt><trkpt lat="35.984983086446775" lon="-107.03687402170681"><ele>2097.0</ele><time>2026-05-03T17:30:04Z</time></trkpt><trkpt lat="35.98505169089325" lon="-107.03679661377096"><ele>2098.6</ele><time>2026-05-03T17:30:05Z</time></trkpt><trkpt lat="35.985131895148065" lon="-107.03673076305084"><ele>2100.2</ele><time>2026-05-03T17:30:06Z</time></trkpt><trkpt lat="35.98521770358707" lon="-107.03665954375444"><ele>2101.8</ele><time>2026-05-03T17:30:07Z</time></trkpt><trkpt lat="35.98531228342147" lon="-107.03658428175395"><ele>2103.4</ele><time>2026-05-03T17:30:08Z</time></trkpt><trkpt lat="35.98541073746442" lon="-107.03650479019821"><ele>2105.0</ele><time>2026-05-03T17:30:09Z</time></trkpt><trkpt lat="35.985501405972336" lon="-107.03641592135642"><ele>2105.4</ele><time>2026-05-03T17:30:10Z</time></trkpt><trkpt lat="35.985562031924054" lon="-107.03631399478745"><ele>2105.8</ele><time>2026-05-03T17:30:11Z</time></trkpt><trkpt lat="35.98562734325076" lon="-107.03619693773689"><ele>2106.2</ele><time>2026-05-03T17:30:12Z</time></trkpt><trkpt lat="35.985692361786356" lon="-107.03608638253885"><ele>2106.6</ele><time>2026-05-03T17:30:13Z</time></trkpt><trkpt lat="35.98573447878359" lon="-107.03600872126292"><ele>2107.0</ele><time>2026-05-03T17:30:14Z</time></trkpt><trkpt lat="35.98575426002205" lon="-107.03593207756042"><ele>2107.0</ele><time>2026-05-03T17:30:15Z</time></trkpt><trkpt lat="35.985758136312946" lon="-107.03583502280607"><ele>2107.0</ele><time>2026-05-03T17:30:17.001Z</time></trkpt><trkpt lat="35.985776374053586" lon="-107.03574722346016"><ele>2107.0</ele><time>2026-05-03T17:30:19.001Z</time></trkpt><trkpt lat="35.985742527992" lon="-107.03562425149896"><ele>2107.0</ele><time>2026-05-03T17:30:21.001Z</time></trkpt><trkpt lat="35.98572494761644" lon="-107.0355279577667"><ele>2107.0</ele><time>2026-05-03T17:30:22.001Z</time></trkpt><trkpt lat="35.98572559125754" lon="-107.03540129977884"><ele>2107.0</ele><time>2026-05-03T17:30:23.001Z</time></trkpt><trkpt lat="35.9857417970658" lon="-107.03532361480228"><ele>2106.3333333333335</ele><time>2026-05-03T17:30:24.001Z</time></trkpt><trkpt lat="35.98579054770821" lon="-107.03526444365993"><ele>2105.666666666667</ele><time>2026-05-03T17:30:25.001Z</time></trkpt><trkpt lat="35.98584531556609" lon="-107.03522312926758"><ele>2105.0</ele><time>2026-05-03T17:30:26.001Z</time></trkpt><trkpt lat="35.98590651872568" lon="-107.03519600961467"><ele>2104.3333333333335</ele><time>2026-05-03T17:30:28.001Z</time></trkpt><trkpt lat="35.98597537305776" lon="-107.03512415615678"><ele>2103.6666666666665</ele><time>2026-05-03T17:30:31.001Z</time></trkpt><trkpt lat="35.986021867775456" lon="-107.0350276159968"><ele>2103.0</ele><time>2026-05-03T17:30:33.001Z</time></trkpt><trkpt lat="35.98596598712062" lon="-107.03490719720945"><ele>2103.0</ele><time>2026-05-03T17:30:35Z</time></trkpt><trkpt lat="35.985940123385014" lon="-107.0347432617962"><ele>2103.0</ele><time>2026-05-03T17:30:37Z</time></trkpt><trkpt lat="35.98591324346266" lon="-107.03464833597303"><ele>2103.0</ele><time>2026-05-03T17:30:38Z</time></trkpt><trkpt lat="35.98587765741585" lon="-107.0345503703396"><ele>2103.0</ele><time>2026-05-03T17:30:39Z</time></trkpt><trkpt lat="35.98584193757502" lon="-107.03446667799413"><ele>2103.0</ele><time>2026-05-03T17:30:40Z</time></trkpt><trkpt lat="35.98583905557583" lon="-107.03432792254769"><ele>2103.5</ele><time>2026-05-03T17:30:42Z</time></trkpt><trkpt lat="35.98585858385145" lon="-107.03423969066714"><ele>2104.0</ele><time>2026-05-03T17:30:43Z</time></trkpt><trkpt lat="35.98579225761117" lon="-107.03413244867099"><ele>2104.5</ele><time>2026-05-03T17:30:45Z</time></trkpt><trkpt lat="35.985746455941225" lon="-107.03405629792546"><ele>2105.0</ele><time>2026-05-03T17:30:46Z</time></trkpt><trkpt lat="35.98573883922127" lon="-107.03394788920168"><ele>2105.5</ele><time>2026-05-03T17:30:47Z</time></trkpt><trkpt lat="35.98575010390488" lon="-107.03382498853138"><ele>2106.0</ele><time>2026-05-03T17:30:48Z</time></trkpt><trkpt lat="35.985747512525045" lon="-107.03373693737868"><ele>2106.0</ele><time>2026-05-03T17:30:49Z</time></trkpt><trkpt lat="35.98574355319046" lon="-107.03364789765396"><ele>2106.0</ele><time>2026-05-03T17:30:50Z</time></trkpt><trkpt lat="35.9857063036175" lon="-107.03355143907221"><ele>2106.0</ele><time>2026-05-03T17:30:51Z</time></trkpt><trkpt lat="35.985680800947215" lon="-107.03347679745437"><ele>2106.0</ele><time>2026-05-03T17:30:52Z</time></trkpt><trkpt lat="35.98559696917005" lon="-107.0333946269074"><ele>2106.0</ele><time>2026-05-03T17:30:54Z</time></trkpt><trkpt lat="35.985511868220854" lon="-107.0333624760306"><ele>2106.0</ele><time>2026-05-03T17:30:56Z</time></trkpt><trkpt lat="35.98541445903018" lon="-107.03338565605556"><ele>2103.0</ele><time>2026-05-03T17:30:58Z</time></trkpt><trkpt lat="35.993078648816265" lon="-107.04791240254234"><ele>2103.0</ele><time>2026-05-03T17:26:56Z</time></trkpt><trkpt lat="35.993003235080174" lon="-107.04785690459191"><ele>2103.0</ele><time>2026-05-03T17:26:57Z</time></trkpt><trkpt lat="35.992939538541705" lon="-107.04780021198512"><ele>2103.0</ele><time>2026-05-03T17:26:58Z</time></trkpt><trkpt lat="35.99289485669699" lon="-107.04774042621432"><ele>2103.0</ele><time>2026-05-03T17:26:59Z</time></trkpt><trkpt lat="35.992788393482755" lon="-107.04769567311546"><ele>2103.0</ele><time>2026-05-03T17:27:00Z</time></trkpt><trkpt lat="35.99265383284448" lon="-107.0476416254767"><ele>2101.3333333333335</ele><time>2026-05-03T17:27:01Z</time></trkpt><trkpt lat="35.99250553642075" lon="-107.04758410849048"><ele>2099.666666666667</ele><time>2026-05-03T17:27:02Z</time></trkpt><trkpt lat="35.99235092417869" lon="-107.04752697694227"><ele>2098.0</ele><time>2026-05-03T17:27:03Z</time></trkpt><trkpt lat="35.99218940457652" lon="-107.04747335497208"><ele>2100.0</ele><time>2026-05-03T17:27:04Z</time></trkpt><trkpt lat="35.99205108107247" lon="-107.04739758335043"><ele>2102.0</ele><time>2026-05-03T17:27:05Z</time></trkpt><trkpt lat="35.99191773599985" lon="-107.04731432364733"><ele>2104.0</ele><time>2026-05-03T17:27:06Z</time></trkpt><trkpt lat="35.99177617323371" lon="-107.04724685789733"><ele>2102.75</ele><time>2026-05-03T17:27:07Z</time></trkpt><trkpt lat="35.99167160381515" lon="-107.04718393076482"><ele>2101.5</ele><time>2026-05-03T17:27:08Z</time></trkpt><trkpt lat="35.99156714405874" lon="-107.04709202991998"><ele>2100.25</ele><time>2026-05-03T17:27:09Z</time></trkpt><trkpt lat="35.99144323482417" lon="-107.04693340807691"><ele>2099.0</ele><time>2026-05-03T17:27:10Z</time></trkpt><trkpt lat="35.991332617603874" lon="-107.04679948364428"><ele>2099.0</ele><time>2026-05-03T17:27:11Z</time></trkpt><trkpt lat="35.99122896028422" lon="-107.04672116466493"><ele>2099.0</ele><time>2026-05-03T17:27:12Z</time></trkpt><trkpt lat="35.99112700125995" lon="-107.04662409590588"><ele>2099.0</ele><time>2026-05-03T17:27:13Z</time></trkpt><trkpt lat="35.99102925553564" lon="-107.04654309932994"><ele>2099.0</ele><time>2026-05-03T17:27:14Z</time></trkpt><trkpt lat="35.990963517326485" lon="-107.04646579521979"><ele>2099.25</ele><time>2026-05-03T17:27:15Z</time></trkpt><trkpt lat="35.99089924085225" lon="-107.04633634712033"><ele>2099.5</ele><time>2026-05-03T17:27:16Z</time></trkpt><trkpt lat="35.99083600441577" lon="-107.04620515209687"><ele>2099.75</ele><time>2026-05-03T17:27:17Z</time></trkpt><trkpt lat="35.99077903888015" lon="-107.04607557690056"><ele>2100.0</ele><time>2026-05-03T17:27:18Z</time></trkpt><trkpt lat="35.99074182669691" lon="-107.04597640696011"><ele>2100.0</ele><time>2026-05-03T17:27:19Z</time></trkpt><trkpt lat="35.990671259115466" lon="-107.04584497332509"><ele>2100.0</ele><time>2026-05-03T17:27:20Z</time></trkpt><trkpt lat="35.99059571252938" lon="-107.04569317146685"><ele>2100.0</ele><time>2026-05-03T17:27:21Z</time></trkpt><trkpt lat="35.990546583503914" lon="-107.04557747319772"><ele>2100.0</ele><time>2026-05-03T17:27:22Z</time></trkpt><trkpt lat="35.990506044256726" lon="-107.04547170250467"><ele>2100.0</ele><time>2026-05-03T17:27:23Z</time></trkpt><trkpt lat="35.9904799207758" lon="-107.04538151243251"><ele>2100.0</ele><time>2026-05-03T17:27:24Z</time></trkpt><trkpt lat="35.99048308403683" lon="-107.04526429599228"><ele>2100.0</ele><time>2026-05-03T17:27:25Z</time></trkpt><trkpt lat="35.99050761157368" lon="-107.04512738944041"><ele>2100.0</ele><time>2026-05-03T17:27:26Z</time></trkpt><trkpt lat="35.99051302381397" lon="-107.04497130322176"><ele>2100.0</ele><time>2026-05-03T17:27:27Z</time></trkpt><trkpt lat="35.99052734864797" lon="-107.04477218770154"><ele>2099.75</ele><time>2026-05-03T17:27:28Z</time></trkpt><trkpt lat="35.99056609206429" lon="-107.04457394190771"><ele>2099.5</ele><time>2026-05-03T17:27:29Z</time></trkpt><trkpt lat="35.99060793874375" lon="-107.04440409385525"><ele>2099.25</ele><time>2026-05-03T17:27:30Z</time></trkpt><trkpt lat="35.990640593530415" lon="-107.04423979327818"><ele>2099.0</ele><time>2026-05-03T17:27:31Z</time></trkpt><trkpt lat="35.99065777191841" lon="-107.04409763811809"><ele>2098.5</ele><time>2026-05-03T17:27:32Z</time></trkpt><trkpt lat="35.990676936180535" lon="-107.04395750846292"><ele>2098.0</ele><time>2026-05-03T17:27:33Z</time></trkpt><trkpt lat="35.990683036872" lon="-107.04380717493936"><ele>2097.5</ele><time>2026-05-03T17:27:34Z</time></trkpt><trkpt lat="35.99068671819668" lon="-107.04366937249657"><ele>2097.0</ele><time>2026-05-03T17:27:35Z</time></trkpt><trkpt lat="35.99071020514435" lon="-107.0435246104529"><ele>2097.0</ele><time>2026-05-03T17:27:36Z</time></trkpt><trkpt lat="35.990707192467504" lon="-107.04339393750313"><ele>2097.0</ele><time>2026-05-03T17:27:37Z</time></trkpt><trkpt lat="35.990682419062956" lon="-107.04328546580201"><ele>2097.0</ele><time>2026-05-03T17:27:38Z</time></trkpt><trkpt lat="35.990667438115295" lon="-107.043164697296"><ele>2097.0</ele><time>2026-05-03T17:27:39Z</time></trkpt><trkpt lat="35.9906624160438" lon="-107.04304799694455"><ele>2097.0</ele><time>2026-05-03T17:27:40Z</time></trkpt><trkpt lat="35.990650700833626" lon="-107.04290299836136"><ele>2097.0</ele><time>2026-05-03T17:27:41Z</time></trkpt><trkpt lat="35.99064968922993" lon="-107.04275648820439"><ele>2097.0</ele><time>2026-05-03T17:27:42Z</time></trkpt><trkpt lat="35.99065277142345" lon="-107.04263074360468"><ele>2097.0</ele><time>2026-05-03T17:27:43Z</time></trkpt><trkpt lat="35.99064036897789" lon="-107.04252228048807"><ele>2097.0</ele><time>2026-05-03T17:27:44Z</time></trkpt><trkpt lat="35.990626696695024" lon="-107.04240119881541"><ele>2097.0</ele><time>2026-05-03T17:27:45Z</time></trkpt><trkpt lat="35.99062326707853" lon="-107.04226890680957"><ele>2097.0</ele><time>2026-05-03T17:27:46Z</time></trkpt><trkpt lat="35.9905777443094" lon="-107.04211143010943"><ele>2097.0</ele><time>2026-05-03T17:27:47Z</time></trkpt><trkpt lat="35.990546214599796" lon="-107.04193546034776"><ele>2097.0</ele><time>2026-05-03T17:27:48Z</time></trkpt><trkpt lat="35.990544162345074" lon="-107.04177660666214"><ele>2097.0</ele><time>2026-05-03T17:27:49Z</time></trkpt><trkpt lat="35.99053546631385" lon="-107.0416732314934"><ele>2097.0</ele><time>2026-05-03T17:27:50Z</time></trkpt><trkpt lat="35.99050572406384" lon="-107.0415423657725"><ele>2097.0</ele><time>2026-05-03T17:27:52Z</time></trkpt><trkpt lat="35.99049119757383" lon="-107.04145205664909"><ele>2097.0</ele><time>2026-05-03T17:27:53Z</time></trkpt><trkpt lat="35.99052075009923" lon="-107.04131471659812"><ele>2097.0</ele><time>2026-05-03T17:27:54Z</time></trkpt><trkpt lat="35.99055344481342" lon="-107.04118799010746"><ele>2097.0</ele><time>2026-05-03T17:27:55Z</time></trkpt><trkpt lat="35.990535436812195" lon="-107.04106016443951"><ele>2097.0</ele><time>2026-05-03T17:27:56Z</time></trkpt><trkpt lat="35.990511344769786" lon="-107.04092295190443"><ele>2097.0</ele><time>2026-05-03T17:27:57Z</time></trkpt><trkpt lat="35.99049728158081" lon="-107.04081646754953"><ele>2097.0</ele><time>2026-05-03T17:27:58Z</time></trkpt><trkpt lat="35.990467668843635" lon="-107.04071368985798"><ele>2097.0</ele><time>2026-05-03T17:27:59Z</time></trkpt><trkpt lat="35.990448580742424" lon="-107.04061966863283"><ele>2097.0</ele><time>2026-05-03T17:28:00Z</time></trkpt><trkpt lat="35.99042808185681" lon="-107.04047736642303"><ele>2098.5</ele><time>2026-05-03T17:28:01Z</time></trkpt><trkpt lat="35.990374174053855" lon="-107.04032695489474"><ele>2100.0</ele><time>2026-05-03T17:28:02Z</time></trkpt><trkpt lat="35.990322057080256" lon="-107.04018992636374"><ele>2101.5</ele><time>2026-05-03T17:28:03Z</time></trkpt><trkpt lat="35.990252721601664" lon="-107.04007280649941"><ele>2103.0</ele><time>2026-05-03T17:28:04Z</time></trkpt><trkpt lat="35.99015068718984" lon="-107.04001304801773"><ele>2102.0</ele><time>2026-05-03T17:28:05Z</time></trkpt><trkpt lat="35.990007692271405" lon="-107.03992776430358"><ele>2101.0</ele><time>2026-05-03T17:28:06Z</time></trkpt><trkpt lat="35.989885517070675" lon="-107.03987775293015"><ele>2100.0</ele><time>2026-05-03T17:28:07Z</time></trkpt><trkpt lat="35.989738558095226" lon="-107.0398703708158"><ele>2099.0</ele><time>2026-05-03T17:28:08Z</time></trkpt><trkpt lat="35.98954525304267" lon="-107.03986402120672"><ele>2099.0</ele><time>2026-05-03T17:28:09Z</time></trkpt><trkpt lat="35.98936523204556" lon="-107.03985261865941"><ele>2099.0</ele><time>2026-05-03T17:28:10Z</time></trkpt><trkpt lat="35.98916879628567" lon="-107.03984841532834"><ele>2099.0</ele><time>2026-05-03T17:28:11Z</time></trkpt><trkpt lat="35.98895449636048" lon="-107.03983110638144"><ele>2098.333333333333</ele><time>2026-05-03T17:28:12Z</time></trkpt><trkpt lat="35.98873706433536" lon="-107.03980471817495"><ele>2097.6666666666665</ele><time>2026-05-03T17:28:13Z</time></trkpt><trkpt lat="35.98851599628535" lon="-107.03976090946367"><ele>2097.0</ele><time>2026-05-03T17:28:14Z</time></trkpt><trkpt lat="35.98832286076709" lon="-107.03973567692499"><ele>2097.0</ele><time>2026-05-03T17:28:15Z</time></trkpt><trkpt lat="35.9881264493557" lon="-107.03970301730556"><ele>2097.0</ele><time>2026-05-03T17:28:16Z</time></trkpt><trkpt lat="35.98794695816881" lon="-107.03966219349216"><ele>2097.0</ele><time>2026-05-03T17:28:17Z</time></trkpt><trkpt lat="35.98777455519001" lon="-107.03961478655644"><ele>2097.0</ele><time>2026-05-03T17:28:18Z</time></trkpt><trkpt lat="35.987641660312356" lon="-107.03953784901744"><ele>2097.0</ele><time>2026-05-03T17:28:19Z</time></trkpt><trkpt lat="35.987512798245504" lon="-107.0394297730494"><ele>2097.0</ele><time>2026-05-03T17:28:20Z</time></trkpt><trkpt lat="35.98736237258134" lon="-107.03929804223405"><ele>2097.0</ele><time>2026-05-03T17:28:21Z</time></trkpt><trkpt lat="35.98721727120938" lon="-107.03920472348328"><ele>2097.0</ele><time>2026-05-03T17:28:22Z</time></trkpt><trkpt lat="35.98706874407362" lon="-107.03912742513475"><ele>2097.0</ele><time>2026-05-03T17:28:23Z</time></trkpt><trkpt lat="35.98690515139622" lon="-107.03902002146954"><ele>2096.6666666666665</ele><time>2026-05-03T17:28:24Z</time></trkpt><trkpt lat="35.98675999375642" lon="-107.03890293264408"><ele>2096.333333333333</ele><time>2026-05-03T17:28:25Z</time></trkpt><trkpt lat="35.98658946162465" lon="-107.03880426430432"><ele>2096.0</ele><time>2026-05-03T17:28:26Z</time></trkpt><trkpt lat="35.986410432212004" lon="-107.03875045148921"><ele>2096.0</ele><time>2026-05-03T17:28:27Z</time></trkpt><trkpt lat="35.986216570984745" lon="-107.03869093395612"><ele>2096.0</ele><time>2026-05-03T17:28:28Z</time></trkpt><trkpt lat="35.98604978630364" lon="-107.03858092449208"><ele>2096.0</ele><time>2026-05-03T17:28:29Z</time></trkpt><trkpt lat="35.98588974578546" lon="-107.03843451737504"><ele>2096.333333333333</ele><time>2026-05-03T17:28:30Z</time></trkpt><trkpt lat="35.9857590687579" lon="-107.03831779523867"><ele>2096.6666666666665</ele><time>2026-05-03T17:28:31Z</time></trkpt><trkpt lat="35.98563076891089" lon="-107.038232217216"><ele>2097.0</ele><time>2026-05-03T17:28:32Z</time></trkpt><trkpt lat="35.98548327662644" lon="-107.03815090729486"><ele>2097.0</ele><time>2026-05-03T17:28:33Z</time></trkpt><trkpt lat="35.98534478155545" lon="-107.03807361607447"><ele>2097.0</ele><time>2026-05-03T17:28:34Z</time></trkpt><trkpt lat="35.9852293510651" lon="-107.0380008325847"><ele>2097.0</ele><time>2026-05-03T17:28:35Z</time></trkpt><trkpt lat="35.98512633892336" lon="-107.03792936516463"><ele>2097.0</ele><time>2026-05-03T17:28:36Z</time></trkpt><trkpt lat="35.98504396510787" lon="-107.03786778765533"><ele>2097.0</ele><time>2026-05-03T17:28:37Z</time></trkpt><trkpt lat="35.984987643960324" lon="-107.03779632956642"><ele>2097.0</ele><time>2026-05-03T17:28:38Z</time></trkpt><trkpt lat="35.98495603767643" lon="-107.03770106659515"><ele>2097.0</ele><time>2026-05-03T17:28:39Z</time></trkpt><trkpt lat="35.98494237972065" lon="-107.0375970419592"><ele>2097.0</ele><time>2026-05-03T17:28:40Z</time></trkpt><trkpt lat="35.98492372006519" lon="-107.03738801864014"><ele>2097.0</ele><time>2026-05-03T17:29:59Z</time></trkpt><trkpt lat="35.9848797910273" lon="-107.03728526856632"><ele>2097.0</ele><time>2026-05-03T17:30:00Z</time></trkpt><trkpt lat="35.98487126301449" lon="-107.03716934800964"><ele>2097.0</ele><time>2026-05-03T17:30:01Z</time></trkpt><trkpt lat="35.98488904975413" lon="-107.03704787911471"><ele>2097.0</ele><time>2026-05-03T17:30:02Z</time></trkpt><trkpt lat="35.98492674974592" lon="-107.03695181947403"><ele>2097.0</ele><time>2026-05-03T17:30:03Z</time></trkpt><trkpt lat="35.984983086446775" lon="-107.03687402170681"><ele>2097.0</ele><time>2026-05-03T17:30:04Z</time></trkpt><trkpt lat="35.98505169089325" lon="-107.03679661377096"><ele>2098.6</ele><time>2026-05-03T17:30:05Z</time></trkpt><trkpt lat="35.985131895148065" lon="-107.03673076305084"><ele>2100.2</ele><time>2026-05-03T17:30:06Z</time></trkpt><trkpt lat="35.98521770358707" lon="-107.03665954375444"><ele>2101.8</ele><time>2026-05-03T17:30:07Z</time></trkpt><trkpt lat="35.98531228342147" lon="-107.03658428175395"><ele>2103.4</ele><time>2026-05-03T17:30:08Z</time></trkpt><trkpt lat="35.98541073746442" lon="-107.03650479019821"><ele>2105.0</ele><time>2026-05-03T17:30:09Z</time></trkpt><trkpt lat="35.985501405972336" lon="-107.03641592135642"><ele>2105.4</ele><time>2026-05-03T17:30:10Z</time></trkpt><trkpt lat="35.985562031924054" lon="-107.03631399478745"><ele>2105.8</ele><time>2026-05-03T17:30:11Z</time></trkpt><trkpt lat="35.98562734325076" lon="-107.03619693773689"><ele>2106.2</ele><time>2026-05-03T17:30:12Z</time></trkpt><trkpt lat="35.985692361786356" lon="-107.03608638253885"><ele>2106.6</ele><time>2026-05-03T17:30:13Z</time></trkpt><trkpt lat="35.98573447878359" lon="-107.03600872126292"><ele>2107.0</ele><time>2026-05-03T17:30:14Z</time></trkpt><trkpt lat="35.98575426002205" lon="-107.03593207756042"><ele>2107.0</ele><time>2026-05-03T17:30:15Z</time></trkpt><trkpt lat="35.985758136312946" lon="-107.03583502280607"><ele>2107.0</ele><time>2026-05-03T17:30:17.001Z</time></trkpt><trkpt lat="35.985776374053586" lon="-107.03574722346016"><ele>2107.0</ele><time>2026-05-03T17:30:19.001Z</time></trkpt><trkpt lat="35.985742527992" lon="-107.03562425149896"><ele>2107.0</ele><time>2026-05-03T17:30:21.001Z</time></trkpt><trkpt lat="35.98572494761644" lon="-107.0355279577667"><ele>2107.0</ele><time>2026-05-03T17:30:22.001Z</time></trkpt><trkpt lat="35.98572559125754" lon="-107.03540129977884"><ele>2107.0</ele><time>2026-05-03T17:30:23.001Z</time></trkpt><trkpt lat="35.9857417970658" lon="-107.03532361480228"><ele>2106.3333333333335</ele><time>2026-05-03T17:30:24.001Z</time></trkpt><trkpt lat="35.98579054770821" lon="-107.03526444365993"><ele>2105.666666666667</ele><time>2026-05-03T17:30:25.001Z</time></trkpt><trkpt lat="35.98584531556609" lon="-107.03522312926758"><ele>2105.0</ele><time>2026-05-03T17:30:26.001Z</time></trkpt><trkpt lat="35.98590651872568" lon="-107.03519600961467"><ele>2104.3333333333335</ele><time>2026-05-03T17:30:28.001Z</time></trkpt><trkpt lat="35.98597537305776" lon="-107.03512415615678"><ele>2103.6666666666665</ele><time>2026-05-03T17:30:31.001Z</time></trkpt><trkpt lat="35.986021867775456" lon="-107.0350276159968"><ele>2103.0</ele><time>2026-05-03T17:30:33.001Z</time></trkpt><trkpt lat="35.98596598712062" lon="-107.03490719720945"><ele>2103.0</ele><time>2026-05-03T17:30:35Z</time></trkpt><trkpt lat="35.985940123385014" lon="-107.0347432617962"><ele>2103.0</ele><time>2026-05-03T17:30:37Z</time></trkpt><trkpt lat="35.98591324346266" lon="-107.03464833597303"><ele>2103.0</ele><time>2026-05-03T17:30:38Z</time></trkpt><trkpt lat="35.98587765741585" lon="-107.0345503703396"><ele>2103.0</ele><time>2026-05-03T17:30:39Z</time></trkpt><trkpt lat="35.98584193757502" lon="-107.03446667799413"><ele>2103.0</ele><time>2026-05-03T17:30:40Z</time></trkpt><trkpt lat="35.98583905557583" lon="-107.03432792254769"><ele>2103.5</ele><time>2026-05-03T17:30:42Z</time></trkpt><trkpt lat="35.98585858385145" lon="-107.03423969066714"><ele>2104.0</ele><time>2026-05-03T17:30:43Z</time></trkpt><trkpt lat="35.98579225761117" lon="-107.03413244867099"><ele>2104.5</ele><time>2026-05-03T17:30:45Z</time></trkpt><trkpt lat="35.985746455941225" lon="-107.03405629792546"><ele>2105.0</ele><time>2026-05-03T17:30:46Z</time></trkpt><trkpt lat="35.98573883922127" lon="-107.03394788920168"><ele>2105.5</ele><time>2026-05-03T17:30:47Z</time></trkpt><trkpt lat="35.98575010390488" lon="-107.03382498853138"><ele>2106.0</ele><time>2026-05-03T17:30:48Z</time></trkpt><trkpt lat="35.985747512525045" lon="-107.03373693737868"><ele>2106.0</ele><time>2026-05-03T17:30:49Z</time></trkpt><trkpt lat="35.98574355319046" lon="-107.03364789765396"><ele>2106.0</ele><time>2026-05-03T17:30:50Z</time></trkpt><trkpt lat="35.9857063036175" lon="-107.03355143907221"><ele>2106.0</ele><time>2026-05-03T17:30:51Z</time></trkpt><trkpt lat="35.985680800947215" lon="-107.03347679745437"><ele>2106.0</ele><time>2026-05-03T17:30:52Z</time></trkpt><trkpt lat="35.98559696917005" lon="-107.0333946269074"><ele>2106.0</ele><time>2026-05-03T17:30:54Z</time></trkpt><trkpt lat="35.985511868220854" lon="-107.0333624760306"><ele>2106.0</ele><time>2026-05-03T17:30:56Z</time></trkpt><trkpt lat="35.98541445903018" lon="-107.03338565605556"><ele>2106.0</ele><time>2026-05-03T17:30:58Z</time></trkpt><trkpt lat="35.9852945901381" lon="-107.03336695078616"><ele>2106.0</ele><time>2026-05-03T17:31:01Z</time></trkpt><trkpt lat="35.98521401505756" lon="-107.03335599493691"><ele>2106.0</ele><time>2026-05-03T17:31:02Z</time></trkpt><trkpt lat="35.98514253502122" lon="-107.03333967892495"><ele>2106.0</ele><time>2026-05-03T17:31:03Z</time></trkpt><trkpt lat="35.98507079039224" lon="-107.0333193955121"><ele>2106.0</ele><time>2026-05-03T17:31:04Z</time></trkpt><trkpt lat="35.98499773630518" lon="-107.03329892384427"><ele>2106.0</ele><time>2026-05-03T17:31:05Z</time></trkpt><trkpt lat="35.984927527814435" lon="-107.03316128911763"><ele>2106.4</ele><time>2026-05-03T17:31:06.999Z</time></trkpt><trkpt lat="35.98489946607687" lon="-107.03305133837749"><ele>2106.8</ele><time>2026-05-03T17:31:07.999Z</time></trkpt><trkpt lat="35.984855213080635" lon="-107.03296348019423"><ele>2107.2000000000003</ele><time>2026-05-03T17:31:08.999Z</time></trkpt><trkpt lat="35.98478401598604" lon="-107.03288759932306"><ele>2107.6</ele><time>2026-05-03T17:31:09.999Z</time></trkpt><trkpt lat="35.98472296204295" lon="-107.0327830337016"><ele>2108.0</ele><time>2026-05-03T17:31:10.999Z</time></trkpt><trkpt lat="35.98468350968878" lon="-107.0326728876372"><ele>2108.0</ele><time>2026-05-03T17:31:11.999Z</time></trkpt><trkpt lat="35.98464205385114" lon="-107.0325596398666"><ele>2108.0</ele><time>2026-05-03T17:31:12.999Z</time></trkpt><trkpt lat="35.98459194258176" lon="-107.03243293566136"><ele>2108.0</ele><time>2026-05-03T17:31:13.999Z</time></trkpt><trkpt lat="35.98452109893582" lon="-107.03232227225531"><ele>2108.0</ele><time>2026-05-03T17:31:14.999Z</time></trkpt><trkpt lat="35.9844339298804" lon="-107.03222498581691"><ele>2108.0</ele><time>2026-05-03T17:31:15.999Z</time></trkpt><trkpt lat="35.98435358968346" lon="-107.03212890671038"><ele>2108.8</ele><time>2026-05-03T17:31:16.999Z</time></trkpt><trkpt lat="35.98429947971644" lon="-107.03205349041542"><ele>2109.6000000000004</ele><time>2026-05-03T17:31:17.999Z</time></trkpt><trkpt lat="35.9842722800704" lon="-107.0319685228963"><ele>2110.3999999999996</ele><time>2026-05-03T17:31:18.999Z</time></trkpt><trkpt lat="35.98429391178325" lon="-107.0318450603724"><ele>2111.2</ele><time>2026-05-03T17:31:19.999Z</time></trkpt><trkpt lat="35.98428680483148" lon="-107.03173073333187"><ele>2112.0</ele><time>2026-05-03T17:31:20.999Z</time></trkpt><trkpt lat="35.9842601854233" lon="-107.03160471625544"><ele>2112.0</ele><time>2026-05-03T17:31:21.999Z</time></trkpt><trkpt lat="35.98425409121735" lon="-107.03150064109096"><ele>2112.0</ele><time>2026-05-03T17:31:22.999Z</time></trkpt><trkpt lat="35.984270091761715" lon="-107.0314050788769"><ele>2112.0</ele><time>2026-05-03T17:31:23.999Z</time></trkpt><trkpt lat="35.98430378929208" lon="-107.03130034212852"><ele>2112.0</ele><time>2026-05-03T17:31:24.999Z</time></trkpt><trkpt lat="35.98433479267843" lon="-107.03118695660342"><ele>2112.0</ele><time>2026-05-03T17:31:25.999Z</time></trkpt><trkpt lat="35.98434472850805" lon="-107.03108645743299"><ele>2112.0</ele><time>2026-05-03T17:31:26.999Z</time></trkpt><trkpt lat="35.984289717673" lon="-107.03096619868289"><ele>2112.0</ele><time>2026-05-03T17:31:28.999Z</time></trkpt><trkpt lat="35.98422176710189" lon="-107.03095862277857"><ele>2112.0</ele><time>2026-05-03T17:31:29.999Z</time></trkpt><trkpt lat="35.984127796114336" lon="-107.03097764210452"><ele>2112.0</ele><time>2026-05-03T17:31:30.999Z</time></trkpt><trkpt lat="35.98402554266995" lon="-107.03103581910644"><ele>2112.0</ele><time>2026-05-03T17:31:31.999Z</time></trkpt><trkpt lat="35.98391068009509" lon="-107.03111063239471"><ele>2112.0</ele><time>2026-05-03T17:31:32.999Z</time></trkpt><trkpt lat="35.98377091951751" lon="-107.03113842957347"><ele>2110.4</ele><time>2026-05-03T17:31:33.999Z</time></trkpt><trkpt lat="35.98365712445215" lon="-107.03113324456487"><ele>2108.7999999999997</ele><time>2026-05-03T17:31:34.999Z</time></trkpt><trkpt lat="35.98356693110044" lon="-107.0310888182667"><ele>2107.2</ele><time>2026-05-03T17:31:35.999Z</time></trkpt><trkpt lat="35.98354587168681" lon="-107.03100773949251"><ele>2105.6</ele><time>2026-05-03T17:31:36.999Z</time></trkpt><trkpt lat="35.98355436176058" lon="-107.030885355164"><ele>2104.0</ele><time>2026-05-03T17:31:38.999Z</time></trkpt><trkpt lat="35.98363416184177" lon="-107.03074447413809"><ele>2103.6</ele><time>2026-05-03T17:31:40.999Z</time></trkpt><trkpt lat="35.9837008216231" lon="-107.03069123720908"><ele>2103.2</ele><time>2026-05-03T17:31:41.999Z</time></trkpt><trkpt lat="35.98376158264676" lon="-107.03062327742406"><ele>2102.7999999999997</ele><time>2026-05-03T17:31:42.999Z</time></trkpt><trkpt lat="35.98382385416301" lon="-107.03056555938373"><ele>2102.4</ele><time>2026-05-03T17:31:43.999Z</time></trkpt><trkpt lat="35.983887548173804" lon="-107.03046820948205"><ele>2102.0</ele><time>2026-05-03T17:31:44.999Z</time></trkpt><trkpt lat="35.98396585743189" lon="-107.03035755934951"><ele>2102.0</ele><time>2026-05-03T17:31:45.999Z</time></trkpt><trkpt lat="35.984027038546714" lon="-107.03025240942407"><ele>2102.0</ele><time>2026-05-03T17:31:46.999Z</time></trkpt><trkpt lat="35.98408937689502" lon="-107.03016188220207"><ele>2102.0</ele><time>2026-05-03T17:31:47.999Z</time></trkpt><trkpt lat="35.98415655138096" lon="-107.03009644444035"><ele>2102.0</ele><time>2026-05-03T17:31:48.999Z</time></trkpt><trkpt lat="35.984214737387504" lon="-107.03005533689462"><ele>2102.0</ele><time>2026-05-03T17:31:49.999Z</time></trkpt><trkpt lat="35.98433124824902" lon="-107.03004296722028"><ele>2102.5</ele><time>2026-05-03T17:31:51.999Z</time></trkpt><trkpt lat="35.984402575830096" lon="-107.03007338089324"><ele>2103.0</ele><time>2026-05-03T17:31:52.999Z</time></trkpt><trkpt lat="35.98449362497637" lon="-107.03011541888594"><ele>2103.5</ele><time>2026-05-03T17:31:53.999Z</time></trkpt><trkpt lat="35.98458063566547" lon="-107.03012053721142"><ele>2104.0</ele><time>2026-05-03T17:31:54.999Z</time></trkpt><trkpt lat="35.984651254175" lon="-107.03010538538443"><ele>2104.5</ele><time>2026-05-03T17:31:55.999Z</time></trkpt><trkpt lat="35.98471306339572" lon="-107.03007461391745"><ele>2105.0</ele><time>2026-05-03T17:31:56.999Z</time></trkpt><trkpt lat="35.98477027664402" lon="-107.03002905547663"><ele>2104.6</ele><time>2026-05-03T17:31:57.999Z</time></trkpt><trkpt lat="35.984836088475326" lon="-107.02994247727418"><ele>2104.2</ele><time>2026-05-03T17:31:58.999Z</time></trkpt><trkpt lat="35.98491711397061" lon="-107.02986050321337"><ele>2103.8</ele><time>2026-05-03T17:31:59.999Z</time></trkpt><trkpt lat="35.985005506211316" lon="-107.02980166929709"><ele>2103.4</ele><time>2026-05-03T17:32:00.999Z</time></trkpt><trkpt lat="35.985086821945664" lon="-107.02971932022466"><ele>2103.0</ele><time>2026-05-03T17:32:01.999Z</time></trkpt><trkpt lat="35.985148051794035" lon="-107.02961399891157"><ele>2103.1666666666665</ele><time>2026-05-03T17:32:02.999Z</time></trkpt><trkpt lat="35.98519687633168" lon="-107.02952633582268"><ele>2103.3333333333335</ele><time>2026-05-03T17:32:03.999Z</time></trkpt><trkpt lat="35.98523747424339" lon="-107.0294605718502"><ele>2103.5</ele><time>2026-05-03T17:32:04.999Z</time></trkpt><trkpt lat="35.985267036385174" lon="-107.02938460892615"><ele>2103.666666666667</ele><time>2026-05-03T17:32:05.999Z</time></trkpt><trkpt lat="35.98525664684326" lon="-107.02927685561752"><ele>2103.8333333333335</ele><time>2026-05-03T17:32:06.999Z</time></trkpt><trkpt lat="35.985219265196946" lon="-107.02916203481648"><ele>2104.0</ele><time>2026-05-03T17:32:07.999Z</time></trkpt><trkpt lat="35.985207953720476" lon="-107.0290462926033"><ele>2104.0</ele><time>2026-05-03T17:32:08.999Z</time></trkpt><trkpt lat="35.985203781219106" lon="-107.02893040370292"><ele>2104.0</ele><time>2026-05-03T17:32:09.999Z</time></trkpt><trkpt lat="35.985182146490665" lon="-107.02882063860346"><ele>2104.0</ele><time>2026-05-03T17:32:10.999Z</time></trkpt><trkpt lat="35.9851721908327" lon="-107.02872398567358"><ele>2104.0</ele><time>2026-05-03T17:32:11.999Z</time></trkpt><trkpt lat="35.98520217485316" lon="-107.02861822418363"><ele>2104.0</ele><time>2026-05-03T17:32:12.999Z</time></trkpt><trkpt lat="35.985241089408795" lon="-107.02849257836338"><ele>2104.0</ele><time>2026-05-03T17:32:13.999Z</time></trkpt><trkpt lat="35.98525940032489" lon="-107.02839546445416"><ele>2104.0</ele><time>2026-05-03T17:32:14.999Z</time></trkpt><trkpt lat="35.985220417470195" lon="-107.02826142056253"><ele>2104.0</ele><time>2026-05-03T17:32:15.999Z</time></trkpt><trkpt lat="35.98517368365198" lon="-107.02812385265524"><ele>2104.0</ele><time>2026-05-03T17:32:16.999Z</time></trkpt><trkpt lat="35.98513519029978" lon="-107.02798937519721"><ele>2104.0</ele><time>2026-05-03T17:32:17.999Z</time></trkpt><trkpt lat="35.985129175880246" lon="-107.02785450930864"><ele>2104.0</ele><time>2026-05-03T17:32:18.999Z</time></trkpt><trkpt lat="35.9851226357426" lon="-107.02771109335727"><ele>2104.0</ele><time>2026-05-03T17:32:19.999Z</time></trkpt><trkpt lat="35.98512290302416" lon="-107.02760932934156"><ele>2104.0</ele><time>2026-05-03T17:32:20.999Z</time></trkpt><trkpt lat="35.98514409796927" lon="-107.02752154897898"><ele>2104.0</ele><time>2026-05-03T17:32:21.999Z</time></trkpt><trkpt lat="35.98517023104312" lon="-107.02743110298286"><ele>2104.0</ele><time>2026-05-03T17:32:23Z</time></trkpt><trkpt lat="35.985203601323576" lon="-107.02733176486223"><ele>2104.0</ele><time>2026-05-03T17:32:24Z</time></trkpt><trkpt lat="35.985210257804454" lon="-107.02720616005293"><ele>2104.4</ele><time>2026-05-03T17:32:25Z</time></trkpt><trkpt lat="35.9852052547024" lon="-107.02706837305988"><ele>2104.8</ele><time>2026-05-03T17:32:26Z</time></trkpt><trkpt lat="35.985217895732525" lon="-107.02696659240524"><ele>2105.2</ele><time>2026-05-03T17:32:27Z</time></trkpt><trkpt lat="35.98523780010774" lon="-107.02686827777246"><ele>2105.6</ele><time>2026-05-03T17:32:28Z</time></trkpt><trkpt lat="35.98525339308543" lon="-107.02676500479632"><ele>2106.0</ele><time>2026-05-03T17:32:29Z</time></trkpt><trkpt lat="35.98525712070566" lon="-107.02665337622565"><ele>2107.2</ele><time>2026-05-03T17:32:30Z</time></trkpt><trkpt lat="35.98525112492608" lon="-107.02652153547645"><ele>2108.3999999999996</ele><time>2026-05-03T17:32:31Z</time></trkpt><trkpt lat="35.98525538947186" lon="-107.02638977408942"><ele>2109.6</ele><time>2026-05-03T17:32:32Z</time></trkpt><trkpt lat="35.98527534230304" lon="-107.02628465266389"><ele>2110.7999999999997</ele><time>2026-05-03T17:32:33Z</time></trkpt><trkpt lat="35.985287734447944" lon="-107.02617840599997"><ele>2112.0</ele><time>2026-05-03T17:32:34Z</time></trkpt><trkpt lat="35.985277857653415" lon="-107.02608604914906"><ele>2112.0</ele><time>2026-05-03T17:32:35Z</time></trkpt><trkpt lat="35.98522599442309" lon="-107.02599355656109"><ele>2112.0</ele><time>2026-05-03T17:32:36Z</time></trkpt><trkpt lat="35.98516880205512" lon="-107.0258832919417"><ele>2112.0</ele><time>2026-05-03T17:32:37Z</time></trkpt><trkpt lat="35.98516849233624" lon="-107.0258008745858"><ele>2112.0</ele><time>2026-05-03T17:32:38Z</time></trkpt><trkpt lat="35.985206229867806" lon="-107.0256668404928"><ele>2112.0</ele><time>2026-05-03T17:32:40Z</time></trkpt><trkpt lat="35.98525876967899" lon="-107.02557056123197"><ele>2112.0</ele><time>2026-05-03T17:32:41Z</time></trkpt><trkpt lat="35.98534265995963" lon="-107.02548726416627"><ele>2112.0</ele><time>2026-05-03T17:32:42Z</time></trkpt><trkpt lat="35.98545360023806" lon="-107.02544362027562"><ele>2112.0</ele><time>2026-05-03T17:32:43Z</time></trkpt><trkpt lat="35.98555992961103" lon="-107.02536718496714"><ele>2112.0</ele><time>2026-05-03T17:32:44Z</time></trkpt><trkpt lat="35.98565474236248" lon="-107.02528511249446"><ele>2112.0</ele><time>2026-05-03T17:32:45Z</time></trkpt><trkpt lat="35.98572530095111" lon="-107.02519671285225"><ele>2112.0</ele><time>2026-05-03T17:32:46Z</time></trkpt><trkpt lat="35.98577933827797" lon="-107.02509343718857"><ele>2112.0</ele><time>2026-05-03T17:32:47Z</time></trkpt><trkpt lat="35.98584293641786" lon="-107.02501456319722"><ele>2112.0</ele><time>2026-05-03T17:32:48Z</time></trkpt><trkpt lat="35.9859610509405" lon="-107.024962423667"><ele>2112.0</ele><time>2026-05-03T17:32:50Z</time></trkpt><trkpt lat="35.986039740323655" lon="-107.02493591513775"><ele>2112.4</ele><time>2026-05-03T17:32:51Z</time></trkpt><trkpt lat="35.98611153072787" lon="-107.0248740373843"><ele>2112.7999999999997</ele><time>2026-05-03T17:32:52Z</time></trkpt><trkpt lat="35.986162881928365" lon="-107.02476446636808"><ele>2113.2</ele><time>2026-05-03T17:32:52.999Z</time></trkpt><trkpt lat="35.98618464159636" lon="-107.02463546741373"><ele>2113.6</ele><time>2026-05-03T17:32:53.999Z</time></trkpt><trkpt lat="35.98620504509407" lon="-107.02449310387487"><ele>2114.0</ele><time>2026-05-03T17:32:54.999Z</time></trkpt><trkpt lat="35.98625131624022" lon="-107.0243649117296"><ele>2114.0</ele><time>2026-05-03T17:32:55.999Z</time></trkpt><trkpt lat="35.98630678224818" lon="-107.02427268823283"><ele>2114.0</ele><time>2026-05-03T17:32:56.999Z</time></trkpt><trkpt lat="35.98639532298136" lon="-107.02418923601039"><ele>2114.0</ele><time>2026-05-03T17:32:58.999Z</time></trkpt><trkpt lat="35.98645567245302" lon="-107.02416700328385"><ele>2114.0</ele><time>2026-05-03T17:32:59.999Z</time></trkpt><trkpt lat="35.98658574045281" lon="-107.02421595043407"><ele>2114.0</ele><time>2026-05-03T17:33:01.999Z</time></trkpt><trkpt lat="35.98667330536001" lon="-107.02421742991709"><ele>2114.333333333333</ele><time>2026-05-03T17:33:03.999Z</time></trkpt><trkpt lat="35.98671917481542" lon="-107.0241263590153"><ele>2114.6666666666665</ele><time>2026-05-03T17:33:04.999Z</time></trkpt><trkpt lat="35.986697689782844" lon="-107.02404909543068"><ele>2115.0</ele><time>2026-05-03T17:33:05.999Z</time></trkpt><trkpt lat="35.986670544463244" lon="-107.02392734664905"><ele>2115.3333333333335</ele><time>2026-05-03T17:33:07.999Z</time></trkpt><trkpt lat="35.98668180615388" lon="-107.0238092071727"><ele>2115.666666666667</ele><time>2026-05-03T17:33:08.999Z</time></trkpt><trkpt lat="35.986702706399214" lon="-107.02371342488456"><ele>2116.0</ele><time>2026-05-03T17:33:09.999Z</time></trkpt><trkpt lat="35.986662463928546" lon="-107.02359782730773"><ele>2116.0</ele><time>2026-05-03T17:33:11.999Z</time></trkpt><trkpt lat="35.98661322073662" lon="-107.02353697875921"><ele>2116.0</ele><time>2026-05-03T17:33:12.999Z</time></trkpt><trkpt lat="35.98661912204271" lon="-107.0233983553105"><ele>2116.0</ele><time>2026-05-03T17:33:14.999Z</time></trkpt><trkpt lat="35.98666178521776" lon="-107.02331616877112"><ele>2116.0</ele><time>2026-05-03T17:33:15.999Z</time></trkpt><trkpt lat="35.98670686100693" lon="-107.0232280136064"><ele>2116.0</ele><time>2026-05-03T17:33:16.999Z</time></trkpt><trkpt lat="35.98670492170868" lon="-107.02309863121118"><ele>2116.3333333333335</ele><time>2026-05-03T17:33:18.999Z</time></trkpt><trkpt lat="35.98666057181829" lon="-107.0230140482538"><ele>2116.666666666667</ele><time>2026-05-03T17:33:19.999Z</time></trkpt><trkpt lat="35.98658899226323" lon="-107.02293073209924"><ele>2117.0</ele><time>2026-05-03T17:33:21.999Z</time></trkpt><trkpt lat="35.986616867460654" lon="-107.0228445641511"><ele>2117.3333333333335</ele><time>2026-05-03T17:33:22.999Z</time></trkpt><trkpt lat="35.98665914577558" lon="-107.022741394656"><ele>2117.6666666666665</ele><time>2026-05-03T17:33:23.999Z</time></trkpt><trkpt lat="35.98665595329918" lon="-107.02263761361414"><ele>2118.0</ele><time>2026-05-03T17:33:24.999Z</time></trkpt><trkpt lat="35.98661405890861" lon="-107.02251541712346"><ele>2118.5</ele><time>2026-05-03T17:33:26.999Z</time></trkpt><trkpt lat="35.98656866251929" lon="-107.02243937425203"><ele>2119.0</ele><time>2026-05-03T17:33:28.999Z</time></trkpt><trkpt lat="35.98658562505742" lon="-107.02231304590504"><ele>2119.5</ele><time>2026-05-03T17:33:30.999Z</time></trkpt><trkpt lat="35.98657911503189" lon="-107.02223561257632"><ele>2120.0</ele><time>2026-05-03T17:33:31.999Z</time></trkpt><trkpt lat="35.98654218478728" lon="-107.0221330937277"><ele>2120.5</ele><time>2026-05-03T17:33:33.999Z</time></trkpt><trkpt lat="35.9865654723912" lon="-107.02204529125277"><ele>2121.0</ele><time>2026-05-03T17:33:35.999Z</time></trkpt><trkpt lat="35.98650916379427" lon="-107.02192659387602"><ele>2121.0</ele><time>2026-05-03T17:33:37.999Z</time></trkpt><trkpt lat="35.98643374057799" lon="-107.0218129112121"><ele>2121.0</ele><time>2026-05-03T17:33:39.999Z</time></trkpt><trkpt lat="35.98641215335896" lon="-107.02172814238575"><ele>2121.0</ele><time>2026-05-03T17:33:40.999Z</time></trkpt><trkpt lat="35.986298917721726" lon="-107.021680533897"><ele>2121.0</ele><time>2026-05-03T17:33:42.999Z</time></trkpt><trkpt lat="35.98627161429625" lon="-107.0215681727219"><ele>2121.0</ele><time>2026-05-03T17:33:44.999Z</time></trkpt><trkpt lat="35.98630098608112" lon="-107.0214362894466"><ele>2121.4</ele><time>2026-05-03T17:33:46.999Z</time></trkpt><trkpt lat="35.98624613207899" lon="-107.02132693031652"><ele>2121.8</ele><time>2026-05-03T17:33:48.999Z</time></trkpt><trkpt lat="35.986187030668226" lon="-107.02129982468544"><ele>2122.2000000000003</ele><time>2026-05-03T17:33:49.999Z</time></trkpt><trkpt lat="35.98608269140529" lon="-107.02130022976803"><ele>2122.6</ele><time>2026-05-03T17:33:50.999Z</time></trkpt><trkpt lat="35.98599891687654" lon="-107.02133277347363"><ele>2123.0</ele><time>2026-05-03T17:33:51.999Z</time></trkpt><trkpt lat="35.9859089259513" lon="-107.02137327693794"><ele>2122.8</ele><time>2026-05-03T17:33:52.999Z</time></trkpt><trkpt lat="35.98583337253407" lon="-107.02139989460738"><ele>2122.6000000000004</ele><time>2026-05-03T17:33:53.999Z</time></trkpt><trkpt lat="35.98575340950002" lon="-107.02147764508175"><ele>2122.3999999999996</ele><time>2026-05-03T17:33:55.999Z</time></trkpt><trkpt lat="35.98568215223438" lon="-107.02154717667591"><ele>2122.2</ele><time>2026-05-03T17:33:57.999Z</time></trkpt><trkpt lat="35.985714481447324" lon="-107.02171327697822"><ele>2122.0</ele><time>2026-05-03T17:33:59.999Z</time></trkpt><trkpt lat="35.98577077129113" lon="-107.02179422300705"><ele>2122.0</ele><time>2026-05-03T17:34:00.999Z</time></trkpt><trkpt lat="35.98582187169878" lon="-107.02185463552719"><ele>2122.0</ele><time>2026-05-03T17:34:01.999Z</time></trkpt><trkpt lat="35.9858944116979" lon="-107.02187975045628"><ele>2122.0</ele><time>2026-05-03T17:34:02.999Z</time></trkpt><trkpt lat="35.98598618584867" lon="-107.02187305987653"><ele>2122.0</ele><time>2026-05-03T17:34:03.999Z</time></trkpt><trkpt lat="35.98607273190362" lon="-107.02189552605613"><ele>2122.0</ele><time>2026-05-03T17:34:04.999Z</time></trkpt><trkpt lat="35.986130200017534" lon="-107.02195569729957"><ele>2122.0</ele><time>2026-05-03T17:34:05.999Z</time></trkpt><trkpt lat="35.98617015004651" lon="-107.02204730865046"><ele>2121.75</ele><time>2026-05-03T17:34:06.999Z</time></trkpt><trkpt lat="35.98619775159185" lon="-107.02217720592984"><ele>2121.5</ele><time>2026-05-03T17:34:07.999Z</time></trkpt><trkpt lat="35.98618859765203" lon="-107.02230366481668"><ele>2121.25</ele><time>2026-05-03T17:34:08.999Z</time></trkpt><trkpt lat="35.98616157273327" lon="-107.0224415599364"><ele>2121.0</ele><time>2026-05-03T17:34:09.999Z</time></trkpt><trkpt lat="35.986135080927106" lon="-107.02260411572232"><ele>2120.25</ele><time>2026-05-03T17:34:10.999Z</time></trkpt><trkpt lat="35.986120597302815" lon="-107.02278582134524"><ele>2119.5</ele><time>2026-05-03T17:34:11.999Z</time></trkpt><trkpt lat="35.98610604249963" lon="-107.02294370421008"><ele>2118.75</ele><time>2026-05-03T17:34:12.999Z</time></trkpt><trkpt lat="35.986079547515594" lon="-107.02310961343704"><ele>2118.0</ele><time>2026-05-03T17:34:13.999Z</time></trkpt><trkpt lat="35.98604897987187" lon="-107.02328228969641"><ele>2117.5</ele><time>2026-05-03T17:34:14.999Z</time></trkpt><trkpt lat="35.98603729974312" lon="-107.0234559055901"><ele>2117.0</ele><time>2026-05-03T17:34:15.999Z</time></trkpt><trkpt lat="35.986000165069214" lon="-107.02361590584216"><ele>2116.5</ele><time>2026-05-03T17:34:16.999Z</time></trkpt><trkpt lat="35.98594369372336" lon="-107.0237868507016"><ele>2116.0</ele><time>2026-05-03T17:34:17.999Z</time></trkpt><trkpt lat="35.985868183734844" lon="-107.02396258238761"><ele>2115.6</ele><time>2026-05-03T17:34:18.999Z</time></trkpt><trkpt lat="35.98580327617223" lon="-107.02411479693625"><ele>2115.2</ele><time>2026-05-03T17:34:19.999Z</time></trkpt><trkpt lat="35.98575834084215" lon="-107.0242438253528"><ele>2114.8</ele><time>2026-05-03T17:34:20.999Z</time></trkpt><trkpt lat="35.98571147676251" lon="-107.02434639840428"><ele>2114.4</ele><time>2026-05-03T17:34:21.999Z</time></trkpt><trkpt lat="35.98562379786202" lon="-107.02435694687891"><ele>2114.0</ele><time>2026-05-03T17:34:23.999Z</time></trkpt><trkpt lat="35.9854989004991" lon="-107.02433958481255"><ele>2114.0</ele><time>2026-05-03T17:34:25.999Z</time></trkpt><trkpt lat="35.985428740768434" lon="-107.02436419093961"><ele>2114.0</ele><time>2026-05-03T17:34:26.999Z</time></trkpt><trkpt lat="35.98536405143532" lon="-107.02441622884956"><ele>2114.0</ele><time>2026-05-03T17:34:27.999Z</time></trkpt><trkpt lat="35.98528364036202" lon="-107.02451105150328"><ele>2114.0</ele><time>2026-05-03T17:34:29Z</time></trkpt><trkpt lat="35.98521558555215" lon="-107.02460846342507"><ele>2114.0</ele><time>2026-05-03T17:34:30Z</time></trkpt><trkpt lat="35.985145292321384" lon="-107.0246907218547"><ele>2114.0</ele><time>2026-05-03T17:34:31Z</time></trkpt><trkpt lat="35.98508467126603" lon="-107.02475839896289"><ele>2114.0</ele><time>2026-05-03T17:34:32Z</time></trkpt><trkpt lat="35.9850660884322" lon="-107.02484932398441"><ele>2114.0</ele><time>2026-05-03T17:34:33Z</time></trkpt><trkpt lat="35.985068346978736" lon="-107.02494538842289"><ele>2114.0</ele><time>2026-05-03T17:34:34Z</time></trkpt><trkpt lat="35.98505886857024" lon="-107.02504284676105"><ele>2114.0</ele><time>2026-05-03T17:34:35Z</time></trkpt><trkpt lat="35.98501570773362" lon="-107.02513813864813"><ele>2114.0</ele><time>2026-05-03T17:34:36Z</time></trkpt><trkpt lat="35.98495331880856" lon="-107.0252213639118"><ele>2113.5</ele><time>2026-05-03T17:34:37Z</time></trkpt><trkpt lat="35.98489238810039" lon="-107.02530504966194"><ele>2113.0</ele><time>2026-05-03T17:34:38Z</time></trkpt><trkpt lat="35.98482345595226" lon="-107.02536270615074"><ele>2112.5</ele><time>2026-05-03T17:34:39Z</time></trkpt><trkpt lat="35.984740423577776" lon="-107.02538575800557"><ele>2112.0</ele><time>2026-05-03T17:34:40Z</time></trkpt><trkpt lat="35.98467451801521" lon="-107.02538228146783"><ele>2111.5</ele><time>2026-05-03T17:34:41Z</time></trkpt><trkpt lat="35.984613269858976" lon="-107.02535314130984"><ele>2111.0</ele><time>2026-05-03T17:34:42Z</time></trkpt><trkpt lat="35.98451979393594" lon="-107.02533546642876"><ele>2111.0</ele><time>2026-05-03T17:34:43Z</time></trkpt><trkpt lat="35.984422290650635" lon="-107.02533949244435"><ele>2111.0</ele><time>2026-05-03T17:34:44Z</time></trkpt><trkpt lat="35.984336188025715" lon="-107.0253403163321"><ele>2111.0</ele><time>2026-05-03T17:34:45Z</time></trkpt><trkpt lat="35.98425502334357" lon="-107.02533344332143"><ele>2111.0</ele><time>2026-05-03T17:34:46Z</time></trkpt><trkpt lat="35.984177295539205" lon="-107.02534577911159"><ele>2111.0</ele><time>2026-05-03T17:34:47Z</time></trkpt><trkpt lat="35.98408490310643" lon="-107.02538946455526"><ele>2111.0</ele><time>2026-05-03T17:34:48Z</time></trkpt><trkpt lat="35.98401178174765" lon="-107.02542463652159"><ele>2112.0</ele><time>2026-05-03T17:34:49Z</time></trkpt><trkpt lat="35.983926621435856" lon="-107.0254603685747"><ele>2113.0</ele><time>2026-05-03T17:34:50Z</time></trkpt><trkpt lat="35.983839982548346" lon="-107.02552996100376"><ele>2114.0</ele><time>2026-05-03T17:34:51Z</time></trkpt><trkpt lat="35.983749928280204" lon="-107.02561818270695"><ele>2115.0</ele><time>2026-05-03T17:34:52Z</time></trkpt><trkpt lat="35.98362718638018" lon="-107.02567435956244"><ele>2116.0</ele><time>2026-05-03T17:34:53Z</time></trkpt><trkpt lat="35.98350771285963" lon="-107.02568896003878"><ele>2116.0</ele><time>2026-05-03T17:34:54Z</time></trkpt><trkpt lat="35.983415033682284" lon="-107.02567942412396"><ele>2116.0</ele><time>2026-05-03T17:34:55Z</time></trkpt><trkpt lat="35.983345194118336" lon="-107.02565974646568"><ele>2116.0</ele><time>2026-05-03T17:34:56Z</time></trkpt><trkpt lat="35.983303762342096" lon="-107.02554882628279"><ele>2116.0</ele><time>2026-05-03T17:34:58Z</time></trkpt><trkpt lat="35.983340871010824" lon="-107.02545239857817"><ele>2116.0</ele><time>2026-05-03T17:34:59Z</time></trkpt><trkpt lat="35.983378969155105" lon="-107.02533794591712"><ele>2116.0</ele><time>2026-05-03T17:35:00Z</time></trkpt><trkpt lat="35.98341386156093" lon="-107.02521639939596"><ele>2116.0</ele><time>2026-05-03T17:35:01Z</time></trkpt><trkpt lat="35.983447685924226" lon="-107.0251208541301"><ele>2116.0</ele><time>2026-05-03T17:35:02Z</time></trkpt><trkpt lat="35.983446008583726" lon="-107.02501421405083"><ele>2116.0</ele><time>2026-05-03T17:35:04Z</time></trkpt><trkpt lat="35.983346569338856" lon="-107.02499926480992"><ele>2116.0</ele><time>2026-05-03T17:35:06Z</time></trkpt><trkpt lat="35.98321418352287" lon="-107.02500829595229"><ele>2114.8</ele><time>2026-05-03T17:35:08Z</time></trkpt><trkpt lat="35.98314899637237" lon="-107.02504403291823"><ele>2113.6</ele><time>2026-05-03T17:35:09Z</time></trkpt><trkpt lat="35.98308005385337" lon="-107.02509170001086"><ele>2112.4</ele><time>2026-05-03T17:35:10Z</time></trkpt><trkpt lat="35.98301608472752" lon="-107.02513160765334"><ele>2111.2</ele><time>2026-05-03T17:35:11Z</time></trkpt><trkpt lat="35.98291575292269" lon="-107.02527878044496"><ele>2110.0</ele><time>2026-05-03T17:35:13Z</time></trkpt><trkpt lat="35.98285870689912" lon="-107.0253461569955"><ele>2110.0</ele><time>2026-05-03T17:35:14Z</time></trkpt><trkpt lat="35.98282195911316" lon="-107.02542434411674"><ele>2110.0</ele><time>2026-05-03T17:35:15Z</time></trkpt><trkpt lat="35.982787914343064" lon="-107.02550878596628"><ele>2110.0</ele><time>2026-05-03T17:35:16Z</time></trkpt><trkpt lat="35.98274983938989" lon="-107.02557097517442"><ele>2110.0</ele><time>2026-05-03T17:35:17Z</time></trkpt><trkpt lat="35.9826795452759" lon="-107.02561674037723"><ele>2110.0</ele><time>2026-05-03T17:35:18Z</time></trkpt><trkpt lat="35.98259654989567" lon="-107.0256133681788"><ele>2110.0</ele><time>2026-05-03T17:35:19Z</time></trkpt><trkpt lat="35.982497230317364" lon="-107.0256065645583"><ele>2109.8333333333335</ele><time>2026-05-03T17:35:20Z</time></trkpt><trkpt lat="35.98242306822529" lon="-107.02558286051436"><ele>2109.666666666667</ele><time>2026-05-03T17:35:21Z</time></trkpt><trkpt lat="35.98234549527027" lon="-107.02558284172632"><ele>2109.5</ele><time>2026-05-03T17:35:22Z</time></trkpt><trkpt lat="35.982267176296205" lon="-107.02558984677542"><ele>2109.3333333333335</ele><time>2026-05-03T17:35:23Z</time></trkpt><trkpt lat="35.9822038116654" lon="-107.02557615474788"><ele>2109.1666666666665</ele><time>2026-05-03T17:35:23.999Z</time></trkpt><trkpt lat="35.98215022950027" lon="-107.02541795095466"><ele>2109.0</ele><time>2026-05-03T17:35:25.999Z</time></trkpt><trkpt lat="35.98212719568827" lon="-107.02531015497652"><ele>2109.0</ele><time>2026-05-03T17:35:26.999Z</time></trkpt><trkpt lat="35.98208656559515" lon="-107.0252441088426"><ele>2109.0</ele><time>2026-05-03T17:35:27.999Z</time></trkpt><trkpt lat="35.98196130299699" lon="-107.02527224173667"><ele>2109.0</ele><time>2026-05-03T17:35:29.999Z</time></trkpt><trkpt lat="35.981885157844964" lon="-107.02535040928923"><ele>2109.0</ele><time>2026-05-03T17:35:30.999Z</time></trkpt><trkpt lat="35.98180585490461" lon="-107.0254411212208"><ele>2109.0</ele><time>2026-05-03T17:35:31.999Z</time></trkpt><trkpt lat="35.98172624950931" lon="-107.02553249388214"><ele>2108.8</ele><time>2026-05-03T17:35:32.999Z</time></trkpt><trkpt lat="35.98165897287577" lon="-107.02562025809041"><ele>2108.6000000000004</ele><time>2026-05-03T17:35:33.999Z</time></trkpt><trkpt lat="35.98158843745073" lon="-107.0257104927359"><ele>2108.4</ele><time>2026-05-03T17:35:34.999Z</time></trkpt><trkpt lat="35.981528432847135" lon="-107.02580080259374"><ele>2108.2000000000003</ele><time>2026-05-03T17:35:35.999Z</time></trkpt><trkpt lat="35.981479438630366" lon="-107.02587986835252"><ele>2108.0</ele><time>2026-05-03T17:35:36.999Z</time></trkpt><trkpt lat="35.98140882243394" lon="-107.02599507685659"><ele>2107.5</ele><time>2026-05-03T17:35:38.999Z</time></trkpt><trkpt lat="35.98139511868642" lon="-107.0260714798177"><ele>2107.0</ele><time>2026-05-03T17:35:39.999Z</time></trkpt><trkpt lat="35.98134745516757" lon="-107.02613493098637"><ele>2106.5</ele><time>2026-05-03T17:35:40.999Z</time></trkpt><trkpt lat="35.981217170550515" lon="-107.02623751657183"><ele>2106.0</ele><time>2026-05-03T17:35:42.999Z</time></trkpt><trkpt lat="35.98116161522721" lon="-107.02630156531325"><ele>2105.5</ele><time>2026-05-03T17:35:43.999Z</time></trkpt><trkpt lat="35.98111734224887" lon="-107.02636854324533"><ele>2105.0</ele><time>2026-05-03T17:35:44.999Z</time></trkpt><trkpt lat="35.98104984501414" lon="-107.02640935010942"><ele>2105.0</ele><time>2026-05-03T17:35:46.999Z</time></trkpt><trkpt lat="35.980981625884745" lon="-107.02628856715552"><ele>2105.0</ele><time>2026-05-03T17:35:48.999Z</time></trkpt><trkpt lat="35.9809474271089" lon="-107.02612700865171"><ele>2105.0</ele><time>2026-05-03T17:35:50.999Z</time></trkpt><trkpt lat="35.98096765667313" lon="-107.02602216052361"><ele>2105.0</ele><time>2026-05-03T17:35:51.999Z</time></trkpt><trkpt lat="35.981007573283904" lon="-107.02594060257124"><ele>2105.0</ele><time>2026-05-03T17:35:52.999Z</time></trkpt><trkpt lat="35.981062426037525" lon="-107.02585929176263"><ele>2105.6</ele><time>2026-05-03T17:35:53.999Z</time></trkpt><trkpt lat="35.981094181578584" lon="-107.02576479965983"><ele>2106.2</ele><time>2026-05-03T17:35:54.999Z</time></trkpt><trkpt lat="35.981088710057136" lon="-107.02564510212127"><ele>2106.8</ele><time>2026-05-03T17:35:55.999Z</time></trkpt><trkpt lat="35.981056235459675" lon="-107.02549352918192"><ele>2107.4</ele><time>2026-05-03T17:35:56.999Z</time></trkpt><trkpt lat="35.98100794499928" lon="-107.02533925204243"><ele>2108.0</ele><time>2026-05-03T17:35:57.999Z</time></trkpt><trkpt lat="35.98094145051895" lon="-107.02518558879738"><ele>2108.0</ele><time>2026-05-03T17:35:58.999Z</time></trkpt><trkpt lat="35.98089078314898" lon="-107.02505038192885"><ele>2108.0</ele><time>2026-05-03T17:35:59.999Z</time></trkpt><trkpt lat="35.98089427845121" lon="-107.02493561618338"><ele>2108.0</ele><time>2026-05-03T17:36:00.999Z</time></trkpt><trkpt lat="35.98091533382271" lon="-107.02482202936908"><ele>2108.0</ele><time>2026-05-03T17:36:01.999Z</time></trkpt><trkpt lat="35.980972060810764" lon="-107.02469003053228"><ele>2108.0</ele><time>2026-05-03T17:36:02.999Z</time></trkpt><trkpt lat="35.98103108417786" lon="-107.02456762951371"><ele>2108.2000000000003</ele><time>2026-05-03T17:36:03.999Z</time></trkpt><trkpt lat="35.98106450575561" lon="-107.02446977508549"><ele>2108.4</ele><time>2026-05-03T17:36:04.999Z</time></trkpt><trkpt lat="35.981067920795866" lon="-107.0243865638866"><ele>2108.6000000000004</ele><time>2026-05-03T17:36:05.999Z</time></trkpt><trkpt lat="35.98097657145168" lon="-107.02426056807603"><ele>2108.8</ele><time>2026-05-03T17:36:07.999Z</time></trkpt><trkpt lat="35.98088632714663" lon="-107.0242220299311"><ele>2109.0</ele><time>2026-05-03T17:36:08.999Z</time></trkpt><trkpt lat="35.980782829678155" lon="-107.02418404188553"><ele>2108.0</ele><time>2026-05-03T17:36:09.999Z</time></trkpt><trkpt lat="35.98068057095784" lon="-107.02414681418801"><ele>2107.0</ele><time>2026-05-03T17:36:10.999Z</time></trkpt><trkpt lat="35.980635991276245" lon="-107.02408215264988"><ele>2106.0</ele><time>2026-05-03T17:36:11.999Z</time></trkpt><trkpt lat="35.980657848430845" lon="-107.02394120878236"><ele>2105.0</ele><time>2026-05-03T17:36:13.999Z</time></trkpt><trkpt lat="35.9807002849314" lon="-107.02386292817586"><ele>2104.0</ele><time>2026-05-03T17:36:14.999Z</time></trkpt><trkpt lat="35.980732046892264" lon="-107.02376873393541"><ele>2104.0</ele><time>2026-05-03T17:36:15.999Z</time></trkpt><trkpt lat="35.98076450215764" lon="-107.02366357292408"><ele>2104.0</ele><time>2026-05-03T17:36:16.999Z</time></trkpt><trkpt lat="35.98080852409227" lon="-107.02353405489589"><ele>2104.0</ele><time>2026-05-03T17:36:17.999Z</time></trkpt><trkpt lat="35.98086430849699" lon="-107.02343821744466"><ele>2104.0</ele><time>2026-05-03T17:36:18.999Z</time></trkpt><trkpt lat="35.9809278464623" lon="-107.02337433866107"><ele>2104.0</ele><time>2026-05-03T17:36:19.999Z</time></trkpt><trkpt lat="35.98099509712945" lon="-107.02332893915342"><ele>2104.3333333333335</ele><time>2026-05-03T17:36:20.999Z</time></trkpt><trkpt lat="35.981068172066294" lon="-107.02332783612574"><ele>2104.666666666667</ele><time>2026-05-03T17:36:21.999Z</time></trkpt><trkpt lat="35.98117979439885" lon="-107.02333232215439"><ele>2105.0</ele><time>2026-05-03T17:36:22.999Z</time></trkpt><trkpt lat="35.98127210614406" lon="-107.02329365844662"><ele>2105.3333333333335</ele><time>2026-05-03T17:36:23.999Z</time></trkpt><trkpt lat="35.98134986172709" lon="-107.02327075113661"><ele>2105.6666666666665</ele><time>2026-05-03T17:36:24.999Z</time></trkpt><trkpt lat="35.981411576447044" lon="-107.02325386285139"><ele>2106.0</ele><time>2026-05-03T17:36:25.999Z</time></trkpt><trkpt lat="35.98147267088071" lon="-107.02321614123812"><ele>2106.428571428571</ele><time>2026-05-03T17:36:26.999Z</time></trkpt><trkpt lat="35.98152566765814" lon="-107.02316519503225"><ele>2106.8571428571427</ele><time>2026-05-03T17:36:27.999Z</time></trkpt><trkpt lat="35.98158216093996" lon="-107.02310498553904"><ele>2107.285714285714</ele><time>2026-05-03T17:36:28.999Z</time></trkpt><trkpt lat="35.98164568615534" lon="-107.02304848517034"><ele>2107.7142857142853</ele><time>2026-05-03T17:36:29.999Z</time></trkpt><trkpt lat="35.981702832143576" lon="-107.02299726479256"><ele>2108.142857142857</ele><time>2026-05-03T17:36:30.999Z</time></trkpt><trkpt lat="35.98176111320556" lon="-107.02294886907403"><ele>2108.5714285714284</ele><time>2026-05-03T17:36:31.999Z</time></trkpt><trkpt lat="35.98183260080811" lon="-107.02290312572896"><ele>2109.0</ele><time>2026-05-03T17:36:32.999Z</time></trkpt><trkpt lat="35.98188817194198" lon="-107.02286009237302"><ele>2109.0</ele><time>2026-05-03T17:36:33.999Z</time></trkpt><trkpt lat="35.98182752397211" lon="-107.02268741805062"><ele>2109.0</ele><time>2026-05-03T17:36:36Z</time></trkpt><trkpt lat="35.98177214174461" lon="-107.02258042820284"><ele>2109.0</ele><time>2026-05-03T17:36:37Z</time></trkpt><trkpt lat="35.98173818213169" lon="-107.02249108634324"><ele>2109.0</ele><time>2026-05-03T17:36:38Z</time></trkpt><trkpt lat="35.981704286610615" lon="-107.02236651468017"><ele>2109.0</ele><time>2026-05-03T17:36:40Z</time></trkpt><trkpt lat="35.98163764421876" lon="-107.02236635762307"><ele>2109.0</ele><time>2026-05-03T17:36:42Z</time></trkpt><trkpt lat="35.98158566631319" lon="-107.0224266123192"><ele>2109.0</ele><time>2026-05-03T17:36:43Z</time></trkpt><trkpt lat="35.98154207175335" lon="-107.02249261937611"><ele>2109.0</ele><time>2026-05-03T17:36:44Z</time></trkpt><trkpt lat="35.98148708803949" lon="-107.02256501394263"><ele>2109.0</ele><time>2026-05-03T17:36:45Z</time></trkpt><trkpt lat="35.98141740251202" lon="-107.02263727362723"><ele>2109.0</ele><time>2026-05-03T17:36:46Z</time></trkpt><trkpt lat="35.98135358104605" lon="-107.0227023172261"><ele>2109.0</ele><time>2026-05-03T17:36:47Z</time></trkpt><trkpt lat="35.98126264601561" lon="-107.0227521525463"><ele>2109.0</ele><time>2026-05-03T17:36:48Z</time></trkpt><trkpt lat="35.98116248688689" lon="-107.02281490310321"><ele>2109.0</ele><time>2026-05-03T17:36:49Z</time></trkpt><trkpt lat="35.98106473056735" lon="-107.0228772312749"><ele>2109.0</ele><time>2026-05-03T17:36:50Z</time></trkpt><trkpt lat="35.98097842394365" lon="-107.02294089737526"><ele>2109.0</ele><time>2026-05-03T17:36:51Z</time></trkpt><trkpt lat="35.980905793761714" lon="-107.02303113840806"><ele>2109.0</ele><time>2026-05-03T17:36:52Z</time></trkpt><trkpt lat="35.98082582781244" lon="-107.02314173043352"><ele>2109.2</ele><time>2026-05-03T17:36:53Z</time></trkpt><trkpt lat="35.98073871052335" lon="-107.02320726010164"><ele>2109.4</ele><time>2026-05-03T17:36:54Z</time></trkpt><trkpt lat="35.98066004760239" lon="-107.02323312577838"><ele>2109.6</ele><time>2026-05-03T17:36:55Z</time></trkpt><trkpt lat="35.98056995546442" lon="-107.02323144097728"><ele>2109.8</ele><time>2026-05-03T17:36:56Z</time></trkpt><trkpt lat="35.98046884819074" lon="-107.02324046585453"><ele>2110.0</ele><time>2026-05-03T17:36:57Z</time></trkpt><trkpt lat="35.980363703788136" lon="-107.023271766172"><ele>2109.0</ele><time>2026-05-03T17:36:58Z</time></trkpt><trkpt lat="35.98028347502476" lon="-107.02332618666426"><ele>2108.0</ele><time>2026-05-03T17:36:59Z</time></trkpt><trkpt lat="35.98021816817037" lon="-107.02339484907307"><ele>2107.0</ele><time>2026-05-03T17:37:00Z</time></trkpt><trkpt lat="35.98016045349183" lon="-107.02347456776211"><ele>2106.0</ele><time>2026-05-03T17:37:01Z</time></trkpt><trkpt lat="35.98013075397907" lon="-107.02355753388218"><ele>2105.0</ele><time>2026-05-03T17:37:02Z</time></trkpt><trkpt lat="35.98011738311685" lon="-107.0236383740714"><ele>2104.0</ele><time>2026-05-03T17:37:03Z</time></trkpt><trkpt lat="35.9801049404371" lon="-107.02372396188215"><ele>2104.0</ele><time>2026-05-03T17:37:04Z</time></trkpt><trkpt lat="35.98008902567766" lon="-107.02384175865633"><ele>2104.0</ele><time>2026-05-03T17:37:05Z</time></trkpt><trkpt lat="35.98007358804396" lon="-107.02394475709667"><ele>2104.0</ele><time>2026-05-03T17:37:06Z</time></trkpt><trkpt lat="35.98007077616281" lon="-107.02406785863491"><ele>2104.0</ele><time>2026-05-03T17:37:07Z</time></trkpt><trkpt lat="35.98006018838548" lon="-107.02417818775693"><ele>2104.0</ele><time>2026-05-03T17:37:08Z</time></trkpt><trkpt lat="35.9800381482737" lon="-107.0243069137805"><ele>2104.0</ele><time>2026-05-03T17:37:09Z</time></trkpt><trkpt lat="35.980045470413984" lon="-107.02443460353645"><ele>2104.0</ele><time>2026-05-03T17:37:10Z</time></trkpt><trkpt lat="35.98005666187039" lon="-107.02455233708072"><ele>2104.0</ele><time>2026-05-03T17:37:11Z</time></trkpt><trkpt lat="35.98005081214893" lon="-107.02464813596772"><ele>2104.0</ele><time>2026-05-03T17:37:12Z</time></trkpt><trkpt lat="35.980033370050315" lon="-107.0247343588892"><ele>2104.0</ele><time>2026-05-03T17:37:13Z</time></trkpt><trkpt lat="35.97998749242406" lon="-107.024791578316"><ele>2104.0</ele><time>2026-05-03T17:37:14Z</time></trkpt><trkpt lat="35.97990439648379" lon="-107.02482694456475"><ele>2103.0</ele><time>2026-05-03T17:37:15Z</time></trkpt><trkpt lat="35.97982091258727" lon="-107.02486301584352"><ele>2102.0</ele><time>2026-05-03T17:37:16Z</time></trkpt><trkpt lat="35.97974959311553" lon="-107.02493820600377"><ele>2101.0</ele><time>2026-05-03T17:37:17Z</time></trkpt><trkpt lat="35.979696176145026" lon="-107.02500897904683"><ele>2100.0</ele><time>2026-05-03T17:37:18Z</time></trkpt><trkpt lat="35.979648163616275" lon="-107.02510099217689"><ele>2099.0</ele><time>2026-05-03T17:37:20Z</time></trkpt><trkpt lat="35.97956145484147" lon="-107.02501281674914"><ele>2099.0</ele><time>2026-05-03T17:37:22Z</time></trkpt><trkpt lat="35.979534424996395" lon="-107.02512401417302"><ele>2099.0</ele><time>2026-05-03T17:37:26Z</time></trkpt><trkpt lat="35.97950895122959" lon="-107.02520248600328"><ele>2099.0</ele><time>2026-05-03T17:37:28Z</time></trkpt><trkpt lat="35.979429566381896" lon="-107.02522985897618"><ele>2099.0</ele><time>2026-05-03T17:37:30Z</time></trkpt><trkpt lat="35.97936407881342" lon="-107.0252803048813"><ele>2099.0</ele><time>2026-05-03T17:37:32Z</time></trkpt><trkpt lat="35.979274557194245" lon="-107.02535681482635"><ele>2099.0</ele><time>2026-05-03T17:37:34Z</time></trkpt><trkpt lat="35.97915631352077" lon="-107.02539274160866"><ele>2098.833333333333</ele><time>2026-05-03T17:37:36Z</time></trkpt><trkpt lat="35.979044336655576" lon="-107.02543390761952"><ele>2098.6666666666665</ele><time>2026-05-03T17:37:38Z</time></trkpt><trkpt lat="35.978959664750604" lon="-107.02551335617937"><ele>2098.5</ele><time>2026-05-03T17:37:40Z</time></trkpt><trkpt lat="35.97892367850013" lon="-107.02559283655386"><ele>2098.3333333333335</ele><time>2026-05-03T17:37:41Z</time></trkpt><trkpt lat="35.97889178588919" lon="-107.02567255814559"><ele>2098.166666666667</ele><time>2026-05-03T17:37:42Z</time></trkpt><trkpt lat="35.97886010525798" lon="-107.02574885246277"><ele>2098.0</ele><time>2026-05-03T17:37:43Z</time></trkpt><trkpt lat="35.97880270367431" lon="-107.02587475765759"><ele>2098.0</ele><time>2026-05-03T17:37:45Z</time></trkpt><trkpt lat="35.97872507224333" lon="-107.02599012052913"><ele>2098.0</ele><time>2026-05-03T17:37:47Z</time></trkpt><trkpt lat="35.97864774723925" lon="-107.02610425385808"><ele>2098.0</ele><time>2026-05-03T17:37:49Z</time></trkpt><trkpt lat="35.978561590076225" lon="-107.02622616159975"><ele>2098.0</ele><time>2026-05-03T17:37:51Z</time></trkpt><trkpt lat="35.97844359764916" lon="-107.02633913973766"><ele>2098.0</ele><time>2026-05-03T17:37:52.999Z</time></trkpt><trkpt lat="35.97837200590593" lon="-107.02638928478605"><ele>2098.0</ele><time>2026-05-03T17:37:53.999Z</time></trkpt><trkpt lat="35.97830028800361" lon="-107.02641966366201"><ele>2098.0</ele><time>2026-05-03T17:37:54.999Z</time></trkpt><trkpt lat="35.978247754859545" lon="-107.0264839129386"><ele>2098.0</ele><time>2026-05-03T17:37:55.999Z</time></trkpt><trkpt lat="35.97816143326568" lon="-107.02658824713914"><ele>2098.0</ele><time>2026-05-03T17:37:57.999Z</time></trkpt><trkpt lat="35.97808218761262" lon="-107.0266216968551"><ele>2098.0</ele><time>2026-05-03T17:37:58.999Z</time></trkpt><trkpt lat="35.97799411582544" lon="-107.02668820926125"><ele>2097.8333333333335</ele><time>2026-05-03T17:38:00.999Z</time></trkpt><trkpt lat="35.97794910129992" lon="-107.02674631859271"><ele>2097.666666666667</ele><time>2026-05-03T17:38:02.999Z</time></trkpt><trkpt lat="35.978014034735295" lon="-107.02675099633379"><ele>2097.5</ele><time>2026-05-03T17:38:04.999Z</time></trkpt><trkpt lat="35.97808716540085" lon="-107.02678861359416"><ele>2097.3333333333335</ele><time>2026-05-03T17:38:06.999Z</time></trkpt><trkpt lat="35.978058928536555" lon="-107.02695397984702"><ele>2097.1666666666665</ele><time>2026-05-03T17:38:08.999Z</time></trkpt><trkpt lat="35.978062031504166" lon="-107.02704466715701"><ele>2097.0</ele><time>2026-05-03T17:38:10.999Z</time></trkpt><trkpt lat="35.977996024380836" lon="-107.02710164593121"><ele>2097.0</ele><time>2026-05-03T17:38:11.999Z</time></trkpt><trkpt lat="35.9779454645691" lon="-107.02716065231799"><ele>2097.0</ele><time>2026-05-03T17:38:12.999Z</time></trkpt><trkpt lat="35.97783948258173" lon="-107.0272227654997"><ele>2097.0</ele><time>2026-05-03T17:38:14.999Z</time></trkpt><trkpt lat="35.97779181191309" lon="-107.02727945832832"><ele>2097.0</ele><time>2026-05-03T17:38:15.999Z</time></trkpt><trkpt lat="35.97773371712141" lon="-107.0273299972698"><ele>2097.0</ele><time>2026-05-03T17:38:16.999Z</time></trkpt><trkpt lat="35.97766241042166" lon="-107.02736467821715"><ele>2097.0</ele><time>2026-05-03T17:38:17.999Z</time></trkpt><trkpt lat="35.97757319676655" lon="-107.02732145404592"><ele>2097.0</ele><time>2026-05-03T17:38:19.999Z</time></trkpt><trkpt lat="35.97754614379124" lon="-107.02722036471089"><ele>2097.0</ele><time>2026-05-03T17:38:21.999Z</time></trkpt><trkpt lat="35.977436697900195" lon="-107.02722261954638"><ele>2097.0</ele><time>2026-05-03T17:38:23.999Z</time></trkpt><trkpt lat="35.97730990323545" lon="-107.02719096624934"><ele>2097.0</ele><time>2026-05-03T17:38:25.999Z</time></trkpt><trkpt lat="35.977240728140686" lon="-107.02716081105967"><ele>2097.0</ele><time>2026-05-03T17:38:26.999Z</time></trkpt><trkpt lat="35.977174267425404" lon="-107.02713165978248"><ele>2097.3333333333335</ele><time>2026-05-03T17:38:27.999Z</time></trkpt><trkpt lat="35.9770818653721" lon="-107.02715965986829"><ele>2097.6666666666665</ele><time>2026-05-03T17:38:29.999Z</time></trkpt><trkpt lat="35.97704122630708" lon="-107.0272490495009"><ele>2098.0</ele><time>2026-05-03T17:38:30.999Z</time></trkpt><trkpt lat="35.97694967241897" lon="-107.02725120085655"><ele>2098.333333333333</ele><time>2026-05-03T17:38:32.999Z</time></trkpt><trkpt lat="35.97688434751682" lon="-107.0271963691075"><ele>2098.6666666666665</ele><time>2026-05-03T17:38:33.999Z</time></trkpt><trkpt lat="35.97681816725206" lon="-107.0271390871687"><ele>2099.0</ele><time>2026-05-03T17:38:34.999Z</time></trkpt><trkpt lat="35.976741254661626" lon="-107.02714467648062"><ele>2098.1666666666665</ele><time>2026-05-03T17:38:35.999Z</time></trkpt><trkpt lat="35.97666567335008" lon="-107.02714718217065"><ele>2097.333333333333</ele><time>2026-05-03T17:38:36.999Z</time></trkpt><trkpt lat="35.97658969747478" lon="-107.02713451905"><ele>2096.5</ele><time>2026-05-03T17:38:37.999Z</time></trkpt><trkpt lat="35.97652242885205" lon="-107.02714401121047"><ele>2095.6666666666665</ele><time>2026-05-03T17:38:38.999Z</time></trkpt><trkpt lat="35.976449241293224" lon="-107.02723910784995"><ele>2094.8333333333335</ele><time>2026-05-03T17:38:41Z</time></trkpt><trkpt lat="35.976440732389634" lon="-107.02738297188665"><ele>2094.0</ele><time>2026-05-03T17:38:43Z</time></trkpt><trkpt lat="35.97643308480881" lon="-107.02747513028224"><ele>2094.1666666666665</ele><time>2026-05-03T17:38:44Z</time></trkpt><trkpt lat="35.97640072725879" lon="-107.02756920188115"><ele>2094.3333333333335</ele><time>2026-05-03T17:38:45Z</time></trkpt><trkpt lat="35.976375917550335" lon="-107.02766695880275"><ele>2094.5</ele><time>2026-05-03T17:38:46Z</time></trkpt><trkpt lat="35.97636095829469" lon="-107.02775293988063"><ele>2094.666666666667</ele><time>2026-05-03T17:38:47Z</time></trkpt><trkpt lat="35.97629930917105" lon="-107.02783722538258"><ele>2094.8333333333335</ele><time>2026-05-03T17:38:49Z</time></trkpt><trkpt lat="35.97620827500335" lon="-107.02784331317521"><ele>2095.0</ele><time>2026-05-03T17:38:50Z</time></trkpt><trkpt lat="35.97612643919447" lon="-107.02786192512713"><ele>2095.0</ele><time>2026-05-03T17:38:51Z</time></trkpt><trkpt lat="35.97607200005318" lon="-107.02791102315149"><ele>2095.0</ele><time>2026-05-03T17:38:52Z</time></trkpt><trkpt lat="35.97597371776634" lon="-107.0279298883776"><ele>2095.0</ele><time>2026-05-03T17:38:54Z</time></trkpt><trkpt lat="35.97587970317205" lon="-107.02788930627614"><ele>2095.0</ele><time>2026-05-03T17:38:57Z</time></trkpt><trkpt lat="35.97581916963521" lon="-107.02794894054371"><ele>2095.0</ele><time>2026-05-03T17:38:59Z</time></trkpt><trkpt lat="35.97575129590295" lon="-107.02809785098474"><ele>2094.4</ele><time>2026-05-03T17:39:01Z</time></trkpt><trkpt lat="35.97575970294658" lon="-107.02825692761343"><ele>2093.8</ele><time>2026-05-03T17:39:03Z</time></trkpt><trkpt lat="35.9757179247443" lon="-107.0283637274374"><ele>2093.2</ele><time>2026-05-03T17:39:05Z</time></trkpt><trkpt lat="35.975622258369796" lon="-107.02842551701791"><ele>2092.6</ele><time>2026-05-03T17:39:07Z</time></trkpt><trkpt lat="35.97558745347519" lon="-107.02853858472642"><ele>2092.0</ele><time>2026-05-03T17:39:09Z</time></trkpt><trkpt lat="35.97556997582665" lon="-107.02861678371595"><ele>2091.7142857142853</ele><time>2026-05-03T17:39:10Z</time></trkpt><trkpt lat="35.975537217033605" lon="-107.0287006659387"><ele>2091.4285714285716</ele><time>2026-05-03T17:39:11Z</time></trkpt><trkpt lat="35.97552620262706" lon="-107.02879223677293"><ele>2091.142857142857</ele><time>2026-05-03T17:39:12Z</time></trkpt><trkpt lat="35.97549808849078" lon="-107.02887467278087"><ele>2090.8571428571427</ele><time>2026-05-03T17:39:13Z</time></trkpt><trkpt lat="35.97546548724709" lon="-107.02894667840782"><ele>2090.5714285714284</ele><time>2026-05-03T17:39:14Z</time></trkpt><trkpt lat="35.97540975848506" lon="-107.02900240283027"><ele>2090.285714285714</ele><time>2026-05-03T17:39:15Z</time></trkpt><trkpt lat="35.97533608997146" lon="-107.02901494514606"><ele>2090.0</ele><time>2026-05-03T17:39:16Z</time></trkpt><trkpt lat="35.97526841025863" lon="-107.02903898100901"><ele>2090.0</ele><time>2026-05-03T17:39:17Z</time></trkpt><trkpt lat="35.97520480793631" lon="-107.0290643108522"><ele>2090.0</ele><time>2026-05-03T17:39:18Z</time></trkpt><trkpt lat="35.97514160178706" lon="-107.02906053319398"><ele>2090.0</ele><time>2026-05-03T17:39:19Z</time></trkpt><trkpt lat="35.97501603314105" lon="-107.0289189172145"><ele>2090.0</ele><time>2026-05-03T17:39:20Z</time></trkpt><trkpt lat="35.974954542982566" lon="-107.02889751547355"><ele>2090.0</ele><time>2026-05-03T17:39:21Z</time></trkpt><trkpt lat="35.974858284222115" lon="-107.02891530316629"><ele>2089.833333333333</ele><time>2026-05-03T17:39:22Z</time></trkpt><trkpt lat="35.9747937263291" lon="-107.02891333928291"><ele>2089.6666666666665</ele><time>2026-05-03T17:39:23Z</time></trkpt><trkpt lat="35.97473067539107" lon="-107.0288925765706"><ele>2089.5</ele><time>2026-05-03T17:39:24Z</time></trkpt><trkpt lat="35.97465326759443" lon="-107.0288859191896"><ele>2089.3333333333335</ele><time>2026-05-03T17:39:25Z</time></trkpt><trkpt lat="35.97455076698449" lon="-107.02886336495467"><ele>2089.166666666667</ele><time>2026-05-03T17:39:26Z</time></trkpt><trkpt lat="35.97444277555474" lon="-107.02879168813615"><ele>2089.0</ele><time>2026-05-03T17:39:27Z</time></trkpt><trkpt lat="35.974341291763025" lon="-107.02871368816211"><ele>2089.0</ele><time>2026-05-03T17:39:28Z</time></trkpt><trkpt lat="35.97427928634193" lon="-107.02868592863473"><ele>2089.0</ele><time>2026-05-03T17:39:29Z</time></trkpt><trkpt lat="35.97418100416564" lon="-107.0286887584269"><ele>2089.0</ele><time>2026-05-03T17:39:30Z</time></trkpt><trkpt lat="35.97408575646238" lon="-107.02870357369642"><ele>2089.0</ele><time>2026-05-03T17:39:31Z</time></trkpt><trkpt lat="35.9740083134993" lon="-107.02872206522179"><ele>2089.0</ele><time>2026-05-03T17:39:32Z</time></trkpt><trkpt lat="35.97389133900242" lon="-107.02876057998155"><ele>2088.4</ele><time>2026-05-03T17:39:34Z</time></trkpt><trkpt lat="35.97380153251132" lon="-107.02875970935355"><ele>2087.8</ele><time>2026-05-03T17:39:35Z</time></trkpt><trkpt lat="35.9737050522209" lon="-107.0287377749163"><ele>2087.2</ele><time>2026-05-03T17:39:36Z</time></trkpt><trkpt lat="35.973617520537296" lon="-107.0287354518833"><ele>2086.6</ele><time>2026-05-03T17:39:37Z</time></trkpt><trkpt lat="35.97352229286915" lon="-107.02878095989851"><ele>2086.0</ele><time>2026-05-03T17:39:39Z</time></trkpt><trkpt lat="35.973521623405794" lon="-107.02893702108985"><ele>2086.0</ele><time>2026-05-03T17:39:41Z</time></trkpt><trkpt lat="35.973529409208425" lon="-107.02904343425739"><ele>2086.0</ele><time>2026-05-03T17:39:42Z</time></trkpt><trkpt lat="35.973546728328294" lon="-107.02914419959774"><ele>2086.0</ele><time>2026-05-03T17:39:43Z</time></trkpt><trkpt lat="35.97357169499293" lon="-107.02924724823322"><ele>2086.0</ele><time>2026-05-03T17:39:44Z</time></trkpt><trkpt lat="35.97362857127063" lon="-107.0293550515"><ele>2086.0</ele><time>2026-05-03T17:39:45Z</time></trkpt><trkpt lat="35.97368195175673" lon="-107.02947335880629"><ele>2086.6</ele><time>2026-05-03T17:39:46Z</time></trkpt><trkpt lat="35.97370594473668" lon="-107.02960469238992"><ele>2087.2</ele><time>2026-05-03T17:39:47Z</time></trkpt><trkpt lat="35.97372327162689" lon="-107.02973823830162"><ele>2087.8</ele><time>2026-05-03T17:39:48Z</time></trkpt><trkpt lat="35.97374357736379" lon="-107.0298511599578"><ele>2088.4</ele><time>2026-05-03T17:39:49Z</time></trkpt><trkpt lat="35.97377905679923" lon="-107.02995605816403"><ele>2089.0</ele><time>2026-05-03T17:39:50Z</time></trkpt><trkpt lat="35.97381301154077" lon="-107.03005447129945"><ele>2089.3333333333335</ele><time>2026-05-03T17:39:51Z</time></trkpt><trkpt lat="35.97388604757489" lon="-107.03011059949348"><ele>2089.666666666667</ele><time>2026-05-03T17:39:52Z</time></trkpt><trkpt lat="35.97396307596104" lon="-107.03015959935452"><ele>2090.0</ele><time>2026-05-03T17:39:53Z</time></trkpt><trkpt lat="35.9740177853577" lon="-107.03021402453696"><ele>2090.3333333333335</ele><time>2026-05-03T17:39:54Z</time></trkpt><trkpt lat="35.974046398813464" lon="-107.03033780245089"><ele>2090.6666666666665</ele><time>2026-05-03T17:39:56Z</time></trkpt><trkpt lat="35.97404097836319" lon="-107.03045553799699"><ele>2091.0</ele><time>2026-05-03T17:39:58Z</time></trkpt><trkpt lat="35.97404416563232" lon="-107.03057189082172"><ele>2091.0</ele><time>2026-05-03T17:40:00Z</time></trkpt><trkpt lat="35.97405659697185" lon="-107.0306511449632"><ele>2091.0</ele><time>2026-05-03T17:40:01Z</time></trkpt><trkpt lat="35.97405421298365" lon="-107.03077144731857"><ele>2091.0</ele><time>2026-05-03T17:40:03Z</time></trkpt><trkpt lat="35.97405277721929" lon="-107.03086843909192"><ele>2091.0</ele><time>2026-05-03T17:40:06Z</time></trkpt><trkpt lat="35.973998004440034" lon="-107.03093585497199"><ele>2091.0</ele><time>2026-05-03T17:40:07Z</time></trkpt><trkpt lat="35.9740501159145" lon="-107.03105501418483"><ele>2091.0</ele><time>2026-05-03T17:40:09Z</time></trkpt><trkpt lat="35.97408197673117" lon="-107.0311893959844"><ele>2090.8</ele><time>2026-05-03T17:40:11Z</time></trkpt><trkpt lat="35.97410892574656" lon="-107.03133058553684"><ele>2090.6</ele><time>2026-05-03T17:40:13Z</time></trkpt><trkpt lat="35.97409809558276" lon="-107.03146938939881"><ele>2090.4</ele><time>2026-05-03T17:40:15Z</time></trkpt><trkpt lat="35.97406621344612" lon="-107.03158842021199"><ele>2090.2</ele><time>2026-05-03T17:40:17Z</time></trkpt><trkpt lat="35.97405569303053" lon="-107.0316740968462"><ele>2090.0</ele><time>2026-05-03T17:40:19Z</time></trkpt><trkpt lat="35.97400310247708" lon="-107.03172563387218"><ele>2090.0</ele><time>2026-05-03T17:40:21Z</time></trkpt><trkpt lat="35.9739662896655" lon="-107.03179624221602"><ele>2090.0</ele><time>2026-05-03T17:40:24Z</time></trkpt><trkpt lat="35.974049346121625" lon="-107.03181395743637"><ele>2090.0</ele><time>2026-05-03T17:40:34Z</time></trkpt><trkpt lat="35.97410345709868" lon="-107.03172994301968"><ele>2090.0</ele><time>2026-05-03T17:40:36Z</time></trkpt><trkpt lat="35.97409566059908" lon="-107.03163769275724"><ele>2090.0</ele><time>2026-05-03T17:40:39Z</time></trkpt><trkpt lat="35.97421683893801" lon="-107.03162181299956"><ele>2090.0</ele><time>2026-05-03T17:40:45.999Z</time></trkpt><trkpt lat="35.974329486184686" lon="-107.03162038881167"><ele>2089.8</ele><time>2026-05-03T17:40:48Z</time></trkpt><trkpt lat="35.97444716402765" lon="-107.03154673203777"><ele>2089.6</ele><time>2026-05-03T17:40:50Z</time></trkpt><trkpt lat="35.97450258561453" lon="-107.03149190703996"><ele>2089.4</ele><time>2026-05-03T17:40:51Z</time></trkpt><trkpt lat="35.974552989358564" lon="-107.03140958203143"><ele>2089.2</ele><time>2026-05-03T17:40:52Z</time></trkpt><trkpt lat="35.974619375839666" lon="-107.03136393499014"><ele>2089.0</ele><time>2026-05-03T17:40:53Z</time></trkpt><trkpt lat="35.97470799369898" lon="-107.03135981629896"><ele>2089.0</ele><time>2026-05-03T17:40:54Z</time></trkpt><trkpt lat="35.97480445613034" lon="-107.0313943198286"><ele>2089.0</ele><time>2026-05-03T17:40:55Z</time></trkpt><trkpt lat="35.974881070453534" lon="-107.03145372341054"><ele>2089.0</ele><time>2026-05-03T17:40:56Z</time></trkpt><trkpt lat="35.9749352193617" lon="-107.03153039739856"><ele>2089.0</ele><time>2026-05-03T17:40:57Z</time></trkpt><trkpt lat="35.97499139698088" lon="-107.0316173880058"><ele>2089.0</ele><time>2026-05-03T17:40:58Z</time></trkpt><trkpt lat="35.97506563669922" lon="-107.03163118193312"><ele>2089.0</ele><time>2026-05-03T17:40:59Z</time></trkpt><trkpt lat="35.97513971743749" lon="-107.03161139674717"><ele>2091.0</ele><time>2026-05-03T17:41:00Z</time></trkpt><trkpt lat="35.97517763299928" lon="-107.03168495651803"><ele>2091.0</ele><time>2026-05-03T17:41:03Z</time></trkpt><trkpt lat="35.9752072277251" lon="-107.03175514411194"><ele>2091.0</ele><time>2026-05-03T17:41:14Z</time></trkpt></trkseg></trk></gpx>